<?xml version="1.0" encoding="UTF-8" standalone="no" ?>
<gpx xmlns="http://www.topografix.com/GPX/1/1" creator="www.cicloide.com" version="1.1" xmlns:xsi="http://www.w3.org/2001/XMLSchema-instance" xsi:schemaLocation="http://www.topografix.com/GPX/1/1 http://www.topografix.com/GPX/1/1/gpx.xsd">
  <trk>
    <name>www.cicloide.com 17204</name>
    <desc>www.cicloide.com 17204</desc>
    <trkseg>
      <trkpt lat="41.604691680" lon="2.539190100">
        <ele>115.20</ele>
        <time>2014-03-02T07:52:02Z</time>
      </trkpt>
      <trkpt lat="41.604690010" lon="2.539190100">
        <ele>115.20</ele>
        <time>2014-03-02T07:52:03Z</time>
      </trkpt>
      <trkpt lat="41.604690010" lon="2.539190100">
        <ele>115.20</ele>
        <time>2014-03-02T07:52:03Z</time>
      </trkpt>
      <trkpt lat="41.604690010" lon="2.539190100">
        <ele>115.20</ele>
        <time>2014-03-02T07:52:04Z</time>
      </trkpt>
      <trkpt lat="41.604690010" lon="2.539190100">
        <ele>115.20</ele>
        <time>2014-03-02T07:52:05Z</time>
      </trkpt>
      <trkpt lat="41.604690010" lon="2.539191780">
        <ele>115.20</ele>
        <time>2014-03-02T07:52:06Z</time>
      </trkpt>
      <trkpt lat="41.604690010" lon="2.539191780">
        <ele>115.20</ele>
        <time>2014-03-02T07:52:07Z</time>
      </trkpt>
      <trkpt lat="41.604690010" lon="2.539191780">
        <ele>115.20</ele>
        <time>2014-03-02T07:52:08Z</time>
      </trkpt>
      <trkpt lat="41.604690010" lon="2.539191780">
        <ele>115.20</ele>
        <time>2014-03-02T07:52:09Z</time>
      </trkpt>
      <trkpt lat="41.604690010" lon="2.539191780">
        <ele>115.20</ele>
        <time>2014-03-02T07:52:10Z</time>
      </trkpt>
      <trkpt lat="41.604690010" lon="2.539191780">
        <ele>115.20</ele>
        <time>2014-03-02T07:52:11Z</time>
      </trkpt>
      <trkpt lat="41.604690010" lon="2.539191780">
        <ele>115.20</ele>
        <time>2014-03-02T07:52:12Z</time>
      </trkpt>
      <trkpt lat="41.604690010" lon="2.539191780">
        <ele>115.20</ele>
        <time>2014-03-02T07:52:13Z</time>
      </trkpt>
      <trkpt lat="41.604690010" lon="2.539193460">
        <ele>115.20</ele>
        <time>2014-03-02T07:52:14Z</time>
      </trkpt>
      <trkpt lat="41.604688330" lon="2.539193460">
        <ele>115.20</ele>
        <time>2014-03-02T07:52:15Z</time>
      </trkpt>
      <trkpt lat="41.604688330" lon="2.539193460">
        <ele>115.20</ele>
        <time>2014-03-02T07:52:16Z</time>
      </trkpt>
      <trkpt lat="41.604688330" lon="2.539193460">
        <ele>115.20</ele>
        <time>2014-03-02T07:52:17Z</time>
      </trkpt>
      <trkpt lat="41.604688330" lon="2.539193460">
        <ele>115.20</ele>
        <time>2014-03-02T07:52:18Z</time>
      </trkpt>
      <trkpt lat="41.604688330" lon="2.539193460">
        <ele>115.20</ele>
        <time>2014-03-02T07:52:19Z</time>
      </trkpt>
      <trkpt lat="41.604688330" lon="2.539193460">
        <ele>115.20</ele>
        <time>2014-03-02T07:52:20Z</time>
      </trkpt>
      <trkpt lat="41.604688330" lon="2.539193460">
        <ele>115.20</ele>
        <time>2014-03-02T07:52:21Z</time>
      </trkpt>
      <trkpt lat="41.604688330" lon="2.539193460">
        <ele>115.20</ele>
        <time>2014-03-02T07:52:22Z</time>
      </trkpt>
      <trkpt lat="41.604688330" lon="2.539193460">
        <ele>115.20</ele>
        <time>2014-03-02T07:52:23Z</time>
      </trkpt>
      <trkpt lat="41.604690010" lon="2.539193460">
        <ele>115.20</ele>
        <time>2014-03-02T07:52:24Z</time>
      </trkpt>
      <trkpt lat="41.604690010" lon="2.539193460">
        <ele>115.20</ele>
        <time>2014-03-02T07:52:25Z</time>
      </trkpt>
      <trkpt lat="41.604690010" lon="2.539193460">
        <ele>115.20</ele>
        <time>2014-03-02T07:52:26Z</time>
      </trkpt>
      <trkpt lat="41.604690010" lon="2.539193460">
        <ele>115.20</ele>
        <time>2014-03-02T07:52:27Z</time>
      </trkpt>
      <trkpt lat="41.604690010" lon="2.539193460">
        <ele>115.20</ele>
        <time>2014-03-02T07:52:28Z</time>
      </trkpt>
      <trkpt lat="41.604690010" lon="2.539193460">
        <ele>115.20</ele>
        <time>2014-03-02T07:52:29Z</time>
      </trkpt>
      <trkpt lat="41.604690010" lon="2.539193460">
        <ele>115.20</ele>
        <time>2014-03-02T07:52:30Z</time>
      </trkpt>
      <trkpt lat="41.604690010" lon="2.539193460">
        <ele>115.20</ele>
        <time>2014-03-02T07:52:31Z</time>
      </trkpt>
      <trkpt lat="41.604690010" lon="2.539193460">
        <ele>115.20</ele>
        <time>2014-03-02T07:52:32Z</time>
      </trkpt>
      <trkpt lat="41.604691680" lon="2.539195130">
        <ele>115.20</ele>
        <time>2014-03-02T07:52:33Z</time>
      </trkpt>
      <trkpt lat="41.604691680" lon="2.539195130">
        <ele>115.20</ele>
        <time>2014-03-02T07:52:34Z</time>
      </trkpt>
      <trkpt lat="41.604693360" lon="2.539196810">
        <ele>115.20</ele>
        <time>2014-03-02T07:52:35Z</time>
      </trkpt>
      <trkpt lat="41.604695040" lon="2.539196810">
        <ele>115.20</ele>
        <time>2014-03-02T07:52:36Z</time>
      </trkpt>
      <trkpt lat="41.604695040" lon="2.539198490">
        <ele>115.20</ele>
        <time>2014-03-02T07:52:37Z</time>
      </trkpt>
      <trkpt lat="41.604696710" lon="2.539198490">
        <ele>115.20</ele>
        <time>2014-03-02T07:52:38Z</time>
      </trkpt>
      <trkpt lat="41.604712130" lon="2.539202510">
        <ele>115.20</ele>
        <time>2014-03-02T07:52:41Z</time>
      </trkpt>
      <trkpt lat="41.604710460" lon="2.539199830">
        <ele>115.20</ele>
        <time>2014-03-02T07:52:45Z</time>
      </trkpt>
      <trkpt lat="41.604708780" lon="2.539198490">
        <ele>115.20</ele>
        <time>2014-03-02T07:52:49Z</time>
      </trkpt>
      <trkpt lat="41.604706440" lon="2.539197480">
        <ele>115.20</ele>
        <time>2014-03-02T07:52:53Z</time>
      </trkpt>
      <trkpt lat="41.604705760" lon="2.539196480">
        <ele>115.20</ele>
        <time>2014-03-02T07:52:57Z</time>
      </trkpt>
      <trkpt lat="41.604704420" lon="2.539195470">
        <ele>115.20</ele>
        <time>2014-03-02T07:53:01Z</time>
      </trkpt>
      <trkpt lat="41.604703750" lon="2.539195130">
        <ele>115.20</ele>
        <time>2014-03-02T07:53:05Z</time>
      </trkpt>
      <trkpt lat="41.604703420" lon="2.539195130">
        <ele>115.20</ele>
        <time>2014-03-02T07:53:07Z</time>
      </trkpt>
      <trkpt lat="41.604702080" lon="2.539192120">
        <ele>115.20</ele>
        <time>2014-03-02T07:53:13Z</time>
      </trkpt>
      <trkpt lat="41.604701070" lon="2.539191110">
        <ele>115.20</ele>
        <time>2014-03-02T07:53:17Z</time>
      </trkpt>
      <trkpt lat="41.604699060" lon="2.539190440">
        <ele>115.20</ele>
        <time>2014-03-02T07:53:21Z</time>
      </trkpt>
      <trkpt lat="41.604698050" lon="2.539189770">
        <ele>115.20</ele>
        <time>2014-03-02T07:53:25Z</time>
      </trkpt>
      <trkpt lat="41.604696710" lon="2.539188760">
        <ele>115.20</ele>
        <time>2014-03-02T07:53:29Z</time>
      </trkpt>
      <trkpt lat="41.604696380" lon="2.539188430">
        <ele>115.20</ele>
        <time>2014-03-02T07:53:33Z</time>
      </trkpt>
      <trkpt lat="41.604696040" lon="2.539187760">
        <ele>115.20</ele>
        <time>2014-03-02T07:53:37Z</time>
      </trkpt>
      <trkpt lat="41.604693690" lon="2.539184070">
        <ele>115.20</ele>
        <time>2014-03-02T07:53:41Z</time>
      </trkpt>
      <trkpt lat="41.604693020" lon="2.539184070">
        <ele>115.20</ele>
        <time>2014-03-02T07:53:45Z</time>
      </trkpt>
      <trkpt lat="41.604695040" lon="2.539185080">
        <ele>115.20</ele>
        <time>2014-03-02T07:53:49Z</time>
      </trkpt>
      <trkpt lat="41.604695040" lon="2.539185750">
        <ele>115.20</ele>
        <time>2014-03-02T07:53:53Z</time>
      </trkpt>
      <trkpt lat="41.604695040" lon="2.539185750">
        <ele>115.20</ele>
        <time>2014-03-02T07:53:57Z</time>
      </trkpt>
      <trkpt lat="41.604695040" lon="2.539186750">
        <ele>115.20</ele>
        <time>2014-03-02T07:53:59Z</time>
      </trkpt>
      <trkpt lat="41.604695040" lon="2.539186750">
        <ele>115.20</ele>
        <time>2014-03-02T07:54:00Z</time>
      </trkpt>
      <trkpt lat="41.604695040" lon="2.539186750">
        <ele>115.20</ele>
        <time>2014-03-02T07:54:01Z</time>
      </trkpt>
      <trkpt lat="41.604695040" lon="2.539186750">
        <ele>115.20</ele>
        <time>2014-03-02T07:54:02Z</time>
      </trkpt>
      <trkpt lat="41.604695040" lon="2.539186750">
        <ele>115.20</ele>
        <time>2014-03-02T07:54:03Z</time>
      </trkpt>
      <trkpt lat="41.604695040" lon="2.539186750">
        <ele>115.20</ele>
        <time>2014-03-02T07:54:04Z</time>
      </trkpt>
      <trkpt lat="41.604696710" lon="2.539186750">
        <ele>115.20</ele>
        <time>2014-03-02T07:54:05Z</time>
      </trkpt>
      <trkpt lat="41.604696710" lon="2.539186750">
        <ele>115.20</ele>
        <time>2014-03-02T07:54:06Z</time>
      </trkpt>
      <trkpt lat="41.604696710" lon="2.539186750">
        <ele>115.20</ele>
        <time>2014-03-02T07:54:07Z</time>
      </trkpt>
      <trkpt lat="41.604696710" lon="2.539186750">
        <ele>115.20</ele>
        <time>2014-03-02T07:54:08Z</time>
      </trkpt>
      <trkpt lat="41.604696710" lon="2.539186750">
        <ele>115.20</ele>
        <time>2014-03-02T07:54:09Z</time>
      </trkpt>
      <trkpt lat="41.604696710" lon="2.539186750">
        <ele>115.20</ele>
        <time>2014-03-02T07:54:10Z</time>
      </trkpt>
      <trkpt lat="41.604696710" lon="2.539186750">
        <ele>115.20</ele>
        <time>2014-03-02T07:54:11Z</time>
      </trkpt>
      <trkpt lat="41.604698390" lon="2.539186750">
        <ele>115.20</ele>
        <time>2014-03-02T07:54:12Z</time>
      </trkpt>
      <trkpt lat="41.604698390" lon="2.539186750">
        <ele>115.20</ele>
        <time>2014-03-02T07:54:13Z</time>
      </trkpt>
      <trkpt lat="41.604698390" lon="2.539186750">
        <ele>115.20</ele>
        <time>2014-03-02T07:54:14Z</time>
      </trkpt>
      <trkpt lat="41.604698390" lon="2.539186750">
        <ele>115.20</ele>
        <time>2014-03-02T07:54:15Z</time>
      </trkpt>
      <trkpt lat="41.604698390" lon="2.539188430">
        <ele>115.20</ele>
        <time>2014-03-02T07:54:16Z</time>
      </trkpt>
      <trkpt lat="41.604698390" lon="2.539188430">
        <ele>115.20</ele>
        <time>2014-03-02T07:54:17Z</time>
      </trkpt>
      <trkpt lat="41.604698390" lon="2.539188430">
        <ele>115.20</ele>
        <time>2014-03-02T07:54:18Z</time>
      </trkpt>
      <trkpt lat="41.604700060" lon="2.539188430">
        <ele>115.20</ele>
        <time>2014-03-02T07:54:19Z</time>
      </trkpt>
      <trkpt lat="41.604700060" lon="2.539188430">
        <ele>115.20</ele>
        <time>2014-03-02T07:54:20Z</time>
      </trkpt>
      <trkpt lat="41.604700060" lon="2.539188430">
        <ele>115.20</ele>
        <time>2014-03-02T07:54:21Z</time>
      </trkpt>
      <trkpt lat="41.604700060" lon="2.539188430">
        <ele>115.20</ele>
        <time>2014-03-02T07:54:22Z</time>
      </trkpt>
      <trkpt lat="41.604700060" lon="2.539188430">
        <ele>115.20</ele>
        <time>2014-03-02T07:54:23Z</time>
      </trkpt>
      <trkpt lat="41.604701740" lon="2.539188430">
        <ele>115.20</ele>
        <time>2014-03-02T07:54:24Z</time>
      </trkpt>
      <trkpt lat="41.604701740" lon="2.539188430">
        <ele>115.20</ele>
        <time>2014-03-02T07:54:25Z</time>
      </trkpt>
      <trkpt lat="41.604701740" lon="2.539190100">
        <ele>115.20</ele>
        <time>2014-03-02T07:54:26Z</time>
      </trkpt>
      <trkpt lat="41.604701740" lon="2.539190100">
        <ele>115.20</ele>
        <time>2014-03-02T07:54:27Z</time>
      </trkpt>
      <trkpt lat="41.604701740" lon="2.539190100">
        <ele>115.20</ele>
        <time>2014-03-02T07:54:28Z</time>
      </trkpt>
      <trkpt lat="41.604703420" lon="2.539190100">
        <ele>115.20</ele>
        <time>2014-03-02T07:54:29Z</time>
      </trkpt>
      <trkpt lat="41.604703420" lon="2.539190100">
        <ele>115.20</ele>
        <time>2014-03-02T07:54:30Z</time>
      </trkpt>
      <trkpt lat="41.604703420" lon="2.539190100">
        <ele>115.20</ele>
        <time>2014-03-02T07:54:31Z</time>
      </trkpt>
      <trkpt lat="41.604703420" lon="2.539190100">
        <ele>115.20</ele>
        <time>2014-03-02T07:54:32Z</time>
      </trkpt>
      <trkpt lat="41.604703420" lon="2.539191780">
        <ele>115.20</ele>
        <time>2014-03-02T07:54:33Z</time>
      </trkpt>
      <trkpt lat="41.604705090" lon="2.539191780">
        <ele>115.20</ele>
        <time>2014-03-02T07:54:34Z</time>
      </trkpt>
      <trkpt lat="41.604705090" lon="2.539191780">
        <ele>115.20</ele>
        <time>2014-03-02T07:54:35Z</time>
      </trkpt>
      <trkpt lat="41.604705090" lon="2.539191780">
        <ele>115.20</ele>
        <time>2014-03-02T07:54:36Z</time>
      </trkpt>
      <trkpt lat="41.604705090" lon="2.539191780">
        <ele>115.20</ele>
        <time>2014-03-02T07:54:37Z</time>
      </trkpt>
      <trkpt lat="41.604706770" lon="2.539191780">
        <ele>115.20</ele>
        <time>2014-03-02T07:54:38Z</time>
      </trkpt>
      <trkpt lat="41.604706770" lon="2.539193460">
        <ele>115.20</ele>
        <time>2014-03-02T07:54:39Z</time>
      </trkpt>
      <trkpt lat="41.604706770" lon="2.539193460">
        <ele>115.20</ele>
        <time>2014-03-02T07:54:40Z</time>
      </trkpt>
      <trkpt lat="41.604706770" lon="2.539193460">
        <ele>115.20</ele>
        <time>2014-03-02T07:54:41Z</time>
      </trkpt>
      <trkpt lat="41.604708450" lon="2.539193460">
        <ele>115.20</ele>
        <time>2014-03-02T07:54:42Z</time>
      </trkpt>
      <trkpt lat="41.604708450" lon="2.539195130">
        <ele>115.20</ele>
        <time>2014-03-02T07:54:43Z</time>
      </trkpt>
      <trkpt lat="41.604708450" lon="2.539195130">
        <ele>115.20</ele>
        <time>2014-03-02T07:54:44Z</time>
      </trkpt>
      <trkpt lat="41.604708450" lon="2.539195130">
        <ele>115.20</ele>
        <time>2014-03-02T07:54:45Z</time>
      </trkpt>
      <trkpt lat="41.604710120" lon="2.539195130">
        <ele>115.20</ele>
        <time>2014-03-02T07:54:46Z</time>
      </trkpt>
      <trkpt lat="41.604710120" lon="2.539195130">
        <ele>115.20</ele>
        <time>2014-03-02T07:54:47Z</time>
      </trkpt>
      <trkpt lat="41.604710120" lon="2.539196810">
        <ele>115.20</ele>
        <time>2014-03-02T07:54:48Z</time>
      </trkpt>
      <trkpt lat="41.604710120" lon="2.539196810">
        <ele>115.20</ele>
        <time>2014-03-02T07:54:49Z</time>
      </trkpt>
      <trkpt lat="41.604710120" lon="2.539196810">
        <ele>115.20</ele>
        <time>2014-03-02T07:54:50Z</time>
      </trkpt>
      <trkpt lat="41.604711800" lon="2.539196810">
        <ele>115.20</ele>
        <time>2014-03-02T07:54:51Z</time>
      </trkpt>
      <trkpt lat="41.604710120" lon="2.539198490">
        <ele>115.20</ele>
        <time>2014-03-02T07:54:52Z</time>
      </trkpt>
      <trkpt lat="41.604710120" lon="2.539198490">
        <ele>115.20</ele>
        <time>2014-03-02T07:54:53Z</time>
      </trkpt>
      <trkpt lat="41.604708450" lon="2.539198490">
        <ele>115.20</ele>
        <time>2014-03-02T07:54:54Z</time>
      </trkpt>
      <trkpt lat="41.604708450" lon="2.539198490">
        <ele>115.20</ele>
        <time>2014-03-02T07:54:55Z</time>
      </trkpt>
      <trkpt lat="41.604708450" lon="2.539198490">
        <ele>115.20</ele>
        <time>2014-03-02T07:54:56Z</time>
      </trkpt>
      <trkpt lat="41.604708450" lon="2.539198490">
        <ele>115.20</ele>
        <time>2014-03-02T07:54:57Z</time>
      </trkpt>
      <trkpt lat="41.604708450" lon="2.539198490">
        <ele>115.20</ele>
        <time>2014-03-02T07:54:58Z</time>
      </trkpt>
      <trkpt lat="41.604708450" lon="2.539198490">
        <ele>115.20</ele>
        <time>2014-03-02T07:54:59Z</time>
      </trkpt>
      <trkpt lat="41.604708450" lon="2.539198490">
        <ele>115.20</ele>
        <time>2014-03-02T07:55:00Z</time>
      </trkpt>
      <trkpt lat="41.604708450" lon="2.539198490">
        <ele>115.20</ele>
        <time>2014-03-02T07:55:01Z</time>
      </trkpt>
      <trkpt lat="41.604705090" lon="2.539191780">
        <ele>115.20</ele>
        <time>2014-03-02T07:55:02Z</time>
      </trkpt>
      <trkpt lat="41.604701740" lon="2.539186750">
        <ele>115.20</ele>
        <time>2014-03-02T07:55:03Z</time>
      </trkpt>
      <trkpt lat="41.604698390" lon="2.539180050">
        <ele>115.20</ele>
        <time>2014-03-02T07:55:04Z</time>
      </trkpt>
      <trkpt lat="41.604698390" lon="2.539180050">
        <ele>115.20</ele>
        <time>2014-03-02T07:55:05Z</time>
      </trkpt>
      <trkpt lat="41.604698390" lon="2.539181720">
        <ele>115.20</ele>
        <time>2014-03-02T07:55:06Z</time>
      </trkpt>
      <trkpt lat="41.604700060" lon="2.539181720">
        <ele>115.20</ele>
        <time>2014-03-02T07:55:07Z</time>
      </trkpt>
      <trkpt lat="41.604701740" lon="2.539183400">
        <ele>115.20</ele>
        <time>2014-03-02T07:55:08Z</time>
      </trkpt>
      <trkpt lat="41.604701740" lon="2.539185080">
        <ele>115.20</ele>
        <time>2014-03-02T07:55:09Z</time>
      </trkpt>
      <trkpt lat="41.604701740" lon="2.539185080">
        <ele>115.20</ele>
        <time>2014-03-02T07:55:10Z</time>
      </trkpt>
      <trkpt lat="41.604700060" lon="2.539183400">
        <ele>115.20</ele>
        <time>2014-03-02T07:55:11Z</time>
      </trkpt>
      <trkpt lat="41.604696710" lon="2.539180050">
        <ele>115.30</ele>
        <time>2014-03-02T07:55:12Z</time>
      </trkpt>
      <trkpt lat="41.604696710" lon="2.539180050">
        <ele>115.40</ele>
        <time>2014-03-02T07:55:13Z</time>
      </trkpt>
      <trkpt lat="41.604690010" lon="2.539185080">
        <ele>115.40</ele>
        <time>2014-03-02T07:55:14Z</time>
      </trkpt>
      <trkpt lat="41.604680120" lon="2.539195130">
        <ele>115.40</ele>
        <time>2014-03-02T07:55:15Z</time>
      </trkpt>
      <trkpt lat="41.604666700" lon="2.539211730">
        <ele>115.20</ele>
        <time>2014-03-02T07:55:16Z</time>
      </trkpt>
      <trkpt lat="41.604653460" lon="2.539231680">
        <ele>115.20</ele>
        <time>2014-03-02T07:55:17Z</time>
      </trkpt>
      <trkpt lat="41.604636700" lon="2.539255150">
        <ele>115.10</ele>
        <time>2014-03-02T07:55:18Z</time>
      </trkpt>
      <trkpt lat="41.604620100" lon="2.539281800">
        <ele>114.60</ele>
        <time>2014-03-02T07:55:19Z</time>
      </trkpt>
      <trkpt lat="41.604603340" lon="2.539313490">
        <ele>114.20</ele>
        <time>2014-03-02T07:55:20Z</time>
      </trkpt>
      <trkpt lat="41.604585070" lon="2.539343490">
        <ele>114.00</ele>
        <time>2014-03-02T07:55:21Z</time>
      </trkpt>
      <trkpt lat="41.604561760" lon="2.539378360">
        <ele>113.80</ele>
        <time>2014-03-02T07:55:22Z</time>
      </trkpt>
      <trkpt lat="41.604538460" lon="2.539416750">
        <ele>113.70</ele>
        <time>2014-03-02T07:55:23Z</time>
      </trkpt>
      <trkpt lat="41.604513480" lon="2.539465030">
        <ele>113.60</ele>
        <time>2014-03-02T07:55:24Z</time>
      </trkpt>
      <trkpt lat="41.604490010" lon="2.539513480">
        <ele>113.50</ele>
        <time>2014-03-02T07:55:25Z</time>
      </trkpt>
      <trkpt lat="41.604471740" lon="2.539566790">
        <ele>113.20</ele>
        <time>2014-03-02T07:55:26Z</time>
      </trkpt>
      <trkpt lat="41.604463360" lon="2.539625130">
        <ele>113.10</ele>
        <time>2014-03-02T07:55:27Z</time>
      </trkpt>
      <trkpt lat="41.604468390" lon="2.539680110">
        <ele>113.00</ele>
        <time>2014-03-02T07:55:28Z</time>
      </trkpt>
      <trkpt lat="41.604485150" lon="2.539730070">
        <ele>112.90</ele>
        <time>2014-03-02T07:55:29Z</time>
      </trkpt>
      <trkpt lat="41.604511810" lon="2.539775160">
        <ele>112.90</ele>
        <time>2014-03-02T07:55:30Z</time>
      </trkpt>
      <trkpt lat="41.604545000" lon="2.539818410">
        <ele>112.80</ele>
        <time>2014-03-02T07:55:31Z</time>
      </trkpt>
      <trkpt lat="41.604583390" lon="2.539863340">
        <ele>112.70</ele>
        <time>2014-03-02T07:55:32Z</time>
      </trkpt>
      <trkpt lat="41.604625130" lon="2.539903400">
        <ele>112.60</ele>
        <time>2014-03-02T07:55:33Z</time>
      </trkpt>
      <trkpt lat="41.604663350" lon="2.539935090">
        <ele>112.60</ele>
        <time>2014-03-02T07:55:34Z</time>
      </trkpt>
      <trkpt lat="41.604693360" lon="2.539960070">
        <ele>112.20</ele>
        <time>2014-03-02T07:55:35Z</time>
      </trkpt>
      <trkpt lat="41.604716830" lon="2.539980020">
        <ele>111.90</ele>
        <time>2014-03-02T07:55:36Z</time>
      </trkpt>
      <trkpt lat="41.604731750" lon="2.540006670">
        <ele>111.60</ele>
        <time>2014-03-02T07:55:37Z</time>
      </trkpt>
      <trkpt lat="41.604740130" lon="2.540038350">
        <ele>111.20</ele>
        <time>2014-03-02T07:55:38Z</time>
      </trkpt>
      <trkpt lat="41.604748340" lon="2.540068360">
        <ele>110.90</ele>
        <time>2014-03-02T07:55:39Z</time>
      </trkpt>
      <trkpt lat="41.604761760" lon="2.540096690">
        <ele>111.20</ele>
        <time>2014-03-02T07:55:40Z</time>
      </trkpt>
      <trkpt lat="41.604780030" lon="2.540118480">
        <ele>111.40</ele>
        <time>2014-03-02T07:55:41Z</time>
      </trkpt>
      <trkpt lat="41.604801820" lon="2.540131730">
        <ele>111.60</ele>
        <time>2014-03-02T07:55:42Z</time>
      </trkpt>
      <trkpt lat="41.604823450" lon="2.540140110">
        <ele>111.70</ele>
        <time>2014-03-02T07:55:43Z</time>
      </trkpt>
      <trkpt lat="41.604845070" lon="2.540146820">
        <ele>111.80</ele>
        <time>2014-03-02T07:55:44Z</time>
      </trkpt>
      <trkpt lat="41.604868370" lon="2.540148490">
        <ele>112.20</ele>
        <time>2014-03-02T07:55:45Z</time>
      </trkpt>
      <trkpt lat="41.604888490" lon="2.540150000">
        <ele>112.60</ele>
        <time>2014-03-02T07:55:46Z</time>
      </trkpt>
      <trkpt lat="41.604908440" lon="2.540156710">
        <ele>112.90</ele>
        <time>2014-03-02T07:55:47Z</time>
      </trkpt>
      <trkpt lat="41.604930060" lon="2.540163410">
        <ele>113.20</ele>
        <time>2014-03-02T07:55:48Z</time>
      </trkpt>
      <trkpt lat="41.604951690" lon="2.540170120">
        <ele>113.40</ele>
        <time>2014-03-02T07:55:49Z</time>
      </trkpt>
      <trkpt lat="41.604971810" lon="2.540171790">
        <ele>113.30</ele>
        <time>2014-03-02T07:55:50Z</time>
      </trkpt>
      <trkpt lat="41.604991760" lon="2.540176820">
        <ele>113.30</ele>
        <time>2014-03-02T07:55:51Z</time>
      </trkpt>
      <trkpt lat="41.605011700" lon="2.540181680">
        <ele>113.70</ele>
        <time>2014-03-02T07:55:52Z</time>
      </trkpt>
      <trkpt lat="41.605031820" lon="2.540186710">
        <ele>113.90</ele>
        <time>2014-03-02T07:55:53Z</time>
      </trkpt>
      <trkpt lat="41.605053450" lon="2.540190070">
        <ele>113.80</ele>
        <time>2014-03-02T07:55:54Z</time>
      </trkpt>
      <trkpt lat="41.605085130" lon="2.540201800">
        <ele>113.70</ele>
        <time>2014-03-02T07:55:55Z</time>
      </trkpt>
      <trkpt lat="41.605105080" lon="2.540206660">
        <ele>113.60</ele>
        <time>2014-03-02T07:55:56Z</time>
      </trkpt>
      <trkpt lat="41.605126700" lon="2.540211690">
        <ele>113.70</ele>
        <time>2014-03-02T07:55:57Z</time>
      </trkpt>
      <trkpt lat="41.605150010" lon="2.540215040">
        <ele>113.80</ele>
        <time>2014-03-02T07:55:58Z</time>
      </trkpt>
      <trkpt lat="41.605173470" lon="2.540215040">
        <ele>114.20</ele>
        <time>2014-03-02T07:55:59Z</time>
      </trkpt>
      <trkpt lat="41.605195100" lon="2.540220070">
        <ele>114.50</ele>
        <time>2014-03-02T07:56:00Z</time>
      </trkpt>
      <trkpt lat="41.605218400" lon="2.540221750">
        <ele>114.70</ele>
        <time>2014-03-02T07:56:01Z</time>
      </trkpt>
      <trkpt lat="41.605243380" lon="2.540226780">
        <ele>114.60</ele>
        <time>2014-03-02T07:56:02Z</time>
      </trkpt>
      <trkpt lat="41.605266680" lon="2.540231810">
        <ele>114.60</ele>
        <time>2014-03-02T07:56:03Z</time>
      </trkpt>
      <trkpt lat="41.605290150" lon="2.540236670">
        <ele>115.00</ele>
        <time>2014-03-02T07:56:04Z</time>
      </trkpt>
      <trkpt lat="41.605310100" lon="2.540240020">
        <ele>115.30</ele>
        <time>2014-03-02T07:56:05Z</time>
      </trkpt>
      <trkpt lat="41.605331730" lon="2.540245050">
        <ele>115.00</ele>
        <time>2014-03-02T07:56:06Z</time>
      </trkpt>
      <trkpt lat="41.605353350" lon="2.540251760">
        <ele>114.80</ele>
        <time>2014-03-02T07:56:07Z</time>
      </trkpt>
      <trkpt lat="41.605376820" lon="2.540255110">
        <ele>114.70</ele>
        <time>2014-03-02T07:56:08Z</time>
      </trkpt>
      <trkpt lat="41.605401800" lon="2.540261810">
        <ele>115.10</ele>
        <time>2014-03-02T07:56:09Z</time>
      </trkpt>
      <trkpt lat="41.605426780" lon="2.540268350">
        <ele>115.40</ele>
        <time>2014-03-02T07:56:10Z</time>
      </trkpt>
      <trkpt lat="41.605450080" lon="2.540278410">
        <ele>115.50</ele>
        <time>2014-03-02T07:56:11Z</time>
      </trkpt>
      <trkpt lat="41.605476730" lon="2.540285120">
        <ele>115.60</ele>
        <time>2014-03-02T07:56:12Z</time>
      </trkpt>
      <trkpt lat="41.605498360" lon="2.540291820">
        <ele>115.60</ele>
        <time>2014-03-02T07:56:13Z</time>
      </trkpt>
      <trkpt lat="41.605521830" lon="2.540296680">
        <ele>115.70</ele>
        <time>2014-03-02T07:56:14Z</time>
      </trkpt>
      <trkpt lat="41.605546800" lon="2.540300040">
        <ele>115.80</ele>
        <time>2014-03-02T07:56:15Z</time>
      </trkpt>
      <trkpt lat="41.605571780" lon="2.540305070">
        <ele>115.70</ele>
        <time>2014-03-02T07:56:16Z</time>
      </trkpt>
      <trkpt lat="41.605596760" lon="2.540310090">
        <ele>115.70</ele>
        <time>2014-03-02T07:56:17Z</time>
      </trkpt>
      <trkpt lat="41.605620060" lon="2.540313450">
        <ele>116.00</ele>
        <time>2014-03-02T07:56:18Z</time>
      </trkpt>
      <trkpt lat="41.605643360" lon="2.540316800">
        <ele>116.20</ele>
        <time>2014-03-02T07:56:19Z</time>
      </trkpt>
      <trkpt lat="41.605663480" lon="2.540320150">
        <ele>116.30</ele>
        <time>2014-03-02T07:56:20Z</time>
      </trkpt>
      <trkpt lat="41.605681750" lon="2.540321660">
        <ele>116.40</ele>
        <time>2014-03-02T07:56:21Z</time>
      </trkpt>
      <trkpt lat="41.605698350" lon="2.540321660">
        <ele>116.40</ele>
        <time>2014-03-02T07:56:22Z</time>
      </trkpt>
      <trkpt lat="41.605706730" lon="2.540323340">
        <ele>116.60</ele>
        <time>2014-03-02T07:56:23Z</time>
      </trkpt>
      <trkpt lat="41.605710080" lon="2.540325010">
        <ele>116.70</ele>
        <time>2014-03-02T07:56:24Z</time>
      </trkpt>
      <trkpt lat="41.605711760" lon="2.540323340">
        <ele>116.40</ele>
        <time>2014-03-02T07:56:25Z</time>
      </trkpt>
      <trkpt lat="41.605713440" lon="2.540321660">
        <ele>116.10</ele>
        <time>2014-03-02T07:56:26Z</time>
      </trkpt>
      <trkpt lat="41.605715110" lon="2.540321660">
        <ele>116.00</ele>
        <time>2014-03-02T07:56:27Z</time>
      </trkpt>
      <trkpt lat="41.605718470" lon="2.540321660">
        <ele>116.30</ele>
        <time>2014-03-02T07:56:28Z</time>
      </trkpt>
      <trkpt lat="41.605718470" lon="2.540321660">
        <ele>116.60</ele>
        <time>2014-03-02T07:56:29Z</time>
      </trkpt>
      <trkpt lat="41.605718470" lon="2.540321660">
        <ele>116.50</ele>
        <time>2014-03-02T07:56:30Z</time>
      </trkpt>
      <trkpt lat="41.605720140" lon="2.540321660">
        <ele>116.40</ele>
        <time>2014-03-02T07:56:31Z</time>
      </trkpt>
      <trkpt lat="41.605721820" lon="2.540321660">
        <ele>116.30</ele>
        <time>2014-03-02T07:56:32Z</time>
      </trkpt>
      <trkpt lat="41.605723500" lon="2.540323340">
        <ele>116.10</ele>
        <time>2014-03-02T07:56:33Z</time>
      </trkpt>
      <trkpt lat="41.605723500" lon="2.540325010">
        <ele>116.00</ele>
        <time>2014-03-02T07:56:34Z</time>
      </trkpt>
      <trkpt lat="41.605725000" lon="2.540325010">
        <ele>116.20</ele>
        <time>2014-03-02T07:56:35Z</time>
      </trkpt>
      <trkpt lat="41.605725000" lon="2.540323340">
        <ele>116.40</ele>
        <time>2014-03-02T07:56:36Z</time>
      </trkpt>
      <trkpt lat="41.605726680" lon="2.540321660">
        <ele>116.10</ele>
        <time>2014-03-02T07:56:37Z</time>
      </trkpt>
      <trkpt lat="41.605726680" lon="2.540321660">
        <ele>115.90</ele>
        <time>2014-03-02T07:56:38Z</time>
      </trkpt>
      <trkpt lat="41.605728360" lon="2.540321660">
        <ele>115.80</ele>
        <time>2014-03-02T07:56:39Z</time>
      </trkpt>
      <trkpt lat="41.605730030" lon="2.540321660">
        <ele>116.20</ele>
        <time>2014-03-02T07:56:40Z</time>
      </trkpt>
      <trkpt lat="41.605731710" lon="2.540323340">
        <ele>116.50</ele>
        <time>2014-03-02T07:56:41Z</time>
      </trkpt>
      <trkpt lat="41.605733390" lon="2.540325010">
        <ele>116.50</ele>
        <time>2014-03-02T07:56:42Z</time>
      </trkpt>
      <trkpt lat="41.605735060" lon="2.540326690">
        <ele>116.40</ele>
        <time>2014-03-02T07:56:43Z</time>
      </trkpt>
      <trkpt lat="41.605736740" lon="2.540328370">
        <ele>116.50</ele>
        <time>2014-03-02T07:56:44Z</time>
      </trkpt>
      <trkpt lat="41.605738420" lon="2.540330040">
        <ele>116.60</ele>
        <time>2014-03-02T07:56:45Z</time>
      </trkpt>
      <trkpt lat="41.605740090" lon="2.540333400">
        <ele>116.60</ele>
        <time>2014-03-02T07:56:46Z</time>
      </trkpt>
      <trkpt lat="41.605741770" lon="2.540335070">
        <ele>116.60</ele>
        <time>2014-03-02T07:56:47Z</time>
      </trkpt>
      <trkpt lat="41.605743440" lon="2.540336750">
        <ele>116.70</ele>
        <time>2014-03-02T07:56:48Z</time>
      </trkpt>
      <trkpt lat="41.605743440" lon="2.540338430">
        <ele>116.40</ele>
        <time>2014-03-02T07:56:49Z</time>
      </trkpt>
      <trkpt lat="41.605745120" lon="2.540340100">
        <ele>116.20</ele>
        <time>2014-03-02T07:56:50Z</time>
      </trkpt>
      <trkpt lat="41.605746800" lon="2.540341780">
        <ele>116.50</ele>
        <time>2014-03-02T07:56:51Z</time>
      </trkpt>
      <trkpt lat="41.605746800" lon="2.540341780">
        <ele>116.70</ele>
        <time>2014-03-02T07:56:52Z</time>
      </trkpt>
      <trkpt lat="41.605748470" lon="2.540343450">
        <ele>116.90</ele>
        <time>2014-03-02T07:56:53Z</time>
      </trkpt>
      <trkpt lat="41.605750150" lon="2.540345130">
        <ele>116.70</ele>
        <time>2014-03-02T07:56:54Z</time>
      </trkpt>
      <trkpt lat="41.605750150" lon="2.540346810">
        <ele>116.50</ele>
        <time>2014-03-02T07:56:55Z</time>
      </trkpt>
      <trkpt lat="41.605751830" lon="2.540346810">
        <ele>116.40</ele>
        <time>2014-03-02T07:56:56Z</time>
      </trkpt>
      <trkpt lat="41.605751830" lon="2.540348480">
        <ele>116.40</ele>
        <time>2014-03-02T07:56:57Z</time>
      </trkpt>
      <trkpt lat="41.605753330" lon="2.540350160">
        <ele>116.30</ele>
        <time>2014-03-02T07:56:58Z</time>
      </trkpt>
      <trkpt lat="41.605753330" lon="2.540350160">
        <ele>116.20</ele>
        <time>2014-03-02T07:56:59Z</time>
      </trkpt>
      <trkpt lat="41.605755010" lon="2.540351670">
        <ele>116.10</ele>
        <time>2014-03-02T07:57:00Z</time>
      </trkpt>
      <trkpt lat="41.605755010" lon="2.540353350">
        <ele>115.60</ele>
        <time>2014-03-02T07:57:01Z</time>
      </trkpt>
      <trkpt lat="41.605755010" lon="2.540353350">
        <ele>115.20</ele>
        <time>2014-03-02T07:57:02Z</time>
      </trkpt>
      <trkpt lat="41.605756690" lon="2.540353350">
        <ele>114.90</ele>
        <time>2014-03-02T07:57:03Z</time>
      </trkpt>
      <trkpt lat="41.605756690" lon="2.540353350">
        <ele>114.70</ele>
        <time>2014-03-02T07:57:04Z</time>
      </trkpt>
      <trkpt lat="41.605758360" lon="2.540353350">
        <ele>114.50</ele>
        <time>2014-03-02T07:57:05Z</time>
      </trkpt>
      <trkpt lat="41.605758360" lon="2.540351670">
        <ele>114.70</ele>
        <time>2014-03-02T07:57:06Z</time>
      </trkpt>
      <trkpt lat="41.605760040" lon="2.540351670">
        <ele>114.70</ele>
        <time>2014-03-02T07:57:07Z</time>
      </trkpt>
      <trkpt lat="41.605760040" lon="2.540353350">
        <ele>114.80</ele>
        <time>2014-03-02T07:57:08Z</time>
      </trkpt>
      <trkpt lat="41.605760040" lon="2.540353350">
        <ele>114.80</ele>
        <time>2014-03-02T07:57:09Z</time>
      </trkpt>
      <trkpt lat="41.605760040" lon="2.540355020">
        <ele>114.90</ele>
        <time>2014-03-02T07:57:10Z</time>
      </trkpt>
      <trkpt lat="41.605758360" lon="2.540355020">
        <ele>114.90</ele>
        <time>2014-03-02T07:57:11Z</time>
      </trkpt>
      <trkpt lat="41.605756690" lon="2.540355020">
        <ele>114.90</ele>
        <time>2014-03-02T07:57:12Z</time>
      </trkpt>
      <trkpt lat="41.605755010" lon="2.540355020">
        <ele>114.80</ele>
        <time>2014-03-02T07:57:13Z</time>
      </trkpt>
      <trkpt lat="41.605755010" lon="2.540355020">
        <ele>114.80</ele>
        <time>2014-03-02T07:57:14Z</time>
      </trkpt>
      <trkpt lat="41.605753330" lon="2.540355020">
        <ele>114.70</ele>
        <time>2014-03-02T07:57:15Z</time>
      </trkpt>
      <trkpt lat="41.605753330" lon="2.540355020">
        <ele>114.60</ele>
        <time>2014-03-02T07:57:16Z</time>
      </trkpt>
      <trkpt lat="41.605751830" lon="2.540355020">
        <ele>114.60</ele>
        <time>2014-03-02T07:57:17Z</time>
      </trkpt>
      <trkpt lat="41.605751830" lon="2.540353350">
        <ele>114.70</ele>
        <time>2014-03-02T07:57:18Z</time>
      </trkpt>
      <trkpt lat="41.605750150" lon="2.540351670">
        <ele>114.70</ele>
        <time>2014-03-02T07:57:19Z</time>
      </trkpt>
      <trkpt lat="41.605750150" lon="2.540350160">
        <ele>114.90</ele>
        <time>2014-03-02T07:57:20Z</time>
      </trkpt>
      <trkpt lat="41.605750150" lon="2.540346810">
        <ele>115.00</ele>
        <time>2014-03-02T07:57:21Z</time>
      </trkpt>
      <trkpt lat="41.605748470" lon="2.540345130">
        <ele>114.90</ele>
        <time>2014-03-02T07:57:22Z</time>
      </trkpt>
      <trkpt lat="41.605748470" lon="2.540343450">
        <ele>114.80</ele>
        <time>2014-03-02T07:57:23Z</time>
      </trkpt>
      <trkpt lat="41.605746800" lon="2.540341780">
        <ele>114.80</ele>
        <time>2014-03-02T07:57:24Z</time>
      </trkpt>
      <trkpt lat="41.605746800" lon="2.540341780">
        <ele>114.70</ele>
        <time>2014-03-02T07:57:25Z</time>
      </trkpt>
      <trkpt lat="41.605745120" lon="2.540343450">
        <ele>114.60</ele>
        <time>2014-03-02T07:57:26Z</time>
      </trkpt>
      <trkpt lat="41.605745120" lon="2.540345130">
        <ele>114.50</ele>
        <time>2014-03-02T07:57:27Z</time>
      </trkpt>
      <trkpt lat="41.605743440" lon="2.540346810">
        <ele>114.50</ele>
        <time>2014-03-02T07:57:28Z</time>
      </trkpt>
      <trkpt lat="41.605743440" lon="2.540348480">
        <ele>114.40</ele>
        <time>2014-03-02T07:57:29Z</time>
      </trkpt>
      <trkpt lat="41.605741770" lon="2.540350160">
        <ele>114.30</ele>
        <time>2014-03-02T07:57:30Z</time>
      </trkpt>
      <trkpt lat="41.605741770" lon="2.540350160">
        <ele>114.20</ele>
        <time>2014-03-02T07:57:31Z</time>
      </trkpt>
      <trkpt lat="41.605740090" lon="2.540348480">
        <ele>114.30</ele>
        <time>2014-03-02T07:57:32Z</time>
      </trkpt>
      <trkpt lat="41.605740090" lon="2.540346810">
        <ele>114.30</ele>
        <time>2014-03-02T07:57:33Z</time>
      </trkpt>
      <trkpt lat="41.605738420" lon="2.540346810">
        <ele>114.50</ele>
        <time>2014-03-02T07:57:34Z</time>
      </trkpt>
      <trkpt lat="41.605736740" lon="2.540343450">
        <ele>114.70</ele>
        <time>2014-03-02T07:57:35Z</time>
      </trkpt>
      <trkpt lat="41.605736740" lon="2.540341780">
        <ele>114.90</ele>
        <time>2014-03-02T07:57:36Z</time>
      </trkpt>
      <trkpt lat="41.605735060" lon="2.540340100">
        <ele>114.80</ele>
        <time>2014-03-02T07:57:37Z</time>
      </trkpt>
      <trkpt lat="41.605733390" lon="2.540338430">
        <ele>114.70</ele>
        <time>2014-03-02T07:57:38Z</time>
      </trkpt>
      <trkpt lat="41.605733390" lon="2.540338430">
        <ele>115.00</ele>
        <time>2014-03-02T07:57:39Z</time>
      </trkpt>
      <trkpt lat="41.605731710" lon="2.540338430">
        <ele>115.20</ele>
        <time>2014-03-02T07:57:40Z</time>
      </trkpt>
      <trkpt lat="41.605731710" lon="2.540340100">
        <ele>115.00</ele>
        <time>2014-03-02T07:57:41Z</time>
      </trkpt>
      <trkpt lat="41.605730030" lon="2.540341780">
        <ele>114.80</ele>
        <time>2014-03-02T07:57:42Z</time>
      </trkpt>
      <trkpt lat="41.605730030" lon="2.540343450">
        <ele>114.70</ele>
        <time>2014-03-02T07:57:43Z</time>
      </trkpt>
      <trkpt lat="41.605730030" lon="2.540345130">
        <ele>114.60</ele>
        <time>2014-03-02T07:57:44Z</time>
      </trkpt>
      <trkpt lat="41.605728360" lon="2.540346810">
        <ele>114.50</ele>
        <time>2014-03-02T07:57:45Z</time>
      </trkpt>
      <trkpt lat="41.605728360" lon="2.540348480">
        <ele>114.60</ele>
        <time>2014-03-02T07:57:46Z</time>
      </trkpt>
      <trkpt lat="41.605728360" lon="2.540351670">
        <ele>114.70</ele>
        <time>2014-03-02T07:57:47Z</time>
      </trkpt>
      <trkpt lat="41.605728360" lon="2.540353350">
        <ele>114.80</ele>
        <time>2014-03-02T07:57:48Z</time>
      </trkpt>
      <trkpt lat="41.605728360" lon="2.540355020">
        <ele>114.60</ele>
        <time>2014-03-02T07:57:49Z</time>
      </trkpt>
      <trkpt lat="41.605726680" lon="2.540356700">
        <ele>114.60</ele>
        <time>2014-03-02T07:57:50Z</time>
      </trkpt>
      <trkpt lat="41.605726680" lon="2.540356700">
        <ele>114.30</ele>
        <time>2014-03-02T07:57:51Z</time>
      </trkpt>
      <trkpt lat="41.605726680" lon="2.540358370">
        <ele>114.20</ele>
        <time>2014-03-02T07:57:52Z</time>
      </trkpt>
      <trkpt lat="41.605725000" lon="2.540358370">
        <ele>113.80</ele>
        <time>2014-03-02T07:57:53Z</time>
      </trkpt>
      <trkpt lat="41.605725000" lon="2.540360050">
        <ele>113.50</ele>
        <time>2014-03-02T07:57:54Z</time>
      </trkpt>
      <trkpt lat="41.605725000" lon="2.540361730">
        <ele>113.40</ele>
        <time>2014-03-02T07:57:55Z</time>
      </trkpt>
      <trkpt lat="41.605725000" lon="2.540361730">
        <ele>113.50</ele>
        <time>2014-03-02T07:57:56Z</time>
      </trkpt>
      <trkpt lat="41.605725000" lon="2.540363400">
        <ele>113.60</ele>
        <time>2014-03-02T07:57:57Z</time>
      </trkpt>
      <trkpt lat="41.605723500" lon="2.540363400">
        <ele>113.80</ele>
        <time>2014-03-02T07:57:58Z</time>
      </trkpt>
      <trkpt lat="41.605723500" lon="2.540363400">
        <ele>113.90</ele>
        <time>2014-03-02T07:57:59Z</time>
      </trkpt>
      <trkpt lat="41.605723500" lon="2.540361730">
        <ele>114.00</ele>
        <time>2014-03-02T07:58:00Z</time>
      </trkpt>
      <trkpt lat="41.605723500" lon="2.540361730">
        <ele>113.80</ele>
        <time>2014-03-02T07:58:01Z</time>
      </trkpt>
      <trkpt lat="41.605723500" lon="2.540361730">
        <ele>113.60</ele>
        <time>2014-03-02T07:58:02Z</time>
      </trkpt>
      <trkpt lat="41.605723500" lon="2.540361730">
        <ele>113.70</ele>
        <time>2014-03-02T07:58:03Z</time>
      </trkpt>
      <trkpt lat="41.605723500" lon="2.540361730">
        <ele>113.80</ele>
        <time>2014-03-02T07:58:04Z</time>
      </trkpt>
      <trkpt lat="41.605723500" lon="2.540363400">
        <ele>114.00</ele>
        <time>2014-03-02T07:58:05Z</time>
      </trkpt>
      <trkpt lat="41.605723500" lon="2.540363400">
        <ele>114.20</ele>
        <time>2014-03-02T07:58:06Z</time>
      </trkpt>
      <trkpt lat="41.605723500" lon="2.540365080">
        <ele>114.30</ele>
        <time>2014-03-02T07:58:07Z</time>
      </trkpt>
      <trkpt lat="41.605723500" lon="2.540365080">
        <ele>114.30</ele>
        <time>2014-03-02T07:58:08Z</time>
      </trkpt>
      <trkpt lat="41.605723500" lon="2.540365080">
        <ele>114.20</ele>
        <time>2014-03-02T07:58:09Z</time>
      </trkpt>
      <trkpt lat="41.605723500" lon="2.540365080">
        <ele>114.50</ele>
        <time>2014-03-02T07:58:10Z</time>
      </trkpt>
      <trkpt lat="41.605723500" lon="2.540365080">
        <ele>114.60</ele>
        <time>2014-03-02T07:58:11Z</time>
      </trkpt>
      <trkpt lat="41.605725000" lon="2.540365080">
        <ele>114.80</ele>
        <time>2014-03-02T07:58:12Z</time>
      </trkpt>
      <trkpt lat="41.605725000" lon="2.540365080">
        <ele>114.10</ele>
        <time>2014-03-02T07:58:13Z</time>
      </trkpt>
      <trkpt lat="41.605725000" lon="2.540365080">
        <ele>113.50</ele>
        <time>2014-03-02T07:58:14Z</time>
      </trkpt>
      <trkpt lat="41.605725000" lon="2.540365080">
        <ele>113.70</ele>
        <time>2014-03-02T07:58:15Z</time>
      </trkpt>
      <trkpt lat="41.605725000" lon="2.540366760">
        <ele>113.80</ele>
        <time>2014-03-02T07:58:16Z</time>
      </trkpt>
      <trkpt lat="41.605726680" lon="2.540366760">
        <ele>114.00</ele>
        <time>2014-03-02T07:58:17Z</time>
      </trkpt>
      <trkpt lat="41.605726680" lon="2.540366760">
        <ele>114.10</ele>
        <time>2014-03-02T07:58:18Z</time>
      </trkpt>
      <trkpt lat="41.605726680" lon="2.540366760">
        <ele>114.20</ele>
        <time>2014-03-02T07:58:19Z</time>
      </trkpt>
      <trkpt lat="41.605726680" lon="2.540366760">
        <ele>114.10</ele>
        <time>2014-03-02T07:58:20Z</time>
      </trkpt>
      <trkpt lat="41.605726680" lon="2.540366760">
        <ele>114.10</ele>
        <time>2014-03-02T07:58:21Z</time>
      </trkpt>
      <trkpt lat="41.605726680" lon="2.540368430">
        <ele>113.90</ele>
        <time>2014-03-02T07:58:22Z</time>
      </trkpt>
      <trkpt lat="41.605726680" lon="2.540368430">
        <ele>113.70</ele>
        <time>2014-03-02T07:58:23Z</time>
      </trkpt>
      <trkpt lat="41.605726680" lon="2.540368430">
        <ele>113.80</ele>
        <time>2014-03-02T07:58:24Z</time>
      </trkpt>
      <trkpt lat="41.605728360" lon="2.540368430">
        <ele>113.90</ele>
        <time>2014-03-02T07:58:25Z</time>
      </trkpt>
      <trkpt lat="41.605728360" lon="2.540368430">
        <ele>113.90</ele>
        <time>2014-03-02T07:58:26Z</time>
      </trkpt>
      <trkpt lat="41.605728360" lon="2.540370110">
        <ele>113.80</ele>
        <time>2014-03-02T07:58:27Z</time>
      </trkpt>
      <trkpt lat="41.605728360" lon="2.540370110">
        <ele>113.80</ele>
        <time>2014-03-02T07:58:28Z</time>
      </trkpt>
      <trkpt lat="41.605728360" lon="2.540370110">
        <ele>113.70</ele>
        <time>2014-03-02T07:58:29Z</time>
      </trkpt>
      <trkpt lat="41.605728360" lon="2.540371790">
        <ele>113.70</ele>
        <time>2014-03-02T07:58:30Z</time>
      </trkpt>
      <trkpt lat="41.605728360" lon="2.540371790">
        <ele>113.70</ele>
        <time>2014-03-02T07:58:31Z</time>
      </trkpt>
      <trkpt lat="41.605728360" lon="2.540373460">
        <ele>113.90</ele>
        <time>2014-03-02T07:58:32Z</time>
      </trkpt>
      <trkpt lat="41.605728360" lon="2.540373460">
        <ele>114.10</ele>
        <time>2014-03-02T07:58:33Z</time>
      </trkpt>
      <trkpt lat="41.605728360" lon="2.540373460">
        <ele>113.80</ele>
        <time>2014-03-02T07:58:34Z</time>
      </trkpt>
      <trkpt lat="41.605728360" lon="2.540373460">
        <ele>113.60</ele>
        <time>2014-03-02T07:58:35Z</time>
      </trkpt>
      <trkpt lat="41.605728360" lon="2.540373460">
        <ele>113.70</ele>
        <time>2014-03-02T07:58:36Z</time>
      </trkpt>
      <trkpt lat="41.605728360" lon="2.540375140">
        <ele>113.80</ele>
        <time>2014-03-02T07:58:37Z</time>
      </trkpt>
      <trkpt lat="41.605728360" lon="2.540375140">
        <ele>113.80</ele>
        <time>2014-03-02T07:58:38Z</time>
      </trkpt>
      <trkpt lat="41.605728360" lon="2.540375140">
        <ele>113.80</ele>
        <time>2014-03-02T07:58:39Z</time>
      </trkpt>
      <trkpt lat="41.605728360" lon="2.540375140">
        <ele>113.70</ele>
        <time>2014-03-02T07:58:40Z</time>
      </trkpt>
      <trkpt lat="41.605728360" lon="2.540375140">
        <ele>113.70</ele>
        <time>2014-03-02T07:58:41Z</time>
      </trkpt>
      <trkpt lat="41.605728360" lon="2.540375140">
        <ele>113.60</ele>
        <time>2014-03-02T07:58:42Z</time>
      </trkpt>
      <trkpt lat="41.605728360" lon="2.540376810">
        <ele>113.60</ele>
        <time>2014-03-02T07:58:43Z</time>
      </trkpt>
      <trkpt lat="41.605728360" lon="2.540375140">
        <ele>113.70</ele>
        <time>2014-03-02T07:58:44Z</time>
      </trkpt>
      <trkpt lat="41.605728360" lon="2.540373460">
        <ele>113.70</ele>
        <time>2014-03-02T07:58:45Z</time>
      </trkpt>
      <trkpt lat="41.605728360" lon="2.540371790">
        <ele>113.70</ele>
        <time>2014-03-02T07:58:46Z</time>
      </trkpt>
      <trkpt lat="41.605728360" lon="2.540371790">
        <ele>113.70</ele>
        <time>2014-03-02T07:58:47Z</time>
      </trkpt>
      <trkpt lat="41.605728360" lon="2.540371790">
        <ele>113.80</ele>
        <time>2014-03-02T07:58:48Z</time>
      </trkpt>
      <trkpt lat="41.605728360" lon="2.540371790">
        <ele>114.00</ele>
        <time>2014-03-02T07:58:49Z</time>
      </trkpt>
      <trkpt lat="41.605728360" lon="2.540370110">
        <ele>114.10</ele>
        <time>2014-03-02T07:58:50Z</time>
      </trkpt>
      <trkpt lat="41.605728360" lon="2.540370110">
        <ele>113.90</ele>
        <time>2014-03-02T07:58:51Z</time>
      </trkpt>
      <trkpt lat="41.605728360" lon="2.540370110">
        <ele>113.70</ele>
        <time>2014-03-02T07:58:52Z</time>
      </trkpt>
      <trkpt lat="41.605728360" lon="2.540370110">
        <ele>113.60</ele>
        <time>2014-03-02T07:58:53Z</time>
      </trkpt>
      <trkpt lat="41.605728360" lon="2.540370110">
        <ele>113.50</ele>
        <time>2014-03-02T07:58:54Z</time>
      </trkpt>
      <trkpt lat="41.605728360" lon="2.540370110">
        <ele>113.60</ele>
        <time>2014-03-02T07:58:55Z</time>
      </trkpt>
      <trkpt lat="41.605728360" lon="2.540370110">
        <ele>113.60</ele>
        <time>2014-03-02T07:58:56Z</time>
      </trkpt>
      <trkpt lat="41.605728360" lon="2.540368430">
        <ele>113.60</ele>
        <time>2014-03-02T07:58:57Z</time>
      </trkpt>
      <trkpt lat="41.605730030" lon="2.540368430">
        <ele>113.70</ele>
        <time>2014-03-02T07:58:58Z</time>
      </trkpt>
      <trkpt lat="41.605728360" lon="2.540368430">
        <ele>113.80</ele>
        <time>2014-03-02T07:58:59Z</time>
      </trkpt>
      <trkpt lat="41.605728360" lon="2.540366760">
        <ele>113.80</ele>
        <time>2014-03-02T07:59:00Z</time>
      </trkpt>
      <trkpt lat="41.605728360" lon="2.540366760">
        <ele>113.80</ele>
        <time>2014-03-02T07:59:01Z</time>
      </trkpt>
      <trkpt lat="41.605728360" lon="2.540366760">
        <ele>113.80</ele>
        <time>2014-03-02T07:59:02Z</time>
      </trkpt>
      <trkpt lat="41.605730030" lon="2.540365080">
        <ele>114.00</ele>
        <time>2014-03-02T07:59:03Z</time>
      </trkpt>
      <trkpt lat="41.605730030" lon="2.540365080">
        <ele>114.20</ele>
        <time>2014-03-02T07:59:04Z</time>
      </trkpt>
      <trkpt lat="41.605730030" lon="2.540365080">
        <ele>113.80</ele>
        <time>2014-03-02T07:59:05Z</time>
      </trkpt>
      <trkpt lat="41.605728360" lon="2.540365080">
        <ele>113.60</ele>
        <time>2014-03-02T07:59:06Z</time>
      </trkpt>
      <trkpt lat="41.605728360" lon="2.540365080">
        <ele>113.80</ele>
        <time>2014-03-02T07:59:07Z</time>
      </trkpt>
      <trkpt lat="41.605728360" lon="2.540365080">
        <ele>113.90</ele>
        <time>2014-03-02T07:59:08Z</time>
      </trkpt>
      <trkpt lat="41.605728360" lon="2.540365080">
        <ele>114.00</ele>
        <time>2014-03-02T07:59:09Z</time>
      </trkpt>
      <trkpt lat="41.605728360" lon="2.540365080">
        <ele>114.00</ele>
        <time>2014-03-02T07:59:10Z</time>
      </trkpt>
      <trkpt lat="41.605728360" lon="2.540365080">
        <ele>114.00</ele>
        <time>2014-03-02T07:59:11Z</time>
      </trkpt>
      <trkpt lat="41.605728360" lon="2.540365080">
        <ele>114.00</ele>
        <time>2014-03-02T07:59:12Z</time>
      </trkpt>
      <trkpt lat="41.605728360" lon="2.540365080">
        <ele>114.00</ele>
        <time>2014-03-02T07:59:13Z</time>
      </trkpt>
      <trkpt lat="41.605728360" lon="2.540365080">
        <ele>114.00</ele>
        <time>2014-03-02T07:59:14Z</time>
      </trkpt>
      <trkpt lat="41.605728360" lon="2.540365080">
        <ele>114.00</ele>
        <time>2014-03-02T07:59:15Z</time>
      </trkpt>
      <trkpt lat="41.605728360" lon="2.540365080">
        <ele>114.10</ele>
        <time>2014-03-02T07:59:16Z</time>
      </trkpt>
      <trkpt lat="41.605728360" lon="2.540363400">
        <ele>113.60</ele>
        <time>2014-03-02T07:59:17Z</time>
      </trkpt>
      <trkpt lat="41.605728360" lon="2.540363400">
        <ele>113.20</ele>
        <time>2014-03-02T07:59:18Z</time>
      </trkpt>
      <trkpt lat="41.605728360" lon="2.540363400">
        <ele>113.20</ele>
        <time>2014-03-02T07:59:19Z</time>
      </trkpt>
      <trkpt lat="41.605728360" lon="2.540363400">
        <ele>113.20</ele>
        <time>2014-03-02T07:59:20Z</time>
      </trkpt>
      <trkpt lat="41.605728360" lon="2.540363400">
        <ele>113.20</ele>
        <time>2014-03-02T07:59:21Z</time>
      </trkpt>
      <trkpt lat="41.605728360" lon="2.540363400">
        <ele>113.30</ele>
        <time>2014-03-02T07:59:22Z</time>
      </trkpt>
      <trkpt lat="41.605726680" lon="2.540363400">
        <ele>113.40</ele>
        <time>2014-03-02T07:59:23Z</time>
      </trkpt>
      <trkpt lat="41.605726680" lon="2.540363400">
        <ele>113.70</ele>
        <time>2014-03-02T07:59:24Z</time>
      </trkpt>
      <trkpt lat="41.605726680" lon="2.540365080">
        <ele>113.90</ele>
        <time>2014-03-02T07:59:25Z</time>
      </trkpt>
      <trkpt lat="41.605726680" lon="2.540365080">
        <ele>113.90</ele>
        <time>2014-03-02T07:59:26Z</time>
      </trkpt>
      <trkpt lat="41.605726680" lon="2.540365080">
        <ele>113.80</ele>
        <time>2014-03-02T07:59:27Z</time>
      </trkpt>
      <trkpt lat="41.605726680" lon="2.540365080">
        <ele>113.80</ele>
        <time>2014-03-02T07:59:28Z</time>
      </trkpt>
      <trkpt lat="41.605726680" lon="2.540365080">
        <ele>114.00</ele>
        <time>2014-03-02T07:59:29Z</time>
      </trkpt>
      <trkpt lat="41.605726680" lon="2.540365080">
        <ele>114.10</ele>
        <time>2014-03-02T07:59:30Z</time>
      </trkpt>
      <trkpt lat="41.605726680" lon="2.540365080">
        <ele>113.90</ele>
        <time>2014-03-02T07:59:31Z</time>
      </trkpt>
      <trkpt lat="41.605726680" lon="2.540365080">
        <ele>113.70</ele>
        <time>2014-03-02T07:59:32Z</time>
      </trkpt>
      <trkpt lat="41.605726680" lon="2.540365080">
        <ele>113.70</ele>
        <time>2014-03-02T07:59:33Z</time>
      </trkpt>
      <trkpt lat="41.605726680" lon="2.540365080">
        <ele>113.70</ele>
        <time>2014-03-02T07:59:34Z</time>
      </trkpt>
      <trkpt lat="41.605726680" lon="2.540365080">
        <ele>113.70</ele>
        <time>2014-03-02T07:59:35Z</time>
      </trkpt>
      <trkpt lat="41.605726680" lon="2.540366760">
        <ele>113.70</ele>
        <time>2014-03-02T07:59:36Z</time>
      </trkpt>
      <trkpt lat="41.605726680" lon="2.540366760">
        <ele>113.80</ele>
        <time>2014-03-02T07:59:37Z</time>
      </trkpt>
      <trkpt lat="41.605726680" lon="2.540366760">
        <ele>113.60</ele>
        <time>2014-03-02T07:59:38Z</time>
      </trkpt>
      <trkpt lat="41.605726680" lon="2.540366760">
        <ele>113.40</ele>
        <time>2014-03-02T07:59:39Z</time>
      </trkpt>
      <trkpt lat="41.605726680" lon="2.540366760">
        <ele>113.30</ele>
        <time>2014-03-02T07:59:40Z</time>
      </trkpt>
      <trkpt lat="41.605726680" lon="2.540366760">
        <ele>113.30</ele>
        <time>2014-03-02T07:59:41Z</time>
      </trkpt>
      <trkpt lat="41.605726680" lon="2.540368430">
        <ele>113.20</ele>
        <time>2014-03-02T07:59:42Z</time>
      </trkpt>
      <trkpt lat="41.605726680" lon="2.540368430">
        <ele>113.30</ele>
        <time>2014-03-02T07:59:43Z</time>
      </trkpt>
      <trkpt lat="41.605726680" lon="2.540368430">
        <ele>113.40</ele>
        <time>2014-03-02T07:59:44Z</time>
      </trkpt>
      <trkpt lat="41.605726680" lon="2.540368430">
        <ele>113.30</ele>
        <time>2014-03-02T07:59:45Z</time>
      </trkpt>
      <trkpt lat="41.605726680" lon="2.540366760">
        <ele>113.30</ele>
        <time>2014-03-02T07:59:46Z</time>
      </trkpt>
      <trkpt lat="41.605728360" lon="2.540365080">
        <ele>113.30</ele>
        <time>2014-03-02T07:59:47Z</time>
      </trkpt>
      <trkpt lat="41.605728360" lon="2.540363400">
        <ele>113.60</ele>
        <time>2014-03-02T07:59:48Z</time>
      </trkpt>
      <trkpt lat="41.605728360" lon="2.540361730">
        <ele>113.80</ele>
        <time>2014-03-02T07:59:49Z</time>
      </trkpt>
      <trkpt lat="41.605730030" lon="2.540360050">
        <ele>113.60</ele>
        <time>2014-03-02T07:59:50Z</time>
      </trkpt>
      <trkpt lat="41.605730030" lon="2.540358370">
        <ele>113.40</ele>
        <time>2014-03-02T07:59:51Z</time>
      </trkpt>
      <trkpt lat="41.605730030" lon="2.540356700">
        <ele>113.20</ele>
        <time>2014-03-02T07:59:52Z</time>
      </trkpt>
      <trkpt lat="41.605731710" lon="2.540355020">
        <ele>113.10</ele>
        <time>2014-03-02T07:59:53Z</time>
      </trkpt>
      <trkpt lat="41.605731710" lon="2.540355020">
        <ele>113.00</ele>
        <time>2014-03-02T07:59:54Z</time>
      </trkpt>
      <trkpt lat="41.605731710" lon="2.540353350">
        <ele>113.00</ele>
        <time>2014-03-02T07:59:55Z</time>
      </trkpt>
      <trkpt lat="41.605733390" lon="2.540351670">
        <ele>112.90</ele>
        <time>2014-03-02T07:59:56Z</time>
      </trkpt>
      <trkpt lat="41.605733390" lon="2.540350160">
        <ele>112.80</ele>
        <time>2014-03-02T07:59:57Z</time>
      </trkpt>
      <trkpt lat="41.605733390" lon="2.540348480">
        <ele>112.70</ele>
        <time>2014-03-02T07:59:58Z</time>
      </trkpt>
      <trkpt lat="41.605733390" lon="2.540348480">
        <ele>112.60</ele>
        <time>2014-03-02T07:59:59Z</time>
      </trkpt>
      <trkpt lat="41.605735060" lon="2.540346810">
        <ele>112.60</ele>
        <time>2014-03-02T08:00:00Z</time>
      </trkpt>
      <trkpt lat="41.605735060" lon="2.540346810">
        <ele>112.60</ele>
        <time>2014-03-02T08:00:01Z</time>
      </trkpt>
      <trkpt lat="41.605735060" lon="2.540345130">
        <ele>112.90</ele>
        <time>2014-03-02T08:00:02Z</time>
      </trkpt>
      <trkpt lat="41.605735060" lon="2.540345130">
        <ele>113.10</ele>
        <time>2014-03-02T08:00:03Z</time>
      </trkpt>
      <trkpt lat="41.605736740" lon="2.540343450">
        <ele>113.30</ele>
        <time>2014-03-02T08:00:04Z</time>
      </trkpt>
      <trkpt lat="41.605736740" lon="2.540343450">
        <ele>113.20</ele>
        <time>2014-03-02T08:00:05Z</time>
      </trkpt>
      <trkpt lat="41.605736740" lon="2.540343450">
        <ele>113.10</ele>
        <time>2014-03-02T08:00:06Z</time>
      </trkpt>
      <trkpt lat="41.605736740" lon="2.540343450">
        <ele>113.30</ele>
        <time>2014-03-02T08:00:07Z</time>
      </trkpt>
      <trkpt lat="41.605736740" lon="2.540341780">
        <ele>113.40</ele>
        <time>2014-03-02T08:00:08Z</time>
      </trkpt>
      <trkpt lat="41.605736740" lon="2.540343450">
        <ele>113.30</ele>
        <time>2014-03-02T08:00:09Z</time>
      </trkpt>
      <trkpt lat="41.605736740" lon="2.540343450">
        <ele>113.30</ele>
        <time>2014-03-02T08:00:10Z</time>
      </trkpt>
      <trkpt lat="41.605736740" lon="2.540343450">
        <ele>113.20</ele>
        <time>2014-03-02T08:00:11Z</time>
      </trkpt>
      <trkpt lat="41.605736740" lon="2.540343450">
        <ele>113.20</ele>
        <time>2014-03-02T08:00:12Z</time>
      </trkpt>
      <trkpt lat="41.605736740" lon="2.540343450">
        <ele>113.30</ele>
        <time>2014-03-02T08:00:13Z</time>
      </trkpt>
      <trkpt lat="41.605736740" lon="2.540343450">
        <ele>113.20</ele>
        <time>2014-03-02T08:00:14Z</time>
      </trkpt>
      <trkpt lat="41.605738420" lon="2.540345130">
        <ele>113.10</ele>
        <time>2014-03-02T08:00:15Z</time>
      </trkpt>
      <trkpt lat="41.605738420" lon="2.540345130">
        <ele>113.10</ele>
        <time>2014-03-02T08:00:16Z</time>
      </trkpt>
      <trkpt lat="41.605738420" lon="2.540346810">
        <ele>113.00</ele>
        <time>2014-03-02T08:00:17Z</time>
      </trkpt>
      <trkpt lat="41.605738420" lon="2.540346810">
        <ele>113.00</ele>
        <time>2014-03-02T08:00:18Z</time>
      </trkpt>
      <trkpt lat="41.605738420" lon="2.540348480">
        <ele>113.20</ele>
        <time>2014-03-02T08:00:19Z</time>
      </trkpt>
      <trkpt lat="41.605738420" lon="2.540348480">
        <ele>113.30</ele>
        <time>2014-03-02T08:00:20Z</time>
      </trkpt>
      <trkpt lat="41.605738420" lon="2.540348480">
        <ele>113.30</ele>
        <time>2014-03-02T08:00:21Z</time>
      </trkpt>
      <trkpt lat="41.605738420" lon="2.540348480">
        <ele>113.30</ele>
        <time>2014-03-02T08:00:22Z</time>
      </trkpt>
      <trkpt lat="41.605738420" lon="2.540350160">
        <ele>113.20</ele>
        <time>2014-03-02T08:00:23Z</time>
      </trkpt>
      <trkpt lat="41.605738420" lon="2.540351670">
        <ele>113.10</ele>
        <time>2014-03-02T08:00:24Z</time>
      </trkpt>
      <trkpt lat="41.605738420" lon="2.540353350">
        <ele>113.10</ele>
        <time>2014-03-02T08:00:25Z</time>
      </trkpt>
      <trkpt lat="41.605738420" lon="2.540353350">
        <ele>113.10</ele>
        <time>2014-03-02T08:00:26Z</time>
      </trkpt>
      <trkpt lat="41.605738420" lon="2.540355020">
        <ele>113.10</ele>
        <time>2014-03-02T08:00:27Z</time>
      </trkpt>
      <trkpt lat="41.605736740" lon="2.540356700">
        <ele>113.60</ele>
        <time>2014-03-02T08:00:28Z</time>
      </trkpt>
      <trkpt lat="41.605736740" lon="2.540356700">
        <ele>113.90</ele>
        <time>2014-03-02T08:00:29Z</time>
      </trkpt>
      <trkpt lat="41.605736740" lon="2.540358370">
        <ele>114.20</ele>
        <time>2014-03-02T08:00:30Z</time>
      </trkpt>
      <trkpt lat="41.605736740" lon="2.540360050">
        <ele>113.60</ele>
        <time>2014-03-02T08:00:31Z</time>
      </trkpt>
      <trkpt lat="41.605736740" lon="2.540361730">
        <ele>113.10</ele>
        <time>2014-03-02T08:00:32Z</time>
      </trkpt>
      <trkpt lat="41.605736740" lon="2.540361730">
        <ele>113.20</ele>
        <time>2014-03-02T08:00:33Z</time>
      </trkpt>
      <trkpt lat="41.605736740" lon="2.540361730">
        <ele>113.30</ele>
        <time>2014-03-02T08:00:34Z</time>
      </trkpt>
      <trkpt lat="41.605736740" lon="2.540361730">
        <ele>113.30</ele>
        <time>2014-03-02T08:00:35Z</time>
      </trkpt>
      <trkpt lat="41.605736740" lon="2.540361730">
        <ele>113.20</ele>
        <time>2014-03-02T08:00:36Z</time>
      </trkpt>
      <trkpt lat="41.605736740" lon="2.540361730">
        <ele>113.20</ele>
        <time>2014-03-02T08:00:37Z</time>
      </trkpt>
      <trkpt lat="41.605736740" lon="2.540361730">
        <ele>112.90</ele>
        <time>2014-03-02T08:00:38Z</time>
      </trkpt>
      <trkpt lat="41.605736740" lon="2.540361730">
        <ele>112.70</ele>
        <time>2014-03-02T08:00:39Z</time>
      </trkpt>
      <trkpt lat="41.605736740" lon="2.540361730">
        <ele>112.70</ele>
        <time>2014-03-02T08:00:40Z</time>
      </trkpt>
      <trkpt lat="41.605736740" lon="2.540361730">
        <ele>112.60</ele>
        <time>2014-03-02T08:00:41Z</time>
      </trkpt>
      <trkpt lat="41.605736740" lon="2.540361730">
        <ele>112.60</ele>
        <time>2014-03-02T08:00:42Z</time>
      </trkpt>
      <trkpt lat="41.605736740" lon="2.540360050">
        <ele>112.70</ele>
        <time>2014-03-02T08:00:43Z</time>
      </trkpt>
      <trkpt lat="41.605736740" lon="2.540360050">
        <ele>112.80</ele>
        <time>2014-03-02T08:00:44Z</time>
      </trkpt>
      <trkpt lat="41.605738420" lon="2.540360050">
        <ele>112.60</ele>
        <time>2014-03-02T08:00:45Z</time>
      </trkpt>
      <trkpt lat="41.605738420" lon="2.540360050">
        <ele>112.50</ele>
        <time>2014-03-02T08:00:46Z</time>
      </trkpt>
      <trkpt lat="41.605738420" lon="2.540358370">
        <ele>112.50</ele>
        <time>2014-03-02T08:00:47Z</time>
      </trkpt>
      <trkpt lat="41.605738420" lon="2.540358370">
        <ele>112.40</ele>
        <time>2014-03-02T08:00:48Z</time>
      </trkpt>
      <trkpt lat="41.605738420" lon="2.540358370">
        <ele>112.40</ele>
        <time>2014-03-02T08:00:49Z</time>
      </trkpt>
      <trkpt lat="41.605738420" lon="2.540358370">
        <ele>112.50</ele>
        <time>2014-03-02T08:00:50Z</time>
      </trkpt>
      <trkpt lat="41.605738420" lon="2.540358370">
        <ele>112.50</ele>
        <time>2014-03-02T08:00:51Z</time>
      </trkpt>
      <trkpt lat="41.605738420" lon="2.540358370">
        <ele>112.40</ele>
        <time>2014-03-02T08:00:52Z</time>
      </trkpt>
      <trkpt lat="41.605738420" lon="2.540358370">
        <ele>112.30</ele>
        <time>2014-03-02T08:00:53Z</time>
      </trkpt>
      <trkpt lat="41.605738420" lon="2.540358370">
        <ele>112.30</ele>
        <time>2014-03-02T08:00:54Z</time>
      </trkpt>
      <trkpt lat="41.605740090" lon="2.540358370">
        <ele>112.10</ele>
        <time>2014-03-02T08:00:55Z</time>
      </trkpt>
      <trkpt lat="41.605740090" lon="2.540358370">
        <ele>112.00</ele>
        <time>2014-03-02T08:00:56Z</time>
      </trkpt>
      <trkpt lat="41.605740090" lon="2.540356700">
        <ele>111.90</ele>
        <time>2014-03-02T08:00:57Z</time>
      </trkpt>
      <trkpt lat="41.605740090" lon="2.540356700">
        <ele>111.90</ele>
        <time>2014-03-02T08:00:58Z</time>
      </trkpt>
      <trkpt lat="41.605740090" lon="2.540356700">
        <ele>112.10</ele>
        <time>2014-03-02T08:00:59Z</time>
      </trkpt>
      <trkpt lat="41.605740090" lon="2.540356700">
        <ele>112.20</ele>
        <time>2014-03-02T08:01:00Z</time>
      </trkpt>
      <trkpt lat="41.605740090" lon="2.540358370">
        <ele>112.30</ele>
        <time>2014-03-02T08:01:01Z</time>
      </trkpt>
      <trkpt lat="41.605740090" lon="2.540358370">
        <ele>112.60</ele>
        <time>2014-03-02T08:01:02Z</time>
      </trkpt>
      <trkpt lat="41.605740090" lon="2.540358370">
        <ele>112.80</ele>
        <time>2014-03-02T08:01:03Z</time>
      </trkpt>
      <trkpt lat="41.605740090" lon="2.540358370">
        <ele>112.40</ele>
        <time>2014-03-02T08:01:04Z</time>
      </trkpt>
      <trkpt lat="41.605740090" lon="2.540358370">
        <ele>112.10</ele>
        <time>2014-03-02T08:01:05Z</time>
      </trkpt>
      <trkpt lat="41.605740090" lon="2.540358370">
        <ele>112.40</ele>
        <time>2014-03-02T08:01:06Z</time>
      </trkpt>
      <trkpt lat="41.605740090" lon="2.540358370">
        <ele>112.70</ele>
        <time>2014-03-02T08:01:07Z</time>
      </trkpt>
      <trkpt lat="41.605740090" lon="2.540358370">
        <ele>112.90</ele>
        <time>2014-03-02T08:01:08Z</time>
      </trkpt>
      <trkpt lat="41.605740090" lon="2.540358370">
        <ele>113.00</ele>
        <time>2014-03-02T08:01:09Z</time>
      </trkpt>
      <trkpt lat="41.605740090" lon="2.540358370">
        <ele>113.00</ele>
        <time>2014-03-02T08:01:10Z</time>
      </trkpt>
      <trkpt lat="41.605740090" lon="2.540358370">
        <ele>112.80</ele>
        <time>2014-03-02T08:01:11Z</time>
      </trkpt>
      <trkpt lat="41.605740090" lon="2.540358370">
        <ele>112.70</ele>
        <time>2014-03-02T08:01:12Z</time>
      </trkpt>
      <trkpt lat="41.605740090" lon="2.540358370">
        <ele>112.60</ele>
        <time>2014-03-02T08:01:13Z</time>
      </trkpt>
      <trkpt lat="41.605740090" lon="2.540358370">
        <ele>112.60</ele>
        <time>2014-03-02T08:01:14Z</time>
      </trkpt>
      <trkpt lat="41.605740090" lon="2.540358370">
        <ele>112.70</ele>
        <time>2014-03-02T08:01:15Z</time>
      </trkpt>
      <trkpt lat="41.605740090" lon="2.540358370">
        <ele>112.50</ele>
        <time>2014-03-02T08:01:16Z</time>
      </trkpt>
      <trkpt lat="41.605740090" lon="2.540360050">
        <ele>112.30</ele>
        <time>2014-03-02T08:01:17Z</time>
      </trkpt>
      <trkpt lat="41.605740090" lon="2.540360050">
        <ele>112.40</ele>
        <time>2014-03-02T08:01:18Z</time>
      </trkpt>
      <trkpt lat="41.605738420" lon="2.540360050">
        <ele>112.50</ele>
        <time>2014-03-02T08:01:19Z</time>
      </trkpt>
      <trkpt lat="41.605738420" lon="2.540360050">
        <ele>112.50</ele>
        <time>2014-03-02T08:01:20Z</time>
      </trkpt>
      <trkpt lat="41.605738420" lon="2.540360050">
        <ele>112.70</ele>
        <time>2014-03-02T08:01:21Z</time>
      </trkpt>
      <trkpt lat="41.605738420" lon="2.540360050">
        <ele>112.80</ele>
        <time>2014-03-02T08:01:22Z</time>
      </trkpt>
      <trkpt lat="41.605738420" lon="2.540360050">
        <ele>112.80</ele>
        <time>2014-03-02T08:01:23Z</time>
      </trkpt>
      <trkpt lat="41.605738420" lon="2.540360050">
        <ele>112.80</ele>
        <time>2014-03-02T08:01:24Z</time>
      </trkpt>
      <trkpt lat="41.605738420" lon="2.540360050">
        <ele>112.80</ele>
        <time>2014-03-02T08:01:25Z</time>
      </trkpt>
      <trkpt lat="41.605738420" lon="2.540360050">
        <ele>112.90</ele>
        <time>2014-03-02T08:01:26Z</time>
      </trkpt>
      <trkpt lat="41.605738420" lon="2.540360050">
        <ele>112.90</ele>
        <time>2014-03-02T08:01:27Z</time>
      </trkpt>
      <trkpt lat="41.605740090" lon="2.540360050">
        <ele>112.60</ele>
        <time>2014-03-02T08:01:28Z</time>
      </trkpt>
      <trkpt lat="41.605740090" lon="2.540360050">
        <ele>112.30</ele>
        <time>2014-03-02T08:01:29Z</time>
      </trkpt>
      <trkpt lat="41.605740090" lon="2.540360050">
        <ele>112.40</ele>
        <time>2014-03-02T08:01:30Z</time>
      </trkpt>
      <trkpt lat="41.605740090" lon="2.540360050">
        <ele>112.50</ele>
        <time>2014-03-02T08:01:31Z</time>
      </trkpt>
      <trkpt lat="41.605740090" lon="2.540360050">
        <ele>112.60</ele>
        <time>2014-03-02T08:01:32Z</time>
      </trkpt>
      <trkpt lat="41.605740090" lon="2.540360050">
        <ele>112.70</ele>
        <time>2014-03-02T08:01:33Z</time>
      </trkpt>
      <trkpt lat="41.605740090" lon="2.540360050">
        <ele>112.80</ele>
        <time>2014-03-02T08:01:34Z</time>
      </trkpt>
      <trkpt lat="41.605740090" lon="2.540360050">
        <ele>112.60</ele>
        <time>2014-03-02T08:01:35Z</time>
      </trkpt>
      <trkpt lat="41.605740090" lon="2.540360050">
        <ele>112.40</ele>
        <time>2014-03-02T08:01:36Z</time>
      </trkpt>
      <trkpt lat="41.605740090" lon="2.540360050">
        <ele>112.20</ele>
        <time>2014-03-02T08:01:37Z</time>
      </trkpt>
      <trkpt lat="41.605740090" lon="2.540358370">
        <ele>112.00</ele>
        <time>2014-03-02T08:01:38Z</time>
      </trkpt>
      <trkpt lat="41.605740090" lon="2.540358370">
        <ele>111.90</ele>
        <time>2014-03-02T08:01:39Z</time>
      </trkpt>
      <trkpt lat="41.605740090" lon="2.540358370">
        <ele>112.10</ele>
        <time>2014-03-02T08:01:40Z</time>
      </trkpt>
      <trkpt lat="41.605741770" lon="2.540358370">
        <ele>112.20</ele>
        <time>2014-03-02T08:01:41Z</time>
      </trkpt>
      <trkpt lat="41.605741770" lon="2.540356700">
        <ele>112.60</ele>
        <time>2014-03-02T08:01:42Z</time>
      </trkpt>
      <trkpt lat="41.605741770" lon="2.540355020">
        <ele>112.90</ele>
        <time>2014-03-02T08:01:43Z</time>
      </trkpt>
      <trkpt lat="41.605743440" lon="2.540355020">
        <ele>113.20</ele>
        <time>2014-03-02T08:01:44Z</time>
      </trkpt>
      <trkpt lat="41.605743440" lon="2.540353350">
        <ele>113.20</ele>
        <time>2014-03-02T08:01:45Z</time>
      </trkpt>
      <trkpt lat="41.605743440" lon="2.540353350">
        <ele>113.20</ele>
        <time>2014-03-02T08:01:46Z</time>
      </trkpt>
      <trkpt lat="41.605743440" lon="2.540351670">
        <ele>113.10</ele>
        <time>2014-03-02T08:01:47Z</time>
      </trkpt>
      <trkpt lat="41.605743440" lon="2.540350160">
        <ele>113.00</ele>
        <time>2014-03-02T08:01:48Z</time>
      </trkpt>
      <trkpt lat="41.605745120" lon="2.540350160">
        <ele>113.20</ele>
        <time>2014-03-02T08:01:49Z</time>
      </trkpt>
      <trkpt lat="41.605745120" lon="2.540350160">
        <ele>113.40</ele>
        <time>2014-03-02T08:01:50Z</time>
      </trkpt>
      <trkpt lat="41.605745120" lon="2.540350160">
        <ele>113.60</ele>
        <time>2014-03-02T08:01:51Z</time>
      </trkpt>
      <trkpt lat="41.605745120" lon="2.540350160">
        <ele>112.90</ele>
        <time>2014-03-02T08:01:52Z</time>
      </trkpt>
      <trkpt lat="41.605746800" lon="2.540350160">
        <ele>112.40</ele>
        <time>2014-03-02T08:01:53Z</time>
      </trkpt>
      <trkpt lat="41.605746800" lon="2.540350160">
        <ele>112.20</ele>
        <time>2014-03-02T08:01:54Z</time>
      </trkpt>
      <trkpt lat="41.605746800" lon="2.540351670">
        <ele>112.00</ele>
        <time>2014-03-02T08:01:55Z</time>
      </trkpt>
      <trkpt lat="41.605746800" lon="2.540351670">
        <ele>112.00</ele>
        <time>2014-03-02T08:01:56Z</time>
      </trkpt>
      <trkpt lat="41.605748470" lon="2.540351670">
        <ele>112.00</ele>
        <time>2014-03-02T08:01:57Z</time>
      </trkpt>
      <trkpt lat="41.605748470" lon="2.540351670">
        <ele>112.00</ele>
        <time>2014-03-02T08:01:58Z</time>
      </trkpt>
      <trkpt lat="41.605748470" lon="2.540353350">
        <ele>112.20</ele>
        <time>2014-03-02T08:01:59Z</time>
      </trkpt>
      <trkpt lat="41.605748470" lon="2.540353350">
        <ele>112.30</ele>
        <time>2014-03-02T08:02:00Z</time>
      </trkpt>
      <trkpt lat="41.605748470" lon="2.540353350">
        <ele>112.20</ele>
        <time>2014-03-02T08:02:01Z</time>
      </trkpt>
      <trkpt lat="41.605748470" lon="2.540353350">
        <ele>112.10</ele>
        <time>2014-03-02T08:02:02Z</time>
      </trkpt>
      <trkpt lat="41.605748470" lon="2.540353350">
        <ele>112.10</ele>
        <time>2014-03-02T08:02:03Z</time>
      </trkpt>
      <trkpt lat="41.605750150" lon="2.540351670">
        <ele>112.40</ele>
        <time>2014-03-02T08:02:04Z</time>
      </trkpt>
      <trkpt lat="41.605750150" lon="2.540351670">
        <ele>112.60</ele>
        <time>2014-03-02T08:02:05Z</time>
      </trkpt>
      <trkpt lat="41.605750150" lon="2.540350160">
        <ele>112.50</ele>
        <time>2014-03-02T08:02:06Z</time>
      </trkpt>
      <trkpt lat="41.605750150" lon="2.540348480">
        <ele>112.40</ele>
        <time>2014-03-02T08:02:07Z</time>
      </trkpt>
      <trkpt lat="41.605750150" lon="2.540348480">
        <ele>112.40</ele>
        <time>2014-03-02T08:02:08Z</time>
      </trkpt>
      <trkpt lat="41.605750150" lon="2.540346810">
        <ele>112.40</ele>
        <time>2014-03-02T08:02:09Z</time>
      </trkpt>
      <trkpt lat="41.605750150" lon="2.540345130">
        <ele>112.40</ele>
        <time>2014-03-02T08:02:10Z</time>
      </trkpt>
      <trkpt lat="41.605750150" lon="2.540345130">
        <ele>112.50</ele>
        <time>2014-03-02T08:02:11Z</time>
      </trkpt>
      <trkpt lat="41.605751830" lon="2.540345130">
        <ele>112.50</ele>
        <time>2014-03-02T08:02:12Z</time>
      </trkpt>
      <trkpt lat="41.605751830" lon="2.540345130">
        <ele>112.40</ele>
        <time>2014-03-02T08:02:13Z</time>
      </trkpt>
      <trkpt lat="41.605751830" lon="2.540343450">
        <ele>112.40</ele>
        <time>2014-03-02T08:02:14Z</time>
      </trkpt>
      <trkpt lat="41.605751830" lon="2.540343450">
        <ele>112.30</ele>
        <time>2014-03-02T08:02:15Z</time>
      </trkpt>
      <trkpt lat="41.605751830" lon="2.540343450">
        <ele>112.20</ele>
        <time>2014-03-02T08:02:16Z</time>
      </trkpt>
      <trkpt lat="41.605753330" lon="2.540343450">
        <ele>112.20</ele>
        <time>2014-03-02T08:02:17Z</time>
      </trkpt>
      <trkpt lat="41.605753330" lon="2.540343450">
        <ele>112.20</ele>
        <time>2014-03-02T08:02:18Z</time>
      </trkpt>
      <trkpt lat="41.605753330" lon="2.540341780">
        <ele>112.20</ele>
        <time>2014-03-02T08:02:19Z</time>
      </trkpt>
      <trkpt lat="41.605753330" lon="2.540341780">
        <ele>112.20</ele>
        <time>2014-03-02T08:02:20Z</time>
      </trkpt>
      <trkpt lat="41.605753330" lon="2.540343450">
        <ele>112.20</ele>
        <time>2014-03-02T08:02:21Z</time>
      </trkpt>
      <trkpt lat="41.605755010" lon="2.540341780">
        <ele>112.30</ele>
        <time>2014-03-02T08:02:22Z</time>
      </trkpt>
      <trkpt lat="41.605755010" lon="2.540341780">
        <ele>112.20</ele>
        <time>2014-03-02T08:02:23Z</time>
      </trkpt>
      <trkpt lat="41.605755010" lon="2.540341780">
        <ele>112.20</ele>
        <time>2014-03-02T08:02:24Z</time>
      </trkpt>
      <trkpt lat="41.605755010" lon="2.540341780">
        <ele>112.30</ele>
        <time>2014-03-02T08:02:25Z</time>
      </trkpt>
      <trkpt lat="41.605755010" lon="2.540343450">
        <ele>112.40</ele>
        <time>2014-03-02T08:02:26Z</time>
      </trkpt>
      <trkpt lat="41.605756690" lon="2.540343450">
        <ele>112.30</ele>
        <time>2014-03-02T08:02:27Z</time>
      </trkpt>
      <trkpt lat="41.605756690" lon="2.540343450">
        <ele>112.20</ele>
        <time>2014-03-02T08:02:28Z</time>
      </trkpt>
      <trkpt lat="41.605756690" lon="2.540343450">
        <ele>112.10</ele>
        <time>2014-03-02T08:02:29Z</time>
      </trkpt>
      <trkpt lat="41.605756690" lon="2.540345130">
        <ele>112.30</ele>
        <time>2014-03-02T08:02:30Z</time>
      </trkpt>
      <trkpt lat="41.605756690" lon="2.540345130">
        <ele>112.40</ele>
        <time>2014-03-02T08:02:31Z</time>
      </trkpt>
      <trkpt lat="41.605756690" lon="2.540346810">
        <ele>112.30</ele>
        <time>2014-03-02T08:02:32Z</time>
      </trkpt>
      <trkpt lat="41.605756690" lon="2.540346810">
        <ele>112.20</ele>
        <time>2014-03-02T08:02:33Z</time>
      </trkpt>
      <trkpt lat="41.605756690" lon="2.540348480">
        <ele>112.10</ele>
        <time>2014-03-02T08:02:34Z</time>
      </trkpt>
      <trkpt lat="41.605756690" lon="2.540348480">
        <ele>112.10</ele>
        <time>2014-03-02T08:02:35Z</time>
      </trkpt>
      <trkpt lat="41.605756690" lon="2.540348480">
        <ele>112.10</ele>
        <time>2014-03-02T08:02:36Z</time>
      </trkpt>
      <trkpt lat="41.605756690" lon="2.540348480">
        <ele>111.90</ele>
        <time>2014-03-02T08:02:37Z</time>
      </trkpt>
      <trkpt lat="41.605756690" lon="2.540346810">
        <ele>111.70</ele>
        <time>2014-03-02T08:02:38Z</time>
      </trkpt>
      <trkpt lat="41.605758360" lon="2.540346810">
        <ele>112.20</ele>
        <time>2014-03-02T08:02:39Z</time>
      </trkpt>
      <trkpt lat="41.605758360" lon="2.540346810">
        <ele>112.60</ele>
        <time>2014-03-02T08:02:40Z</time>
      </trkpt>
      <trkpt lat="41.605758360" lon="2.540346810">
        <ele>112.90</ele>
        <time>2014-03-02T08:02:41Z</time>
      </trkpt>
      <trkpt lat="41.605758360" lon="2.540346810">
        <ele>112.40</ele>
        <time>2014-03-02T08:02:42Z</time>
      </trkpt>
      <trkpt lat="41.605758360" lon="2.540345130">
        <ele>112.10</ele>
        <time>2014-03-02T08:02:43Z</time>
      </trkpt>
      <trkpt lat="41.605758360" lon="2.540345130">
        <ele>111.90</ele>
        <time>2014-03-02T08:02:44Z</time>
      </trkpt>
      <trkpt lat="41.605758360" lon="2.540345130">
        <ele>111.70</ele>
        <time>2014-03-02T08:02:45Z</time>
      </trkpt>
      <trkpt lat="41.605758360" lon="2.540345130">
        <ele>111.50</ele>
        <time>2014-03-02T08:02:46Z</time>
      </trkpt>
      <trkpt lat="41.605760040" lon="2.540343450">
        <ele>111.60</ele>
        <time>2014-03-02T08:02:47Z</time>
      </trkpt>
      <trkpt lat="41.605760040" lon="2.540343450">
        <ele>111.70</ele>
        <time>2014-03-02T08:02:48Z</time>
      </trkpt>
      <trkpt lat="41.605760040" lon="2.540343450">
        <ele>111.20</ele>
        <time>2014-03-02T08:02:49Z</time>
      </trkpt>
      <trkpt lat="41.605760040" lon="2.540343450">
        <ele>110.90</ele>
        <time>2014-03-02T08:02:50Z</time>
      </trkpt>
      <trkpt lat="41.605760040" lon="2.540343450">
        <ele>111.00</ele>
        <time>2014-03-02T08:02:51Z</time>
      </trkpt>
      <trkpt lat="41.605761720" lon="2.540343450">
        <ele>111.10</ele>
        <time>2014-03-02T08:02:52Z</time>
      </trkpt>
      <trkpt lat="41.605761720" lon="2.540345130">
        <ele>111.20</ele>
        <time>2014-03-02T08:02:53Z</time>
      </trkpt>
      <trkpt lat="41.605761720" lon="2.540345130">
        <ele>111.30</ele>
        <time>2014-03-02T08:02:54Z</time>
      </trkpt>
      <trkpt lat="41.605761720" lon="2.540345130">
        <ele>111.40</ele>
        <time>2014-03-02T08:02:55Z</time>
      </trkpt>
      <trkpt lat="41.605761720" lon="2.540345130">
        <ele>111.50</ele>
        <time>2014-03-02T08:02:56Z</time>
      </trkpt>
      <trkpt lat="41.605763390" lon="2.540345130">
        <ele>111.60</ele>
        <time>2014-03-02T08:02:57Z</time>
      </trkpt>
      <trkpt lat="41.605763390" lon="2.540345130">
        <ele>111.60</ele>
        <time>2014-03-02T08:02:58Z</time>
      </trkpt>
      <trkpt lat="41.605763390" lon="2.540345130">
        <ele>111.80</ele>
        <time>2014-03-02T08:02:59Z</time>
      </trkpt>
      <trkpt lat="41.605763390" lon="2.540345130">
        <ele>111.90</ele>
        <time>2014-03-02T08:03:00Z</time>
      </trkpt>
      <trkpt lat="41.605763390" lon="2.540343450">
        <ele>111.90</ele>
        <time>2014-03-02T08:03:01Z</time>
      </trkpt>
      <trkpt lat="41.605763390" lon="2.540343450">
        <ele>111.80</ele>
        <time>2014-03-02T08:03:02Z</time>
      </trkpt>
      <trkpt lat="41.605763390" lon="2.540343450">
        <ele>111.80</ele>
        <time>2014-03-02T08:03:03Z</time>
      </trkpt>
      <trkpt lat="41.605765070" lon="2.540345130">
        <ele>111.80</ele>
        <time>2014-03-02T08:03:04Z</time>
      </trkpt>
      <trkpt lat="41.605765070" lon="2.540345130">
        <ele>111.80</ele>
        <time>2014-03-02T08:03:05Z</time>
      </trkpt>
      <trkpt lat="41.605765070" lon="2.540345130">
        <ele>111.90</ele>
        <time>2014-03-02T08:03:06Z</time>
      </trkpt>
      <trkpt lat="41.605765070" lon="2.540345130">
        <ele>111.90</ele>
        <time>2014-03-02T08:03:07Z</time>
      </trkpt>
      <trkpt lat="41.605765070" lon="2.540345130">
        <ele>111.90</ele>
        <time>2014-03-02T08:03:08Z</time>
      </trkpt>
      <trkpt lat="41.605765070" lon="2.540345130">
        <ele>111.90</ele>
        <time>2014-03-02T08:03:09Z</time>
      </trkpt>
      <trkpt lat="41.605765070" lon="2.540346810">
        <ele>111.70</ele>
        <time>2014-03-02T08:03:10Z</time>
      </trkpt>
      <trkpt lat="41.605765070" lon="2.540346810">
        <ele>111.50</ele>
        <time>2014-03-02T08:03:11Z</time>
      </trkpt>
      <trkpt lat="41.605766750" lon="2.540346810">
        <ele>111.40</ele>
        <time>2014-03-02T08:03:12Z</time>
      </trkpt>
      <trkpt lat="41.605766750" lon="2.540346810">
        <ele>111.30</ele>
        <time>2014-03-02T08:03:13Z</time>
      </trkpt>
      <trkpt lat="41.605766750" lon="2.540346810">
        <ele>111.20</ele>
        <time>2014-03-02T08:03:14Z</time>
      </trkpt>
      <trkpt lat="41.605766750" lon="2.540346810">
        <ele>111.40</ele>
        <time>2014-03-02T08:03:15Z</time>
      </trkpt>
      <trkpt lat="41.605766750" lon="2.540346810">
        <ele>111.60</ele>
        <time>2014-03-02T08:03:16Z</time>
      </trkpt>
      <trkpt lat="41.605766750" lon="2.540346810">
        <ele>111.40</ele>
        <time>2014-03-02T08:03:17Z</time>
      </trkpt>
      <trkpt lat="41.605766750" lon="2.540346810">
        <ele>111.20</ele>
        <time>2014-03-02T08:03:18Z</time>
      </trkpt>
      <trkpt lat="41.605768420" lon="2.540346810">
        <ele>111.10</ele>
        <time>2014-03-02T08:03:19Z</time>
      </trkpt>
      <trkpt lat="41.605768420" lon="2.540346810">
        <ele>111.10</ele>
        <time>2014-03-02T08:03:20Z</time>
      </trkpt>
      <trkpt lat="41.605768420" lon="2.540346810">
        <ele>111.10</ele>
        <time>2014-03-02T08:03:21Z</time>
      </trkpt>
      <trkpt lat="41.605768420" lon="2.540345130">
        <ele>111.20</ele>
        <time>2014-03-02T08:03:22Z</time>
      </trkpt>
      <trkpt lat="41.605768420" lon="2.540345130">
        <ele>111.30</ele>
        <time>2014-03-02T08:03:23Z</time>
      </trkpt>
      <trkpt lat="41.605768420" lon="2.540345130">
        <ele>111.30</ele>
        <time>2014-03-02T08:03:24Z</time>
      </trkpt>
      <trkpt lat="41.605768420" lon="2.540348480">
        <ele>111.20</ele>
        <time>2014-03-02T08:03:25Z</time>
      </trkpt>
      <trkpt lat="41.605768420" lon="2.540353350">
        <ele>111.10</ele>
        <time>2014-03-02T08:03:26Z</time>
      </trkpt>
      <trkpt lat="41.605770100" lon="2.540358370">
        <ele>110.80</ele>
        <time>2014-03-02T08:03:27Z</time>
      </trkpt>
      <trkpt lat="41.605771780" lon="2.540361730">
        <ele>110.60</ele>
        <time>2014-03-02T08:03:28Z</time>
      </trkpt>
      <trkpt lat="41.605771780" lon="2.540363400">
        <ele>110.90</ele>
        <time>2014-03-02T08:03:29Z</time>
      </trkpt>
      <trkpt lat="41.605771780" lon="2.540361730">
        <ele>111.20</ele>
        <time>2014-03-02T08:03:30Z</time>
      </trkpt>
      <trkpt lat="41.605773450" lon="2.540361730">
        <ele>111.40</ele>
        <time>2014-03-02T08:03:31Z</time>
      </trkpt>
      <trkpt lat="41.605775130" lon="2.540361730">
        <ele>111.40</ele>
        <time>2014-03-02T08:03:32Z</time>
      </trkpt>
      <trkpt lat="41.605775130" lon="2.540361730">
        <ele>111.50</ele>
        <time>2014-03-02T08:03:33Z</time>
      </trkpt>
      <trkpt lat="41.605775130" lon="2.540360050">
        <ele>111.80</ele>
        <time>2014-03-02T08:03:34Z</time>
      </trkpt>
      <trkpt lat="41.605775130" lon="2.540360050">
        <ele>112.00</ele>
        <time>2014-03-02T08:03:35Z</time>
      </trkpt>
      <trkpt lat="41.605776800" lon="2.540360050">
        <ele>111.80</ele>
        <time>2014-03-02T08:03:36Z</time>
      </trkpt>
      <trkpt lat="41.605776800" lon="2.540358370">
        <ele>111.60</ele>
        <time>2014-03-02T08:03:37Z</time>
      </trkpt>
      <trkpt lat="41.605776800" lon="2.540356700">
        <ele>111.50</ele>
        <time>2014-03-02T08:03:38Z</time>
      </trkpt>
      <trkpt lat="41.605776800" lon="2.540355020">
        <ele>111.60</ele>
        <time>2014-03-02T08:03:39Z</time>
      </trkpt>
      <trkpt lat="41.605778480" lon="2.540353350">
        <ele>111.70</ele>
        <time>2014-03-02T08:03:40Z</time>
      </trkpt>
      <trkpt lat="41.605778480" lon="2.540351670">
        <ele>111.70</ele>
        <time>2014-03-02T08:03:41Z</time>
      </trkpt>
      <trkpt lat="41.605778480" lon="2.540348480">
        <ele>111.70</ele>
        <time>2014-03-02T08:03:42Z</time>
      </trkpt>
      <trkpt lat="41.605778480" lon="2.540346810">
        <ele>111.80</ele>
        <time>2014-03-02T08:03:43Z</time>
      </trkpt>
      <trkpt lat="41.605778480" lon="2.540345130">
        <ele>111.50</ele>
        <time>2014-03-02T08:03:44Z</time>
      </trkpt>
      <trkpt lat="41.605778480" lon="2.540343450">
        <ele>111.30</ele>
        <time>2014-03-02T08:03:45Z</time>
      </trkpt>
      <trkpt lat="41.605778480" lon="2.540343450">
        <ele>111.40</ele>
        <time>2014-03-02T08:03:46Z</time>
      </trkpt>
      <trkpt lat="41.605778480" lon="2.540343450">
        <ele>111.50</ele>
        <time>2014-03-02T08:03:47Z</time>
      </trkpt>
      <trkpt lat="41.605778480" lon="2.540341780">
        <ele>111.60</ele>
        <time>2014-03-02T08:03:48Z</time>
      </trkpt>
      <trkpt lat="41.605778480" lon="2.540341780">
        <ele>111.70</ele>
        <time>2014-03-02T08:03:49Z</time>
      </trkpt>
      <trkpt lat="41.605778480" lon="2.540341780">
        <ele>111.70</ele>
        <time>2014-03-02T08:03:50Z</time>
      </trkpt>
      <trkpt lat="41.605778480" lon="2.540341780">
        <ele>111.40</ele>
        <time>2014-03-02T08:03:51Z</time>
      </trkpt>
      <trkpt lat="41.605778480" lon="2.540341780">
        <ele>111.10</ele>
        <time>2014-03-02T08:03:52Z</time>
      </trkpt>
      <trkpt lat="41.605778480" lon="2.540341780">
        <ele>111.10</ele>
        <time>2014-03-02T08:03:53Z</time>
      </trkpt>
      <trkpt lat="41.605778480" lon="2.540341780">
        <ele>111.10</ele>
        <time>2014-03-02T08:03:54Z</time>
      </trkpt>
      <trkpt lat="41.605776800" lon="2.540341780">
        <ele>111.00</ele>
        <time>2014-03-02T08:03:55Z</time>
      </trkpt>
      <trkpt lat="41.605776800" lon="2.540341780">
        <ele>111.40</ele>
        <time>2014-03-02T08:03:56Z</time>
      </trkpt>
      <trkpt lat="41.605776800" lon="2.540340100">
        <ele>111.60</ele>
        <time>2014-03-02T08:03:57Z</time>
      </trkpt>
      <trkpt lat="41.605776800" lon="2.540340100">
        <ele>111.60</ele>
        <time>2014-03-02T08:03:58Z</time>
      </trkpt>
      <trkpt lat="41.605776800" lon="2.540340100">
        <ele>111.60</ele>
        <time>2014-03-02T08:03:59Z</time>
      </trkpt>
      <trkpt lat="41.605778480" lon="2.540338430">
        <ele>111.50</ele>
        <time>2014-03-02T08:04:00Z</time>
      </trkpt>
      <trkpt lat="41.605778480" lon="2.540338430">
        <ele>111.40</ele>
        <time>2014-03-02T08:04:01Z</time>
      </trkpt>
      <trkpt lat="41.605778480" lon="2.540338430">
        <ele>111.30</ele>
        <time>2014-03-02T08:04:02Z</time>
      </trkpt>
      <trkpt lat="41.605780160" lon="2.540338430">
        <ele>111.30</ele>
        <time>2014-03-02T08:04:03Z</time>
      </trkpt>
      <trkpt lat="41.605780160" lon="2.540338430">
        <ele>111.20</ele>
        <time>2014-03-02T08:04:04Z</time>
      </trkpt>
      <trkpt lat="41.605780160" lon="2.540338430">
        <ele>111.50</ele>
        <time>2014-03-02T08:04:05Z</time>
      </trkpt>
      <trkpt lat="41.605781670" lon="2.540338430">
        <ele>111.70</ele>
        <time>2014-03-02T08:04:06Z</time>
      </trkpt>
      <trkpt lat="41.605781670" lon="2.540343450">
        <ele>111.50</ele>
        <time>2014-03-02T08:04:07Z</time>
      </trkpt>
      <trkpt lat="41.605788370" lon="2.540351670">
        <ele>111.30</ele>
        <time>2014-03-02T08:04:08Z</time>
      </trkpt>
      <trkpt lat="41.605796750" lon="2.540356700">
        <ele>111.20</ele>
        <time>2014-03-02T08:04:09Z</time>
      </trkpt>
      <trkpt lat="41.605806810" lon="2.540360050">
        <ele>111.20</ele>
        <time>2014-03-02T08:04:10Z</time>
      </trkpt>
      <trkpt lat="41.605818380" lon="2.540371790">
        <ele>111.20</ele>
        <time>2014-03-02T08:04:11Z</time>
      </trkpt>
      <trkpt lat="41.605833470" lon="2.540378490">
        <ele>111.60</ele>
        <time>2014-03-02T08:04:12Z</time>
      </trkpt>
      <trkpt lat="41.605846710" lon="2.540388380">
        <ele>112.00</ele>
        <time>2014-03-02T08:04:13Z</time>
      </trkpt>
      <trkpt lat="41.605863470" lon="2.540403470">
        <ele>111.80</ele>
        <time>2014-03-02T08:04:14Z</time>
      </trkpt>
      <trkpt lat="41.605876720" lon="2.540421740">
        <ele>111.70</ele>
        <time>2014-03-02T08:04:15Z</time>
      </trkpt>
      <trkpt lat="41.605891800" lon="2.540443370">
        <ele>111.60</ele>
        <time>2014-03-02T08:04:16Z</time>
      </trkpt>
      <trkpt lat="41.605905050" lon="2.540468350">
        <ele>111.70</ele>
        <time>2014-03-02T08:04:17Z</time>
      </trkpt>
      <trkpt lat="41.605918460" lon="2.540493490">
        <ele>111.80</ele>
        <time>2014-03-02T08:04:18Z</time>
      </trkpt>
      <trkpt lat="41.605931700" lon="2.540510090">
        <ele>112.10</ele>
        <time>2014-03-02T08:04:19Z</time>
      </trkpt>
      <trkpt lat="41.605948470" lon="2.540523330">
        <ele>112.40</ele>
        <time>2014-03-02T08:04:20Z</time>
      </trkpt>
      <trkpt lat="41.605968410" lon="2.540538420">
        <ele>112.50</ele>
        <time>2014-03-02T08:04:21Z</time>
      </trkpt>
      <trkpt lat="41.605985010" lon="2.540550150">
        <ele>112.10</ele>
        <time>2014-03-02T08:04:22Z</time>
      </trkpt>
      <trkpt lat="41.606003450" lon="2.540558370">
        <ele>111.80</ele>
        <time>2014-03-02T08:04:23Z</time>
      </trkpt>
      <trkpt lat="41.606023400" lon="2.540570100">
        <ele>112.00</ele>
        <time>2014-03-02T08:04:24Z</time>
      </trkpt>
      <trkpt lat="41.606043350" lon="2.540581670">
        <ele>112.10</ele>
        <time>2014-03-02T08:04:25Z</time>
      </trkpt>
      <trkpt lat="41.606065140" lon="2.540591730">
        <ele>112.00</ele>
        <time>2014-03-02T08:04:26Z</time>
      </trkpt>
      <trkpt lat="41.606085090" lon="2.540600110">
        <ele>111.90</ele>
        <time>2014-03-02T08:04:27Z</time>
      </trkpt>
      <trkpt lat="41.606106720" lon="2.540606810">
        <ele>111.80</ele>
        <time>2014-03-02T08:04:28Z</time>
      </trkpt>
      <trkpt lat="41.606128340" lon="2.540613350">
        <ele>111.70</ele>
        <time>2014-03-02T08:04:29Z</time>
      </trkpt>
      <trkpt lat="41.606151810" lon="2.540620060">
        <ele>111.60</ele>
        <time>2014-03-02T08:04:30Z</time>
      </trkpt>
      <trkpt lat="41.606176790" lon="2.540628440">
        <ele>111.80</ele>
        <time>2014-03-02T08:04:31Z</time>
      </trkpt>
      <trkpt lat="41.606201770" lon="2.540633470">
        <ele>111.90</ele>
        <time>2014-03-02T08:04:32Z</time>
      </trkpt>
      <trkpt lat="41.606226740" lon="2.540636820">
        <ele>112.00</ele>
        <time>2014-03-02T08:04:33Z</time>
      </trkpt>
      <trkpt lat="41.606253400" lon="2.540640010">
        <ele>112.30</ele>
        <time>2014-03-02T08:04:34Z</time>
      </trkpt>
      <trkpt lat="41.606278380" lon="2.540646710">
        <ele>112.50</ele>
        <time>2014-03-02T08:04:35Z</time>
      </trkpt>
      <trkpt lat="41.606301680" lon="2.540653420">
        <ele>112.60</ele>
        <time>2014-03-02T08:04:36Z</time>
      </trkpt>
      <trkpt lat="41.606325150" lon="2.540660120">
        <ele>112.70</ele>
        <time>2014-03-02T08:04:37Z</time>
      </trkpt>
      <trkpt lat="41.606348450" lon="2.540668340">
        <ele>112.50</ele>
        <time>2014-03-02T08:04:38Z</time>
      </trkpt>
      <trkpt lat="41.606371750" lon="2.540678400">
        <ele>112.30</ele>
        <time>2014-03-02T08:04:39Z</time>
      </trkpt>
      <trkpt lat="41.606393380" lon="2.540685100">
        <ele>112.20</ele>
        <time>2014-03-02T08:04:40Z</time>
      </trkpt>
      <trkpt lat="41.606416680" lon="2.540693480">
        <ele>112.40</ele>
        <time>2014-03-02T08:04:41Z</time>
      </trkpt>
      <trkpt lat="41.606440150" lon="2.540701700">
        <ele>112.50</ele>
        <time>2014-03-02T08:04:42Z</time>
      </trkpt>
      <trkpt lat="41.606461770" lon="2.540711760">
        <ele>112.60</ele>
        <time>2014-03-02T08:04:43Z</time>
      </trkpt>
      <trkpt lat="41.606485070" lon="2.540723490">
        <ele>112.60</ele>
        <time>2014-03-02T08:04:44Z</time>
      </trkpt>
      <trkpt lat="41.606506700" lon="2.540733380">
        <ele>112.60</ele>
        <time>2014-03-02T08:04:45Z</time>
      </trkpt>
      <trkpt lat="41.606526820" lon="2.540745120">
        <ele>112.50</ele>
        <time>2014-03-02T08:04:46Z</time>
      </trkpt>
      <trkpt lat="41.606548440" lon="2.540755010">
        <ele>112.50</ele>
        <time>2014-03-02T08:04:47Z</time>
      </trkpt>
      <trkpt lat="41.606568390" lon="2.540765060">
        <ele>112.80</ele>
        <time>2014-03-02T08:04:48Z</time>
      </trkpt>
      <trkpt lat="41.606590020" lon="2.540775120">
        <ele>113.00</ele>
        <time>2014-03-02T08:04:49Z</time>
      </trkpt>
      <trkpt lat="41.606611810" lon="2.540785010">
        <ele>113.20</ele>
        <time>2014-03-02T08:04:50Z</time>
      </trkpt>
      <trkpt lat="41.606635110" lon="2.540795070">
        <ele>113.30</ele>
        <time>2014-03-02T08:04:51Z</time>
      </trkpt>
      <trkpt lat="41.606658410" lon="2.540805130">
        <ele>113.30</ele>
        <time>2014-03-02T08:04:52Z</time>
      </trkpt>
      <trkpt lat="41.606683390" lon="2.540813340">
        <ele>113.30</ele>
        <time>2014-03-02T08:04:53Z</time>
      </trkpt>
      <trkpt lat="41.606705020" lon="2.540823400">
        <ele>113.40</ele>
        <time>2014-03-02T08:04:54Z</time>
      </trkpt>
      <trkpt lat="41.606730160" lon="2.540835140">
        <ele>113.40</ele>
        <time>2014-03-02T08:04:55Z</time>
      </trkpt>
      <trkpt lat="41.606753460" lon="2.540845030">
        <ele>113.40</ele>
        <time>2014-03-02T08:04:56Z</time>
      </trkpt>
      <trkpt lat="41.606776770" lon="2.540856760">
        <ele>113.80</ele>
        <time>2014-03-02T08:04:57Z</time>
      </trkpt>
      <trkpt lat="41.606800070" lon="2.540868330">
        <ele>114.10</ele>
        <time>2014-03-02T08:04:58Z</time>
      </trkpt>
      <trkpt lat="41.606823370" lon="2.540878390">
        <ele>114.30</ele>
        <time>2014-03-02T08:04:59Z</time>
      </trkpt>
      <trkpt lat="41.606848350" lon="2.540886770">
        <ele>114.30</ele>
        <time>2014-03-02T08:05:00Z</time>
      </trkpt>
      <trkpt lat="41.606871820" lon="2.540896830">
        <ele>114.30</ele>
        <time>2014-03-02T08:05:01Z</time>
      </trkpt>
      <trkpt lat="41.606893440" lon="2.540908390">
        <ele>114.40</ele>
        <time>2014-03-02T08:05:02Z</time>
      </trkpt>
      <trkpt lat="41.606916740" lon="2.540918450">
        <ele>114.60</ele>
        <time>2014-03-02T08:05:03Z</time>
      </trkpt>
      <trkpt lat="41.606941720" lon="2.540928340">
        <ele>114.70</ele>
        <time>2014-03-02T08:05:04Z</time>
      </trkpt>
      <trkpt lat="41.606965020" lon="2.540940080">
        <ele>114.80</ele>
        <time>2014-03-02T08:05:05Z</time>
      </trkpt>
      <trkpt lat="41.606990000" lon="2.540950140">
        <ele>114.90</ele>
        <time>2014-03-02T08:05:06Z</time>
      </trkpt>
      <trkpt lat="41.607016820" lon="2.540958350">
        <ele>115.30</ele>
        <time>2014-03-02T08:05:07Z</time>
      </trkpt>
      <trkpt lat="41.607041800" lon="2.540966730">
        <ele>115.60</ele>
        <time>2014-03-02T08:05:08Z</time>
      </trkpt>
      <trkpt lat="41.607065100" lon="2.540975110">
        <ele>115.80</ele>
        <time>2014-03-02T08:05:09Z</time>
      </trkpt>
      <trkpt lat="41.607088400" lon="2.540983330">
        <ele>116.00</ele>
        <time>2014-03-02T08:05:10Z</time>
      </trkpt>
      <trkpt lat="41.607115060" lon="2.540990030">
        <ele>115.80</ele>
        <time>2014-03-02T08:05:11Z</time>
      </trkpt>
      <trkpt lat="41.607140040" lon="2.540998420">
        <ele>115.70</ele>
        <time>2014-03-02T08:05:12Z</time>
      </trkpt>
      <trkpt lat="41.607163340" lon="2.541005120">
        <ele>115.60</ele>
        <time>2014-03-02T08:05:13Z</time>
      </trkpt>
      <trkpt lat="41.607188480" lon="2.541011830">
        <ele>115.70</ele>
        <time>2014-03-02T08:05:14Z</time>
      </trkpt>
      <trkpt lat="41.607216820" lon="2.541016690">
        <ele>115.70</ele>
        <time>2014-03-02T08:05:15Z</time>
      </trkpt>
      <trkpt lat="41.607243470" lon="2.541021720">
        <ele>116.00</ele>
        <time>2014-03-02T08:05:16Z</time>
      </trkpt>
      <trkpt lat="41.607273480" lon="2.541025070">
        <ele>116.20</ele>
        <time>2014-03-02T08:05:17Z</time>
      </trkpt>
      <trkpt lat="41.607303480" lon="2.541026750">
        <ele>116.40</ele>
        <time>2014-03-02T08:05:18Z</time>
      </trkpt>
      <trkpt lat="41.607333490" lon="2.541026750">
        <ele>116.20</ele>
        <time>2014-03-02T08:05:19Z</time>
      </trkpt>
      <trkpt lat="41.607365010" lon="2.541026750">
        <ele>116.00</ele>
        <time>2014-03-02T08:05:20Z</time>
      </trkpt>
      <trkpt lat="41.607395010" lon="2.541026750">
        <ele>116.10</ele>
        <time>2014-03-02T08:05:21Z</time>
      </trkpt>
      <trkpt lat="41.607423350" lon="2.541026750">
        <ele>116.10</ele>
        <time>2014-03-02T08:05:22Z</time>
      </trkpt>
      <trkpt lat="41.607453350" lon="2.541025070">
        <ele>116.20</ele>
        <time>2014-03-02T08:05:23Z</time>
      </trkpt>
      <trkpt lat="41.607483360" lon="2.541025070">
        <ele>116.30</ele>
        <time>2014-03-02T08:05:24Z</time>
      </trkpt>
      <trkpt lat="41.607513370" lon="2.541021720">
        <ele>116.40</ele>
        <time>2014-03-02T08:05:25Z</time>
      </trkpt>
      <trkpt lat="41.607543370" lon="2.541020040">
        <ele>116.50</ele>
        <time>2014-03-02T08:05:26Z</time>
      </trkpt>
      <trkpt lat="41.607575060" lon="2.541018370">
        <ele>116.60</ele>
        <time>2014-03-02T08:05:27Z</time>
      </trkpt>
      <trkpt lat="41.607605060" lon="2.541016690">
        <ele>117.00</ele>
        <time>2014-03-02T08:05:28Z</time>
      </trkpt>
      <trkpt lat="41.607633400" lon="2.541013340">
        <ele>117.20</ele>
        <time>2014-03-02T08:05:29Z</time>
      </trkpt>
      <trkpt lat="41.607661730" lon="2.541010150">
        <ele>117.10</ele>
        <time>2014-03-02T08:05:30Z</time>
      </trkpt>
      <trkpt lat="41.607688380" lon="2.541008470">
        <ele>117.00</ele>
        <time>2014-03-02T08:05:31Z</time>
      </trkpt>
      <trkpt lat="41.607716710" lon="2.541008470">
        <ele>117.00</ele>
        <time>2014-03-02T08:05:32Z</time>
      </trkpt>
      <trkpt lat="41.607743370" lon="2.541008470">
        <ele>117.40</ele>
        <time>2014-03-02T08:05:33Z</time>
      </trkpt>
      <trkpt lat="41.607770020" lon="2.541010150">
        <ele>117.80</ele>
        <time>2014-03-02T08:05:34Z</time>
      </trkpt>
      <trkpt lat="41.607795000" lon="2.541011830">
        <ele>117.90</ele>
        <time>2014-03-02T08:05:35Z</time>
      </trkpt>
      <trkpt lat="41.607818470" lon="2.541016690">
        <ele>117.90</ele>
        <time>2014-03-02T08:05:36Z</time>
      </trkpt>
      <trkpt lat="41.607840090" lon="2.541023390">
        <ele>117.90</ele>
        <time>2014-03-02T08:05:37Z</time>
      </trkpt>
      <trkpt lat="41.607861720" lon="2.541031780">
        <ele>117.60</ele>
        <time>2014-03-02T08:05:38Z</time>
      </trkpt>
      <trkpt lat="41.607881670" lon="2.541036810">
        <ele>117.40</ele>
        <time>2014-03-02T08:05:39Z</time>
      </trkpt>
      <trkpt lat="41.607900110" lon="2.541041670">
        <ele>117.50</ele>
        <time>2014-03-02T08:05:40Z</time>
      </trkpt>
      <trkpt lat="41.607918380" lon="2.541048370">
        <ele>117.60</ele>
        <time>2014-03-02T08:05:41Z</time>
      </trkpt>
      <trkpt lat="41.607935140" lon="2.541050050">
        <ele>118.00</ele>
        <time>2014-03-02T08:05:42Z</time>
      </trkpt>
      <trkpt lat="41.607951740" lon="2.541043340">
        <ele>118.30</ele>
        <time>2014-03-02T08:05:43Z</time>
      </trkpt>
      <trkpt lat="41.607970010" lon="2.541028420">
        <ele>118.60</ele>
        <time>2014-03-02T08:05:44Z</time>
      </trkpt>
      <trkpt lat="41.607980070" lon="2.541010150">
        <ele>118.40</ele>
        <time>2014-03-02T08:05:45Z</time>
      </trkpt>
      <trkpt lat="41.607985100" lon="2.540988360">
        <ele>118.20</ele>
        <time>2014-03-02T08:05:46Z</time>
      </trkpt>
      <trkpt lat="41.607986780" lon="2.540965060">
        <ele>118.20</ele>
        <time>2014-03-02T08:05:47Z</time>
      </trkpt>
      <trkpt lat="41.607991810" lon="2.540936730">
        <ele>118.20</ele>
        <time>2014-03-02T08:05:48Z</time>
      </trkpt>
      <trkpt lat="41.608003370" lon="2.540901690">
        <ele>118.20</ele>
        <time>2014-03-02T08:05:49Z</time>
      </trkpt>
      <trkpt lat="41.608026670" lon="2.540870010">
        <ele>118.20</ele>
        <time>2014-03-02T08:05:50Z</time>
      </trkpt>
      <trkpt lat="41.608058360" lon="2.540843350">
        <ele>118.10</ele>
        <time>2014-03-02T08:05:51Z</time>
      </trkpt>
      <trkpt lat="41.608091720" lon="2.540821730">
        <ele>117.70</ele>
        <time>2014-03-02T08:05:52Z</time>
      </trkpt>
      <trkpt lat="41.608123400" lon="2.540801780">
        <ele>117.40</ele>
        <time>2014-03-02T08:05:53Z</time>
      </trkpt>
      <trkpt lat="41.608155090" lon="2.540788370">
        <ele>117.40</ele>
        <time>2014-03-02T08:05:54Z</time>
      </trkpt>
      <trkpt lat="41.608188450" lon="2.540778480">
        <ele>117.50</ele>
        <time>2014-03-02T08:05:55Z</time>
      </trkpt>
      <trkpt lat="41.608220130" lon="2.540768420">
        <ele>117.50</ele>
        <time>2014-03-02T08:05:56Z</time>
      </trkpt>
      <trkpt lat="41.608248460" lon="2.540761710">
        <ele>117.40</ele>
        <time>2014-03-02T08:05:57Z</time>
      </trkpt>
      <trkpt lat="41.608270090" lon="2.540758360">
        <ele>117.40</ele>
        <time>2014-03-02T08:05:58Z</time>
      </trkpt>
      <trkpt lat="41.608290030" lon="2.540755010">
        <ele>117.20</ele>
        <time>2014-03-02T08:05:59Z</time>
      </trkpt>
      <trkpt lat="41.608311830" lon="2.540753330">
        <ele>117.00</ele>
        <time>2014-03-02T08:06:00Z</time>
      </trkpt>
      <trkpt lat="41.608333450" lon="2.540750140">
        <ele>116.90</ele>
        <time>2014-03-02T08:06:01Z</time>
      </trkpt>
      <trkpt lat="41.608356750" lon="2.540746790">
        <ele>116.80</ele>
        <time>2014-03-02T08:06:02Z</time>
      </trkpt>
      <trkpt lat="41.608381730" lon="2.540745120">
        <ele>116.70</ele>
        <time>2014-03-02T08:06:03Z</time>
      </trkpt>
      <trkpt lat="41.608406710" lon="2.540743440">
        <ele>117.00</ele>
        <time>2014-03-02T08:06:04Z</time>
      </trkpt>
      <trkpt lat="41.608431690" lon="2.540745120">
        <ele>117.30</ele>
        <time>2014-03-02T08:06:05Z</time>
      </trkpt>
      <trkpt lat="41.608455160" lon="2.540745120">
        <ele>117.40</ele>
        <time>2014-03-02T08:06:06Z</time>
      </trkpt>
      <trkpt lat="41.608476780" lon="2.540741760">
        <ele>117.50</ele>
        <time>2014-03-02T08:06:07Z</time>
      </trkpt>
      <trkpt lat="41.608495060" lon="2.540736730">
        <ele>117.60</ele>
        <time>2014-03-02T08:06:08Z</time>
      </trkpt>
      <trkpt lat="41.608516680" lon="2.540730030">
        <ele>117.70</ele>
        <time>2014-03-02T08:06:09Z</time>
      </trkpt>
      <trkpt lat="41.608541830" lon="2.540725000">
        <ele>117.80</ele>
        <time>2014-03-02T08:06:10Z</time>
      </trkpt>
      <trkpt lat="41.608560100" lon="2.540721810">
        <ele>117.50</ele>
        <time>2014-03-02T08:06:11Z</time>
      </trkpt>
      <trkpt lat="41.608586750" lon="2.540716780">
        <ele>117.30</ele>
        <time>2014-03-02T08:06:12Z</time>
      </trkpt>
      <trkpt lat="41.608618440" lon="2.540713430">
        <ele>117.70</ele>
        <time>2014-03-02T08:06:13Z</time>
      </trkpt>
      <trkpt lat="41.608646770" lon="2.540710080">
        <ele>118.00</ele>
        <time>2014-03-02T08:06:14Z</time>
      </trkpt>
      <trkpt lat="41.608675100" lon="2.540708400">
        <ele>118.20</ele>
        <time>2014-03-02T08:06:15Z</time>
      </trkpt>
      <trkpt lat="41.608703430" lon="2.540703370">
        <ele>118.30</ele>
        <time>2014-03-02T08:06:16Z</time>
      </trkpt>
      <trkpt lat="41.608728410" lon="2.540701700">
        <ele>118.30</ele>
        <time>2014-03-02T08:06:17Z</time>
      </trkpt>
      <trkpt lat="41.608751710" lon="2.540698340">
        <ele>118.20</ele>
        <time>2014-03-02T08:06:18Z</time>
      </trkpt>
      <trkpt lat="41.608780040" lon="2.540696670">
        <ele>118.10</ele>
        <time>2014-03-02T08:06:19Z</time>
      </trkpt>
      <trkpt lat="41.608808370" lon="2.540691810">
        <ele>118.00</ele>
        <time>2014-03-02T08:06:20Z</time>
      </trkpt>
      <trkpt lat="41.608836700" lon="2.540690130">
        <ele>118.00</ele>
        <time>2014-03-02T08:06:21Z</time>
      </trkpt>
      <trkpt lat="41.608868390" lon="2.540685100">
        <ele>118.00</ele>
        <time>2014-03-02T08:06:22Z</time>
      </trkpt>
      <trkpt lat="41.608900070" lon="2.540680070">
        <ele>118.40</ele>
        <time>2014-03-02T08:06:23Z</time>
      </trkpt>
      <trkpt lat="41.608928400" lon="2.540676720">
        <ele>118.70</ele>
        <time>2014-03-02T08:06:24Z</time>
      </trkpt>
      <trkpt lat="41.608956730" lon="2.540673370">
        <ele>118.90</ele>
        <time>2014-03-02T08:06:25Z</time>
      </trkpt>
      <trkpt lat="41.608985060" lon="2.540670010">
        <ele>119.00</ele>
        <time>2014-03-02T08:06:26Z</time>
      </trkpt>
      <trkpt lat="41.609011720" lon="2.540668340">
        <ele>119.20</ele>
        <time>2014-03-02T08:06:27Z</time>
      </trkpt>
      <trkpt lat="41.609036690" lon="2.540666830">
        <ele>119.30</ele>
        <time>2014-03-02T08:06:28Z</time>
      </trkpt>
      <trkpt lat="41.609063350" lon="2.540665150">
        <ele>119.40</ele>
        <time>2014-03-02T08:06:29Z</time>
      </trkpt>
      <trkpt lat="41.609088490" lon="2.540663480">
        <ele>119.30</ele>
        <time>2014-03-02T08:06:30Z</time>
      </trkpt>
      <trkpt lat="41.609113470" lon="2.540661800">
        <ele>119.20</ele>
        <time>2014-03-02T08:06:31Z</time>
      </trkpt>
      <trkpt lat="41.609140130" lon="2.540658450">
        <ele>119.40</ele>
        <time>2014-03-02T08:06:32Z</time>
      </trkpt>
      <trkpt lat="41.609161750" lon="2.540658450">
        <ele>119.50</ele>
        <time>2014-03-02T08:06:33Z</time>
      </trkpt>
      <trkpt lat="41.609186730" lon="2.540656770">
        <ele>119.60</ele>
        <time>2014-03-02T08:06:34Z</time>
      </trkpt>
      <trkpt lat="41.609213380" lon="2.540651740">
        <ele>119.70</ele>
        <time>2014-03-02T08:06:35Z</time>
      </trkpt>
      <trkpt lat="41.609241720" lon="2.540646710">
        <ele>119.80</ele>
        <time>2014-03-02T08:06:36Z</time>
      </trkpt>
      <trkpt lat="41.609265020" lon="2.540640010">
        <ele>119.50</ele>
        <time>2014-03-02T08:06:37Z</time>
      </trkpt>
      <trkpt lat="41.609286810" lon="2.540635140">
        <ele>119.30</ele>
        <time>2014-03-02T08:06:38Z</time>
      </trkpt>
      <trkpt lat="41.609311790" lon="2.540630120">
        <ele>119.20</ele>
        <time>2014-03-02T08:06:39Z</time>
      </trkpt>
      <trkpt lat="41.609340120" lon="2.540628440">
        <ele>119.20</ele>
        <time>2014-03-02T08:06:40Z</time>
      </trkpt>
      <trkpt lat="41.609370130" lon="2.540623410">
        <ele>119.20</ele>
        <time>2014-03-02T08:06:41Z</time>
      </trkpt>
      <trkpt lat="41.609401810" lon="2.540618380">
        <ele>119.50</ele>
        <time>2014-03-02T08:06:42Z</time>
      </trkpt>
      <trkpt lat="41.609428460" lon="2.540613350">
        <ele>119.70</ele>
        <time>2014-03-02T08:06:43Z</time>
      </trkpt>
      <trkpt lat="41.609453440" lon="2.540610000">
        <ele>119.70</ele>
        <time>2014-03-02T08:06:44Z</time>
      </trkpt>
      <trkpt lat="41.609480100" lon="2.540605140">
        <ele>119.80</ele>
        <time>2014-03-02T08:06:45Z</time>
      </trkpt>
      <trkpt lat="41.609503400" lon="2.540603460">
        <ele>120.00</ele>
        <time>2014-03-02T08:06:46Z</time>
      </trkpt>
      <trkpt lat="41.609525020" lon="2.540600110">
        <ele>120.20</ele>
        <time>2014-03-02T08:06:47Z</time>
      </trkpt>
      <trkpt lat="41.609548490" lon="2.540596760">
        <ele>120.30</ele>
        <time>2014-03-02T08:06:48Z</time>
      </trkpt>
      <trkpt lat="41.609570120" lon="2.540593400">
        <ele>120.40</ele>
        <time>2014-03-02T08:06:49Z</time>
      </trkpt>
      <trkpt lat="41.609596770" lon="2.540588370">
        <ele>120.50</ele>
        <time>2014-03-02T08:06:50Z</time>
      </trkpt>
      <trkpt lat="41.609625100" lon="2.540581670">
        <ele>120.60</ele>
        <time>2014-03-02T08:06:51Z</time>
      </trkpt>
      <trkpt lat="41.609653430" lon="2.540576810">
        <ele>120.70</ele>
        <time>2014-03-02T08:06:52Z</time>
      </trkpt>
      <trkpt lat="41.609678410" lon="2.540571780">
        <ele>120.80</ele>
        <time>2014-03-02T08:06:53Z</time>
      </trkpt>
      <trkpt lat="41.609708420" lon="2.540563400">
        <ele>120.50</ele>
        <time>2014-03-02T08:06:54Z</time>
      </trkpt>
      <trkpt lat="41.609738430" lon="2.540551830">
        <ele>120.20</ele>
        <time>2014-03-02T08:06:55Z</time>
      </trkpt>
      <trkpt lat="41.609765080" lon="2.540538420">
        <ele>120.70</ele>
        <time>2014-03-02T08:06:56Z</time>
      </trkpt>
      <trkpt lat="41.609791740" lon="2.540526680">
        <ele>121.00</ele>
        <time>2014-03-02T08:06:57Z</time>
      </trkpt>
      <trkpt lat="41.609820070" lon="2.540516790">
        <ele>121.30</ele>
        <time>2014-03-02T08:06:58Z</time>
      </trkpt>
      <trkpt lat="41.609846720" lon="2.540500030">
        <ele>121.50</ele>
        <time>2014-03-02T08:06:59Z</time>
      </trkpt>
      <trkpt lat="41.609876730" lon="2.540486790">
        <ele>121.70</ele>
        <time>2014-03-02T08:07:00Z</time>
      </trkpt>
      <trkpt lat="41.609903380" lon="2.540475050">
        <ele>121.80</ele>
        <time>2014-03-02T08:07:01Z</time>
      </trkpt>
      <trkpt lat="41.609930040" lon="2.540463480">
        <ele>121.90</ele>
        <time>2014-03-02T08:07:02Z</time>
      </trkpt>
      <trkpt lat="41.609958370" lon="2.540451750">
        <ele>122.10</ele>
        <time>2014-03-02T08:07:03Z</time>
      </trkpt>
      <trkpt lat="41.609985020" lon="2.540438340">
        <ele>122.30</ele>
        <time>2014-03-02T08:07:04Z</time>
      </trkpt>
      <trkpt lat="41.610010000" lon="2.540425090">
        <ele>122.30</ele>
        <time>2014-03-02T08:07:05Z</time>
      </trkpt>
      <trkpt lat="41.610040010" lon="2.540410010">
        <ele>122.30</ele>
        <time>2014-03-02T08:07:06Z</time>
      </trkpt>
      <trkpt lat="41.610068340" lon="2.540395090">
        <ele>122.40</ele>
        <time>2014-03-02T08:07:07Z</time>
      </trkpt>
      <trkpt lat="41.610095160" lon="2.540380000">
        <ele>122.60</ele>
        <time>2014-03-02T08:07:08Z</time>
      </trkpt>
      <trkpt lat="41.610123490" lon="2.540365080">
        <ele>122.80</ele>
        <time>2014-03-02T08:07:09Z</time>
      </trkpt>
      <trkpt lat="41.610151820" lon="2.540351670">
        <ele>122.80</ele>
        <time>2014-03-02T08:07:10Z</time>
      </trkpt>
      <trkpt lat="41.610176800" lon="2.540338430">
        <ele>122.70</ele>
        <time>2014-03-02T08:07:11Z</time>
      </trkpt>
      <trkpt lat="41.610203450" lon="2.540325010">
        <ele>122.70</ele>
        <time>2014-03-02T08:07:12Z</time>
      </trkpt>
      <trkpt lat="41.610233460" lon="2.540308420">
        <ele>122.80</ele>
        <time>2014-03-02T08:07:13Z</time>
      </trkpt>
      <trkpt lat="41.610261790" lon="2.540293330">
        <ele>122.90</ele>
        <time>2014-03-02T08:07:14Z</time>
      </trkpt>
      <trkpt lat="41.610288450" lon="2.540280090">
        <ele>123.00</ele>
        <time>2014-03-02T08:07:15Z</time>
      </trkpt>
      <trkpt lat="41.610315100" lon="2.540266680">
        <ele>123.00</ele>
        <time>2014-03-02T08:07:16Z</time>
      </trkpt>
      <trkpt lat="41.610341760" lon="2.540253430">
        <ele>123.30</ele>
        <time>2014-03-02T08:07:17Z</time>
      </trkpt>
      <trkpt lat="41.610368410" lon="2.540240020">
        <ele>123.50</ele>
        <time>2014-03-02T08:07:18Z</time>
      </trkpt>
      <trkpt lat="41.610395070" lon="2.540225100">
        <ele>123.60</ele>
        <time>2014-03-02T08:07:19Z</time>
      </trkpt>
      <trkpt lat="41.610425070" lon="2.540213370">
        <ele>123.40</ele>
        <time>2014-03-02T08:07:20Z</time>
      </trkpt>
      <trkpt lat="41.610453400" lon="2.540198450">
        <ele>123.20</ele>
        <time>2014-03-02T08:07:21Z</time>
      </trkpt>
      <trkpt lat="41.610480060" lon="2.540185040">
        <ele>123.30</ele>
        <time>2014-03-02T08:07:22Z</time>
      </trkpt>
      <trkpt lat="41.610506710" lon="2.540170120">
        <ele>123.30</ele>
        <time>2014-03-02T08:07:23Z</time>
      </trkpt>
      <trkpt lat="41.610535040" lon="2.540156710">
        <ele>123.50</ele>
        <time>2014-03-02T08:07:24Z</time>
      </trkpt>
      <trkpt lat="41.610561700" lon="2.540143460">
        <ele>123.60</ele>
        <time>2014-03-02T08:07:25Z</time>
      </trkpt>
      <trkpt lat="41.610590030" lon="2.540128380">
        <ele>123.70</ele>
        <time>2014-03-02T08:07:26Z</time>
      </trkpt>
      <trkpt lat="41.610616680" lon="2.540111780">
        <ele>123.80</ele>
        <time>2014-03-02T08:07:27Z</time>
      </trkpt>
      <trkpt lat="41.610641830" lon="2.540096690">
        <ele>123.80</ele>
        <time>2014-03-02T08:07:28Z</time>
      </trkpt>
      <trkpt lat="41.610668480" lon="2.540080100">
        <ele>124.30</ele>
        <time>2014-03-02T08:07:29Z</time>
      </trkpt>
      <trkpt lat="41.610693460" lon="2.540066680">
        <ele>124.60</ele>
        <time>2014-03-02T08:07:30Z</time>
      </trkpt>
      <trkpt lat="41.610716760" lon="2.540055120">
        <ele>124.80</ele>
        <time>2014-03-02T08:07:31Z</time>
      </trkpt>
      <trkpt lat="41.610743420" lon="2.540041710">
        <ele>124.50</ele>
        <time>2014-03-02T08:07:32Z</time>
      </trkpt>
      <trkpt lat="41.610770070" lon="2.540028460">
        <ele>124.20</ele>
        <time>2014-03-02T08:07:33Z</time>
      </trkpt>
      <trkpt lat="41.610796730" lon="2.540018400">
        <ele>124.70</ele>
        <time>2014-03-02T08:07:34Z</time>
      </trkpt>
      <trkpt lat="41.610823380" lon="2.540005160">
        <ele>125.00</ele>
        <time>2014-03-02T08:07:35Z</time>
      </trkpt>
      <trkpt lat="41.610851710" lon="2.539991750">
        <ele>124.80</ele>
        <time>2014-03-02T08:07:36Z</time>
      </trkpt>
      <trkpt lat="41.610881720" lon="2.539980020">
        <ele>124.60</ele>
        <time>2014-03-02T08:07:37Z</time>
      </trkpt>
      <trkpt lat="41.610911730" lon="2.539965100">
        <ele>124.50</ele>
        <time>2014-03-02T08:07:38Z</time>
      </trkpt>
      <trkpt lat="41.610940060" lon="2.539951680">
        <ele>124.80</ele>
        <time>2014-03-02T08:07:39Z</time>
      </trkpt>
      <trkpt lat="41.610968390" lon="2.539936760">
        <ele>125.00</ele>
        <time>2014-03-02T08:07:40Z</time>
      </trkpt>
      <trkpt lat="41.610996720" lon="2.539921680">
        <ele>125.40</ele>
        <time>2014-03-02T08:07:41Z</time>
      </trkpt>
      <trkpt lat="41.611023370" lon="2.539908430">
        <ele>125.60</ele>
        <time>2014-03-02T08:07:42Z</time>
      </trkpt>
      <trkpt lat="41.611051700" lon="2.539893350">
        <ele>125.90</ele>
        <time>2014-03-02T08:07:43Z</time>
      </trkpt>
      <trkpt lat="41.611075010" lon="2.539876750">
        <ele>126.20</ele>
        <time>2014-03-02T08:07:44Z</time>
      </trkpt>
      <trkpt lat="41.611101830" lon="2.539858480">
        <ele>126.30</ele>
        <time>2014-03-02T08:07:45Z</time>
      </trkpt>
      <trkpt lat="41.611128480" lon="2.539840040">
        <ele>126.40</ele>
        <time>2014-03-02T08:07:46Z</time>
      </trkpt>
      <trkpt lat="41.611155140" lon="2.539823440">
        <ele>126.40</ele>
        <time>2014-03-02T08:07:47Z</time>
      </trkpt>
      <trkpt lat="41.611183470" lon="2.539805000">
        <ele>126.50</ele>
        <time>2014-03-02T08:07:48Z</time>
      </trkpt>
      <trkpt lat="41.611211800" lon="2.539788410">
        <ele>126.60</ele>
        <time>2014-03-02T08:07:49Z</time>
      </trkpt>
      <trkpt lat="41.611241810" lon="2.539770130">
        <ele>126.70</ele>
        <time>2014-03-02T08:07:50Z</time>
      </trkpt>
      <trkpt lat="41.611271810" lon="2.539751690">
        <ele>126.60</ele>
        <time>2014-03-02T08:07:51Z</time>
      </trkpt>
      <trkpt lat="41.611298470" lon="2.539736770">
        <ele>126.50</ele>
        <time>2014-03-02T08:07:52Z</time>
      </trkpt>
      <trkpt lat="41.611326800" lon="2.539721690">
        <ele>127.10</ele>
        <time>2014-03-02T08:07:53Z</time>
      </trkpt>
      <trkpt lat="41.611358480" lon="2.539703410">
        <ele>127.50</ele>
        <time>2014-03-02T08:07:54Z</time>
      </trkpt>
      <trkpt lat="41.611388490" lon="2.539683460">
        <ele>127.80</ele>
        <time>2014-03-02T08:07:55Z</time>
      </trkpt>
      <trkpt lat="41.611416820" lon="2.539661670">
        <ele>128.00</ele>
        <time>2014-03-02T08:07:56Z</time>
      </trkpt>
      <trkpt lat="41.611443470" lon="2.539641720">
        <ele>128.10</ele>
        <time>2014-03-02T08:07:57Z</time>
      </trkpt>
      <trkpt lat="41.611471800" lon="2.539620100">
        <ele>127.60</ele>
        <time>2014-03-02T08:07:58Z</time>
      </trkpt>
      <trkpt lat="41.611500140" lon="2.539595120">
        <ele>127.30</ele>
        <time>2014-03-02T08:07:59Z</time>
      </trkpt>
      <trkpt lat="41.611526790" lon="2.539570140">
        <ele>127.40</ele>
        <time>2014-03-02T08:08:00Z</time>
      </trkpt>
      <trkpt lat="41.611551770" lon="2.539545160">
        <ele>127.50</ele>
        <time>2014-03-02T08:08:01Z</time>
      </trkpt>
      <trkpt lat="41.611575070" lon="2.539520020">
        <ele>127.50</ele>
        <time>2014-03-02T08:08:02Z</time>
      </trkpt>
      <trkpt lat="41.611600050" lon="2.539496710">
        <ele>127.50</ele>
        <time>2014-03-02T08:08:03Z</time>
      </trkpt>
      <trkpt lat="41.611623350" lon="2.539473410">
        <ele>127.50</ele>
        <time>2014-03-02T08:08:04Z</time>
      </trkpt>
      <trkpt lat="41.611645140" lon="2.539448440">
        <ele>127.60</ele>
        <time>2014-03-02T08:08:05Z</time>
      </trkpt>
      <trkpt lat="41.611665090" lon="2.539421780">
        <ele>127.70</ele>
        <time>2014-03-02T08:08:06Z</time>
      </trkpt>
      <trkpt lat="41.611683360" lon="2.539393450">
        <ele>127.80</ele>
        <time>2014-03-02T08:08:07Z</time>
      </trkpt>
      <trkpt lat="41.611703480" lon="2.539363440">
        <ele>128.00</ele>
        <time>2014-03-02T08:08:08Z</time>
      </trkpt>
      <trkpt lat="41.611728460" lon="2.539333440">
        <ele>128.10</ele>
        <time>2014-03-02T08:08:09Z</time>
      </trkpt>
      <trkpt lat="41.611750080" lon="2.539303430">
        <ele>127.90</ele>
        <time>2014-03-02T08:08:10Z</time>
      </trkpt>
      <trkpt lat="41.611768360" lon="2.539275100">
        <ele>127.80</ele>
        <time>2014-03-02T08:08:11Z</time>
      </trkpt>
      <trkpt lat="41.611790150" lon="2.539248440">
        <ele>128.30</ele>
        <time>2014-03-02T08:08:12Z</time>
      </trkpt>
      <trkpt lat="41.611811770" lon="2.539221790">
        <ele>128.70</ele>
        <time>2014-03-02T08:08:13Z</time>
      </trkpt>
      <trkpt lat="41.611835080" lon="2.539195130">
        <ele>128.70</ele>
        <time>2014-03-02T08:08:14Z</time>
      </trkpt>
      <trkpt lat="41.611856700" lon="2.539171660">
        <ele>128.70</ele>
        <time>2014-03-02T08:08:15Z</time>
      </trkpt>
      <trkpt lat="41.611878490" lon="2.539146690">
        <ele>128.70</ele>
        <time>2014-03-02T08:08:16Z</time>
      </trkpt>
      <trkpt lat="41.611900120" lon="2.539121710">
        <ele>128.70</ele>
        <time>2014-03-02T08:08:17Z</time>
      </trkpt>
      <trkpt lat="41.611920070" lon="2.539093380">
        <ele>128.80</ele>
        <time>2014-03-02T08:08:18Z</time>
      </trkpt>
      <trkpt lat="41.611943370" lon="2.539066720">
        <ele>129.10</ele>
        <time>2014-03-02T08:08:19Z</time>
      </trkpt>
      <trkpt lat="41.611965000" lon="2.539038390">
        <ele>129.40</ele>
        <time>2014-03-02T08:08:20Z</time>
      </trkpt>
      <trkpt lat="41.611986790" lon="2.539010060">
        <ele>129.40</ele>
        <time>2014-03-02T08:08:21Z</time>
      </trkpt>
      <trkpt lat="41.612006740" lon="2.538981730">
        <ele>129.30</ele>
        <time>2014-03-02T08:08:22Z</time>
      </trkpt>
      <trkpt lat="41.612026690" lon="2.538951720">
        <ele>129.30</ele>
        <time>2014-03-02T08:08:23Z</time>
      </trkpt>
      <trkpt lat="41.612045130" lon="2.538921720">
        <ele>129.50</ele>
        <time>2014-03-02T08:08:24Z</time>
      </trkpt>
      <trkpt lat="41.612063400" lon="2.538891710">
        <ele>129.60</ele>
        <time>2014-03-02T08:08:25Z</time>
      </trkpt>
      <trkpt lat="41.612081670" lon="2.538863380">
        <ele>129.60</ele>
        <time>2014-03-02T08:08:26Z</time>
      </trkpt>
      <trkpt lat="41.612096760" lon="2.538830020">
        <ele>129.70</ele>
        <time>2014-03-02T08:08:27Z</time>
      </trkpt>
      <trkpt lat="41.612111680" lon="2.538796830">
        <ele>129.70</ele>
        <time>2014-03-02T08:08:28Z</time>
      </trkpt>
      <trkpt lat="41.612125090" lon="2.538765140">
        <ele>129.90</ele>
        <time>2014-03-02T08:08:29Z</time>
      </trkpt>
      <trkpt lat="41.612143360" lon="2.538731780">
        <ele>130.10</ele>
        <time>2014-03-02T08:08:30Z</time>
      </trkpt>
      <trkpt lat="41.612161800" lon="2.538701780">
        <ele>130.50</ele>
        <time>2014-03-02T08:08:31Z</time>
      </trkpt>
      <trkpt lat="41.612180080" lon="2.538673440">
        <ele>130.70</ele>
        <time>2014-03-02T08:08:32Z</time>
      </trkpt>
      <trkpt lat="41.612198350" lon="2.538643440">
        <ele>130.70</ele>
        <time>2014-03-02T08:08:33Z</time>
      </trkpt>
      <trkpt lat="41.612215110" lon="2.538611750">
        <ele>130.70</ele>
        <time>2014-03-02T08:08:34Z</time>
      </trkpt>
      <trkpt lat="41.612231710" lon="2.538581750">
        <ele>130.60</ele>
        <time>2014-03-02T08:08:35Z</time>
      </trkpt>
      <trkpt lat="41.612250150" lon="2.538551740">
        <ele>131.00</ele>
        <time>2014-03-02T08:08:36Z</time>
      </trkpt>
      <trkpt lat="41.612270100" lon="2.538523410">
        <ele>131.30</ele>
        <time>2014-03-02T08:08:37Z</time>
      </trkpt>
      <trkpt lat="41.612290050" lon="2.538495080">
        <ele>131.40</ele>
        <time>2014-03-02T08:08:38Z</time>
      </trkpt>
      <trkpt lat="41.612308490" lon="2.538468420">
        <ele>131.60</ele>
        <time>2014-03-02T08:08:39Z</time>
      </trkpt>
      <trkpt lat="41.612325080" lon="2.538440090">
        <ele>131.20</ele>
        <time>2014-03-02T08:08:40Z</time>
      </trkpt>
      <trkpt lat="41.612343350" lon="2.538411760">
        <ele>131.00</ele>
        <time>2014-03-02T08:08:41Z</time>
      </trkpt>
      <trkpt lat="41.612361790" lon="2.538385110">
        <ele>130.70</ele>
        <time>2014-03-02T08:08:42Z</time>
      </trkpt>
      <trkpt lat="41.612380070" lon="2.538358450">
        <ele>131.30</ele>
        <time>2014-03-02T08:08:43Z</time>
      </trkpt>
      <trkpt lat="41.612400020" lon="2.538331800">
        <ele>131.60</ele>
        <time>2014-03-02T08:08:44Z</time>
      </trkpt>
      <trkpt lat="41.612418460" lon="2.538306820">
        <ele>131.90</ele>
        <time>2014-03-02T08:08:45Z</time>
      </trkpt>
      <trkpt lat="41.612440080" lon="2.538283350">
        <ele>132.10</ele>
        <time>2014-03-02T08:08:46Z</time>
      </trkpt>
      <trkpt lat="41.612460030" lon="2.538258370">
        <ele>131.90</ele>
        <time>2014-03-02T08:08:47Z</time>
      </trkpt>
      <trkpt lat="41.612480150" lon="2.538233390">
        <ele>131.90</ele>
        <time>2014-03-02T08:08:48Z</time>
      </trkpt>
      <trkpt lat="41.612500100" lon="2.538208420">
        <ele>131.80</ele>
        <time>2014-03-02T08:08:49Z</time>
      </trkpt>
      <trkpt lat="41.612520050" lon="2.538183440">
        <ele>132.20</ele>
        <time>2014-03-02T08:08:50Z</time>
      </trkpt>
      <trkpt lat="41.612538490" lon="2.538158460">
        <ele>132.50</ele>
        <time>2014-03-02T08:08:51Z</time>
      </trkpt>
      <trkpt lat="41.612558430" lon="2.538133480">
        <ele>132.80</ele>
        <time>2014-03-02T08:08:52Z</time>
      </trkpt>
      <trkpt lat="41.612576710" lon="2.538108340">
        <ele>133.10</ele>
        <time>2014-03-02T08:08:53Z</time>
      </trkpt>
      <trkpt lat="41.612596820" lon="2.538085030">
        <ele>133.30</ele>
        <time>2014-03-02T08:08:54Z</time>
      </trkpt>
      <trkpt lat="41.612615100" lon="2.538061730">
        <ele>133.60</ele>
        <time>2014-03-02T08:08:55Z</time>
      </trkpt>
      <trkpt lat="41.612633370" lon="2.538040110">
        <ele>133.80</ele>
        <time>2014-03-02T08:08:56Z</time>
      </trkpt>
      <trkpt lat="41.612656670" lon="2.538016810">
        <ele>133.50</ele>
        <time>2014-03-02T08:08:57Z</time>
      </trkpt>
      <trkpt lat="41.612676790" lon="2.537991830">
        <ele>133.20</ele>
        <time>2014-03-02T08:08:58Z</time>
      </trkpt>
      <trkpt lat="41.612698410" lon="2.537968360">
        <ele>133.00</ele>
        <time>2014-03-02T08:08:59Z</time>
      </trkpt>
      <trkpt lat="41.612720040" lon="2.537945060">
        <ele>132.80</ele>
        <time>2014-03-02T08:09:00Z</time>
      </trkpt>
      <trkpt lat="41.612741660" lon="2.537923430">
        <ele>132.70</ele>
        <time>2014-03-02T08:09:01Z</time>
      </trkpt>
      <trkpt lat="41.612761780" lon="2.537900130">
        <ele>132.80</ele>
        <time>2014-03-02T08:09:02Z</time>
      </trkpt>
      <trkpt lat="41.612783400" lon="2.537876830">
        <ele>132.90</ele>
        <time>2014-03-02T08:09:03Z</time>
      </trkpt>
      <trkpt lat="41.612801680" lon="2.537851680">
        <ele>133.10</ele>
        <time>2014-03-02T08:09:04Z</time>
      </trkpt>
      <trkpt lat="41.612821790" lon="2.537828380">
        <ele>133.20</ele>
        <time>2014-03-02T08:09:05Z</time>
      </trkpt>
      <trkpt lat="41.612843420" lon="2.537806760">
        <ele>133.40</ele>
        <time>2014-03-02T08:09:06Z</time>
      </trkpt>
      <trkpt lat="41.612865040" lon="2.537783450">
        <ele>133.60</ele>
        <time>2014-03-02T08:09:07Z</time>
      </trkpt>
      <trkpt lat="41.612883480" lon="2.537760150">
        <ele>133.80</ele>
        <time>2014-03-02T08:09:08Z</time>
      </trkpt>
      <trkpt lat="41.612898400" lon="2.537733330">
        <ele>134.20</ele>
        <time>2014-03-02T08:09:09Z</time>
      </trkpt>
      <trkpt lat="41.612918350" lon="2.537708350">
        <ele>134.50</ele>
        <time>2014-03-02T08:09:10Z</time>
      </trkpt>
      <trkpt lat="41.612940150" lon="2.537683370">
        <ele>134.50</ele>
        <time>2014-03-02T08:09:11Z</time>
      </trkpt>
      <trkpt lat="41.612960100" lon="2.537660070">
        <ele>134.60</ele>
        <time>2014-03-02T08:09:12Z</time>
      </trkpt>
      <trkpt lat="41.612981720" lon="2.537635090">
        <ele>134.60</ele>
        <time>2014-03-02T08:09:13Z</time>
      </trkpt>
      <trkpt lat="41.613000160" lon="2.537611790">
        <ele>135.10</ele>
        <time>2014-03-02T08:09:14Z</time>
      </trkpt>
      <trkpt lat="41.613020110" lon="2.537588490">
        <ele>135.40</ele>
        <time>2014-03-02T08:09:15Z</time>
      </trkpt>
      <trkpt lat="41.613043410" lon="2.537563350">
        <ele>135.40</ele>
        <time>2014-03-02T08:09:16Z</time>
      </trkpt>
      <trkpt lat="41.613063360" lon="2.537538370">
        <ele>135.40</ele>
        <time>2014-03-02T08:09:17Z</time>
      </trkpt>
      <trkpt lat="41.613083480" lon="2.537515070">
        <ele>135.50</ele>
        <time>2014-03-02T08:09:18Z</time>
      </trkpt>
      <trkpt lat="41.613105100" lon="2.537488410">
        <ele>135.60</ele>
        <time>2014-03-02T08:09:19Z</time>
      </trkpt>
      <trkpt lat="41.613125050" lon="2.537463430">
        <ele>135.70</ele>
        <time>2014-03-02T08:09:20Z</time>
      </trkpt>
      <trkpt lat="41.613145000" lon="2.537436780">
        <ele>135.80</ele>
        <time>2014-03-02T08:09:21Z</time>
      </trkpt>
      <trkpt lat="41.613166790" lon="2.537413480">
        <ele>135.90</ele>
        <time>2014-03-02T08:09:22Z</time>
      </trkpt>
      <trkpt lat="41.613186740" lon="2.537390010">
        <ele>135.80</ele>
        <time>2014-03-02T08:09:23Z</time>
      </trkpt>
      <trkpt lat="41.613210040" lon="2.537365030">
        <ele>135.80</ele>
        <time>2014-03-02T08:09:24Z</time>
      </trkpt>
      <trkpt lat="41.613228480" lon="2.537340050">
        <ele>135.80</ele>
        <time>2014-03-02T08:09:25Z</time>
      </trkpt>
      <trkpt lat="41.613248430" lon="2.537313400">
        <ele>136.30</ele>
        <time>2014-03-02T08:09:26Z</time>
      </trkpt>
      <trkpt lat="41.613270060" lon="2.537288420">
        <ele>136.60</ele>
        <time>2014-03-02T08:09:27Z</time>
      </trkpt>
      <trkpt lat="41.613288330" lon="2.537261760">
        <ele>136.70</ele>
        <time>2014-03-02T08:09:28Z</time>
      </trkpt>
      <trkpt lat="41.613310120" lon="2.537236790">
        <ele>136.80</ele>
        <time>2014-03-02T08:09:29Z</time>
      </trkpt>
      <trkpt lat="41.613328400" lon="2.537211810">
        <ele>136.70</ele>
        <time>2014-03-02T08:09:30Z</time>
      </trkpt>
      <trkpt lat="41.613345160" lon="2.537188340">
        <ele>136.60</ele>
        <time>2014-03-02T08:09:31Z</time>
      </trkpt>
      <trkpt lat="41.613365110" lon="2.537163360">
        <ele>136.60</ele>
        <time>2014-03-02T08:09:32Z</time>
      </trkpt>
      <trkpt lat="41.613383380" lon="2.537136710">
        <ele>136.60</ele>
        <time>2014-03-02T08:09:33Z</time>
      </trkpt>
      <trkpt lat="41.613403330" lon="2.537110050">
        <ele>136.60</ele>
        <time>2014-03-02T08:09:34Z</time>
      </trkpt>
      <trkpt lat="41.613425120" lon="2.537085070">
        <ele>136.50</ele>
        <time>2014-03-02T08:09:35Z</time>
      </trkpt>
      <trkpt lat="41.613443400" lon="2.537060100">
        <ele>136.50</ele>
        <time>2014-03-02T08:09:36Z</time>
      </trkpt>
      <trkpt lat="41.613460160" lon="2.537033440">
        <ele>137.00</ele>
        <time>2014-03-02T08:09:37Z</time>
      </trkpt>
      <trkpt lat="41.613476760" lon="2.537006790">
        <ele>137.40</ele>
        <time>2014-03-02T08:09:38Z</time>
      </trkpt>
      <trkpt lat="41.613495030" lon="2.536981810">
        <ele>137.80</ele>
        <time>2014-03-02T08:09:39Z</time>
      </trkpt>
      <trkpt lat="41.613515140" lon="2.536955150">
        <ele>137.80</ele>
        <time>2014-03-02T08:09:40Z</time>
      </trkpt>
      <trkpt lat="41.613533420" lon="2.536930010">
        <ele>137.80</ele>
        <time>2014-03-02T08:09:41Z</time>
      </trkpt>
      <trkpt lat="41.613551690" lon="2.536905030">
        <ele>137.60</ele>
        <time>2014-03-02T08:09:42Z</time>
      </trkpt>
      <trkpt lat="41.613570130" lon="2.536880050">
        <ele>137.50</ele>
        <time>2014-03-02T08:09:43Z</time>
      </trkpt>
      <trkpt lat="41.613583370" lon="2.536850050">
        <ele>137.80</ele>
        <time>2014-03-02T08:09:44Z</time>
      </trkpt>
      <trkpt lat="41.613591760" lon="2.536816690">
        <ele>138.10</ele>
        <time>2014-03-02T08:09:45Z</time>
      </trkpt>
      <trkpt lat="41.613595110" lon="2.536783490">
        <ele>138.30</ele>
        <time>2014-03-02T08:09:46Z</time>
      </trkpt>
      <trkpt lat="41.613598460" lon="2.536748460">
        <ele>138.10</ele>
        <time>2014-03-02T08:09:47Z</time>
      </trkpt>
      <trkpt lat="41.613600140" lon="2.536713420">
        <ele>137.90</ele>
        <time>2014-03-02T08:09:48Z</time>
      </trkpt>
      <trkpt lat="41.613603490" lon="2.536678380">
        <ele>138.10</ele>
        <time>2014-03-02T08:09:49Z</time>
      </trkpt>
      <trkpt lat="41.613606680" lon="2.536643350">
        <ele>138.30</ele>
        <time>2014-03-02T08:09:50Z</time>
      </trkpt>
      <trkpt lat="41.613611700" lon="2.536608480">
        <ele>138.40</ele>
        <time>2014-03-02T08:09:51Z</time>
      </trkpt>
      <trkpt lat="41.613620090" lon="2.536575120">
        <ele>138.50</ele>
        <time>2014-03-02T08:09:52Z</time>
      </trkpt>
      <trkpt lat="41.613628470" lon="2.536541760">
        <ele>138.60</ele>
        <time>2014-03-02T08:09:53Z</time>
      </trkpt>
      <trkpt lat="41.613640040" lon="2.536508400">
        <ele>138.40</ele>
        <time>2014-03-02T08:09:54Z</time>
      </trkpt>
      <trkpt lat="41.613651770" lon="2.536475040">
        <ele>138.30</ele>
        <time>2014-03-02T08:09:55Z</time>
      </trkpt>
      <trkpt lat="41.613665010" lon="2.536443360">
        <ele>138.50</ele>
        <time>2014-03-02T08:09:56Z</time>
      </trkpt>
      <trkpt lat="41.613680100" lon="2.536411670">
        <ele>138.70</ele>
        <time>2014-03-02T08:09:57Z</time>
      </trkpt>
      <trkpt lat="41.613693340" lon="2.536376800">
        <ele>138.80</ele>
        <time>2014-03-02T08:09:58Z</time>
      </trkpt>
      <trkpt lat="41.613708430" lon="2.536345120">
        <ele>139.10</ele>
        <time>2014-03-02T08:09:59Z</time>
      </trkpt>
      <trkpt lat="41.613721670" lon="2.536310080">
        <ele>139.30</ele>
        <time>2014-03-02T08:10:00Z</time>
      </trkpt>
      <trkpt lat="41.613735090" lon="2.536278400">
        <ele>139.40</ele>
        <time>2014-03-02T08:10:01Z</time>
      </trkpt>
      <trkpt lat="41.613748330" lon="2.536245040">
        <ele>139.50</ele>
        <time>2014-03-02T08:10:02Z</time>
      </trkpt>
      <trkpt lat="41.613761740" lon="2.536211680">
        <ele>139.50</ele>
        <time>2014-03-02T08:10:03Z</time>
      </trkpt>
      <trkpt lat="41.613776830" lon="2.536181670">
        <ele>139.50</ele>
        <time>2014-03-02T08:10:04Z</time>
      </trkpt>
      <trkpt lat="41.613781690" lon="2.536155020">
        <ele>139.50</ele>
        <time>2014-03-02T08:10:05Z</time>
      </trkpt>
      <trkpt lat="41.613783370" lon="2.536128360">
        <ele>139.40</ele>
        <time>2014-03-02T08:10:06Z</time>
      </trkpt>
      <trkpt lat="41.613791750" lon="2.536095000">
        <ele>139.40</ele>
        <time>2014-03-02T08:10:07Z</time>
      </trkpt>
      <trkpt lat="41.613805160" lon="2.536061810">
        <ele>139.70</ele>
        <time>2014-03-02T08:10:08Z</time>
      </trkpt>
      <trkpt lat="41.613820080" lon="2.536030130">
        <ele>139.90</ele>
        <time>2014-03-02T08:10:09Z</time>
      </trkpt>
      <trkpt lat="41.613833490" lon="2.535998440">
        <ele>140.10</ele>
        <time>2014-03-02T08:10:10Z</time>
      </trkpt>
      <trkpt lat="41.613845060" lon="2.535965080">
        <ele>139.80</ele>
        <time>2014-03-02T08:10:11Z</time>
      </trkpt>
      <trkpt lat="41.613858470" lon="2.535931720">
        <ele>139.60</ele>
        <time>2014-03-02T08:10:12Z</time>
      </trkpt>
      <trkpt lat="41.613871710" lon="2.535898360">
        <ele>139.70</ele>
        <time>2014-03-02T08:10:13Z</time>
      </trkpt>
      <trkpt lat="41.613885120" lon="2.535865000">
        <ele>139.70</ele>
        <time>2014-03-02T08:10:14Z</time>
      </trkpt>
      <trkpt lat="41.613898370" lon="2.535830140">
        <ele>139.90</ele>
        <time>2014-03-02T08:10:15Z</time>
      </trkpt>
      <trkpt lat="41.613911780" lon="2.535796780">
        <ele>140.10</ele>
        <time>2014-03-02T08:10:16Z</time>
      </trkpt>
      <trkpt lat="41.613925020" lon="2.535763420">
        <ele>140.20</ele>
        <time>2014-03-02T08:10:17Z</time>
      </trkpt>
      <trkpt lat="41.613938430" lon="2.535728380">
        <ele>140.50</ele>
        <time>2014-03-02T08:10:18Z</time>
      </trkpt>
      <trkpt lat="41.613951670" lon="2.535696700">
        <ele>140.70</ele>
        <time>2014-03-02T08:10:19Z</time>
      </trkpt>
      <trkpt lat="41.613965090" lon="2.535663340">
        <ele>141.00</ele>
        <time>2014-03-02T08:10:20Z</time>
      </trkpt>
      <trkpt lat="41.613976820" lon="2.535630140">
        <ele>141.20</ele>
        <time>2014-03-02T08:10:21Z</time>
      </trkpt>
      <trkpt lat="41.613988390" lon="2.535596780">
        <ele>141.60</ele>
        <time>2014-03-02T08:10:22Z</time>
      </trkpt>
      <trkpt lat="41.613998450" lon="2.535565100">
        <ele>141.90</ele>
        <time>2014-03-02T08:10:23Z</time>
      </trkpt>
      <trkpt lat="41.614010010" lon="2.535531740">
        <ele>142.10</ele>
        <time>2014-03-02T08:10:24Z</time>
      </trkpt>
      <trkpt lat="41.614018390" lon="2.535495030">
        <ele>141.90</ele>
        <time>2014-03-02T08:10:25Z</time>
      </trkpt>
      <trkpt lat="41.614031810" lon="2.535460160">
        <ele>141.80</ele>
        <time>2014-03-02T08:10:26Z</time>
      </trkpt>
      <trkpt lat="41.614043370" lon="2.535426800">
        <ele>141.60</ele>
        <time>2014-03-02T08:10:27Z</time>
      </trkpt>
      <trkpt lat="41.614055110" lon="2.535393440">
        <ele>141.40</ele>
        <time>2014-03-02T08:10:28Z</time>
      </trkpt>
      <trkpt lat="41.614068350" lon="2.535360080">
        <ele>141.30</ele>
        <time>2014-03-02T08:10:29Z</time>
      </trkpt>
      <trkpt lat="41.614081760" lon="2.535326720">
        <ele>141.30</ele>
        <time>2014-03-02T08:10:30Z</time>
      </trkpt>
      <trkpt lat="41.614095000" lon="2.535291680">
        <ele>141.40</ele>
        <time>2014-03-02T08:10:31Z</time>
      </trkpt>
      <trkpt lat="41.614105060" lon="2.535258490">
        <ele>141.60</ele>
        <time>2014-03-02T08:10:32Z</time>
      </trkpt>
      <trkpt lat="41.614118470" lon="2.535225130">
        <ele>141.80</ele>
        <time>2014-03-02T08:10:33Z</time>
      </trkpt>
      <trkpt lat="41.614126690" lon="2.535188420">
        <ele>142.00</ele>
        <time>2014-03-02T08:10:34Z</time>
      </trkpt>
      <trkpt lat="41.614136750" lon="2.535153380">
        <ele>142.20</ele>
        <time>2014-03-02T08:10:35Z</time>
      </trkpt>
      <trkpt lat="41.614148480" lon="2.535120020">
        <ele>142.30</ele>
        <time>2014-03-02T08:10:36Z</time>
      </trkpt>
      <trkpt lat="41.614158370" lon="2.535086830">
        <ele>142.40</ele>
        <time>2014-03-02T08:10:37Z</time>
      </trkpt>
      <trkpt lat="41.614171780" lon="2.535055140">
        <ele>142.50</ele>
        <time>2014-03-02T08:10:38Z</time>
      </trkpt>
      <trkpt lat="41.614183350" lon="2.535023460">
        <ele>143.10</ele>
        <time>2014-03-02T08:10:39Z</time>
      </trkpt>
      <trkpt lat="41.614196760" lon="2.534993450">
        <ele>143.50</ele>
        <time>2014-03-02T08:10:40Z</time>
      </trkpt>
      <trkpt lat="41.614206820" lon="2.534960090">
        <ele>143.30</ele>
        <time>2014-03-02T08:10:41Z</time>
      </trkpt>
      <trkpt lat="41.614216710" lon="2.534926730">
        <ele>143.20</ele>
        <time>2014-03-02T08:10:42Z</time>
      </trkpt>
      <trkpt lat="41.614230120" lon="2.534895050">
        <ele>143.10</ele>
        <time>2014-03-02T08:10:43Z</time>
      </trkpt>
      <trkpt lat="41.614241690" lon="2.534863370">
        <ele>143.40</ele>
        <time>2014-03-02T08:10:44Z</time>
      </trkpt>
      <trkpt lat="41.614253420" lon="2.534830010">
        <ele>143.60</ele>
        <time>2014-03-02T08:10:45Z</time>
      </trkpt>
      <trkpt lat="41.614266670" lon="2.534798490">
        <ele>143.90</ele>
        <time>2014-03-02T08:10:46Z</time>
      </trkpt>
      <trkpt lat="41.614280080" lon="2.534766810">
        <ele>144.10</ele>
        <time>2014-03-02T08:10:47Z</time>
      </trkpt>
      <trkpt lat="41.614291810" lon="2.534733450">
        <ele>144.30</ele>
        <time>2014-03-02T08:10:48Z</time>
      </trkpt>
      <trkpt lat="41.614303380" lon="2.534701760">
        <ele>144.20</ele>
        <time>2014-03-02T08:10:49Z</time>
      </trkpt>
      <trkpt lat="41.614316790" lon="2.534671760">
        <ele>144.20</ele>
        <time>2014-03-02T08:10:50Z</time>
      </trkpt>
      <trkpt lat="41.614328360" lon="2.534640070">
        <ele>144.10</ele>
        <time>2014-03-02T08:10:51Z</time>
      </trkpt>
      <trkpt lat="41.614341770" lon="2.534610070">
        <ele>144.00</ele>
        <time>2014-03-02T08:10:52Z</time>
      </trkpt>
      <trkpt lat="41.614355010" lon="2.534580060">
        <ele>144.30</ele>
        <time>2014-03-02T08:10:53Z</time>
      </trkpt>
      <trkpt lat="41.614366750" lon="2.534548370">
        <ele>144.60</ele>
        <time>2014-03-02T08:10:54Z</time>
      </trkpt>
      <trkpt lat="41.614380160" lon="2.534518370">
        <ele>144.80</ele>
        <time>2014-03-02T08:10:55Z</time>
      </trkpt>
      <trkpt lat="41.614390050" lon="2.534486680">
        <ele>144.90</ele>
        <time>2014-03-02T08:10:56Z</time>
      </trkpt>
      <trkpt lat="41.614400110" lon="2.534456680">
        <ele>145.00</ele>
        <time>2014-03-02T08:10:57Z</time>
      </trkpt>
      <trkpt lat="41.614410000" lon="2.534425160">
        <ele>145.10</ele>
        <time>2014-03-02T08:10:58Z</time>
      </trkpt>
      <trkpt lat="41.614421730" lon="2.534393480">
        <ele>145.20</ele>
        <time>2014-03-02T08:10:59Z</time>
      </trkpt>
      <trkpt lat="41.614431790" lon="2.534361790">
        <ele>145.20</ele>
        <time>2014-03-02T08:11:00Z</time>
      </trkpt>
      <trkpt lat="41.614440000" lon="2.534328430">
        <ele>145.10</ele>
        <time>2014-03-02T08:11:01Z</time>
      </trkpt>
      <trkpt lat="41.614448390" lon="2.534295070">
        <ele>145.10</ele>
        <time>2014-03-02T08:11:02Z</time>
      </trkpt>
      <trkpt lat="41.614455090" lon="2.534260040">
        <ele>145.20</ele>
        <time>2014-03-02T08:11:03Z</time>
      </trkpt>
      <trkpt lat="41.614465150" lon="2.534226680">
        <ele>145.30</ele>
        <time>2014-03-02T08:11:04Z</time>
      </trkpt>
      <trkpt lat="41.614475040" lon="2.534193480">
        <ele>145.50</ele>
        <time>2014-03-02T08:11:05Z</time>
      </trkpt>
      <trkpt lat="41.614485100" lon="2.534158450">
        <ele>145.70</ele>
        <time>2014-03-02T08:11:06Z</time>
      </trkpt>
      <trkpt lat="41.614493480" lon="2.534123410">
        <ele>145.80</ele>
        <time>2014-03-02T08:11:07Z</time>
      </trkpt>
      <trkpt lat="41.614501690" lon="2.534090050">
        <ele>146.00</ele>
        <time>2014-03-02T08:11:08Z</time>
      </trkpt>
      <trkpt lat="41.614510080" lon="2.534055020">
        <ele>146.20</ele>
        <time>2014-03-02T08:11:09Z</time>
      </trkpt>
      <trkpt lat="41.614520130" lon="2.534020150">
        <ele>146.40</ele>
        <time>2014-03-02T08:11:10Z</time>
      </trkpt>
      <trkpt lat="41.614530030" lon="2.533988460">
        <ele>146.60</ele>
        <time>2014-03-02T08:11:11Z</time>
      </trkpt>
      <trkpt lat="41.614538410" lon="2.533955100">
        <ele>146.80</ele>
        <time>2014-03-02T08:11:12Z</time>
      </trkpt>
      <trkpt lat="41.614548470" lon="2.533920070">
        <ele>146.90</ele>
        <time>2014-03-02T08:11:13Z</time>
      </trkpt>
      <trkpt lat="41.614560030" lon="2.533885030">
        <ele>147.10</ele>
        <time>2014-03-02T08:11:14Z</time>
      </trkpt>
      <trkpt lat="41.614571770" lon="2.533851670">
        <ele>147.30</ele>
        <time>2014-03-02T08:11:15Z</time>
      </trkpt>
      <trkpt lat="41.614581830" lon="2.533816800">
        <ele>147.50</ele>
        <time>2014-03-02T08:11:16Z</time>
      </trkpt>
      <trkpt lat="41.614591720" lon="2.533781770">
        <ele>147.80</ele>
        <time>2014-03-02T08:11:17Z</time>
      </trkpt>
      <trkpt lat="41.614600100" lon="2.533745050">
        <ele>148.00</ele>
        <time>2014-03-02T08:11:18Z</time>
      </trkpt>
      <trkpt lat="41.614608480" lon="2.533708340">
        <ele>148.00</ele>
        <time>2014-03-02T08:11:19Z</time>
      </trkpt>
      <trkpt lat="41.614618370" lon="2.533673470">
        <ele>148.00</ele>
        <time>2014-03-02T08:11:20Z</time>
      </trkpt>
      <trkpt lat="41.614628430" lon="2.533638440">
        <ele>148.00</ele>
        <time>2014-03-02T08:11:21Z</time>
      </trkpt>
      <trkpt lat="41.614638490" lon="2.533603400">
        <ele>148.00</ele>
        <time>2014-03-02T08:11:22Z</time>
      </trkpt>
      <trkpt lat="41.614646700" lon="2.533566690">
        <ele>148.10</ele>
        <time>2014-03-02T08:11:23Z</time>
      </trkpt>
      <trkpt lat="41.614656760" lon="2.533530140">
        <ele>148.10</ele>
        <time>2014-03-02T08:11:24Z</time>
      </trkpt>
      <trkpt lat="41.614666820" lon="2.533493430">
        <ele>148.10</ele>
        <time>2014-03-02T08:11:25Z</time>
      </trkpt>
      <trkpt lat="41.614676710" lon="2.533458390">
        <ele>148.10</ele>
        <time>2014-03-02T08:11:26Z</time>
      </trkpt>
      <trkpt lat="41.614685090" lon="2.533425030">
        <ele>148.40</ele>
        <time>2014-03-02T08:11:27Z</time>
      </trkpt>
      <trkpt lat="41.614695150" lon="2.533386810">
        <ele>148.70</ele>
        <time>2014-03-02T08:11:28Z</time>
      </trkpt>
      <trkpt lat="41.614708390" lon="2.533350100">
        <ele>148.90</ele>
        <time>2014-03-02T08:11:29Z</time>
      </trkpt>
      <trkpt lat="41.614720130" lon="2.533313380">
        <ele>149.20</ele>
        <time>2014-03-02T08:11:30Z</time>
      </trkpt>
      <trkpt lat="41.614730020" lon="2.533276670">
        <ele>149.30</ele>
        <time>2014-03-02T08:11:31Z</time>
      </trkpt>
      <trkpt lat="41.614740080" lon="2.533241800">
        <ele>149.40</ele>
        <time>2014-03-02T08:11:32Z</time>
      </trkpt>
      <trkpt lat="41.614748460" lon="2.533206770">
        <ele>149.50</ele>
        <time>2014-03-02T08:11:33Z</time>
      </trkpt>
      <trkpt lat="41.614756670" lon="2.533171730">
        <ele>149.80</ele>
        <time>2014-03-02T08:11:34Z</time>
      </trkpt>
      <trkpt lat="41.614765050" lon="2.533136690">
        <ele>150.10</ele>
        <time>2014-03-02T08:11:35Z</time>
      </trkpt>
      <trkpt lat="41.614775110" lon="2.533101830">
        <ele>149.60</ele>
        <time>2014-03-02T08:11:36Z</time>
      </trkpt>
      <trkpt lat="41.614781820" lon="2.533066790">
        <ele>149.30</ele>
        <time>2014-03-02T08:11:37Z</time>
      </trkpt>
      <trkpt lat="41.614790030" lon="2.533030080">
        <ele>149.50</ele>
        <time>2014-03-02T08:11:38Z</time>
      </trkpt>
      <trkpt lat="41.614800090" lon="2.532995040">
        <ele>149.70</ele>
        <time>2014-03-02T08:11:39Z</time>
      </trkpt>
      <trkpt lat="41.614810150" lon="2.532960000">
        <ele>149.80</ele>
        <time>2014-03-02T08:11:40Z</time>
      </trkpt>
      <trkpt lat="41.614820040" lon="2.532925140">
        <ele>150.10</ele>
        <time>2014-03-02T08:11:41Z</time>
      </trkpt>
      <trkpt lat="41.614828420" lon="2.532890100">
        <ele>150.40</ele>
        <time>2014-03-02T08:11:42Z</time>
      </trkpt>
      <trkpt lat="41.614838480" lon="2.532855060">
        <ele>150.50</ele>
        <time>2014-03-02T08:11:43Z</time>
      </trkpt>
      <trkpt lat="41.614848370" lon="2.532820030">
        <ele>150.70</ele>
        <time>2014-03-02T08:11:44Z</time>
      </trkpt>
      <trkpt lat="41.614858430" lon="2.532785160">
        <ele>150.80</ele>
        <time>2014-03-02T08:11:45Z</time>
      </trkpt>
      <trkpt lat="41.614871670" lon="2.532751800">
        <ele>150.70</ele>
        <time>2014-03-02T08:11:46Z</time>
      </trkpt>
      <trkpt lat="41.614883410" lon="2.532716760">
        <ele>150.70</ele>
        <time>2014-03-02T08:11:47Z</time>
      </trkpt>
      <trkpt lat="41.614893460" lon="2.532683400">
        <ele>151.00</ele>
        <time>2014-03-02T08:11:48Z</time>
      </trkpt>
      <trkpt lat="41.614905030" lon="2.532648360">
        <ele>151.20</ele>
        <time>2014-03-02T08:11:49Z</time>
      </trkpt>
      <trkpt lat="41.614916770" lon="2.532613500">
        <ele>151.40</ele>
        <time>2014-03-02T08:11:50Z</time>
      </trkpt>
      <trkpt lat="41.614926820" lon="2.532580140">
        <ele>151.70</ele>
        <time>2014-03-02T08:11:51Z</time>
      </trkpt>
      <trkpt lat="41.614938390" lon="2.532545100">
        <ele>151.80</ele>
        <time>2014-03-02T08:11:52Z</time>
      </trkpt>
      <trkpt lat="41.614948450" lon="2.532511740">
        <ele>151.80</ele>
        <time>2014-03-02T08:11:53Z</time>
      </trkpt>
      <trkpt lat="41.614958340" lon="2.532476700">
        <ele>151.80</ele>
        <time>2014-03-02T08:11:54Z</time>
      </trkpt>
      <trkpt lat="41.614968400" lon="2.532441670">
        <ele>152.00</ele>
        <time>2014-03-02T08:11:55Z</time>
      </trkpt>
      <trkpt lat="41.614978460" lon="2.532408470">
        <ele>152.10</ele>
        <time>2014-03-02T08:11:56Z</time>
      </trkpt>
      <trkpt lat="41.614986670" lon="2.532373440">
        <ele>151.60</ele>
        <time>2014-03-02T08:11:57Z</time>
      </trkpt>
      <trkpt lat="41.614996730" lon="2.532336730">
        <ele>151.30</ele>
        <time>2014-03-02T08:11:58Z</time>
      </trkpt>
      <trkpt lat="41.615006790" lon="2.532301690">
        <ele>151.10</ele>
        <time>2014-03-02T08:11:59Z</time>
      </trkpt>
      <trkpt lat="41.615016680" lon="2.532266820">
        <ele>151.50</ele>
        <time>2014-03-02T08:12:00Z</time>
      </trkpt>
      <trkpt lat="41.615025060" lon="2.532230110">
        <ele>151.70</ele>
        <time>2014-03-02T08:12:01Z</time>
      </trkpt>
      <trkpt lat="41.615033440" lon="2.532195070">
        <ele>152.30</ele>
        <time>2014-03-02T08:12:02Z</time>
      </trkpt>
      <trkpt lat="41.615040150" lon="2.532160030">
        <ele>152.70</ele>
        <time>2014-03-02T08:12:03Z</time>
      </trkpt>
      <trkpt lat="41.615048360" lon="2.532123490">
        <ele>152.70</ele>
        <time>2014-03-02T08:12:04Z</time>
      </trkpt>
      <trkpt lat="41.615055070" lon="2.532090130">
        <ele>152.70</ele>
        <time>2014-03-02T08:12:05Z</time>
      </trkpt>
      <trkpt lat="41.615061770" lon="2.532053420">
        <ele>152.70</ele>
        <time>2014-03-02T08:12:06Z</time>
      </trkpt>
      <trkpt lat="41.615068480" lon="2.532016700">
        <ele>153.10</ele>
        <time>2014-03-02T08:12:07Z</time>
      </trkpt>
      <trkpt lat="41.615073340" lon="2.531978480">
        <ele>153.40</ele>
        <time>2014-03-02T08:12:08Z</time>
      </trkpt>
      <trkpt lat="41.615076690" lon="2.531940090">
        <ele>153.50</ele>
        <time>2014-03-02T08:12:09Z</time>
      </trkpt>
      <trkpt lat="41.615081720" lon="2.531903380">
        <ele>153.50</ele>
        <time>2014-03-02T08:12:10Z</time>
      </trkpt>
      <trkpt lat="41.615085080" lon="2.531865160">
        <ele>153.50</ele>
        <time>2014-03-02T08:12:11Z</time>
      </trkpt>
      <trkpt lat="41.615090100" lon="2.531828450">
        <ele>153.40</ele>
        <time>2014-03-02T08:12:12Z</time>
      </trkpt>
      <trkpt lat="41.615093460" lon="2.531790060">
        <ele>153.40</ele>
        <time>2014-03-02T08:12:13Z</time>
      </trkpt>
      <trkpt lat="41.615095130" lon="2.531751670">
        <ele>153.40</ele>
        <time>2014-03-02T08:12:14Z</time>
      </trkpt>
      <trkpt lat="41.615096810" lon="2.531713450">
        <ele>153.30</ele>
        <time>2014-03-02T08:12:15Z</time>
      </trkpt>
      <trkpt lat="41.615098490" lon="2.531675060">
        <ele>153.80</ele>
        <time>2014-03-02T08:12:16Z</time>
      </trkpt>
      <trkpt lat="41.615100000" lon="2.531635160">
        <ele>154.10</ele>
        <time>2014-03-02T08:12:17Z</time>
      </trkpt>
      <trkpt lat="41.615103350" lon="2.531596770">
        <ele>154.40</ele>
        <time>2014-03-02T08:12:18Z</time>
      </trkpt>
      <trkpt lat="41.615106700" lon="2.531558380">
        <ele>154.50</ele>
        <time>2014-03-02T08:12:19Z</time>
      </trkpt>
      <trkpt lat="41.615110050" lon="2.531520160">
        <ele>154.60</ele>
        <time>2014-03-02T08:12:20Z</time>
      </trkpt>
      <trkpt lat="41.615111730" lon="2.531481770">
        <ele>154.90</ele>
        <time>2014-03-02T08:12:21Z</time>
      </trkpt>
      <trkpt lat="41.615115080" lon="2.531443380">
        <ele>155.00</ele>
        <time>2014-03-02T08:12:22Z</time>
      </trkpt>
      <trkpt lat="41.615116760" lon="2.531406670">
        <ele>155.30</ele>
        <time>2014-03-02T08:12:23Z</time>
      </trkpt>
      <trkpt lat="41.615118440" lon="2.531370120">
        <ele>155.50</ele>
        <time>2014-03-02T08:12:24Z</time>
      </trkpt>
      <trkpt lat="41.615118440" lon="2.531333410">
        <ele>155.70</ele>
        <time>2014-03-02T08:12:25Z</time>
      </trkpt>
      <trkpt lat="41.615118440" lon="2.531296700">
        <ele>155.80</ele>
        <time>2014-03-02T08:12:26Z</time>
      </trkpt>
      <trkpt lat="41.615120110" lon="2.531256800">
        <ele>155.90</ele>
        <time>2014-03-02T08:12:27Z</time>
      </trkpt>
      <trkpt lat="41.615123460" lon="2.531216740">
        <ele>155.40</ele>
        <time>2014-03-02T08:12:28Z</time>
      </trkpt>
      <trkpt lat="41.615128490" lon="2.531176670">
        <ele>155.00</ele>
        <time>2014-03-02T08:12:29Z</time>
      </trkpt>
      <trkpt lat="41.615131680" lon="2.531138450">
        <ele>154.70</ele>
        <time>2014-03-02T08:12:30Z</time>
      </trkpt>
      <trkpt lat="41.615136710" lon="2.531098380">
        <ele>154.60</ele>
        <time>2014-03-02T08:12:31Z</time>
      </trkpt>
      <trkpt lat="41.615141740" lon="2.531060160">
        <ele>154.60</ele>
        <time>2014-03-02T08:12:32Z</time>
      </trkpt>
      <trkpt lat="41.615146770" lon="2.531021770">
        <ele>154.90</ele>
        <time>2014-03-02T08:12:33Z</time>
      </trkpt>
      <trkpt lat="41.615150120" lon="2.530983380">
        <ele>155.10</ele>
        <time>2014-03-02T08:12:34Z</time>
      </trkpt>
      <trkpt lat="41.615153470" lon="2.530945160">
        <ele>154.60</ele>
        <time>2014-03-02T08:12:35Z</time>
      </trkpt>
      <trkpt lat="41.615156820" lon="2.530906770">
        <ele>154.30</ele>
        <time>2014-03-02T08:12:36Z</time>
      </trkpt>
      <trkpt lat="41.615160010" lon="2.530868380">
        <ele>154.00</ele>
        <time>2014-03-02T08:12:37Z</time>
      </trkpt>
      <trkpt lat="41.615163360" lon="2.530831670">
        <ele>154.90</ele>
        <time>2014-03-02T08:12:38Z</time>
      </trkpt>
      <trkpt lat="41.615166720" lon="2.530795130">
        <ele>155.60</ele>
        <time>2014-03-02T08:12:39Z</time>
      </trkpt>
      <trkpt lat="41.615168390" lon="2.530760090">
        <ele>155.80</ele>
        <time>2014-03-02T08:12:40Z</time>
      </trkpt>
      <trkpt lat="41.615170070" lon="2.530725050">
        <ele>156.00</ele>
        <time>2014-03-02T08:12:41Z</time>
      </trkpt>
      <trkpt lat="41.615173420" lon="2.530688340">
        <ele>155.80</ele>
        <time>2014-03-02T08:12:42Z</time>
      </trkpt>
      <trkpt lat="41.615173420" lon="2.530653470">
        <ele>155.70</ele>
        <time>2014-03-02T08:12:43Z</time>
      </trkpt>
      <trkpt lat="41.615175100" lon="2.530618440">
        <ele>155.60</ele>
        <time>2014-03-02T08:12:44Z</time>
      </trkpt>
      <trkpt lat="41.615176770" lon="2.530583400">
        <ele>156.00</ele>
        <time>2014-03-02T08:12:45Z</time>
      </trkpt>
      <trkpt lat="41.615178450" lon="2.530550040">
        <ele>156.30</ele>
        <time>2014-03-02T08:12:46Z</time>
      </trkpt>
      <trkpt lat="41.615180130" lon="2.530513490">
        <ele>156.40</ele>
        <time>2014-03-02T08:12:47Z</time>
      </trkpt>
      <trkpt lat="41.615181800" lon="2.530478460">
        <ele>156.50</ele>
        <time>2014-03-02T08:12:48Z</time>
      </trkpt>
      <trkpt lat="41.615183480" lon="2.530443420">
        <ele>156.60</ele>
        <time>2014-03-02T08:12:49Z</time>
      </trkpt>
      <trkpt lat="41.615183480" lon="2.530408380">
        <ele>156.80</ele>
        <time>2014-03-02T08:12:50Z</time>
      </trkpt>
      <trkpt lat="41.615185160" lon="2.530373350">
        <ele>157.00</ele>
        <time>2014-03-02T08:12:51Z</time>
      </trkpt>
      <trkpt lat="41.615185160" lon="2.530338480">
        <ele>156.70</ele>
        <time>2014-03-02T08:12:52Z</time>
      </trkpt>
      <trkpt lat="41.615186660" lon="2.530301770">
        <ele>156.40</ele>
        <time>2014-03-02T08:12:53Z</time>
      </trkpt>
      <trkpt lat="41.615186660" lon="2.530266730">
        <ele>156.70</ele>
        <time>2014-03-02T08:12:54Z</time>
      </trkpt>
      <trkpt lat="41.615183480" lon="2.530235050">
        <ele>156.90</ele>
        <time>2014-03-02T08:12:55Z</time>
      </trkpt>
      <trkpt lat="41.615181800" lon="2.530203360">
        <ele>157.10</ele>
        <time>2014-03-02T08:12:56Z</time>
      </trkpt>
      <trkpt lat="41.615180130" lon="2.530171680">
        <ele>157.50</ele>
        <time>2014-03-02T08:12:57Z</time>
      </trkpt>
      <trkpt lat="41.615178450" lon="2.530136810">
        <ele>157.80</ele>
        <time>2014-03-02T08:12:58Z</time>
      </trkpt>
      <trkpt lat="41.615181800" lon="2.530100100">
        <ele>158.10</ele>
        <time>2014-03-02T08:12:59Z</time>
      </trkpt>
      <trkpt lat="41.615185160" lon="2.530065060">
        <ele>158.30</ele>
        <time>2014-03-02T08:13:00Z</time>
      </trkpt>
      <trkpt lat="41.615185160" lon="2.530028350">
        <ele>158.40</ele>
        <time>2014-03-02T08:13:01Z</time>
      </trkpt>
      <trkpt lat="41.615183480" lon="2.529991800">
        <ele>158.40</ele>
        <time>2014-03-02T08:13:02Z</time>
      </trkpt>
      <trkpt lat="41.615181800" lon="2.529956770">
        <ele>158.40</ele>
        <time>2014-03-02T08:13:03Z</time>
      </trkpt>
      <trkpt lat="41.615183480" lon="2.529920060">
        <ele>158.70</ele>
        <time>2014-03-02T08:13:04Z</time>
      </trkpt>
      <trkpt lat="41.615183480" lon="2.529883340">
        <ele>159.00</ele>
        <time>2014-03-02T08:13:05Z</time>
      </trkpt>
      <trkpt lat="41.615185160" lon="2.529845120">
        <ele>158.80</ele>
        <time>2014-03-02T08:13:06Z</time>
      </trkpt>
      <trkpt lat="41.615186660" lon="2.529806730">
        <ele>158.70</ele>
        <time>2014-03-02T08:13:07Z</time>
      </trkpt>
      <trkpt lat="41.615188340" lon="2.529770020">
        <ele>158.60</ele>
        <time>2014-03-02T08:13:08Z</time>
      </trkpt>
      <trkpt lat="41.615186660" lon="2.529731800">
        <ele>158.90</ele>
        <time>2014-03-02T08:13:09Z</time>
      </trkpt>
      <trkpt lat="41.615188340" lon="2.529695080">
        <ele>159.20</ele>
        <time>2014-03-02T08:13:10Z</time>
      </trkpt>
      <trkpt lat="41.615190020" lon="2.529660050">
        <ele>159.30</ele>
        <time>2014-03-02T08:13:11Z</time>
      </trkpt>
      <trkpt lat="41.615191690" lon="2.529623340">
        <ele>159.40</ele>
        <time>2014-03-02T08:13:12Z</time>
      </trkpt>
      <trkpt lat="41.615193370" lon="2.529588470">
        <ele>159.40</ele>
        <time>2014-03-02T08:13:13Z</time>
      </trkpt>
      <trkpt lat="41.615195050" lon="2.529553430">
        <ele>159.40</ele>
        <time>2014-03-02T08:13:14Z</time>
      </trkpt>
      <trkpt lat="41.615198400" lon="2.529515040">
        <ele>159.40</ele>
        <time>2014-03-02T08:13:15Z</time>
      </trkpt>
      <trkpt lat="41.615200070" lon="2.529478330">
        <ele>159.80</ele>
        <time>2014-03-02T08:13:16Z</time>
      </trkpt>
      <trkpt lat="41.615201750" lon="2.529440110">
        <ele>160.10</ele>
        <time>2014-03-02T08:13:17Z</time>
      </trkpt>
      <trkpt lat="41.615201750" lon="2.529403390">
        <ele>160.40</ele>
        <time>2014-03-02T08:13:18Z</time>
      </trkpt>
      <trkpt lat="41.615201750" lon="2.529366680">
        <ele>160.60</ele>
        <time>2014-03-02T08:13:19Z</time>
      </trkpt>
      <trkpt lat="41.615203430" lon="2.529328460">
        <ele>160.30</ele>
        <time>2014-03-02T08:13:20Z</time>
      </trkpt>
      <trkpt lat="41.615203430" lon="2.529290070">
        <ele>160.00</ele>
        <time>2014-03-02T08:13:21Z</time>
      </trkpt>
      <trkpt lat="41.615205100" lon="2.529253360">
        <ele>159.90</ele>
        <time>2014-03-02T08:13:22Z</time>
      </trkpt>
      <trkpt lat="41.615205100" lon="2.529218490">
        <ele>160.20</ele>
        <time>2014-03-02T08:13:23Z</time>
      </trkpt>
      <trkpt lat="41.615205100" lon="2.529185130">
        <ele>160.40</ele>
        <time>2014-03-02T08:13:24Z</time>
      </trkpt>
      <trkpt lat="41.615206780" lon="2.529153450">
        <ele>161.00</ele>
        <time>2014-03-02T08:13:25Z</time>
      </trkpt>
      <trkpt lat="41.615210130" lon="2.529116730">
        <ele>161.50</ele>
        <time>2014-03-02T08:13:26Z</time>
      </trkpt>
      <trkpt lat="41.615211810" lon="2.529078340">
        <ele>161.80</ele>
        <time>2014-03-02T08:13:27Z</time>
      </trkpt>
      <trkpt lat="41.615216670" lon="2.529040120">
        <ele>162.00</ele>
        <time>2014-03-02T08:13:28Z</time>
      </trkpt>
      <trkpt lat="41.615220020" lon="2.529001730">
        <ele>162.10</ele>
        <time>2014-03-02T08:13:29Z</time>
      </trkpt>
      <trkpt lat="41.615225050" lon="2.528963340">
        <ele>162.10</ele>
        <time>2014-03-02T08:13:30Z</time>
      </trkpt>
      <trkpt lat="41.615230080" lon="2.528925120">
        <ele>162.10</ele>
        <time>2014-03-02T08:13:31Z</time>
      </trkpt>
      <trkpt lat="41.615235110" lon="2.528886730">
        <ele>162.20</ele>
        <time>2014-03-02T08:13:32Z</time>
      </trkpt>
      <trkpt lat="41.615241820" lon="2.528848350">
        <ele>162.40</ele>
        <time>2014-03-02T08:13:33Z</time>
      </trkpt>
      <trkpt lat="41.615250030" lon="2.528810120">
        <ele>162.50</ele>
        <time>2014-03-02T08:13:34Z</time>
      </trkpt>
      <trkpt lat="41.615256740" lon="2.528773410">
        <ele>162.50</ele>
        <time>2014-03-02T08:13:35Z</time>
      </trkpt>
      <trkpt lat="41.615266790" lon="2.528736700">
        <ele>162.50</ele>
        <time>2014-03-02T08:13:36Z</time>
      </trkpt>
      <trkpt lat="41.615275010" lon="2.528698480">
        <ele>162.50</ele>
        <time>2014-03-02T08:13:37Z</time>
      </trkpt>
      <trkpt lat="41.615283390" lon="2.528660090">
        <ele>162.50</ele>
        <time>2014-03-02T08:13:38Z</time>
      </trkpt>
      <trkpt lat="41.615290100" lon="2.528623370">
        <ele>162.60</ele>
        <time>2014-03-02T08:13:39Z</time>
      </trkpt>
      <trkpt lat="41.615298480" lon="2.528585150">
        <ele>162.70</ele>
        <time>2014-03-02T08:13:40Z</time>
      </trkpt>
      <trkpt lat="41.615306690" lon="2.528548440">
        <ele>162.80</ele>
        <time>2014-03-02T08:13:41Z</time>
      </trkpt>
      <trkpt lat="41.615315070" lon="2.528511730">
        <ele>162.80</ele>
        <time>2014-03-02T08:13:42Z</time>
      </trkpt>
      <trkpt lat="41.615321780" lon="2.528475020">
        <ele>162.90</ele>
        <time>2014-03-02T08:13:43Z</time>
      </trkpt>
      <trkpt lat="41.615330160" lon="2.528440150">
        <ele>162.90</ele>
        <time>2014-03-02T08:13:44Z</time>
      </trkpt>
      <trkpt lat="41.615336700" lon="2.528401760">
        <ele>162.90</ele>
        <time>2014-03-02T08:13:45Z</time>
      </trkpt>
      <trkpt lat="41.615345080" lon="2.528365040">
        <ele>162.90</ele>
        <time>2014-03-02T08:13:46Z</time>
      </trkpt>
      <trkpt lat="41.615353460" lon="2.528330010">
        <ele>163.10</ele>
        <time>2014-03-02T08:13:47Z</time>
      </trkpt>
      <trkpt lat="41.615360000" lon="2.528293460">
        <ele>163.20</ele>
        <time>2014-03-02T08:13:48Z</time>
      </trkpt>
      <trkpt lat="41.615368380" lon="2.528256750">
        <ele>163.20</ele>
        <time>2014-03-02T08:13:49Z</time>
      </trkpt>
      <trkpt lat="41.615373410" lon="2.528220040">
        <ele>163.30</ele>
        <time>2014-03-02T08:13:50Z</time>
      </trkpt>
      <trkpt lat="41.615380120" lon="2.528185000">
        <ele>163.50</ele>
        <time>2014-03-02T08:13:51Z</time>
      </trkpt>
      <trkpt lat="41.615388330" lon="2.528150130">
        <ele>163.70</ele>
        <time>2014-03-02T08:13:52Z</time>
      </trkpt>
      <trkpt lat="41.615398390" lon="2.528115100">
        <ele>163.80</ele>
        <time>2014-03-02T08:13:53Z</time>
      </trkpt>
      <trkpt lat="41.615405100" lon="2.528080060">
        <ele>163.90</ele>
        <time>2014-03-02T08:13:54Z</time>
      </trkpt>
      <trkpt lat="41.615411800" lon="2.528043350">
        <ele>163.90</ele>
        <time>2014-03-02T08:13:55Z</time>
      </trkpt>
      <trkpt lat="41.615421690" lon="2.528008480">
        <ele>164.10</ele>
        <time>2014-03-02T08:13:56Z</time>
      </trkpt>
      <trkpt lat="41.615428400" lon="2.527971770">
        <ele>164.20</ele>
        <time>2014-03-02T08:13:57Z</time>
      </trkpt>
      <trkpt lat="41.615436780" lon="2.527935050">
        <ele>164.50</ele>
        <time>2014-03-02T08:13:58Z</time>
      </trkpt>
      <trkpt lat="41.615445160" lon="2.527900020">
        <ele>164.80</ele>
        <time>2014-03-02T08:13:59Z</time>
      </trkpt>
      <trkpt lat="41.615453380" lon="2.527863470">
        <ele>165.00</ele>
        <time>2014-03-02T08:14:00Z</time>
      </trkpt>
      <trkpt lat="41.615461760" lon="2.527826760">
        <ele>165.10</ele>
        <time>2014-03-02T08:14:01Z</time>
      </trkpt>
      <trkpt lat="41.615468460" lon="2.527793400">
        <ele>165.20</ele>
        <time>2014-03-02T08:14:02Z</time>
      </trkpt>
      <trkpt lat="41.615475000" lon="2.527758360">
        <ele>165.60</ele>
        <time>2014-03-02T08:14:03Z</time>
      </trkpt>
      <trkpt lat="41.615481710" lon="2.527725000">
        <ele>166.00</ele>
        <time>2014-03-02T08:14:04Z</time>
      </trkpt>
      <trkpt lat="41.615488410" lon="2.527691810">
        <ele>166.30</ele>
        <time>2014-03-02T08:14:05Z</time>
      </trkpt>
      <trkpt lat="41.615493440" lon="2.527658450">
        <ele>165.70</ele>
        <time>2014-03-02T08:14:06Z</time>
      </trkpt>
      <trkpt lat="41.615500150" lon="2.527625090">
        <ele>165.30</ele>
        <time>2014-03-02T08:14:07Z</time>
      </trkpt>
      <trkpt lat="41.615505010" lon="2.527591730">
        <ele>165.60</ele>
        <time>2014-03-02T08:14:08Z</time>
      </trkpt>
      <trkpt lat="41.615513390" lon="2.527556690">
        <ele>165.90</ele>
        <time>2014-03-02T08:14:09Z</time>
      </trkpt>
      <trkpt lat="41.615521770" lon="2.527525010">
        <ele>166.00</ele>
        <time>2014-03-02T08:14:10Z</time>
      </trkpt>
      <trkpt lat="41.615528480" lon="2.527490140">
        <ele>166.10</ele>
        <time>2014-03-02T08:14:11Z</time>
      </trkpt>
      <trkpt lat="41.615535020" lon="2.527456780">
        <ele>166.20</ele>
        <time>2014-03-02T08:14:12Z</time>
      </trkpt>
      <trkpt lat="41.615543400" lon="2.527423420">
        <ele>166.40</ele>
        <time>2014-03-02T08:14:13Z</time>
      </trkpt>
      <trkpt lat="41.615551780" lon="2.527388390">
        <ele>166.50</ele>
        <time>2014-03-02T08:14:14Z</time>
      </trkpt>
      <trkpt lat="41.615558490" lon="2.527355030">
        <ele>166.50</ele>
        <time>2014-03-02T08:14:15Z</time>
      </trkpt>
      <trkpt lat="41.615566700" lon="2.527320160">
        <ele>166.50</ele>
        <time>2014-03-02T08:14:16Z</time>
      </trkpt>
      <trkpt lat="41.615573400" lon="2.527285120">
        <ele>166.60</ele>
        <time>2014-03-02T08:14:17Z</time>
      </trkpt>
      <trkpt lat="41.615580110" lon="2.527250080">
        <ele>166.80</ele>
        <time>2014-03-02T08:14:18Z</time>
      </trkpt>
      <trkpt lat="41.615586820" lon="2.527216720">
        <ele>166.90</ele>
        <time>2014-03-02T08:14:19Z</time>
      </trkpt>
      <trkpt lat="41.615590000" lon="2.527183360">
        <ele>166.90</ele>
        <time>2014-03-02T08:14:20Z</time>
      </trkpt>
      <trkpt lat="41.615593350" lon="2.527148500">
        <ele>167.00</ele>
        <time>2014-03-02T08:14:21Z</time>
      </trkpt>
      <trkpt lat="41.615598380" lon="2.527115140">
        <ele>167.50</ele>
        <time>2014-03-02T08:14:22Z</time>
      </trkpt>
      <trkpt lat="41.615601740" lon="2.527080100">
        <ele>167.90</ele>
        <time>2014-03-02T08:14:23Z</time>
      </trkpt>
      <trkpt lat="41.615601740" lon="2.527045060">
        <ele>168.10</ele>
        <time>2014-03-02T08:14:24Z</time>
      </trkpt>
      <trkpt lat="41.615603410" lon="2.527008350">
        <ele>168.00</ele>
        <time>2014-03-02T08:14:25Z</time>
      </trkpt>
      <trkpt lat="41.615605090" lon="2.526973480">
        <ele>168.00</ele>
        <time>2014-03-02T08:14:26Z</time>
      </trkpt>
      <trkpt lat="41.615605090" lon="2.526938440">
        <ele>168.10</ele>
        <time>2014-03-02T08:14:27Z</time>
      </trkpt>
      <trkpt lat="41.615606760" lon="2.526903410">
        <ele>168.30</ele>
        <time>2014-03-02T08:14:28Z</time>
      </trkpt>
      <trkpt lat="41.615606760" lon="2.526870050">
        <ele>168.40</ele>
        <time>2014-03-02T08:14:29Z</time>
      </trkpt>
      <trkpt lat="41.615605090" lon="2.526838360">
        <ele>168.60</ele>
        <time>2014-03-02T08:14:30Z</time>
      </trkpt>
      <trkpt lat="41.615601740" lon="2.526806680">
        <ele>168.60</ele>
        <time>2014-03-02T08:14:31Z</time>
      </trkpt>
      <trkpt lat="41.615600060" lon="2.526773490">
        <ele>168.40</ele>
        <time>2014-03-02T08:14:32Z</time>
      </trkpt>
      <trkpt lat="41.615601740" lon="2.526743480">
        <ele>168.10</ele>
        <time>2014-03-02T08:14:33Z</time>
      </trkpt>
      <trkpt lat="41.615600060" lon="2.526711800">
        <ele>168.40</ele>
        <time>2014-03-02T08:14:34Z</time>
      </trkpt>
      <trkpt lat="41.615596710" lon="2.526681790">
        <ele>168.70</ele>
        <time>2014-03-02T08:14:35Z</time>
      </trkpt>
      <trkpt lat="41.615593350" lon="2.526650110">
        <ele>169.00</ele>
        <time>2014-03-02T08:14:36Z</time>
      </trkpt>
      <trkpt lat="41.615585140" lon="2.526615070">
        <ele>169.30</ele>
        <time>2014-03-02T08:14:37Z</time>
      </trkpt>
      <trkpt lat="41.615580110" lon="2.526575010">
        <ele>169.50</ele>
        <time>2014-03-02T08:14:38Z</time>
      </trkpt>
      <trkpt lat="41.615578430" lon="2.526536780">
        <ele>169.60</ele>
        <time>2014-03-02T08:14:39Z</time>
      </trkpt>
      <trkpt lat="41.615578430" lon="2.526500070">
        <ele>169.60</ele>
        <time>2014-03-02T08:14:40Z</time>
      </trkpt>
      <trkpt lat="41.615573400" lon="2.526463360">
        <ele>170.10</ele>
        <time>2014-03-02T08:14:41Z</time>
      </trkpt>
      <trkpt lat="41.615568380" lon="2.526425140">
        <ele>170.40</ele>
        <time>2014-03-02T08:14:42Z</time>
      </trkpt>
      <trkpt lat="41.615561670" lon="2.526390100">
        <ele>170.50</ele>
        <time>2014-03-02T08:14:43Z</time>
      </trkpt>
      <trkpt lat="41.615555130" lon="2.526355060">
        <ele>170.60</ele>
        <time>2014-03-02T08:14:44Z</time>
      </trkpt>
      <trkpt lat="41.615551780" lon="2.526316680">
        <ele>170.60</ele>
        <time>2014-03-02T08:14:45Z</time>
      </trkpt>
      <trkpt lat="41.615548430" lon="2.526278450">
        <ele>170.70</ele>
        <time>2014-03-02T08:14:46Z</time>
      </trkpt>
      <trkpt lat="41.615546750" lon="2.526240060">
        <ele>170.70</ele>
        <time>2014-03-02T08:14:47Z</time>
      </trkpt>
      <trkpt lat="41.615545070" lon="2.526201680">
        <ele>171.20</ele>
        <time>2014-03-02T08:14:48Z</time>
      </trkpt>
      <trkpt lat="41.615545070" lon="2.526165130">
        <ele>171.60</ele>
        <time>2014-03-02T08:14:49Z</time>
      </trkpt>
      <trkpt lat="41.615543400" lon="2.526128420">
        <ele>171.90</ele>
        <time>2014-03-02T08:14:50Z</time>
      </trkpt>
      <trkpt lat="41.615541720" lon="2.526093380">
        <ele>171.90</ele>
        <time>2014-03-02T08:14:51Z</time>
      </trkpt>
      <trkpt lat="41.615540040" lon="2.526056670">
        <ele>171.80</ele>
        <time>2014-03-02T08:14:52Z</time>
      </trkpt>
      <trkpt lat="41.615538370" lon="2.526021800">
        <ele>172.10</ele>
        <time>2014-03-02T08:14:53Z</time>
      </trkpt>
      <trkpt lat="41.615538370" lon="2.525986760">
        <ele>172.20</ele>
        <time>2014-03-02T08:14:54Z</time>
      </trkpt>
      <trkpt lat="41.615538370" lon="2.525953400">
        <ele>172.40</ele>
        <time>2014-03-02T08:14:55Z</time>
      </trkpt>
      <trkpt lat="41.615538370" lon="2.525918370">
        <ele>172.50</ele>
        <time>2014-03-02T08:14:56Z</time>
      </trkpt>
      <trkpt lat="41.615536690" lon="2.525881820">
        <ele>172.60</ele>
        <time>2014-03-02T08:14:57Z</time>
      </trkpt>
      <trkpt lat="41.615536690" lon="2.525845110">
        <ele>172.70</ele>
        <time>2014-03-02T08:14:58Z</time>
      </trkpt>
      <trkpt lat="41.615536690" lon="2.525810070">
        <ele>172.90</ele>
        <time>2014-03-02T08:14:59Z</time>
      </trkpt>
      <trkpt lat="41.615536690" lon="2.525773360">
        <ele>172.90</ele>
        <time>2014-03-02T08:15:00Z</time>
      </trkpt>
      <trkpt lat="41.615535020" lon="2.525735140">
        <ele>172.90</ele>
        <time>2014-03-02T08:15:01Z</time>
      </trkpt>
      <trkpt lat="41.615535020" lon="2.525698430">
        <ele>173.00</ele>
        <time>2014-03-02T08:15:02Z</time>
      </trkpt>
      <trkpt lat="41.615535020" lon="2.525660040">
        <ele>173.00</ele>
        <time>2014-03-02T08:15:03Z</time>
      </trkpt>
      <trkpt lat="41.615535020" lon="2.525623490">
        <ele>173.10</ele>
        <time>2014-03-02T08:15:04Z</time>
      </trkpt>
      <trkpt lat="41.615531660" lon="2.525586780">
        <ele>173.60</ele>
        <time>2014-03-02T08:15:05Z</time>
      </trkpt>
      <trkpt lat="41.615528480" lon="2.525548390">
        <ele>174.00</ele>
        <time>2014-03-02T08:15:06Z</time>
      </trkpt>
      <trkpt lat="41.615526800" lon="2.525511680">
        <ele>173.80</ele>
        <time>2014-03-02T08:15:07Z</time>
      </trkpt>
      <trkpt lat="41.615523450" lon="2.525473460">
        <ele>173.70</ele>
        <time>2014-03-02T08:15:08Z</time>
      </trkpt>
      <trkpt lat="41.615520100" lon="2.525438420">
        <ele>173.60</ele>
        <time>2014-03-02T08:15:09Z</time>
      </trkpt>
      <trkpt lat="41.615516740" lon="2.525401710">
        <ele>173.50</ele>
        <time>2014-03-02T08:15:10Z</time>
      </trkpt>
      <trkpt lat="41.615516740" lon="2.525365160">
        <ele>173.40</ele>
        <time>2014-03-02T08:15:11Z</time>
      </trkpt>
      <trkpt lat="41.615518420" lon="2.525326770">
        <ele>173.60</ele>
        <time>2014-03-02T08:15:12Z</time>
      </trkpt>
      <trkpt lat="41.615520100" lon="2.525288380">
        <ele>173.70</ele>
        <time>2014-03-02T08:15:13Z</time>
      </trkpt>
      <trkpt lat="41.615523450" lon="2.525251670">
        <ele>174.00</ele>
        <time>2014-03-02T08:15:14Z</time>
      </trkpt>
      <trkpt lat="41.615523450" lon="2.525215130">
        <ele>174.20</ele>
        <time>2014-03-02T08:15:15Z</time>
      </trkpt>
      <trkpt lat="41.615525130" lon="2.525180090">
        <ele>174.30</ele>
        <time>2014-03-02T08:15:16Z</time>
      </trkpt>
      <trkpt lat="41.615518420" lon="2.525145050">
        <ele>174.30</ele>
        <time>2014-03-02T08:15:17Z</time>
      </trkpt>
      <trkpt lat="41.615518420" lon="2.525110020">
        <ele>174.30</ele>
        <time>2014-03-02T08:15:18Z</time>
      </trkpt>
      <trkpt lat="41.615520100" lon="2.525075150">
        <ele>174.30</ele>
        <time>2014-03-02T08:15:19Z</time>
      </trkpt>
      <trkpt lat="41.615525130" lon="2.525040110">
        <ele>174.30</ele>
        <time>2014-03-02T08:15:20Z</time>
      </trkpt>
      <trkpt lat="41.615530150" lon="2.525003400">
        <ele>174.50</ele>
        <time>2014-03-02T08:15:21Z</time>
      </trkpt>
      <trkpt lat="41.615535020" lon="2.524973390">
        <ele>174.70</ele>
        <time>2014-03-02T08:15:22Z</time>
      </trkpt>
      <trkpt lat="41.615540040" lon="2.524943380">
        <ele>174.80</ele>
        <time>2014-03-02T08:15:23Z</time>
      </trkpt>
      <trkpt lat="41.615543400" lon="2.524911700">
        <ele>175.20</ele>
        <time>2014-03-02T08:15:24Z</time>
      </trkpt>
      <trkpt lat="41.615548430" lon="2.524880020">
        <ele>175.50</ele>
        <time>2014-03-02T08:15:25Z</time>
      </trkpt>
      <trkpt lat="41.615551780" lon="2.524851690">
        <ele>175.80</ele>
        <time>2014-03-02T08:15:26Z</time>
      </trkpt>
      <trkpt lat="41.615553460" lon="2.524823360">
        <ele>176.10</ele>
        <time>2014-03-02T08:15:27Z</time>
      </trkpt>
      <trkpt lat="41.615553460" lon="2.524793350">
        <ele>176.20</ele>
        <time>2014-03-02T08:15:28Z</time>
      </trkpt>
      <trkpt lat="41.615555130" lon="2.524761660">
        <ele>176.60</ele>
        <time>2014-03-02T08:15:29Z</time>
      </trkpt>
      <trkpt lat="41.615558490" lon="2.524730150">
        <ele>176.80</ele>
        <time>2014-03-02T08:15:30Z</time>
      </trkpt>
      <trkpt lat="41.615561670" lon="2.524698460">
        <ele>176.50</ele>
        <time>2014-03-02T08:15:31Z</time>
      </trkpt>
      <trkpt lat="41.615563350" lon="2.524666780">
        <ele>176.30</ele>
        <time>2014-03-02T08:15:32Z</time>
      </trkpt>
      <trkpt lat="41.615565020" lon="2.524635100">
        <ele>176.30</ele>
        <time>2014-03-02T08:15:33Z</time>
      </trkpt>
      <trkpt lat="41.615570050" lon="2.524601740">
        <ele>176.30</ele>
        <time>2014-03-02T08:15:34Z</time>
      </trkpt>
      <trkpt lat="41.615571730" lon="2.524565020">
        <ele>176.30</ele>
        <time>2014-03-02T08:15:35Z</time>
      </trkpt>
      <trkpt lat="41.615573400" lon="2.524530160">
        <ele>176.60</ele>
        <time>2014-03-02T08:15:36Z</time>
      </trkpt>
      <trkpt lat="41.615576760" lon="2.524493440">
        <ele>176.70</ele>
        <time>2014-03-02T08:15:37Z</time>
      </trkpt>
      <trkpt lat="41.615580110" lon="2.524458410">
        <ele>177.00</ele>
        <time>2014-03-02T08:15:38Z</time>
      </trkpt>
      <trkpt lat="41.615583460" lon="2.524423370">
        <ele>177.20</ele>
        <time>2014-03-02T08:15:39Z</time>
      </trkpt>
      <trkpt lat="41.615586820" lon="2.524391690">
        <ele>177.00</ele>
        <time>2014-03-02T08:15:40Z</time>
      </trkpt>
      <trkpt lat="41.615588490" lon="2.524356820">
        <ele>176.80</ele>
        <time>2014-03-02T08:15:41Z</time>
      </trkpt>
      <trkpt lat="41.615590000" lon="2.524323460">
        <ele>176.70</ele>
        <time>2014-03-02T08:15:42Z</time>
      </trkpt>
      <trkpt lat="41.615593350" lon="2.524286750">
        <ele>177.30</ele>
        <time>2014-03-02T08:15:43Z</time>
      </trkpt>
      <trkpt lat="41.615596710" lon="2.524250030">
        <ele>177.80</ele>
        <time>2014-03-02T08:15:44Z</time>
      </trkpt>
      <trkpt lat="41.615600060" lon="2.524216670">
        <ele>178.10</ele>
        <time>2014-03-02T08:15:45Z</time>
      </trkpt>
      <trkpt lat="41.615605090" lon="2.524183480">
        <ele>178.40</ele>
        <time>2014-03-02T08:15:46Z</time>
      </trkpt>
      <trkpt lat="41.615610120" lon="2.524148440">
        <ele>178.60</ele>
        <time>2014-03-02T08:15:47Z</time>
      </trkpt>
      <trkpt lat="41.615615150" lon="2.524113410">
        <ele>178.50</ele>
        <time>2014-03-02T08:15:48Z</time>
      </trkpt>
      <trkpt lat="41.615616820" lon="2.524078370">
        <ele>178.40</ele>
        <time>2014-03-02T08:15:49Z</time>
      </trkpt>
      <trkpt lat="41.615615150" lon="2.524043340">
        <ele>178.20</ele>
        <time>2014-03-02T08:15:50Z</time>
      </trkpt>
      <trkpt lat="41.615620010" lon="2.524015000">
        <ele>178.10</ele>
        <time>2014-03-02T08:15:51Z</time>
      </trkpt>
      <trkpt lat="41.615623360" lon="2.523983490">
        <ele>178.30</ele>
        <time>2014-03-02T08:15:52Z</time>
      </trkpt>
      <trkpt lat="41.615628390" lon="2.523951800">
        <ele>178.50</ele>
        <time>2014-03-02T08:15:53Z</time>
      </trkpt>
      <trkpt lat="41.615625040" lon="2.523891790">
        <ele>178.60</ele>
        <time>2014-03-02T08:15:54Z</time>
      </trkpt>
      <trkpt lat="41.615630070" lon="2.523868490">
        <ele>178.90</ele>
        <time>2014-03-02T08:15:55Z</time>
      </trkpt>
      <trkpt lat="41.615635100" lon="2.523845020">
        <ele>179.00</ele>
        <time>2014-03-02T08:15:56Z</time>
      </trkpt>
      <trkpt lat="41.615656220" lon="2.523752650">
        <ele>180.00</ele>
        <time>2014-03-02T08:15:59Z</time>
      </trkpt>
      <trkpt lat="41.615667620" lon="2.523624910">
        <ele>180.00</ele>
        <time>2014-03-02T08:16:03Z</time>
      </trkpt>
      <trkpt lat="41.615671310" lon="2.523456270">
        <ele>180.00</ele>
        <time>2014-03-02T08:16:07Z</time>
      </trkpt>
      <trkpt lat="41.615680690" lon="2.523280250">
        <ele>181.00</ele>
        <time>2014-03-02T08:16:11Z</time>
      </trkpt>
      <trkpt lat="41.615686730" lon="2.523220060">
        <ele>181.40</ele>
        <time>2014-03-02T08:16:13Z</time>
      </trkpt>
      <trkpt lat="41.615690080" lon="2.523183350">
        <ele>181.70</ele>
        <time>2014-03-02T08:16:14Z</time>
      </trkpt>
      <trkpt lat="41.615696790" lon="2.523148480">
        <ele>181.80</ele>
        <time>2014-03-02T08:16:15Z</time>
      </trkpt>
      <trkpt lat="41.615700140" lon="2.523108420">
        <ele>181.50</ele>
        <time>2014-03-02T08:16:16Z</time>
      </trkpt>
      <trkpt lat="41.615705000" lon="2.523071710">
        <ele>181.30</ele>
        <time>2014-03-02T08:16:17Z</time>
      </trkpt>
      <trkpt lat="41.615708350" lon="2.523036670">
        <ele>181.30</ele>
        <time>2014-03-02T08:16:18Z</time>
      </trkpt>
      <trkpt lat="41.615713380" lon="2.523000120">
        <ele>181.20</ele>
        <time>2014-03-02T08:16:19Z</time>
      </trkpt>
      <trkpt lat="41.615715060" lon="2.522963410">
        <ele>181.20</ele>
        <time>2014-03-02T08:16:20Z</time>
      </trkpt>
      <trkpt lat="41.615716740" lon="2.522926700">
        <ele>181.40</ele>
        <time>2014-03-02T08:16:21Z</time>
      </trkpt>
      <trkpt lat="41.615720090" lon="2.522891660">
        <ele>181.50</ele>
        <time>2014-03-02T08:16:22Z</time>
      </trkpt>
      <trkpt lat="41.615723440" lon="2.522856790">
        <ele>181.60</ele>
        <time>2014-03-02T08:16:23Z</time>
      </trkpt>
      <trkpt lat="41.615723440" lon="2.522821760">
        <ele>181.60</ele>
        <time>2014-03-02T08:16:24Z</time>
      </trkpt>
      <trkpt lat="41.615725120" lon="2.522786720">
        <ele>181.70</ele>
        <time>2014-03-02T08:16:25Z</time>
      </trkpt>
      <trkpt lat="41.615728470" lon="2.522753360">
        <ele>182.10</ele>
        <time>2014-03-02T08:16:26Z</time>
      </trkpt>
      <trkpt lat="41.615731820" lon="2.522718490">
        <ele>182.40</ele>
        <time>2014-03-02T08:16:27Z</time>
      </trkpt>
      <trkpt lat="41.615736680" lon="2.522683460">
        <ele>182.80</ele>
        <time>2014-03-02T08:16:28Z</time>
      </trkpt>
      <trkpt lat="41.615736680" lon="2.522650100">
        <ele>183.10</ele>
        <time>2014-03-02T08:16:29Z</time>
      </trkpt>
      <trkpt lat="41.615736680" lon="2.522616740">
        <ele>183.30</ele>
        <time>2014-03-02T08:16:30Z</time>
      </trkpt>
      <trkpt lat="41.615738360" lon="2.522585050">
        <ele>183.40</ele>
        <time>2014-03-02T08:16:31Z</time>
      </trkpt>
      <trkpt lat="41.615738360" lon="2.522551690">
        <ele>183.50</ele>
        <time>2014-03-02T08:16:32Z</time>
      </trkpt>
      <trkpt lat="41.615743390" lon="2.522518330">
        <ele>183.80</ele>
        <time>2014-03-02T08:16:33Z</time>
      </trkpt>
      <trkpt lat="41.615745070" lon="2.522486820">
        <ele>184.10</ele>
        <time>2014-03-02T08:16:34Z</time>
      </trkpt>
      <trkpt lat="41.615755120" lon="2.522453460">
        <ele>184.10</ele>
        <time>2014-03-02T08:16:35Z</time>
      </trkpt>
      <trkpt lat="41.615763340" lon="2.522418420">
        <ele>184.10</ele>
        <time>2014-03-02T08:16:36Z</time>
      </trkpt>
      <trkpt lat="41.615770040" lon="2.522385060">
        <ele>184.20</ele>
        <time>2014-03-02T08:16:37Z</time>
      </trkpt>
      <trkpt lat="41.615775070" lon="2.522348350">
        <ele>184.40</ele>
        <time>2014-03-02T08:16:38Z</time>
      </trkpt>
      <trkpt lat="41.615783460" lon="2.522315150">
        <ele>184.50</ele>
        <time>2014-03-02T08:16:39Z</time>
      </trkpt>
      <trkpt lat="41.615793350" lon="2.522281790">
        <ele>184.70</ele>
        <time>2014-03-02T08:16:40Z</time>
      </trkpt>
      <trkpt lat="41.615801730" lon="2.522248430">
        <ele>184.90</ele>
        <time>2014-03-02T08:16:41Z</time>
      </trkpt>
      <trkpt lat="41.615806760" lon="2.522216750">
        <ele>185.00</ele>
        <time>2014-03-02T08:16:42Z</time>
      </trkpt>
      <trkpt lat="41.615811790" lon="2.522181710">
        <ele>185.10</ele>
        <time>2014-03-02T08:16:43Z</time>
      </trkpt>
      <trkpt lat="41.615816820" lon="2.522146680">
        <ele>185.10</ele>
        <time>2014-03-02T08:16:44Z</time>
      </trkpt>
      <trkpt lat="41.615820000" lon="2.522111810">
        <ele>185.20</ele>
        <time>2014-03-02T08:16:45Z</time>
      </trkpt>
      <trkpt lat="41.615825030" lon="2.522076770">
        <ele>185.20</ele>
        <time>2014-03-02T08:16:46Z</time>
      </trkpt>
      <trkpt lat="41.615828380" lon="2.522043410">
        <ele>185.40</ele>
        <time>2014-03-02T08:16:47Z</time>
      </trkpt>
      <trkpt lat="41.615830060" lon="2.522010050">
        <ele>185.60</ele>
        <time>2014-03-02T08:16:48Z</time>
      </trkpt>
      <trkpt lat="41.615833410" lon="2.521976690">
        <ele>185.70</ele>
        <time>2014-03-02T08:16:49Z</time>
      </trkpt>
      <trkpt lat="41.615838440" lon="2.521943330">
        <ele>185.80</ele>
        <time>2014-03-02T08:16:50Z</time>
      </trkpt>
      <trkpt lat="41.615841790" lon="2.521910140">
        <ele>185.90</ele>
        <time>2014-03-02T08:16:51Z</time>
      </trkpt>
      <trkpt lat="41.615845150" lon="2.521876780">
        <ele>185.70</ele>
        <time>2014-03-02T08:16:52Z</time>
      </trkpt>
      <trkpt lat="41.615848330" lon="2.521845100">
        <ele>185.60</ele>
        <time>2014-03-02T08:16:53Z</time>
      </trkpt>
      <trkpt lat="41.615855040" lon="2.521811740">
        <ele>186.30</ele>
        <time>2014-03-02T08:16:54Z</time>
      </trkpt>
      <trkpt lat="41.615863420" lon="2.521778380">
        <ele>186.80</ele>
        <time>2014-03-02T08:16:55Z</time>
      </trkpt>
      <trkpt lat="41.615870120" lon="2.521745020">
        <ele>186.70</ele>
        <time>2014-03-02T08:16:56Z</time>
      </trkpt>
      <trkpt lat="41.615875150" lon="2.521708470">
        <ele>186.70</ele>
        <time>2014-03-02T08:16:57Z</time>
      </trkpt>
      <trkpt lat="41.615881690" lon="2.521671760">
        <ele>186.70</ele>
        <time>2014-03-02T08:16:58Z</time>
      </trkpt>
      <trkpt lat="41.615888400" lon="2.521631690">
        <ele>186.80</ele>
        <time>2014-03-02T08:16:59Z</time>
      </trkpt>
      <trkpt lat="41.615896780" lon="2.521595150">
        <ele>186.80</ele>
        <time>2014-03-02T08:17:00Z</time>
      </trkpt>
      <trkpt lat="41.615903480" lon="2.521556760">
        <ele>186.80</ele>
        <time>2014-03-02T08:17:01Z</time>
      </trkpt>
      <trkpt lat="41.615910020" lon="2.521518370">
        <ele>186.80</ele>
        <time>2014-03-02T08:17:02Z</time>
      </trkpt>
      <trkpt lat="41.615916730" lon="2.521481830">
        <ele>186.80</ele>
        <time>2014-03-02T08:17:03Z</time>
      </trkpt>
      <trkpt lat="41.615923430" lon="2.521446790">
        <ele>187.20</ele>
        <time>2014-03-02T08:17:04Z</time>
      </trkpt>
      <trkpt lat="41.615928460" lon="2.521411750">
        <ele>187.40</ele>
        <time>2014-03-02T08:17:05Z</time>
      </trkpt>
      <trkpt lat="41.615931820" lon="2.521376720">
        <ele>187.70</ele>
        <time>2014-03-02T08:17:06Z</time>
      </trkpt>
      <trkpt lat="41.615935000" lon="2.521341680">
        <ele>188.00</ele>
        <time>2014-03-02T08:17:07Z</time>
      </trkpt>
      <trkpt lat="41.615936680" lon="2.521306810">
        <ele>187.90</ele>
        <time>2014-03-02T08:17:08Z</time>
      </trkpt>
      <trkpt lat="41.615938350" lon="2.521271780">
        <ele>187.80</ele>
        <time>2014-03-02T08:17:09Z</time>
      </trkpt>
      <trkpt lat="41.615941710" lon="2.521235060">
        <ele>187.80</ele>
        <time>2014-03-02T08:17:10Z</time>
      </trkpt>
      <trkpt lat="41.615945060" lon="2.521196670">
        <ele>187.40</ele>
        <time>2014-03-02T08:17:11Z</time>
      </trkpt>
      <trkpt lat="41.615951760" lon="2.521160130">
        <ele>187.10</ele>
        <time>2014-03-02T08:17:12Z</time>
      </trkpt>
      <trkpt lat="41.615958470" lon="2.521125090">
        <ele>187.30</ele>
        <time>2014-03-02T08:17:13Z</time>
      </trkpt>
      <trkpt lat="41.615966680" lon="2.521090060">
        <ele>187.50</ele>
        <time>2014-03-02T08:17:14Z</time>
      </trkpt>
      <trkpt lat="41.615970040" lon="2.521051670">
        <ele>187.20</ele>
        <time>2014-03-02T08:17:15Z</time>
      </trkpt>
      <trkpt lat="41.615971710" lon="2.521016800">
        <ele>187.00</ele>
        <time>2014-03-02T08:17:16Z</time>
      </trkpt>
      <trkpt lat="41.615973390" lon="2.520983440">
        <ele>186.90</ele>
        <time>2014-03-02T08:17:17Z</time>
      </trkpt>
      <trkpt lat="41.615976740" lon="2.520955110">
        <ele>187.40</ele>
        <time>2014-03-02T08:17:18Z</time>
      </trkpt>
      <trkpt lat="41.615983450" lon="2.520926780">
        <ele>187.80</ele>
        <time>2014-03-02T08:17:19Z</time>
      </trkpt>
      <trkpt lat="41.615991660" lon="2.520898450">
        <ele>188.10</ele>
        <time>2014-03-02T08:17:20Z</time>
      </trkpt>
      <trkpt lat="41.616000040" lon="2.520870110">
        <ele>188.40</ele>
        <time>2014-03-02T08:17:21Z</time>
      </trkpt>
      <trkpt lat="41.616010100" lon="2.520838430">
        <ele>188.60</ele>
        <time>2014-03-02T08:17:22Z</time>
      </trkpt>
      <trkpt lat="41.616020160" lon="2.520806750">
        <ele>188.70</ele>
        <time>2014-03-02T08:17:23Z</time>
      </trkpt>
      <trkpt lat="41.616028370" lon="2.520778420">
        <ele>188.80</ele>
        <time>2014-03-02T08:17:24Z</time>
      </trkpt>
      <trkpt lat="41.616036760" lon="2.520746730">
        <ele>188.90</ele>
        <time>2014-03-02T08:17:25Z</time>
      </trkpt>
      <trkpt lat="41.616046810" lon="2.520715050">
        <ele>188.90</ele>
        <time>2014-03-02T08:17:26Z</time>
      </trkpt>
      <trkpt lat="41.616058380" lon="2.520683370">
        <ele>188.70</ele>
        <time>2014-03-02T08:17:27Z</time>
      </trkpt>
      <trkpt lat="41.616066760" lon="2.520651680">
        <ele>188.60</ele>
        <time>2014-03-02T08:17:28Z</time>
      </trkpt>
      <trkpt lat="41.616078330" lon="2.520621670">
        <ele>188.50</ele>
        <time>2014-03-02T08:17:29Z</time>
      </trkpt>
      <trkpt lat="41.616086710" lon="2.520588480">
        <ele>188.20</ele>
        <time>2014-03-02T08:17:30Z</time>
      </trkpt>
      <trkpt lat="41.616098450" lon="2.520561830">
        <ele>188.00</ele>
        <time>2014-03-02T08:17:31Z</time>
      </trkpt>
      <trkpt lat="41.616108340" lon="2.520531820">
        <ele>188.20</ele>
        <time>2014-03-02T08:17:32Z</time>
      </trkpt>
      <trkpt lat="41.616118400" lon="2.520501810">
        <ele>188.40</ele>
        <time>2014-03-02T08:17:33Z</time>
      </trkpt>
      <trkpt lat="41.616130130" lon="2.520470130">
        <ele>188.40</ele>
        <time>2014-03-02T08:17:34Z</time>
      </trkpt>
      <trkpt lat="41.616141700" lon="2.520436770">
        <ele>188.50</ele>
        <time>2014-03-02T08:17:35Z</time>
      </trkpt>
      <trkpt lat="41.616158460" lon="2.520405090">
        <ele>188.50</ele>
        <time>2014-03-02T08:17:36Z</time>
      </trkpt>
      <trkpt lat="41.616170030" lon="2.520376760">
        <ele>188.90</ele>
        <time>2014-03-02T08:17:37Z</time>
      </trkpt>
      <trkpt lat="41.616180090" lon="2.520343400">
        <ele>189.20</ele>
        <time>2014-03-02T08:17:38Z</time>
      </trkpt>
      <trkpt lat="41.616190150" lon="2.520313390">
        <ele>189.30</ele>
        <time>2014-03-02T08:17:39Z</time>
      </trkpt>
      <trkpt lat="41.616200040" lon="2.520285060">
        <ele>189.30</ele>
        <time>2014-03-02T08:17:40Z</time>
      </trkpt>
      <trkpt lat="41.616208420" lon="2.520261760">
        <ele>189.50</ele>
        <time>2014-03-02T08:17:41Z</time>
      </trkpt>
      <trkpt lat="41.616218480" lon="2.520236780">
        <ele>189.60</ele>
        <time>2014-03-02T08:17:42Z</time>
      </trkpt>
      <trkpt lat="41.616226690" lon="2.520210120">
        <ele>189.70</ele>
        <time>2014-03-02T08:17:43Z</time>
      </trkpt>
      <trkpt lat="41.616235070" lon="2.520185150">
        <ele>190.00</ele>
        <time>2014-03-02T08:17:44Z</time>
      </trkpt>
      <trkpt lat="41.616246810" lon="2.520161680">
        <ele>190.20</ele>
        <time>2014-03-02T08:17:45Z</time>
      </trkpt>
      <trkpt lat="41.616256700" lon="2.520141730">
        <ele>190.30</ele>
        <time>2014-03-02T08:17:46Z</time>
      </trkpt>
      <trkpt lat="41.616268430" lon="2.520125130">
        <ele>190.40</ele>
        <time>2014-03-02T08:17:47Z</time>
      </trkpt>
      <trkpt lat="41.616280000" lon="2.520105010">
        <ele>190.40</ele>
        <time>2014-03-02T08:17:48Z</time>
      </trkpt>
      <trkpt lat="41.616298440" lon="2.520078360">
        <ele>190.50</ele>
        <time>2014-03-02T08:17:49Z</time>
      </trkpt>
      <trkpt lat="41.616325090" lon="2.520048350">
        <ele>190.50</ele>
        <time>2014-03-02T08:17:50Z</time>
      </trkpt>
      <trkpt lat="41.616350070" lon="2.520023370">
        <ele>190.40</ele>
        <time>2014-03-02T08:17:51Z</time>
      </trkpt>
      <trkpt lat="41.616373370" lon="2.520001750">
        <ele>190.30</ele>
        <time>2014-03-02T08:17:52Z</time>
      </trkpt>
      <trkpt lat="41.616400030" lon="2.519981800">
        <ele>190.20</ele>
        <time>2014-03-02T08:17:53Z</time>
      </trkpt>
      <trkpt lat="41.616426680" lon="2.519960010">
        <ele>190.20</ele>
        <time>2014-03-02T08:17:54Z</time>
      </trkpt>
      <trkpt lat="41.616446800" lon="2.519945090">
        <ele>190.20</ele>
        <time>2014-03-02T08:17:55Z</time>
      </trkpt>
      <trkpt lat="41.616465070" lon="2.519935030">
        <ele>190.00</ele>
        <time>2014-03-02T08:17:56Z</time>
      </trkpt>
      <trkpt lat="41.616483340" lon="2.519923460">
        <ele>189.80</ele>
        <time>2014-03-02T08:17:57Z</time>
      </trkpt>
      <trkpt lat="41.616505140" lon="2.519911730">
        <ele>189.60</ele>
        <time>2014-03-02T08:17:58Z</time>
      </trkpt>
      <trkpt lat="41.616528440" lon="2.519896810">
        <ele>189.40</ele>
        <time>2014-03-02T08:17:59Z</time>
      </trkpt>
      <trkpt lat="41.616551740" lon="2.519886750">
        <ele>189.20</ele>
        <time>2014-03-02T08:18:00Z</time>
      </trkpt>
      <trkpt lat="41.616575040" lon="2.519873340">
        <ele>189.40</ele>
        <time>2014-03-02T08:18:01Z</time>
      </trkpt>
      <trkpt lat="41.616595160" lon="2.519860100">
        <ele>189.50</ele>
        <time>2014-03-02T08:18:02Z</time>
      </trkpt>
      <trkpt lat="41.616613430" lon="2.519845010">
        <ele>189.90</ele>
        <time>2014-03-02T08:18:03Z</time>
      </trkpt>
      <trkpt lat="41.616630030" lon="2.519833440">
        <ele>190.20</ele>
        <time>2014-03-02T08:18:04Z</time>
      </trkpt>
      <trkpt lat="41.616650140" lon="2.519821710">
        <ele>190.20</ele>
        <time>2014-03-02T08:18:05Z</time>
      </trkpt>
      <trkpt lat="41.616668420" lon="2.519810140">
        <ele>190.10</ele>
        <time>2014-03-02T08:18:06Z</time>
      </trkpt>
      <trkpt lat="41.616690040" lon="2.519800080">
        <ele>190.10</ele>
        <time>2014-03-02T08:18:07Z</time>
      </trkpt>
      <trkpt lat="41.616710160" lon="2.519791700">
        <ele>190.20</ele>
        <time>2014-03-02T08:18:08Z</time>
      </trkpt>
      <trkpt lat="41.616730110" lon="2.519781810">
        <ele>190.30</ele>
        <time>2014-03-02T08:18:09Z</time>
      </trkpt>
      <trkpt lat="41.616750060" lon="2.519773430">
        <ele>190.50</ele>
        <time>2014-03-02T08:18:10Z</time>
      </trkpt>
      <trkpt lat="41.616770010" lon="2.519766720">
        <ele>190.70</ele>
        <time>2014-03-02T08:18:11Z</time>
      </trkpt>
      <trkpt lat="41.616790120" lon="2.519760020">
        <ele>191.10</ele>
        <time>2014-03-02T08:18:12Z</time>
      </trkpt>
      <trkpt lat="41.616810070" lon="2.519755150">
        <ele>191.30</ele>
        <time>2014-03-02T08:18:13Z</time>
      </trkpt>
      <trkpt lat="41.616831700" lon="2.519751800">
        <ele>191.50</ele>
        <time>2014-03-02T08:18:14Z</time>
      </trkpt>
      <trkpt lat="41.616853490" lon="2.519746770">
        <ele>191.20</ele>
        <time>2014-03-02T08:18:15Z</time>
      </trkpt>
      <trkpt lat="41.616875110" lon="2.519743420">
        <ele>191.00</ele>
        <time>2014-03-02T08:18:16Z</time>
      </trkpt>
      <trkpt lat="41.616896740" lon="2.519738390">
        <ele>191.30</ele>
        <time>2014-03-02T08:18:17Z</time>
      </trkpt>
      <trkpt lat="41.616921720" lon="2.519733360">
        <ele>191.50</ele>
        <time>2014-03-02T08:18:18Z</time>
      </trkpt>
      <trkpt lat="41.616946700" lon="2.519730010">
        <ele>191.60</ele>
        <time>2014-03-02T08:18:19Z</time>
      </trkpt>
      <trkpt lat="41.616970000" lon="2.519725150">
        <ele>191.80</ele>
        <time>2014-03-02T08:18:20Z</time>
      </trkpt>
      <trkpt lat="41.616991790" lon="2.519720120">
        <ele>192.00</ele>
        <time>2014-03-02T08:18:21Z</time>
      </trkpt>
      <trkpt lat="41.617015090" lon="2.519716760">
        <ele>192.00</ele>
        <time>2014-03-02T08:18:22Z</time>
      </trkpt>
      <trkpt lat="41.617040070" lon="2.519711740">
        <ele>192.00</ele>
        <time>2014-03-02T08:18:23Z</time>
      </trkpt>
      <trkpt lat="41.617065050" lon="2.519706710">
        <ele>191.80</ele>
        <time>2014-03-02T08:18:24Z</time>
      </trkpt>
      <trkpt lat="41.617090030" lon="2.519701680">
        <ele>191.60</ele>
        <time>2014-03-02T08:18:25Z</time>
      </trkpt>
      <trkpt lat="41.617111820" lon="2.519695140">
        <ele>191.50</ele>
        <time>2014-03-02T08:18:26Z</time>
      </trkpt>
      <trkpt lat="41.617135120" lon="2.519691790">
        <ele>191.60</ele>
        <time>2014-03-02T08:18:27Z</time>
      </trkpt>
      <trkpt lat="41.617161780" lon="2.519690110">
        <ele>191.70</ele>
        <time>2014-03-02T08:18:28Z</time>
      </trkpt>
      <trkpt lat="41.617183400" lon="2.519688430">
        <ele>192.10</ele>
        <time>2014-03-02T08:18:29Z</time>
      </trkpt>
      <trkpt lat="41.617206700" lon="2.519685080">
        <ele>192.30</ele>
        <time>2014-03-02T08:18:30Z</time>
      </trkpt>
      <trkpt lat="41.617230000" lon="2.519681730">
        <ele>192.40</ele>
        <time>2014-03-02T08:18:31Z</time>
      </trkpt>
      <trkpt lat="41.617256830" lon="2.519678380">
        <ele>192.40</ele>
        <time>2014-03-02T08:18:32Z</time>
      </trkpt>
      <trkpt lat="41.617281800" lon="2.519675020">
        <ele>192.40</ele>
        <time>2014-03-02T08:18:33Z</time>
      </trkpt>
      <trkpt lat="41.617305110" lon="2.519671670">
        <ele>192.90</ele>
        <time>2014-03-02T08:18:34Z</time>
      </trkpt>
      <trkpt lat="41.617326730" lon="2.519666810">
        <ele>193.20</ele>
        <time>2014-03-02T08:18:35Z</time>
      </trkpt>
      <trkpt lat="41.617350030" lon="2.519663460">
        <ele>193.30</ele>
        <time>2014-03-02T08:18:36Z</time>
      </trkpt>
      <trkpt lat="41.617373330" lon="2.519660100">
        <ele>193.40</ele>
        <time>2014-03-02T08:18:37Z</time>
      </trkpt>
      <trkpt lat="41.617398480" lon="2.519655070">
        <ele>193.30</ele>
        <time>2014-03-02T08:18:38Z</time>
      </trkpt>
      <trkpt lat="41.617420110" lon="2.519653400">
        <ele>193.20</ele>
        <time>2014-03-02T08:18:39Z</time>
      </trkpt>
      <trkpt lat="41.617441730" lon="2.519650040">
        <ele>193.10</ele>
        <time>2014-03-02T08:18:40Z</time>
      </trkpt>
      <trkpt lat="41.617465030" lon="2.519648370">
        <ele>193.70</ele>
        <time>2014-03-02T08:18:41Z</time>
      </trkpt>
      <trkpt lat="41.617490010" lon="2.519646690">
        <ele>194.10</ele>
        <time>2014-03-02T08:18:42Z</time>
      </trkpt>
      <trkpt lat="41.617511800" lon="2.519645020">
        <ele>194.20</ele>
        <time>2014-03-02T08:18:43Z</time>
      </trkpt>
      <trkpt lat="41.617533430" lon="2.519641660">
        <ele>194.40</ele>
        <time>2014-03-02T08:18:44Z</time>
      </trkpt>
      <trkpt lat="41.617555050" lon="2.519641660">
        <ele>194.50</ele>
        <time>2014-03-02T08:18:45Z</time>
      </trkpt>
      <trkpt lat="41.617578360" lon="2.519641660">
        <ele>194.70</ele>
        <time>2014-03-02T08:18:46Z</time>
      </trkpt>
      <trkpt lat="41.617598470" lon="2.519640150">
        <ele>194.90</ele>
        <time>2014-03-02T08:18:47Z</time>
      </trkpt>
      <trkpt lat="41.617618420" lon="2.519638480">
        <ele>195.00</ele>
        <time>2014-03-02T08:18:48Z</time>
      </trkpt>
      <trkpt lat="41.617638370" lon="2.519636800">
        <ele>195.10</ele>
        <time>2014-03-02T08:18:49Z</time>
      </trkpt>
      <trkpt lat="41.617655130" lon="2.519636800">
        <ele>195.50</ele>
        <time>2014-03-02T08:18:50Z</time>
      </trkpt>
      <trkpt lat="41.617670050" lon="2.519635120">
        <ele>195.90</ele>
        <time>2014-03-02T08:18:51Z</time>
      </trkpt>
      <trkpt lat="41.617680110" lon="2.519636800">
        <ele>196.20</ele>
        <time>2014-03-02T08:18:52Z</time>
      </trkpt>
      <trkpt lat="41.617685140" lon="2.519636800">
        <ele>195.70</ele>
        <time>2014-03-02T08:18:53Z</time>
      </trkpt>
      <trkpt lat="41.617688490" lon="2.519636800">
        <ele>195.40</ele>
        <time>2014-03-02T08:18:54Z</time>
      </trkpt>
      <trkpt lat="41.617693360" lon="2.519636800">
        <ele>195.20</ele>
        <time>2014-03-02T08:18:55Z</time>
      </trkpt>
      <trkpt lat="41.617700060" lon="2.519636800">
        <ele>195.10</ele>
        <time>2014-03-02T08:18:56Z</time>
      </trkpt>
      <trkpt lat="41.617706770" lon="2.519638480">
        <ele>195.50</ele>
        <time>2014-03-02T08:18:57Z</time>
      </trkpt>
      <trkpt lat="41.617710120" lon="2.519638480">
        <ele>195.80</ele>
        <time>2014-03-02T08:18:58Z</time>
      </trkpt>
      <trkpt lat="41.617711800" lon="2.519636800">
        <ele>196.00</ele>
        <time>2014-03-02T08:18:59Z</time>
      </trkpt>
      <trkpt lat="41.617715150" lon="2.519636800">
        <ele>196.30</ele>
        <time>2014-03-02T08:19:00Z</time>
      </trkpt>
      <trkpt lat="41.617720010" lon="2.519636800">
        <ele>196.50</ele>
        <time>2014-03-02T08:19:01Z</time>
      </trkpt>
      <trkpt lat="41.617721690" lon="2.519635120">
        <ele>196.00</ele>
        <time>2014-03-02T08:19:02Z</time>
      </trkpt>
      <trkpt lat="41.617726720" lon="2.519638480">
        <ele>195.70</ele>
        <time>2014-03-02T08:19:03Z</time>
      </trkpt>
      <trkpt lat="41.617728390" lon="2.519635120">
        <ele>195.40</ele>
        <time>2014-03-02T08:19:04Z</time>
      </trkpt>
      <trkpt lat="41.617731750" lon="2.519635120">
        <ele>195.40</ele>
        <time>2014-03-02T08:19:05Z</time>
      </trkpt>
      <trkpt lat="41.617736770" lon="2.519635120">
        <ele>195.50</ele>
        <time>2014-03-02T08:19:06Z</time>
      </trkpt>
      <trkpt lat="41.617741800" lon="2.519635120">
        <ele>195.90</ele>
        <time>2014-03-02T08:19:07Z</time>
      </trkpt>
      <trkpt lat="41.617746660" lon="2.519635120">
        <ele>196.30</ele>
        <time>2014-03-02T08:19:08Z</time>
      </trkpt>
      <trkpt lat="41.617751690" lon="2.519635120">
        <ele>196.20</ele>
        <time>2014-03-02T08:19:09Z</time>
      </trkpt>
      <trkpt lat="41.617755050" lon="2.519636800">
        <ele>196.10</ele>
        <time>2014-03-02T08:19:10Z</time>
      </trkpt>
      <trkpt lat="41.617758400" lon="2.519638480">
        <ele>196.00</ele>
        <time>2014-03-02T08:19:11Z</time>
      </trkpt>
      <trkpt lat="41.617761750" lon="2.519643340">
        <ele>196.30</ele>
        <time>2014-03-02T08:19:12Z</time>
      </trkpt>
      <trkpt lat="41.617763430" lon="2.519651720">
        <ele>196.50</ele>
        <time>2014-03-02T08:19:13Z</time>
      </trkpt>
      <trkpt lat="41.617763430" lon="2.519658430">
        <ele>196.30</ele>
        <time>2014-03-02T08:19:14Z</time>
      </trkpt>
      <trkpt lat="41.617763430" lon="2.519665130">
        <ele>196.20</ele>
        <time>2014-03-02T08:19:15Z</time>
      </trkpt>
      <trkpt lat="41.617763430" lon="2.519673350">
        <ele>196.50</ele>
        <time>2014-03-02T08:19:16Z</time>
      </trkpt>
      <trkpt lat="41.617766780" lon="2.519680050">
        <ele>196.70</ele>
        <time>2014-03-02T08:19:17Z</time>
      </trkpt>
      <trkpt lat="41.617771810" lon="2.519686760">
        <ele>196.80</ele>
        <time>2014-03-02T08:19:18Z</time>
      </trkpt>
      <trkpt lat="41.617780020" lon="2.519698490">
        <ele>197.00</ele>
        <time>2014-03-02T08:19:19Z</time>
      </trkpt>
      <trkpt lat="41.617790080" lon="2.519708380">
        <ele>197.20</ele>
        <time>2014-03-02T08:19:20Z</time>
      </trkpt>
      <trkpt lat="41.617795110" lon="2.519711740">
        <ele>197.30</ele>
        <time>2014-03-02T08:19:21Z</time>
      </trkpt>
      <trkpt lat="41.617796790" lon="2.519713410">
        <ele>197.40</ele>
        <time>2014-03-02T08:19:22Z</time>
      </trkpt>
      <trkpt lat="41.617798460" lon="2.519713410">
        <ele>197.40</ele>
        <time>2014-03-02T08:19:23Z</time>
      </trkpt>
      <trkpt lat="41.617800140" lon="2.519713410">
        <ele>197.40</ele>
        <time>2014-03-02T08:19:24Z</time>
      </trkpt>
      <trkpt lat="41.617803490" lon="2.519718440">
        <ele>197.40</ele>
        <time>2014-03-02T08:19:25Z</time>
      </trkpt>
      <trkpt lat="41.617810030" lon="2.519728330">
        <ele>197.20</ele>
        <time>2014-03-02T08:19:26Z</time>
      </trkpt>
      <trkpt lat="41.617818410" lon="2.519738390">
        <ele>197.00</ele>
        <time>2014-03-02T08:19:27Z</time>
      </trkpt>
      <trkpt lat="41.617830150" lon="2.519745100">
        <ele>197.30</ele>
        <time>2014-03-02T08:19:28Z</time>
      </trkpt>
      <trkpt lat="41.617841720" lon="2.519758340">
        <ele>197.50</ele>
        <time>2014-03-02T08:19:29Z</time>
      </trkpt>
      <trkpt lat="41.617853450" lon="2.519773430">
        <ele>197.60</ele>
        <time>2014-03-02T08:19:30Z</time>
      </trkpt>
      <trkpt lat="41.617865020" lon="2.519790020">
        <ele>197.90</ele>
        <time>2014-03-02T08:19:31Z</time>
      </trkpt>
      <trkpt lat="41.617875080" lon="2.519805110">
        <ele>198.10</ele>
        <time>2014-03-02T08:19:32Z</time>
      </trkpt>
      <trkpt lat="41.617881780" lon="2.519821710">
        <ele>197.80</ele>
        <time>2014-03-02T08:19:33Z</time>
      </trkpt>
      <trkpt lat="41.617888490" lon="2.519840150">
        <ele>197.50</ele>
        <time>2014-03-02T08:19:34Z</time>
      </trkpt>
      <trkpt lat="41.617890000" lon="2.519856740">
        <ele>197.30</ele>
        <time>2014-03-02T08:19:35Z</time>
      </trkpt>
      <trkpt lat="41.617890000" lon="2.519871660">
        <ele>197.20</ele>
        <time>2014-03-02T08:19:36Z</time>
      </trkpt>
      <trkpt lat="41.617888490" lon="2.519890100">
        <ele>197.10</ele>
        <time>2014-03-02T08:19:37Z</time>
      </trkpt>
      <trkpt lat="41.617883460" lon="2.519903350">
        <ele>197.40</ele>
        <time>2014-03-02T08:19:38Z</time>
      </trkpt>
      <trkpt lat="41.617883460" lon="2.519918430">
        <ele>197.70</ele>
        <time>2014-03-02T08:19:39Z</time>
      </trkpt>
      <trkpt lat="41.617883460" lon="2.519940060">
        <ele>197.80</ele>
        <time>2014-03-02T08:19:40Z</time>
      </trkpt>
      <trkpt lat="41.617886810" lon="2.519960010">
        <ele>197.90</ele>
        <time>2014-03-02T08:19:41Z</time>
      </trkpt>
      <trkpt lat="41.617885130" lon="2.519983480">
        <ele>198.00</ele>
        <time>2014-03-02T08:19:42Z</time>
      </trkpt>
      <trkpt lat="41.617880100" lon="2.520001750">
        <ele>197.80</ele>
        <time>2014-03-02T08:19:43Z</time>
      </trkpt>
      <trkpt lat="41.617871720" lon="2.520016670">
        <ele>197.50</ele>
        <time>2014-03-02T08:19:44Z</time>
      </trkpt>
      <trkpt lat="41.617861660" lon="2.520030080">
        <ele>197.80</ele>
        <time>2014-03-02T08:19:45Z</time>
      </trkpt>
      <trkpt lat="41.617851770" lon="2.520045000">
        <ele>197.90</ele>
        <time>2014-03-02T08:19:46Z</time>
      </trkpt>
      <trkpt lat="41.617841720" lon="2.520060090">
        <ele>198.40</ele>
        <time>2014-03-02T08:19:47Z</time>
      </trkpt>
      <trkpt lat="41.617830150" lon="2.520071820">
        <ele>198.80</ele>
        <time>2014-03-02T08:19:48Z</time>
      </trkpt>
      <trkpt lat="41.617820090" lon="2.520081710">
        <ele>199.10</ele>
        <time>2014-03-02T08:19:49Z</time>
      </trkpt>
      <trkpt lat="41.617808360" lon="2.520093450">
        <ele>199.00</ele>
        <time>2014-03-02T08:19:50Z</time>
      </trkpt>
      <trkpt lat="41.617795110" lon="2.520103340">
        <ele>199.00</ele>
        <time>2014-03-02T08:19:51Z</time>
      </trkpt>
      <trkpt lat="41.617780020" lon="2.520111720">
        <ele>199.30</ele>
        <time>2014-03-02T08:19:52Z</time>
      </trkpt>
      <trkpt lat="41.617766780" lon="2.520123450">
        <ele>199.60</ele>
        <time>2014-03-02T08:19:53Z</time>
      </trkpt>
      <trkpt lat="41.617753370" lon="2.520138370">
        <ele>199.70</ele>
        <time>2014-03-02T08:19:54Z</time>
      </trkpt>
      <trkpt lat="41.617743480" lon="2.520151790">
        <ele>199.80</ele>
        <time>2014-03-02T08:19:55Z</time>
      </trkpt>
      <trkpt lat="41.617733420" lon="2.520166710">
        <ele>199.80</ele>
        <time>2014-03-02T08:19:56Z</time>
      </trkpt>
      <trkpt lat="41.617725040" lon="2.520183470">
        <ele>200.40</ele>
        <time>2014-03-02T08:19:57Z</time>
      </trkpt>
      <trkpt lat="41.617716830" lon="2.520200060">
        <ele>200.90</ele>
        <time>2014-03-02T08:19:58Z</time>
      </trkpt>
      <trkpt lat="41.617711800" lon="2.520220010">
        <ele>200.90</ele>
        <time>2014-03-02T08:19:59Z</time>
      </trkpt>
      <trkpt lat="41.617710120" lon="2.520240130">
        <ele>200.90</ele>
        <time>2014-03-02T08:20:00Z</time>
      </trkpt>
      <trkpt lat="41.617708440" lon="2.520261760">
        <ele>200.90</ele>
        <time>2014-03-02T08:20:01Z</time>
      </trkpt>
      <trkpt lat="41.617708440" lon="2.520283380">
        <ele>201.20</ele>
        <time>2014-03-02T08:20:02Z</time>
      </trkpt>
      <trkpt lat="41.617710120" lon="2.520303330">
        <ele>201.40</ele>
        <time>2014-03-02T08:20:03Z</time>
      </trkpt>
      <trkpt lat="41.617710120" lon="2.520323450">
        <ele>201.60</ele>
        <time>2014-03-02T08:20:04Z</time>
      </trkpt>
      <trkpt lat="41.617711800" lon="2.520341720">
        <ele>201.80</ele>
        <time>2014-03-02T08:20:05Z</time>
      </trkpt>
      <trkpt lat="41.617713470" lon="2.520360160">
        <ele>201.90</ele>
        <time>2014-03-02T08:20:06Z</time>
      </trkpt>
      <trkpt lat="41.617713470" lon="2.520378430">
        <ele>202.00</ele>
        <time>2014-03-02T08:20:07Z</time>
      </trkpt>
      <trkpt lat="41.617715150" lon="2.520398380">
        <ele>202.10</ele>
        <time>2014-03-02T08:20:08Z</time>
      </trkpt>
      <trkpt lat="41.617716830" lon="2.520418330">
        <ele>202.30</ele>
        <time>2014-03-02T08:20:09Z</time>
      </trkpt>
      <trkpt lat="41.617718330" lon="2.520441800">
        <ele>202.50</ele>
        <time>2014-03-02T08:20:10Z</time>
      </trkpt>
      <trkpt lat="41.617716830" lon="2.520465100">
        <ele>202.80</ele>
        <time>2014-03-02T08:20:11Z</time>
      </trkpt>
      <trkpt lat="41.617715150" lon="2.520491760">
        <ele>203.00</ele>
        <time>2014-03-02T08:20:12Z</time>
      </trkpt>
      <trkpt lat="41.617710120" lon="2.520516730">
        <ele>203.20</ele>
        <time>2014-03-02T08:20:13Z</time>
      </trkpt>
      <trkpt lat="41.617701740" lon="2.520541710">
        <ele>203.30</ele>
        <time>2014-03-02T08:20:14Z</time>
      </trkpt>
      <trkpt lat="41.617691680" lon="2.520566690">
        <ele>203.30</ele>
        <time>2014-03-02T08:20:15Z</time>
      </trkpt>
      <trkpt lat="41.617685140" lon="2.520591670">
        <ele>203.50</ele>
        <time>2014-03-02T08:20:16Z</time>
      </trkpt>
      <trkpt lat="41.617680110" lon="2.520616810">
        <ele>203.70</ele>
        <time>2014-03-02T08:20:17Z</time>
      </trkpt>
      <trkpt lat="41.617678440" lon="2.520645140">
        <ele>204.00</ele>
        <time>2014-03-02T08:20:18Z</time>
      </trkpt>
      <trkpt lat="41.617678440" lon="2.520671800">
        <ele>204.20</ele>
        <time>2014-03-02T08:20:19Z</time>
      </trkpt>
      <trkpt lat="41.617681790" lon="2.520698450">
        <ele>204.40</ele>
        <time>2014-03-02T08:20:20Z</time>
      </trkpt>
      <trkpt lat="41.617685140" lon="2.520725110">
        <ele>204.50</ele>
        <time>2014-03-02T08:20:21Z</time>
      </trkpt>
      <trkpt lat="41.617690000" lon="2.520746730">
        <ele>204.50</ele>
        <time>2014-03-02T08:20:22Z</time>
      </trkpt>
      <trkpt lat="41.617696710" lon="2.520770030">
        <ele>205.20</ele>
        <time>2014-03-02T08:20:23Z</time>
      </trkpt>
      <trkpt lat="41.617701740" lon="2.520793340">
        <ele>205.70</ele>
        <time>2014-03-02T08:20:24Z</time>
      </trkpt>
      <trkpt lat="41.617705090" lon="2.520816810">
        <ele>206.10</ele>
        <time>2014-03-02T08:20:25Z</time>
      </trkpt>
      <trkpt lat="41.617705090" lon="2.520841780">
        <ele>206.30</ele>
        <time>2014-03-02T08:20:26Z</time>
      </trkpt>
      <trkpt lat="41.617708440" lon="2.520868440">
        <ele>206.50</ele>
        <time>2014-03-02T08:20:27Z</time>
      </trkpt>
      <trkpt lat="41.617711800" lon="2.520893420">
        <ele>206.20</ele>
        <time>2014-03-02T08:20:28Z</time>
      </trkpt>
      <trkpt lat="41.617718330" lon="2.520916720">
        <ele>206.00</ele>
        <time>2014-03-02T08:20:29Z</time>
      </trkpt>
      <trkpt lat="41.617725040" lon="2.520940020">
        <ele>205.80</ele>
        <time>2014-03-02T08:20:30Z</time>
      </trkpt>
      <trkpt lat="41.617731750" lon="2.520961810">
        <ele>205.60</ele>
        <time>2014-03-02T08:20:31Z</time>
      </trkpt>
      <trkpt lat="41.617738450" lon="2.520986790">
        <ele>206.10</ele>
        <time>2014-03-02T08:20:32Z</time>
      </trkpt>
      <trkpt lat="41.617745160" lon="2.521010090">
        <ele>206.40</ele>
        <time>2014-03-02T08:20:33Z</time>
      </trkpt>
      <trkpt lat="41.617751690" lon="2.521035070">
        <ele>206.70</ele>
        <time>2014-03-02T08:20:34Z</time>
      </trkpt>
      <trkpt lat="41.617758400" lon="2.521058370">
        <ele>206.90</ele>
        <time>2014-03-02T08:20:35Z</time>
      </trkpt>
      <trkpt lat="41.617765100" lon="2.521081670">
        <ele>207.10</ele>
        <time>2014-03-02T08:20:36Z</time>
      </trkpt>
      <trkpt lat="41.617773490" lon="2.521106820">
        <ele>207.20</ele>
        <time>2014-03-02T08:20:37Z</time>
      </trkpt>
      <trkpt lat="41.617780020" lon="2.521131800">
        <ele>207.30</ele>
        <time>2014-03-02T08:20:38Z</time>
      </trkpt>
      <trkpt lat="41.617786730" lon="2.521156780">
        <ele>207.40</ele>
        <time>2014-03-02T08:20:39Z</time>
      </trkpt>
      <trkpt lat="41.617793440" lon="2.521181750">
        <ele>206.80</ele>
        <time>2014-03-02T08:20:40Z</time>
      </trkpt>
      <trkpt lat="41.617800140" lon="2.521205060">
        <ele>206.40</ele>
        <time>2014-03-02T08:20:41Z</time>
      </trkpt>
      <trkpt lat="41.617808360" lon="2.521228360">
        <ele>206.90</ele>
        <time>2014-03-02T08:20:42Z</time>
      </trkpt>
      <trkpt lat="41.617815060" lon="2.521251830">
        <ele>207.20</ele>
        <time>2014-03-02T08:20:43Z</time>
      </trkpt>
      <trkpt lat="41.617821770" lon="2.521276800">
        <ele>207.00</ele>
        <time>2014-03-02T08:20:44Z</time>
      </trkpt>
      <trkpt lat="41.617830150" lon="2.521301780">
        <ele>206.90</ele>
        <time>2014-03-02T08:20:45Z</time>
      </trkpt>
      <trkpt lat="41.617838360" lon="2.521325080">
        <ele>206.80</ele>
        <time>2014-03-02T08:20:46Z</time>
      </trkpt>
      <trkpt lat="41.617846740" lon="2.521350060">
        <ele>207.00</ele>
        <time>2014-03-02T08:20:47Z</time>
      </trkpt>
      <trkpt lat="41.617853450" lon="2.521375040">
        <ele>207.10</ele>
        <time>2014-03-02T08:20:48Z</time>
      </trkpt>
      <trkpt lat="41.617861660" lon="2.521401690">
        <ele>207.30</ele>
        <time>2014-03-02T08:20:49Z</time>
      </trkpt>
      <trkpt lat="41.617868370" lon="2.521428350">
        <ele>207.40</ele>
        <time>2014-03-02T08:20:50Z</time>
      </trkpt>
      <trkpt lat="41.617875080" lon="2.521453490">
        <ele>207.40</ele>
        <time>2014-03-02T08:20:51Z</time>
      </trkpt>
      <trkpt lat="41.617881780" lon="2.521476800">
        <ele>207.50</ele>
        <time>2014-03-02T08:20:52Z</time>
      </trkpt>
      <trkpt lat="41.617886810" lon="2.521501770">
        <ele>207.50</ele>
        <time>2014-03-02T08:20:53Z</time>
      </trkpt>
      <trkpt lat="41.617895020" lon="2.521523400">
        <ele>207.70</ele>
        <time>2014-03-02T08:20:54Z</time>
      </trkpt>
      <trkpt lat="41.617903410" lon="2.521545030">
        <ele>207.80</ele>
        <time>2014-03-02T08:20:55Z</time>
      </trkpt>
      <trkpt lat="41.617910110" lon="2.521568490">
        <ele>208.00</ele>
        <time>2014-03-02T08:20:56Z</time>
      </trkpt>
      <trkpt lat="41.617918490" lon="2.521590120">
        <ele>208.10</ele>
        <time>2014-03-02T08:20:57Z</time>
      </trkpt>
      <trkpt lat="41.617926710" lon="2.521610070">
        <ele>208.20</ele>
        <time>2014-03-02T08:20:58Z</time>
      </trkpt>
      <trkpt lat="41.617938440" lon="2.521626660">
        <ele>208.70</ele>
        <time>2014-03-02T08:20:59Z</time>
      </trkpt>
      <trkpt lat="41.617948330" lon="2.521646780">
        <ele>209.10</ele>
        <time>2014-03-02T08:21:00Z</time>
      </trkpt>
      <trkpt lat="41.617961740" lon="2.521663380">
        <ele>209.10</ele>
        <time>2014-03-02T08:21:01Z</time>
      </trkpt>
      <trkpt lat="41.617975160" lon="2.521676790">
        <ele>209.10</ele>
        <time>2014-03-02T08:21:02Z</time>
      </trkpt>
      <trkpt lat="41.617988400" lon="2.521678470">
        <ele>209.50</ele>
        <time>2014-03-02T08:21:03Z</time>
      </trkpt>
      <trkpt lat="41.617998460" lon="2.521671760">
        <ele>209.80</ele>
        <time>2014-03-02T08:21:04Z</time>
      </trkpt>
      <trkpt lat="41.618010020" lon="2.521660020">
        <ele>210.10</ele>
        <time>2014-03-02T08:21:05Z</time>
      </trkpt>
      <trkpt lat="41.618018410" lon="2.521641750">
        <ele>210.40</ele>
        <time>2014-03-02T08:21:06Z</time>
      </trkpt>
      <trkpt lat="41.618026790" lon="2.521621800">
        <ele>210.70</ele>
        <time>2014-03-02T08:21:07Z</time>
      </trkpt>
      <trkpt lat="41.618033490" lon="2.521605040">
        <ele>210.90</ele>
        <time>2014-03-02T08:21:08Z</time>
      </trkpt>
      <trkpt lat="41.618038360" lon="2.521586770">
        <ele>211.00</ele>
        <time>2014-03-02T08:21:09Z</time>
      </trkpt>
      <trkpt lat="41.618043380" lon="2.521566820">
        <ele>211.10</ele>
        <time>2014-03-02T08:21:10Z</time>
      </trkpt>
      <trkpt lat="41.618048410" lon="2.521546700">
        <ele>211.10</ele>
        <time>2014-03-02T08:21:11Z</time>
      </trkpt>
      <trkpt lat="41.618055120" lon="2.521528430">
        <ele>211.10</ele>
        <time>2014-03-02T08:21:12Z</time>
      </trkpt>
      <trkpt lat="41.618061820" lon="2.521510160">
        <ele>211.40</ele>
        <time>2014-03-02T08:21:13Z</time>
      </trkpt>
      <trkpt lat="41.618066690" lon="2.521491720">
        <ele>211.50</ele>
        <time>2014-03-02T08:21:14Z</time>
      </trkpt>
      <trkpt lat="41.618075070" lon="2.521475120">
        <ele>211.90</ele>
        <time>2014-03-02T08:21:15Z</time>
      </trkpt>
      <trkpt lat="41.618081770" lon="2.521456680">
        <ele>212.20</ele>
        <time>2014-03-02T08:21:16Z</time>
      </trkpt>
      <trkpt lat="41.618090160" lon="2.521440080">
        <ele>212.40</ele>
        <time>2014-03-02T08:21:17Z</time>
      </trkpt>
      <trkpt lat="41.618100050" lon="2.521425000">
        <ele>212.60</ele>
        <time>2014-03-02T08:21:18Z</time>
      </trkpt>
      <trkpt lat="41.618108430" lon="2.521408400">
        <ele>212.70</ele>
        <time>2014-03-02T08:21:19Z</time>
      </trkpt>
      <trkpt lat="41.618116810" lon="2.521391800">
        <ele>212.80</ele>
        <time>2014-03-02T08:21:20Z</time>
      </trkpt>
      <trkpt lat="41.618125020" lon="2.521373360">
        <ele>212.90</ele>
        <time>2014-03-02T08:21:21Z</time>
      </trkpt>
      <trkpt lat="41.618133410" lon="2.521356770">
        <ele>213.40</ele>
        <time>2014-03-02T08:21:22Z</time>
      </trkpt>
      <trkpt lat="41.618141790" lon="2.521338500">
        <ele>213.70</ele>
        <time>2014-03-02T08:21:23Z</time>
      </trkpt>
      <trkpt lat="41.618151680" lon="2.521323410">
        <ele>213.90</ele>
        <time>2014-03-02T08:21:24Z</time>
      </trkpt>
      <trkpt lat="41.618161740" lon="2.521308490">
        <ele>214.00</ele>
        <time>2014-03-02T08:21:25Z</time>
      </trkpt>
      <trkpt lat="41.618173470" lon="2.521291720">
        <ele>214.20</ele>
        <time>2014-03-02T08:21:26Z</time>
      </trkpt>
      <trkpt lat="41.618183360" lon="2.521276800">
        <ele>214.40</ele>
        <time>2014-03-02T08:21:27Z</time>
      </trkpt>
      <trkpt lat="41.618191740" lon="2.521260040">
        <ele>214.70</ele>
        <time>2014-03-02T08:21:28Z</time>
      </trkpt>
      <trkpt lat="41.618200130" lon="2.521243440">
        <ele>215.10</ele>
        <time>2014-03-02T08:21:29Z</time>
      </trkpt>
      <trkpt lat="41.618206660" lon="2.521230030">
        <ele>215.40</ele>
        <time>2014-03-02T08:21:30Z</time>
      </trkpt>
      <trkpt lat="41.618215050" lon="2.521216790">
        <ele>215.60</ele>
        <time>2014-03-02T08:21:31Z</time>
      </trkpt>
      <trkpt lat="41.618221750" lon="2.521200030">
        <ele>216.10</ele>
        <time>2014-03-02T08:21:32Z</time>
      </trkpt>
      <trkpt lat="41.618228460" lon="2.521186780">
        <ele>216.40</ele>
        <time>2014-03-02T08:21:33Z</time>
      </trkpt>
      <trkpt lat="41.618235160" lon="2.521171700">
        <ele>216.80</ele>
        <time>2014-03-02T08:21:34Z</time>
      </trkpt>
      <trkpt lat="41.618243380" lon="2.521156780">
        <ele>217.00</ele>
        <time>2014-03-02T08:21:35Z</time>
      </trkpt>
      <trkpt lat="41.618250080" lon="2.521141690">
        <ele>217.20</ele>
        <time>2014-03-02T08:21:36Z</time>
      </trkpt>
      <trkpt lat="41.618256790" lon="2.521125090">
        <ele>217.40</ele>
        <time>2014-03-02T08:21:37Z</time>
      </trkpt>
      <trkpt lat="41.618263490" lon="2.521108500">
        <ele>217.50</ele>
        <time>2014-03-02T08:21:38Z</time>
      </trkpt>
      <trkpt lat="41.618268350" lon="2.521090060">
        <ele>217.40</ele>
        <time>2014-03-02T08:21:39Z</time>
      </trkpt>
      <trkpt lat="41.618273380" lon="2.521071780">
        <ele>217.30</ele>
        <time>2014-03-02T08:21:40Z</time>
      </trkpt>
      <trkpt lat="41.618276740" lon="2.521053340">
        <ele>217.60</ele>
        <time>2014-03-02T08:21:41Z</time>
      </trkpt>
      <trkpt lat="41.618283440" lon="2.521036750">
        <ele>217.80</ele>
        <time>2014-03-02T08:21:42Z</time>
      </trkpt>
      <trkpt lat="41.618288470" lon="2.521018470">
        <ele>217.90</ele>
        <time>2014-03-02T08:21:43Z</time>
      </trkpt>
      <trkpt lat="41.618293330" lon="2.521000030">
        <ele>218.00</ele>
        <time>2014-03-02T08:21:44Z</time>
      </trkpt>
      <trkpt lat="41.618298360" lon="2.520983440">
        <ele>218.10</ele>
        <time>2014-03-02T08:21:45Z</time>
      </trkpt>
      <trkpt lat="41.618301710" lon="2.520965000">
        <ele>218.20</ele>
        <time>2014-03-02T08:21:46Z</time>
      </trkpt>
      <trkpt lat="41.618305070" lon="2.520948400">
        <ele>218.30</ele>
        <time>2014-03-02T08:21:47Z</time>
      </trkpt>
      <trkpt lat="41.618306740" lon="2.520931810">
        <ele>219.00</ele>
        <time>2014-03-02T08:21:48Z</time>
      </trkpt>
      <trkpt lat="41.618310100" lon="2.520913360">
        <ele>219.50</ele>
        <time>2014-03-02T08:21:49Z</time>
      </trkpt>
      <trkpt lat="41.618313450" lon="2.520896770">
        <ele>219.80</ele>
        <time>2014-03-02T08:21:50Z</time>
      </trkpt>
      <trkpt lat="41.618316800" lon="2.520880000">
        <ele>220.00</ele>
        <time>2014-03-02T08:21:51Z</time>
      </trkpt>
      <trkpt lat="41.618318480" lon="2.520863410">
        <ele>220.10</ele>
        <time>2014-03-02T08:21:52Z</time>
      </trkpt>
      <trkpt lat="41.618321660" lon="2.520845140">
        <ele>220.30</ele>
        <time>2014-03-02T08:21:53Z</time>
      </trkpt>
      <trkpt lat="41.618325020" lon="2.520828370">
        <ele>220.50</ele>
        <time>2014-03-02T08:21:54Z</time>
      </trkpt>
      <trkpt lat="41.618328370" lon="2.520811780">
        <ele>220.50</ele>
        <time>2014-03-02T08:21:55Z</time>
      </trkpt>
      <trkpt lat="41.618331720" lon="2.520795010">
        <ele>220.60</ele>
        <time>2014-03-02T08:21:56Z</time>
      </trkpt>
      <trkpt lat="41.618338430" lon="2.520780090">
        <ele>220.60</ele>
        <time>2014-03-02T08:21:57Z</time>
      </trkpt>
      <trkpt lat="41.618345130" lon="2.520763330">
        <ele>221.10</ele>
        <time>2014-03-02T08:21:58Z</time>
      </trkpt>
      <trkpt lat="41.618351670" lon="2.520748410">
        <ele>221.50</ele>
        <time>2014-03-02T08:21:59Z</time>
      </trkpt>
      <trkpt lat="41.618360050" lon="2.520733490">
        <ele>221.60</ele>
        <time>2014-03-02T08:22:00Z</time>
      </trkpt>
      <trkpt lat="41.618370110" lon="2.520718400">
        <ele>221.70</ele>
        <time>2014-03-02T08:22:01Z</time>
      </trkpt>
      <trkpt lat="41.618380000" lon="2.520705160">
        <ele>221.80</ele>
        <time>2014-03-02T08:22:02Z</time>
      </trkpt>
      <trkpt lat="41.618390060" lon="2.520691750">
        <ele>221.80</ele>
        <time>2014-03-02T08:22:03Z</time>
      </trkpt>
      <trkpt lat="41.618401790" lon="2.520678340">
        <ele>221.70</ele>
        <time>2014-03-02T08:22:04Z</time>
      </trkpt>
      <trkpt lat="41.618413360" lon="2.520668450">
        <ele>222.20</ele>
        <time>2014-03-02T08:22:05Z</time>
      </trkpt>
      <trkpt lat="41.618426770" lon="2.520660060">
        <ele>222.60</ele>
        <time>2014-03-02T08:22:06Z</time>
      </trkpt>
      <trkpt lat="41.618436660" lon="2.520653360">
        <ele>222.50</ele>
        <time>2014-03-02T08:22:07Z</time>
      </trkpt>
      <trkpt lat="41.618446720" lon="2.520648330">
        <ele>222.40</ele>
        <time>2014-03-02T08:22:08Z</time>
      </trkpt>
      <trkpt lat="41.618460130" lon="2.520643470">
        <ele>222.30</ele>
        <time>2014-03-02T08:22:09Z</time>
      </trkpt>
      <trkpt lat="41.618471700" lon="2.520636760">
        <ele>222.30</ele>
        <time>2014-03-02T08:22:10Z</time>
      </trkpt>
      <trkpt lat="41.618485110" lon="2.520631730">
        <ele>222.40</ele>
        <time>2014-03-02T08:22:11Z</time>
      </trkpt>
      <trkpt lat="41.618498350" lon="2.520626700">
        <ele>223.20</ele>
        <time>2014-03-02T08:22:12Z</time>
      </trkpt>
      <trkpt lat="41.618511760" lon="2.520623350">
        <ele>223.80</ele>
        <time>2014-03-02T08:22:13Z</time>
      </trkpt>
      <trkpt lat="41.618525010" lon="2.520618490">
        <ele>224.10</ele>
        <time>2014-03-02T08:22:14Z</time>
      </trkpt>
      <trkpt lat="41.618536740" lon="2.520616810">
        <ele>224.20</ele>
        <time>2014-03-02T08:22:15Z</time>
      </trkpt>
      <trkpt lat="41.618548480" lon="2.520616810">
        <ele>224.30</ele>
        <time>2014-03-02T08:22:16Z</time>
      </trkpt>
      <trkpt lat="41.618561720" lon="2.520616810">
        <ele>224.60</ele>
        <time>2014-03-02T08:22:17Z</time>
      </trkpt>
      <trkpt lat="41.618573460" lon="2.520613460">
        <ele>224.90</ele>
        <time>2014-03-02T08:22:18Z</time>
      </trkpt>
      <trkpt lat="41.618585020" lon="2.520611780">
        <ele>225.10</ele>
        <time>2014-03-02T08:22:19Z</time>
      </trkpt>
      <trkpt lat="41.618598430" lon="2.520608430">
        <ele>225.20</ele>
        <time>2014-03-02T08:22:20Z</time>
      </trkpt>
      <trkpt lat="41.618610000" lon="2.520608430">
        <ele>225.30</ele>
        <time>2014-03-02T08:22:21Z</time>
      </trkpt>
      <trkpt lat="41.618623410" lon="2.520606750">
        <ele>225.40</ele>
        <time>2014-03-02T08:22:22Z</time>
      </trkpt>
      <trkpt lat="41.618635150" lon="2.520605080">
        <ele>225.40</ele>
        <time>2014-03-02T08:22:23Z</time>
      </trkpt>
      <trkpt lat="41.618646710" lon="2.520601730">
        <ele>225.60</ele>
        <time>2014-03-02T08:22:24Z</time>
      </trkpt>
      <trkpt lat="41.618658450" lon="2.520600050">
        <ele>225.80</ele>
        <time>2014-03-02T08:22:25Z</time>
      </trkpt>
      <trkpt lat="41.618671690" lon="2.520596700">
        <ele>225.90</ele>
        <time>2014-03-02T08:22:26Z</time>
      </trkpt>
      <trkpt lat="41.618683430" lon="2.520593340">
        <ele>226.10</ele>
        <time>2014-03-02T08:22:27Z</time>
      </trkpt>
      <trkpt lat="41.618693480" lon="2.520590160">
        <ele>226.10</ele>
        <time>2014-03-02T08:22:28Z</time>
      </trkpt>
      <trkpt lat="41.618706730" lon="2.520588480">
        <ele>226.30</ele>
        <time>2014-03-02T08:22:29Z</time>
      </trkpt>
      <trkpt lat="41.618720140" lon="2.520585130">
        <ele>226.30</ele>
        <time>2014-03-02T08:22:30Z</time>
      </trkpt>
      <trkpt lat="41.618733380" lon="2.520581780">
        <ele>226.40</ele>
        <time>2014-03-02T08:22:31Z</time>
      </trkpt>
      <trkpt lat="41.618746790" lon="2.520578420">
        <ele>226.50</ele>
        <time>2014-03-02T08:22:32Z</time>
      </trkpt>
      <trkpt lat="41.618760040" lon="2.520570040">
        <ele>226.50</ele>
        <time>2014-03-02T08:22:33Z</time>
      </trkpt>
      <trkpt lat="41.618773450" lon="2.520563340">
        <ele>226.60</ele>
        <time>2014-03-02T08:22:34Z</time>
      </trkpt>
      <trkpt lat="41.618788370" lon="2.520558480">
        <ele>226.70</ele>
        <time>2014-03-02T08:22:35Z</time>
      </trkpt>
      <trkpt lat="41.618801780" lon="2.520551770">
        <ele>227.10</ele>
        <time>2014-03-02T08:22:36Z</time>
      </trkpt>
      <trkpt lat="41.618813350" lon="2.520548420">
        <ele>227.50</ele>
        <time>2014-03-02T08:22:37Z</time>
      </trkpt>
      <trkpt lat="41.618823400" lon="2.520545060">
        <ele>227.80</ele>
        <time>2014-03-02T08:22:38Z</time>
      </trkpt>
      <trkpt lat="41.618836820" lon="2.520538360">
        <ele>228.00</ele>
        <time>2014-03-02T08:22:39Z</time>
      </trkpt>
      <trkpt lat="41.618850060" lon="2.520530140">
        <ele>228.20</ele>
        <time>2014-03-02T08:22:40Z</time>
      </trkpt>
      <trkpt lat="41.618863470" lon="2.520521760">
        <ele>228.30</ele>
        <time>2014-03-02T08:22:41Z</time>
      </trkpt>
      <trkpt lat="41.618876710" lon="2.520513380">
        <ele>228.40</ele>
        <time>2014-03-02T08:22:42Z</time>
      </trkpt>
      <trkpt lat="41.618891800" lon="2.520505000">
        <ele>228.60</ele>
        <time>2014-03-02T08:22:43Z</time>
      </trkpt>
      <trkpt lat="41.618905040" lon="2.520498460">
        <ele>228.70</ele>
        <time>2014-03-02T08:22:44Z</time>
      </trkpt>
      <trkpt lat="41.618920130" lon="2.520493430">
        <ele>229.00</ele>
        <time>2014-03-02T08:22:45Z</time>
      </trkpt>
      <trkpt lat="41.618931700" lon="2.520486730">
        <ele>229.20</ele>
        <time>2014-03-02T08:22:46Z</time>
      </trkpt>
      <trkpt lat="41.618946790" lon="2.520480020">
        <ele>229.30</ele>
        <time>2014-03-02T08:22:47Z</time>
      </trkpt>
      <trkpt lat="41.618958350" lon="2.520470130">
        <ele>229.40</ele>
        <time>2014-03-02T08:22:48Z</time>
      </trkpt>
      <trkpt lat="41.618971760" lon="2.520461750">
        <ele>229.40</ele>
        <time>2014-03-02T08:22:49Z</time>
      </trkpt>
      <trkpt lat="41.618983330" lon="2.520455040">
        <ele>229.80</ele>
        <time>2014-03-02T08:22:50Z</time>
      </trkpt>
      <trkpt lat="41.618996740" lon="2.520446830">
        <ele>230.00</ele>
        <time>2014-03-02T08:22:51Z</time>
      </trkpt>
      <trkpt lat="41.619010150" lon="2.520438450">
        <ele>230.30</ele>
        <time>2014-03-02T08:22:52Z</time>
      </trkpt>
      <trkpt lat="41.619021720" lon="2.520431740">
        <ele>230.60</ele>
        <time>2014-03-02T08:22:53Z</time>
      </trkpt>
      <trkpt lat="41.619035130" lon="2.520426710">
        <ele>230.80</ele>
        <time>2014-03-02T08:22:54Z</time>
      </trkpt>
      <trkpt lat="41.619048370" lon="2.520420010">
        <ele>231.10</ele>
        <time>2014-03-02T08:22:55Z</time>
      </trkpt>
      <trkpt lat="41.619063460" lon="2.520411790">
        <ele>231.30</ele>
        <time>2014-03-02T08:22:56Z</time>
      </trkpt>
      <trkpt lat="41.619078380" lon="2.520403410">
        <ele>231.70</ele>
        <time>2014-03-02T08:22:57Z</time>
      </trkpt>
      <trkpt lat="41.619091790" lon="2.520395030">
        <ele>231.90</ele>
        <time>2014-03-02T08:22:58Z</time>
      </trkpt>
      <trkpt lat="41.619106710" lon="2.520388490">
        <ele>232.10</ele>
        <time>2014-03-02T08:22:59Z</time>
      </trkpt>
      <trkpt lat="41.619121800" lon="2.520380110">
        <ele>232.10</ele>
        <time>2014-03-02T08:23:00Z</time>
      </trkpt>
      <trkpt lat="41.619135040" lon="2.520371730">
        <ele>232.10</ele>
        <time>2014-03-02T08:23:01Z</time>
      </trkpt>
      <trkpt lat="41.619150130" lon="2.520363340">
        <ele>232.30</ele>
        <time>2014-03-02T08:23:02Z</time>
      </trkpt>
      <trkpt lat="41.619163370" lon="2.520353450">
        <ele>232.50</ele>
        <time>2014-03-02T08:23:03Z</time>
      </trkpt>
      <trkpt lat="41.619176790" lon="2.520343400">
        <ele>232.40</ele>
        <time>2014-03-02T08:23:04Z</time>
      </trkpt>
      <trkpt lat="41.619190030" lon="2.520333340">
        <ele>232.30</ele>
        <time>2014-03-02T08:23:05Z</time>
      </trkpt>
      <trkpt lat="41.619205120" lon="2.520326800">
        <ele>232.20</ele>
        <time>2014-03-02T08:23:06Z</time>
      </trkpt>
      <trkpt lat="41.619218360" lon="2.520321770">
        <ele>232.60</ele>
        <time>2014-03-02T08:23:07Z</time>
      </trkpt>
      <trkpt lat="41.619231770" lon="2.520316740">
        <ele>232.90</ele>
        <time>2014-03-02T08:23:08Z</time>
      </trkpt>
      <trkpt lat="41.619245010" lon="2.520315060">
        <ele>233.30</ele>
        <time>2014-03-02T08:23:09Z</time>
      </trkpt>
      <trkpt lat="41.619260100" lon="2.520311710">
        <ele>233.60</ele>
        <time>2014-03-02T08:23:10Z</time>
      </trkpt>
      <trkpt lat="41.619273340" lon="2.520310040">
        <ele>233.80</ele>
        <time>2014-03-02T08:23:11Z</time>
      </trkpt>
      <trkpt lat="41.619286760" lon="2.520310040">
        <ele>234.00</ele>
        <time>2014-03-02T08:23:12Z</time>
      </trkpt>
      <trkpt lat="41.619300000" lon="2.520310040">
        <ele>234.10</ele>
        <time>2014-03-02T08:23:13Z</time>
      </trkpt>
      <trkpt lat="41.619313410" lon="2.520313390">
        <ele>234.30</ele>
        <time>2014-03-02T08:23:14Z</time>
      </trkpt>
      <trkpt lat="41.619328330" lon="2.520315060">
        <ele>234.50</ele>
        <time>2014-03-02T08:23:15Z</time>
      </trkpt>
      <trkpt lat="41.619341740" lon="2.520320090">
        <ele>234.90</ele>
        <time>2014-03-02T08:23:16Z</time>
      </trkpt>
      <trkpt lat="41.619353480" lon="2.520325120">
        <ele>235.10</ele>
        <time>2014-03-02T08:23:17Z</time>
      </trkpt>
      <trkpt lat="41.619361690" lon="2.520325120">
        <ele>235.40</ele>
        <time>2014-03-02T08:23:18Z</time>
      </trkpt>
      <trkpt lat="41.619373420" lon="2.520326800">
        <ele>235.70</ele>
        <time>2014-03-02T08:23:19Z</time>
      </trkpt>
      <trkpt lat="41.619385160" lon="2.520331830">
        <ele>236.00</ele>
        <time>2014-03-02T08:23:20Z</time>
      </trkpt>
      <trkpt lat="41.619398400" lon="2.520338370">
        <ele>236.10</ele>
        <time>2014-03-02T08:23:21Z</time>
      </trkpt>
      <trkpt lat="41.619408460" lon="2.520341720">
        <ele>236.20</ele>
        <time>2014-03-02T08:23:22Z</time>
      </trkpt>
      <trkpt lat="41.619418350" lon="2.520346750">
        <ele>236.20</ele>
        <time>2014-03-02T08:23:23Z</time>
      </trkpt>
      <trkpt lat="41.619430090" lon="2.520353450">
        <ele>236.20</ele>
        <time>2014-03-02T08:23:24Z</time>
      </trkpt>
      <trkpt lat="41.619443330" lon="2.520356810">
        <ele>236.20</ele>
        <time>2014-03-02T08:23:25Z</time>
      </trkpt>
      <trkpt lat="41.619461770" lon="2.520358480">
        <ele>236.50</ele>
        <time>2014-03-02T08:23:26Z</time>
      </trkpt>
      <trkpt lat="41.619476690" lon="2.520361670">
        <ele>236.70</ele>
        <time>2014-03-02T08:23:27Z</time>
      </trkpt>
      <trkpt lat="41.619490100" lon="2.520363340">
        <ele>237.00</ele>
        <time>2014-03-02T08:23:28Z</time>
      </trkpt>
      <trkpt lat="41.619503340" lon="2.520363340">
        <ele>237.30</ele>
        <time>2014-03-02T08:23:29Z</time>
      </trkpt>
      <trkpt lat="41.619515080" lon="2.520360160">
        <ele>237.30</ele>
        <time>2014-03-02T08:23:30Z</time>
      </trkpt>
      <trkpt lat="41.619526810" lon="2.520356810">
        <ele>237.40</ele>
        <time>2014-03-02T08:23:31Z</time>
      </trkpt>
      <trkpt lat="41.619536700" lon="2.520350100">
        <ele>237.40</ele>
        <time>2014-03-02T08:23:32Z</time>
      </trkpt>
      <trkpt lat="41.619548440" lon="2.520345070">
        <ele>237.70</ele>
        <time>2014-03-02T08:23:33Z</time>
      </trkpt>
      <trkpt lat="41.619558330" lon="2.520343400">
        <ele>237.80</ele>
        <time>2014-03-02T08:23:34Z</time>
      </trkpt>
      <trkpt lat="41.619568390" lon="2.520346750">
        <ele>238.00</ele>
        <time>2014-03-02T08:23:35Z</time>
      </trkpt>
      <trkpt lat="41.619581800" lon="2.520343400">
        <ele>238.10</ele>
        <time>2014-03-02T08:23:36Z</time>
      </trkpt>
      <trkpt lat="41.619593370" lon="2.520343400">
        <ele>238.20</ele>
        <time>2014-03-02T08:23:37Z</time>
      </trkpt>
      <trkpt lat="41.619605100" lon="2.520338370">
        <ele>238.80</ele>
        <time>2014-03-02T08:23:38Z</time>
      </trkpt>
      <trkpt lat="41.619618340" lon="2.520333340">
        <ele>239.20</ele>
        <time>2014-03-02T08:23:39Z</time>
      </trkpt>
      <trkpt lat="41.619630080" lon="2.520326800">
        <ele>239.50</ele>
        <time>2014-03-02T08:23:40Z</time>
      </trkpt>
      <trkpt lat="41.619643490" lon="2.520321770">
        <ele>239.70</ele>
        <time>2014-03-02T08:23:41Z</time>
      </trkpt>
      <trkpt lat="41.619656730" lon="2.520316740">
        <ele>240.40</ele>
        <time>2014-03-02T08:23:42Z</time>
      </trkpt>
      <trkpt lat="41.619670140" lon="2.520311710">
        <ele>240.90</ele>
        <time>2014-03-02T08:23:43Z</time>
      </trkpt>
      <trkpt lat="41.619685060" lon="2.520306680">
        <ele>241.30</ele>
        <time>2014-03-02T08:23:44Z</time>
      </trkpt>
      <trkpt lat="41.619696800" lon="2.520303330">
        <ele>241.10</ele>
        <time>2014-03-02T08:23:45Z</time>
      </trkpt>
      <trkpt lat="41.619710040" lon="2.520298470">
        <ele>241.00</ele>
        <time>2014-03-02T08:23:46Z</time>
      </trkpt>
      <trkpt lat="41.619723450" lon="2.520293440">
        <ele>241.00</ele>
        <time>2014-03-02T08:23:47Z</time>
      </trkpt>
      <trkpt lat="41.619735020" lon="2.520288410">
        <ele>241.10</ele>
        <time>2014-03-02T08:23:48Z</time>
      </trkpt>
      <trkpt lat="41.619748430" lon="2.520285060">
        <ele>241.60</ele>
        <time>2014-03-02T08:23:49Z</time>
      </trkpt>
      <trkpt lat="41.619760000" lon="2.520280030">
        <ele>242.00</ele>
        <time>2014-03-02T08:23:50Z</time>
      </trkpt>
      <trkpt lat="41.619771730" lon="2.520275000">
        <ele>242.20</ele>
        <time>2014-03-02T08:23:51Z</time>
      </trkpt>
      <trkpt lat="41.619783470" lon="2.520268460">
        <ele>242.80</ele>
        <time>2014-03-02T08:23:52Z</time>
      </trkpt>
      <trkpt lat="41.619795030" lon="2.520261760">
        <ele>243.20</ele>
        <time>2014-03-02T08:23:53Z</time>
      </trkpt>
      <trkpt lat="41.619808450" lon="2.520255050">
        <ele>243.20</ele>
        <time>2014-03-02T08:23:54Z</time>
      </trkpt>
      <trkpt lat="41.619821690" lon="2.520250020">
        <ele>243.20</ele>
        <time>2014-03-02T08:23:55Z</time>
      </trkpt>
      <trkpt lat="41.619835100" lon="2.520241810">
        <ele>243.60</ele>
        <time>2014-03-02T08:23:56Z</time>
      </trkpt>
      <trkpt lat="41.619848340" lon="2.520233420">
        <ele>243.90</ele>
        <time>2014-03-02T08:23:57Z</time>
      </trkpt>
      <trkpt lat="41.619858400" lon="2.520226720">
        <ele>244.10</ele>
        <time>2014-03-02T08:23:58Z</time>
      </trkpt>
      <trkpt lat="41.619870140" lon="2.520218340">
        <ele>244.10</ele>
        <time>2014-03-02T08:23:59Z</time>
      </trkpt>
      <trkpt lat="41.619881700" lon="2.520211800">
        <ele>244.10</ele>
        <time>2014-03-02T08:24:00Z</time>
      </trkpt>
      <trkpt lat="41.619893440" lon="2.520203420">
        <ele>244.00</ele>
        <time>2014-03-02T08:24:01Z</time>
      </trkpt>
      <trkpt lat="41.619906680" lon="2.520198390">
        <ele>244.00</ele>
        <time>2014-03-02T08:24:02Z</time>
      </trkpt>
      <trkpt lat="41.619918420" lon="2.520190010">
        <ele>244.00</ele>
        <time>2014-03-02T08:24:03Z</time>
      </trkpt>
      <trkpt lat="41.619930150" lon="2.520183470">
        <ele>244.80</ele>
        <time>2014-03-02T08:24:04Z</time>
      </trkpt>
      <trkpt lat="41.619943390" lon="2.520175090">
        <ele>245.40</ele>
        <time>2014-03-02T08:24:05Z</time>
      </trkpt>
      <trkpt lat="41.619955130" lon="2.520168380">
        <ele>245.80</ele>
        <time>2014-03-02T08:24:06Z</time>
      </trkpt>
      <trkpt lat="41.619966700" lon="2.520161680">
        <ele>246.10</ele>
        <time>2014-03-02T08:24:07Z</time>
      </trkpt>
      <trkpt lat="41.619980110" lon="2.520155140">
        <ele>246.30</ele>
        <time>2014-03-02T08:24:08Z</time>
      </trkpt>
      <trkpt lat="41.619993350" lon="2.520148430">
        <ele>246.50</ele>
        <time>2014-03-02T08:24:09Z</time>
      </trkpt>
      <trkpt lat="41.620006760" lon="2.520143400">
        <ele>246.60</ele>
        <time>2014-03-02T08:24:10Z</time>
      </trkpt>
      <trkpt lat="41.620018500" lon="2.520138370">
        <ele>246.50</ele>
        <time>2014-03-02T08:24:11Z</time>
      </trkpt>
      <trkpt lat="41.620033420" lon="2.520135020">
        <ele>246.50</ele>
        <time>2014-03-02T08:24:12Z</time>
      </trkpt>
      <trkpt lat="41.620046830" lon="2.520131670">
        <ele>246.60</ele>
        <time>2014-03-02T08:24:13Z</time>
      </trkpt>
      <trkpt lat="41.620061750" lon="2.520130160">
        <ele>246.60</ele>
        <time>2014-03-02T08:24:14Z</time>
      </trkpt>
      <trkpt lat="41.620075160" lon="2.520128480">
        <ele>247.00</ele>
        <time>2014-03-02T08:24:15Z</time>
      </trkpt>
      <trkpt lat="41.620090080" lon="2.520126810">
        <ele>247.30</ele>
        <time>2014-03-02T08:24:16Z</time>
      </trkpt>
      <trkpt lat="41.620105000" lon="2.520126810">
        <ele>247.50</ele>
        <time>2014-03-02T08:24:17Z</time>
      </trkpt>
      <trkpt lat="41.620118410" lon="2.520126810">
        <ele>247.80</ele>
        <time>2014-03-02T08:24:18Z</time>
      </trkpt>
      <trkpt lat="41.620133500" lon="2.520126810">
        <ele>248.00</ele>
        <time>2014-03-02T08:24:19Z</time>
      </trkpt>
      <trkpt lat="41.620150090" lon="2.520128480">
        <ele>247.90</ele>
        <time>2014-03-02T08:24:20Z</time>
      </trkpt>
      <trkpt lat="41.620163340" lon="2.520130160">
        <ele>247.80</ele>
        <time>2014-03-02T08:24:21Z</time>
      </trkpt>
      <trkpt lat="41.620178420" lon="2.520128480">
        <ele>247.80</ele>
        <time>2014-03-02T08:24:22Z</time>
      </trkpt>
      <trkpt lat="41.620193340" lon="2.520130160">
        <ele>248.30</ele>
        <time>2014-03-02T08:24:23Z</time>
      </trkpt>
      <trkpt lat="41.620208430" lon="2.520130160">
        <ele>248.70</ele>
        <time>2014-03-02T08:24:24Z</time>
      </trkpt>
      <trkpt lat="41.620221670" lon="2.520135020">
        <ele>249.40</ele>
        <time>2014-03-02T08:24:25Z</time>
      </trkpt>
      <trkpt lat="41.620236760" lon="2.520138370">
        <ele>249.90</ele>
        <time>2014-03-02T08:24:26Z</time>
      </trkpt>
      <trkpt lat="41.620251680" lon="2.520143400">
        <ele>250.10</ele>
        <time>2014-03-02T08:24:27Z</time>
      </trkpt>
      <trkpt lat="41.620266770" lon="2.520145080">
        <ele>250.30</ele>
        <time>2014-03-02T08:24:28Z</time>
      </trkpt>
      <trkpt lat="41.620280010" lon="2.520148430">
        <ele>250.50</ele>
        <time>2014-03-02T08:24:29Z</time>
      </trkpt>
      <trkpt lat="41.620291750" lon="2.520148430">
        <ele>250.60</ele>
        <time>2014-03-02T08:24:30Z</time>
      </trkpt>
      <trkpt lat="41.620301800" lon="2.520150110">
        <ele>250.70</ele>
        <time>2014-03-02T08:24:31Z</time>
      </trkpt>
      <trkpt lat="41.620316720" lon="2.520153460">
        <ele>250.50</ele>
        <time>2014-03-02T08:24:32Z</time>
      </trkpt>
      <trkpt lat="41.620330130" lon="2.520153460">
        <ele>250.40</ele>
        <time>2014-03-02T08:24:33Z</time>
      </trkpt>
      <trkpt lat="41.620343380" lon="2.520155140">
        <ele>250.90</ele>
        <time>2014-03-02T08:24:34Z</time>
      </trkpt>
      <trkpt lat="41.620355110" lon="2.520158490">
        <ele>251.30</ele>
        <time>2014-03-02T08:24:35Z</time>
      </trkpt>
      <trkpt lat="41.620368360" lon="2.520161680">
        <ele>251.50</ele>
        <time>2014-03-02T08:24:36Z</time>
      </trkpt>
      <trkpt lat="41.620380090" lon="2.520165030">
        <ele>251.60</ele>
        <time>2014-03-02T08:24:37Z</time>
      </trkpt>
      <trkpt lat="41.620393330" lon="2.520168380">
        <ele>251.60</ele>
        <time>2014-03-02T08:24:38Z</time>
      </trkpt>
      <trkpt lat="41.620406750" lon="2.520170060">
        <ele>251.90</ele>
        <time>2014-03-02T08:24:39Z</time>
      </trkpt>
      <trkpt lat="41.620418480" lon="2.520171730">
        <ele>252.10</ele>
        <time>2014-03-02T08:24:40Z</time>
      </trkpt>
      <trkpt lat="41.620431720" lon="2.520171730">
        <ele>252.30</ele>
        <time>2014-03-02T08:24:41Z</time>
      </trkpt>
      <trkpt lat="41.620445130" lon="2.520173410">
        <ele>252.30</ele>
        <time>2014-03-02T08:24:42Z</time>
      </trkpt>
      <trkpt lat="41.620458380" lon="2.520175090">
        <ele>252.20</ele>
        <time>2014-03-02T08:24:43Z</time>
      </trkpt>
      <trkpt lat="41.620473470" lon="2.520175090">
        <ele>252.20</ele>
        <time>2014-03-02T08:24:44Z</time>
      </trkpt>
      <trkpt lat="41.620486710" lon="2.520176760">
        <ele>252.20</ele>
        <time>2014-03-02T08:24:45Z</time>
      </trkpt>
      <trkpt lat="41.620500120" lon="2.520178440">
        <ele>252.40</ele>
        <time>2014-03-02T08:24:46Z</time>
      </trkpt>
      <trkpt lat="41.620511690" lon="2.520181790">
        <ele>252.50</ele>
        <time>2014-03-02T08:24:47Z</time>
      </trkpt>
      <trkpt lat="41.620523420" lon="2.520181790">
        <ele>252.60</ele>
        <time>2014-03-02T08:24:48Z</time>
      </trkpt>
      <trkpt lat="41.620536670" lon="2.520183470">
        <ele>253.20</ele>
        <time>2014-03-02T08:24:49Z</time>
      </trkpt>
      <trkpt lat="41.620550080" lon="2.520183470">
        <ele>253.60</ele>
        <time>2014-03-02T08:24:50Z</time>
      </trkpt>
      <trkpt lat="41.620563490" lon="2.520183470">
        <ele>253.50</ele>
        <time>2014-03-02T08:24:51Z</time>
      </trkpt>
      <trkpt lat="41.620578410" lon="2.520185150">
        <ele>253.40</ele>
        <time>2014-03-02T08:24:52Z</time>
      </trkpt>
      <trkpt lat="41.620593490" lon="2.520186820">
        <ele>253.60</ele>
        <time>2014-03-02T08:24:53Z</time>
      </trkpt>
      <trkpt lat="41.620606740" lon="2.520185150">
        <ele>253.70</ele>
        <time>2014-03-02T08:24:54Z</time>
      </trkpt>
      <trkpt lat="41.620621830" lon="2.520186820">
        <ele>253.80</ele>
        <time>2014-03-02T08:24:55Z</time>
      </trkpt>
      <trkpt lat="41.620635070" lon="2.520188330">
        <ele>254.10</ele>
        <time>2014-03-02T08:24:56Z</time>
      </trkpt>
      <trkpt lat="41.620650160" lon="2.520188330">
        <ele>254.30</ele>
        <time>2014-03-02T08:24:57Z</time>
      </trkpt>
      <trkpt lat="41.620663400" lon="2.520188330">
        <ele>254.30</ele>
        <time>2014-03-02T08:24:58Z</time>
      </trkpt>
      <trkpt lat="41.620678490" lon="2.520190010">
        <ele>254.30</ele>
        <time>2014-03-02T08:24:59Z</time>
      </trkpt>
      <trkpt lat="41.620691730" lon="2.520191680">
        <ele>254.30</ele>
        <time>2014-03-02T08:25:00Z</time>
      </trkpt>
      <trkpt lat="41.620706820" lon="2.520193360">
        <ele>254.50</ele>
        <time>2014-03-02T08:25:01Z</time>
      </trkpt>
      <trkpt lat="41.620720060" lon="2.520195040">
        <ele>254.60</ele>
        <time>2014-03-02T08:25:02Z</time>
      </trkpt>
      <trkpt lat="41.620731800" lon="2.520196710">
        <ele>254.60</ele>
        <time>2014-03-02T08:25:03Z</time>
      </trkpt>
      <trkpt lat="41.620745040" lon="2.520198390">
        <ele>254.60</ele>
        <time>2014-03-02T08:25:04Z</time>
      </trkpt>
      <trkpt lat="41.620756770" lon="2.520198390">
        <ele>254.90</ele>
        <time>2014-03-02T08:25:05Z</time>
      </trkpt>
      <trkpt lat="41.620768340" lon="2.520201740">
        <ele>255.20</ele>
        <time>2014-03-02T08:25:06Z</time>
      </trkpt>
      <trkpt lat="41.620781750" lon="2.520205090">
        <ele>255.40</ele>
        <time>2014-03-02T08:25:07Z</time>
      </trkpt>
      <trkpt lat="41.620793490" lon="2.520208450">
        <ele>255.70</ele>
        <time>2014-03-02T08:25:08Z</time>
      </trkpt>
      <trkpt lat="41.620808410" lon="2.520211800">
        <ele>255.90</ele>
        <time>2014-03-02T08:25:09Z</time>
      </trkpt>
      <trkpt lat="41.620821820" lon="2.520213480">
        <ele>255.80</ele>
        <time>2014-03-02T08:25:10Z</time>
      </trkpt>
      <trkpt lat="41.620835060" lon="2.520215150">
        <ele>255.70</ele>
        <time>2014-03-02T08:25:11Z</time>
      </trkpt>
      <trkpt lat="41.620848470" lon="2.520216830">
        <ele>256.30</ele>
        <time>2014-03-02T08:25:12Z</time>
      </trkpt>
      <trkpt lat="41.620861720" lon="2.520218340">
        <ele>256.70</ele>
        <time>2014-03-02T08:25:13Z</time>
      </trkpt>
      <trkpt lat="41.620873450" lon="2.520221690">
        <ele>257.10</ele>
        <time>2014-03-02T08:25:14Z</time>
      </trkpt>
      <trkpt lat="41.620886690" lon="2.520225040">
        <ele>257.20</ele>
        <time>2014-03-02T08:25:15Z</time>
      </trkpt>
      <trkpt lat="41.620898430" lon="2.520226720">
        <ele>257.40</ele>
        <time>2014-03-02T08:25:16Z</time>
      </trkpt>
      <trkpt lat="41.620911670" lon="2.520230070">
        <ele>257.70</ele>
        <time>2014-03-02T08:25:17Z</time>
      </trkpt>
      <trkpt lat="41.620926760" lon="2.520233420">
        <ele>257.90</ele>
        <time>2014-03-02T08:25:18Z</time>
      </trkpt>
      <trkpt lat="41.620941680" lon="2.520236780">
        <ele>257.80</ele>
        <time>2014-03-02T08:25:19Z</time>
      </trkpt>
      <trkpt lat="41.620956770" lon="2.520240130">
        <ele>257.80</ele>
        <time>2014-03-02T08:25:20Z</time>
      </trkpt>
      <trkpt lat="41.620971690" lon="2.520245160">
        <ele>257.70</ele>
        <time>2014-03-02T08:25:21Z</time>
      </trkpt>
      <trkpt lat="41.620986770" lon="2.520248340">
        <ele>258.20</ele>
        <time>2014-03-02T08:25:22Z</time>
      </trkpt>
      <trkpt lat="41.620998340" lon="2.520255050">
        <ele>258.50</ele>
        <time>2014-03-02T08:25:23Z</time>
      </trkpt>
      <trkpt lat="41.621011750" lon="2.520258400">
        <ele>258.80</ele>
        <time>2014-03-02T08:25:24Z</time>
      </trkpt>
      <trkpt lat="41.621025160" lon="2.520261760">
        <ele>258.90</ele>
        <time>2014-03-02T08:25:25Z</time>
      </trkpt>
      <trkpt lat="41.621040080" lon="2.520265110">
        <ele>259.10</ele>
        <time>2014-03-02T08:25:26Z</time>
      </trkpt>
      <trkpt lat="41.621055000" lon="2.520268460">
        <ele>259.00</ele>
        <time>2014-03-02T08:25:27Z</time>
      </trkpt>
      <trkpt lat="41.621070090" lon="2.520271810">
        <ele>259.00</ele>
        <time>2014-03-02T08:25:28Z</time>
      </trkpt>
      <trkpt lat="41.621083330" lon="2.520273490">
        <ele>259.20</ele>
        <time>2014-03-02T08:25:29Z</time>
      </trkpt>
      <trkpt lat="41.621096740" lon="2.520276680">
        <ele>259.30</ele>
        <time>2014-03-02T08:25:30Z</time>
      </trkpt>
      <trkpt lat="41.621108480" lon="2.520278350">
        <ele>259.60</ele>
        <time>2014-03-02T08:25:31Z</time>
      </trkpt>
      <trkpt lat="41.621121720" lon="2.520281700">
        <ele>259.90</ele>
        <time>2014-03-02T08:25:32Z</time>
      </trkpt>
      <trkpt lat="41.621136810" lon="2.520285060">
        <ele>260.10</ele>
        <time>2014-03-02T08:25:33Z</time>
      </trkpt>
      <trkpt lat="41.621150050" lon="2.520286730">
        <ele>260.10</ele>
        <time>2014-03-02T08:25:34Z</time>
      </trkpt>
      <trkpt lat="41.621165140" lon="2.520288410">
        <ele>260.10</ele>
        <time>2014-03-02T08:25:35Z</time>
      </trkpt>
      <trkpt lat="41.621180060" lon="2.520286730">
        <ele>260.50</ele>
        <time>2014-03-02T08:25:36Z</time>
      </trkpt>
      <trkpt lat="41.621193470" lon="2.520286730">
        <ele>260.80</ele>
        <time>2014-03-02T08:25:37Z</time>
      </trkpt>
      <trkpt lat="41.621208390" lon="2.520288410">
        <ele>261.10</ele>
        <time>2014-03-02T08:25:38Z</time>
      </trkpt>
      <trkpt lat="41.621221800" lon="2.520288410">
        <ele>261.00</ele>
        <time>2014-03-02T08:25:39Z</time>
      </trkpt>
      <trkpt lat="41.621235050" lon="2.520290090">
        <ele>261.00</ele>
        <time>2014-03-02T08:25:40Z</time>
      </trkpt>
      <trkpt lat="41.621251810" lon="2.520291760">
        <ele>261.20</ele>
        <time>2014-03-02T08:25:41Z</time>
      </trkpt>
      <trkpt lat="41.621266730" lon="2.520293440">
        <ele>261.30</ele>
        <time>2014-03-02T08:25:42Z</time>
      </trkpt>
      <trkpt lat="41.621280140" lon="2.520291760">
        <ele>261.70</ele>
        <time>2014-03-02T08:25:43Z</time>
      </trkpt>
      <trkpt lat="41.621293380" lon="2.520291760">
        <ele>262.00</ele>
        <time>2014-03-02T08:25:44Z</time>
      </trkpt>
      <trkpt lat="41.621308470" lon="2.520293440">
        <ele>262.20</ele>
        <time>2014-03-02T08:25:45Z</time>
      </trkpt>
      <trkpt lat="41.621321710" lon="2.520295120">
        <ele>262.10</ele>
        <time>2014-03-02T08:25:46Z</time>
      </trkpt>
      <trkpt lat="41.621336800" lon="2.520296790">
        <ele>262.10</ele>
        <time>2014-03-02T08:25:47Z</time>
      </trkpt>
      <trkpt lat="41.621350040" lon="2.520300140">
        <ele>262.30</ele>
        <time>2014-03-02T08:25:48Z</time>
      </trkpt>
      <trkpt lat="41.621363460" lon="2.520301820">
        <ele>262.50</ele>
        <time>2014-03-02T08:25:49Z</time>
      </trkpt>
      <trkpt lat="41.621375020" lon="2.520305010">
        <ele>262.70</ele>
        <time>2014-03-02T08:25:50Z</time>
      </trkpt>
      <trkpt lat="41.621386760" lon="2.520306680">
        <ele>262.80</ele>
        <time>2014-03-02T08:25:51Z</time>
      </trkpt>
      <trkpt lat="41.621401680" lon="2.520310040">
        <ele>262.90</ele>
        <time>2014-03-02T08:25:52Z</time>
      </trkpt>
      <trkpt lat="41.621415090" lon="2.520313390">
        <ele>262.90</ele>
        <time>2014-03-02T08:25:53Z</time>
      </trkpt>
      <trkpt lat="41.621425150" lon="2.520318420">
        <ele>262.90</ele>
        <time>2014-03-02T08:25:54Z</time>
      </trkpt>
      <trkpt lat="41.621438390" lon="2.520323450">
        <ele>263.20</ele>
        <time>2014-03-02T08:25:55Z</time>
      </trkpt>
      <trkpt lat="41.621451800" lon="2.520326800">
        <ele>263.50</ele>
        <time>2014-03-02T08:25:56Z</time>
      </trkpt>
      <trkpt lat="41.621465040" lon="2.520331830">
        <ele>263.70</ele>
        <time>2014-03-02T08:25:57Z</time>
      </trkpt>
      <trkpt lat="41.621480130" lon="2.520336690">
        <ele>264.10</ele>
        <time>2014-03-02T08:25:58Z</time>
      </trkpt>
      <trkpt lat="41.621493380" lon="2.520340040">
        <ele>264.40</ele>
        <time>2014-03-02T08:25:59Z</time>
      </trkpt>
      <trkpt lat="41.621506790" lon="2.520343400">
        <ele>265.00</ele>
        <time>2014-03-02T08:26:00Z</time>
      </trkpt>
      <trkpt lat="41.621520030" lon="2.520348420">
        <ele>265.40</ele>
        <time>2014-03-02T08:26:01Z</time>
      </trkpt>
      <trkpt lat="41.621535120" lon="2.520353450">
        <ele>265.50</ele>
        <time>2014-03-02T08:26:02Z</time>
      </trkpt>
      <trkpt lat="41.621548360" lon="2.520356810">
        <ele>265.50</ele>
        <time>2014-03-02T08:26:03Z</time>
      </trkpt>
      <trkpt lat="41.621561770" lon="2.520363340">
        <ele>265.50</ele>
        <time>2014-03-02T08:26:04Z</time>
      </trkpt>
      <trkpt lat="41.621575020" lon="2.520368370">
        <ele>265.70</ele>
        <time>2014-03-02T08:26:05Z</time>
      </trkpt>
      <trkpt lat="41.621588430" lon="2.520370050">
        <ele>265.90</ele>
        <time>2014-03-02T08:26:06Z</time>
      </trkpt>
      <trkpt lat="41.621601670" lon="2.520373400">
        <ele>265.90</ele>
        <time>2014-03-02T08:26:07Z</time>
      </trkpt>
      <trkpt lat="41.621615080" lon="2.520376760">
        <ele>266.00</ele>
        <time>2014-03-02T08:26:08Z</time>
      </trkpt>
      <trkpt lat="41.621631680" lon="2.520380110">
        <ele>266.80</ele>
        <time>2014-03-02T08:26:09Z</time>
      </trkpt>
      <trkpt lat="41.621646760" lon="2.520383460">
        <ele>267.40</ele>
        <time>2014-03-02T08:26:10Z</time>
      </trkpt>
      <trkpt lat="41.621660010" lon="2.520386810">
        <ele>267.90</ele>
        <time>2014-03-02T08:26:11Z</time>
      </trkpt>
      <trkpt lat="41.621675100" lon="2.520388490">
        <ele>268.10</ele>
        <time>2014-03-02T08:26:12Z</time>
      </trkpt>
      <trkpt lat="41.621690010" lon="2.520390000">
        <ele>268.20</ele>
        <time>2014-03-02T08:26:13Z</time>
      </trkpt>
      <trkpt lat="41.621703430" lon="2.520393350">
        <ele>268.20</ele>
        <time>2014-03-02T08:26:14Z</time>
      </trkpt>
      <trkpt lat="41.621716670" lon="2.520395030">
        <ele>268.20</ele>
        <time>2014-03-02T08:26:15Z</time>
      </trkpt>
      <trkpt lat="41.621730080" lon="2.520396700">
        <ele>268.40</ele>
        <time>2014-03-02T08:26:16Z</time>
      </trkpt>
      <trkpt lat="41.621741820" lon="2.520398380">
        <ele>268.60</ele>
        <time>2014-03-02T08:26:17Z</time>
      </trkpt>
      <trkpt lat="41.621753380" lon="2.520401730">
        <ele>268.70</ele>
        <time>2014-03-02T08:26:18Z</time>
      </trkpt>
      <trkpt lat="41.621766790" lon="2.520405090">
        <ele>268.80</ele>
        <time>2014-03-02T08:26:19Z</time>
      </trkpt>
      <trkpt lat="41.621778360" lon="2.520408440">
        <ele>268.90</ele>
        <time>2014-03-02T08:26:20Z</time>
      </trkpt>
      <trkpt lat="41.621790090" lon="2.520411790">
        <ele>269.10</ele>
        <time>2014-03-02T08:26:21Z</time>
      </trkpt>
      <trkpt lat="41.621801660" lon="2.520413470">
        <ele>269.20</ele>
        <time>2014-03-02T08:26:22Z</time>
      </trkpt>
      <trkpt lat="41.621813400" lon="2.520416820">
        <ele>269.30</ele>
        <time>2014-03-02T08:26:23Z</time>
      </trkpt>
      <trkpt lat="41.621828480" lon="2.520420010">
        <ele>269.60</ele>
        <time>2014-03-02T08:26:24Z</time>
      </trkpt>
      <trkpt lat="41.621841730" lon="2.520423360">
        <ele>269.90</ele>
        <time>2014-03-02T08:26:25Z</time>
      </trkpt>
      <trkpt lat="41.621851790" lon="2.520431740">
        <ele>270.10</ele>
        <time>2014-03-02T08:26:26Z</time>
      </trkpt>
      <trkpt lat="41.621863350" lon="2.520435090">
        <ele>270.30</ele>
        <time>2014-03-02T08:26:27Z</time>
      </trkpt>
      <trkpt lat="41.621875090" lon="2.520435090">
        <ele>271.00</ele>
        <time>2014-03-02T08:26:28Z</time>
      </trkpt>
      <trkpt lat="41.621888330" lon="2.520433420">
        <ele>271.50</ele>
        <time>2014-03-02T08:26:29Z</time>
      </trkpt>
      <trkpt lat="41.621900070" lon="2.520436770">
        <ele>271.90</ele>
        <time>2014-03-02T08:26:30Z</time>
      </trkpt>
      <trkpt lat="41.621911800" lon="2.520438450">
        <ele>272.20</ele>
        <time>2014-03-02T08:26:31Z</time>
      </trkpt>
      <trkpt lat="41.621925040" lon="2.520441800">
        <ele>272.30</ele>
        <time>2014-03-02T08:26:32Z</time>
      </trkpt>
      <trkpt lat="41.621936780" lon="2.520443480">
        <ele>272.70</ele>
        <time>2014-03-02T08:26:33Z</time>
      </trkpt>
      <trkpt lat="41.621948350" lon="2.520445150">
        <ele>273.00</ele>
        <time>2014-03-02T08:26:34Z</time>
      </trkpt>
      <trkpt lat="41.621961760" lon="2.520446830">
        <ele>273.20</ele>
        <time>2014-03-02T08:26:35Z</time>
      </trkpt>
      <trkpt lat="41.621975000" lon="2.520446830">
        <ele>273.40</ele>
        <time>2014-03-02T08:26:36Z</time>
      </trkpt>
      <trkpt lat="41.621988410" lon="2.520448340">
        <ele>273.50</ele>
        <time>2014-03-02T08:26:37Z</time>
      </trkpt>
      <trkpt lat="41.622000150" lon="2.520448340">
        <ele>273.80</ele>
        <time>2014-03-02T08:26:38Z</time>
      </trkpt>
      <trkpt lat="41.622011710" lon="2.520450010">
        <ele>274.00</ele>
        <time>2014-03-02T08:26:39Z</time>
      </trkpt>
      <trkpt lat="41.622025120" lon="2.520450010">
        <ele>274.20</ele>
        <time>2014-03-02T08:26:40Z</time>
      </trkpt>
      <trkpt lat="41.622038370" lon="2.520448340">
        <ele>274.30</ele>
        <time>2014-03-02T08:26:41Z</time>
      </trkpt>
      <trkpt lat="41.622051780" lon="2.520443480">
        <ele>274.50</ele>
        <time>2014-03-02T08:26:42Z</time>
      </trkpt>
      <trkpt lat="41.622063340" lon="2.520440120">
        <ele>274.60</ele>
        <time>2014-03-02T08:26:43Z</time>
      </trkpt>
      <trkpt lat="41.622075080" lon="2.520436770">
        <ele>274.70</ele>
        <time>2014-03-02T08:26:44Z</time>
      </trkpt>
      <trkpt lat="41.622086810" lon="2.520430060">
        <ele>275.30</ele>
        <time>2014-03-02T08:26:45Z</time>
      </trkpt>
      <trkpt lat="41.622098380" lon="2.520426710">
        <ele>275.70</ele>
        <time>2014-03-02T08:26:46Z</time>
      </trkpt>
      <trkpt lat="41.622110120" lon="2.520421680">
        <ele>276.20</ele>
        <time>2014-03-02T08:26:47Z</time>
      </trkpt>
      <trkpt lat="41.622120010" lon="2.520418330">
        <ele>276.60</ele>
        <time>2014-03-02T08:26:48Z</time>
      </trkpt>
      <trkpt lat="41.622131740" lon="2.520415140">
        <ele>276.80</ele>
        <time>2014-03-02T08:26:49Z</time>
      </trkpt>
      <trkpt lat="41.622141800" lon="2.520411790">
        <ele>276.90</ele>
        <time>2014-03-02T08:26:50Z</time>
      </trkpt>
      <trkpt lat="41.622155040" lon="2.520408440">
        <ele>277.00</ele>
        <time>2014-03-02T08:26:51Z</time>
      </trkpt>
      <trkpt lat="41.622166780" lon="2.520403410">
        <ele>276.80</ele>
        <time>2014-03-02T08:26:52Z</time>
      </trkpt>
      <trkpt lat="41.622178340" lon="2.520398380">
        <ele>276.70</ele>
        <time>2014-03-02T08:26:53Z</time>
      </trkpt>
      <trkpt lat="41.622191760" lon="2.520393350">
        <ele>277.30</ele>
        <time>2014-03-02T08:26:54Z</time>
      </trkpt>
      <trkpt lat="41.622203490" lon="2.520388490">
        <ele>277.80</ele>
        <time>2014-03-02T08:26:55Z</time>
      </trkpt>
      <trkpt lat="41.622215060" lon="2.520383460">
        <ele>278.10</ele>
        <time>2014-03-02T08:26:56Z</time>
      </trkpt>
      <trkpt lat="41.622226790" lon="2.520378430">
        <ele>278.10</ele>
        <time>2014-03-02T08:26:57Z</time>
      </trkpt>
      <trkpt lat="41.622238360" lon="2.520371730">
        <ele>278.00</ele>
        <time>2014-03-02T08:26:58Z</time>
      </trkpt>
      <trkpt lat="41.622250090" lon="2.520366700">
        <ele>278.30</ele>
        <time>2014-03-02T08:26:59Z</time>
      </trkpt>
      <trkpt lat="41.622263340" lon="2.520363340">
        <ele>278.40</ele>
        <time>2014-03-02T08:27:00Z</time>
      </trkpt>
      <trkpt lat="41.622275070" lon="2.520361670">
        <ele>278.60</ele>
        <time>2014-03-02T08:27:01Z</time>
      </trkpt>
      <trkpt lat="41.622286810" lon="2.520356810">
        <ele>279.00</ele>
        <time>2014-03-02T08:27:02Z</time>
      </trkpt>
      <trkpt lat="41.622298370" lon="2.520353450">
        <ele>279.30</ele>
        <time>2014-03-02T08:27:03Z</time>
      </trkpt>
      <trkpt lat="41.622311780" lon="2.520350100">
        <ele>279.50</ele>
        <time>2014-03-02T08:27:04Z</time>
      </trkpt>
      <trkpt lat="41.622323350" lon="2.520346750">
        <ele>279.60</ele>
        <time>2014-03-02T08:27:05Z</time>
      </trkpt>
      <trkpt lat="41.622335090" lon="2.520343400">
        <ele>279.90</ele>
        <time>2014-03-02T08:27:06Z</time>
      </trkpt>
      <trkpt lat="41.622348330" lon="2.520338370">
        <ele>280.10</ele>
        <time>2014-03-02T08:27:07Z</time>
      </trkpt>
      <trkpt lat="41.622360060" lon="2.520335010">
        <ele>280.30</ele>
        <time>2014-03-02T08:27:08Z</time>
      </trkpt>
      <trkpt lat="41.622371800" lon="2.520331830">
        <ele>280.40</ele>
        <time>2014-03-02T08:27:09Z</time>
      </trkpt>
      <trkpt lat="41.622383370" lon="2.520330150">
        <ele>280.50</ele>
        <time>2014-03-02T08:27:10Z</time>
      </trkpt>
      <trkpt lat="41.622396780" lon="2.520328480">
        <ele>280.40</ele>
        <time>2014-03-02T08:27:11Z</time>
      </trkpt>
      <trkpt lat="41.622408340" lon="2.520328480">
        <ele>280.30</ele>
        <time>2014-03-02T08:27:12Z</time>
      </trkpt>
      <trkpt lat="41.622420080" lon="2.520330150">
        <ele>280.30</ele>
        <time>2014-03-02T08:27:13Z</time>
      </trkpt>
      <trkpt lat="41.622431810" lon="2.520335010">
        <ele>280.50</ele>
        <time>2014-03-02T08:27:14Z</time>
      </trkpt>
      <trkpt lat="41.622441700" lon="2.520346750">
        <ele>280.70</ele>
        <time>2014-03-02T08:27:15Z</time>
      </trkpt>
      <trkpt lat="41.622448410" lon="2.520358480">
        <ele>280.60</ele>
        <time>2014-03-02T08:27:16Z</time>
      </trkpt>
      <trkpt lat="41.622455120" lon="2.520371730">
        <ele>280.50</ele>
        <time>2014-03-02T08:27:17Z</time>
      </trkpt>
      <trkpt lat="41.622460140" lon="2.520388490">
        <ele>280.90</ele>
        <time>2014-03-02T08:27:18Z</time>
      </trkpt>
      <trkpt lat="41.622463330" lon="2.520405090">
        <ele>281.20</ele>
        <time>2014-03-02T08:27:19Z</time>
      </trkpt>
      <trkpt lat="41.622465010" lon="2.520420010">
        <ele>281.40</ele>
        <time>2014-03-02T08:27:20Z</time>
      </trkpt>
      <trkpt lat="41.622465010" lon="2.520436770">
        <ele>281.50</ele>
        <time>2014-03-02T08:27:21Z</time>
      </trkpt>
      <trkpt lat="41.622461820" lon="2.520451690">
        <ele>281.50</ele>
        <time>2014-03-02T08:27:22Z</time>
      </trkpt>
      <trkpt lat="41.622451760" lon="2.520463420">
        <ele>281.80</ele>
        <time>2014-03-02T08:27:23Z</time>
      </trkpt>
      <trkpt lat="41.622443380" lon="2.520473480">
        <ele>282.00</ele>
        <time>2014-03-02T08:27:24Z</time>
      </trkpt>
      <trkpt lat="41.622431810" lon="2.520480020">
        <ele>282.10</ele>
        <time>2014-03-02T08:27:25Z</time>
      </trkpt>
      <trkpt lat="41.622420080" lon="2.520483370">
        <ele>282.20</ele>
        <time>2014-03-02T08:27:26Z</time>
      </trkpt>
      <trkpt lat="41.622408340" lon="2.520485050">
        <ele>282.20</ele>
        <time>2014-03-02T08:27:27Z</time>
      </trkpt>
      <trkpt lat="41.622395100" lon="2.520485050">
        <ele>282.30</ele>
        <time>2014-03-02T08:27:28Z</time>
      </trkpt>
      <trkpt lat="41.622381690" lon="2.520488400">
        <ele>282.40</ele>
        <time>2014-03-02T08:27:29Z</time>
      </trkpt>
      <trkpt lat="41.622368450" lon="2.520491760">
        <ele>282.60</ele>
        <time>2014-03-02T08:27:30Z</time>
      </trkpt>
      <trkpt lat="41.622356710" lon="2.520496780">
        <ele>282.80</ele>
        <time>2014-03-02T08:27:31Z</time>
      </trkpt>
      <trkpt lat="41.622345140" lon="2.520503490">
        <ele>283.10</ele>
        <time>2014-03-02T08:27:32Z</time>
      </trkpt>
      <trkpt lat="41.622335090" lon="2.520511700">
        <ele>283.30</ele>
        <time>2014-03-02T08:27:33Z</time>
      </trkpt>
      <trkpt lat="41.622325030" lon="2.520520090">
        <ele>283.40</ele>
        <time>2014-03-02T08:27:34Z</time>
      </trkpt>
      <trkpt lat="41.622315140" lon="2.520531820">
        <ele>283.60</ele>
        <time>2014-03-02T08:27:35Z</time>
      </trkpt>
      <trkpt lat="41.622305080" lon="2.520541710">
        <ele>283.70</ele>
        <time>2014-03-02T08:27:36Z</time>
      </trkpt>
      <trkpt lat="41.622293340" lon="2.520550090">
        <ele>283.80</ele>
        <time>2014-03-02T08:27:37Z</time>
      </trkpt>
      <trkpt lat="41.622283450" lon="2.520560150">
        <ele>283.80</ele>
        <time>2014-03-02T08:27:38Z</time>
      </trkpt>
      <trkpt lat="41.622271720" lon="2.520566690">
        <ele>283.80</ele>
        <time>2014-03-02T08:27:39Z</time>
      </trkpt>
      <trkpt lat="41.622263340" lon="2.520575070">
        <ele>284.20</ele>
        <time>2014-03-02T08:27:40Z</time>
      </trkpt>
      <trkpt lat="41.622253450" lon="2.520586810">
        <ele>284.40</ele>
        <time>2014-03-02T08:27:41Z</time>
      </trkpt>
      <trkpt lat="41.622243390" lon="2.520596700">
        <ele>284.50</ele>
        <time>2014-03-02T08:27:42Z</time>
      </trkpt>
      <trkpt lat="41.622233330" lon="2.520605080">
        <ele>284.60</ele>
        <time>2014-03-02T08:27:43Z</time>
      </trkpt>
      <trkpt lat="41.622223440" lon="2.520613460">
        <ele>285.00</ele>
        <time>2014-03-02T08:27:44Z</time>
      </trkpt>
      <trkpt lat="41.622211700" lon="2.520620000">
        <ele>285.30</ele>
        <time>2014-03-02T08:27:45Z</time>
      </trkpt>
      <trkpt lat="41.622200140" lon="2.520626700">
        <ele>285.50</ele>
        <time>2014-03-02T08:27:46Z</time>
      </trkpt>
      <trkpt lat="41.622190080" lon="2.520636760">
        <ele>285.50</ele>
        <time>2014-03-02T08:27:47Z</time>
      </trkpt>
      <trkpt lat="41.622180020" lon="2.520645140">
        <ele>285.50</ele>
        <time>2014-03-02T08:27:48Z</time>
      </trkpt>
      <trkpt lat="41.622170130" lon="2.520655030">
        <ele>285.70</ele>
        <time>2014-03-02T08:27:49Z</time>
      </trkpt>
      <trkpt lat="41.622158400" lon="2.520663420">
        <ele>285.90</ele>
        <time>2014-03-02T08:27:50Z</time>
      </trkpt>
      <trkpt lat="41.622146830" lon="2.520671800">
        <ele>286.30</ele>
        <time>2014-03-02T08:27:51Z</time>
      </trkpt>
      <trkpt lat="41.622135090" lon="2.520681690">
        <ele>286.60</ele>
        <time>2014-03-02T08:27:52Z</time>
      </trkpt>
      <trkpt lat="41.622123360" lon="2.520691750">
        <ele>286.80</ele>
        <time>2014-03-02T08:27:53Z</time>
      </trkpt>
      <trkpt lat="41.622113470" lon="2.520703480">
        <ele>286.60</ele>
        <time>2014-03-02T08:27:54Z</time>
      </trkpt>
      <trkpt lat="41.622101730" lon="2.520711700">
        <ele>286.50</ele>
        <time>2014-03-02T08:27:55Z</time>
      </trkpt>
      <trkpt lat="41.622090000" lon="2.520720080">
        <ele>287.00</ele>
        <time>2014-03-02T08:27:56Z</time>
      </trkpt>
      <trkpt lat="41.622080110" lon="2.520728460">
        <ele>287.30</ele>
        <time>2014-03-02T08:27:57Z</time>
      </trkpt>
      <trkpt lat="41.622068370" lon="2.520736670">
        <ele>287.50</ele>
        <time>2014-03-02T08:27:58Z</time>
      </trkpt>
      <trkpt lat="41.622056810" lon="2.520745060">
        <ele>287.80</ele>
        <time>2014-03-02T08:27:59Z</time>
      </trkpt>
      <trkpt lat="41.622045070" lon="2.520755110">
        <ele>287.90</ele>
        <time>2014-03-02T08:28:00Z</time>
      </trkpt>
      <trkpt lat="41.622033340" lon="2.520765010">
        <ele>288.10</ele>
        <time>2014-03-02T08:28:01Z</time>
      </trkpt>
      <trkpt lat="41.622021770" lon="2.520775060">
        <ele>288.20</ele>
        <time>2014-03-02T08:28:02Z</time>
      </trkpt>
      <trkpt lat="41.622010040" lon="2.520783450">
        <ele>288.30</ele>
        <time>2014-03-02T08:28:03Z</time>
      </trkpt>
      <trkpt lat="41.622000150" lon="2.520793340">
        <ele>288.40</ele>
        <time>2014-03-02T08:28:04Z</time>
      </trkpt>
      <trkpt lat="41.621988410" lon="2.520803390">
        <ele>288.50</ele>
        <time>2014-03-02T08:28:05Z</time>
      </trkpt>
      <trkpt lat="41.621978350" lon="2.520811780">
        <ele>288.50</ele>
        <time>2014-03-02T08:28:06Z</time>
      </trkpt>
      <trkpt lat="41.621966790" lon="2.520820160">
        <ele>288.60</ele>
        <time>2014-03-02T08:28:07Z</time>
      </trkpt>
      <trkpt lat="41.621955050" lon="2.520828370">
        <ele>289.20</ele>
        <time>2014-03-02T08:28:08Z</time>
      </trkpt>
      <trkpt lat="41.621941810" lon="2.520840110">
        <ele>289.70</ele>
        <time>2014-03-02T08:28:09Z</time>
      </trkpt>
      <trkpt lat="41.621930070" lon="2.520851670">
        <ele>289.60</ele>
        <time>2014-03-02T08:28:10Z</time>
      </trkpt>
      <trkpt lat="41.621918340" lon="2.520860060">
        <ele>289.60</ele>
        <time>2014-03-02T08:28:11Z</time>
      </trkpt>
      <trkpt lat="41.621905090" lon="2.520868440">
        <ele>289.60</ele>
        <time>2014-03-02T08:28:12Z</time>
      </trkpt>
      <trkpt lat="41.621888330" lon="2.520871790">
        <ele>289.80</ele>
        <time>2014-03-02T08:28:13Z</time>
      </trkpt>
      <trkpt lat="41.621875090" lon="2.520878330">
        <ele>290.00</ele>
        <time>2014-03-02T08:28:14Z</time>
      </trkpt>
      <trkpt lat="41.621861680" lon="2.520888390">
        <ele>290.40</ele>
        <time>2014-03-02T08:28:15Z</time>
      </trkpt>
      <trkpt lat="41.621850110" lon="2.520900120">
        <ele>290.80</ele>
        <time>2014-03-02T08:28:16Z</time>
      </trkpt>
      <trkpt lat="41.621836700" lon="2.520911690">
        <ele>291.00</ele>
        <time>2014-03-02T08:28:17Z</time>
      </trkpt>
      <trkpt lat="41.621820100" lon="2.520925100">
        <ele>291.40</ele>
        <time>2014-03-02T08:28:18Z</time>
      </trkpt>
      <trkpt lat="41.621806690" lon="2.520938340">
        <ele>291.70</ele>
        <time>2014-03-02T08:28:19Z</time>
      </trkpt>
      <trkpt lat="41.621793450" lon="2.520953430">
        <ele>291.60</ele>
        <time>2014-03-02T08:28:20Z</time>
      </trkpt>
      <trkpt lat="41.621778360" lon="2.520966670">
        <ele>291.50</ele>
        <time>2014-03-02T08:28:21Z</time>
      </trkpt>
      <trkpt lat="41.621763440" lon="2.520980080">
        <ele>291.60</ele>
        <time>2014-03-02T08:28:22Z</time>
      </trkpt>
      <trkpt lat="41.621746680" lon="2.520995000">
        <ele>291.70</ele>
        <time>2014-03-02T08:28:23Z</time>
      </trkpt>
      <trkpt lat="41.621728400" lon="2.521005060">
        <ele>291.80</ele>
        <time>2014-03-02T08:28:24Z</time>
      </trkpt>
      <trkpt lat="41.621711810" lon="2.521013440">
        <ele>292.30</ele>
        <time>2014-03-02T08:28:25Z</time>
      </trkpt>
      <trkpt lat="41.621693370" lon="2.521020150">
        <ele>292.70</ele>
        <time>2014-03-02T08:28:26Z</time>
      </trkpt>
      <trkpt lat="41.621675100" lon="2.521023340">
        <ele>292.80</ele>
        <time>2014-03-02T08:28:27Z</time>
      </trkpt>
      <trkpt lat="41.621656820" lon="2.521021830">
        <ele>292.80</ele>
        <time>2014-03-02T08:28:28Z</time>
      </trkpt>
      <trkpt lat="41.621640060" lon="2.521018470">
        <ele>293.10</ele>
        <time>2014-03-02T08:28:29Z</time>
      </trkpt>
      <trkpt lat="41.621621790" lon="2.521013440">
        <ele>293.20</ele>
        <time>2014-03-02T08:28:30Z</time>
      </trkpt>
      <trkpt lat="41.621605020" lon="2.521006740">
        <ele>293.40</ele>
        <time>2014-03-02T08:28:31Z</time>
      </trkpt>
      <trkpt lat="41.621590100" lon="2.520998360">
        <ele>293.60</ele>
        <time>2014-03-02T08:28:32Z</time>
      </trkpt>
      <trkpt lat="41.621573340" lon="2.520991820">
        <ele>293.70</ele>
        <time>2014-03-02T08:28:33Z</time>
      </trkpt>
      <trkpt lat="41.621556740" lon="2.520983440">
        <ele>294.00</ele>
        <time>2014-03-02T08:28:34Z</time>
      </trkpt>
      <trkpt lat="41.621540150" lon="2.520976730">
        <ele>294.20</ele>
        <time>2014-03-02T08:28:35Z</time>
      </trkpt>
      <trkpt lat="41.621521710" lon="2.520968350">
        <ele>294.30</ele>
        <time>2014-03-02T08:28:36Z</time>
      </trkpt>
      <trkpt lat="41.621505110" lon="2.520961810">
        <ele>294.30</ele>
        <time>2014-03-02T08:28:37Z</time>
      </trkpt>
      <trkpt lat="41.621486670" lon="2.520956780">
        <ele>294.30</ele>
        <time>2014-03-02T08:28:38Z</time>
      </trkpt>
      <trkpt lat="41.621468400" lon="2.520953430">
        <ele>293.90</ele>
        <time>2014-03-02T08:28:39Z</time>
      </trkpt>
      <trkpt lat="41.621451800" lon="2.520946720">
        <ele>293.50</ele>
        <time>2014-03-02T08:28:40Z</time>
      </trkpt>
      <trkpt lat="41.621435040" lon="2.520943370">
        <ele>293.80</ele>
        <time>2014-03-02T08:28:41Z</time>
      </trkpt>
      <trkpt lat="41.621416760" lon="2.520941700">
        <ele>294.00</ele>
        <time>2014-03-02T08:28:42Z</time>
      </trkpt>
      <trkpt lat="41.621396820" lon="2.520941700">
        <ele>294.10</ele>
        <time>2014-03-02T08:28:43Z</time>
      </trkpt>
      <trkpt lat="41.621376700" lon="2.520940020">
        <ele>294.30</ele>
        <time>2014-03-02T08:28:44Z</time>
      </trkpt>
      <trkpt lat="41.621358430" lon="2.520943370">
        <ele>294.50</ele>
        <time>2014-03-02T08:28:45Z</time>
      </trkpt>
      <trkpt lat="41.621340150" lon="2.520948400">
        <ele>294.50</ele>
        <time>2014-03-02T08:28:46Z</time>
      </trkpt>
      <trkpt lat="41.621323390" lon="2.520955110">
        <ele>294.50</ele>
        <time>2014-03-02T08:28:47Z</time>
      </trkpt>
      <trkpt lat="41.621306790" lon="2.520965000">
        <ele>294.90</ele>
        <time>2014-03-02T08:28:48Z</time>
      </trkpt>
      <trkpt lat="41.621288350" lon="2.520973380">
        <ele>295.10</ele>
        <time>2014-03-02T08:28:49Z</time>
      </trkpt>
      <trkpt lat="41.621271760" lon="2.520980080">
        <ele>295.30</ele>
        <time>2014-03-02T08:28:50Z</time>
      </trkpt>
      <trkpt lat="41.621255160" lon="2.520986790">
        <ele>295.50</ele>
        <time>2014-03-02T08:28:51Z</time>
      </trkpt>
      <trkpt lat="41.621236720" lon="2.520993500">
        <ele>295.70</ele>
        <time>2014-03-02T08:28:52Z</time>
      </trkpt>
      <trkpt lat="41.621221800" lon="2.520998360">
        <ele>295.70</ele>
        <time>2014-03-02T08:28:53Z</time>
      </trkpt>
      <trkpt lat="41.621203360" lon="2.520998360">
        <ele>295.80</ele>
        <time>2014-03-02T08:28:54Z</time>
      </trkpt>
      <trkpt lat="41.621186770" lon="2.520998360">
        <ele>296.00</ele>
        <time>2014-03-02T08:28:55Z</time>
      </trkpt>
      <trkpt lat="41.621170000" lon="2.521000030">
        <ele>296.10</ele>
        <time>2014-03-02T08:28:56Z</time>
      </trkpt>
      <trkpt lat="41.621153410" lon="2.521005060">
        <ele>296.20</ele>
        <time>2014-03-02T08:28:57Z</time>
      </trkpt>
      <trkpt lat="41.621135130" lon="2.521013440">
        <ele>296.30</ele>
        <time>2014-03-02T08:28:58Z</time>
      </trkpt>
      <trkpt lat="41.621120050" lon="2.521023340">
        <ele>296.40</ele>
        <time>2014-03-02T08:28:59Z</time>
      </trkpt>
      <trkpt lat="41.621106800" lon="2.521038420">
        <ele>296.50</ele>
        <time>2014-03-02T08:29:00Z</time>
      </trkpt>
      <trkpt lat="41.621096740" lon="2.521055020">
        <ele>296.60</ele>
        <time>2014-03-02T08:29:01Z</time>
      </trkpt>
      <trkpt lat="41.621091710" lon="2.521075140">
        <ele>296.60</ele>
        <time>2014-03-02T08:29:02Z</time>
      </trkpt>
      <trkpt lat="41.621091710" lon="2.521095080">
        <ele>296.80</ele>
        <time>2014-03-02T08:29:03Z</time>
      </trkpt>
      <trkpt lat="41.621100100" lon="2.521113360">
        <ele>296.90</ele>
        <time>2014-03-02T08:29:04Z</time>
      </trkpt>
      <trkpt lat="41.621113340" lon="2.521123420">
        <ele>296.90</ele>
        <time>2014-03-02T08:29:05Z</time>
      </trkpt>
      <trkpt lat="41.621126750" lon="2.521125090">
        <ele>296.90</ele>
        <time>2014-03-02T08:29:06Z</time>
      </trkpt>
      <trkpt lat="41.621141670" lon="2.521125090">
        <ele>297.20</ele>
        <time>2014-03-02T08:29:07Z</time>
      </trkpt>
      <trkpt lat="41.621155080" lon="2.521121740">
        <ele>297.40</ele>
        <time>2014-03-02T08:29:08Z</time>
      </trkpt>
      <trkpt lat="41.621168490" lon="2.521121740">
        <ele>297.60</ele>
        <time>2014-03-02T08:29:09Z</time>
      </trkpt>
      <trkpt lat="41.621180060" lon="2.521120060">
        <ele>297.40</ele>
        <time>2014-03-02T08:29:10Z</time>
      </trkpt>
      <trkpt lat="41.621191790" lon="2.521121740">
        <ele>297.20</ele>
        <time>2014-03-02T08:29:11Z</time>
      </trkpt>
      <trkpt lat="41.621205040" lon="2.521125090">
        <ele>297.30</ele>
        <time>2014-03-02T08:29:12Z</time>
      </trkpt>
      <trkpt lat="41.621216770" lon="2.521128440">
        <ele>297.30</ele>
        <time>2014-03-02T08:29:13Z</time>
      </trkpt>
      <trkpt lat="41.621228340" lon="2.521133470">
        <ele>297.30</ele>
        <time>2014-03-02T08:29:14Z</time>
      </trkpt>
      <trkpt lat="41.621240070" lon="2.521136830">
        <ele>297.30</ele>
        <time>2014-03-02T08:29:15Z</time>
      </trkpt>
      <trkpt lat="41.621250130" lon="2.521143360">
        <ele>297.40</ele>
        <time>2014-03-02T08:29:16Z</time>
      </trkpt>
      <trkpt lat="41.621260020" lon="2.521148390">
        <ele>297.70</ele>
        <time>2014-03-02T08:29:17Z</time>
      </trkpt>
      <trkpt lat="41.621270080" lon="2.521155100">
        <ele>298.00</ele>
        <time>2014-03-02T08:29:18Z</time>
      </trkpt>
      <trkpt lat="41.621280140" lon="2.521161800">
        <ele>298.50</ele>
        <time>2014-03-02T08:29:19Z</time>
      </trkpt>
      <trkpt lat="41.621288350" lon="2.521168340">
        <ele>299.00</ele>
        <time>2014-03-02T08:29:20Z</time>
      </trkpt>
      <trkpt lat="41.621296740" lon="2.521176720">
        <ele>299.30</ele>
        <time>2014-03-02T08:29:21Z</time>
      </trkpt>
      <trkpt lat="41.621305120" lon="2.521188460">
        <ele>299.50</ele>
        <time>2014-03-02T08:29:22Z</time>
      </trkpt>
      <trkpt lat="41.621316680" lon="2.521198350">
        <ele>299.70</ele>
        <time>2014-03-02T08:29:23Z</time>
      </trkpt>
      <trkpt lat="41.621326740" lon="2.521210080">
        <ele>299.90</ele>
        <time>2014-03-02T08:29:24Z</time>
      </trkpt>
      <trkpt lat="41.621336800" lon="2.521221820">
        <ele>300.00</ele>
        <time>2014-03-02T08:29:25Z</time>
      </trkpt>
      <trkpt lat="41.621345020" lon="2.521233390">
        <ele>300.40</ele>
        <time>2014-03-02T08:29:26Z</time>
      </trkpt>
      <trkpt lat="41.621355070" lon="2.521245120">
        <ele>300.60</ele>
        <time>2014-03-02T08:29:27Z</time>
      </trkpt>
      <trkpt lat="41.621363460" lon="2.521258360">
        <ele>300.80</ele>
        <time>2014-03-02T08:29:28Z</time>
      </trkpt>
      <trkpt lat="41.621370160" lon="2.521271780">
        <ele>301.00</ele>
        <time>2014-03-02T08:29:29Z</time>
      </trkpt>
      <trkpt lat="41.621378380" lon="2.521285020">
        <ele>301.10</ele>
        <time>2014-03-02T08:29:30Z</time>
      </trkpt>
      <trkpt lat="41.621385080" lon="2.521298430">
        <ele>301.30</ele>
        <time>2014-03-02T08:29:31Z</time>
      </trkpt>
      <trkpt lat="41.621393460" lon="2.521310000">
        <ele>301.40</ele>
        <time>2014-03-02T08:29:32Z</time>
      </trkpt>
      <trkpt lat="41.621401680" lon="2.521323410">
        <ele>301.70</ele>
        <time>2014-03-02T08:29:33Z</time>
      </trkpt>
      <trkpt lat="41.621410060" lon="2.521336820">
        <ele>301.90</ele>
        <time>2014-03-02T08:29:34Z</time>
      </trkpt>
      <trkpt lat="41.621418440" lon="2.521350060">
        <ele>302.10</ele>
        <time>2014-03-02T08:29:35Z</time>
      </trkpt>
      <trkpt lat="41.621426820" lon="2.521361800">
        <ele>302.60</ele>
        <time>2014-03-02T08:29:36Z</time>
      </trkpt>
      <trkpt lat="41.621436710" lon="2.521373360">
        <ele>303.00</ele>
        <time>2014-03-02T08:29:37Z</time>
      </trkpt>
      <trkpt lat="41.621445100" lon="2.521388450">
        <ele>303.50</ele>
        <time>2014-03-02T08:29:38Z</time>
      </trkpt>
      <trkpt lat="41.621455150" lon="2.521401690">
        <ele>303.80</ele>
        <time>2014-03-02T08:29:39Z</time>
      </trkpt>
      <trkpt lat="41.621461690" lon="2.521416780">
        <ele>304.00</ele>
        <time>2014-03-02T08:29:40Z</time>
      </trkpt>
      <trkpt lat="41.621468400" lon="2.521430030">
        <ele>303.90</ele>
        <time>2014-03-02T08:29:41Z</time>
      </trkpt>
      <trkpt lat="41.621475100" lon="2.521443440">
        <ele>303.80</ele>
        <time>2014-03-02T08:29:42Z</time>
      </trkpt>
      <trkpt lat="41.621480130" lon="2.521456680">
        <ele>303.80</ele>
        <time>2014-03-02T08:29:43Z</time>
      </trkpt>
      <trkpt lat="41.621485160" lon="2.521471770">
        <ele>303.70</ele>
        <time>2014-03-02T08:29:44Z</time>
      </trkpt>
      <trkpt lat="41.621491700" lon="2.521483330">
        <ele>304.50</ele>
        <time>2014-03-02T08:29:45Z</time>
      </trkpt>
      <trkpt lat="41.621498400" lon="2.521495070">
        <ele>305.00</ele>
        <time>2014-03-02T08:29:46Z</time>
      </trkpt>
      <trkpt lat="41.621503430" lon="2.521508480">
        <ele>305.40</ele>
        <time>2014-03-02T08:29:47Z</time>
      </trkpt>
      <trkpt lat="41.621508460" lon="2.521521720">
        <ele>305.50</ele>
        <time>2014-03-02T08:29:48Z</time>
      </trkpt>
      <trkpt lat="41.621516680" lon="2.521535130">
        <ele>305.60</ele>
        <time>2014-03-02T08:29:49Z</time>
      </trkpt>
      <trkpt lat="41.621525060" lon="2.521550050">
        <ele>305.70</ele>
        <time>2014-03-02T08:29:50Z</time>
      </trkpt>
      <trkpt lat="41.621533440" lon="2.521561790">
        <ele>305.80</ele>
        <time>2014-03-02T08:29:51Z</time>
      </trkpt>
      <trkpt lat="41.621543330" lon="2.521575030">
        <ele>305.90</ele>
        <time>2014-03-02T08:29:52Z</time>
      </trkpt>
      <trkpt lat="41.621553390" lon="2.521588440">
        <ele>306.30</ele>
        <time>2014-03-02T08:29:53Z</time>
      </trkpt>
      <trkpt lat="41.621561770" lon="2.521601690">
        <ele>306.60</ele>
        <time>2014-03-02T08:29:54Z</time>
      </trkpt>
      <trkpt lat="41.621570150" lon="2.521615100">
        <ele>306.80</ele>
        <time>2014-03-02T08:29:55Z</time>
      </trkpt>
      <trkpt lat="41.621576690" lon="2.521628340">
        <ele>307.00</ele>
        <time>2014-03-02T08:29:56Z</time>
      </trkpt>
      <trkpt lat="41.621586750" lon="2.521640080">
        <ele>307.00</ele>
        <time>2014-03-02T08:29:57Z</time>
      </trkpt>
      <trkpt lat="41.621593460" lon="2.521653490">
        <ele>307.00</ele>
        <time>2014-03-02T08:29:58Z</time>
      </trkpt>
      <trkpt lat="41.621600160" lon="2.521666730">
        <ele>307.00</ele>
        <time>2014-03-02T08:29:59Z</time>
      </trkpt>
      <trkpt lat="41.621608380" lon="2.521678470">
        <ele>307.20</ele>
        <time>2014-03-02T08:30:00Z</time>
      </trkpt>
      <trkpt lat="41.621615080" lon="2.521691710">
        <ele>307.30</ele>
        <time>2014-03-02T08:30:01Z</time>
      </trkpt>
      <trkpt lat="41.621621790" lon="2.521705120">
        <ele>307.50</ele>
        <time>2014-03-02T08:30:02Z</time>
      </trkpt>
      <trkpt lat="41.621628490" lon="2.521721720">
        <ele>307.70</ele>
        <time>2014-03-02T08:30:03Z</time>
      </trkpt>
      <trkpt lat="41.621630000" lon="2.521738480">
        <ele>307.40</ele>
        <time>2014-03-02T08:30:04Z</time>
      </trkpt>
      <trkpt lat="41.621636710" lon="2.521753400">
        <ele>307.10</ele>
        <time>2014-03-02T08:30:05Z</time>
      </trkpt>
      <trkpt lat="41.621645090" lon="2.521766810">
        <ele>306.90</ele>
        <time>2014-03-02T08:30:06Z</time>
      </trkpt>
      <trkpt lat="41.621651790" lon="2.521780050">
        <ele>307.00</ele>
        <time>2014-03-02T08:30:07Z</time>
      </trkpt>
      <trkpt lat="41.621658330" lon="2.521793460">
        <ele>307.00</ele>
        <time>2014-03-02T08:30:08Z</time>
      </trkpt>
      <trkpt lat="41.621663360" lon="2.521805030">
        <ele>307.40</ele>
        <time>2014-03-02T08:30:09Z</time>
      </trkpt>
      <trkpt lat="41.621671740" lon="2.521815090">
        <ele>307.70</ele>
        <time>2014-03-02T08:30:10Z</time>
      </trkpt>
      <trkpt lat="41.621676770" lon="2.521826820">
        <ele>307.60</ele>
        <time>2014-03-02T08:30:11Z</time>
      </trkpt>
      <trkpt lat="41.621683480" lon="2.521838390">
        <ele>307.50</ele>
        <time>2014-03-02T08:30:12Z</time>
      </trkpt>
      <trkpt lat="41.621688340" lon="2.521851800">
        <ele>307.40</ele>
        <time>2014-03-02T08:30:13Z</time>
      </trkpt>
      <trkpt lat="41.621695040" lon="2.521865050">
        <ele>307.50</ele>
        <time>2014-03-02T08:30:14Z</time>
      </trkpt>
      <trkpt lat="41.621701750" lon="2.521880130">
        <ele>307.60</ele>
        <time>2014-03-02T08:30:15Z</time>
      </trkpt>
      <trkpt lat="41.621708460" lon="2.521896730">
        <ele>308.20</ele>
        <time>2014-03-02T08:30:16Z</time>
      </trkpt>
      <trkpt lat="41.621715160" lon="2.521913490">
        <ele>308.60</ele>
        <time>2014-03-02T08:30:17Z</time>
      </trkpt>
      <trkpt lat="41.621721700" lon="2.521930090">
        <ele>309.00</ele>
        <time>2014-03-02T08:30:18Z</time>
      </trkpt>
      <trkpt lat="41.621728400" lon="2.521943330">
        <ele>309.10</ele>
        <time>2014-03-02T08:30:19Z</time>
      </trkpt>
      <trkpt lat="41.621736790" lon="2.521955070">
        <ele>309.10</ele>
        <time>2014-03-02T08:30:20Z</time>
      </trkpt>
      <trkpt lat="41.621743490" lon="2.521970160">
        <ele>309.30</ele>
        <time>2014-03-02T08:30:21Z</time>
      </trkpt>
      <trkpt lat="41.621750030" lon="2.521986750">
        <ele>309.50</ele>
        <time>2014-03-02T08:30:22Z</time>
      </trkpt>
      <trkpt lat="41.621758410" lon="2.522001670">
        <ele>309.70</ele>
        <time>2014-03-02T08:30:23Z</time>
      </trkpt>
      <trkpt lat="41.621765120" lon="2.522018440">
        <ele>309.90</ele>
        <time>2014-03-02T08:30:24Z</time>
      </trkpt>
      <trkpt lat="41.621770150" lon="2.522035030">
        <ele>310.00</ele>
        <time>2014-03-02T08:30:25Z</time>
      </trkpt>
      <trkpt lat="41.621775010" lon="2.522050120">
        <ele>310.10</ele>
        <time>2014-03-02T08:30:26Z</time>
      </trkpt>
      <trkpt lat="41.621780040" lon="2.522063360">
        <ele>310.20</ele>
        <time>2014-03-02T08:30:27Z</time>
      </trkpt>
      <trkpt lat="41.621786740" lon="2.522076770">
        <ele>310.70</ele>
        <time>2014-03-02T08:30:28Z</time>
      </trkpt>
      <trkpt lat="41.621791770" lon="2.522093370">
        <ele>311.00</ele>
        <time>2014-03-02T08:30:29Z</time>
      </trkpt>
      <trkpt lat="41.621796800" lon="2.522108460">
        <ele>311.00</ele>
        <time>2014-03-02T08:30:30Z</time>
      </trkpt>
      <trkpt lat="41.621803340" lon="2.522125050">
        <ele>311.10</ele>
        <time>2014-03-02T08:30:31Z</time>
      </trkpt>
      <trkpt lat="41.621810040" lon="2.522141820">
        <ele>311.10</ele>
        <time>2014-03-02T08:30:32Z</time>
      </trkpt>
      <trkpt lat="41.621818430" lon="2.522155060">
        <ele>311.40</ele>
        <time>2014-03-02T08:30:33Z</time>
      </trkpt>
      <trkpt lat="41.621826810" lon="2.522170150">
        <ele>311.60</ele>
        <time>2014-03-02T08:30:34Z</time>
      </trkpt>
      <trkpt lat="41.621836700" lon="2.522183390">
        <ele>311.50</ele>
        <time>2014-03-02T08:30:35Z</time>
      </trkpt>
      <trkpt lat="41.621845080" lon="2.522198480">
        <ele>311.50</ele>
        <time>2014-03-02T08:30:36Z</time>
      </trkpt>
      <trkpt lat="41.621853460" lon="2.522211720">
        <ele>311.40</ele>
        <time>2014-03-02T08:30:37Z</time>
      </trkpt>
      <trkpt lat="41.621861680" lon="2.522226810">
        <ele>312.00</ele>
        <time>2014-03-02T08:30:38Z</time>
      </trkpt>
      <trkpt lat="41.621871730" lon="2.522238380">
        <ele>312.40</ele>
        <time>2014-03-02T08:30:39Z</time>
      </trkpt>
      <trkpt lat="41.621883470" lon="2.522245080">
        <ele>312.90</ele>
        <time>2014-03-02T08:30:40Z</time>
      </trkpt>
      <trkpt lat="41.621896710" lon="2.522248430">
        <ele>313.20</ele>
        <time>2014-03-02T08:30:41Z</time>
      </trkpt>
      <trkpt lat="41.621910120" lon="2.522250110">
        <ele>313.20</ele>
        <time>2014-03-02T08:30:42Z</time>
      </trkpt>
      <trkpt lat="41.621921690" lon="2.522248430">
        <ele>313.20</ele>
        <time>2014-03-02T08:30:43Z</time>
      </trkpt>
      <trkpt lat="41.621931750" lon="2.522245080">
        <ele>313.20</ele>
        <time>2014-03-02T08:30:44Z</time>
      </trkpt>
      <trkpt lat="41.621940130" lon="2.522233350">
        <ele>313.70</ele>
        <time>2014-03-02T08:30:45Z</time>
      </trkpt>
      <trkpt lat="41.621943480" lon="2.522220100">
        <ele>314.10</ele>
        <time>2014-03-02T08:30:46Z</time>
      </trkpt>
      <trkpt lat="41.621945160" lon="2.522206690">
        <ele>314.40</ele>
        <time>2014-03-02T08:30:47Z</time>
      </trkpt>
      <trkpt lat="41.621945160" lon="2.522191770">
        <ele>314.70</ele>
        <time>2014-03-02T08:30:48Z</time>
      </trkpt>
      <trkpt lat="41.621946670" lon="2.522175010">
        <ele>315.10</ele>
        <time>2014-03-02T08:30:49Z</time>
      </trkpt>
      <trkpt lat="41.621946670" lon="2.522158410">
        <ele>315.40</ele>
        <time>2014-03-02T08:30:50Z</time>
      </trkpt>
      <trkpt lat="41.621945160" lon="2.522143490">
        <ele>315.60</ele>
        <time>2014-03-02T08:30:51Z</time>
      </trkpt>
      <trkpt lat="41.621945160" lon="2.522126730">
        <ele>315.80</ele>
        <time>2014-03-02T08:30:52Z</time>
      </trkpt>
      <trkpt lat="41.621945160" lon="2.522108460">
        <ele>315.90</ele>
        <time>2014-03-02T08:30:53Z</time>
      </trkpt>
      <trkpt lat="41.621945160" lon="2.522093370">
        <ele>315.80</ele>
        <time>2014-03-02T08:30:54Z</time>
      </trkpt>
      <trkpt lat="41.621946670" lon="2.522076770">
        <ele>315.70</ele>
        <time>2014-03-02T08:30:55Z</time>
      </trkpt>
      <trkpt lat="41.621946670" lon="2.522058330">
        <ele>315.70</ele>
        <time>2014-03-02T08:30:56Z</time>
      </trkpt>
      <trkpt lat="41.621948350" lon="2.522043410">
        <ele>316.00</ele>
        <time>2014-03-02T08:30:57Z</time>
      </trkpt>
      <trkpt lat="41.621946670" lon="2.522025140">
        <ele>316.30</ele>
        <time>2014-03-02T08:30:58Z</time>
      </trkpt>
      <trkpt lat="41.621948350" lon="2.522006700">
        <ele>316.50</ele>
        <time>2014-03-02T08:30:59Z</time>
      </trkpt>
      <trkpt lat="41.621950020" lon="2.521988430">
        <ele>316.60</ele>
        <time>2014-03-02T08:31:00Z</time>
      </trkpt>
      <trkpt lat="41.621950020" lon="2.521970160">
        <ele>316.90</ele>
        <time>2014-03-02T08:31:01Z</time>
      </trkpt>
      <trkpt lat="41.621951700" lon="2.521951720">
        <ele>317.20</ele>
        <time>2014-03-02T08:31:02Z</time>
      </trkpt>
      <trkpt lat="41.621951700" lon="2.521933440">
        <ele>317.40</ele>
        <time>2014-03-02T08:31:03Z</time>
      </trkpt>
      <trkpt lat="41.621953370" lon="2.521915000">
        <ele>317.40</ele>
        <time>2014-03-02T08:31:04Z</time>
      </trkpt>
      <trkpt lat="41.621955050" lon="2.521898410">
        <ele>317.40</ele>
        <time>2014-03-02T08:31:05Z</time>
      </trkpt>
      <trkpt lat="41.621956730" lon="2.521881810">
        <ele>317.40</ele>
        <time>2014-03-02T08:31:06Z</time>
      </trkpt>
      <trkpt lat="41.621958400" lon="2.521863370">
        <ele>317.50</ele>
        <time>2014-03-02T08:31:07Z</time>
      </trkpt>
      <trkpt lat="41.621961760" lon="2.521841740">
        <ele>317.80</ele>
        <time>2014-03-02T08:31:08Z</time>
      </trkpt>
      <trkpt lat="41.621965110" lon="2.521821800">
        <ele>318.10</ele>
        <time>2014-03-02T08:31:09Z</time>
      </trkpt>
      <trkpt lat="41.621966790" lon="2.521803360">
        <ele>318.30</ele>
        <time>2014-03-02T08:31:10Z</time>
      </trkpt>
      <trkpt lat="41.621970140" lon="2.521786760">
        <ele>318.60</ele>
        <time>2014-03-02T08:31:11Z</time>
      </trkpt>
      <trkpt lat="41.621973490" lon="2.521768490">
        <ele>318.80</ele>
        <time>2014-03-02T08:31:12Z</time>
      </trkpt>
      <trkpt lat="41.621976680" lon="2.521751720">
        <ele>319.10</ele>
        <time>2014-03-02T08:31:13Z</time>
      </trkpt>
      <trkpt lat="41.621980030" lon="2.521735130">
        <ele>319.30</ele>
        <time>2014-03-02T08:31:14Z</time>
      </trkpt>
      <trkpt lat="41.621986730" lon="2.521718360">
        <ele>319.50</ele>
        <time>2014-03-02T08:31:15Z</time>
      </trkpt>
      <trkpt lat="41.621991760" lon="2.521701770">
        <ele>319.30</ele>
        <time>2014-03-02T08:31:16Z</time>
      </trkpt>
      <trkpt lat="41.621998470" lon="2.521685000">
        <ele>319.10</ele>
        <time>2014-03-02T08:31:17Z</time>
      </trkpt>
      <trkpt lat="41.622003330" lon="2.521668410">
        <ele>319.20</ele>
        <time>2014-03-02T08:31:18Z</time>
      </trkpt>
      <trkpt lat="41.622013390" lon="2.521651810">
        <ele>319.30</ele>
        <time>2014-03-02T08:31:19Z</time>
      </trkpt>
      <trkpt lat="41.622021770" lon="2.521636720">
        <ele>319.50</ele>
        <time>2014-03-02T08:31:20Z</time>
      </trkpt>
      <trkpt lat="41.622031830" lon="2.521621800">
        <ele>319.70</ele>
        <time>2014-03-02T08:31:21Z</time>
      </trkpt>
      <trkpt lat="41.622041720" lon="2.521606720">
        <ele>319.90</ele>
        <time>2014-03-02T08:31:22Z</time>
      </trkpt>
      <trkpt lat="41.622051780" lon="2.521593470">
        <ele>319.60</ele>
        <time>2014-03-02T08:31:23Z</time>
      </trkpt>
      <trkpt lat="41.622061670" lon="2.521585090">
        <ele>319.40</ele>
        <time>2014-03-02T08:31:24Z</time>
      </trkpt>
      <trkpt lat="41.622073400" lon="2.521573360">
        <ele>319.50</ele>
        <time>2014-03-02T08:31:25Z</time>
      </trkpt>
      <trkpt lat="41.622083460" lon="2.521565140">
        <ele>319.50</ele>
        <time>2014-03-02T08:31:26Z</time>
      </trkpt>
      <trkpt lat="41.622095030" lon="2.521556760">
        <ele>319.70</ele>
        <time>2014-03-02T08:31:27Z</time>
      </trkpt>
      <trkpt lat="41.622108440" lon="2.521546700">
        <ele>319.80</ele>
        <time>2014-03-02T08:31:28Z</time>
      </trkpt>
      <trkpt lat="41.622120010" lon="2.521540000">
        <ele>319.90</ele>
        <time>2014-03-02T08:31:29Z</time>
      </trkpt>
      <trkpt lat="41.622133420" lon="2.521533460">
        <ele>320.20</ele>
        <time>2014-03-02T08:31:30Z</time>
      </trkpt>
      <trkpt lat="41.622145150" lon="2.521528430">
        <ele>320.40</ele>
        <time>2014-03-02T08:31:31Z</time>
      </trkpt>
      <trkpt lat="41.622158400" lon="2.521528430">
        <ele>320.90</ele>
        <time>2014-03-02T08:31:32Z</time>
      </trkpt>
      <trkpt lat="41.622168450" lon="2.521531780">
        <ele>321.30</ele>
        <time>2014-03-02T08:31:33Z</time>
      </trkpt>
      <trkpt lat="41.622178340" lon="2.521535130">
        <ele>321.60</ele>
        <time>2014-03-02T08:31:34Z</time>
      </trkpt>
      <trkpt lat="41.622186730" lon="2.521538490">
        <ele>321.70</ele>
        <time>2014-03-02T08:31:35Z</time>
      </trkpt>
      <trkpt lat="41.622198460" lon="2.521545030">
        <ele>321.90</ele>
        <time>2014-03-02T08:31:36Z</time>
      </trkpt>
      <trkpt lat="41.622210030" lon="2.521553410">
        <ele>321.80</ele>
        <time>2014-03-02T08:31:37Z</time>
      </trkpt>
      <trkpt lat="41.622221760" lon="2.521561790">
        <ele>321.80</ele>
        <time>2014-03-02T08:31:38Z</time>
      </trkpt>
      <trkpt lat="41.622233330" lon="2.521571680">
        <ele>321.90</ele>
        <time>2014-03-02T08:31:39Z</time>
      </trkpt>
      <trkpt lat="41.622243390" lon="2.521583410">
        <ele>322.00</ele>
        <time>2014-03-02T08:31:40Z</time>
      </trkpt>
      <trkpt lat="41.622255120" lon="2.521593470">
        <ele>322.00</ele>
        <time>2014-03-02T08:31:41Z</time>
      </trkpt>
      <trkpt lat="41.622266690" lon="2.521603360">
        <ele>322.60</ele>
        <time>2014-03-02T08:31:42Z</time>
      </trkpt>
      <trkpt lat="41.622278420" lon="2.521615100">
        <ele>323.00</ele>
        <time>2014-03-02T08:31:43Z</time>
      </trkpt>
      <trkpt lat="41.622290160" lon="2.521625160">
        <ele>323.00</ele>
        <time>2014-03-02T08:31:44Z</time>
      </trkpt>
      <trkpt lat="41.622300050" lon="2.521636720">
        <ele>323.00</ele>
        <time>2014-03-02T08:31:45Z</time>
      </trkpt>
      <trkpt lat="41.622311780" lon="2.521648460">
        <ele>323.00</ele>
        <time>2014-03-02T08:31:46Z</time>
      </trkpt>
      <trkpt lat="41.622323350" lon="2.521658350">
        <ele>323.10</ele>
        <time>2014-03-02T08:31:47Z</time>
      </trkpt>
      <trkpt lat="41.622336760" lon="2.521670080">
        <ele>323.10</ele>
        <time>2014-03-02T08:31:48Z</time>
      </trkpt>
      <trkpt lat="41.622348330" lon="2.521680140">
        <ele>323.50</ele>
        <time>2014-03-02T08:31:49Z</time>
      </trkpt>
      <trkpt lat="41.622360060" lon="2.521690030">
        <ele>323.80</ele>
        <time>2014-03-02T08:31:50Z</time>
      </trkpt>
      <trkpt lat="41.622371800" lon="2.521701770">
        <ele>323.90</ele>
        <time>2014-03-02T08:31:51Z</time>
      </trkpt>
      <trkpt lat="41.622383370" lon="2.521710150">
        <ele>323.90</ele>
        <time>2014-03-02T08:31:52Z</time>
      </trkpt>
      <trkpt lat="41.622395100" lon="2.521720040">
        <ele>324.00</ele>
        <time>2014-03-02T08:31:53Z</time>
      </trkpt>
      <trkpt lat="41.622406670" lon="2.521730100">
        <ele>324.10</ele>
        <time>2014-03-02T08:31:54Z</time>
      </trkpt>
      <trkpt lat="41.622420080" lon="2.521738480">
        <ele>324.20</ele>
        <time>2014-03-02T08:31:55Z</time>
      </trkpt>
      <trkpt lat="41.622431810" lon="2.521746690">
        <ele>324.40</ele>
        <time>2014-03-02T08:31:56Z</time>
      </trkpt>
      <trkpt lat="41.622445060" lon="2.521753400">
        <ele>324.50</ele>
        <time>2014-03-02T08:31:57Z</time>
      </trkpt>
      <trkpt lat="41.622456790" lon="2.521760100">
        <ele>324.80</ele>
        <time>2014-03-02T08:31:58Z</time>
      </trkpt>
      <trkpt lat="41.622470030" lon="2.521768490">
        <ele>324.90</ele>
        <time>2014-03-02T08:31:59Z</time>
      </trkpt>
      <trkpt lat="41.622481770" lon="2.521775020">
        <ele>325.10</ele>
        <time>2014-03-02T08:32:00Z</time>
      </trkpt>
      <trkpt lat="41.622495010" lon="2.521783410">
        <ele>325.00</ele>
        <time>2014-03-02T08:32:01Z</time>
      </trkpt>
      <trkpt lat="41.622508420" lon="2.521790110">
        <ele>325.00</ele>
        <time>2014-03-02T08:32:02Z</time>
      </trkpt>
      <trkpt lat="41.622521670" lon="2.521796820">
        <ele>325.70</ele>
        <time>2014-03-02T08:32:03Z</time>
      </trkpt>
      <trkpt lat="41.622535080" lon="2.521803360">
        <ele>326.20</ele>
        <time>2014-03-02T08:32:04Z</time>
      </trkpt>
      <trkpt lat="41.622546810" lon="2.521813410">
        <ele>326.40</ele>
        <time>2014-03-02T08:32:05Z</time>
      </trkpt>
      <trkpt lat="41.622560060" lon="2.521820120">
        <ele>326.60</ele>
        <time>2014-03-02T08:32:06Z</time>
      </trkpt>
      <trkpt lat="41.622573470" lon="2.521826820">
        <ele>326.70</ele>
        <time>2014-03-02T08:32:07Z</time>
      </trkpt>
      <trkpt lat="41.622586710" lon="2.521833360">
        <ele>326.90</ele>
        <time>2014-03-02T08:32:08Z</time>
      </trkpt>
      <trkpt lat="41.622598450" lon="2.521840070">
        <ele>327.10</ele>
        <time>2014-03-02T08:32:09Z</time>
      </trkpt>
      <trkpt lat="41.622610010" lon="2.521845100">
        <ele>327.20</ele>
        <time>2014-03-02T08:32:10Z</time>
      </trkpt>
      <trkpt lat="41.622623420" lon="2.521848450">
        <ele>327.30</ele>
        <time>2014-03-02T08:32:11Z</time>
      </trkpt>
      <trkpt lat="41.622636670" lon="2.521853480">
        <ele>327.40</ele>
        <time>2014-03-02T08:32:12Z</time>
      </trkpt>
      <trkpt lat="41.622650080" lon="2.521856660">
        <ele>327.60</ele>
        <time>2014-03-02T08:32:13Z</time>
      </trkpt>
      <trkpt lat="41.622666670" lon="2.521858340">
        <ele>327.80</ele>
        <time>2014-03-02T08:32:14Z</time>
      </trkpt>
      <trkpt lat="41.622686790" lon="2.521860020">
        <ele>328.10</ele>
        <time>2014-03-02T08:32:15Z</time>
      </trkpt>
      <trkpt lat="41.622701710" lon="2.521861690">
        <ele>328.20</ele>
        <time>2014-03-02T08:32:16Z</time>
      </trkpt>
      <trkpt lat="41.622718470" lon="2.521861690">
        <ele>328.40</ele>
        <time>2014-03-02T08:32:17Z</time>
      </trkpt>
      <trkpt lat="41.622733390" lon="2.521861690">
        <ele>328.50</ele>
        <time>2014-03-02T08:32:18Z</time>
      </trkpt>
      <trkpt lat="41.622746810" lon="2.521861690">
        <ele>328.60</ele>
        <time>2014-03-02T08:32:19Z</time>
      </trkpt>
      <trkpt lat="41.622761730" lon="2.521861690">
        <ele>328.80</ele>
        <time>2014-03-02T08:32:20Z</time>
      </trkpt>
      <trkpt lat="41.622775140" lon="2.521860020">
        <ele>328.90</ele>
        <time>2014-03-02T08:32:21Z</time>
      </trkpt>
      <trkpt lat="41.622788380" lon="2.521858340">
        <ele>328.90</ele>
        <time>2014-03-02T08:32:22Z</time>
      </trkpt>
      <trkpt lat="41.622801790" lon="2.521855160">
        <ele>329.00</ele>
        <time>2014-03-02T08:32:23Z</time>
      </trkpt>
      <trkpt lat="41.622815030" lon="2.521853480">
        <ele>328.70</ele>
        <time>2014-03-02T08:32:24Z</time>
      </trkpt>
      <trkpt lat="41.622826770" lon="2.521850130">
        <ele>328.50</ele>
        <time>2014-03-02T08:32:25Z</time>
      </trkpt>
      <trkpt lat="41.622841690" lon="2.521848450">
        <ele>328.30</ele>
        <time>2014-03-02T08:32:26Z</time>
      </trkpt>
      <trkpt lat="41.622858450" lon="2.521846770">
        <ele>328.50</ele>
        <time>2014-03-02T08:32:27Z</time>
      </trkpt>
      <trkpt lat="41.622873370" lon="2.521843420">
        <ele>328.60</ele>
        <time>2014-03-02T08:32:28Z</time>
      </trkpt>
      <trkpt lat="41.622890140" lon="2.521840070">
        <ele>328.90</ele>
        <time>2014-03-02T08:32:29Z</time>
      </trkpt>
      <trkpt lat="41.622903380" lon="2.521836720">
        <ele>329.20</ele>
        <time>2014-03-02T08:32:30Z</time>
      </trkpt>
      <trkpt lat="41.622916790" lon="2.521833360">
        <ele>329.70</ele>
        <time>2014-03-02T08:32:31Z</time>
      </trkpt>
      <trkpt lat="41.622931710" lon="2.521830010">
        <ele>330.00</ele>
        <time>2014-03-02T08:32:32Z</time>
      </trkpt>
      <trkpt lat="41.622948470" lon="2.521826820">
        <ele>330.30</ele>
        <time>2014-03-02T08:32:33Z</time>
      </trkpt>
      <trkpt lat="41.622965070" lon="2.521825150">
        <ele>330.20</ele>
        <time>2014-03-02T08:32:34Z</time>
      </trkpt>
      <trkpt lat="41.622980160" lon="2.521820120">
        <ele>330.20</ele>
        <time>2014-03-02T08:32:35Z</time>
      </trkpt>
      <trkpt lat="41.622995080" lon="2.521815090">
        <ele>330.50</ele>
        <time>2014-03-02T08:32:36Z</time>
      </trkpt>
      <trkpt lat="41.623010000" lon="2.521810060">
        <ele>330.70</ele>
        <time>2014-03-02T08:32:37Z</time>
      </trkpt>
      <trkpt lat="41.623025080" lon="2.521803360">
        <ele>330.90</ele>
        <time>2014-03-02T08:32:38Z</time>
      </trkpt>
      <trkpt lat="41.623038500" lon="2.521796820">
        <ele>330.80</ele>
        <time>2014-03-02T08:32:39Z</time>
      </trkpt>
      <trkpt lat="41.623053420" lon="2.521791790">
        <ele>330.70</ele>
        <time>2014-03-02T08:32:40Z</time>
      </trkpt>
      <trkpt lat="41.623068340" lon="2.521786760">
        <ele>331.40</ele>
        <time>2014-03-02T08:32:41Z</time>
      </trkpt>
      <trkpt lat="41.623083420" lon="2.521783410">
        <ele>331.80</ele>
        <time>2014-03-02T08:32:42Z</time>
      </trkpt>
      <trkpt lat="41.623098340" lon="2.521783410">
        <ele>332.10</ele>
        <time>2014-03-02T08:32:43Z</time>
      </trkpt>
      <trkpt lat="41.623115110" lon="2.521780050">
        <ele>332.30</ele>
        <time>2014-03-02T08:32:44Z</time>
      </trkpt>
      <trkpt lat="41.623130030" lon="2.521781730">
        <ele>332.50</ele>
        <time>2014-03-02T08:32:45Z</time>
      </trkpt>
      <trkpt lat="41.623145110" lon="2.521785080">
        <ele>332.60</ele>
        <time>2014-03-02T08:32:46Z</time>
      </trkpt>
      <trkpt lat="41.623160030" lon="2.521790110">
        <ele>332.60</ele>
        <time>2014-03-02T08:32:47Z</time>
      </trkpt>
      <trkpt lat="41.623175120" lon="2.521795140">
        <ele>332.70</ele>
        <time>2014-03-02T08:32:48Z</time>
      </trkpt>
      <trkpt lat="41.623190040" lon="2.521805030">
        <ele>332.80</ele>
        <time>2014-03-02T08:32:49Z</time>
      </trkpt>
      <trkpt lat="41.623203450" lon="2.521813410">
        <ele>332.80</ele>
        <time>2014-03-02T08:32:50Z</time>
      </trkpt>
      <trkpt lat="41.623215020" lon="2.521830010">
        <ele>332.90</ele>
        <time>2014-03-02T08:32:51Z</time>
      </trkpt>
      <trkpt lat="41.623226750" lon="2.521846770">
        <ele>332.90</ele>
        <time>2014-03-02T08:32:52Z</time>
      </trkpt>
      <trkpt lat="41.623241670" lon="2.521858340">
        <ele>332.90</ele>
        <time>2014-03-02T08:32:53Z</time>
      </trkpt>
      <trkpt lat="41.623255080" lon="2.521870080">
        <ele>332.80</ele>
        <time>2014-03-02T08:32:54Z</time>
      </trkpt>
      <trkpt lat="41.623265140" lon="2.521885000">
        <ele>333.10</ele>
        <time>2014-03-02T08:32:55Z</time>
      </trkpt>
      <trkpt lat="41.623278390" lon="2.521900080">
        <ele>333.30</ele>
        <time>2014-03-02T08:32:56Z</time>
      </trkpt>
      <trkpt lat="41.623290120" lon="2.521915000">
        <ele>333.40</ele>
        <time>2014-03-02T08:32:57Z</time>
      </trkpt>
      <trkpt lat="41.623301690" lon="2.521928410">
        <ele>333.50</ele>
        <time>2014-03-02T08:32:58Z</time>
      </trkpt>
      <trkpt lat="41.623315100" lon="2.521941820">
        <ele>333.50</ele>
        <time>2014-03-02T08:32:59Z</time>
      </trkpt>
      <trkpt lat="41.623326670" lon="2.521953390">
        <ele>334.30</ele>
        <time>2014-03-02T08:33:00Z</time>
      </trkpt>
      <trkpt lat="41.623338400" lon="2.521966800">
        <ele>334.80</ele>
        <time>2014-03-02T08:33:01Z</time>
      </trkpt>
      <trkpt lat="41.623350130" lon="2.521976690">
        <ele>334.90</ele>
        <time>2014-03-02T08:33:02Z</time>
      </trkpt>
      <trkpt lat="41.623361700" lon="2.521988430">
        <ele>334.90</ele>
        <time>2014-03-02T08:33:03Z</time>
      </trkpt>
      <trkpt lat="41.623373440" lon="2.522000160">
        <ele>334.90</ele>
        <time>2014-03-02T08:33:04Z</time>
      </trkpt>
      <trkpt lat="41.623385000" lon="2.522011730">
        <ele>334.90</ele>
        <time>2014-03-02T08:33:05Z</time>
      </trkpt>
      <trkpt lat="41.623396740" lon="2.522021790">
        <ele>334.90</ele>
        <time>2014-03-02T08:33:06Z</time>
      </trkpt>
      <trkpt lat="41.623408470" lon="2.522035030">
        <ele>335.00</ele>
        <time>2014-03-02T08:33:07Z</time>
      </trkpt>
      <trkpt lat="41.623420040" lon="2.522048440">
        <ele>335.10</ele>
        <time>2014-03-02T08:33:08Z</time>
      </trkpt>
      <trkpt lat="41.623433450" lon="2.522063360">
        <ele>335.40</ele>
        <time>2014-03-02T08:33:09Z</time>
      </trkpt>
      <trkpt lat="41.623445020" lon="2.522078450">
        <ele>335.60</ele>
        <time>2014-03-02T08:33:10Z</time>
      </trkpt>
      <trkpt lat="41.623456750" lon="2.522093370">
        <ele>335.70</ele>
        <time>2014-03-02T08:33:11Z</time>
      </trkpt>
      <trkpt lat="41.623470000" lon="2.522110130">
        <ele>335.80</ele>
        <time>2014-03-02T08:33:12Z</time>
      </trkpt>
      <trkpt lat="41.623481730" lon="2.522126730">
        <ele>335.80</ele>
        <time>2014-03-02T08:33:13Z</time>
      </trkpt>
      <trkpt lat="41.623491790" lon="2.522145000">
        <ele>335.70</ele>
        <time>2014-03-02T08:33:14Z</time>
      </trkpt>
      <trkpt lat="41.623501680" lon="2.522165120">
        <ele>335.70</ele>
        <time>2014-03-02T08:33:15Z</time>
      </trkpt>
      <trkpt lat="41.623513410" lon="2.522183390">
        <ele>335.70</ele>
        <time>2014-03-02T08:33:16Z</time>
      </trkpt>
      <trkpt lat="41.623528330" lon="2.522195130">
        <ele>335.90</ele>
        <time>2014-03-02T08:33:17Z</time>
      </trkpt>
      <trkpt lat="41.623543420" lon="2.522208370">
        <ele>336.10</ele>
        <time>2014-03-02T08:33:18Z</time>
      </trkpt>
      <trkpt lat="41.623556660" lon="2.522221780">
        <ele>335.80</ele>
        <time>2014-03-02T08:33:19Z</time>
      </trkpt>
      <trkpt lat="41.623566720" lon="2.522235020">
        <ele>335.50</ele>
        <time>2014-03-02T08:33:20Z</time>
      </trkpt>
      <trkpt lat="41.623571750" lon="2.522246760">
        <ele>336.00</ele>
        <time>2014-03-02T08:33:21Z</time>
      </trkpt>
      <trkpt lat="41.623581810" lon="2.522256820">
        <ele>336.30</ele>
        <time>2014-03-02T08:33:22Z</time>
      </trkpt>
      <trkpt lat="41.623590020" lon="2.522263350">
        <ele>336.60</ele>
        <time>2014-03-02T08:33:23Z</time>
      </trkpt>
      <trkpt lat="41.623600080" lon="2.522268380">
        <ele>336.90</ele>
        <time>2014-03-02T08:33:24Z</time>
      </trkpt>
      <trkpt lat="41.623610140" lon="2.522276770">
        <ele>337.10</ele>
        <time>2014-03-02T08:33:25Z</time>
      </trkpt>
      <trkpt lat="41.623620030" lon="2.522288330">
        <ele>336.90</ele>
        <time>2014-03-02T08:33:26Z</time>
      </trkpt>
      <trkpt lat="41.623630090" lon="2.522301740">
        <ele>336.80</ele>
        <time>2014-03-02T08:33:27Z</time>
      </trkpt>
      <trkpt lat="41.623641820" lon="2.522313480">
        <ele>336.80</ele>
        <time>2014-03-02T08:33:28Z</time>
      </trkpt>
      <trkpt lat="41.623655070" lon="2.522325050">
        <ele>336.90</ele>
        <time>2014-03-02T08:33:29Z</time>
      </trkpt>
      <trkpt lat="41.623670160" lon="2.522335100">
        <ele>336.90</ele>
        <time>2014-03-02T08:33:30Z</time>
      </trkpt>
      <trkpt lat="41.623685080" lon="2.522345160">
        <ele>336.90</ele>
        <time>2014-03-02T08:33:31Z</time>
      </trkpt>
      <trkpt lat="41.623700000" lon="2.522358410">
        <ele>336.80</ele>
        <time>2014-03-02T08:33:32Z</time>
      </trkpt>
      <trkpt lat="41.623715080" lon="2.522370140">
        <ele>337.00</ele>
        <time>2014-03-02T08:33:33Z</time>
      </trkpt>
      <trkpt lat="41.623728490" lon="2.522380030">
        <ele>337.10</ele>
        <time>2014-03-02T08:33:34Z</time>
      </trkpt>
      <trkpt lat="41.623743410" lon="2.522391770">
        <ele>337.10</ele>
        <time>2014-03-02T08:33:35Z</time>
      </trkpt>
      <trkpt lat="41.623758330" lon="2.522405010">
        <ele>336.90</ele>
        <time>2014-03-02T08:33:36Z</time>
      </trkpt>
      <trkpt lat="41.623775100" lon="2.522418420">
        <ele>336.70</ele>
        <time>2014-03-02T08:33:37Z</time>
      </trkpt>
      <trkpt lat="41.623790020" lon="2.522431660">
        <ele>336.60</ele>
        <time>2014-03-02T08:33:38Z</time>
      </trkpt>
      <trkpt lat="41.623803430" lon="2.522446750">
        <ele>336.60</ele>
        <time>2014-03-02T08:33:39Z</time>
      </trkpt>
      <trkpt lat="41.623816670" lon="2.522460160">
        <ele>336.80</ele>
        <time>2014-03-02T08:33:40Z</time>
      </trkpt>
      <trkpt lat="41.623831760" lon="2.522475080">
        <ele>336.90</ele>
        <time>2014-03-02T08:33:41Z</time>
      </trkpt>
      <trkpt lat="41.623846680" lon="2.522490000">
        <ele>337.00</ele>
        <time>2014-03-02T08:33:42Z</time>
      </trkpt>
      <trkpt lat="41.623861770" lon="2.522506760">
        <ele>337.40</ele>
        <time>2014-03-02T08:33:43Z</time>
      </trkpt>
      <trkpt lat="41.623876690" lon="2.522525040">
        <ele>337.70</ele>
        <time>2014-03-02T08:33:44Z</time>
      </trkpt>
      <trkpt lat="41.623888420" lon="2.522541800">
        <ele>338.30</ele>
        <time>2014-03-02T08:33:45Z</time>
      </trkpt>
      <trkpt lat="41.623903340" lon="2.522556720">
        <ele>338.80</ele>
        <time>2014-03-02T08:33:46Z</time>
      </trkpt>
      <trkpt lat="41.623918430" lon="2.522573480">
        <ele>338.60</ele>
        <time>2014-03-02T08:33:47Z</time>
      </trkpt>
      <trkpt lat="41.623933350" lon="2.522590080">
        <ele>338.40</ele>
        <time>2014-03-02T08:33:48Z</time>
      </trkpt>
      <trkpt lat="41.623945080" lon="2.522610030">
        <ele>338.30</ele>
        <time>2014-03-02T08:33:49Z</time>
      </trkpt>
      <trkpt lat="41.623958490" lon="2.522628470">
        <ele>338.20</ele>
        <time>2014-03-02T08:33:50Z</time>
      </trkpt>
      <trkpt lat="41.623970060" lon="2.522646740">
        <ele>338.10</ele>
        <time>2014-03-02T08:33:51Z</time>
      </trkpt>
      <trkpt lat="41.623980120" lon="2.522666690">
        <ele>338.40</ele>
        <time>2014-03-02T08:33:52Z</time>
      </trkpt>
      <trkpt lat="41.623991690" lon="2.522686810">
        <ele>338.70</ele>
        <time>2014-03-02T08:33:53Z</time>
      </trkpt>
      <trkpt lat="41.624001740" lon="2.522708430">
        <ele>338.90</ele>
        <time>2014-03-02T08:33:54Z</time>
      </trkpt>
      <trkpt lat="41.624013480" lon="2.522730060">
        <ele>338.70</ele>
        <time>2014-03-02T08:33:55Z</time>
      </trkpt>
      <trkpt lat="41.624025050" lon="2.522751680">
        <ele>338.60</ele>
        <time>2014-03-02T08:33:56Z</time>
      </trkpt>
      <trkpt lat="41.624038460" lon="2.522771800">
        <ele>338.50</ele>
        <time>2014-03-02T08:33:57Z</time>
      </trkpt>
      <trkpt lat="41.624050020" lon="2.522793430">
        <ele>338.40</ele>
        <time>2014-03-02T08:33:58Z</time>
      </trkpt>
      <trkpt lat="41.624060080" lon="2.522815050">
        <ele>338.50</ele>
        <time>2014-03-02T08:33:59Z</time>
      </trkpt>
      <trkpt lat="41.624071820" lon="2.522836680">
        <ele>338.60</ele>
        <time>2014-03-02T08:34:00Z</time>
      </trkpt>
      <trkpt lat="41.624083380" lon="2.522858470">
        <ele>338.70</ele>
        <time>2014-03-02T08:34:01Z</time>
      </trkpt>
      <trkpt lat="41.624095120" lon="2.522883450">
        <ele>338.90</ele>
        <time>2014-03-02T08:34:02Z</time>
      </trkpt>
      <trkpt lat="41.624106690" lon="2.522906750">
        <ele>339.00</ele>
        <time>2014-03-02T08:34:03Z</time>
      </trkpt>
      <trkpt lat="41.624118420" lon="2.522933400">
        <ele>338.60</ele>
        <time>2014-03-02T08:34:04Z</time>
      </trkpt>
      <trkpt lat="41.624128480" lon="2.522958380">
        <ele>338.30</ele>
        <time>2014-03-02T08:34:05Z</time>
      </trkpt>
      <trkpt lat="41.624140050" lon="2.522981680">
        <ele>338.30</ele>
        <time>2014-03-02T08:34:06Z</time>
      </trkpt>
      <trkpt lat="41.624150100" lon="2.523005150">
        <ele>338.20</ele>
        <time>2014-03-02T08:34:07Z</time>
      </trkpt>
      <trkpt lat="41.624160160" lon="2.523028450">
        <ele>338.20</ele>
        <time>2014-03-02T08:34:08Z</time>
      </trkpt>
      <trkpt lat="41.624166700" lon="2.523053430">
        <ele>338.00</ele>
        <time>2014-03-02T08:34:09Z</time>
      </trkpt>
      <trkpt lat="41.624173410" lon="2.523078410">
        <ele>337.90</ele>
        <time>2014-03-02T08:34:10Z</time>
      </trkpt>
      <trkpt lat="41.624180110" lon="2.523105060">
        <ele>338.10</ele>
        <time>2014-03-02T08:34:11Z</time>
      </trkpt>
      <trkpt lat="41.624186820" lon="2.523131720">
        <ele>338.30</ele>
        <time>2014-03-02T08:34:12Z</time>
      </trkpt>
      <trkpt lat="41.624193350" lon="2.523158370">
        <ele>338.50</ele>
        <time>2014-03-02T08:34:13Z</time>
      </trkpt>
      <trkpt lat="41.624200060" lon="2.523185030">
        <ele>338.60</ele>
        <time>2014-03-02T08:34:14Z</time>
      </trkpt>
      <trkpt lat="41.624206770" lon="2.523211680">
        <ele>338.70</ele>
        <time>2014-03-02T08:34:15Z</time>
      </trkpt>
      <trkpt lat="41.624215150" lon="2.523240010">
        <ele>338.60</ele>
        <time>2014-03-02T08:34:16Z</time>
      </trkpt>
      <trkpt lat="41.624221680" lon="2.523266670">
        <ele>338.60</ele>
        <time>2014-03-02T08:34:17Z</time>
      </trkpt>
      <trkpt lat="41.624230070" lon="2.523291810">
        <ele>338.90</ele>
        <time>2014-03-02T08:34:18Z</time>
      </trkpt>
      <trkpt lat="41.624238450" lon="2.523316790">
        <ele>339.10</ele>
        <time>2014-03-02T08:34:19Z</time>
      </trkpt>
      <trkpt lat="41.624245150" lon="2.523341770">
        <ele>339.30</ele>
        <time>2014-03-02T08:34:20Z</time>
      </trkpt>
      <trkpt lat="41.624253370" lon="2.523365070">
        <ele>339.10</ele>
        <time>2014-03-02T08:34:21Z</time>
      </trkpt>
      <trkpt lat="41.624263430" lon="2.523390050">
        <ele>339.00</ele>
        <time>2014-03-02T08:34:22Z</time>
      </trkpt>
      <trkpt lat="41.624271810" lon="2.523418380">
        <ele>338.90</ele>
        <time>2014-03-02T08:34:23Z</time>
      </trkpt>
      <trkpt lat="41.624278350" lon="2.523448390">
        <ele>338.80</ele>
        <time>2014-03-02T08:34:24Z</time>
      </trkpt>
      <trkpt lat="41.624285050" lon="2.523475040">
        <ele>339.10</ele>
        <time>2014-03-02T08:34:25Z</time>
      </trkpt>
      <trkpt lat="41.624293430" lon="2.523500020">
        <ele>339.40</ele>
        <time>2014-03-02T08:34:26Z</time>
      </trkpt>
      <trkpt lat="41.624300140" lon="2.523523490">
        <ele>339.60</ele>
        <time>2014-03-02T08:34:27Z</time>
      </trkpt>
      <trkpt lat="41.624306680" lon="2.523543440">
        <ele>339.70</ele>
        <time>2014-03-02T08:34:28Z</time>
      </trkpt>
      <trkpt lat="41.624316740" lon="2.523565060">
        <ele>339.70</ele>
        <time>2014-03-02T08:34:29Z</time>
      </trkpt>
      <trkpt lat="41.624325120" lon="2.523583340">
        <ele>339.90</ele>
        <time>2014-03-02T08:34:30Z</time>
      </trkpt>
      <trkpt lat="41.624335010" lon="2.523603450">
        <ele>340.00</ele>
        <time>2014-03-02T08:34:31Z</time>
      </trkpt>
      <trkpt lat="41.624343390" lon="2.523626750">
        <ele>340.00</ele>
        <time>2014-03-02T08:34:32Z</time>
      </trkpt>
      <trkpt lat="41.624350100" lon="2.523648380">
        <ele>340.00</ele>
        <time>2014-03-02T08:34:33Z</time>
      </trkpt>
      <trkpt lat="41.624356800" lon="2.523668330">
        <ele>340.00</ele>
        <time>2014-03-02T08:34:34Z</time>
      </trkpt>
      <trkpt lat="41.624366690" lon="2.523688450">
        <ele>340.20</ele>
        <time>2014-03-02T08:34:35Z</time>
      </trkpt>
      <trkpt lat="41.624375070" lon="2.523710070">
        <ele>340.30</ele>
        <time>2014-03-02T08:34:36Z</time>
      </trkpt>
      <trkpt lat="41.624383460" lon="2.523728340">
        <ele>340.40</ele>
        <time>2014-03-02T08:34:37Z</time>
      </trkpt>
      <trkpt lat="41.624390160" lon="2.523748460">
        <ele>340.50</ele>
        <time>2014-03-02T08:34:38Z</time>
      </trkpt>
      <trkpt lat="41.624401730" lon="2.523766730">
        <ele>340.60</ele>
        <time>2014-03-02T08:34:39Z</time>
      </trkpt>
      <trkpt lat="41.624410110" lon="2.523786680">
        <ele>340.80</ele>
        <time>2014-03-02T08:34:40Z</time>
      </trkpt>
      <trkpt lat="41.624420000" lon="2.523806800">
        <ele>340.90</ele>
        <time>2014-03-02T08:34:41Z</time>
      </trkpt>
      <trkpt lat="41.624428380" lon="2.523826750">
        <ele>341.20</ele>
        <time>2014-03-02T08:34:42Z</time>
      </trkpt>
      <trkpt lat="41.624440120" lon="2.523845020">
        <ele>341.50</ele>
        <time>2014-03-02T08:34:43Z</time>
      </trkpt>
      <trkpt lat="41.624448330" lon="2.523863460">
        <ele>341.70</ele>
        <time>2014-03-02T08:34:44Z</time>
      </trkpt>
      <trkpt lat="41.624458390" lon="2.523885080">
        <ele>341.90</ele>
        <time>2014-03-02T08:34:45Z</time>
      </trkpt>
      <trkpt lat="41.624466770" lon="2.523905030">
        <ele>342.00</ele>
        <time>2014-03-02T08:34:46Z</time>
      </trkpt>
      <trkpt lat="41.624475150" lon="2.523925150">
        <ele>341.90</ele>
        <time>2014-03-02T08:34:47Z</time>
      </trkpt>
      <trkpt lat="41.624485040" lon="2.523945100">
        <ele>341.80</ele>
        <time>2014-03-02T08:34:48Z</time>
      </trkpt>
      <trkpt lat="41.624495100" lon="2.523965050">
        <ele>342.40</ele>
        <time>2014-03-02T08:34:49Z</time>
      </trkpt>
      <trkpt lat="41.624501810" lon="2.523983490">
        <ele>342.90</ele>
        <time>2014-03-02T08:34:50Z</time>
      </trkpt>
      <trkpt lat="41.624508350" lon="2.524001760">
        <ele>342.90</ele>
        <time>2014-03-02T08:34:51Z</time>
      </trkpt>
      <trkpt lat="41.624516730" lon="2.524021710">
        <ele>343.00</ele>
        <time>2014-03-02T08:34:52Z</time>
      </trkpt>
      <trkpt lat="41.624523430" lon="2.524043340">
        <ele>343.10</ele>
        <time>2014-03-02T08:34:53Z</time>
      </trkpt>
      <trkpt lat="41.624530140" lon="2.524063450">
        <ele>342.80</ele>
        <time>2014-03-02T08:34:54Z</time>
      </trkpt>
      <trkpt lat="41.624536680" lon="2.524081720">
        <ele>342.50</ele>
        <time>2014-03-02T08:34:55Z</time>
      </trkpt>
      <trkpt lat="41.624545060" lon="2.524101670">
        <ele>342.60</ele>
        <time>2014-03-02T08:34:56Z</time>
      </trkpt>
      <trkpt lat="41.624551760" lon="2.524121790">
        <ele>342.60</ele>
        <time>2014-03-02T08:34:57Z</time>
      </trkpt>
      <trkpt lat="41.624560150" lon="2.524141740">
        <ele>342.60</ele>
        <time>2014-03-02T08:34:58Z</time>
      </trkpt>
      <trkpt lat="41.624566680" lon="2.524163360">
        <ele>343.20</ele>
        <time>2014-03-02T08:34:59Z</time>
      </trkpt>
      <trkpt lat="41.624575070" lon="2.524183480">
        <ele>343.60</ele>
        <time>2014-03-02T08:35:00Z</time>
      </trkpt>
      <trkpt lat="41.624585120" lon="2.524201750">
        <ele>343.60</ele>
        <time>2014-03-02T08:35:01Z</time>
      </trkpt>
      <trkpt lat="41.624593340" lon="2.524221700">
        <ele>343.60</ele>
        <time>2014-03-02T08:35:02Z</time>
      </trkpt>
      <trkpt lat="41.624600040" lon="2.524241820">
        <ele>343.70</ele>
        <time>2014-03-02T08:35:03Z</time>
      </trkpt>
      <trkpt lat="41.624608430" lon="2.524260090">
        <ele>343.80</ele>
        <time>2014-03-02T08:35:04Z</time>
      </trkpt>
      <trkpt lat="41.624616810" lon="2.524280040">
        <ele>343.80</ele>
        <time>2014-03-02T08:35:05Z</time>
      </trkpt>
      <trkpt lat="41.624625020" lon="2.524301670">
        <ele>344.10</ele>
        <time>2014-03-02T08:35:06Z</time>
      </trkpt>
      <trkpt lat="41.624633400" lon="2.524325130">
        <ele>344.30</ele>
        <time>2014-03-02T08:35:07Z</time>
      </trkpt>
      <trkpt lat="41.624643460" lon="2.524348440">
        <ele>344.90</ele>
        <time>2014-03-02T08:35:08Z</time>
      </trkpt>
      <trkpt lat="41.624651680" lon="2.524371740">
        <ele>345.40</ele>
        <time>2014-03-02T08:35:09Z</time>
      </trkpt>
      <trkpt lat="41.624658380" lon="2.524395040">
        <ele>345.40</ele>
        <time>2014-03-02T08:35:10Z</time>
      </trkpt>
      <trkpt lat="41.624668440" lon="2.524420020">
        <ele>345.40</ele>
        <time>2014-03-02T08:35:11Z</time>
      </trkpt>
      <trkpt lat="41.624676820" lon="2.524441810">
        <ele>345.40</ele>
        <time>2014-03-02T08:35:12Z</time>
      </trkpt>
      <trkpt lat="41.624686710" lon="2.524465110">
        <ele>345.60</ele>
        <time>2014-03-02T08:35:13Z</time>
      </trkpt>
      <trkpt lat="41.624693420" lon="2.524486740">
        <ele>345.70</ele>
        <time>2014-03-02T08:35:14Z</time>
      </trkpt>
      <trkpt lat="41.624703480" lon="2.524510040">
        <ele>345.80</ele>
        <time>2014-03-02T08:35:15Z</time>
      </trkpt>
      <trkpt lat="41.624711690" lon="2.524533340">
        <ele>345.80</ele>
        <time>2014-03-02T08:35:16Z</time>
      </trkpt>
      <trkpt lat="41.624718400" lon="2.524555130">
        <ele>345.80</ele>
        <time>2014-03-02T08:35:17Z</time>
      </trkpt>
      <trkpt lat="41.624725100" lon="2.524576760">
        <ele>345.90</ele>
        <time>2014-03-02T08:35:18Z</time>
      </trkpt>
      <trkpt lat="41.624730130" lon="2.524598380">
        <ele>346.00</ele>
        <time>2014-03-02T08:35:19Z</time>
      </trkpt>
      <trkpt lat="41.624738350" lon="2.524620010">
        <ele>345.80</ele>
        <time>2014-03-02T08:35:20Z</time>
      </trkpt>
      <trkpt lat="41.624746730" lon="2.524640130">
        <ele>345.60</ele>
        <time>2014-03-02T08:35:21Z</time>
      </trkpt>
      <trkpt lat="41.624758460" lon="2.524660080">
        <ele>346.00</ele>
        <time>2014-03-02T08:35:22Z</time>
      </trkpt>
      <trkpt lat="41.624766680" lon="2.524680020">
        <ele>346.30</ele>
        <time>2014-03-02T08:35:23Z</time>
      </trkpt>
      <trkpt lat="41.624775060" lon="2.524701820">
        <ele>346.50</ele>
        <time>2014-03-02T08:35:24Z</time>
      </trkpt>
      <trkpt lat="41.624783440" lon="2.524725120">
        <ele>346.60</ele>
        <time>2014-03-02T08:35:25Z</time>
      </trkpt>
      <trkpt lat="41.624793330" lon="2.524748420">
        <ele>346.70</ele>
        <time>2014-03-02T08:35:26Z</time>
      </trkpt>
      <trkpt lat="41.624800040" lon="2.524771720">
        <ele>346.50</ele>
        <time>2014-03-02T08:35:27Z</time>
      </trkpt>
      <trkpt lat="41.624806740" lon="2.524795020">
        <ele>346.30</ele>
        <time>2014-03-02T08:35:28Z</time>
      </trkpt>
      <trkpt lat="41.624815120" lon="2.524820000">
        <ele>346.20</ele>
        <time>2014-03-02T08:35:29Z</time>
      </trkpt>
      <trkpt lat="41.624820150" lon="2.524846820">
        <ele>346.60</ele>
        <time>2014-03-02T08:35:30Z</time>
      </trkpt>
      <trkpt lat="41.624825010" lon="2.524870130">
        <ele>346.80</ele>
        <time>2014-03-02T08:35:31Z</time>
      </trkpt>
      <trkpt lat="41.624830040" lon="2.524891750">
        <ele>346.30</ele>
        <time>2014-03-02T08:35:32Z</time>
      </trkpt>
      <trkpt lat="41.624838430" lon="2.524910020">
        <ele>346.00</ele>
        <time>2014-03-02T08:35:33Z</time>
      </trkpt>
      <trkpt lat="41.624845130" lon="2.524931820">
        <ele>346.20</ele>
        <time>2014-03-02T08:35:34Z</time>
      </trkpt>
      <trkpt lat="41.624853350" lon="2.524950090">
        <ele>346.40</ele>
        <time>2014-03-02T08:35:35Z</time>
      </trkpt>
      <trkpt lat="41.624861730" lon="2.524971710">
        <ele>346.60</ele>
        <time>2014-03-02T08:35:36Z</time>
      </trkpt>
      <trkpt lat="41.624870110" lon="2.524993340">
        <ele>346.80</ele>
        <time>2014-03-02T08:35:37Z</time>
      </trkpt>
      <trkpt lat="41.624880000" lon="2.525015130">
        <ele>347.00</ele>
        <time>2014-03-02T08:35:38Z</time>
      </trkpt>
      <trkpt lat="41.624891730" lon="2.525036760">
        <ele>347.20</ele>
        <time>2014-03-02T08:35:39Z</time>
      </trkpt>
      <trkpt lat="41.624903470" lon="2.525058380">
        <ele>347.40</ele>
        <time>2014-03-02T08:35:40Z</time>
      </trkpt>
      <trkpt lat="41.624916710" lon="2.525078330">
        <ele>347.60</ele>
        <time>2014-03-02T08:35:41Z</time>
      </trkpt>
      <trkpt lat="41.624931800" lon="2.525095100">
        <ele>347.70</ele>
        <time>2014-03-02T08:35:42Z</time>
      </trkpt>
      <trkpt lat="41.624945040" lon="2.525115050">
        <ele>347.80</ele>
        <time>2014-03-02T08:35:43Z</time>
      </trkpt>
      <trkpt lat="41.624958450" lon="2.525135160">
        <ele>348.30</ele>
        <time>2014-03-02T08:35:44Z</time>
      </trkpt>
      <trkpt lat="41.624973370" lon="2.525155110">
        <ele>348.60</ele>
        <time>2014-03-02T08:35:45Z</time>
      </trkpt>
      <trkpt lat="41.624985110" lon="2.525173380">
        <ele>348.90</ele>
        <time>2014-03-02T08:35:46Z</time>
      </trkpt>
      <trkpt lat="41.625000030" lon="2.525191820">
        <ele>349.10</ele>
        <time>2014-03-02T08:35:47Z</time>
      </trkpt>
      <trkpt lat="41.625013440" lon="2.525210100">
        <ele>348.80</ele>
        <time>2014-03-02T08:35:48Z</time>
      </trkpt>
      <trkpt lat="41.625030040" lon="2.525230050">
        <ele>348.60</ele>
        <time>2014-03-02T08:35:49Z</time>
      </trkpt>
      <trkpt lat="41.625045120" lon="2.525251670">
        <ele>348.40</ele>
        <time>2014-03-02T08:35:50Z</time>
      </trkpt>
      <trkpt lat="41.625060040" lon="2.525270110">
        <ele>348.40</ele>
        <time>2014-03-02T08:35:51Z</time>
      </trkpt>
      <trkpt lat="41.625076810" lon="2.525288380">
        <ele>348.30</ele>
        <time>2014-03-02T08:35:52Z</time>
      </trkpt>
      <trkpt lat="41.625093400" lon="2.525308330">
        <ele>348.30</ele>
        <time>2014-03-02T08:35:53Z</time>
      </trkpt>
      <trkpt lat="41.625108490" lon="2.525326770">
        <ele>348.30</ele>
        <time>2014-03-02T08:35:54Z</time>
      </trkpt>
      <trkpt lat="41.625125090" lon="2.525343370">
        <ele>348.20</ele>
        <time>2014-03-02T08:35:55Z</time>
      </trkpt>
      <trkpt lat="41.625141680" lon="2.525360130">
        <ele>348.30</ele>
        <time>2014-03-02T08:35:56Z</time>
      </trkpt>
      <trkpt lat="41.625158450" lon="2.525378400">
        <ele>348.30</ele>
        <time>2014-03-02T08:35:57Z</time>
      </trkpt>
      <trkpt lat="41.625175040" lon="2.525393490">
        <ele>348.30</ele>
        <time>2014-03-02T08:35:58Z</time>
      </trkpt>
      <trkpt lat="41.625190130" lon="2.525408410">
        <ele>348.30</ele>
        <time>2014-03-02T08:35:59Z</time>
      </trkpt>
      <trkpt lat="41.625208400" lon="2.525423330">
        <ele>348.60</ele>
        <time>2014-03-02T08:36:00Z</time>
      </trkpt>
      <trkpt lat="41.625223490" lon="2.525440100">
        <ele>348.80</ele>
        <time>2014-03-02T08:36:01Z</time>
      </trkpt>
      <trkpt lat="41.625238410" lon="2.525458370">
        <ele>349.00</ele>
        <time>2014-03-02T08:36:02Z</time>
      </trkpt>
      <trkpt lat="41.625251820" lon="2.525480160">
        <ele>349.30</ele>
        <time>2014-03-02T08:36:03Z</time>
      </trkpt>
      <trkpt lat="41.625263390" lon="2.525500110">
        <ele>349.50</ele>
        <time>2014-03-02T08:36:04Z</time>
      </trkpt>
      <trkpt lat="41.625276800" lon="2.525520060">
        <ele>349.40</ele>
        <time>2014-03-02T08:36:05Z</time>
      </trkpt>
      <trkpt lat="41.625290040" lon="2.525540010">
        <ele>349.30</ele>
        <time>2014-03-02T08:36:06Z</time>
      </trkpt>
      <trkpt lat="41.625303450" lon="2.525558450">
        <ele>349.20</ele>
        <time>2014-03-02T08:36:07Z</time>
      </trkpt>
      <trkpt lat="41.625315020" lon="2.525580070">
        <ele>349.10</ele>
        <time>2014-03-02T08:36:08Z</time>
      </trkpt>
      <trkpt lat="41.625330110" lon="2.525601700">
        <ele>349.00</ele>
        <time>2014-03-02T08:36:09Z</time>
      </trkpt>
      <trkpt lat="41.625345030" lon="2.525620140">
        <ele>348.90</ele>
        <time>2014-03-02T08:36:10Z</time>
      </trkpt>
      <trkpt lat="41.625358440" lon="2.525640090">
        <ele>348.90</ele>
        <time>2014-03-02T08:36:11Z</time>
      </trkpt>
      <trkpt lat="41.625371680" lon="2.525661710">
        <ele>349.30</ele>
        <time>2014-03-02T08:36:12Z</time>
      </trkpt>
      <trkpt lat="41.625383420" lon="2.525683340">
        <ele>349.70</ele>
        <time>2014-03-02T08:36:13Z</time>
      </trkpt>
      <trkpt lat="41.625395150" lon="2.525705130">
        <ele>349.90</ele>
        <time>2014-03-02T08:36:14Z</time>
      </trkpt>
      <trkpt lat="41.625405040" lon="2.525726760">
        <ele>349.70</ele>
        <time>2014-03-02T08:36:15Z</time>
      </trkpt>
      <trkpt lat="41.625415100" lon="2.525748380">
        <ele>349.50</ele>
        <time>2014-03-02T08:36:16Z</time>
      </trkpt>
      <trkpt lat="41.625428340" lon="2.525768330">
        <ele>349.60</ele>
        <time>2014-03-02T08:36:17Z</time>
      </trkpt>
      <trkpt lat="41.625443430" lon="2.525788450">
        <ele>349.70</ele>
        <time>2014-03-02T08:36:18Z</time>
      </trkpt>
      <trkpt lat="41.625456670" lon="2.525810070">
        <ele>350.00</ele>
        <time>2014-03-02T08:36:19Z</time>
      </trkpt>
      <trkpt lat="41.625470090" lon="2.525833370">
        <ele>350.30</ele>
        <time>2014-03-02T08:36:20Z</time>
      </trkpt>
      <trkpt lat="41.625486680" lon="2.525856680">
        <ele>350.40</ele>
        <time>2014-03-02T08:36:21Z</time>
      </trkpt>
      <trkpt lat="41.625503450" lon="2.525881820">
        <ele>350.60</ele>
        <time>2014-03-02T08:36:22Z</time>
      </trkpt>
      <trkpt lat="41.625521720" lon="2.525908480">
        <ele>350.70</ele>
        <time>2014-03-02T08:36:23Z</time>
      </trkpt>
      <trkpt lat="41.625540160" lon="2.525931780">
        <ele>350.80</ele>
        <time>2014-03-02T08:36:24Z</time>
      </trkpt>
      <trkpt lat="41.625556750" lon="2.525955080">
        <ele>350.90</ele>
        <time>2014-03-02T08:36:25Z</time>
      </trkpt>
      <trkpt lat="41.625573350" lon="2.525978380">
        <ele>350.80</ele>
        <time>2014-03-02T08:36:26Z</time>
      </trkpt>
      <trkpt lat="41.625588440" lon="2.526001680">
        <ele>350.70</ele>
        <time>2014-03-02T08:36:27Z</time>
      </trkpt>
      <trkpt lat="41.625605030" lon="2.526023480">
        <ele>350.60</ele>
        <time>2014-03-02T08:36:28Z</time>
      </trkpt>
      <trkpt lat="41.625621800" lon="2.526043420">
        <ele>350.10</ele>
        <time>2014-03-02T08:36:29Z</time>
      </trkpt>
      <trkpt lat="41.625638390" lon="2.526061700">
        <ele>349.80</ele>
        <time>2014-03-02T08:36:30Z</time>
      </trkpt>
      <trkpt lat="41.625656670" lon="2.526081810">
        <ele>349.70</ele>
        <time>2014-03-02T08:36:31Z</time>
      </trkpt>
      <trkpt lat="41.625680140" lon="2.526103440">
        <ele>349.70</ele>
        <time>2014-03-02T08:36:32Z</time>
      </trkpt>
      <trkpt lat="41.625705110" lon="2.526120040">
        <ele>349.60</ele>
        <time>2014-03-02T08:36:33Z</time>
      </trkpt>
      <trkpt lat="41.625731770" lon="2.526133450">
        <ele>350.00</ele>
        <time>2014-03-02T08:36:34Z</time>
      </trkpt>
      <trkpt lat="41.625756750" lon="2.526150040">
        <ele>350.20</ele>
        <time>2014-03-02T08:36:35Z</time>
      </trkpt>
      <trkpt lat="41.625781720" lon="2.526165130">
        <ele>350.10</ele>
        <time>2014-03-02T08:36:36Z</time>
      </trkpt>
      <trkpt lat="41.625808380" lon="2.526180050">
        <ele>350.00</ele>
        <time>2014-03-02T08:36:37Z</time>
      </trkpt>
      <trkpt lat="41.625831680" lon="2.526193460">
        <ele>350.10</ele>
        <time>2014-03-02T08:36:38Z</time>
      </trkpt>
      <trkpt lat="41.625853470" lon="2.526208380">
        <ele>350.20</ele>
        <time>2014-03-02T08:36:39Z</time>
      </trkpt>
      <trkpt lat="41.625875100" lon="2.526223470">
        <ele>350.20</ele>
        <time>2014-03-02T08:36:40Z</time>
      </trkpt>
      <trkpt lat="41.625895050" lon="2.526240060">
        <ele>350.30</ele>
        <time>2014-03-02T08:36:41Z</time>
      </trkpt>
      <trkpt lat="41.625915000" lon="2.526255150">
        <ele>350.40</ele>
        <time>2014-03-02T08:36:42Z</time>
      </trkpt>
      <trkpt lat="41.625931760" lon="2.526271750">
        <ele>350.30</ele>
        <time>2014-03-02T08:36:43Z</time>
      </trkpt>
      <trkpt lat="41.625951710" lon="2.526281810">
        <ele>350.20</ele>
        <time>2014-03-02T08:36:44Z</time>
      </trkpt>
      <trkpt lat="41.625970150" lon="2.526295050">
        <ele>350.30</ele>
        <time>2014-03-02T08:36:45Z</time>
      </trkpt>
      <trkpt lat="41.625988420" lon="2.526310140">
        <ele>350.50</ele>
        <time>2014-03-02T08:36:46Z</time>
      </trkpt>
      <trkpt lat="41.626005020" lon="2.526323380">
        <ele>350.60</ele>
        <time>2014-03-02T08:36:47Z</time>
      </trkpt>
      <trkpt lat="41.626016750" lon="2.526336790">
        <ele>350.70</ele>
        <time>2014-03-02T08:36:48Z</time>
      </trkpt>
      <trkpt lat="41.626031670" lon="2.526353390">
        <ele>350.80</ele>
        <time>2014-03-02T08:36:49Z</time>
      </trkpt>
      <trkpt lat="41.626046760" lon="2.526371830">
        <ele>350.90</ele>
        <time>2014-03-02T08:36:50Z</time>
      </trkpt>
      <trkpt lat="41.626061680" lon="2.526390100">
        <ele>351.00</ele>
        <time>2014-03-02T08:36:51Z</time>
      </trkpt>
      <trkpt lat="41.626075090" lon="2.526410050">
        <ele>351.00</ele>
        <time>2014-03-02T08:36:52Z</time>
      </trkpt>
      <trkpt lat="41.626090010" lon="2.526430000">
        <ele>350.90</ele>
        <time>2014-03-02T08:36:53Z</time>
      </trkpt>
      <trkpt lat="41.626103420" lon="2.526450110">
        <ele>350.80</ele>
        <time>2014-03-02T08:36:54Z</time>
      </trkpt>
      <trkpt lat="41.626118340" lon="2.526468390">
        <ele>350.70</ele>
        <time>2014-03-02T08:36:55Z</time>
      </trkpt>
      <trkpt lat="41.626130080" lon="2.526490010">
        <ele>350.70</ele>
        <time>2014-03-02T08:36:56Z</time>
      </trkpt>
      <trkpt lat="41.626143490" lon="2.526508450">
        <ele>350.80</ele>
        <time>2014-03-02T08:36:57Z</time>
      </trkpt>
      <trkpt lat="41.626156730" lon="2.526526730">
        <ele>350.90</ele>
        <time>2014-03-02T08:36:58Z</time>
      </trkpt>
      <trkpt lat="41.626168470" lon="2.526546670">
        <ele>351.00</ele>
        <time>2014-03-02T08:36:59Z</time>
      </trkpt>
      <trkpt lat="41.626180030" lon="2.526568470">
        <ele>350.90</ele>
        <time>2014-03-02T08:37:00Z</time>
      </trkpt>
      <trkpt lat="41.626190090" lon="2.526593450">
        <ele>350.90</ele>
        <time>2014-03-02T08:37:01Z</time>
      </trkpt>
      <trkpt lat="41.626200150" lon="2.526616750">
        <ele>350.90</ele>
        <time>2014-03-02T08:37:02Z</time>
      </trkpt>
      <trkpt lat="41.626211720" lon="2.526636700">
        <ele>351.00</ele>
        <time>2014-03-02T08:37:03Z</time>
      </trkpt>
      <trkpt lat="41.626225130" lon="2.526658490">
        <ele>350.90</ele>
        <time>2014-03-02T08:37:04Z</time>
      </trkpt>
      <trkpt lat="41.626236690" lon="2.526678440">
        <ele>350.80</ele>
        <time>2014-03-02T08:37:05Z</time>
      </trkpt>
      <trkpt lat="41.626246750" lon="2.526696710">
        <ele>350.80</ele>
        <time>2014-03-02T08:37:06Z</time>
      </trkpt>
      <trkpt lat="41.626253460" lon="2.526716830">
        <ele>350.60</ele>
        <time>2014-03-02T08:37:07Z</time>
      </trkpt>
      <trkpt lat="41.626263350" lon="2.526736780">
        <ele>350.40</ele>
        <time>2014-03-02T08:37:08Z</time>
      </trkpt>
      <trkpt lat="41.626273410" lon="2.526760080">
        <ele>350.60</ele>
        <time>2014-03-02T08:37:09Z</time>
      </trkpt>
      <trkpt lat="41.626283470" lon="2.526781700">
        <ele>350.70</ele>
        <time>2014-03-02T08:37:10Z</time>
      </trkpt>
      <trkpt lat="41.626290000" lon="2.526803500">
        <ele>350.70</ele>
        <time>2014-03-02T08:37:11Z</time>
      </trkpt>
      <trkpt lat="41.626296710" lon="2.526823440">
        <ele>351.00</ele>
        <time>2014-03-02T08:37:12Z</time>
      </trkpt>
      <trkpt lat="41.626300060" lon="2.526846750">
        <ele>351.30</ele>
        <time>2014-03-02T08:37:13Z</time>
      </trkpt>
      <trkpt lat="41.626303410" lon="2.526870050">
        <ele>351.70</ele>
        <time>2014-03-02T08:37:14Z</time>
      </trkpt>
      <trkpt lat="41.626305090" lon="2.526891670">
        <ele>352.10</ele>
        <time>2014-03-02T08:37:15Z</time>
      </trkpt>
      <trkpt lat="41.626310120" lon="2.526908440">
        <ele>352.10</ele>
        <time>2014-03-02T08:37:16Z</time>
      </trkpt>
      <trkpt lat="41.626316830" lon="2.526921680">
        <ele>352.10</ele>
        <time>2014-03-02T08:37:17Z</time>
      </trkpt>
      <trkpt lat="41.626326720" lon="2.526940120">
        <ele>352.10</ele>
        <time>2014-03-02T08:37:18Z</time>
      </trkpt>
      <trkpt lat="41.626336770" lon="2.526951690">
        <ele>352.40</ele>
        <time>2014-03-02T08:37:19Z</time>
      </trkpt>
      <trkpt lat="41.626348340" lon="2.526956720">
        <ele>352.60</ele>
        <time>2014-03-02T08:37:20Z</time>
      </trkpt>
      <trkpt lat="41.626365110" lon="2.526968450">
        <ele>352.60</ele>
        <time>2014-03-02T08:37:21Z</time>
      </trkpt>
      <trkpt lat="41.626381700" lon="2.526986720">
        <ele>352.60</ele>
        <time>2014-03-02T08:37:22Z</time>
      </trkpt>
      <trkpt lat="41.626398470" lon="2.527005000">
        <ele>352.20</ele>
        <time>2014-03-02T08:37:23Z</time>
      </trkpt>
      <trkpt lat="41.626413390" lon="2.527026790">
        <ele>351.90</ele>
        <time>2014-03-02T08:37:24Z</time>
      </trkpt>
      <trkpt lat="41.626421770" lon="2.527046740">
        <ele>351.70</ele>
        <time>2014-03-02T08:37:25Z</time>
      </trkpt>
      <trkpt lat="41.626430150" lon="2.527065010">
        <ele>352.20</ele>
        <time>2014-03-02T08:37:26Z</time>
      </trkpt>
      <trkpt lat="41.626436690" lon="2.527083450">
        <ele>352.50</ele>
        <time>2014-03-02T08:37:27Z</time>
      </trkpt>
      <trkpt lat="41.626445070" lon="2.527100050">
        <ele>352.60</ele>
        <time>2014-03-02T08:37:28Z</time>
      </trkpt>
      <trkpt lat="41.626458480" lon="2.527116810">
        <ele>352.70</ele>
        <time>2014-03-02T08:37:29Z</time>
      </trkpt>
      <trkpt lat="41.626475080" lon="2.527133410">
        <ele>352.90</ele>
        <time>2014-03-02T08:37:30Z</time>
      </trkpt>
      <trkpt lat="41.626490000" lon="2.527150000">
        <ele>353.00</ele>
        <time>2014-03-02T08:37:31Z</time>
      </trkpt>
      <trkpt lat="41.626506760" lon="2.527163410">
        <ele>353.00</ele>
        <time>2014-03-02T08:37:32Z</time>
      </trkpt>
      <trkpt lat="41.626523360" lon="2.527176830">
        <ele>353.30</ele>
        <time>2014-03-02T08:37:33Z</time>
      </trkpt>
      <trkpt lat="41.626540120" lon="2.527190070">
        <ele>353.50</ele>
        <time>2014-03-02T08:37:34Z</time>
      </trkpt>
      <trkpt lat="41.626553360" lon="2.527200130">
        <ele>354.10</ele>
        <time>2014-03-02T08:37:35Z</time>
      </trkpt>
      <trkpt lat="41.626560070" lon="2.527208340">
        <ele>354.50</ele>
        <time>2014-03-02T08:37:36Z</time>
      </trkpt>
      <trkpt lat="41.626565100" lon="2.527215050">
        <ele>354.80</ele>
        <time>2014-03-02T08:37:37Z</time>
      </trkpt>
      <trkpt lat="41.626566770" lon="2.527226780">
        <ele>354.60</ele>
        <time>2014-03-02T08:37:38Z</time>
      </trkpt>
      <trkpt lat="41.626568450" lon="2.527240030">
        <ele>354.40</ele>
        <time>2014-03-02T08:37:39Z</time>
      </trkpt>
      <trkpt lat="41.626571800" lon="2.527253440">
        <ele>354.50</ele>
        <time>2014-03-02T08:37:40Z</time>
      </trkpt>
      <trkpt lat="41.626575160" lon="2.527263490">
        <ele>354.50</ele>
        <time>2014-03-02T08:37:41Z</time>
      </trkpt>
      <trkpt lat="41.626581690" lon="2.527270030">
        <ele>354.50</ele>
        <time>2014-03-02T08:37:42Z</time>
      </trkpt>
      <trkpt lat="41.626590080" lon="2.527270030">
        <ele>354.50</ele>
        <time>2014-03-02T08:37:43Z</time>
      </trkpt>
      <trkpt lat="41.626595100" lon="2.527265000">
        <ele>354.60</ele>
        <time>2014-03-02T08:37:44Z</time>
      </trkpt>
      <trkpt lat="41.626605000" lon="2.527261820">
        <ele>354.70</ele>
        <time>2014-03-02T08:37:45Z</time>
      </trkpt>
      <trkpt lat="41.626606670" lon="2.527263490">
        <ele>354.80</ele>
        <time>2014-03-02T08:37:46Z</time>
      </trkpt>
      <trkpt lat="41.626608350" lon="2.527265000">
        <ele>354.70</ele>
        <time>2014-03-02T08:37:47Z</time>
      </trkpt>
      <trkpt lat="41.626610020" lon="2.527265000">
        <ele>354.70</ele>
        <time>2014-03-02T08:37:48Z</time>
      </trkpt>
      <trkpt lat="41.626610020" lon="2.527265000">
        <ele>354.70</ele>
        <time>2014-03-02T08:37:49Z</time>
      </trkpt>
      <trkpt lat="41.626611700" lon="2.527265000">
        <ele>354.60</ele>
        <time>2014-03-02T08:37:50Z</time>
      </trkpt>
      <trkpt lat="41.626611700" lon="2.527265000">
        <ele>354.50</ele>
        <time>2014-03-02T08:37:51Z</time>
      </trkpt>
      <trkpt lat="41.626613380" lon="2.527265000">
        <ele>354.40</ele>
        <time>2014-03-02T08:37:52Z</time>
      </trkpt>
      <trkpt lat="41.626613380" lon="2.527265000">
        <ele>354.40</ele>
        <time>2014-03-02T08:37:53Z</time>
      </trkpt>
      <trkpt lat="41.626615050" lon="2.527263490">
        <ele>354.60</ele>
        <time>2014-03-02T08:37:54Z</time>
      </trkpt>
      <trkpt lat="41.626615050" lon="2.527261820">
        <ele>354.70</ele>
        <time>2014-03-02T08:37:55Z</time>
      </trkpt>
      <trkpt lat="41.626616730" lon="2.527258470">
        <ele>354.80</ele>
        <time>2014-03-02T08:37:56Z</time>
      </trkpt>
      <trkpt lat="41.626618410" lon="2.527248410">
        <ele>355.30</ele>
        <time>2014-03-02T08:37:57Z</time>
      </trkpt>
      <trkpt lat="41.626618410" lon="2.527235000">
        <ele>355.60</ele>
        <time>2014-03-02T08:37:58Z</time>
      </trkpt>
      <trkpt lat="41.626618410" lon="2.527216720">
        <ele>355.70</ele>
        <time>2014-03-02T08:37:59Z</time>
      </trkpt>
      <trkpt lat="41.626625110" lon="2.527198450">
        <ele>355.80</ele>
        <time>2014-03-02T08:38:00Z</time>
      </trkpt>
      <trkpt lat="41.626635000" lon="2.527188390">
        <ele>355.60</ele>
        <time>2014-03-02T08:38:01Z</time>
      </trkpt>
      <trkpt lat="41.626650090" lon="2.527186720">
        <ele>355.40</ele>
        <time>2014-03-02T08:38:02Z</time>
      </trkpt>
      <trkpt lat="41.626668360" lon="2.527185040">
        <ele>355.30</ele>
        <time>2014-03-02T08:38:03Z</time>
      </trkpt>
      <trkpt lat="41.626686800" lon="2.527185040">
        <ele>355.00</ele>
        <time>2014-03-02T08:38:04Z</time>
      </trkpt>
      <trkpt lat="41.626705080" lon="2.527183360">
        <ele>354.70</ele>
        <time>2014-03-02T08:38:05Z</time>
      </trkpt>
      <trkpt lat="41.626720000" lon="2.527180010">
        <ele>354.60</ele>
        <time>2014-03-02T08:38:06Z</time>
      </trkpt>
      <trkpt lat="41.626736760" lon="2.527178330">
        <ele>354.60</ele>
        <time>2014-03-02T08:38:07Z</time>
      </trkpt>
      <trkpt lat="41.626753360" lon="2.527175150">
        <ele>354.90</ele>
        <time>2014-03-02T08:38:08Z</time>
      </trkpt>
      <trkpt lat="41.626770120" lon="2.527171800">
        <ele>355.20</ele>
        <time>2014-03-02T08:38:09Z</time>
      </trkpt>
      <trkpt lat="41.626785040" lon="2.527168440">
        <ele>355.40</ele>
        <time>2014-03-02T08:38:10Z</time>
      </trkpt>
      <trkpt lat="41.626801800" lon="2.527166770">
        <ele>355.60</ele>
        <time>2014-03-02T08:38:11Z</time>
      </trkpt>
      <trkpt lat="41.626818400" lon="2.527166770">
        <ele>355.80</ele>
        <time>2014-03-02T08:38:12Z</time>
      </trkpt>
      <trkpt lat="41.626835160" lon="2.527163410">
        <ele>355.90</ele>
        <time>2014-03-02T08:38:13Z</time>
      </trkpt>
      <trkpt lat="41.626853430" lon="2.527160060">
        <ele>355.90</ele>
        <time>2014-03-02T08:38:14Z</time>
      </trkpt>
      <trkpt lat="41.626873380" lon="2.527160060">
        <ele>356.00</ele>
        <time>2014-03-02T08:38:15Z</time>
      </trkpt>
      <trkpt lat="41.626891820" lon="2.527158390">
        <ele>356.10</ele>
        <time>2014-03-02T08:38:16Z</time>
      </trkpt>
      <trkpt lat="41.626910100" lon="2.527156710">
        <ele>356.20</ele>
        <time>2014-03-02T08:38:17Z</time>
      </trkpt>
      <trkpt lat="41.626928370" lon="2.527156710">
        <ele>356.30</ele>
        <time>2014-03-02T08:38:18Z</time>
      </trkpt>
      <trkpt lat="41.626943460" lon="2.527155030">
        <ele>356.40</ele>
        <time>2014-03-02T08:38:19Z</time>
      </trkpt>
      <trkpt lat="41.626960050" lon="2.527150000">
        <ele>356.80</ele>
        <time>2014-03-02T08:38:20Z</time>
      </trkpt>
      <trkpt lat="41.626976820" lon="2.527148500">
        <ele>357.10</ele>
        <time>2014-03-02T08:38:21Z</time>
      </trkpt>
      <trkpt lat="41.626996770" lon="2.527148500">
        <ele>357.30</ele>
        <time>2014-03-02T08:38:22Z</time>
      </trkpt>
      <trkpt lat="41.627015040" lon="2.527146820">
        <ele>357.40</ele>
        <time>2014-03-02T08:38:23Z</time>
      </trkpt>
      <trkpt lat="41.627033480" lon="2.527143470">
        <ele>357.60</ele>
        <time>2014-03-02T08:38:24Z</time>
      </trkpt>
      <trkpt lat="41.627051750" lon="2.527141790">
        <ele>357.70</ele>
        <time>2014-03-02T08:38:25Z</time>
      </trkpt>
      <trkpt lat="41.627071700" lon="2.527143470">
        <ele>357.90</ele>
        <time>2014-03-02T08:38:26Z</time>
      </trkpt>
      <trkpt lat="41.627093490" lon="2.527145140">
        <ele>358.20</ele>
        <time>2014-03-02T08:38:27Z</time>
      </trkpt>
      <trkpt lat="41.627111770" lon="2.527145140">
        <ele>358.40</ele>
        <time>2014-03-02T08:38:28Z</time>
      </trkpt>
      <trkpt lat="41.627126690" lon="2.527145140">
        <ele>358.60</ele>
        <time>2014-03-02T08:38:29Z</time>
      </trkpt>
      <trkpt lat="41.627141770" lon="2.527141790">
        <ele>358.50</ele>
        <time>2014-03-02T08:38:30Z</time>
      </trkpt>
      <trkpt lat="41.627155020" lon="2.527138440">
        <ele>358.40</ele>
        <time>2014-03-02T08:38:31Z</time>
      </trkpt>
      <trkpt lat="41.627171780" lon="2.527135080">
        <ele>358.30</ele>
        <time>2014-03-02T08:38:32Z</time>
      </trkpt>
      <trkpt lat="41.627191730" lon="2.527130050">
        <ele>358.20</ele>
        <time>2014-03-02T08:38:33Z</time>
      </trkpt>
      <trkpt lat="41.627218380" lon="2.527125030">
        <ele>358.20</ele>
        <time>2014-03-02T08:38:34Z</time>
      </trkpt>
      <trkpt lat="41.627240010" lon="2.527110110">
        <ele>357.70</ele>
        <time>2014-03-02T08:38:35Z</time>
      </trkpt>
      <trkpt lat="41.627265150" lon="2.527095020">
        <ele>357.30</ele>
        <time>2014-03-02T08:38:36Z</time>
      </trkpt>
      <trkpt lat="41.627288460" lon="2.527068360">
        <ele>357.20</ele>
        <time>2014-03-02T08:38:37Z</time>
      </trkpt>
      <trkpt lat="41.627311760" lon="2.527036680">
        <ele>357.20</ele>
        <time>2014-03-02T08:38:38Z</time>
      </trkpt>
      <trkpt lat="41.627333380" lon="2.527003490">
        <ele>357.20</ele>
        <time>2014-03-02T08:38:39Z</time>
      </trkpt>
      <trkpt lat="41.627351820" lon="2.526973480">
        <ele>357.20</ele>
        <time>2014-03-02T08:38:40Z</time>
      </trkpt>
      <trkpt lat="41.627370100" lon="2.526946830">
        <ele>357.20</ele>
        <time>2014-03-02T08:38:41Z</time>
      </trkpt>
      <trkpt lat="41.627385020" lon="2.526920000">
        <ele>357.30</ele>
        <time>2014-03-02T08:38:42Z</time>
      </trkpt>
      <trkpt lat="41.627400100" lon="2.526895030">
        <ele>357.30</ele>
        <time>2014-03-02T08:38:43Z</time>
      </trkpt>
      <trkpt lat="41.627413350" lon="2.526873400">
        <ele>357.40</ele>
        <time>2014-03-02T08:38:44Z</time>
      </trkpt>
      <trkpt lat="41.627426760" lon="2.526851780">
        <ele>357.50</ele>
        <time>2014-03-02T08:38:45Z</time>
      </trkpt>
      <trkpt lat="41.627440000" lon="2.526831830">
        <ele>357.40</ele>
        <time>2014-03-02T08:38:46Z</time>
      </trkpt>
      <trkpt lat="41.627451740" lon="2.526811710">
        <ele>357.40</ele>
        <time>2014-03-02T08:38:47Z</time>
      </trkpt>
      <trkpt lat="41.627465150" lon="2.526795110">
        <ele>357.30</ele>
        <time>2014-03-02T08:38:48Z</time>
      </trkpt>
      <trkpt lat="41.627475040" lon="2.526776670">
        <ele>357.30</ele>
        <time>2014-03-02T08:38:49Z</time>
      </trkpt>
      <trkpt lat="41.627485100" lon="2.526760080">
        <ele>357.30</ele>
        <time>2014-03-02T08:38:50Z</time>
      </trkpt>
      <trkpt lat="41.627495150" lon="2.526743480">
        <ele>357.50</ele>
        <time>2014-03-02T08:38:51Z</time>
      </trkpt>
      <trkpt lat="41.627505040" lon="2.526726720">
        <ele>357.70</ele>
        <time>2014-03-02T08:38:52Z</time>
      </trkpt>
      <trkpt lat="41.627515100" lon="2.526710120">
        <ele>357.80</ele>
        <time>2014-03-02T08:38:53Z</time>
      </trkpt>
      <trkpt lat="41.627525160" lon="2.526693360">
        <ele>357.40</ele>
        <time>2014-03-02T08:38:54Z</time>
      </trkpt>
      <trkpt lat="41.627535050" lon="2.526676760">
        <ele>357.20</ele>
        <time>2014-03-02T08:38:55Z</time>
      </trkpt>
      <trkpt lat="41.627546790" lon="2.526658490">
        <ele>357.40</ele>
        <time>2014-03-02T08:38:56Z</time>
      </trkpt>
      <trkpt lat="41.627558350" lon="2.526640050">
        <ele>357.60</ele>
        <time>2014-03-02T08:38:57Z</time>
      </trkpt>
      <trkpt lat="41.627571760" lon="2.526623450">
        <ele>357.90</ele>
        <time>2014-03-02T08:38:58Z</time>
      </trkpt>
      <trkpt lat="41.627586680" lon="2.526605010">
        <ele>358.10</ele>
        <time>2014-03-02T08:38:59Z</time>
      </trkpt>
      <trkpt lat="41.627601770" lon="2.526585060">
        <ele>358.20</ele>
        <time>2014-03-02T08:39:00Z</time>
      </trkpt>
      <trkpt lat="41.627615010" lon="2.526566790">
        <ele>358.50</ele>
        <time>2014-03-02T08:39:01Z</time>
      </trkpt>
      <trkpt lat="41.627626750" lon="2.526553380">
        <ele>358.80</ele>
        <time>2014-03-02T08:39:02Z</time>
      </trkpt>
      <trkpt lat="41.627638480" lon="2.526538460">
        <ele>359.10</ele>
        <time>2014-03-02T08:39:03Z</time>
      </trkpt>
      <trkpt lat="41.627651730" lon="2.526520020">
        <ele>359.40</ele>
        <time>2014-03-02T08:39:04Z</time>
      </trkpt>
      <trkpt lat="41.627666810" lon="2.526503420">
        <ele>359.80</ele>
        <time>2014-03-02T08:39:05Z</time>
      </trkpt>
      <trkpt lat="41.627680060" lon="2.526488340">
        <ele>360.10</ele>
        <time>2014-03-02T08:39:06Z</time>
      </trkpt>
      <trkpt lat="41.627693470" lon="2.526473420">
        <ele>360.30</ele>
        <time>2014-03-02T08:39:07Z</time>
      </trkpt>
      <trkpt lat="41.627706710" lon="2.526458330">
        <ele>360.70</ele>
        <time>2014-03-02T08:39:08Z</time>
      </trkpt>
      <trkpt lat="41.627718450" lon="2.526443410">
        <ele>360.90</ele>
        <time>2014-03-02T08:39:09Z</time>
      </trkpt>
      <trkpt lat="41.627731690" lon="2.526428490">
        <ele>361.10</ele>
        <time>2014-03-02T08:39:10Z</time>
      </trkpt>
      <trkpt lat="41.627743430" lon="2.526413400">
        <ele>361.20</ele>
        <time>2014-03-02T08:39:11Z</time>
      </trkpt>
      <trkpt lat="41.627753480" lon="2.526396810">
        <ele>361.30</ele>
        <time>2014-03-02T08:39:12Z</time>
      </trkpt>
      <trkpt lat="41.627765050" lon="2.526381720">
        <ele>361.70</ele>
        <time>2014-03-02T08:39:13Z</time>
      </trkpt>
      <trkpt lat="41.627776790" lon="2.526366800">
        <ele>362.00</ele>
        <time>2014-03-02T08:39:14Z</time>
      </trkpt>
      <trkpt lat="41.627786680" lon="2.526351710">
        <ele>362.10</ele>
        <time>2014-03-02T08:39:15Z</time>
      </trkpt>
      <trkpt lat="41.627796730" lon="2.526336790">
        <ele>362.20</ele>
        <time>2014-03-02T08:39:16Z</time>
      </trkpt>
      <trkpt lat="41.627806790" lon="2.526320030">
        <ele>362.20</ele>
        <time>2014-03-02T08:39:17Z</time>
      </trkpt>
      <trkpt lat="41.627815010" lon="2.526301760">
        <ele>362.10</ele>
        <time>2014-03-02T08:39:18Z</time>
      </trkpt>
      <trkpt lat="41.627825070" lon="2.526286670">
        <ele>362.10</ele>
        <time>2014-03-02T08:39:19Z</time>
      </trkpt>
      <trkpt lat="41.627833450" lon="2.526271750">
        <ele>362.30</ele>
        <time>2014-03-02T08:39:20Z</time>
      </trkpt>
      <trkpt lat="41.627841830" lon="2.526255150">
        <ele>362.40</ele>
        <time>2014-03-02T08:39:21Z</time>
      </trkpt>
      <trkpt lat="41.627846690" lon="2.526241740">
        <ele>362.50</ele>
        <time>2014-03-02T08:39:22Z</time>
      </trkpt>
      <trkpt lat="41.627855070" lon="2.526223470">
        <ele>362.60</ele>
        <time>2014-03-02T08:39:23Z</time>
      </trkpt>
      <trkpt lat="41.627865130" lon="2.526201680">
        <ele>363.10</ele>
        <time>2014-03-02T08:39:24Z</time>
      </trkpt>
      <trkpt lat="41.627873340" lon="2.526180050">
        <ele>363.50</ele>
        <time>2014-03-02T08:39:25Z</time>
      </trkpt>
      <trkpt lat="41.627881730" lon="2.526158420">
        <ele>363.80</ele>
        <time>2014-03-02T08:39:26Z</time>
      </trkpt>
      <trkpt lat="41.627890110" lon="2.526138480">
        <ele>363.70</ele>
        <time>2014-03-02T08:39:27Z</time>
      </trkpt>
      <trkpt lat="41.627898490" lon="2.526121710">
        <ele>363.70</ele>
        <time>2014-03-02T08:39:28Z</time>
      </trkpt>
      <trkpt lat="41.627908380" lon="2.526105120">
        <ele>363.90</ele>
        <time>2014-03-02T08:39:29Z</time>
      </trkpt>
      <trkpt lat="41.627916760" lon="2.526088350">
        <ele>364.10</ele>
        <time>2014-03-02T08:39:30Z</time>
      </trkpt>
      <trkpt lat="41.627925150" lon="2.526071760">
        <ele>364.30</ele>
        <time>2014-03-02T08:39:31Z</time>
      </trkpt>
      <trkpt lat="41.627931680" lon="2.526051810">
        <ele>364.30</ele>
        <time>2014-03-02T08:39:32Z</time>
      </trkpt>
      <trkpt lat="41.627938390" lon="2.526035040">
        <ele>364.40</ele>
        <time>2014-03-02T08:39:33Z</time>
      </trkpt>
      <trkpt lat="41.627948450" lon="2.526018450">
        <ele>364.50</ele>
        <time>2014-03-02T08:39:34Z</time>
      </trkpt>
      <trkpt lat="41.627955150" lon="2.526001680">
        <ele>364.60</ele>
        <time>2014-03-02T08:39:35Z</time>
      </trkpt>
      <trkpt lat="41.627961690" lon="2.525983410">
        <ele>365.20</ele>
        <time>2014-03-02T08:39:36Z</time>
      </trkpt>
      <trkpt lat="41.627966720" lon="2.525965140">
        <ele>365.70</ele>
        <time>2014-03-02T08:39:37Z</time>
      </trkpt>
      <trkpt lat="41.627971750" lon="2.525946700">
        <ele>366.00</ele>
        <time>2014-03-02T08:39:38Z</time>
      </trkpt>
      <trkpt lat="41.627973420" lon="2.525928430">
        <ele>366.00</ele>
        <time>2014-03-02T08:39:39Z</time>
      </trkpt>
      <trkpt lat="41.627976780" lon="2.525903450">
        <ele>366.00</ele>
        <time>2014-03-02T08:39:40Z</time>
      </trkpt>
      <trkpt lat="41.627981810" lon="2.525880150">
        <ele>365.90</ele>
        <time>2014-03-02T08:39:41Z</time>
      </trkpt>
      <trkpt lat="41.627981810" lon="2.525856680">
        <ele>365.90</ele>
        <time>2014-03-02T08:39:42Z</time>
      </trkpt>
      <trkpt lat="41.627980130" lon="2.525836730">
        <ele>366.00</ele>
        <time>2014-03-02T08:39:43Z</time>
      </trkpt>
      <trkpt lat="41.627975100" lon="2.525818450">
        <ele>366.10</ele>
        <time>2014-03-02T08:39:44Z</time>
      </trkpt>
      <trkpt lat="41.627965040" lon="2.525801690">
        <ele>366.20</ele>
        <time>2014-03-02T08:39:45Z</time>
      </trkpt>
      <trkpt lat="41.627958340" lon="2.525786770">
        <ele>366.10</ele>
        <time>2014-03-02T08:39:46Z</time>
      </trkpt>
      <trkpt lat="41.627948450" lon="2.525775040">
        <ele>366.00</ele>
        <time>2014-03-02T08:39:47Z</time>
      </trkpt>
      <trkpt lat="41.627936710" lon="2.525768330">
        <ele>366.40</ele>
        <time>2014-03-02T08:39:48Z</time>
      </trkpt>
      <trkpt lat="41.627920120" lon="2.525763470">
        <ele>366.60</ele>
        <time>2014-03-02T08:39:49Z</time>
      </trkpt>
      <trkpt lat="41.627905030" lon="2.525763470">
        <ele>366.80</ele>
        <time>2014-03-02T08:39:50Z</time>
      </trkpt>
      <trkpt lat="41.627888430" lon="2.525766820">
        <ele>366.90</ele>
        <time>2014-03-02T08:39:51Z</time>
      </trkpt>
      <trkpt lat="41.627875020" lon="2.525773360">
        <ele>366.90</ele>
        <time>2014-03-02T08:39:52Z</time>
      </trkpt>
      <trkpt lat="41.627863450" lon="2.525786770">
        <ele>366.90</ele>
        <time>2014-03-02T08:39:53Z</time>
      </trkpt>
      <trkpt lat="41.627853400" lon="2.525803370">
        <ele>366.90</ele>
        <time>2014-03-02T08:39:54Z</time>
      </trkpt>
      <trkpt lat="41.627846690" lon="2.525821810">
        <ele>367.40</ele>
        <time>2014-03-02T08:39:55Z</time>
      </trkpt>
      <trkpt lat="41.627840150" lon="2.525845110">
        <ele>367.80</ele>
        <time>2014-03-02T08:39:56Z</time>
      </trkpt>
      <trkpt lat="41.627831770" lon="2.525868410">
        <ele>368.10</ele>
        <time>2014-03-02T08:39:57Z</time>
      </trkpt>
      <trkpt lat="41.627820040" lon="2.525886680">
        <ele>368.40</ele>
        <time>2014-03-02T08:39:58Z</time>
      </trkpt>
      <trkpt lat="41.627806790" lon="2.525903450">
        <ele>368.50</ele>
        <time>2014-03-02T08:39:59Z</time>
      </trkpt>
      <trkpt lat="41.627793380" lon="2.525923400">
        <ele>368.30</ele>
        <time>2014-03-02T08:40:00Z</time>
      </trkpt>
      <trkpt lat="41.627780140" lon="2.525941670">
        <ele>368.00</ele>
        <time>2014-03-02T08:40:01Z</time>
      </trkpt>
      <trkpt lat="41.627766730" lon="2.525956760">
        <ele>367.70</ele>
        <time>2014-03-02T08:40:02Z</time>
      </trkpt>
      <trkpt lat="41.627751810" lon="2.525970000">
        <ele>367.40</ele>
        <time>2014-03-02T08:40:03Z</time>
      </trkpt>
      <trkpt lat="41.627736720" lon="2.525981730">
        <ele>367.20</ele>
        <time>2014-03-02T08:40:04Z</time>
      </trkpt>
      <trkpt lat="41.627721800" lon="2.525993470">
        <ele>367.40</ele>
        <time>2014-03-02T08:40:05Z</time>
      </trkpt>
      <trkpt lat="41.627706710" lon="2.526005040">
        <ele>367.70</ele>
        <time>2014-03-02T08:40:06Z</time>
      </trkpt>
      <trkpt lat="41.627691790" lon="2.526011740">
        <ele>367.50</ele>
        <time>2014-03-02T08:40:07Z</time>
      </trkpt>
      <trkpt lat="41.627675030" lon="2.526020120">
        <ele>367.40</ele>
        <time>2014-03-02T08:40:08Z</time>
      </trkpt>
      <trkpt lat="41.627658430" lon="2.526025150">
        <ele>367.30</ele>
        <time>2014-03-02T08:40:09Z</time>
      </trkpt>
      <trkpt lat="41.627643350" lon="2.526033370">
        <ele>368.10</ele>
        <time>2014-03-02T08:40:10Z</time>
      </trkpt>
      <trkpt lat="41.627628430" lon="2.526043420">
        <ele>368.70</ele>
        <time>2014-03-02T08:40:11Z</time>
      </trkpt>
      <trkpt lat="41.627613340" lon="2.526051810">
        <ele>368.80</ele>
        <time>2014-03-02T08:40:12Z</time>
      </trkpt>
      <trkpt lat="41.627595070" lon="2.526058340">
        <ele>369.00</ele>
        <time>2014-03-02T08:40:13Z</time>
      </trkpt>
      <trkpt lat="41.627575120" lon="2.526066730">
        <ele>368.80</ele>
        <time>2014-03-02T08:40:14Z</time>
      </trkpt>
      <trkpt lat="41.627555000" lon="2.526073430">
        <ele>368.60</ele>
        <time>2014-03-02T08:40:15Z</time>
      </trkpt>
      <trkpt lat="41.627535050" lon="2.526080140">
        <ele>368.50</ele>
        <time>2014-03-02T08:40:16Z</time>
      </trkpt>
      <trkpt lat="41.627516780" lon="2.526086680">
        <ele>368.60</ele>
        <time>2014-03-02T08:40:17Z</time>
      </trkpt>
      <trkpt lat="41.627498340" lon="2.526093380">
        <ele>368.60</ele>
        <time>2014-03-02T08:40:18Z</time>
      </trkpt>
      <trkpt lat="41.627480070" lon="2.526101760">
        <ele>369.00</ele>
        <time>2014-03-02T08:40:19Z</time>
      </trkpt>
      <trkpt lat="41.627461790" lon="2.526110140">
        <ele>369.30</ele>
        <time>2014-03-02T08:40:20Z</time>
      </trkpt>
      <trkpt lat="41.627445030" lon="2.526118360">
        <ele>369.40</ele>
        <time>2014-03-02T08:40:21Z</time>
      </trkpt>
      <trkpt lat="41.627426760" lon="2.526125060">
        <ele>369.50</ele>
        <time>2014-03-02T08:40:22Z</time>
      </trkpt>
      <trkpt lat="41.627410160" lon="2.526131770">
        <ele>369.50</ele>
        <time>2014-03-02T08:40:23Z</time>
      </trkpt>
      <trkpt lat="41.627393400" lon="2.526140150">
        <ele>369.90</ele>
        <time>2014-03-02T08:40:24Z</time>
      </trkpt>
      <trkpt lat="41.627375120" lon="2.526145010">
        <ele>370.10</ele>
        <time>2014-03-02T08:40:25Z</time>
      </trkpt>
      <trkpt lat="41.627358360" lon="2.526150040">
        <ele>369.90</ele>
        <time>2014-03-02T08:40:26Z</time>
      </trkpt>
      <trkpt lat="41.627340090" lon="2.526153400">
        <ele>369.80</ele>
        <time>2014-03-02T08:40:27Z</time>
      </trkpt>
      <trkpt lat="41.627323490" lon="2.526160100">
        <ele>369.70</ele>
        <time>2014-03-02T08:40:28Z</time>
      </trkpt>
      <trkpt lat="41.627306730" lon="2.526166810">
        <ele>369.40</ele>
        <time>2014-03-02T08:40:29Z</time>
      </trkpt>
      <trkpt lat="41.627293480" lon="2.526178370">
        <ele>369.10</ele>
        <time>2014-03-02T08:40:30Z</time>
      </trkpt>
      <trkpt lat="41.627280070" lon="2.526195140">
        <ele>369.40</ele>
        <time>2014-03-02T08:40:31Z</time>
      </trkpt>
      <trkpt lat="41.627266660" lon="2.526210060">
        <ele>369.70</ele>
        <time>2014-03-02T08:40:32Z</time>
      </trkpt>
      <trkpt lat="41.627253420" lon="2.526226820">
        <ele>369.70</ele>
        <time>2014-03-02T08:40:33Z</time>
      </trkpt>
      <trkpt lat="41.627240010" lon="2.526243420">
        <ele>369.60</ele>
        <time>2014-03-02T08:40:34Z</time>
      </trkpt>
      <trkpt lat="41.627226760" lon="2.526260010">
        <ele>369.60</ele>
        <time>2014-03-02T08:40:35Z</time>
      </trkpt>
      <trkpt lat="41.627215030" lon="2.526278450">
        <ele>370.20</ele>
        <time>2014-03-02T08:40:36Z</time>
      </trkpt>
      <trkpt lat="41.627201790" lon="2.526295050">
        <ele>370.60</ele>
        <time>2014-03-02T08:40:37Z</time>
      </trkpt>
      <trkpt lat="41.627188380" lon="2.526310140">
        <ele>370.80</ele>
        <time>2014-03-02T08:40:38Z</time>
      </trkpt>
      <trkpt lat="41.627176810" lon="2.526325060">
        <ele>371.00</ele>
        <time>2014-03-02T08:40:39Z</time>
      </trkpt>
      <trkpt lat="41.627161720" lon="2.526336790">
        <ele>371.10</ele>
        <time>2014-03-02T08:40:40Z</time>
      </trkpt>
      <trkpt lat="41.627146800" lon="2.526348360">
        <ele>371.20</ele>
        <time>2014-03-02T08:40:41Z</time>
      </trkpt>
      <trkpt lat="41.627131710" lon="2.526361770">
        <ele>371.30</ele>
        <time>2014-03-02T08:40:42Z</time>
      </trkpt>
      <trkpt lat="41.627115120" lon="2.526371830">
        <ele>371.60</ele>
        <time>2014-03-02T08:40:43Z</time>
      </trkpt>
      <trkpt lat="41.627098350" lon="2.526378370">
        <ele>371.80</ele>
        <time>2014-03-02T08:40:44Z</time>
      </trkpt>
      <trkpt lat="41.627081760" lon="2.526380040">
        <ele>371.50</ele>
        <time>2014-03-02T08:40:45Z</time>
      </trkpt>
      <trkpt lat="41.627065160" lon="2.526378370">
        <ele>371.20</ele>
        <time>2014-03-02T08:40:46Z</time>
      </trkpt>
      <trkpt lat="41.627048400" lon="2.526370150">
        <ele>371.30</ele>
        <time>2014-03-02T08:40:47Z</time>
      </trkpt>
      <trkpt lat="41.627030130" lon="2.526356740">
        <ele>371.40</ele>
        <time>2014-03-02T08:40:48Z</time>
      </trkpt>
      <trkpt lat="41.627011690" lon="2.526343330">
        <ele>371.40</ele>
        <time>2014-03-02T08:40:49Z</time>
      </trkpt>
      <trkpt lat="41.626996770" lon="2.526330090">
        <ele>371.40</ele>
        <time>2014-03-02T08:40:50Z</time>
      </trkpt>
      <trkpt lat="41.626985030" lon="2.526316680">
        <ele>371.30</ele>
        <time>2014-03-02T08:40:51Z</time>
      </trkpt>
      <trkpt lat="41.626975140" lon="2.526303430">
        <ele>371.90</ele>
        <time>2014-03-02T08:40:52Z</time>
      </trkpt>
      <trkpt lat="41.626965080" lon="2.526288340">
        <ele>372.30</ele>
        <time>2014-03-02T08:40:53Z</time>
      </trkpt>
      <trkpt lat="41.626956700" lon="2.526271750">
        <ele>372.60</ele>
        <time>2014-03-02T08:40:54Z</time>
      </trkpt>
      <trkpt lat="41.626950160" lon="2.526256830">
        <ele>372.40</ele>
        <time>2014-03-02T08:40:55Z</time>
      </trkpt>
      <trkpt lat="41.626940100" lon="2.526238390">
        <ele>372.20</ele>
        <time>2014-03-02T08:40:56Z</time>
      </trkpt>
      <trkpt lat="41.626930050" lon="2.526220120">
        <ele>372.10</ele>
        <time>2014-03-02T08:40:57Z</time>
      </trkpt>
      <trkpt lat="41.626921660" lon="2.526198490">
        <ele>372.00</ele>
        <time>2014-03-02T08:40:58Z</time>
      </trkpt>
      <trkpt lat="41.626915130" lon="2.526178370">
        <ele>372.30</ele>
        <time>2014-03-02T08:40:59Z</time>
      </trkpt>
      <trkpt lat="41.626906740" lon="2.526158420">
        <ele>372.60</ele>
        <time>2014-03-02T08:41:00Z</time>
      </trkpt>
      <trkpt lat="41.626898360" lon="2.526143340">
        <ele>372.80</ele>
        <time>2014-03-02T08:41:01Z</time>
      </trkpt>
      <trkpt lat="41.626891820" lon="2.526126740">
        <ele>372.80</ele>
        <time>2014-03-02T08:41:02Z</time>
      </trkpt>
      <trkpt lat="41.626886790" lon="2.526106790">
        <ele>372.80</ele>
        <time>2014-03-02T08:41:03Z</time>
      </trkpt>
      <trkpt lat="41.626880090" lon="2.526085000">
        <ele>372.60</ele>
        <time>2014-03-02T08:41:04Z</time>
      </trkpt>
      <trkpt lat="41.626871710" lon="2.526063370">
        <ele>372.40</ele>
        <time>2014-03-02T08:41:05Z</time>
      </trkpt>
      <trkpt lat="41.626865000" lon="2.526040070">
        <ele>372.10</ele>
        <time>2014-03-02T08:41:06Z</time>
      </trkpt>
      <trkpt lat="41.626860140" lon="2.526018450">
        <ele>371.90</ele>
        <time>2014-03-02T08:41:07Z</time>
      </trkpt>
      <trkpt lat="41.626855110" lon="2.525996820">
        <ele>371.80</ele>
        <time>2014-03-02T08:41:08Z</time>
      </trkpt>
      <trkpt lat="41.626848410" lon="2.525973350">
        <ele>371.90</ele>
        <time>2014-03-02T08:41:09Z</time>
      </trkpt>
      <trkpt lat="41.626841700" lon="2.525950050">
        <ele>372.10</ele>
        <time>2014-03-02T08:41:10Z</time>
      </trkpt>
      <trkpt lat="41.626836670" lon="2.525926750">
        <ele>372.80</ele>
        <time>2014-03-02T08:41:11Z</time>
      </trkpt>
      <trkpt lat="41.626831810" lon="2.525906800">
        <ele>373.30</ele>
        <time>2014-03-02T08:41:12Z</time>
      </trkpt>
      <trkpt lat="41.626823430" lon="2.525883330">
        <ele>373.70</ele>
        <time>2014-03-02T08:41:13Z</time>
      </trkpt>
      <trkpt lat="41.626815050" lon="2.525860030">
        <ele>373.70</ele>
        <time>2014-03-02T08:41:14Z</time>
      </trkpt>
      <trkpt lat="41.626805160" lon="2.525836730">
        <ele>373.70</ele>
        <time>2014-03-02T08:41:15Z</time>
      </trkpt>
      <trkpt lat="41.626798450" lon="2.525816780">
        <ele>373.60</ele>
        <time>2014-03-02T08:41:16Z</time>
      </trkpt>
      <trkpt lat="41.626790070" lon="2.525795150">
        <ele>373.40</ele>
        <time>2014-03-02T08:41:17Z</time>
      </trkpt>
      <trkpt lat="41.626781690" lon="2.525773360">
        <ele>373.70</ele>
        <time>2014-03-02T08:41:18Z</time>
      </trkpt>
      <trkpt lat="41.626775150" lon="2.525751730">
        <ele>374.00</ele>
        <time>2014-03-02T08:41:19Z</time>
      </trkpt>
      <trkpt lat="41.626766770" lon="2.525731790">
        <ele>374.10</ele>
        <time>2014-03-02T08:41:20Z</time>
      </trkpt>
      <trkpt lat="41.626760060" lon="2.525710160">
        <ele>374.10</ele>
        <time>2014-03-02T08:41:21Z</time>
      </trkpt>
      <trkpt lat="41.626753360" lon="2.525691720">
        <ele>374.10</ele>
        <time>2014-03-02T08:41:22Z</time>
      </trkpt>
      <trkpt lat="41.626748490" lon="2.525675120">
        <ele>374.40</ele>
        <time>2014-03-02T08:41:23Z</time>
      </trkpt>
      <trkpt lat="41.626741790" lon="2.525658360">
        <ele>374.70</ele>
        <time>2014-03-02T08:41:24Z</time>
      </trkpt>
      <trkpt lat="41.626733410" lon="2.525640090">
        <ele>375.20</ele>
        <time>2014-03-02T08:41:25Z</time>
      </trkpt>
      <trkpt lat="41.626725020" lon="2.525620140">
        <ele>375.50</ele>
        <time>2014-03-02T08:41:26Z</time>
      </trkpt>
      <trkpt lat="41.626715130" lon="2.525600020">
        <ele>375.80</ele>
        <time>2014-03-02T08:41:27Z</time>
      </trkpt>
      <trkpt lat="41.626706750" lon="2.525581750">
        <ele>375.90</ele>
        <time>2014-03-02T08:41:28Z</time>
      </trkpt>
      <trkpt lat="41.626696690" lon="2.525563480">
        <ele>375.90</ele>
        <time>2014-03-02T08:41:29Z</time>
      </trkpt>
      <trkpt lat="41.626688480" lon="2.525546710">
        <ele>376.40</ele>
        <time>2014-03-02T08:41:30Z</time>
      </trkpt>
      <trkpt lat="41.626681770" lon="2.525530120">
        <ele>376.70</ele>
        <time>2014-03-02T08:41:31Z</time>
      </trkpt>
      <trkpt lat="41.626673390" lon="2.525513350">
        <ele>376.90</ele>
        <time>2014-03-02T08:41:32Z</time>
      </trkpt>
      <trkpt lat="41.626665010" lon="2.525496760">
        <ele>376.90</ele>
        <time>2014-03-02T08:41:33Z</time>
      </trkpt>
      <trkpt lat="41.626656800" lon="2.525480160">
        <ele>376.90</ele>
        <time>2014-03-02T08:41:34Z</time>
      </trkpt>
      <trkpt lat="41.626648410" lon="2.525465070">
        <ele>377.30</ele>
        <time>2014-03-02T08:41:35Z</time>
      </trkpt>
      <trkpt lat="41.626640030" lon="2.525448480">
        <ele>377.60</ele>
        <time>2014-03-02T08:41:36Z</time>
      </trkpt>
      <trkpt lat="41.626633490" lon="2.525431710">
        <ele>377.90</ele>
        <time>2014-03-02T08:41:37Z</time>
      </trkpt>
      <trkpt lat="41.626625110" lon="2.525415120">
        <ele>378.10</ele>
        <time>2014-03-02T08:41:38Z</time>
      </trkpt>
      <trkpt lat="41.626616730" lon="2.525400030">
        <ele>378.30</ele>
        <time>2014-03-02T08:41:39Z</time>
      </trkpt>
      <trkpt lat="41.626610020" lon="2.525383430">
        <ele>378.50</ele>
        <time>2014-03-02T08:41:40Z</time>
      </trkpt>
      <trkpt lat="41.626601810" lon="2.525366670">
        <ele>378.70</ele>
        <time>2014-03-02T08:41:41Z</time>
      </trkpt>
      <trkpt lat="41.626593430" lon="2.525348400">
        <ele>378.80</ele>
        <time>2014-03-02T08:41:42Z</time>
      </trkpt>
      <trkpt lat="41.626586720" lon="2.525333480">
        <ele>378.90</ele>
        <time>2014-03-02T08:41:43Z</time>
      </trkpt>
      <trkpt lat="41.626578340" lon="2.525318390">
        <ele>379.30</ele>
        <time>2014-03-02T08:41:44Z</time>
      </trkpt>
      <trkpt lat="41.626571800" lon="2.525303470">
        <ele>379.50</ele>
        <time>2014-03-02T08:41:45Z</time>
      </trkpt>
      <trkpt lat="41.626565100" lon="2.525290060">
        <ele>379.70</ele>
        <time>2014-03-02T08:41:46Z</time>
      </trkpt>
      <trkpt lat="41.626556720" lon="2.525275140">
        <ele>379.80</ele>
        <time>2014-03-02T08:41:47Z</time>
      </trkpt>
      <trkpt lat="41.626548330" lon="2.525255020">
        <ele>379.80</ele>
        <time>2014-03-02T08:41:48Z</time>
      </trkpt>
      <trkpt lat="41.626541800" lon="2.525236750">
        <ele>380.20</ele>
        <time>2014-03-02T08:41:49Z</time>
      </trkpt>
      <trkpt lat="41.626531740" lon="2.525220150">
        <ele>380.40</ele>
        <time>2014-03-02T08:41:50Z</time>
      </trkpt>
      <trkpt lat="41.626521680" lon="2.525203390">
        <ele>380.60</ele>
        <time>2014-03-02T08:41:51Z</time>
      </trkpt>
      <trkpt lat="41.626513460" lon="2.525185120">
        <ele>380.80</ele>
        <time>2014-03-02T08:41:52Z</time>
      </trkpt>
      <trkpt lat="41.626508440" lon="2.525163490">
        <ele>381.00</ele>
        <time>2014-03-02T08:41:53Z</time>
      </trkpt>
      <trkpt lat="41.626501730" lon="2.525145050">
        <ele>381.20</ele>
        <time>2014-03-02T08:41:54Z</time>
      </trkpt>
      <trkpt lat="41.626495020" lon="2.525128460">
        <ele>381.40</ele>
        <time>2014-03-02T08:41:55Z</time>
      </trkpt>
      <trkpt lat="41.626490000" lon="2.525110020">
        <ele>381.60</ele>
        <time>2014-03-02T08:41:56Z</time>
      </trkpt>
      <trkpt lat="41.626483460" lon="2.525093420">
        <ele>381.80</ele>
        <time>2014-03-02T08:41:57Z</time>
      </trkpt>
      <trkpt lat="41.626475080" lon="2.525073470">
        <ele>381.90</ele>
        <time>2014-03-02T08:41:58Z</time>
      </trkpt>
      <trkpt lat="41.626468370" lon="2.525056710">
        <ele>381.90</ele>
        <time>2014-03-02T08:41:59Z</time>
      </trkpt>
      <trkpt lat="41.626461660" lon="2.525040110">
        <ele>382.00</ele>
        <time>2014-03-02T08:42:00Z</time>
      </trkpt>
      <trkpt lat="41.626455130" lon="2.525020160">
        <ele>382.30</ele>
        <time>2014-03-02T08:42:01Z</time>
      </trkpt>
      <trkpt lat="41.626450100" lon="2.525000050">
        <ele>382.60</ele>
        <time>2014-03-02T08:42:02Z</time>
      </trkpt>
      <trkpt lat="41.626446750" lon="2.524981770">
        <ele>383.00</ele>
        <time>2014-03-02T08:42:03Z</time>
      </trkpt>
      <trkpt lat="41.626441720" lon="2.524961820">
        <ele>383.30</ele>
        <time>2014-03-02T08:42:04Z</time>
      </trkpt>
      <trkpt lat="41.626441720" lon="2.524943380">
        <ele>383.60</ele>
        <time>2014-03-02T08:42:05Z</time>
      </trkpt>
      <trkpt lat="41.626441720" lon="2.524925110">
        <ele>383.30</ele>
        <time>2014-03-02T08:42:06Z</time>
      </trkpt>
      <trkpt lat="41.626438360" lon="2.524906670">
        <ele>383.10</ele>
        <time>2014-03-02T08:42:07Z</time>
      </trkpt>
      <trkpt lat="41.626435010" lon="2.524890080">
        <ele>383.10</ele>
        <time>2014-03-02T08:42:08Z</time>
      </trkpt>
      <trkpt lat="41.626431830" lon="2.524873480">
        <ele>383.10</ele>
        <time>2014-03-02T08:42:09Z</time>
      </trkpt>
      <trkpt lat="41.626428470" lon="2.524856720">
        <ele>383.20</ele>
        <time>2014-03-02T08:42:10Z</time>
      </trkpt>
      <trkpt lat="41.626428470" lon="2.524840120">
        <ele>383.60</ele>
        <time>2014-03-02T08:42:11Z</time>
      </trkpt>
      <trkpt lat="41.626426800" lon="2.524820000">
        <ele>383.90</ele>
        <time>2014-03-02T08:42:12Z</time>
      </trkpt>
      <trkpt lat="41.626421770" lon="2.524798380">
        <ele>384.10</ele>
        <time>2014-03-02T08:42:13Z</time>
      </trkpt>
      <trkpt lat="41.626420090" lon="2.524781780">
        <ele>384.30</ele>
        <time>2014-03-02T08:42:14Z</time>
      </trkpt>
      <trkpt lat="41.626415060" lon="2.524763340">
        <ele>384.90</ele>
        <time>2014-03-02T08:42:15Z</time>
      </trkpt>
      <trkpt lat="41.626411710" lon="2.524743390">
        <ele>385.30</ele>
        <time>2014-03-02T08:42:16Z</time>
      </trkpt>
      <trkpt lat="41.626410030" lon="2.524725120">
        <ele>385.60</ele>
        <time>2014-03-02T08:42:17Z</time>
      </trkpt>
      <trkpt lat="41.626410030" lon="2.524711710">
        <ele>385.70</ele>
        <time>2014-03-02T08:42:18Z</time>
      </trkpt>
      <trkpt lat="41.626408360" lon="2.524696790">
        <ele>385.80</ele>
        <time>2014-03-02T08:42:19Z</time>
      </trkpt>
      <trkpt lat="41.626405000" lon="2.524685050">
        <ele>385.90</ele>
        <time>2014-03-02T08:42:20Z</time>
      </trkpt>
      <trkpt lat="41.626400140" lon="2.524670130">
        <ele>386.00</ele>
        <time>2014-03-02T08:42:21Z</time>
      </trkpt>
      <trkpt lat="41.626395110" lon="2.524655050">
        <ele>386.00</ele>
        <time>2014-03-02T08:42:22Z</time>
      </trkpt>
      <trkpt lat="41.626391760" lon="2.524638450">
        <ele>386.00</ele>
        <time>2014-03-02T08:42:23Z</time>
      </trkpt>
      <trkpt lat="41.626386730" lon="2.524621690">
        <ele>385.90</ele>
        <time>2014-03-02T08:42:24Z</time>
      </trkpt>
      <trkpt lat="41.626383380" lon="2.524605090">
        <ele>386.10</ele>
        <time>2014-03-02T08:42:25Z</time>
      </trkpt>
      <trkpt lat="41.626380030" lon="2.524588490">
        <ele>386.30</ele>
        <time>2014-03-02T08:42:26Z</time>
      </trkpt>
      <trkpt lat="41.626375000" lon="2.524575080">
        <ele>386.90</ele>
        <time>2014-03-02T08:42:27Z</time>
      </trkpt>
      <trkpt lat="41.626375000" lon="2.524561670">
        <ele>387.30</ele>
        <time>2014-03-02T08:42:28Z</time>
      </trkpt>
      <trkpt lat="41.626368460" lon="2.524548430">
        <ele>387.60</ele>
        <time>2014-03-02T08:42:29Z</time>
      </trkpt>
      <trkpt lat="41.626361750" lon="2.524535020">
        <ele>387.80</ele>
        <time>2014-03-02T08:42:30Z</time>
      </trkpt>
      <trkpt lat="41.626356720" lon="2.524530160">
        <ele>388.00</ele>
        <time>2014-03-02T08:42:31Z</time>
      </trkpt>
      <trkpt lat="41.626350020" lon="2.524518420">
        <ele>388.20</ele>
        <time>2014-03-02T08:42:32Z</time>
      </trkpt>
      <trkpt lat="41.626343480" lon="2.524500150">
        <ele>388.30</ele>
        <time>2014-03-02T08:42:33Z</time>
      </trkpt>
      <trkpt lat="41.626335100" lon="2.524483390">
        <ele>388.50</ele>
        <time>2014-03-02T08:42:34Z</time>
      </trkpt>
      <trkpt lat="41.626328390" lon="2.524470140">
        <ele>388.60</ele>
        <time>2014-03-02T08:42:35Z</time>
      </trkpt>
      <trkpt lat="41.626320010" lon="2.524455050">
        <ele>388.70</ele>
        <time>2014-03-02T08:42:36Z</time>
      </trkpt>
      <trkpt lat="41.626315150" lon="2.524438460">
        <ele>388.90</ele>
        <time>2014-03-02T08:42:37Z</time>
      </trkpt>
      <trkpt lat="41.626308440" lon="2.524423370">
        <ele>389.00</ele>
        <time>2014-03-02T08:42:38Z</time>
      </trkpt>
      <trkpt lat="41.626303410" lon="2.524408450">
        <ele>389.40</ele>
        <time>2014-03-02T08:42:39Z</time>
      </trkpt>
      <trkpt lat="41.626296710" lon="2.524396720">
        <ele>389.70</ele>
        <time>2014-03-02T08:42:40Z</time>
      </trkpt>
      <trkpt lat="41.626290000" lon="2.524380120">
        <ele>389.60</ele>
        <time>2014-03-02T08:42:41Z</time>
      </trkpt>
      <trkpt lat="41.626285140" lon="2.524366710">
        <ele>389.60</ele>
        <time>2014-03-02T08:42:42Z</time>
      </trkpt>
      <trkpt lat="41.626278440" lon="2.524351790">
        <ele>389.60</ele>
        <time>2014-03-02T08:42:43Z</time>
      </trkpt>
      <trkpt lat="41.626273410" lon="2.524336700">
        <ele>390.00</ele>
        <time>2014-03-02T08:42:44Z</time>
      </trkpt>
      <trkpt lat="41.626266700" lon="2.524323460">
        <ele>390.20</ele>
        <time>2014-03-02T08:42:45Z</time>
      </trkpt>
      <trkpt lat="41.626263350" lon="2.524308370">
        <ele>390.30</ele>
        <time>2014-03-02T08:42:46Z</time>
      </trkpt>
      <trkpt lat="41.626260000" lon="2.524293450">
        <ele>390.40</ele>
        <time>2014-03-02T08:42:47Z</time>
      </trkpt>
      <trkpt lat="41.626255130" lon="2.524280040">
        <ele>390.50</ele>
        <time>2014-03-02T08:42:48Z</time>
      </trkpt>
      <trkpt lat="41.626251780" lon="2.524266800">
        <ele>390.80</ele>
        <time>2014-03-02T08:42:49Z</time>
      </trkpt>
      <trkpt lat="41.626248430" lon="2.524253390">
        <ele>391.10</ele>
        <time>2014-03-02T08:42:50Z</time>
      </trkpt>
      <trkpt lat="41.626243400" lon="2.524241820">
        <ele>391.60</ele>
        <time>2014-03-02T08:42:51Z</time>
      </trkpt>
      <trkpt lat="41.626238370" lon="2.524230080">
        <ele>391.90</ele>
        <time>2014-03-02T08:42:52Z</time>
      </trkpt>
      <trkpt lat="41.626233340" lon="2.524218350">
        <ele>392.20</ele>
        <time>2014-03-02T08:42:53Z</time>
      </trkpt>
      <trkpt lat="41.626228480" lon="2.524206780">
        <ele>392.50</ele>
        <time>2014-03-02T08:42:54Z</time>
      </trkpt>
      <trkpt lat="41.626220100" lon="2.524196720">
        <ele>392.60</ele>
        <time>2014-03-02T08:42:55Z</time>
      </trkpt>
      <trkpt lat="41.626213390" lon="2.524186670">
        <ele>393.20</ele>
        <time>2014-03-02T08:42:56Z</time>
      </trkpt>
      <trkpt lat="41.626208360" lon="2.524171750">
        <ele>393.70</ele>
        <time>2014-03-02T08:42:57Z</time>
      </trkpt>
      <trkpt lat="41.626201830" lon="2.524153470">
        <ele>393.90</ele>
        <time>2014-03-02T08:42:58Z</time>
      </trkpt>
      <trkpt lat="41.626196800" lon="2.524136710">
        <ele>394.00</ele>
        <time>2014-03-02T08:42:59Z</time>
      </trkpt>
      <trkpt lat="41.626191770" lon="2.524121790">
        <ele>394.10</ele>
        <time>2014-03-02T08:43:00Z</time>
      </trkpt>
      <trkpt lat="41.626185060" lon="2.524105030">
        <ele>394.20</ele>
        <time>2014-03-02T08:43:01Z</time>
      </trkpt>
      <trkpt lat="41.626180030" lon="2.524088430">
        <ele>394.30</ele>
        <time>2014-03-02T08:43:02Z</time>
      </trkpt>
      <trkpt lat="41.626178360" lon="2.524071670">
        <ele>394.60</ele>
        <time>2014-03-02T08:43:03Z</time>
      </trkpt>
      <trkpt lat="41.626173490" lon="2.524053390">
        <ele>394.80</ele>
        <time>2014-03-02T08:43:04Z</time>
      </trkpt>
      <trkpt lat="41.626168470" lon="2.524036800">
        <ele>394.70</ele>
        <time>2014-03-02T08:43:05Z</time>
      </trkpt>
      <trkpt lat="41.626166790" lon="2.524021710">
        <ele>394.60</ele>
        <time>2014-03-02T08:43:06Z</time>
      </trkpt>
      <trkpt lat="41.626163440" lon="2.524008470">
        <ele>395.10</ele>
        <time>2014-03-02T08:43:07Z</time>
      </trkpt>
      <trkpt lat="41.626158410" lon="2.523991700">
        <ele>395.50</ele>
        <time>2014-03-02T08:43:08Z</time>
      </trkpt>
      <trkpt lat="41.626155050" lon="2.523978460">
        <ele>395.70</ele>
        <time>2014-03-02T08:43:09Z</time>
      </trkpt>
      <trkpt lat="41.626151700" lon="2.523965050">
        <ele>396.10</ele>
        <time>2014-03-02T08:43:10Z</time>
      </trkpt>
      <trkpt lat="41.626150030" lon="2.523950130">
        <ele>396.30</ele>
        <time>2014-03-02T08:43:11Z</time>
      </trkpt>
      <trkpt lat="41.626146670" lon="2.523935040">
        <ele>396.20</ele>
        <time>2014-03-02T08:43:12Z</time>
      </trkpt>
      <trkpt lat="41.626143490" lon="2.523920120">
        <ele>396.00</ele>
        <time>2014-03-02T08:43:13Z</time>
      </trkpt>
      <trkpt lat="41.626138460" lon="2.523906710">
        <ele>396.00</ele>
        <time>2014-03-02T08:43:14Z</time>
      </trkpt>
      <trkpt lat="41.626133430" lon="2.523891790">
        <ele>396.30</ele>
        <time>2014-03-02T08:43:15Z</time>
      </trkpt>
      <trkpt lat="41.626128400" lon="2.523876700">
        <ele>396.50</ele>
        <time>2014-03-02T08:43:16Z</time>
      </trkpt>
      <trkpt lat="41.626125050" lon="2.523861780">
        <ele>396.70</ele>
        <time>2014-03-02T08:43:17Z</time>
      </trkpt>
      <trkpt lat="41.626120020" lon="2.523845020">
        <ele>396.90</ele>
        <time>2014-03-02T08:43:18Z</time>
      </trkpt>
      <trkpt lat="41.626116670" lon="2.523828420">
        <ele>397.30</ele>
        <time>2014-03-02T08:43:19Z</time>
      </trkpt>
      <trkpt lat="41.626111800" lon="2.523813340">
        <ele>397.60</ele>
        <time>2014-03-02T08:43:20Z</time>
      </trkpt>
      <trkpt lat="41.626108450" lon="2.523796740">
        <ele>397.80</ele>
        <time>2014-03-02T08:43:21Z</time>
      </trkpt>
      <trkpt lat="41.626105100" lon="2.523783330">
        <ele>397.80</ele>
        <time>2014-03-02T08:43:22Z</time>
      </trkpt>
      <trkpt lat="41.626103420" lon="2.523768410">
        <ele>397.80</ele>
        <time>2014-03-02T08:43:23Z</time>
      </trkpt>
      <trkpt lat="41.626103420" lon="2.523756670">
        <ele>398.50</ele>
        <time>2014-03-02T08:43:24Z</time>
      </trkpt>
      <trkpt lat="41.626103420" lon="2.523743430">
        <ele>399.00</ele>
        <time>2014-03-02T08:43:25Z</time>
      </trkpt>
      <trkpt lat="41.626101750" lon="2.523731700">
        <ele>399.10</ele>
        <time>2014-03-02T08:43:26Z</time>
      </trkpt>
      <trkpt lat="41.626098390" lon="2.523720130">
        <ele>399.10</ele>
        <time>2014-03-02T08:43:27Z</time>
      </trkpt>
      <trkpt lat="41.626091690" lon="2.523705040">
        <ele>399.10</ele>
        <time>2014-03-02T08:43:28Z</time>
      </trkpt>
      <trkpt lat="41.626085150" lon="2.523690120">
        <ele>399.10</ele>
        <time>2014-03-02T08:43:29Z</time>
      </trkpt>
      <trkpt lat="41.626078440" lon="2.523671680">
        <ele>399.10</ele>
        <time>2014-03-02T08:43:30Z</time>
      </trkpt>
      <trkpt lat="41.626073420" lon="2.523655090">
        <ele>399.40</ele>
        <time>2014-03-02T08:43:31Z</time>
      </trkpt>
      <trkpt lat="41.626070060" lon="2.523636810">
        <ele>399.60</ele>
        <time>2014-03-02T08:43:32Z</time>
      </trkpt>
      <trkpt lat="41.626065030" lon="2.523620050">
        <ele>399.70</ele>
        <time>2014-03-02T08:43:33Z</time>
      </trkpt>
      <trkpt lat="41.626061680" lon="2.523601780">
        <ele>399.90</ele>
        <time>2014-03-02T08:43:34Z</time>
      </trkpt>
      <trkpt lat="41.626056820" lon="2.523588370">
        <ele>400.00</ele>
        <time>2014-03-02T08:43:35Z</time>
      </trkpt>
      <trkpt lat="41.626051790" lon="2.523571770">
        <ele>400.10</ele>
        <time>2014-03-02T08:43:36Z</time>
      </trkpt>
      <trkpt lat="41.626046760" lon="2.523556680">
        <ele>400.10</ele>
        <time>2014-03-02T08:43:37Z</time>
      </trkpt>
      <trkpt lat="41.626043410" lon="2.523541760">
        <ele>400.40</ele>
        <time>2014-03-02T08:43:38Z</time>
      </trkpt>
      <trkpt lat="41.626038380" lon="2.523528350">
        <ele>400.70</ele>
        <time>2014-03-02T08:43:39Z</time>
      </trkpt>
      <trkpt lat="41.626035030" lon="2.523516780">
        <ele>400.90</ele>
        <time>2014-03-02T08:43:40Z</time>
      </trkpt>
      <trkpt lat="41.626033350" lon="2.523503370">
        <ele>401.10</ele>
        <time>2014-03-02T08:43:41Z</time>
      </trkpt>
      <trkpt lat="41.626028490" lon="2.523490130">
        <ele>401.30</ele>
        <time>2014-03-02T08:43:42Z</time>
      </trkpt>
      <trkpt lat="41.626023460" lon="2.523476720">
        <ele>401.70</ele>
        <time>2014-03-02T08:43:43Z</time>
      </trkpt>
      <trkpt lat="41.626016750" lon="2.523465150">
        <ele>402.00</ele>
        <time>2014-03-02T08:43:44Z</time>
      </trkpt>
      <trkpt lat="41.626011720" lon="2.523455090">
        <ele>402.50</ele>
        <time>2014-03-02T08:43:45Z</time>
      </trkpt>
      <trkpt lat="41.626006700" lon="2.523441680">
        <ele>402.90</ele>
        <time>2014-03-02T08:43:46Z</time>
      </trkpt>
      <trkpt lat="41.626000160" lon="2.523430120">
        <ele>403.10</ele>
        <time>2014-03-02T08:43:47Z</time>
      </trkpt>
      <trkpt lat="41.625995130" lon="2.523416700">
        <ele>403.50</ele>
        <time>2014-03-02T08:43:48Z</time>
      </trkpt>
      <trkpt lat="41.625990100" lon="2.523403460">
        <ele>403.80</ele>
        <time>2014-03-02T08:43:49Z</time>
      </trkpt>
      <trkpt lat="41.625986750" lon="2.523390050">
        <ele>403.70</ele>
        <time>2014-03-02T08:43:50Z</time>
      </trkpt>
      <trkpt lat="41.625981720" lon="2.523375130">
        <ele>403.70</ele>
        <time>2014-03-02T08:43:51Z</time>
      </trkpt>
      <trkpt lat="41.625978360" lon="2.523363400">
        <ele>403.70</ele>
        <time>2014-03-02T08:43:52Z</time>
      </trkpt>
      <trkpt lat="41.625971830" lon="2.523351830">
        <ele>403.80</ele>
        <time>2014-03-02T08:43:53Z</time>
      </trkpt>
      <trkpt lat="41.625963440" lon="2.523341770">
        <ele>403.90</ele>
        <time>2014-03-02T08:43:54Z</time>
      </trkpt>
      <trkpt lat="41.625953390" lon="2.523333390">
        <ele>404.20</ele>
        <time>2014-03-02T08:43:55Z</time>
      </trkpt>
      <trkpt lat="41.625948360" lon="2.523318470">
        <ele>404.40</ele>
        <time>2014-03-02T08:43:56Z</time>
      </trkpt>
      <trkpt lat="41.625943500" lon="2.523298350">
        <ele>404.50</ele>
        <time>2014-03-02T08:43:57Z</time>
      </trkpt>
      <trkpt lat="41.625940140" lon="2.523281760">
        <ele>404.60</ele>
        <time>2014-03-02T08:43:58Z</time>
      </trkpt>
      <trkpt lat="41.625935110" lon="2.523265160">
        <ele>404.60</ele>
        <time>2014-03-02T08:43:59Z</time>
      </trkpt>
      <trkpt lat="41.625931760" lon="2.523246720">
        <ele>404.60</ele>
        <time>2014-03-02T08:44:00Z</time>
      </trkpt>
      <trkpt lat="41.625928410" lon="2.523230120">
        <ele>404.70</ele>
        <time>2014-03-02T08:44:01Z</time>
      </trkpt>
      <trkpt lat="41.625926730" lon="2.523211680">
        <ele>404.80</ele>
        <time>2014-03-02T08:44:02Z</time>
      </trkpt>
      <trkpt lat="41.625923380" lon="2.523193410">
        <ele>404.90</ele>
        <time>2014-03-02T08:44:03Z</time>
      </trkpt>
      <trkpt lat="41.625918350" lon="2.523176810">
        <ele>404.80</ele>
        <time>2014-03-02T08:44:04Z</time>
      </trkpt>
      <trkpt lat="41.625913490" lon="2.523161730">
        <ele>404.80</ele>
        <time>2014-03-02T08:44:05Z</time>
      </trkpt>
      <trkpt lat="41.625910140" lon="2.523145130">
        <ele>404.70</ele>
        <time>2014-03-02T08:44:06Z</time>
      </trkpt>
      <trkpt lat="41.625906780" lon="2.523130040">
        <ele>405.70</ele>
        <time>2014-03-02T08:44:07Z</time>
      </trkpt>
      <trkpt lat="41.625903430" lon="2.523115120">
        <ele>406.50</ele>
        <time>2014-03-02T08:44:08Z</time>
      </trkpt>
      <trkpt lat="41.625900080" lon="2.523101710">
        <ele>406.50</ele>
        <time>2014-03-02T08:44:09Z</time>
      </trkpt>
      <trkpt lat="41.625898400" lon="2.523088470">
        <ele>406.60</ele>
        <time>2014-03-02T08:44:10Z</time>
      </trkpt>
      <trkpt lat="41.625893370" lon="2.523073380">
        <ele>406.60</ele>
        <time>2014-03-02T08:44:11Z</time>
      </trkpt>
      <trkpt lat="41.625890020" lon="2.523055110">
        <ele>406.70</ele>
        <time>2014-03-02T08:44:12Z</time>
      </trkpt>
      <trkpt lat="41.625886670" lon="2.523030130">
        <ele>406.80</ele>
        <time>2014-03-02T08:44:13Z</time>
      </trkpt>
      <trkpt lat="41.625883480" lon="2.523005150">
        <ele>407.00</ele>
        <time>2014-03-02T08:44:14Z</time>
      </trkpt>
      <trkpt lat="41.625880130" lon="2.522981680">
        <ele>407.10</ele>
        <time>2014-03-02T08:44:15Z</time>
      </trkpt>
      <trkpt lat="41.625880130" lon="2.522961730">
        <ele>407.20</ele>
        <time>2014-03-02T08:44:16Z</time>
      </trkpt>
      <trkpt lat="41.625880130" lon="2.522940110">
        <ele>407.20</ele>
        <time>2014-03-02T08:44:17Z</time>
      </trkpt>
      <trkpt lat="41.625881800" lon="2.522921670">
        <ele>407.30</ele>
        <time>2014-03-02T08:44:18Z</time>
      </trkpt>
      <trkpt lat="41.625881800" lon="2.522905070">
        <ele>407.30</ele>
        <time>2014-03-02T08:44:19Z</time>
      </trkpt>
      <trkpt lat="41.625881800" lon="2.522886800">
        <ele>407.40</ele>
        <time>2014-03-02T08:44:20Z</time>
      </trkpt>
      <trkpt lat="41.625880130" lon="2.522868360">
        <ele>407.60</ele>
        <time>2014-03-02T08:44:21Z</time>
      </trkpt>
      <trkpt lat="41.625880130" lon="2.522850090">
        <ele>407.80</ele>
        <time>2014-03-02T08:44:22Z</time>
      </trkpt>
      <trkpt lat="41.625881800" lon="2.522831810">
        <ele>408.00</ele>
        <time>2014-03-02T08:44:23Z</time>
      </trkpt>
      <trkpt lat="41.625880130" lon="2.522813370">
        <ele>408.20</ele>
        <time>2014-03-02T08:44:24Z</time>
      </trkpt>
      <trkpt lat="41.625878450" lon="2.522795100">
        <ele>408.30</ele>
        <time>2014-03-02T08:44:25Z</time>
      </trkpt>
      <trkpt lat="41.625876780" lon="2.522776660">
        <ele>408.20</ele>
        <time>2014-03-02T08:44:26Z</time>
      </trkpt>
      <trkpt lat="41.625873420" lon="2.522758390">
        <ele>408.10</ele>
        <time>2014-03-02T08:44:27Z</time>
      </trkpt>
      <trkpt lat="41.625871750" lon="2.522740120">
        <ele>408.50</ele>
        <time>2014-03-02T08:44:28Z</time>
      </trkpt>
      <trkpt lat="41.625870070" lon="2.522720000">
        <ele>408.70</ele>
        <time>2014-03-02T08:44:29Z</time>
      </trkpt>
      <trkpt lat="41.625871750" lon="2.522703400">
        <ele>408.90</ele>
        <time>2014-03-02T08:44:30Z</time>
      </trkpt>
      <trkpt lat="41.625871750" lon="2.522686810">
        <ele>409.10</ele>
        <time>2014-03-02T08:44:31Z</time>
      </trkpt>
      <trkpt lat="41.625871750" lon="2.522670040">
        <ele>409.10</ele>
        <time>2014-03-02T08:44:32Z</time>
      </trkpt>
      <trkpt lat="41.625870070" lon="2.522655120">
        <ele>409.30</ele>
        <time>2014-03-02T08:44:33Z</time>
      </trkpt>
      <trkpt lat="41.625868390" lon="2.522636680">
        <ele>409.40</ele>
        <time>2014-03-02T08:44:34Z</time>
      </trkpt>
      <trkpt lat="41.625868390" lon="2.522616740">
        <ele>409.30</ele>
        <time>2014-03-02T08:44:35Z</time>
      </trkpt>
      <trkpt lat="41.625868390" lon="2.522595110">
        <ele>409.30</ele>
        <time>2014-03-02T08:44:36Z</time>
      </trkpt>
      <trkpt lat="41.625868390" lon="2.522573480">
        <ele>409.30</ele>
        <time>2014-03-02T08:44:37Z</time>
      </trkpt>
      <trkpt lat="41.625871750" lon="2.522553370">
        <ele>409.60</ele>
        <time>2014-03-02T08:44:38Z</time>
      </trkpt>
      <trkpt lat="41.625873420" lon="2.522533420">
        <ele>409.90</ele>
        <time>2014-03-02T08:44:39Z</time>
      </trkpt>
      <trkpt lat="41.625878450" lon="2.522516820">
        <ele>409.80</ele>
        <time>2014-03-02T08:44:40Z</time>
      </trkpt>
      <trkpt lat="41.625881800" lon="2.522498380">
        <ele>409.80</ele>
        <time>2014-03-02T08:44:41Z</time>
      </trkpt>
      <trkpt lat="41.625883480" lon="2.522476760">
        <ele>410.10</ele>
        <time>2014-03-02T08:44:42Z</time>
      </trkpt>
      <trkpt lat="41.625888340" lon="2.522458480">
        <ele>410.30</ele>
        <time>2014-03-02T08:44:43Z</time>
      </trkpt>
      <trkpt lat="41.625893370" lon="2.522440040">
        <ele>410.50</ele>
        <time>2014-03-02T08:44:44Z</time>
      </trkpt>
      <trkpt lat="41.625896720" lon="2.522420100">
        <ele>410.30</ele>
        <time>2014-03-02T08:44:45Z</time>
      </trkpt>
      <trkpt lat="41.625900080" lon="2.522396790">
        <ele>410.20</ele>
        <time>2014-03-02T08:44:46Z</time>
      </trkpt>
      <trkpt lat="41.625903430" lon="2.522375000">
        <ele>410.50</ele>
        <time>2014-03-02T08:44:47Z</time>
      </trkpt>
      <trkpt lat="41.625908460" lon="2.522355050">
        <ele>410.80</ele>
        <time>2014-03-02T08:44:48Z</time>
      </trkpt>
      <trkpt lat="41.625915000" lon="2.522333430">
        <ele>410.90</ele>
        <time>2014-03-02T08:44:49Z</time>
      </trkpt>
      <trkpt lat="41.625918350" lon="2.522311800">
        <ele>411.40</ele>
        <time>2014-03-02T08:44:50Z</time>
      </trkpt>
      <trkpt lat="41.625923380" lon="2.522291690">
        <ele>411.80</ele>
        <time>2014-03-02T08:44:51Z</time>
      </trkpt>
      <trkpt lat="41.625928410" lon="2.522273410">
        <ele>412.30</ele>
        <time>2014-03-02T08:44:52Z</time>
      </trkpt>
      <trkpt lat="41.625933440" lon="2.522256820">
        <ele>412.70</ele>
        <time>2014-03-02T08:44:53Z</time>
      </trkpt>
      <trkpt lat="41.625935110" lon="2.522236700">
        <ele>412.90</ele>
        <time>2014-03-02T08:44:54Z</time>
      </trkpt>
      <trkpt lat="41.625938470" lon="2.522218430">
        <ele>413.00</ele>
        <time>2014-03-02T08:44:55Z</time>
      </trkpt>
      <trkpt lat="41.625940140" lon="2.522198480">
        <ele>413.10</ele>
        <time>2014-03-02T08:44:56Z</time>
      </trkpt>
      <trkpt lat="41.625943500" lon="2.522180040">
        <ele>413.70</ele>
        <time>2014-03-02T08:44:57Z</time>
      </trkpt>
      <trkpt lat="41.625946680" lon="2.522163440">
        <ele>414.20</ele>
        <time>2014-03-02T08:44:58Z</time>
      </trkpt>
      <trkpt lat="41.625953390" lon="2.522148350">
        <ele>414.30</ele>
        <time>2014-03-02T08:44:59Z</time>
      </trkpt>
      <trkpt lat="41.625958420" lon="2.522135110">
        <ele>414.50</ele>
        <time>2014-03-02T08:45:00Z</time>
      </trkpt>
      <trkpt lat="41.625960090" lon="2.522118350">
        <ele>414.70</ele>
        <time>2014-03-02T08:45:01Z</time>
      </trkpt>
      <trkpt lat="41.625963440" lon="2.522103430">
        <ele>414.90</ele>
        <time>2014-03-02T08:45:02Z</time>
      </trkpt>
      <trkpt lat="41.625965120" lon="2.522086660">
        <ele>415.00</ele>
        <time>2014-03-02T08:45:03Z</time>
      </trkpt>
      <trkpt lat="41.625966800" lon="2.522071740">
        <ele>415.20</ele>
        <time>2014-03-02T08:45:04Z</time>
      </trkpt>
      <trkpt lat="41.625968470" lon="2.522055150">
        <ele>415.30</ele>
        <time>2014-03-02T08:45:05Z</time>
      </trkpt>
      <trkpt lat="41.625971830" lon="2.522038380">
        <ele>415.50</ele>
        <time>2014-03-02T08:45:06Z</time>
      </trkpt>
      <trkpt lat="41.625973340" lon="2.522023460">
        <ele>415.60</ele>
        <time>2014-03-02T08:45:07Z</time>
      </trkpt>
      <trkpt lat="41.625976690" lon="2.522005020">
        <ele>415.70</ele>
        <time>2014-03-02T08:45:08Z</time>
      </trkpt>
      <trkpt lat="41.625978360" lon="2.521988430">
        <ele>416.30</ele>
        <time>2014-03-02T08:45:09Z</time>
      </trkpt>
      <trkpt lat="41.625983390" lon="2.521973340">
        <ele>416.70</ele>
        <time>2014-03-02T08:45:10Z</time>
      </trkpt>
      <trkpt lat="41.625988420" lon="2.521958420">
        <ele>416.80</ele>
        <time>2014-03-02T08:45:11Z</time>
      </trkpt>
      <trkpt lat="41.625995130" lon="2.521943330">
        <ele>416.80</ele>
        <time>2014-03-02T08:45:12Z</time>
      </trkpt>
      <trkpt lat="41.626001670" lon="2.521928410">
        <ele>417.20</ele>
        <time>2014-03-02T08:45:13Z</time>
      </trkpt>
      <trkpt lat="41.626008370" lon="2.521915000">
        <ele>417.50</ele>
        <time>2014-03-02T08:45:14Z</time>
      </trkpt>
      <trkpt lat="41.626013400" lon="2.521900080">
        <ele>417.70</ele>
        <time>2014-03-02T08:45:15Z</time>
      </trkpt>
      <trkpt lat="41.626020110" lon="2.521886670">
        <ele>417.80</ele>
        <time>2014-03-02T08:45:16Z</time>
      </trkpt>
      <trkpt lat="41.626025140" lon="2.521871750">
        <ele>417.80</ele>
        <time>2014-03-02T08:45:17Z</time>
      </trkpt>
      <trkpt lat="41.626033350" lon="2.521858340">
        <ele>418.10</ele>
        <time>2014-03-02T08:45:18Z</time>
      </trkpt>
      <trkpt lat="41.626041730" lon="2.521845100">
        <ele>418.30</ele>
        <time>2014-03-02T08:45:19Z</time>
      </trkpt>
      <trkpt lat="41.626051790" lon="2.521830010">
        <ele>418.60</ele>
        <time>2014-03-02T08:45:20Z</time>
      </trkpt>
      <trkpt lat="41.626061680" lon="2.521816770">
        <ele>418.80</ele>
        <time>2014-03-02T08:45:21Z</time>
      </trkpt>
      <trkpt lat="41.626071740" lon="2.521801680">
        <ele>419.00</ele>
        <time>2014-03-02T08:45:22Z</time>
      </trkpt>
      <trkpt lat="41.626080120" lon="2.521785080">
        <ele>419.00</ele>
        <time>2014-03-02T08:45:23Z</time>
      </trkpt>
      <trkpt lat="41.626090010" lon="2.521768490">
        <ele>419.00</ele>
        <time>2014-03-02T08:45:24Z</time>
      </trkpt>
      <trkpt lat="41.626100070" lon="2.521753400">
        <ele>419.30</ele>
        <time>2014-03-02T08:45:25Z</time>
      </trkpt>
      <trkpt lat="41.626108450" lon="2.521735130">
        <ele>419.50</ele>
        <time>2014-03-02T08:45:26Z</time>
      </trkpt>
      <trkpt lat="41.626116670" lon="2.521718360">
        <ele>419.60</ele>
        <time>2014-03-02T08:45:27Z</time>
      </trkpt>
      <trkpt lat="41.626125050" lon="2.521701770">
        <ele>419.60</ele>
        <time>2014-03-02T08:45:28Z</time>
      </trkpt>
      <trkpt lat="41.626135110" lon="2.521685000">
        <ele>419.50</ele>
        <time>2014-03-02T08:45:29Z</time>
      </trkpt>
      <trkpt lat="41.626143490" lon="2.521668410">
        <ele>419.60</ele>
        <time>2014-03-02T08:45:30Z</time>
      </trkpt>
      <trkpt lat="41.626153380" lon="2.521650130">
        <ele>419.70</ele>
        <time>2014-03-02T08:45:31Z</time>
      </trkpt>
      <trkpt lat="41.626165110" lon="2.521630020">
        <ele>420.10</ele>
        <time>2014-03-02T08:45:32Z</time>
      </trkpt>
      <trkpt lat="41.626176680" lon="2.521611750">
        <ele>420.40</ele>
        <time>2014-03-02T08:45:33Z</time>
      </trkpt>
      <trkpt lat="41.626185060" lon="2.521595150">
        <ele>420.70</ele>
        <time>2014-03-02T08:45:34Z</time>
      </trkpt>
      <trkpt lat="41.626195120" lon="2.521580060">
        <ele>420.90</ele>
        <time>2014-03-02T08:45:35Z</time>
      </trkpt>
      <trkpt lat="41.626203330" lon="2.521561790">
        <ele>421.10</ele>
        <time>2014-03-02T08:45:36Z</time>
      </trkpt>
      <trkpt lat="41.626210040" lon="2.521543350">
        <ele>421.00</ele>
        <time>2014-03-02T08:45:37Z</time>
      </trkpt>
      <trkpt lat="41.626216750" lon="2.521525080">
        <ele>421.00</ele>
        <time>2014-03-02T08:45:38Z</time>
      </trkpt>
      <trkpt lat="41.626225130" lon="2.521510160">
        <ele>421.20</ele>
        <time>2014-03-02T08:45:39Z</time>
      </trkpt>
      <trkpt lat="41.626231670" lon="2.521490040">
        <ele>421.30</ele>
        <time>2014-03-02T08:45:40Z</time>
      </trkpt>
      <trkpt lat="41.626236690" lon="2.521471770">
        <ele>421.40</ele>
        <time>2014-03-02T08:45:41Z</time>
      </trkpt>
      <trkpt lat="41.626240050" lon="2.521451820">
        <ele>421.30</ele>
        <time>2014-03-02T08:45:42Z</time>
      </trkpt>
      <trkpt lat="41.626245080" lon="2.521431700">
        <ele>421.30</ele>
        <time>2014-03-02T08:45:43Z</time>
      </trkpt>
      <trkpt lat="41.626248430" lon="2.521410080">
        <ele>421.20</ele>
        <time>2014-03-02T08:45:44Z</time>
      </trkpt>
      <trkpt lat="41.626251780" lon="2.521388450">
        <ele>421.10</ele>
        <time>2014-03-02T08:45:45Z</time>
      </trkpt>
      <trkpt lat="41.626256810" lon="2.521368330">
        <ele>421.70</ele>
        <time>2014-03-02T08:45:46Z</time>
      </trkpt>
      <trkpt lat="41.626263350" lon="2.521350060">
        <ele>422.10</ele>
        <time>2014-03-02T08:45:47Z</time>
      </trkpt>
      <trkpt lat="41.626268380" lon="2.521331790">
        <ele>422.40</ele>
        <time>2014-03-02T08:45:48Z</time>
      </trkpt>
      <trkpt lat="41.626276760" lon="2.521313350">
        <ele>422.50</ele>
        <time>2014-03-02T08:45:49Z</time>
      </trkpt>
      <trkpt lat="41.626283470" lon="2.521296750">
        <ele>422.60</ele>
        <time>2014-03-02T08:45:50Z</time>
      </trkpt>
      <trkpt lat="41.626288490" lon="2.521278480">
        <ele>422.80</ele>
        <time>2014-03-02T08:45:51Z</time>
      </trkpt>
      <trkpt lat="41.626291680" lon="2.521260040">
        <ele>423.00</ele>
        <time>2014-03-02T08:45:52Z</time>
      </trkpt>
      <trkpt lat="41.626296710" lon="2.521241770">
        <ele>423.10</ele>
        <time>2014-03-02T08:45:53Z</time>
      </trkpt>
      <trkpt lat="41.626300060" lon="2.521218470">
        <ele>423.20</ele>
        <time>2014-03-02T08:45:54Z</time>
      </trkpt>
      <trkpt lat="41.626305090" lon="2.521198350">
        <ele>423.40</ele>
        <time>2014-03-02T08:45:55Z</time>
      </trkpt>
      <trkpt lat="41.626308440" lon="2.521176720">
        <ele>423.30</ele>
        <time>2014-03-02T08:45:56Z</time>
      </trkpt>
      <trkpt lat="41.626311800" lon="2.521155100">
        <ele>423.30</ele>
        <time>2014-03-02T08:45:57Z</time>
      </trkpt>
      <trkpt lat="41.626315150" lon="2.521133470">
        <ele>423.30</ele>
        <time>2014-03-02T08:45:58Z</time>
      </trkpt>
      <trkpt lat="41.626318330" lon="2.521113360">
        <ele>423.30</ele>
        <time>2014-03-02T08:45:59Z</time>
      </trkpt>
      <trkpt lat="41.626321690" lon="2.521093410">
        <ele>423.30</ele>
        <time>2014-03-02T08:46:00Z</time>
      </trkpt>
      <trkpt lat="41.626325040" lon="2.521073460">
        <ele>423.10</ele>
        <time>2014-03-02T08:46:01Z</time>
      </trkpt>
      <trkpt lat="41.626328390" lon="2.521051670">
        <ele>423.00</ele>
        <time>2014-03-02T08:46:02Z</time>
      </trkpt>
      <trkpt lat="41.626330070" lon="2.521031720">
        <ele>423.40</ele>
        <time>2014-03-02T08:46:03Z</time>
      </trkpt>
      <trkpt lat="41.626333420" lon="2.521011770">
        <ele>423.70</ele>
        <time>2014-03-02T08:46:04Z</time>
      </trkpt>
      <trkpt lat="41.626335100" lon="2.520991820">
        <ele>423.50</ele>
        <time>2014-03-02T08:46:05Z</time>
      </trkpt>
      <trkpt lat="41.626336770" lon="2.520971700">
        <ele>423.30</ele>
        <time>2014-03-02T08:46:06Z</time>
      </trkpt>
      <trkpt lat="41.626340130" lon="2.520951750">
        <ele>423.10</ele>
        <time>2014-03-02T08:46:07Z</time>
      </trkpt>
      <trkpt lat="41.626343480" lon="2.520935160">
        <ele>423.30</ele>
        <time>2014-03-02T08:46:08Z</time>
      </trkpt>
      <trkpt lat="41.626348340" lon="2.520915040">
        <ele>423.40</ele>
        <time>2014-03-02T08:46:09Z</time>
      </trkpt>
      <trkpt lat="41.626350020" lon="2.520896770">
        <ele>423.30</ele>
        <time>2014-03-02T08:46:10Z</time>
      </trkpt>
      <trkpt lat="41.626351690" lon="2.520878330">
        <ele>423.20</ele>
        <time>2014-03-02T08:46:11Z</time>
      </trkpt>
      <trkpt lat="41.626353370" lon="2.520858380">
        <ele>423.20</ele>
        <time>2014-03-02T08:46:12Z</time>
      </trkpt>
      <trkpt lat="41.626356720" lon="2.520836750">
        <ele>423.60</ele>
        <time>2014-03-02T08:46:13Z</time>
      </trkpt>
      <trkpt lat="41.626361750" lon="2.520816810">
        <ele>423.90</ele>
        <time>2014-03-02T08:46:14Z</time>
      </trkpt>
      <trkpt lat="41.626368460" lon="2.520795010">
        <ele>423.90</ele>
        <time>2014-03-02T08:46:15Z</time>
      </trkpt>
      <trkpt lat="41.626375000" lon="2.520776740">
        <ele>424.00</ele>
        <time>2014-03-02T08:46:16Z</time>
      </trkpt>
      <trkpt lat="41.626383380" lon="2.520758470">
        <ele>424.00</ele>
        <time>2014-03-02T08:46:17Z</time>
      </trkpt>
      <trkpt lat="41.626391760" lon="2.520743380">
        <ele>424.00</ele>
        <time>2014-03-02T08:46:18Z</time>
      </trkpt>
      <trkpt lat="41.626400140" lon="2.520730140">
        <ele>424.00</ele>
        <time>2014-03-02T08:46:19Z</time>
      </trkpt>
      <trkpt lat="41.626411710" lon="2.520720080">
        <ele>424.20</ele>
        <time>2014-03-02T08:46:20Z</time>
      </trkpt>
      <trkpt lat="41.626421770" lon="2.520706670">
        <ele>424.40</ele>
        <time>2014-03-02T08:46:21Z</time>
      </trkpt>
      <trkpt lat="41.626433330" lon="2.520688390">
        <ele>424.70</ele>
        <time>2014-03-02T08:46:22Z</time>
      </trkpt>
      <trkpt lat="41.626446750" lon="2.520666770">
        <ele>425.00</ele>
        <time>2014-03-02T08:46:23Z</time>
      </trkpt>
      <trkpt lat="41.626460160" lon="2.520645140">
        <ele>424.90</ele>
        <time>2014-03-02T08:46:24Z</time>
      </trkpt>
      <trkpt lat="41.626473400" lon="2.520623350">
        <ele>424.70</ele>
        <time>2014-03-02T08:46:25Z</time>
      </trkpt>
      <trkpt lat="41.626486810" lon="2.520600050">
        <ele>424.70</ele>
        <time>2014-03-02T08:46:26Z</time>
      </trkpt>
      <trkpt lat="41.626501730" lon="2.520571720">
        <ele>424.60</ele>
        <time>2014-03-02T08:46:27Z</time>
      </trkpt>
      <trkpt lat="41.626516820" lon="2.520540030">
        <ele>424.60</ele>
        <time>2014-03-02T08:46:28Z</time>
      </trkpt>
      <trkpt lat="41.626531740" lon="2.520505000">
        <ele>424.60</ele>
        <time>2014-03-02T08:46:29Z</time>
      </trkpt>
      <trkpt lat="41.626543470" lon="2.520466780">
        <ele>424.60</ele>
        <time>2014-03-02T08:46:30Z</time>
      </trkpt>
      <trkpt lat="41.626555040" lon="2.520430060">
        <ele>424.70</ele>
        <time>2014-03-02T08:46:31Z</time>
      </trkpt>
      <trkpt lat="41.626561740" lon="2.520391680">
        <ele>424.50</ele>
        <time>2014-03-02T08:46:32Z</time>
      </trkpt>
      <trkpt lat="41.626566770" lon="2.520355130">
        <ele>424.40</ele>
        <time>2014-03-02T08:46:33Z</time>
      </trkpt>
      <trkpt lat="41.626573480" lon="2.520320090">
        <ele>424.40</ele>
        <time>2014-03-02T08:46:34Z</time>
      </trkpt>
      <trkpt lat="41.626585050" lon="2.520286730">
        <ele>424.30</ele>
        <time>2014-03-02T08:46:35Z</time>
      </trkpt>
      <trkpt lat="41.626598460" lon="2.520253370">
        <ele>424.00</ele>
        <time>2014-03-02T08:46:36Z</time>
      </trkpt>
      <trkpt lat="41.626613380" lon="2.520220010">
        <ele>423.80</ele>
        <time>2014-03-02T08:46:37Z</time>
      </trkpt>
      <trkpt lat="41.626630140" lon="2.520186820">
        <ele>423.60</ele>
        <time>2014-03-02T08:46:38Z</time>
      </trkpt>
      <trkpt lat="41.626646740" lon="2.520151790">
        <ele>423.20</ele>
        <time>2014-03-02T08:46:39Z</time>
      </trkpt>
      <trkpt lat="41.626663330" lon="2.520118430">
        <ele>422.80</ele>
        <time>2014-03-02T08:46:40Z</time>
      </trkpt>
      <trkpt lat="41.626681770" lon="2.520078360">
        <ele>423.00</ele>
        <time>2014-03-02T08:46:41Z</time>
      </trkpt>
      <trkpt lat="41.626696690" lon="2.520041810">
        <ele>423.10</ele>
        <time>2014-03-02T08:46:42Z</time>
      </trkpt>
      <trkpt lat="41.626710100" lon="2.520003430">
        <ele>422.80</ele>
        <time>2014-03-02T08:46:43Z</time>
      </trkpt>
      <trkpt lat="41.626721670" lon="2.519971740">
        <ele>422.60</ele>
        <time>2014-03-02T08:46:44Z</time>
      </trkpt>
      <trkpt lat="41.626730050" lon="2.519940060">
        <ele>422.40</ele>
        <time>2014-03-02T08:46:45Z</time>
      </trkpt>
      <trkpt lat="41.626738440" lon="2.519911730">
        <ele>422.50</ele>
        <time>2014-03-02T08:46:46Z</time>
      </trkpt>
      <trkpt lat="41.626746820" lon="2.519883400">
        <ele>422.70</ele>
        <time>2014-03-02T08:46:47Z</time>
      </trkpt>
      <trkpt lat="41.626755030" lon="2.519856740">
        <ele>422.90</ele>
        <time>2014-03-02T08:46:48Z</time>
      </trkpt>
      <trkpt lat="41.626761740" lon="2.519831760">
        <ele>423.10</ele>
        <time>2014-03-02T08:46:49Z</time>
      </trkpt>
      <trkpt lat="41.626766770" lon="2.519808460">
        <ele>423.30</ele>
        <time>2014-03-02T08:46:50Z</time>
      </trkpt>
      <trkpt lat="41.626770120" lon="2.519785160">
        <ele>422.70</ele>
        <time>2014-03-02T08:46:51Z</time>
      </trkpt>
      <trkpt lat="41.626773470" lon="2.519763370">
        <ele>422.40</ele>
        <time>2014-03-02T08:46:52Z</time>
      </trkpt>
      <trkpt lat="41.626773470" lon="2.519740070">
        <ele>422.20</ele>
        <time>2014-03-02T08:46:53Z</time>
      </trkpt>
      <trkpt lat="41.626771800" lon="2.519718440">
        <ele>422.10</ele>
        <time>2014-03-02T08:46:54Z</time>
      </trkpt>
      <trkpt lat="41.626770120" lon="2.519691790">
        <ele>422.00</ele>
        <time>2014-03-02T08:46:55Z</time>
      </trkpt>
      <trkpt lat="41.626770120" lon="2.519663460">
        <ele>422.00</ele>
        <time>2014-03-02T08:46:56Z</time>
      </trkpt>
      <trkpt lat="41.626770120" lon="2.519633450">
        <ele>422.00</ele>
        <time>2014-03-02T08:46:57Z</time>
      </trkpt>
      <trkpt lat="41.626766770" lon="2.519610150">
        <ele>422.00</ele>
        <time>2014-03-02T08:46:58Z</time>
      </trkpt>
      <trkpt lat="41.626761740" lon="2.519586680">
        <ele>421.90</ele>
        <time>2014-03-02T08:46:59Z</time>
      </trkpt>
      <trkpt lat="41.626758380" lon="2.519561700">
        <ele>422.00</ele>
        <time>2014-03-02T08:47:00Z</time>
      </trkpt>
      <trkpt lat="41.626756710" lon="2.519538400">
        <ele>422.10</ele>
        <time>2014-03-02T08:47:01Z</time>
      </trkpt>
      <trkpt lat="41.626753360" lon="2.519515100">
        <ele>422.10</ele>
        <time>2014-03-02T08:47:02Z</time>
      </trkpt>
      <trkpt lat="41.626750000" lon="2.519490120">
        <ele>421.70</ele>
        <time>2014-03-02T08:47:03Z</time>
      </trkpt>
      <trkpt lat="41.626748490" lon="2.519468490">
        <ele>421.40</ele>
        <time>2014-03-02T08:47:04Z</time>
      </trkpt>
      <trkpt lat="41.626748490" lon="2.519445020">
        <ele>421.30</ele>
        <time>2014-03-02T08:47:05Z</time>
      </trkpt>
      <trkpt lat="41.626748490" lon="2.519423400">
        <ele>421.30</ele>
        <time>2014-03-02T08:47:06Z</time>
      </trkpt>
      <trkpt lat="41.626746820" lon="2.519401770">
        <ele>421.40</ele>
        <time>2014-03-02T08:47:07Z</time>
      </trkpt>
      <trkpt lat="41.626746820" lon="2.519380150">
        <ele>421.50</ele>
        <time>2014-03-02T08:47:08Z</time>
      </trkpt>
      <trkpt lat="41.626746820" lon="2.519361710">
        <ele>421.60</ele>
        <time>2014-03-02T08:47:09Z</time>
      </trkpt>
      <trkpt lat="41.626745140" lon="2.519341760">
        <ele>421.90</ele>
        <time>2014-03-02T08:47:10Z</time>
      </trkpt>
      <trkpt lat="41.626741790" lon="2.519318460">
        <ele>422.10</ele>
        <time>2014-03-02T08:47:11Z</time>
      </trkpt>
      <trkpt lat="41.626740110" lon="2.519296660">
        <ele>422.30</ele>
        <time>2014-03-02T08:47:12Z</time>
      </trkpt>
      <trkpt lat="41.626740110" lon="2.519275040">
        <ele>422.60</ele>
        <time>2014-03-02T08:47:13Z</time>
      </trkpt>
      <trkpt lat="41.626738440" lon="2.519253410">
        <ele>422.20</ele>
        <time>2014-03-02T08:47:14Z</time>
      </trkpt>
      <trkpt lat="41.626736760" lon="2.519233460">
        <ele>422.00</ele>
        <time>2014-03-02T08:47:15Z</time>
      </trkpt>
      <trkpt lat="41.626738440" lon="2.519215020">
        <ele>421.80</ele>
        <time>2014-03-02T08:47:16Z</time>
      </trkpt>
      <trkpt lat="41.626736760" lon="2.519193400">
        <ele>422.20</ele>
        <time>2014-03-02T08:47:17Z</time>
      </trkpt>
      <trkpt lat="41.626731730" lon="2.519173450">
        <ele>422.50</ele>
        <time>2014-03-02T08:47:18Z</time>
      </trkpt>
      <trkpt lat="41.626728380" lon="2.519153330">
        <ele>422.90</ele>
        <time>2014-03-02T08:47:19Z</time>
      </trkpt>
      <trkpt lat="41.626726700" lon="2.519135060">
        <ele>423.20</ele>
        <time>2014-03-02T08:47:20Z</time>
      </trkpt>
      <trkpt lat="41.626725020" lon="2.519118460">
        <ele>423.80</ele>
        <time>2014-03-02T08:47:21Z</time>
      </trkpt>
      <trkpt lat="41.626720000" lon="2.519101700">
        <ele>424.30</ele>
        <time>2014-03-02T08:47:22Z</time>
      </trkpt>
      <trkpt lat="41.626715130" lon="2.519080080">
        <ele>424.70</ele>
        <time>2014-03-02T08:47:23Z</time>
      </trkpt>
      <trkpt lat="41.626710100" lon="2.519060130">
        <ele>424.60</ele>
        <time>2014-03-02T08:47:24Z</time>
      </trkpt>
      <trkpt lat="41.626706750" lon="2.519038330">
        <ele>424.50</ele>
        <time>2014-03-02T08:47:25Z</time>
      </trkpt>
      <trkpt lat="41.626700050" lon="2.519016710">
        <ele>424.90</ele>
        <time>2014-03-02T08:47:26Z</time>
      </trkpt>
      <trkpt lat="41.626691660" lon="2.518996760">
        <ele>425.30</ele>
        <time>2014-03-02T08:47:27Z</time>
      </trkpt>
      <trkpt lat="41.626685130" lon="2.518978490">
        <ele>425.50</ele>
        <time>2014-03-02T08:47:28Z</time>
      </trkpt>
      <trkpt lat="41.626676740" lon="2.518958370">
        <ele>425.60</ele>
        <time>2014-03-02T08:47:29Z</time>
      </trkpt>
      <trkpt lat="41.626670040" lon="2.518938420">
        <ele>425.60</ele>
        <time>2014-03-02T08:47:30Z</time>
      </trkpt>
      <trkpt lat="41.626661820" lon="2.518913440">
        <ele>425.40</ele>
        <time>2014-03-02T08:47:31Z</time>
      </trkpt>
      <trkpt lat="41.626651770" lon="2.518886790">
        <ele>425.20</ele>
        <time>2014-03-02T08:47:32Z</time>
      </trkpt>
      <trkpt lat="41.626640030" lon="2.518858460">
        <ele>425.40</ele>
        <time>2014-03-02T08:47:33Z</time>
      </trkpt>
      <trkpt lat="41.626625110" lon="2.518823420">
        <ele>425.40</ele>
        <time>2014-03-02T08:47:34Z</time>
      </trkpt>
      <trkpt lat="41.626611700" lon="2.518786710">
        <ele>425.50</ele>
        <time>2014-03-02T08:47:35Z</time>
      </trkpt>
      <trkpt lat="41.626600130" lon="2.518741780">
        <ele>425.40</ele>
        <time>2014-03-02T08:47:36Z</time>
      </trkpt>
      <trkpt lat="41.626593430" lon="2.518690150">
        <ele>425.30</ele>
        <time>2014-03-02T08:47:37Z</time>
      </trkpt>
      <trkpt lat="41.626593430" lon="2.518633490">
        <ele>424.90</ele>
        <time>2014-03-02T08:47:38Z</time>
      </trkpt>
      <trkpt lat="41.626596780" lon="2.518570120">
        <ele>424.70</ele>
        <time>2014-03-02T08:47:39Z</time>
      </trkpt>
      <trkpt lat="41.626601810" lon="2.518505080">
        <ele>424.20</ele>
        <time>2014-03-02T08:47:40Z</time>
      </trkpt>
      <trkpt lat="41.626605000" lon="2.518438360">
        <ele>423.90</ele>
        <time>2014-03-02T08:47:41Z</time>
      </trkpt>
      <trkpt lat="41.626608350" lon="2.518375160">
        <ele>423.60</ele>
        <time>2014-03-02T08:47:42Z</time>
      </trkpt>
      <trkpt lat="41.626608350" lon="2.518313470">
        <ele>423.90</ele>
        <time>2014-03-02T08:47:43Z</time>
      </trkpt>
      <trkpt lat="41.626608350" lon="2.518258480">
        <ele>424.10</ele>
        <time>2014-03-02T08:47:44Z</time>
      </trkpt>
      <trkpt lat="41.626610020" lon="2.518208360">
        <ele>423.80</ele>
        <time>2014-03-02T08:47:45Z</time>
      </trkpt>
      <trkpt lat="41.626610020" lon="2.518163430">
        <ele>423.60</ele>
        <time>2014-03-02T08:47:46Z</time>
      </trkpt>
      <trkpt lat="41.626608350" lon="2.518123360">
        <ele>423.50</ele>
        <time>2014-03-02T08:47:47Z</time>
      </trkpt>
      <trkpt lat="41.626605000" lon="2.518090000">
        <ele>423.40</ele>
        <time>2014-03-02T08:47:48Z</time>
      </trkpt>
      <trkpt lat="41.626605000" lon="2.518060000">
        <ele>423.30</ele>
        <time>2014-03-02T08:47:49Z</time>
      </trkpt>
      <trkpt lat="41.626603490" lon="2.518031670">
        <ele>423.70</ele>
        <time>2014-03-02T08:47:50Z</time>
      </trkpt>
      <trkpt lat="41.626601810" lon="2.517998470">
        <ele>423.90</ele>
        <time>2014-03-02T08:47:51Z</time>
      </trkpt>
      <trkpt lat="41.626601810" lon="2.517965110">
        <ele>424.30</ele>
        <time>2014-03-02T08:47:52Z</time>
      </trkpt>
      <trkpt lat="41.626603490" lon="2.517930080">
        <ele>424.50</ele>
        <time>2014-03-02T08:47:53Z</time>
      </trkpt>
      <trkpt lat="41.626601810" lon="2.517891690">
        <ele>424.70</ele>
        <time>2014-03-02T08:47:54Z</time>
      </trkpt>
      <trkpt lat="41.626601810" lon="2.517855140">
        <ele>424.40</ele>
        <time>2014-03-02T08:47:55Z</time>
      </trkpt>
      <trkpt lat="41.626600130" lon="2.517818430">
        <ele>424.10</ele>
        <time>2014-03-02T08:47:56Z</time>
      </trkpt>
      <trkpt lat="41.626600130" lon="2.517780040">
        <ele>424.20</ele>
        <time>2014-03-02T08:47:57Z</time>
      </trkpt>
      <trkpt lat="41.626598460" lon="2.517743330">
        <ele>424.30</ele>
        <time>2014-03-02T08:47:58Z</time>
      </trkpt>
      <trkpt lat="41.626598460" lon="2.517708460">
        <ele>424.50</ele>
        <time>2014-03-02T08:47:59Z</time>
      </trkpt>
      <trkpt lat="41.626600130" lon="2.517673420">
        <ele>424.70</ele>
        <time>2014-03-02T08:48:00Z</time>
      </trkpt>
      <trkpt lat="41.626600130" lon="2.517641740">
        <ele>424.90</ele>
        <time>2014-03-02T08:48:01Z</time>
      </trkpt>
      <trkpt lat="41.626601810" lon="2.517611730">
        <ele>425.00</ele>
        <time>2014-03-02T08:48:02Z</time>
      </trkpt>
      <trkpt lat="41.626606670" lon="2.517586760">
        <ele>425.10</ele>
        <time>2014-03-02T08:48:03Z</time>
      </trkpt>
      <trkpt lat="41.626610020" lon="2.517558420">
        <ele>425.00</ele>
        <time>2014-03-02T08:48:04Z</time>
      </trkpt>
      <trkpt lat="41.626613380" lon="2.517525060">
        <ele>424.90</ele>
        <time>2014-03-02T08:48:05Z</time>
      </trkpt>
      <trkpt lat="41.626616730" lon="2.517493380">
        <ele>424.90</ele>
        <time>2014-03-02T08:48:06Z</time>
      </trkpt>
      <trkpt lat="41.626620080" lon="2.517465050">
        <ele>424.80</ele>
        <time>2014-03-02T08:48:07Z</time>
      </trkpt>
      <trkpt lat="41.626625110" lon="2.517438400">
        <ele>424.70</ele>
        <time>2014-03-02T08:48:08Z</time>
      </trkpt>
      <trkpt lat="41.626630140" lon="2.517411740">
        <ele>424.90</ele>
        <time>2014-03-02T08:48:09Z</time>
      </trkpt>
      <trkpt lat="41.626635000" lon="2.517385090">
        <ele>425.10</ele>
        <time>2014-03-02T08:48:10Z</time>
      </trkpt>
      <trkpt lat="41.626640030" lon="2.517363460">
        <ele>425.30</ele>
        <time>2014-03-02T08:48:11Z</time>
      </trkpt>
      <trkpt lat="41.626645060" lon="2.517343340">
        <ele>425.50</ele>
        <time>2014-03-02T08:48:12Z</time>
      </trkpt>
      <trkpt lat="41.626650090" lon="2.517323400">
        <ele>425.70</ele>
        <time>2014-03-02T08:48:13Z</time>
      </trkpt>
      <trkpt lat="41.626655120" lon="2.517300090">
        <ele>425.80</ele>
        <time>2014-03-02T08:48:14Z</time>
      </trkpt>
      <trkpt lat="41.626658470" lon="2.517276790">
        <ele>425.90</ele>
        <time>2014-03-02T08:48:15Z</time>
      </trkpt>
      <trkpt lat="41.626661820" lon="2.517253490">
        <ele>426.50</ele>
        <time>2014-03-02T08:48:16Z</time>
      </trkpt>
      <trkpt lat="41.626663330" lon="2.517226670">
        <ele>427.00</ele>
        <time>2014-03-02T08:48:17Z</time>
      </trkpt>
      <trkpt lat="41.626666690" lon="2.517200010">
        <ele>426.90</ele>
        <time>2014-03-02T08:48:18Z</time>
      </trkpt>
      <trkpt lat="41.626670040" lon="2.517175040">
        <ele>426.80</ele>
        <time>2014-03-02T08:48:19Z</time>
      </trkpt>
      <trkpt lat="41.626673390" lon="2.517150060">
        <ele>426.70</ele>
        <time>2014-03-02T08:48:20Z</time>
      </trkpt>
      <trkpt lat="41.626676740" lon="2.517123400">
        <ele>426.70</ele>
        <time>2014-03-02T08:48:21Z</time>
      </trkpt>
      <trkpt lat="41.626681770" lon="2.517098430">
        <ele>426.70</ele>
        <time>2014-03-02T08:48:22Z</time>
      </trkpt>
      <trkpt lat="41.626685130" lon="2.517075120">
        <ele>426.80</ele>
        <time>2014-03-02T08:48:23Z</time>
      </trkpt>
      <trkpt lat="41.626688480" lon="2.517048470">
        <ele>426.90</ele>
        <time>2014-03-02T08:48:24Z</time>
      </trkpt>
      <trkpt lat="41.626690160" lon="2.517021810">
        <ele>427.00</ele>
        <time>2014-03-02T08:48:25Z</time>
      </trkpt>
      <trkpt lat="41.626691660" lon="2.516996670">
        <ele>427.20</ele>
        <time>2014-03-02T08:48:26Z</time>
      </trkpt>
      <trkpt lat="41.626691660" lon="2.516970010">
        <ele>427.40</ele>
        <time>2014-03-02T08:48:27Z</time>
      </trkpt>
      <trkpt lat="41.626693340" lon="2.516943360">
        <ele>427.60</ele>
        <time>2014-03-02T08:48:28Z</time>
      </trkpt>
      <trkpt lat="41.626695020" lon="2.516916710">
        <ele>427.80</ele>
        <time>2014-03-02T08:48:29Z</time>
      </trkpt>
      <trkpt lat="41.626696690" lon="2.516891730">
        <ele>428.00</ele>
        <time>2014-03-02T08:48:30Z</time>
      </trkpt>
      <trkpt lat="41.626698370" lon="2.516866750">
        <ele>428.10</ele>
        <time>2014-03-02T08:48:31Z</time>
      </trkpt>
      <trkpt lat="41.626703400" lon="2.516843450">
        <ele>428.20</ele>
        <time>2014-03-02T08:48:32Z</time>
      </trkpt>
      <trkpt lat="41.626710100" lon="2.516820150">
        <ele>428.50</ele>
        <time>2014-03-02T08:48:33Z</time>
      </trkpt>
      <trkpt lat="41.626713460" lon="2.516791820">
        <ele>428.80</ele>
        <time>2014-03-02T08:48:34Z</time>
      </trkpt>
      <trkpt lat="41.626716810" lon="2.516756780">
        <ele>428.50</ele>
        <time>2014-03-02T08:48:35Z</time>
      </trkpt>
      <trkpt lat="41.626718490" lon="2.516723420">
        <ele>428.30</ele>
        <time>2014-03-02T08:48:36Z</time>
      </trkpt>
      <trkpt lat="41.626721670" lon="2.516695090">
        <ele>428.60</ele>
        <time>2014-03-02T08:48:37Z</time>
      </trkpt>
      <trkpt lat="41.626725020" lon="2.516666760">
        <ele>428.80</ele>
        <time>2014-03-02T08:48:38Z</time>
      </trkpt>
      <trkpt lat="41.626728380" lon="2.516640100">
        <ele>429.00</ele>
        <time>2014-03-02T08:48:39Z</time>
      </trkpt>
      <trkpt lat="41.626731730" lon="2.516615130">
        <ele>429.10</ele>
        <time>2014-03-02T08:48:40Z</time>
      </trkpt>
      <trkpt lat="41.626736760" lon="2.516588470">
        <ele>429.10</ele>
        <time>2014-03-02T08:48:41Z</time>
      </trkpt>
      <trkpt lat="41.626741790" lon="2.516561820">
        <ele>429.00</ele>
        <time>2014-03-02T08:48:42Z</time>
      </trkpt>
      <trkpt lat="41.626745140" lon="2.516530130">
        <ele>429.00</ele>
        <time>2014-03-02T08:48:43Z</time>
      </trkpt>
      <trkpt lat="41.626751680" lon="2.516496770">
        <ele>428.90</ele>
        <time>2014-03-02T08:48:44Z</time>
      </trkpt>
      <trkpt lat="41.626758380" lon="2.516465090">
        <ele>429.20</ele>
        <time>2014-03-02T08:48:45Z</time>
      </trkpt>
      <trkpt lat="41.626766770" lon="2.516435080">
        <ele>429.30</ele>
        <time>2014-03-02T08:48:46Z</time>
      </trkpt>
      <trkpt lat="41.626773470" lon="2.516406750">
        <ele>429.20</ele>
        <time>2014-03-02T08:48:47Z</time>
      </trkpt>
      <trkpt lat="41.626778330" lon="2.516380100">
        <ele>429.10</ele>
        <time>2014-03-02T08:48:48Z</time>
      </trkpt>
      <trkpt lat="41.626781690" lon="2.516353440">
        <ele>429.30</ele>
        <time>2014-03-02T08:48:49Z</time>
      </trkpt>
      <trkpt lat="41.626785040" lon="2.516326790">
        <ele>429.40</ele>
        <time>2014-03-02T08:48:50Z</time>
      </trkpt>
      <trkpt lat="41.626791740" lon="2.516296780">
        <ele>429.50</ele>
        <time>2014-03-02T08:48:51Z</time>
      </trkpt>
      <trkpt lat="41.626798450" lon="2.516265100">
        <ele>430.00</ele>
        <time>2014-03-02T08:48:52Z</time>
      </trkpt>
      <trkpt lat="41.626803480" lon="2.516236770">
        <ele>430.40</ele>
        <time>2014-03-02T08:48:53Z</time>
      </trkpt>
      <trkpt lat="41.626808340" lon="2.516210110">
        <ele>430.40</ele>
        <time>2014-03-02T08:48:54Z</time>
      </trkpt>
      <trkpt lat="41.626813370" lon="2.516185130">
        <ele>430.40</ele>
        <time>2014-03-02T08:48:55Z</time>
      </trkpt>
      <trkpt lat="41.626816720" lon="2.516158480">
        <ele>430.70</ele>
        <time>2014-03-02T08:48:56Z</time>
      </trkpt>
      <trkpt lat="41.626818400" lon="2.516130150">
        <ele>430.90</ele>
        <time>2014-03-02T08:48:57Z</time>
      </trkpt>
      <trkpt lat="41.626821750" lon="2.516100140">
        <ele>431.10</ele>
        <time>2014-03-02T08:48:58Z</time>
      </trkpt>
      <trkpt lat="41.626823430" lon="2.516070130">
        <ele>431.20</ele>
        <time>2014-03-02T08:48:59Z</time>
      </trkpt>
      <trkpt lat="41.626828460" lon="2.516041800">
        <ele>431.30</ele>
        <time>2014-03-02T08:49:00Z</time>
      </trkpt>
      <trkpt lat="41.626833490" lon="2.516016820">
        <ele>431.70</ele>
        <time>2014-03-02T08:49:01Z</time>
      </trkpt>
      <trkpt lat="41.626840020" lon="2.515988490">
        <ele>432.00</ele>
        <time>2014-03-02T08:49:02Z</time>
      </trkpt>
      <trkpt lat="41.626848410" lon="2.515958490">
        <ele>432.30</ele>
        <time>2014-03-02T08:49:03Z</time>
      </trkpt>
      <trkpt lat="41.626855110" lon="2.515926800">
        <ele>432.30</ele>
        <time>2014-03-02T08:49:04Z</time>
      </trkpt>
      <trkpt lat="41.626861820" lon="2.515898470">
        <ele>432.30</ele>
        <time>2014-03-02T08:49:05Z</time>
      </trkpt>
      <trkpt lat="41.626871710" lon="2.515873490">
        <ele>432.60</ele>
        <time>2014-03-02T08:49:06Z</time>
      </trkpt>
      <trkpt lat="41.626883440" lon="2.515850020">
        <ele>432.80</ele>
        <time>2014-03-02T08:49:07Z</time>
      </trkpt>
      <trkpt lat="41.626895010" lon="2.515825050">
        <ele>433.00</ele>
        <time>2014-03-02T08:49:08Z</time>
      </trkpt>
      <trkpt lat="41.626910100" lon="2.515801750">
        <ele>433.10</ele>
        <time>2014-03-02T08:49:09Z</time>
      </trkpt>
      <trkpt lat="41.626923340" lon="2.515778440">
        <ele>433.20</ele>
        <time>2014-03-02T08:49:10Z</time>
      </trkpt>
      <trkpt lat="41.626938430" lon="2.515756820">
        <ele>433.50</ele>
        <time>2014-03-02T08:49:11Z</time>
      </trkpt>
      <trkpt lat="41.626955020" lon="2.515733350">
        <ele>433.70</ele>
        <time>2014-03-02T08:49:12Z</time>
      </trkpt>
      <trkpt lat="41.626970110" lon="2.515713400">
        <ele>433.90</ele>
        <time>2014-03-02T08:49:13Z</time>
      </trkpt>
      <trkpt lat="41.626986710" lon="2.515693450">
        <ele>434.00</ele>
        <time>2014-03-02T08:49:14Z</time>
      </trkpt>
      <trkpt lat="41.627000120" lon="2.515670150">
        <ele>434.10</ele>
        <time>2014-03-02T08:49:15Z</time>
      </trkpt>
      <trkpt lat="41.627013360" lon="2.515650030">
        <ele>434.30</ele>
        <time>2014-03-02T08:49:16Z</time>
      </trkpt>
      <trkpt lat="41.627028450" lon="2.515631760">
        <ele>434.40</ele>
        <time>2014-03-02T08:49:17Z</time>
      </trkpt>
      <trkpt lat="41.627046720" lon="2.515610130">
        <ele>434.70</ele>
        <time>2014-03-02T08:49:18Z</time>
      </trkpt>
      <trkpt lat="41.627061810" lon="2.515588340">
        <ele>434.90</ele>
        <time>2014-03-02T08:49:19Z</time>
      </trkpt>
      <trkpt lat="41.627078410" lon="2.515568390">
        <ele>435.30</ele>
        <time>2014-03-02T08:49:20Z</time>
      </trkpt>
      <trkpt lat="41.627091820" lon="2.515546770">
        <ele>435.70</ele>
        <time>2014-03-02T08:49:21Z</time>
      </trkpt>
      <trkpt lat="41.627105060" lon="2.515525140">
        <ele>435.90</ele>
        <time>2014-03-02T08:49:22Z</time>
      </trkpt>
      <trkpt lat="41.627116790" lon="2.515503350">
        <ele>435.70</ele>
        <time>2014-03-02T08:49:23Z</time>
      </trkpt>
      <trkpt lat="41.627128360" lon="2.515483400">
        <ele>435.50</ele>
        <time>2014-03-02T08:49:24Z</time>
      </trkpt>
      <trkpt lat="41.627141770" lon="2.515468480">
        <ele>435.90</ele>
        <time>2014-03-02T08:49:25Z</time>
      </trkpt>
      <trkpt lat="41.627155020" lon="2.515456750">
        <ele>436.20</ele>
        <time>2014-03-02T08:49:26Z</time>
      </trkpt>
      <trkpt lat="41.627165070" lon="2.515441830">
        <ele>436.20</ele>
        <time>2014-03-02T08:49:27Z</time>
      </trkpt>
      <trkpt lat="41.627175130" lon="2.515425060">
        <ele>436.20</ele>
        <time>2014-03-02T08:49:28Z</time>
      </trkpt>
      <trkpt lat="41.627185020" lon="2.515408470">
        <ele>436.20</ele>
        <time>2014-03-02T08:49:29Z</time>
      </trkpt>
      <trkpt lat="41.627196760" lon="2.515391700">
        <ele>436.60</ele>
        <time>2014-03-02T08:49:30Z</time>
      </trkpt>
      <trkpt lat="41.627208490" lon="2.515376780">
        <ele>436.80</ele>
        <time>2014-03-02T08:49:31Z</time>
      </trkpt>
      <trkpt lat="41.627220060" lon="2.515363370">
        <ele>437.00</ele>
        <time>2014-03-02T08:49:32Z</time>
      </trkpt>
      <trkpt lat="41.627230120" lon="2.515348450">
        <ele>437.20</ele>
        <time>2014-03-02T08:49:33Z</time>
      </trkpt>
      <trkpt lat="41.627241680" lon="2.515333360">
        <ele>437.70</ele>
        <time>2014-03-02T08:49:34Z</time>
      </trkpt>
      <trkpt lat="41.627250070" lon="2.515318440">
        <ele>438.00</ele>
        <time>2014-03-02T08:49:35Z</time>
      </trkpt>
      <trkpt lat="41.627258450" lon="2.515303360">
        <ele>438.30</ele>
        <time>2014-03-02T08:49:36Z</time>
      </trkpt>
      <trkpt lat="41.627266660" lon="2.515290110">
        <ele>438.50</ele>
        <time>2014-03-02T08:49:37Z</time>
      </trkpt>
      <trkpt lat="41.627275040" lon="2.515276700">
        <ele>438.60</ele>
        <time>2014-03-02T08:49:38Z</time>
      </trkpt>
      <trkpt lat="41.627285100" lon="2.515260110">
        <ele>438.50</ele>
        <time>2014-03-02T08:49:39Z</time>
      </trkpt>
      <trkpt lat="41.627296670" lon="2.515240160">
        <ele>438.50</ele>
        <time>2014-03-02T08:49:40Z</time>
      </trkpt>
      <trkpt lat="41.627306730" lon="2.515221720">
        <ele>438.70</ele>
        <time>2014-03-02T08:49:41Z</time>
      </trkpt>
      <trkpt lat="41.627318460" lon="2.515203440">
        <ele>438.90</ele>
        <time>2014-03-02T08:49:42Z</time>
      </trkpt>
      <trkpt lat="41.627328350" lon="2.515186680">
        <ele>439.10</ele>
        <time>2014-03-02T08:49:43Z</time>
      </trkpt>
      <trkpt lat="41.627338410" lon="2.515170080">
        <ele>439.20</ele>
        <time>2014-03-02T08:49:44Z</time>
      </trkpt>
      <trkpt lat="41.627348470" lon="2.515153490">
        <ele>439.20</ele>
        <time>2014-03-02T08:49:45Z</time>
      </trkpt>
      <trkpt lat="41.627356680" lon="2.515136720">
        <ele>439.90</ele>
        <time>2014-03-02T08:49:46Z</time>
      </trkpt>
      <trkpt lat="41.627365070" lon="2.515120130">
        <ele>440.30</ele>
        <time>2014-03-02T08:49:47Z</time>
      </trkpt>
      <trkpt lat="41.627373450" lon="2.515101690">
        <ele>440.70</ele>
        <time>2014-03-02T08:49:48Z</time>
      </trkpt>
      <trkpt lat="41.627381660" lon="2.515083420">
        <ele>440.50</ele>
        <time>2014-03-02T08:49:49Z</time>
      </trkpt>
      <trkpt lat="41.627390040" lon="2.515063470">
        <ele>440.40</ele>
        <time>2014-03-02T08:49:50Z</time>
      </trkpt>
      <trkpt lat="41.627396750" lon="2.515045030">
        <ele>440.80</ele>
        <time>2014-03-02T08:49:51Z</time>
      </trkpt>
      <trkpt lat="41.627405130" lon="2.515026750">
        <ele>441.20</ele>
        <time>2014-03-02T08:49:52Z</time>
      </trkpt>
      <trkpt lat="41.627413350" lon="2.515008480">
        <ele>441.20</ele>
        <time>2014-03-02T08:49:53Z</time>
      </trkpt>
      <trkpt lat="41.627420050" lon="2.514988370">
        <ele>441.20</ele>
        <time>2014-03-02T08:49:54Z</time>
      </trkpt>
      <trkpt lat="41.627426760" lon="2.514968420">
        <ele>441.30</ele>
        <time>2014-03-02T08:49:55Z</time>
      </trkpt>
      <trkpt lat="41.627433460" lon="2.514946790">
        <ele>441.60</ele>
        <time>2014-03-02T08:49:56Z</time>
      </trkpt>
      <trkpt lat="41.627440000" lon="2.514928350">
        <ele>441.80</ele>
        <time>2014-03-02T08:49:57Z</time>
      </trkpt>
      <trkpt lat="41.627445030" lon="2.514913430">
        <ele>442.20</ele>
        <time>2014-03-02T08:49:58Z</time>
      </trkpt>
      <trkpt lat="41.627453410" lon="2.514895160">
        <ele>442.60</ele>
        <time>2014-03-02T08:49:59Z</time>
      </trkpt>
      <trkpt lat="41.627460120" lon="2.514873370">
        <ele>442.80</ele>
        <time>2014-03-02T08:50:00Z</time>
      </trkpt>
      <trkpt lat="41.627466820" lon="2.514845030">
        <ele>443.10</ele>
        <time>2014-03-02T08:50:01Z</time>
      </trkpt>
      <trkpt lat="41.627473360" lon="2.514820060">
        <ele>443.30</ele>
        <time>2014-03-02T08:50:02Z</time>
      </trkpt>
      <trkpt lat="41.627478390" lon="2.514795080">
        <ele>443.70</ele>
        <time>2014-03-02T08:50:03Z</time>
      </trkpt>
      <trkpt lat="41.627485100" lon="2.514770100">
        <ele>444.10</ele>
        <time>2014-03-02T08:50:04Z</time>
      </trkpt>
      <trkpt lat="41.627490120" lon="2.514746800">
        <ele>444.20</ele>
        <time>2014-03-02T08:50:05Z</time>
      </trkpt>
      <trkpt lat="41.627495150" lon="2.514721820">
        <ele>444.20</ele>
        <time>2014-03-02T08:50:06Z</time>
      </trkpt>
      <trkpt lat="41.627496660" lon="2.514698350">
        <ele>444.30</ele>
        <time>2014-03-02T08:50:07Z</time>
      </trkpt>
      <trkpt lat="41.627501690" lon="2.514675050">
        <ele>444.50</ele>
        <time>2014-03-02T08:50:08Z</time>
      </trkpt>
      <trkpt lat="41.627505040" lon="2.514650070">
        <ele>444.60</ele>
        <time>2014-03-02T08:50:09Z</time>
      </trkpt>
      <trkpt lat="41.627506720" lon="2.514628450">
        <ele>444.40</ele>
        <time>2014-03-02T08:50:10Z</time>
      </trkpt>
      <trkpt lat="41.627510070" lon="2.514608330">
        <ele>444.30</ele>
        <time>2014-03-02T08:50:11Z</time>
      </trkpt>
      <trkpt lat="41.627510070" lon="2.514590060">
        <ele>444.30</ele>
        <time>2014-03-02T08:50:12Z</time>
      </trkpt>
      <trkpt lat="41.627513430" lon="2.514568430">
        <ele>444.20</ele>
        <time>2014-03-02T08:50:13Z</time>
      </trkpt>
      <trkpt lat="41.627518460" lon="2.514541780">
        <ele>444.20</ele>
        <time>2014-03-02T08:50:14Z</time>
      </trkpt>
      <trkpt lat="41.627520130" lon="2.514515120">
        <ele>444.30</ele>
        <time>2014-03-02T08:50:15Z</time>
      </trkpt>
      <trkpt lat="41.627521810" lon="2.514486790">
        <ele>444.30</ele>
        <time>2014-03-02T08:50:16Z</time>
      </trkpt>
      <trkpt lat="41.627521810" lon="2.514461810">
        <ele>444.70</ele>
        <time>2014-03-02T08:50:17Z</time>
      </trkpt>
      <trkpt lat="41.627520130" lon="2.514438340">
        <ele>445.10</ele>
        <time>2014-03-02T08:50:18Z</time>
      </trkpt>
      <trkpt lat="41.627520130" lon="2.514415040">
        <ele>445.30</ele>
        <time>2014-03-02T08:50:19Z</time>
      </trkpt>
      <trkpt lat="41.627518460" lon="2.514393420">
        <ele>445.30</ele>
        <time>2014-03-02T08:50:20Z</time>
      </trkpt>
      <trkpt lat="41.627516780" lon="2.514373470">
        <ele>445.40</ele>
        <time>2014-03-02T08:50:21Z</time>
      </trkpt>
      <trkpt lat="41.627515100" lon="2.514350000">
        <ele>445.60</ele>
        <time>2014-03-02T08:50:22Z</time>
      </trkpt>
      <trkpt lat="41.627511750" lon="2.514328370">
        <ele>445.80</ele>
        <time>2014-03-02T08:50:23Z</time>
      </trkpt>
      <trkpt lat="41.627506720" lon="2.514306750">
        <ele>445.90</ele>
        <time>2014-03-02T08:50:24Z</time>
      </trkpt>
      <trkpt lat="41.627503370" lon="2.514285120">
        <ele>445.90</ele>
        <time>2014-03-02T08:50:25Z</time>
      </trkpt>
      <trkpt lat="41.627500010" lon="2.514265010">
        <ele>445.90</ele>
        <time>2014-03-02T08:50:26Z</time>
      </trkpt>
      <trkpt lat="41.627495150" lon="2.514245060">
        <ele>445.90</ele>
        <time>2014-03-02T08:50:27Z</time>
      </trkpt>
      <trkpt lat="41.627490120" lon="2.514221760">
        <ele>445.90</ele>
        <time>2014-03-02T08:50:28Z</time>
      </trkpt>
      <trkpt lat="41.627485100" lon="2.514198450">
        <ele>446.10</ele>
        <time>2014-03-02T08:50:29Z</time>
      </trkpt>
      <trkpt lat="41.627483420" lon="2.514176660">
        <ele>446.30</ele>
        <time>2014-03-02T08:50:30Z</time>
      </trkpt>
      <trkpt lat="41.627478390" lon="2.514155040">
        <ele>446.40</ele>
        <time>2014-03-02T08:50:31Z</time>
      </trkpt>
      <trkpt lat="41.627476710" lon="2.514135090">
        <ele>446.40</ele>
        <time>2014-03-02T08:50:32Z</time>
      </trkpt>
      <trkpt lat="41.627475040" lon="2.514115140">
        <ele>446.50</ele>
        <time>2014-03-02T08:50:33Z</time>
      </trkpt>
      <trkpt lat="41.627473360" lon="2.514095020">
        <ele>446.60</ele>
        <time>2014-03-02T08:50:34Z</time>
      </trkpt>
      <trkpt lat="41.627470010" lon="2.514076750">
        <ele>446.70</ele>
        <time>2014-03-02T08:50:35Z</time>
      </trkpt>
      <trkpt lat="41.627468330" lon="2.514055120">
        <ele>447.40</ele>
        <time>2014-03-02T08:50:36Z</time>
      </trkpt>
      <trkpt lat="41.627466820" lon="2.514033330">
        <ele>447.90</ele>
        <time>2014-03-02T08:50:37Z</time>
      </trkpt>
      <trkpt lat="41.627465150" lon="2.514008350">
        <ele>448.00</ele>
        <time>2014-03-02T08:50:38Z</time>
      </trkpt>
      <trkpt lat="41.627463470" lon="2.513985050">
        <ele>448.10</ele>
        <time>2014-03-02T08:50:39Z</time>
      </trkpt>
      <trkpt lat="41.627460120" lon="2.513958400">
        <ele>448.20</ele>
        <time>2014-03-02T08:50:40Z</time>
      </trkpt>
      <trkpt lat="41.627455090" lon="2.513933420">
        <ele>448.10</ele>
        <time>2014-03-02T08:50:41Z</time>
      </trkpt>
      <trkpt lat="41.627451740" lon="2.513910120">
        <ele>448.10</ele>
        <time>2014-03-02T08:50:42Z</time>
      </trkpt>
      <trkpt lat="41.627446710" lon="2.513888490">
        <ele>448.60</ele>
        <time>2014-03-02T08:50:43Z</time>
      </trkpt>
      <trkpt lat="41.627440000" lon="2.513865020">
        <ele>448.90</ele>
        <time>2014-03-02T08:50:44Z</time>
      </trkpt>
      <trkpt lat="41.627433460" lon="2.513845070">
        <ele>449.20</ele>
        <time>2014-03-02T08:50:45Z</time>
      </trkpt>
      <trkpt lat="41.627423400" lon="2.513823450">
        <ele>449.20</ele>
        <time>2014-03-02T08:50:46Z</time>
      </trkpt>
      <trkpt lat="41.627411670" lon="2.513801820">
        <ele>449.20</ele>
        <time>2014-03-02T08:50:47Z</time>
      </trkpt>
      <trkpt lat="41.627403460" lon="2.513780030">
        <ele>449.30</ele>
        <time>2014-03-02T08:50:48Z</time>
      </trkpt>
      <trkpt lat="41.627393400" lon="2.513756730">
        <ele>449.40</ele>
        <time>2014-03-02T08:50:49Z</time>
      </trkpt>
      <trkpt lat="41.627380150" lon="2.513736780">
        <ele>449.60</ele>
        <time>2014-03-02T08:50:50Z</time>
      </trkpt>
      <trkpt lat="41.627368420" lon="2.513720020">
        <ele>449.70</ele>
        <time>2014-03-02T08:50:51Z</time>
      </trkpt>
      <trkpt lat="41.627355010" lon="2.513701740">
        <ele>449.80</ele>
        <time>2014-03-02T08:50:52Z</time>
      </trkpt>
      <trkpt lat="41.627341760" lon="2.513685150">
        <ele>450.00</ele>
        <time>2014-03-02T08:50:53Z</time>
      </trkpt>
      <trkpt lat="41.627328350" lon="2.513668380">
        <ele>450.20</ele>
        <time>2014-03-02T08:50:54Z</time>
      </trkpt>
      <trkpt lat="41.627318460" lon="2.513650110">
        <ele>450.10</ele>
        <time>2014-03-02T08:50:55Z</time>
      </trkpt>
      <trkpt lat="41.627308400" lon="2.513631670">
        <ele>450.10</ele>
        <time>2014-03-02T08:50:56Z</time>
      </trkpt>
      <trkpt lat="41.627300020" lon="2.513613400">
        <ele>450.20</ele>
        <time>2014-03-02T08:50:57Z</time>
      </trkpt>
      <trkpt lat="41.627295160" lon="2.513593450">
        <ele>450.30</ele>
        <time>2014-03-02T08:50:58Z</time>
      </trkpt>
      <trkpt lat="41.627286780" lon="2.513573330">
        <ele>450.40</ele>
        <time>2014-03-02T08:50:59Z</time>
      </trkpt>
      <trkpt lat="41.627280070" lon="2.513553380">
        <ele>450.70</ele>
        <time>2014-03-02T08:51:00Z</time>
      </trkpt>
      <trkpt lat="41.627268340" lon="2.513526730">
        <ele>450.90</ele>
        <time>2014-03-02T08:51:01Z</time>
      </trkpt>
      <trkpt lat="41.627258450" lon="2.513495050">
        <ele>451.30</ele>
        <time>2014-03-02T08:51:02Z</time>
      </trkpt>
      <trkpt lat="41.627245040" lon="2.513458330">
        <ele>451.50</ele>
        <time>2014-03-02T08:51:03Z</time>
      </trkpt>
      <trkpt lat="41.627233470" lon="2.513418430">
        <ele>451.80</ele>
        <time>2014-03-02T08:51:04Z</time>
      </trkpt>
      <trkpt lat="41.627216710" lon="2.513378370">
        <ele>451.90</ele>
        <time>2014-03-02T08:51:05Z</time>
      </trkpt>
      <trkpt lat="41.627195080" lon="2.513336800">
        <ele>451.90</ele>
        <time>2014-03-02T08:51:06Z</time>
      </trkpt>
      <trkpt lat="41.627173460" lon="2.513291700">
        <ele>451.80</ele>
        <time>2014-03-02T08:51:07Z</time>
      </trkpt>
      <trkpt lat="41.627146800" lon="2.513245100">
        <ele>451.70</ele>
        <time>2014-03-02T08:51:08Z</time>
      </trkpt>
      <trkpt lat="41.627118470" lon="2.513196820">
        <ele>451.60</ele>
        <time>2014-03-02T08:51:09Z</time>
      </trkpt>
      <trkpt lat="41.627090140" lon="2.513150050">
        <ele>451.60</ele>
        <time>2014-03-02T08:51:10Z</time>
      </trkpt>
      <trkpt lat="41.627055100" lon="2.513106800">
        <ele>451.50</ele>
        <time>2014-03-02T08:51:11Z</time>
      </trkpt>
      <trkpt lat="41.627016710" lon="2.513070080">
        <ele>451.00</ele>
        <time>2014-03-02T08:51:12Z</time>
      </trkpt>
      <trkpt lat="41.626973460" lon="2.513041750">
        <ele>450.60</ele>
        <time>2014-03-02T08:51:13Z</time>
      </trkpt>
      <trkpt lat="41.626925020" lon="2.513021800">
        <ele>450.80</ele>
        <time>2014-03-02T08:51:14Z</time>
      </trkpt>
      <trkpt lat="41.626875060" lon="2.513008390">
        <ele>450.90</ele>
        <time>2014-03-02T08:51:15Z</time>
      </trkpt>
      <trkpt lat="41.626821750" lon="2.512998330">
        <ele>450.40</ele>
        <time>2014-03-02T08:51:16Z</time>
      </trkpt>
      <trkpt lat="41.626770120" lon="2.512986770">
        <ele>449.90</ele>
        <time>2014-03-02T08:51:17Z</time>
      </trkpt>
      <trkpt lat="41.626716810" lon="2.512978380">
        <ele>449.60</ele>
        <time>2014-03-02T08:51:18Z</time>
      </trkpt>
      <trkpt lat="41.626665010" lon="2.512973360">
        <ele>449.60</ele>
        <time>2014-03-02T08:51:19Z</time>
      </trkpt>
      <trkpt lat="41.626616730" lon="2.512976710">
        <ele>449.50</ele>
        <time>2014-03-02T08:51:20Z</time>
      </trkpt>
      <trkpt lat="41.626570130" lon="2.512986770">
        <ele>449.20</ele>
        <time>2014-03-02T08:51:21Z</time>
      </trkpt>
      <trkpt lat="41.626525030" lon="2.512988440">
        <ele>448.90</ele>
        <time>2014-03-02T08:51:22Z</time>
      </trkpt>
      <trkpt lat="41.626485130" lon="2.512971680">
        <ele>448.70</ele>
        <time>2014-03-02T08:51:23Z</time>
      </trkpt>
      <trkpt lat="41.626451770" lon="2.512936810">
        <ele>448.60</ele>
        <time>2014-03-02T08:51:24Z</time>
      </trkpt>
      <trkpt lat="41.626430150" lon="2.512888360">
        <ele>448.50</ele>
        <time>2014-03-02T08:51:25Z</time>
      </trkpt>
      <trkpt lat="41.626420090" lon="2.512833380">
        <ele>448.20</ele>
        <time>2014-03-02T08:51:26Z</time>
      </trkpt>
      <trkpt lat="41.626420090" lon="2.512771690">
        <ele>447.90</ele>
        <time>2014-03-02T08:51:27Z</time>
      </trkpt>
      <trkpt lat="41.626421770" lon="2.512701780">
        <ele>447.80</ele>
        <time>2014-03-02T08:51:28Z</time>
      </trkpt>
      <trkpt lat="41.626420090" lon="2.512638410">
        <ele>447.60</ele>
        <time>2014-03-02T08:51:29Z</time>
      </trkpt>
      <trkpt lat="41.626415060" lon="2.512571690">
        <ele>447.60</ele>
        <time>2014-03-02T08:51:30Z</time>
      </trkpt>
      <trkpt lat="41.626410030" lon="2.512505140">
        <ele>447.20</ele>
        <time>2014-03-02T08:51:31Z</time>
      </trkpt>
      <trkpt lat="41.626401820" lon="2.512438420">
        <ele>447.00</ele>
        <time>2014-03-02T08:51:32Z</time>
      </trkpt>
      <trkpt lat="41.626390080" lon="2.512368350">
        <ele>446.50</ele>
        <time>2014-03-02T08:51:33Z</time>
      </trkpt>
      <trkpt lat="41.626373490" lon="2.512305150">
        <ele>446.20</ele>
        <time>2014-03-02T08:51:34Z</time>
      </trkpt>
      <trkpt lat="41.626356720" lon="2.512248490">
        <ele>445.60</ele>
        <time>2014-03-02T08:51:35Z</time>
      </trkpt>
      <trkpt lat="41.626340130" lon="2.512191830">
        <ele>445.20</ele>
        <time>2014-03-02T08:51:36Z</time>
      </trkpt>
      <trkpt lat="41.626320010" lon="2.512126780">
        <ele>444.90</ele>
        <time>2014-03-02T08:51:37Z</time>
      </trkpt>
      <trkpt lat="41.626305090" lon="2.512053360">
        <ele>444.60</ele>
        <time>2014-03-02T08:51:38Z</time>
      </trkpt>
      <trkpt lat="41.626278440" lon="2.511980100">
        <ele>444.30</ele>
        <time>2014-03-02T08:51:39Z</time>
      </trkpt>
      <trkpt lat="41.626246750" lon="2.511911700">
        <ele>443.50</ele>
        <time>2014-03-02T08:51:40Z</time>
      </trkpt>
      <trkpt lat="41.626205010" lon="2.511853370">
        <ele>442.90</ele>
        <time>2014-03-02T08:51:41Z</time>
      </trkpt>
      <trkpt lat="41.626158410" lon="2.511810120">
        <ele>442.50</ele>
        <time>2014-03-02T08:51:42Z</time>
      </trkpt>
      <trkpt lat="41.626113480" lon="2.511785140">
        <ele>442.40</ele>
        <time>2014-03-02T08:51:43Z</time>
      </trkpt>
      <trkpt lat="41.626063360" lon="2.511775080">
        <ele>442.30</ele>
        <time>2014-03-02T08:51:44Z</time>
      </trkpt>
      <trkpt lat="41.626011720" lon="2.511758480">
        <ele>441.50</ele>
        <time>2014-03-02T08:51:45Z</time>
      </trkpt>
      <trkpt lat="41.625965120" lon="2.511733340">
        <ele>440.80</ele>
        <time>2014-03-02T08:51:46Z</time>
      </trkpt>
      <trkpt lat="41.625925060" lon="2.511696790">
        <ele>439.70</ele>
        <time>2014-03-02T08:51:47Z</time>
      </trkpt>
      <trkpt lat="41.625893370" lon="2.511650020">
        <ele>438.80</ele>
        <time>2014-03-02T08:51:48Z</time>
      </trkpt>
      <trkpt lat="41.625878450" lon="2.511591680">
        <ele>438.20</ele>
        <time>2014-03-02T08:51:49Z</time>
      </trkpt>
      <trkpt lat="41.625880130" lon="2.511526810">
        <ele>437.70</ele>
        <time>2014-03-02T08:51:50Z</time>
      </trkpt>
      <trkpt lat="41.625893370" lon="2.511458410">
        <ele>437.30</ele>
        <time>2014-03-02T08:51:51Z</time>
      </trkpt>
      <trkpt lat="41.625903430" lon="2.511381800">
        <ele>436.90</ele>
        <time>2014-03-02T08:51:52Z</time>
      </trkpt>
      <trkpt lat="41.625923380" lon="2.511301670">
        <ele>436.60</ele>
        <time>2014-03-02T08:51:53Z</time>
      </trkpt>
      <trkpt lat="41.625945000" lon="2.511235120">
        <ele>435.90</ele>
        <time>2014-03-02T08:51:54Z</time>
      </trkpt>
      <trkpt lat="41.625965120" lon="2.511173430">
        <ele>435.40</ele>
        <time>2014-03-02T08:51:55Z</time>
      </trkpt>
      <trkpt lat="41.625990100" lon="2.511113410">
        <ele>435.00</ele>
        <time>2014-03-02T08:51:56Z</time>
      </trkpt>
      <trkpt lat="41.626016750" lon="2.511045020">
        <ele>434.10</ele>
        <time>2014-03-02T08:51:57Z</time>
      </trkpt>
      <trkpt lat="41.626040060" lon="2.510971760">
        <ele>433.40</ele>
        <time>2014-03-02T08:51:58Z</time>
      </trkpt>
      <trkpt lat="41.626063360" lon="2.510898330">
        <ele>433.30</ele>
        <time>2014-03-02T08:51:59Z</time>
      </trkpt>
      <trkpt lat="41.626085150" lon="2.510820040">
        <ele>433.10</ele>
        <time>2014-03-02T08:52:00Z</time>
      </trkpt>
      <trkpt lat="41.626108450" lon="2.510736730">
        <ele>433.00</ele>
        <time>2014-03-02T08:52:01Z</time>
      </trkpt>
      <trkpt lat="41.626133430" lon="2.510656770">
        <ele>432.00</ele>
        <time>2014-03-02T08:52:02Z</time>
      </trkpt>
      <trkpt lat="41.626158410" lon="2.510581660">
        <ele>431.30</ele>
        <time>2014-03-02T08:52:03Z</time>
      </trkpt>
      <trkpt lat="41.626180030" lon="2.510506730">
        <ele>431.00</ele>
        <time>2014-03-02T08:52:04Z</time>
      </trkpt>
      <trkpt lat="41.626201830" lon="2.510438330">
        <ele>430.70</ele>
        <time>2014-03-02T08:52:05Z</time>
      </trkpt>
      <trkpt lat="41.626220100" lon="2.510371780">
        <ele>429.80</ele>
        <time>2014-03-02T08:52:06Z</time>
      </trkpt>
      <trkpt lat="41.626238370" lon="2.510301710">
        <ele>429.20</ele>
        <time>2014-03-02T08:52:07Z</time>
      </trkpt>
      <trkpt lat="41.626260000" lon="2.510228450">
        <ele>428.70</ele>
        <time>2014-03-02T08:52:08Z</time>
      </trkpt>
      <trkpt lat="41.626281790" lon="2.510163410">
        <ele>428.40</ele>
        <time>2014-03-02T08:52:09Z</time>
      </trkpt>
      <trkpt lat="41.626303410" lon="2.510106740">
        <ele>428.20</ele>
        <time>2014-03-02T08:52:10Z</time>
      </trkpt>
      <trkpt lat="41.626318330" lon="2.510060140">
        <ele>427.50</ele>
        <time>2014-03-02T08:52:11Z</time>
      </trkpt>
      <trkpt lat="41.626335100" lon="2.510026780">
        <ele>427.00</ele>
        <time>2014-03-02T08:52:12Z</time>
      </trkpt>
      <trkpt lat="41.626355050" lon="2.510015050">
        <ele>426.20</ele>
        <time>2014-03-02T08:52:13Z</time>
      </trkpt>
      <trkpt lat="41.626368460" lon="2.510021750">
        <ele>425.60</ele>
        <time>2014-03-02T08:52:14Z</time>
      </trkpt>
      <trkpt lat="41.626375000" lon="2.510045050">
        <ele>425.20</ele>
        <time>2014-03-02T08:52:15Z</time>
      </trkpt>
      <trkpt lat="41.626371810" lon="2.510075060">
        <ele>424.80</ele>
        <time>2014-03-02T08:52:16Z</time>
      </trkpt>
      <trkpt lat="41.626366780" lon="2.510108420">
        <ele>424.50</ele>
        <time>2014-03-02T08:52:17Z</time>
      </trkpt>
      <trkpt lat="41.626360080" lon="2.510140100">
        <ele>424.20</ele>
        <time>2014-03-02T08:52:18Z</time>
      </trkpt>
      <trkpt lat="41.626355050" lon="2.510173460">
        <ele>424.00</ele>
        <time>2014-03-02T08:52:19Z</time>
      </trkpt>
      <trkpt lat="41.626348340" lon="2.510205150">
        <ele>423.90</ele>
        <time>2014-03-02T08:52:20Z</time>
      </trkpt>
      <trkpt lat="41.626341800" lon="2.510238340">
        <ele>424.00</ele>
        <time>2014-03-02T08:52:21Z</time>
      </trkpt>
      <trkpt lat="41.626335100" lon="2.510275050">
        <ele>424.00</ele>
        <time>2014-03-02T08:52:22Z</time>
      </trkpt>
      <trkpt lat="41.626331750" lon="2.510311770">
        <ele>424.00</ele>
        <time>2014-03-02T08:52:23Z</time>
      </trkpt>
      <trkpt lat="41.626330070" lon="2.510348480">
        <ele>423.90</ele>
        <time>2014-03-02T08:52:24Z</time>
      </trkpt>
      <trkpt lat="41.626333420" lon="2.510383350">
        <ele>423.60</ele>
        <time>2014-03-02T08:52:25Z</time>
      </trkpt>
      <trkpt lat="41.626338450" lon="2.510418380">
        <ele>423.30</ele>
        <time>2014-03-02T08:52:26Z</time>
      </trkpt>
      <trkpt lat="41.626343480" lon="2.510455100">
        <ele>423.10</ele>
        <time>2014-03-02T08:52:27Z</time>
      </trkpt>
      <trkpt lat="41.626350020" lon="2.510488460">
        <ele>423.10</ele>
        <time>2014-03-02T08:52:28Z</time>
      </trkpt>
      <trkpt lat="41.626356720" lon="2.510523490">
        <ele>423.10</ele>
        <time>2014-03-02T08:52:29Z</time>
      </trkpt>
      <trkpt lat="41.626363430" lon="2.510551820">
        <ele>423.30</ele>
        <time>2014-03-02T08:52:30Z</time>
      </trkpt>
      <trkpt lat="41.626378350" lon="2.510576800">
        <ele>423.50</ele>
        <time>2014-03-02T08:52:31Z</time>
      </trkpt>
      <trkpt lat="41.626390080" lon="2.510598430">
        <ele>423.60</ele>
        <time>2014-03-02T08:52:32Z</time>
      </trkpt>
      <trkpt lat="41.626403490" lon="2.510621730">
        <ele>423.70</ele>
        <time>2014-03-02T08:52:33Z</time>
      </trkpt>
      <trkpt lat="41.626420090" lon="2.510640000">
        <ele>423.70</ele>
        <time>2014-03-02T08:52:34Z</time>
      </trkpt>
      <trkpt lat="41.626438360" lon="2.510653410">
        <ele>423.50</ele>
        <time>2014-03-02T08:52:35Z</time>
      </trkpt>
      <trkpt lat="41.626456800" lon="2.510663470">
        <ele>423.40</ele>
        <time>2014-03-02T08:52:36Z</time>
      </trkpt>
      <trkpt lat="41.626476750" lon="2.510675040">
        <ele>423.50</ele>
        <time>2014-03-02T08:52:37Z</time>
      </trkpt>
      <trkpt lat="41.626496700" lon="2.510686770">
        <ele>423.50</ele>
        <time>2014-03-02T08:52:38Z</time>
      </trkpt>
      <trkpt lat="41.626515140" lon="2.510693480">
        <ele>423.60</ele>
        <time>2014-03-02T08:52:39Z</time>
      </trkpt>
      <trkpt lat="41.626533410" lon="2.510698340">
        <ele>423.70</ele>
        <time>2014-03-02T08:52:40Z</time>
      </trkpt>
      <trkpt lat="41.626555040" lon="2.510701690">
        <ele>423.80</ele>
        <time>2014-03-02T08:52:41Z</time>
      </trkpt>
      <trkpt lat="41.626576660" lon="2.510706720">
        <ele>423.80</ele>
        <time>2014-03-02T08:52:42Z</time>
      </trkpt>
      <trkpt lat="41.626600130" lon="2.510708400">
        <ele>423.90</ele>
        <time>2014-03-02T08:52:43Z</time>
      </trkpt>
      <trkpt lat="41.626621760" lon="2.510711750">
        <ele>424.30</ele>
        <time>2014-03-02T08:52:44Z</time>
      </trkpt>
      <trkpt lat="41.626645060" lon="2.510713430">
        <ele>424.60</ele>
        <time>2014-03-02T08:52:45Z</time>
      </trkpt>
      <trkpt lat="41.626666690" lon="2.510713430">
        <ele>424.90</ele>
        <time>2014-03-02T08:52:46Z</time>
      </trkpt>
      <trkpt lat="41.626691660" lon="2.510711750">
        <ele>424.90</ele>
        <time>2014-03-02T08:52:47Z</time>
      </trkpt>
      <trkpt lat="41.626716810" lon="2.510710070">
        <ele>424.90</ele>
        <time>2014-03-02T08:52:48Z</time>
      </trkpt>
      <trkpt lat="41.626743460" lon="2.510711750">
        <ele>425.30</ele>
        <time>2014-03-02T08:52:49Z</time>
      </trkpt>
      <trkpt lat="41.626771800" lon="2.510710070">
        <ele>425.60</ele>
        <time>2014-03-02T08:52:50Z</time>
      </trkpt>
      <trkpt lat="41.626798450" lon="2.510711750">
        <ele>425.50</ele>
        <time>2014-03-02T08:52:51Z</time>
      </trkpt>
      <trkpt lat="41.626825100" lon="2.510713430">
        <ele>425.30</ele>
        <time>2014-03-02T08:52:52Z</time>
      </trkpt>
      <trkpt lat="41.626861820" lon="2.510715100">
        <ele>425.30</ele>
        <time>2014-03-02T08:52:53Z</time>
      </trkpt>
      <trkpt lat="41.626893330" lon="2.510728350">
        <ele>425.40</ele>
        <time>2014-03-02T08:52:54Z</time>
      </trkpt>
      <trkpt lat="41.626930050" lon="2.510748460">
        <ele>425.60</ele>
        <time>2014-03-02T08:52:55Z</time>
      </trkpt>
      <trkpt lat="41.626968430" lon="2.510770090">
        <ele>425.30</ele>
        <time>2014-03-02T08:52:56Z</time>
      </trkpt>
      <trkpt lat="41.627008330" lon="2.510788360">
        <ele>425.20</ele>
        <time>2014-03-02T08:52:57Z</time>
      </trkpt>
      <trkpt lat="41.627046720" lon="2.510826750">
        <ele>425.00</ele>
        <time>2014-03-02T08:52:58Z</time>
      </trkpt>
      <trkpt lat="41.627080080" lon="2.510873350">
        <ele>424.40</ele>
        <time>2014-03-02T08:52:59Z</time>
      </trkpt>
      <trkpt lat="41.627103380" lon="2.510926660">
        <ele>424.00</ele>
        <time>2014-03-02T08:53:00Z</time>
      </trkpt>
      <trkpt lat="41.627125010" lon="2.510988350">
        <ele>423.40</ele>
        <time>2014-03-02T08:53:01Z</time>
      </trkpt>
      <trkpt lat="41.627153340" lon="2.511053400">
        <ele>423.00</ele>
        <time>2014-03-02T08:53:02Z</time>
      </trkpt>
      <trkpt lat="41.627191730" lon="2.511115090">
        <ele>422.50</ele>
        <time>2014-03-02T08:53:03Z</time>
      </trkpt>
      <trkpt lat="41.627231790" lon="2.511173430">
        <ele>422.10</ele>
        <time>2014-03-02T08:53:04Z</time>
      </trkpt>
      <trkpt lat="41.627275040" lon="2.511225060">
        <ele>421.90</ele>
        <time>2014-03-02T08:53:05Z</time>
      </trkpt>
      <trkpt lat="41.627316790" lon="2.511263450">
        <ele>421.20</ele>
        <time>2014-03-02T08:53:06Z</time>
      </trkpt>
      <trkpt lat="41.627355010" lon="2.511285070">
        <ele>420.80</ele>
        <time>2014-03-02T08:53:07Z</time>
      </trkpt>
      <trkpt lat="41.627393400" lon="2.511278370">
        <ele>420.10</ele>
        <time>2014-03-02T08:53:08Z</time>
      </trkpt>
      <trkpt lat="41.627431790" lon="2.511246680">
        <ele>419.70</ele>
        <time>2014-03-02T08:53:09Z</time>
      </trkpt>
      <trkpt lat="41.627463470" lon="2.511210140">
        <ele>419.00</ele>
        <time>2014-03-02T08:53:10Z</time>
      </trkpt>
      <trkpt lat="41.627495150" lon="2.511181810">
        <ele>418.50</ele>
        <time>2014-03-02T08:53:11Z</time>
      </trkpt>
      <trkpt lat="41.627530020" lon="2.511153480">
        <ele>418.10</ele>
        <time>2014-03-02T08:53:12Z</time>
      </trkpt>
      <trkpt lat="41.627570090" lon="2.511125150">
        <ele>417.50</ele>
        <time>2014-03-02T08:53:13Z</time>
      </trkpt>
      <trkpt lat="41.627608480" lon="2.511105030">
        <ele>417.00</ele>
        <time>2014-03-02T08:53:14Z</time>
      </trkpt>
      <trkpt lat="41.627640160" lon="2.511090110">
        <ele>416.70</ele>
        <time>2014-03-02T08:53:15Z</time>
      </trkpt>
      <trkpt lat="41.627676710" lon="2.511075020">
        <ele>416.40</ele>
        <time>2014-03-02T08:53:16Z</time>
      </trkpt>
      <trkpt lat="41.627720120" lon="2.511075020">
        <ele>416.20</ele>
        <time>2014-03-02T08:53:17Z</time>
      </trkpt>
      <trkpt lat="41.627760020" lon="2.511080050">
        <ele>415.30</ele>
        <time>2014-03-02T08:53:18Z</time>
      </trkpt>
      <trkpt lat="41.627798410" lon="2.511095140">
        <ele>414.70</ele>
        <time>2014-03-02T08:53:19Z</time>
      </trkpt>
      <trkpt lat="41.627831770" lon="2.511116760">
        <ele>414.20</ele>
        <time>2014-03-02T08:53:20Z</time>
      </trkpt>
      <trkpt lat="41.627860100" lon="2.511143420">
        <ele>413.90</ele>
        <time>2014-03-02T08:53:21Z</time>
      </trkpt>
      <trkpt lat="41.627881730" lon="2.511175100">
        <ele>413.20</ele>
        <time>2014-03-02T08:53:22Z</time>
      </trkpt>
      <trkpt lat="41.627903350" lon="2.511210140">
        <ele>412.70</ele>
        <time>2014-03-02T08:53:23Z</time>
      </trkpt>
      <trkpt lat="41.627930010" lon="2.511245010">
        <ele>412.30</ele>
        <time>2014-03-02T08:53:24Z</time>
      </trkpt>
      <trkpt lat="41.627953480" lon="2.511275010">
        <ele>411.30</ele>
        <time>2014-03-02T08:53:25Z</time>
      </trkpt>
      <trkpt lat="41.627981810" lon="2.511306700">
        <ele>410.60</ele>
        <time>2014-03-02T08:53:26Z</time>
      </trkpt>
      <trkpt lat="41.628010140" lon="2.511335030">
        <ele>409.10</ele>
        <time>2014-03-02T08:53:27Z</time>
      </trkpt>
      <trkpt lat="41.628038470" lon="2.511361680">
        <ele>407.90</ele>
        <time>2014-03-02T08:53:28Z</time>
      </trkpt>
      <trkpt lat="41.628066800" lon="2.511383480">
        <ele>406.70</ele>
        <time>2014-03-02T08:53:29Z</time>
      </trkpt>
      <trkpt lat="41.628091780" lon="2.511405100">
        <ele>405.90</ele>
        <time>2014-03-02T08:53:30Z</time>
      </trkpt>
      <trkpt lat="41.628113400" lon="2.511423370">
        <ele>405.20</ele>
        <time>2014-03-02T08:53:31Z</time>
      </trkpt>
      <trkpt lat="41.628130000" lon="2.511440140">
        <ele>404.50</ele>
        <time>2014-03-02T08:53:32Z</time>
      </trkpt>
      <trkpt lat="41.628155140" lon="2.511455060">
        <ele>404.00</ele>
        <time>2014-03-02T08:53:33Z</time>
      </trkpt>
      <trkpt lat="41.628188340" lon="2.511470150">
        <ele>402.80</ele>
        <time>2014-03-02T08:53:34Z</time>
      </trkpt>
      <trkpt lat="41.628220020" lon="2.511491770">
        <ele>401.90</ele>
        <time>2014-03-02T08:53:35Z</time>
      </trkpt>
      <trkpt lat="41.628256730" lon="2.511501830">
        <ele>401.20</ele>
        <time>2014-03-02T08:53:36Z</time>
      </trkpt>
      <trkpt lat="41.628295120" lon="2.511513400">
        <ele>400.50</ele>
        <time>2014-03-02T08:53:37Z</time>
      </trkpt>
      <trkpt lat="41.628336700" lon="2.511536700">
        <ele>400.00</ele>
        <time>2014-03-02T08:53:38Z</time>
      </trkpt>
      <trkpt lat="41.628373410" lon="2.511568380">
        <ele>399.40</ele>
        <time>2014-03-02T08:53:39Z</time>
      </trkpt>
      <trkpt lat="41.628405090" lon="2.511610120">
        <ele>398.80</ele>
        <time>2014-03-02T08:53:40Z</time>
      </trkpt>
      <trkpt lat="41.628428390" lon="2.511658400">
        <ele>397.80</ele>
        <time>2014-03-02T08:53:41Z</time>
      </trkpt>
      <trkpt lat="41.628450020" lon="2.511720090">
        <ele>397.00</ele>
        <time>2014-03-02T08:53:42Z</time>
      </trkpt>
      <trkpt lat="41.628473490" lon="2.511776760">
        <ele>396.40</ele>
        <time>2014-03-02T08:53:43Z</time>
      </trkpt>
      <trkpt lat="41.628495110" lon="2.511833420">
        <ele>395.50</ele>
        <time>2014-03-02T08:53:44Z</time>
      </trkpt>
      <trkpt lat="41.628515060" lon="2.511881700">
        <ele>394.80</ele>
        <time>2014-03-02T08:53:45Z</time>
      </trkpt>
      <trkpt lat="41.628540040" lon="2.511936680">
        <ele>393.60</ele>
        <time>2014-03-02T08:53:46Z</time>
      </trkpt>
      <trkpt lat="41.628575080" lon="2.511981780">
        <ele>392.70</ele>
        <time>2014-03-02T08:53:47Z</time>
      </trkpt>
      <trkpt lat="41.628620000" lon="2.512008430">
        <ele>392.20</ele>
        <time>2014-03-02T08:53:48Z</time>
      </trkpt>
      <trkpt lat="41.628663420" lon="2.512038440">
        <ele>391.80</ele>
        <time>2014-03-02T08:53:49Z</time>
      </trkpt>
      <trkpt lat="41.628708350" lon="2.512073470">
        <ele>391.50</ele>
        <time>2014-03-02T08:53:50Z</time>
      </trkpt>
      <trkpt lat="41.628751770" lon="2.512116730">
        <ele>390.40</ele>
        <time>2014-03-02T08:53:51Z</time>
      </trkpt>
      <trkpt lat="41.628790160" lon="2.512166680">
        <ele>389.60</ele>
        <time>2014-03-02T08:53:52Z</time>
      </trkpt>
      <trkpt lat="41.628826700" lon="2.512226700">
        <ele>389.00</ele>
        <time>2014-03-02T08:53:53Z</time>
      </trkpt>
      <trkpt lat="41.628865090" lon="2.512283360">
        <ele>388.50</ele>
        <time>2014-03-02T08:53:54Z</time>
      </trkpt>
      <trkpt lat="41.628905160" lon="2.512331800">
        <ele>387.70</ele>
        <time>2014-03-02T08:53:55Z</time>
      </trkpt>
      <trkpt lat="41.628941700" lon="2.512365000">
        <ele>387.00</ele>
        <time>2014-03-02T08:53:56Z</time>
      </trkpt>
      <trkpt lat="41.628978420" lon="2.512395000">
        <ele>386.50</ele>
        <time>2014-03-02T08:53:57Z</time>
      </trkpt>
      <trkpt lat="41.629006750" lon="2.512425010">
        <ele>385.80</ele>
        <time>2014-03-02T08:53:58Z</time>
      </trkpt>
      <trkpt lat="41.629026690" lon="2.512463400">
        <ele>385.20</ele>
        <time>2014-03-02T08:53:59Z</time>
      </trkpt>
      <trkpt lat="41.629041780" lon="2.512505140">
        <ele>384.70</ele>
        <time>2014-03-02T08:54:00Z</time>
      </trkpt>
      <trkpt lat="41.629051670" lon="2.512553420">
        <ele>384.40</ele>
        <time>2014-03-02T08:54:01Z</time>
      </trkpt>
      <trkpt lat="41.629056700" lon="2.512598350">
        <ele>384.10</ele>
        <time>2014-03-02T08:54:02Z</time>
      </trkpt>
      <trkpt lat="41.629055030" lon="2.512646800">
        <ele>383.90</ele>
        <time>2014-03-02T08:54:03Z</time>
      </trkpt>
      <trkpt lat="41.629053350" lon="2.512698430">
        <ele>383.80</ele>
        <time>2014-03-02T08:54:04Z</time>
      </trkpt>
      <trkpt lat="41.629055030" lon="2.512753410">
        <ele>383.20</ele>
        <time>2014-03-02T08:54:05Z</time>
      </trkpt>
      <trkpt lat="41.629065080" lon="2.512808400">
        <ele>382.80</ele>
        <time>2014-03-02T08:54:06Z</time>
      </trkpt>
      <trkpt lat="41.629088390" lon="2.512856680">
        <ele>382.20</ele>
        <time>2014-03-02T08:54:07Z</time>
      </trkpt>
      <trkpt lat="41.629115040" lon="2.512891720">
        <ele>381.70</ele>
        <time>2014-03-02T08:54:08Z</time>
      </trkpt>
      <trkpt lat="41.629145050" lon="2.512913340">
        <ele>381.30</ele>
        <time>2014-03-02T08:54:09Z</time>
      </trkpt>
      <trkpt lat="41.629173380" lon="2.512933460">
        <ele>381.00</ele>
        <time>2014-03-02T08:54:10Z</time>
      </trkpt>
      <trkpt lat="41.629196680" lon="2.512956760">
        <ele>380.70</ele>
        <time>2014-03-02T08:54:11Z</time>
      </trkpt>
      <trkpt lat="41.629216800" lon="2.512985090">
        <ele>380.40</ele>
        <time>2014-03-02T08:54:12Z</time>
      </trkpt>
      <trkpt lat="41.629231720" lon="2.513018450">
        <ele>380.10</ele>
        <time>2014-03-02T08:54:13Z</time>
      </trkpt>
      <trkpt lat="41.629243450" lon="2.513056670">
        <ele>379.90</ele>
        <time>2014-03-02T08:54:14Z</time>
      </trkpt>
      <trkpt lat="41.629253340" lon="2.513100090">
        <ele>380.10</ele>
        <time>2014-03-02T08:54:15Z</time>
      </trkpt>
      <trkpt lat="41.629263400" lon="2.513146690">
        <ele>380.20</ele>
        <time>2014-03-02T08:54:16Z</time>
      </trkpt>
      <trkpt lat="41.629271780" lon="2.513190110">
        <ele>379.90</ele>
        <time>2014-03-02T08:54:17Z</time>
      </trkpt>
      <trkpt lat="41.629278490" lon="2.513238390">
        <ele>379.70</ele>
        <time>2014-03-02T08:54:18Z</time>
      </trkpt>
      <trkpt lat="41.629280000" lon="2.513286670">
        <ele>379.70</ele>
        <time>2014-03-02T08:54:19Z</time>
      </trkpt>
      <trkpt lat="41.629281670" lon="2.513333440">
        <ele>379.60</ele>
        <time>2014-03-02T08:54:20Z</time>
      </trkpt>
      <trkpt lat="41.629283350" lon="2.513380050">
        <ele>379.60</ele>
        <time>2014-03-02T08:54:21Z</time>
      </trkpt>
      <trkpt lat="41.629286700" lon="2.513426820">
        <ele>379.40</ele>
        <time>2014-03-02T08:54:22Z</time>
      </trkpt>
      <trkpt lat="41.629291730" lon="2.513466710">
        <ele>379.30</ele>
        <time>2014-03-02T08:54:23Z</time>
      </trkpt>
      <trkpt lat="41.629298440" lon="2.513506780">
        <ele>378.80</ele>
        <time>2014-03-02T08:54:24Z</time>
      </trkpt>
      <trkpt lat="41.629306820" lon="2.513546680">
        <ele>378.40</ele>
        <time>2014-03-02T08:54:25Z</time>
      </trkpt>
      <trkpt lat="41.629320060" lon="2.513581710">
        <ele>378.30</ele>
        <time>2014-03-02T08:54:26Z</time>
      </trkpt>
      <trkpt lat="41.629335150" lon="2.513595130">
        <ele>378.20</ele>
        <time>2014-03-02T08:54:27Z</time>
      </trkpt>
      <trkpt lat="41.629345040" lon="2.513588420">
        <ele>378.10</ele>
        <time>2014-03-02T08:54:28Z</time>
      </trkpt>
      <trkpt lat="41.629350070" lon="2.513571820">
        <ele>378.40</ele>
        <time>2014-03-02T08:54:29Z</time>
      </trkpt>
      <trkpt lat="41.629351750" lon="2.513550030">
        <ele>378.60</ele>
        <time>2014-03-02T08:54:30Z</time>
      </trkpt>
      <trkpt lat="41.629353420" lon="2.513525050">
        <ele>378.50</ele>
        <time>2014-03-02T08:54:31Z</time>
      </trkpt>
      <trkpt lat="41.629358450" lon="2.513500070">
        <ele>378.40</ele>
        <time>2014-03-02T08:54:32Z</time>
      </trkpt>
      <trkpt lat="41.629366660" lon="2.513473420">
        <ele>378.20</ele>
        <time>2014-03-02T08:54:33Z</time>
      </trkpt>
      <trkpt lat="41.629378400" lon="2.513450120">
        <ele>378.00</ele>
        <time>2014-03-02T08:54:34Z</time>
      </trkpt>
      <trkpt lat="41.629388460" lon="2.513435030">
        <ele>377.90</ele>
        <time>2014-03-02T08:54:35Z</time>
      </trkpt>
      <trkpt lat="41.629398350" lon="2.513416760">
        <ele>377.40</ele>
        <time>2014-03-02T08:54:36Z</time>
      </trkpt>
      <trkpt lat="41.629401700" lon="2.513398490">
        <ele>377.00</ele>
        <time>2014-03-02T08:54:37Z</time>
      </trkpt>
      <trkpt lat="41.629406730" lon="2.513385070">
        <ele>376.90</ele>
        <time>2014-03-02T08:54:38Z</time>
      </trkpt>
      <trkpt lat="41.629411760" lon="2.513376690">
        <ele>376.90</ele>
        <time>2014-03-02T08:54:39Z</time>
      </trkpt>
      <trkpt lat="41.629416790" lon="2.513368480">
        <ele>376.80</ele>
        <time>2014-03-02T08:54:40Z</time>
      </trkpt>
      <trkpt lat="41.629421820" lon="2.513360100">
        <ele>376.50</ele>
        <time>2014-03-02T08:54:41Z</time>
      </trkpt>
      <trkpt lat="41.629425000" lon="2.513350040">
        <ele>376.30</ele>
        <time>2014-03-02T08:54:42Z</time>
      </trkpt>
      <trkpt lat="41.629425000" lon="2.513348360">
        <ele>376.10</ele>
        <time>2014-03-02T08:54:43Z</time>
      </trkpt>
      <trkpt lat="41.629425000" lon="2.513346690">
        <ele>375.90</ele>
        <time>2014-03-02T08:54:44Z</time>
      </trkpt>
      <trkpt lat="41.629425000" lon="2.513345010">
        <ele>375.60</ele>
        <time>2014-03-02T08:54:45Z</time>
      </trkpt>
      <trkpt lat="41.629428360" lon="2.513341820">
        <ele>375.40</ele>
        <time>2014-03-02T08:54:46Z</time>
      </trkpt>
      <trkpt lat="41.629433380" lon="2.513333440">
        <ele>375.20</ele>
        <time>2014-03-02T08:54:47Z</time>
      </trkpt>
      <trkpt lat="41.629436740" lon="2.513328410">
        <ele>374.90</ele>
        <time>2014-03-02T08:54:48Z</time>
      </trkpt>
      <trkpt lat="41.629438410" lon="2.513325060">
        <ele>374.60</ele>
        <time>2014-03-02T08:54:49Z</time>
      </trkpt>
      <trkpt lat="41.629438410" lon="2.513325060">
        <ele>374.30</ele>
        <time>2014-03-02T08:54:50Z</time>
      </trkpt>
      <trkpt lat="41.629438410" lon="2.513325060">
        <ele>374.00</ele>
        <time>2014-03-02T08:54:51Z</time>
      </trkpt>
      <trkpt lat="41.629438410" lon="2.513325060">
        <ele>373.90</ele>
        <time>2014-03-02T08:54:52Z</time>
      </trkpt>
      <trkpt lat="41.629440090" lon="2.513330090">
        <ele>373.80</ele>
        <time>2014-03-02T08:54:53Z</time>
      </trkpt>
      <trkpt lat="41.629441770" lon="2.513336800">
        <ele>373.70</ele>
        <time>2014-03-02T08:54:54Z</time>
      </trkpt>
      <trkpt lat="41.629443440" lon="2.513345010">
        <ele>373.70</ele>
        <time>2014-03-02T08:54:55Z</time>
      </trkpt>
      <trkpt lat="41.629445120" lon="2.513353390">
        <ele>373.80</ele>
        <time>2014-03-02T08:54:56Z</time>
      </trkpt>
      <trkpt lat="41.629446800" lon="2.513366800">
        <ele>373.60</ele>
        <time>2014-03-02T08:54:57Z</time>
      </trkpt>
      <trkpt lat="41.629448470" lon="2.513386750">
        <ele>373.50</ele>
        <time>2014-03-02T08:54:58Z</time>
      </trkpt>
      <trkpt lat="41.629448470" lon="2.513406700">
        <ele>373.40</ele>
        <time>2014-03-02T08:54:59Z</time>
      </trkpt>
      <trkpt lat="41.629448470" lon="2.513421790">
        <ele>373.40</ele>
        <time>2014-03-02T08:55:00Z</time>
      </trkpt>
      <trkpt lat="41.629450150" lon="2.513431680">
        <ele>373.50</ele>
        <time>2014-03-02T08:55:01Z</time>
      </trkpt>
      <trkpt lat="41.629451820" lon="2.513443410">
        <ele>373.30</ele>
        <time>2014-03-02T08:55:02Z</time>
      </trkpt>
      <trkpt lat="41.629451820" lon="2.513458330">
        <ele>373.30</ele>
        <time>2014-03-02T08:55:03Z</time>
      </trkpt>
      <trkpt lat="41.629453330" lon="2.513471740">
        <ele>372.50</ele>
        <time>2014-03-02T08:55:04Z</time>
      </trkpt>
      <trkpt lat="41.629451820" lon="2.513490020">
        <ele>372.00</ele>
        <time>2014-03-02T08:55:05Z</time>
      </trkpt>
      <trkpt lat="41.629455010" lon="2.513510130">
        <ele>371.60</ele>
        <time>2014-03-02T08:55:06Z</time>
      </trkpt>
      <trkpt lat="41.629456690" lon="2.513518350">
        <ele>371.10</ele>
        <time>2014-03-02T08:55:07Z</time>
      </trkpt>
      <trkpt lat="41.629458360" lon="2.513520020">
        <ele>370.80</ele>
        <time>2014-03-02T08:55:08Z</time>
      </trkpt>
      <trkpt lat="41.629460040" lon="2.513523380">
        <ele>370.50</ele>
        <time>2014-03-02T08:55:09Z</time>
      </trkpt>
      <trkpt lat="41.629461720" lon="2.513528410">
        <ele>370.30</ele>
        <time>2014-03-02T08:55:10Z</time>
      </trkpt>
      <trkpt lat="41.629461720" lon="2.513528410">
        <ele>370.10</ele>
        <time>2014-03-02T08:55:11Z</time>
      </trkpt>
      <trkpt lat="41.629461720" lon="2.513530080">
        <ele>369.90</ele>
        <time>2014-03-02T08:55:12Z</time>
      </trkpt>
      <trkpt lat="41.629460040" lon="2.513530080">
        <ele>369.70</ele>
        <time>2014-03-02T08:55:13Z</time>
      </trkpt>
      <trkpt lat="41.629461720" lon="2.513533430">
        <ele>370.20</ele>
        <time>2014-03-02T08:55:14Z</time>
      </trkpt>
      <trkpt lat="41.629461720" lon="2.513536790">
        <ele>370.60</ele>
        <time>2014-03-02T08:55:15Z</time>
      </trkpt>
      <trkpt lat="41.629463390" lon="2.513540140">
        <ele>370.80</ele>
        <time>2014-03-02T08:55:16Z</time>
      </trkpt>
      <trkpt lat="41.629463390" lon="2.513541820">
        <ele>370.90</ele>
        <time>2014-03-02T08:55:17Z</time>
      </trkpt>
      <trkpt lat="41.629463390" lon="2.513541820">
        <ele>370.90</ele>
        <time>2014-03-02T08:55:18Z</time>
      </trkpt>
      <trkpt lat="41.629465070" lon="2.513541820">
        <ele>370.90</ele>
        <time>2014-03-02T08:55:19Z</time>
      </trkpt>
      <trkpt lat="41.629466740" lon="2.513546680">
        <ele>370.80</ele>
        <time>2014-03-02T08:55:20Z</time>
      </trkpt>
      <trkpt lat="41.629466740" lon="2.513550030">
        <ele>371.20</ele>
        <time>2014-03-02T08:55:21Z</time>
      </trkpt>
      <trkpt lat="41.629468420" lon="2.513551710">
        <ele>371.40</ele>
        <time>2014-03-02T08:55:22Z</time>
      </trkpt>
      <trkpt lat="41.629470100" lon="2.513551710">
        <ele>371.40</ele>
        <time>2014-03-02T08:55:23Z</time>
      </trkpt>
      <trkpt lat="41.629470100" lon="2.513555060">
        <ele>371.30</ele>
        <time>2014-03-02T08:55:24Z</time>
      </trkpt>
      <trkpt lat="41.629471770" lon="2.513558410">
        <ele>371.30</ele>
        <time>2014-03-02T08:55:25Z</time>
      </trkpt>
      <trkpt lat="41.629473450" lon="2.513560090">
        <ele>371.20</ele>
        <time>2014-03-02T08:55:26Z</time>
      </trkpt>
      <trkpt lat="41.629475130" lon="2.513563440">
        <ele>371.10</ele>
        <time>2014-03-02T08:55:27Z</time>
      </trkpt>
      <trkpt lat="41.629476800" lon="2.513566790">
        <ele>370.80</ele>
        <time>2014-03-02T08:55:28Z</time>
      </trkpt>
      <trkpt lat="41.629480160" lon="2.513568470">
        <ele>370.50</ele>
        <time>2014-03-02T08:55:29Z</time>
      </trkpt>
      <trkpt lat="41.629481660" lon="2.513571820">
        <ele>370.60</ele>
        <time>2014-03-02T08:55:30Z</time>
      </trkpt>
      <trkpt lat="41.629485020" lon="2.513575010">
        <ele>370.60</ele>
        <time>2014-03-02T08:55:31Z</time>
      </trkpt>
      <trkpt lat="41.629488370" lon="2.513578360">
        <ele>370.70</ele>
        <time>2014-03-02T08:55:32Z</time>
      </trkpt>
      <trkpt lat="41.629491720" lon="2.513581710">
        <ele>370.20</ele>
        <time>2014-03-02T08:55:33Z</time>
      </trkpt>
      <trkpt lat="41.629495080" lon="2.513585070">
        <ele>369.80</ele>
        <time>2014-03-02T08:55:34Z</time>
      </trkpt>
      <trkpt lat="41.629500100" lon="2.513588420">
        <ele>369.70</ele>
        <time>2014-03-02T08:55:35Z</time>
      </trkpt>
      <trkpt lat="41.629505130" lon="2.513591770">
        <ele>369.60</ele>
        <time>2014-03-02T08:55:36Z</time>
      </trkpt>
      <trkpt lat="41.629510000" lon="2.513595130">
        <ele>369.60</ele>
        <time>2014-03-02T08:55:37Z</time>
      </trkpt>
      <trkpt lat="41.629515020" lon="2.513598480">
        <ele>369.90</ele>
        <time>2014-03-02T08:55:38Z</time>
      </trkpt>
      <trkpt lat="41.629518380" lon="2.513600150">
        <ele>370.10</ele>
        <time>2014-03-02T08:55:39Z</time>
      </trkpt>
      <trkpt lat="41.629523410" lon="2.513603340">
        <ele>370.10</ele>
        <time>2014-03-02T08:55:40Z</time>
      </trkpt>
      <trkpt lat="41.629528440" lon="2.513605020">
        <ele>370.10</ele>
        <time>2014-03-02T08:55:41Z</time>
      </trkpt>
      <trkpt lat="41.629531790" lon="2.513608370">
        <ele>370.00</ele>
        <time>2014-03-02T08:55:42Z</time>
      </trkpt>
      <trkpt lat="41.629536820" lon="2.513611720">
        <ele>369.80</ele>
        <time>2014-03-02T08:55:43Z</time>
      </trkpt>
      <trkpt lat="41.629541680" lon="2.513613400">
        <ele>369.80</ele>
        <time>2014-03-02T08:55:44Z</time>
      </trkpt>
      <trkpt lat="41.629546710" lon="2.513616750">
        <ele>369.80</ele>
        <time>2014-03-02T08:55:45Z</time>
      </trkpt>
      <trkpt lat="41.629550060" lon="2.513618430">
        <ele>369.80</ele>
        <time>2014-03-02T08:55:46Z</time>
      </trkpt>
      <trkpt lat="41.629555090" lon="2.513621780">
        <ele>369.60</ele>
        <time>2014-03-02T08:55:47Z</time>
      </trkpt>
      <trkpt lat="41.629560120" lon="2.513623460">
        <ele>369.40</ele>
        <time>2014-03-02T08:55:48Z</time>
      </trkpt>
      <trkpt lat="41.629563470" lon="2.513625130">
        <ele>369.70</ele>
        <time>2014-03-02T08:55:49Z</time>
      </trkpt>
      <trkpt lat="41.629566820" lon="2.513625130">
        <ele>369.90</ele>
        <time>2014-03-02T08:55:50Z</time>
      </trkpt>
      <trkpt lat="41.629568330" lon="2.513626810">
        <ele>370.00</ele>
        <time>2014-03-02T08:55:51Z</time>
      </trkpt>
      <trkpt lat="41.629570010" lon="2.513626810">
        <ele>369.70</ele>
        <time>2014-03-02T08:55:52Z</time>
      </trkpt>
      <trkpt lat="41.629573360" lon="2.513628490">
        <ele>369.50</ele>
        <time>2014-03-02T08:55:53Z</time>
      </trkpt>
      <trkpt lat="41.629576720" lon="2.513630160">
        <ele>369.60</ele>
        <time>2014-03-02T08:55:54Z</time>
      </trkpt>
      <trkpt lat="41.629576720" lon="2.513630160">
        <ele>369.60</ele>
        <time>2014-03-02T08:55:55Z</time>
      </trkpt>
      <trkpt lat="41.629578390" lon="2.513630160">
        <ele>369.70</ele>
        <time>2014-03-02T08:55:56Z</time>
      </trkpt>
      <trkpt lat="41.629580070" lon="2.513630160">
        <ele>369.70</ele>
        <time>2014-03-02T08:55:57Z</time>
      </trkpt>
      <trkpt lat="41.629580070" lon="2.513628490">
        <ele>369.80</ele>
        <time>2014-03-02T08:55:58Z</time>
      </trkpt>
      <trkpt lat="41.629580070" lon="2.513628490">
        <ele>369.80</ele>
        <time>2014-03-02T08:55:59Z</time>
      </trkpt>
      <trkpt lat="41.629580070" lon="2.513626810">
        <ele>369.80</ele>
        <time>2014-03-02T08:56:00Z</time>
      </trkpt>
      <trkpt lat="41.629580070" lon="2.513626810">
        <ele>370.00</ele>
        <time>2014-03-02T08:56:01Z</time>
      </trkpt>
      <trkpt lat="41.629581740" lon="2.513626810">
        <ele>370.10</ele>
        <time>2014-03-02T08:56:02Z</time>
      </trkpt>
      <trkpt lat="41.629580070" lon="2.513626810">
        <ele>370.20</ele>
        <time>2014-03-02T08:56:03Z</time>
      </trkpt>
      <trkpt lat="41.629580070" lon="2.513626810">
        <ele>370.00</ele>
        <time>2014-03-02T08:56:04Z</time>
      </trkpt>
      <trkpt lat="41.629581740" lon="2.513628490">
        <ele>369.80</ele>
        <time>2014-03-02T08:56:05Z</time>
      </trkpt>
      <trkpt lat="41.629583420" lon="2.513630160">
        <ele>369.80</ele>
        <time>2014-03-02T08:56:06Z</time>
      </trkpt>
      <trkpt lat="41.629585100" lon="2.513631670">
        <ele>369.70</ele>
        <time>2014-03-02T08:56:07Z</time>
      </trkpt>
      <trkpt lat="41.629585100" lon="2.513631670">
        <ele>369.70</ele>
        <time>2014-03-02T08:56:08Z</time>
      </trkpt>
      <trkpt lat="41.629586770" lon="2.513631670">
        <ele>369.70</ele>
        <time>2014-03-02T08:56:09Z</time>
      </trkpt>
      <trkpt lat="41.629586770" lon="2.513630160">
        <ele>369.70</ele>
        <time>2014-03-02T08:56:10Z</time>
      </trkpt>
      <trkpt lat="41.629588450" lon="2.513626810">
        <ele>369.80</ele>
        <time>2014-03-02T08:56:11Z</time>
      </trkpt>
      <trkpt lat="41.629591800" lon="2.513625130">
        <ele>369.90</ele>
        <time>2014-03-02T08:56:12Z</time>
      </trkpt>
      <trkpt lat="41.629593480" lon="2.513623460">
        <ele>369.80</ele>
        <time>2014-03-02T08:56:13Z</time>
      </trkpt>
      <trkpt lat="41.629595160" lon="2.513620100">
        <ele>369.70</ele>
        <time>2014-03-02T08:56:14Z</time>
      </trkpt>
      <trkpt lat="41.629596660" lon="2.513618430">
        <ele>369.80</ele>
        <time>2014-03-02T08:56:15Z</time>
      </trkpt>
      <trkpt lat="41.629600020" lon="2.513615070">
        <ele>369.80</ele>
        <time>2014-03-02T08:56:16Z</time>
      </trkpt>
      <trkpt lat="41.629603370" lon="2.513613400">
        <ele>369.90</ele>
        <time>2014-03-02T08:56:17Z</time>
      </trkpt>
      <trkpt lat="41.629605050" lon="2.513610050">
        <ele>370.10</ele>
        <time>2014-03-02T08:56:18Z</time>
      </trkpt>
      <trkpt lat="41.629608400" lon="2.513608370">
        <ele>370.30</ele>
        <time>2014-03-02T08:56:19Z</time>
      </trkpt>
      <trkpt lat="41.629611750" lon="2.513606690">
        <ele>370.00</ele>
        <time>2014-03-02T08:56:20Z</time>
      </trkpt>
      <trkpt lat="41.629616780" lon="2.513605020">
        <ele>369.80</ele>
        <time>2014-03-02T08:56:21Z</time>
      </trkpt>
      <trkpt lat="41.629620130" lon="2.513603340">
        <ele>369.70</ele>
        <time>2014-03-02T08:56:22Z</time>
      </trkpt>
      <trkpt lat="41.629623490" lon="2.513600150">
        <ele>369.60</ele>
        <time>2014-03-02T08:56:23Z</time>
      </trkpt>
      <trkpt lat="41.629625000" lon="2.513598480">
        <ele>369.60</ele>
        <time>2014-03-02T08:56:24Z</time>
      </trkpt>
      <trkpt lat="41.629630020" lon="2.513596800">
        <ele>369.50</ele>
        <time>2014-03-02T08:56:25Z</time>
      </trkpt>
      <trkpt lat="41.629631700" lon="2.513595130">
        <ele>369.40</ele>
        <time>2014-03-02T08:56:26Z</time>
      </trkpt>
      <trkpt lat="41.629635050" lon="2.513591770">
        <ele>369.40</ele>
        <time>2014-03-02T08:56:27Z</time>
      </trkpt>
      <trkpt lat="41.629638410" lon="2.513590100">
        <ele>369.40</ele>
        <time>2014-03-02T08:56:28Z</time>
      </trkpt>
      <trkpt lat="41.629641760" lon="2.513586740">
        <ele>369.30</ele>
        <time>2014-03-02T08:56:29Z</time>
      </trkpt>
      <trkpt lat="41.629643440" lon="2.513585070">
        <ele>369.20</ele>
        <time>2014-03-02T08:56:30Z</time>
      </trkpt>
      <trkpt lat="41.629645110" lon="2.513581710">
        <ele>369.10</ele>
        <time>2014-03-02T08:56:31Z</time>
      </trkpt>
      <trkpt lat="41.629646790" lon="2.513578360">
        <ele>369.40</ele>
        <time>2014-03-02T08:56:32Z</time>
      </trkpt>
      <trkpt lat="41.629650140" lon="2.513575010">
        <ele>369.50</ele>
        <time>2014-03-02T08:56:33Z</time>
      </trkpt>
      <trkpt lat="41.629651820" lon="2.513573330">
        <ele>369.60</ele>
        <time>2014-03-02T08:56:34Z</time>
      </trkpt>
      <trkpt lat="41.629653490" lon="2.513571820">
        <ele>369.20</ele>
        <time>2014-03-02T08:56:35Z</time>
      </trkpt>
      <trkpt lat="41.629655000" lon="2.513570150">
        <ele>368.90</ele>
        <time>2014-03-02T08:56:36Z</time>
      </trkpt>
      <trkpt lat="41.629658360" lon="2.513566790">
        <ele>369.00</ele>
        <time>2014-03-02T08:56:37Z</time>
      </trkpt>
      <trkpt lat="41.629660030" lon="2.513565120">
        <ele>369.20</ele>
        <time>2014-03-02T08:56:38Z</time>
      </trkpt>
      <trkpt lat="41.629661710" lon="2.513563440">
        <ele>369.30</ele>
        <time>2014-03-02T08:56:39Z</time>
      </trkpt>
      <trkpt lat="41.629663380" lon="2.513563440">
        <ele>369.40</ele>
        <time>2014-03-02T08:56:40Z</time>
      </trkpt>
      <trkpt lat="41.629663380" lon="2.513561770">
        <ele>369.40</ele>
        <time>2014-03-02T08:56:41Z</time>
      </trkpt>
      <trkpt lat="41.629665060" lon="2.513560090">
        <ele>369.60</ele>
        <time>2014-03-02T08:56:42Z</time>
      </trkpt>
      <trkpt lat="41.629666740" lon="2.513560090">
        <ele>369.60</ele>
        <time>2014-03-02T08:56:43Z</time>
      </trkpt>
      <trkpt lat="41.629668410" lon="2.513558410">
        <ele>369.60</ele>
        <time>2014-03-02T08:56:44Z</time>
      </trkpt>
      <trkpt lat="41.629670090" lon="2.513558410">
        <ele>369.60</ele>
        <time>2014-03-02T08:56:45Z</time>
      </trkpt>
      <trkpt lat="41.629671770" lon="2.513556740">
        <ele>369.50</ele>
        <time>2014-03-02T08:56:46Z</time>
      </trkpt>
      <trkpt lat="41.629673440" lon="2.513556740">
        <ele>369.50</ele>
        <time>2014-03-02T08:56:47Z</time>
      </trkpt>
      <trkpt lat="41.629675120" lon="2.513555060">
        <ele>369.50</ele>
        <time>2014-03-02T08:56:48Z</time>
      </trkpt>
      <trkpt lat="41.629675120" lon="2.513553380">
        <ele>369.50</ele>
        <time>2014-03-02T08:56:49Z</time>
      </trkpt>
      <trkpt lat="41.629676800" lon="2.513553380">
        <ele>369.50</ele>
        <time>2014-03-02T08:56:50Z</time>
      </trkpt>
      <trkpt lat="41.629676800" lon="2.513553380">
        <ele>369.40</ele>
        <time>2014-03-02T08:56:51Z</time>
      </trkpt>
      <trkpt lat="41.629678470" lon="2.513551710">
        <ele>369.40</ele>
        <time>2014-03-02T08:56:52Z</time>
      </trkpt>
      <trkpt lat="41.629680150" lon="2.513553380">
        <ele>369.30</ele>
        <time>2014-03-02T08:56:53Z</time>
      </trkpt>
      <trkpt lat="41.629680150" lon="2.513553380">
        <ele>369.30</ele>
        <time>2014-03-02T08:56:54Z</time>
      </trkpt>
      <trkpt lat="41.629680150" lon="2.513553380">
        <ele>369.30</ele>
        <time>2014-03-02T08:56:55Z</time>
      </trkpt>
      <trkpt lat="41.629681820" lon="2.513551710">
        <ele>369.30</ele>
        <time>2014-03-02T08:56:56Z</time>
      </trkpt>
      <trkpt lat="41.629680150" lon="2.513551710">
        <ele>369.30</ele>
        <time>2014-03-02T08:56:57Z</time>
      </trkpt>
      <trkpt lat="41.629680150" lon="2.513550030">
        <ele>369.30</ele>
        <time>2014-03-02T08:56:58Z</time>
      </trkpt>
      <trkpt lat="41.629678470" lon="2.513548350">
        <ele>369.30</ele>
        <time>2014-03-02T08:56:59Z</time>
      </trkpt>
      <trkpt lat="41.629678470" lon="2.513548350">
        <ele>369.20</ele>
        <time>2014-03-02T08:57:00Z</time>
      </trkpt>
      <trkpt lat="41.629678470" lon="2.513546680">
        <ele>369.00</ele>
        <time>2014-03-02T08:57:01Z</time>
      </trkpt>
      <trkpt lat="41.629676800" lon="2.513545000">
        <ele>368.90</ele>
        <time>2014-03-02T08:57:02Z</time>
      </trkpt>
      <trkpt lat="41.629676800" lon="2.513543490">
        <ele>369.20</ele>
        <time>2014-03-02T08:57:03Z</time>
      </trkpt>
      <trkpt lat="41.629675120" lon="2.513541820">
        <ele>369.40</ele>
        <time>2014-03-02T08:57:04Z</time>
      </trkpt>
      <trkpt lat="41.629673440" lon="2.513538460">
        <ele>369.20</ele>
        <time>2014-03-02T08:57:05Z</time>
      </trkpt>
      <trkpt lat="41.629673440" lon="2.513536790">
        <ele>369.10</ele>
        <time>2014-03-02T08:57:06Z</time>
      </trkpt>
      <trkpt lat="41.629673440" lon="2.513535110">
        <ele>368.90</ele>
        <time>2014-03-02T08:57:07Z</time>
      </trkpt>
      <trkpt lat="41.629671770" lon="2.513533430">
        <ele>369.20</ele>
        <time>2014-03-02T08:57:08Z</time>
      </trkpt>
      <trkpt lat="41.629671770" lon="2.513531760">
        <ele>369.30</ele>
        <time>2014-03-02T08:57:09Z</time>
      </trkpt>
      <trkpt lat="41.629671770" lon="2.513528410">
        <ele>369.30</ele>
        <time>2014-03-02T08:57:10Z</time>
      </trkpt>
      <trkpt lat="41.629670090" lon="2.513526730">
        <ele>369.40</ele>
        <time>2014-03-02T08:57:11Z</time>
      </trkpt>
      <trkpt lat="41.629670090" lon="2.513523380">
        <ele>369.40</ele>
        <time>2014-03-02T08:57:12Z</time>
      </trkpt>
      <trkpt lat="41.629668410" lon="2.513521700">
        <ele>369.80</ele>
        <time>2014-03-02T08:57:13Z</time>
      </trkpt>
      <trkpt lat="41.629668410" lon="2.513520020">
        <ele>370.10</ele>
        <time>2014-03-02T08:57:14Z</time>
      </trkpt>
      <trkpt lat="41.629668410" lon="2.513518350">
        <ele>370.00</ele>
        <time>2014-03-02T08:57:15Z</time>
      </trkpt>
      <trkpt lat="41.629666740" lon="2.513515160">
        <ele>369.90</ele>
        <time>2014-03-02T08:57:16Z</time>
      </trkpt>
      <trkpt lat="41.629666740" lon="2.513513490">
        <ele>369.80</ele>
        <time>2014-03-02T08:57:17Z</time>
      </trkpt>
      <trkpt lat="41.629665060" lon="2.513511810">
        <ele>369.80</ele>
        <time>2014-03-02T08:57:18Z</time>
      </trkpt>
      <trkpt lat="41.629663380" lon="2.513510130">
        <ele>369.80</ele>
        <time>2014-03-02T08:57:19Z</time>
      </trkpt>
      <trkpt lat="41.629663380" lon="2.513508460">
        <ele>369.70</ele>
        <time>2014-03-02T08:57:20Z</time>
      </trkpt>
      <trkpt lat="41.629661710" lon="2.513506780">
        <ele>369.70</ele>
        <time>2014-03-02T08:57:21Z</time>
      </trkpt>
      <trkpt lat="41.629660030" lon="2.513505100">
        <ele>369.80</ele>
        <time>2014-03-02T08:57:22Z</time>
      </trkpt>
      <trkpt lat="41.629660030" lon="2.513505100">
        <ele>369.90</ele>
        <time>2014-03-02T08:57:23Z</time>
      </trkpt>
      <trkpt lat="41.629658360" lon="2.513503430">
        <ele>369.70</ele>
        <time>2014-03-02T08:57:24Z</time>
      </trkpt>
      <trkpt lat="41.629656680" lon="2.513503430">
        <ele>369.60</ele>
        <time>2014-03-02T08:57:25Z</time>
      </trkpt>
      <trkpt lat="41.629655000" lon="2.513503430">
        <ele>369.50</ele>
        <time>2014-03-02T08:57:26Z</time>
      </trkpt>
      <trkpt lat="41.629653490" lon="2.513500070">
        <ele>369.30</ele>
        <time>2014-03-02T08:57:27Z</time>
      </trkpt>
      <trkpt lat="41.629653490" lon="2.513498400">
        <ele>369.20</ele>
        <time>2014-03-02T08:57:28Z</time>
      </trkpt>
      <trkpt lat="41.629651820" lon="2.513496720">
        <ele>369.50</ele>
        <time>2014-03-02T08:57:29Z</time>
      </trkpt>
      <trkpt lat="41.629650140" lon="2.513493370">
        <ele>369.70</ele>
        <time>2014-03-02T08:57:30Z</time>
      </trkpt>
      <trkpt lat="41.629648460" lon="2.513491690">
        <ele>369.80</ele>
        <time>2014-03-02T08:57:31Z</time>
      </trkpt>
      <trkpt lat="41.629648460" lon="2.513491690">
        <ele>369.90</ele>
        <time>2014-03-02T08:57:32Z</time>
      </trkpt>
      <trkpt lat="41.629648460" lon="2.513491690">
        <ele>369.90</ele>
        <time>2014-03-02T08:57:33Z</time>
      </trkpt>
      <trkpt lat="41.629646790" lon="2.513490020">
        <ele>369.90</ele>
        <time>2014-03-02T08:57:34Z</time>
      </trkpt>
      <trkpt lat="41.629646790" lon="2.513490020">
        <ele>370.00</ele>
        <time>2014-03-02T08:57:35Z</time>
      </trkpt>
      <trkpt lat="41.629646790" lon="2.513490020">
        <ele>370.20</ele>
        <time>2014-03-02T08:57:36Z</time>
      </trkpt>
      <trkpt lat="41.629645110" lon="2.513491690">
        <ele>370.30</ele>
        <time>2014-03-02T08:57:37Z</time>
      </trkpt>
      <trkpt lat="41.629645110" lon="2.513491690">
        <ele>370.50</ele>
        <time>2014-03-02T08:57:38Z</time>
      </trkpt>
      <trkpt lat="41.629645110" lon="2.513491690">
        <ele>370.10</ele>
        <time>2014-03-02T08:57:39Z</time>
      </trkpt>
      <trkpt lat="41.629645110" lon="2.513491690">
        <ele>369.80</ele>
        <time>2014-03-02T08:57:40Z</time>
      </trkpt>
      <trkpt lat="41.629645110" lon="2.513491690">
        <ele>369.70</ele>
        <time>2014-03-02T08:57:41Z</time>
      </trkpt>
      <trkpt lat="41.629645110" lon="2.513490020">
        <ele>369.60</ele>
        <time>2014-03-02T08:57:42Z</time>
      </trkpt>
      <trkpt lat="41.629643440" lon="2.513488340">
        <ele>369.70</ele>
        <time>2014-03-02T08:57:43Z</time>
      </trkpt>
      <trkpt lat="41.629641760" lon="2.513486660">
        <ele>369.80</ele>
        <time>2014-03-02T08:57:44Z</time>
      </trkpt>
      <trkpt lat="41.629640080" lon="2.513483480">
        <ele>369.80</ele>
        <time>2014-03-02T08:57:45Z</time>
      </trkpt>
      <trkpt lat="41.629638410" lon="2.513481800">
        <ele>369.60</ele>
        <time>2014-03-02T08:57:46Z</time>
      </trkpt>
      <trkpt lat="41.629638410" lon="2.513480130">
        <ele>369.50</ele>
        <time>2014-03-02T08:57:47Z</time>
      </trkpt>
      <trkpt lat="41.629638410" lon="2.513478450">
        <ele>369.40</ele>
        <time>2014-03-02T08:57:48Z</time>
      </trkpt>
      <trkpt lat="41.629638410" lon="2.513476770">
        <ele>369.30</ele>
        <time>2014-03-02T08:57:49Z</time>
      </trkpt>
      <trkpt lat="41.629638410" lon="2.513475100">
        <ele>369.30</ele>
        <time>2014-03-02T08:57:50Z</time>
      </trkpt>
      <trkpt lat="41.629638410" lon="2.513473420">
        <ele>369.30</ele>
        <time>2014-03-02T08:57:51Z</time>
      </trkpt>
      <trkpt lat="41.629636730" lon="2.513471740">
        <ele>369.30</ele>
        <time>2014-03-02T08:57:52Z</time>
      </trkpt>
      <trkpt lat="41.629635050" lon="2.513470070">
        <ele>369.50</ele>
        <time>2014-03-02T08:57:53Z</time>
      </trkpt>
      <trkpt lat="41.629635050" lon="2.513468390">
        <ele>369.70</ele>
        <time>2014-03-02T08:57:54Z</time>
      </trkpt>
      <trkpt lat="41.629633380" lon="2.513465040">
        <ele>369.80</ele>
        <time>2014-03-02T08:57:55Z</time>
      </trkpt>
      <trkpt lat="41.629633380" lon="2.513463360">
        <ele>370.00</ele>
        <time>2014-03-02T08:57:56Z</time>
      </trkpt>
      <trkpt lat="41.629631700" lon="2.513461690">
        <ele>370.10</ele>
        <time>2014-03-02T08:57:57Z</time>
      </trkpt>
      <trkpt lat="41.629631700" lon="2.513460010">
        <ele>369.90</ele>
        <time>2014-03-02T08:57:58Z</time>
      </trkpt>
      <trkpt lat="41.629630020" lon="2.513460010">
        <ele>369.70</ele>
        <time>2014-03-02T08:57:59Z</time>
      </trkpt>
      <trkpt lat="41.629630020" lon="2.513458330">
        <ele>369.70</ele>
        <time>2014-03-02T08:58:00Z</time>
      </trkpt>
      <trkpt lat="41.629630020" lon="2.513456820">
        <ele>369.70</ele>
        <time>2014-03-02T08:58:01Z</time>
      </trkpt>
      <trkpt lat="41.629630020" lon="2.513456820">
        <ele>369.80</ele>
        <time>2014-03-02T08:58:02Z</time>
      </trkpt>
      <trkpt lat="41.629630020" lon="2.513455150">
        <ele>369.90</ele>
        <time>2014-03-02T08:58:03Z</time>
      </trkpt>
      <trkpt lat="41.629630020" lon="2.513453470">
        <ele>370.00</ele>
        <time>2014-03-02T08:58:04Z</time>
      </trkpt>
      <trkpt lat="41.629628350" lon="2.513453470">
        <ele>370.00</ele>
        <time>2014-03-02T08:58:05Z</time>
      </trkpt>
      <trkpt lat="41.629626670" lon="2.513451790">
        <ele>370.00</ele>
        <time>2014-03-02T08:58:06Z</time>
      </trkpt>
      <trkpt lat="41.629626670" lon="2.513450120">
        <ele>370.20</ele>
        <time>2014-03-02T08:58:07Z</time>
      </trkpt>
      <trkpt lat="41.629626670" lon="2.513450120">
        <ele>370.30</ele>
        <time>2014-03-02T08:58:08Z</time>
      </trkpt>
      <trkpt lat="41.629626670" lon="2.513448440">
        <ele>370.30</ele>
        <time>2014-03-02T08:58:09Z</time>
      </trkpt>
      <trkpt lat="41.629625000" lon="2.513448440">
        <ele>370.30</ele>
        <time>2014-03-02T08:58:10Z</time>
      </trkpt>
      <trkpt lat="41.629623490" lon="2.513446770">
        <ele>370.30</ele>
        <time>2014-03-02T08:58:11Z</time>
      </trkpt>
      <trkpt lat="41.629623490" lon="2.513446770">
        <ele>370.00</ele>
        <time>2014-03-02T08:58:12Z</time>
      </trkpt>
      <trkpt lat="41.629621810" lon="2.513445090">
        <ele>369.70</ele>
        <time>2014-03-02T08:58:13Z</time>
      </trkpt>
      <trkpt lat="41.629620130" lon="2.513445090">
        <ele>369.70</ele>
        <time>2014-03-02T08:58:14Z</time>
      </trkpt>
      <trkpt lat="41.629618460" lon="2.513443410">
        <ele>369.70</ele>
        <time>2014-03-02T08:58:15Z</time>
      </trkpt>
      <trkpt lat="41.629618460" lon="2.513443410">
        <ele>369.60</ele>
        <time>2014-03-02T08:58:16Z</time>
      </trkpt>
      <trkpt lat="41.629616780" lon="2.513443410">
        <ele>369.30</ele>
        <time>2014-03-02T08:58:17Z</time>
      </trkpt>
      <trkpt lat="41.629615100" lon="2.513441740">
        <ele>369.00</ele>
        <time>2014-03-02T08:58:18Z</time>
      </trkpt>
      <trkpt lat="41.629615100" lon="2.513443410">
        <ele>369.20</ele>
        <time>2014-03-02T08:58:19Z</time>
      </trkpt>
      <trkpt lat="41.629613430" lon="2.513443410">
        <ele>369.40</ele>
        <time>2014-03-02T08:58:20Z</time>
      </trkpt>
      <trkpt lat="41.629611750" lon="2.513443410">
        <ele>369.50</ele>
        <time>2014-03-02T08:58:21Z</time>
      </trkpt>
      <trkpt lat="41.629610080" lon="2.513443410">
        <ele>369.50</ele>
        <time>2014-03-02T08:58:22Z</time>
      </trkpt>
      <trkpt lat="41.629608400" lon="2.513443410">
        <ele>369.60</ele>
        <time>2014-03-02T08:58:23Z</time>
      </trkpt>
      <trkpt lat="41.629608400" lon="2.513443410">
        <ele>369.40</ele>
        <time>2014-03-02T08:58:24Z</time>
      </trkpt>
      <trkpt lat="41.629606720" lon="2.513445090">
        <ele>369.20</ele>
        <time>2014-03-02T08:58:25Z</time>
      </trkpt>
      <trkpt lat="41.629605050" lon="2.513445090">
        <ele>369.30</ele>
        <time>2014-03-02T08:58:26Z</time>
      </trkpt>
      <trkpt lat="41.629605050" lon="2.513446770">
        <ele>369.40</ele>
        <time>2014-03-02T08:58:27Z</time>
      </trkpt>
      <trkpt lat="41.629603370" lon="2.513446770">
        <ele>369.80</ele>
        <time>2014-03-02T08:58:28Z</time>
      </trkpt>
      <trkpt lat="41.629603370" lon="2.513448440">
        <ele>370.20</ele>
        <time>2014-03-02T08:58:29Z</time>
      </trkpt>
      <trkpt lat="41.629601690" lon="2.513450120">
        <ele>370.40</ele>
        <time>2014-03-02T08:58:30Z</time>
      </trkpt>
      <trkpt lat="41.629601690" lon="2.513451790">
        <ele>370.40</ele>
        <time>2014-03-02T08:58:31Z</time>
      </trkpt>
      <trkpt lat="41.629601690" lon="2.513451790">
        <ele>370.50</ele>
        <time>2014-03-02T08:58:32Z</time>
      </trkpt>
      <trkpt lat="41.629600020" lon="2.513453470">
        <ele>370.50</ele>
        <time>2014-03-02T08:58:33Z</time>
      </trkpt>
      <trkpt lat="41.629600020" lon="2.513455150">
        <ele>370.40</ele>
        <time>2014-03-02T08:58:34Z</time>
      </trkpt>
      <trkpt lat="41.629600020" lon="2.513456820">
        <ele>370.40</ele>
        <time>2014-03-02T08:58:35Z</time>
      </trkpt>
      <trkpt lat="41.629600020" lon="2.513458330">
        <ele>370.40</ele>
        <time>2014-03-02T08:58:36Z</time>
      </trkpt>
      <trkpt lat="41.629600020" lon="2.513458330">
        <ele>370.40</ele>
        <time>2014-03-02T08:58:37Z</time>
      </trkpt>
      <trkpt lat="41.629600020" lon="2.513460010">
        <ele>370.40</ele>
        <time>2014-03-02T08:58:38Z</time>
      </trkpt>
      <trkpt lat="41.629600020" lon="2.513461690">
        <ele>370.40</ele>
        <time>2014-03-02T08:58:39Z</time>
      </trkpt>
      <trkpt lat="41.629601690" lon="2.513461690">
        <ele>370.40</ele>
        <time>2014-03-02T08:58:40Z</time>
      </trkpt>
      <trkpt lat="41.629601690" lon="2.513463360">
        <ele>370.30</ele>
        <time>2014-03-02T08:58:41Z</time>
      </trkpt>
      <trkpt lat="41.629603370" lon="2.513463360">
        <ele>370.30</ele>
        <time>2014-03-02T08:58:42Z</time>
      </trkpt>
      <trkpt lat="41.629605050" lon="2.513465040">
        <ele>369.70</ele>
        <time>2014-03-02T08:58:43Z</time>
      </trkpt>
      <trkpt lat="41.629605050" lon="2.513465040">
        <ele>369.20</ele>
        <time>2014-03-02T08:58:44Z</time>
      </trkpt>
      <trkpt lat="41.629606720" lon="2.513466710">
        <ele>369.10</ele>
        <time>2014-03-02T08:58:45Z</time>
      </trkpt>
      <trkpt lat="41.629608400" lon="2.513466710">
        <ele>369.00</ele>
        <time>2014-03-02T08:58:46Z</time>
      </trkpt>
      <trkpt lat="41.629610080" lon="2.513466710">
        <ele>369.20</ele>
        <time>2014-03-02T08:58:47Z</time>
      </trkpt>
      <trkpt lat="41.629611750" lon="2.513468390">
        <ele>369.30</ele>
        <time>2014-03-02T08:58:48Z</time>
      </trkpt>
      <trkpt lat="41.629613430" lon="2.513468390">
        <ele>369.40</ele>
        <time>2014-03-02T08:58:49Z</time>
      </trkpt>
      <trkpt lat="41.629615100" lon="2.513468390">
        <ele>369.80</ele>
        <time>2014-03-02T08:58:50Z</time>
      </trkpt>
      <trkpt lat="41.629618460" lon="2.513468390">
        <ele>370.00</ele>
        <time>2014-03-02T08:58:51Z</time>
      </trkpt>
      <trkpt lat="41.629620130" lon="2.513468390">
        <ele>370.30</ele>
        <time>2014-03-02T08:58:52Z</time>
      </trkpt>
      <trkpt lat="41.629621810" lon="2.513468390">
        <ele>370.60</ele>
        <time>2014-03-02T08:58:53Z</time>
      </trkpt>
      <trkpt lat="41.629625000" lon="2.513468390">
        <ele>370.30</ele>
        <time>2014-03-02T08:58:54Z</time>
      </trkpt>
      <trkpt lat="41.629626670" lon="2.513468390">
        <ele>370.20</ele>
        <time>2014-03-02T08:58:55Z</time>
      </trkpt>
      <trkpt lat="41.629628350" lon="2.513468390">
        <ele>370.00</ele>
        <time>2014-03-02T08:58:56Z</time>
      </trkpt>
      <trkpt lat="41.629630020" lon="2.513466710">
        <ele>370.00</ele>
        <time>2014-03-02T08:58:57Z</time>
      </trkpt>
      <trkpt lat="41.629631700" lon="2.513466710">
        <ele>370.00</ele>
        <time>2014-03-02T08:58:58Z</time>
      </trkpt>
      <trkpt lat="41.629633380" lon="2.513468390">
        <ele>370.00</ele>
        <time>2014-03-02T08:58:59Z</time>
      </trkpt>
      <trkpt lat="41.629633380" lon="2.513468390">
        <ele>370.00</ele>
        <time>2014-03-02T08:59:00Z</time>
      </trkpt>
      <trkpt lat="41.629633380" lon="2.513468390">
        <ele>370.00</ele>
        <time>2014-03-02T08:59:01Z</time>
      </trkpt>
      <trkpt lat="41.629635050" lon="2.513468390">
        <ele>370.30</ele>
        <time>2014-03-02T08:59:02Z</time>
      </trkpt>
      <trkpt lat="41.629635050" lon="2.513470070">
        <ele>370.60</ele>
        <time>2014-03-02T08:59:03Z</time>
      </trkpt>
      <trkpt lat="41.629635050" lon="2.513470070">
        <ele>370.50</ele>
        <time>2014-03-02T08:59:04Z</time>
      </trkpt>
      <trkpt lat="41.629635050" lon="2.513470070">
        <ele>370.30</ele>
        <time>2014-03-02T08:59:05Z</time>
      </trkpt>
      <trkpt lat="41.629636730" lon="2.513471740">
        <ele>370.10</ele>
        <time>2014-03-02T08:59:06Z</time>
      </trkpt>
      <trkpt lat="41.629635050" lon="2.513471740">
        <ele>369.90</ele>
        <time>2014-03-02T08:59:07Z</time>
      </trkpt>
      <trkpt lat="41.629635050" lon="2.513473420">
        <ele>369.80</ele>
        <time>2014-03-02T08:59:08Z</time>
      </trkpt>
      <trkpt lat="41.629635050" lon="2.513473420">
        <ele>369.80</ele>
        <time>2014-03-02T08:59:09Z</time>
      </trkpt>
      <trkpt lat="41.629635050" lon="2.513473420">
        <ele>369.80</ele>
        <time>2014-03-02T08:59:10Z</time>
      </trkpt>
      <trkpt lat="41.629633380" lon="2.513475100">
        <ele>370.00</ele>
        <time>2014-03-02T08:59:11Z</time>
      </trkpt>
      <trkpt lat="41.629633380" lon="2.513475100">
        <ele>370.10</ele>
        <time>2014-03-02T08:59:12Z</time>
      </trkpt>
      <trkpt lat="41.629631700" lon="2.513476770">
        <ele>370.20</ele>
        <time>2014-03-02T08:59:13Z</time>
      </trkpt>
      <trkpt lat="41.629631700" lon="2.513476770">
        <ele>370.40</ele>
        <time>2014-03-02T08:59:14Z</time>
      </trkpt>
      <trkpt lat="41.629631700" lon="2.513476770">
        <ele>370.60</ele>
        <time>2014-03-02T08:59:15Z</time>
      </trkpt>
      <trkpt lat="41.629630020" lon="2.513478450">
        <ele>370.60</ele>
        <time>2014-03-02T08:59:16Z</time>
      </trkpt>
      <trkpt lat="41.629628350" lon="2.513480130">
        <ele>370.50</ele>
        <time>2014-03-02T08:59:17Z</time>
      </trkpt>
      <trkpt lat="41.629628350" lon="2.513480130">
        <ele>370.50</ele>
        <time>2014-03-02T08:59:18Z</time>
      </trkpt>
      <trkpt lat="41.629626670" lon="2.513481800">
        <ele>370.40</ele>
        <time>2014-03-02T08:59:19Z</time>
      </trkpt>
      <trkpt lat="41.629626670" lon="2.513483480">
        <ele>370.40</ele>
        <time>2014-03-02T08:59:20Z</time>
      </trkpt>
      <trkpt lat="41.629626670" lon="2.513483480">
        <ele>370.20</ele>
        <time>2014-03-02T08:59:21Z</time>
      </trkpt>
      <trkpt lat="41.629625000" lon="2.513485150">
        <ele>370.10</ele>
        <time>2014-03-02T08:59:22Z</time>
      </trkpt>
      <trkpt lat="41.629625000" lon="2.513486660">
        <ele>370.20</ele>
        <time>2014-03-02T08:59:23Z</time>
      </trkpt>
      <trkpt lat="41.629623490" lon="2.513488340">
        <ele>370.30</ele>
        <time>2014-03-02T08:59:24Z</time>
      </trkpt>
      <trkpt lat="41.629621810" lon="2.513490020">
        <ele>370.20</ele>
        <time>2014-03-02T08:59:25Z</time>
      </trkpt>
      <trkpt lat="41.629620130" lon="2.513491690">
        <ele>370.10</ele>
        <time>2014-03-02T08:59:26Z</time>
      </trkpt>
      <trkpt lat="41.629618460" lon="2.513493370">
        <ele>370.00</ele>
        <time>2014-03-02T08:59:27Z</time>
      </trkpt>
      <trkpt lat="41.629616780" lon="2.513493370">
        <ele>370.50</ele>
        <time>2014-03-02T08:59:28Z</time>
      </trkpt>
      <trkpt lat="41.629615100" lon="2.513495050">
        <ele>370.80</ele>
        <time>2014-03-02T08:59:29Z</time>
      </trkpt>
      <trkpt lat="41.629615100" lon="2.513495050">
        <ele>370.90</ele>
        <time>2014-03-02T08:59:30Z</time>
      </trkpt>
      <trkpt lat="41.629615100" lon="2.513496720">
        <ele>370.90</ele>
        <time>2014-03-02T08:59:31Z</time>
      </trkpt>
      <trkpt lat="41.629615100" lon="2.513496720">
        <ele>370.40</ele>
        <time>2014-03-02T08:59:32Z</time>
      </trkpt>
      <trkpt lat="41.629616780" lon="2.513496720">
        <ele>370.10</ele>
        <time>2014-03-02T08:59:33Z</time>
      </trkpt>
      <trkpt lat="41.629618460" lon="2.513496720">
        <ele>369.80</ele>
        <time>2014-03-02T08:59:34Z</time>
      </trkpt>
      <trkpt lat="41.629618460" lon="2.513496720">
        <ele>370.00</ele>
        <time>2014-03-02T08:59:35Z</time>
      </trkpt>
      <trkpt lat="41.629618460" lon="2.513496720">
        <ele>370.20</ele>
        <time>2014-03-02T08:59:36Z</time>
      </trkpt>
      <trkpt lat="41.629621810" lon="2.513496720">
        <ele>370.30</ele>
        <time>2014-03-02T08:59:37Z</time>
      </trkpt>
      <trkpt lat="41.629621810" lon="2.513496720">
        <ele>370.30</ele>
        <time>2014-03-02T08:59:38Z</time>
      </trkpt>
      <trkpt lat="41.629621810" lon="2.513495050">
        <ele>370.40</ele>
        <time>2014-03-02T08:59:39Z</time>
      </trkpt>
      <trkpt lat="41.629623490" lon="2.513495050">
        <ele>370.70</ele>
        <time>2014-03-02T08:59:40Z</time>
      </trkpt>
      <trkpt lat="41.629625000" lon="2.513495050">
        <ele>371.00</ele>
        <time>2014-03-02T08:59:41Z</time>
      </trkpt>
      <trkpt lat="41.629626670" lon="2.513493370">
        <ele>370.90</ele>
        <time>2014-03-02T08:59:42Z</time>
      </trkpt>
      <trkpt lat="41.629626670" lon="2.513493370">
        <ele>370.80</ele>
        <time>2014-03-02T08:59:43Z</time>
      </trkpt>
      <trkpt lat="41.629628350" lon="2.513493370">
        <ele>370.70</ele>
        <time>2014-03-02T08:59:44Z</time>
      </trkpt>
      <trkpt lat="41.629628350" lon="2.513493370">
        <ele>370.60</ele>
        <time>2014-03-02T08:59:45Z</time>
      </trkpt>
      <trkpt lat="41.629628350" lon="2.513491690">
        <ele>370.50</ele>
        <time>2014-03-02T08:59:46Z</time>
      </trkpt>
      <trkpt lat="41.629628350" lon="2.513491690">
        <ele>370.20</ele>
        <time>2014-03-02T08:59:47Z</time>
      </trkpt>
      <trkpt lat="41.629628350" lon="2.513491690">
        <ele>369.90</ele>
        <time>2014-03-02T08:59:48Z</time>
      </trkpt>
      <trkpt lat="41.629630020" lon="2.513490020">
        <ele>370.00</ele>
        <time>2014-03-02T08:59:49Z</time>
      </trkpt>
      <trkpt lat="41.629631700" lon="2.513490020">
        <ele>370.00</ele>
        <time>2014-03-02T08:59:50Z</time>
      </trkpt>
      <trkpt lat="41.629631700" lon="2.513490020">
        <ele>370.00</ele>
        <time>2014-03-02T08:59:51Z</time>
      </trkpt>
      <trkpt lat="41.629631700" lon="2.513490020">
        <ele>370.40</ele>
        <time>2014-03-02T08:59:52Z</time>
      </trkpt>
      <trkpt lat="41.629631700" lon="2.513490020">
        <ele>370.60</ele>
        <time>2014-03-02T08:59:53Z</time>
      </trkpt>
      <trkpt lat="41.629631700" lon="2.513490020">
        <ele>370.60</ele>
        <time>2014-03-02T08:59:54Z</time>
      </trkpt>
      <trkpt lat="41.629633380" lon="2.513490020">
        <ele>370.50</ele>
        <time>2014-03-02T08:59:55Z</time>
      </trkpt>
      <trkpt lat="41.629636730" lon="2.513490020">
        <ele>370.40</ele>
        <time>2014-03-02T08:59:56Z</time>
      </trkpt>
      <trkpt lat="41.629640080" lon="2.513490020">
        <ele>370.30</ele>
        <time>2014-03-02T08:59:57Z</time>
      </trkpt>
      <trkpt lat="41.629645110" lon="2.513488340">
        <ele>370.20</ele>
        <time>2014-03-02T08:59:58Z</time>
      </trkpt>
      <trkpt lat="41.629650140" lon="2.513488340">
        <ele>370.00</ele>
        <time>2014-03-02T08:59:59Z</time>
      </trkpt>
      <trkpt lat="41.629655000" lon="2.513488340">
        <ele>369.80</ele>
        <time>2014-03-02T09:00:00Z</time>
      </trkpt>
      <trkpt lat="41.629661710" lon="2.513488340">
        <ele>370.20</ele>
        <time>2014-03-02T09:00:01Z</time>
      </trkpt>
      <trkpt lat="41.629666740" lon="2.513488340">
        <ele>370.50</ele>
        <time>2014-03-02T09:00:02Z</time>
      </trkpt>
      <trkpt lat="41.629671770" lon="2.513488340">
        <ele>370.30</ele>
        <time>2014-03-02T09:00:03Z</time>
      </trkpt>
      <trkpt lat="41.629678470" lon="2.513488340">
        <ele>370.10</ele>
        <time>2014-03-02T09:00:04Z</time>
      </trkpt>
      <trkpt lat="41.629685010" lon="2.513488340">
        <ele>369.90</ele>
        <time>2014-03-02T09:00:05Z</time>
      </trkpt>
      <trkpt lat="41.629690040" lon="2.513488340">
        <ele>370.00</ele>
        <time>2014-03-02T09:00:06Z</time>
      </trkpt>
      <trkpt lat="41.629698420" lon="2.513488340">
        <ele>370.00</ele>
        <time>2014-03-02T09:00:07Z</time>
      </trkpt>
      <trkpt lat="41.629705130" lon="2.513488340">
        <ele>369.90</ele>
        <time>2014-03-02T09:00:08Z</time>
      </trkpt>
      <trkpt lat="41.629711660" lon="2.513488340">
        <ele>369.90</ele>
        <time>2014-03-02T09:00:09Z</time>
      </trkpt>
      <trkpt lat="41.629718370" lon="2.513488340">
        <ele>369.80</ele>
        <time>2014-03-02T09:00:10Z</time>
      </trkpt>
      <trkpt lat="41.629725070" lon="2.513488340">
        <ele>370.00</ele>
        <time>2014-03-02T09:00:11Z</time>
      </trkpt>
      <trkpt lat="41.629731780" lon="2.513488340">
        <ele>370.20</ele>
        <time>2014-03-02T09:00:12Z</time>
      </trkpt>
      <trkpt lat="41.629740160" lon="2.513488340">
        <ele>370.30</ele>
        <time>2014-03-02T09:00:13Z</time>
      </trkpt>
      <trkpt lat="41.629746700" lon="2.513488340">
        <ele>370.40</ele>
        <time>2014-03-02T09:00:14Z</time>
      </trkpt>
      <trkpt lat="41.629751730" lon="2.513488340">
        <ele>370.40</ele>
        <time>2014-03-02T09:00:15Z</time>
      </trkpt>
      <trkpt lat="41.629758430" lon="2.513488340">
        <ele>370.40</ele>
        <time>2014-03-02T09:00:16Z</time>
      </trkpt>
      <trkpt lat="41.629763460" lon="2.513488340">
        <ele>370.50</ele>
        <time>2014-03-02T09:00:17Z</time>
      </trkpt>
      <trkpt lat="41.629766820" lon="2.513488340">
        <ele>370.80</ele>
        <time>2014-03-02T09:00:18Z</time>
      </trkpt>
      <trkpt lat="41.629770000" lon="2.513488340">
        <ele>371.00</ele>
        <time>2014-03-02T09:00:19Z</time>
      </trkpt>
      <trkpt lat="41.629773350" lon="2.513488340">
        <ele>370.60</ele>
        <time>2014-03-02T09:00:20Z</time>
      </trkpt>
      <trkpt lat="41.629776710" lon="2.513488340">
        <ele>370.30</ele>
        <time>2014-03-02T09:00:21Z</time>
      </trkpt>
      <trkpt lat="41.629780060" lon="2.513488340">
        <ele>370.60</ele>
        <time>2014-03-02T09:00:22Z</time>
      </trkpt>
      <trkpt lat="41.629783410" lon="2.513488340">
        <ele>370.80</ele>
        <time>2014-03-02T09:00:23Z</time>
      </trkpt>
      <trkpt lat="41.629785090" lon="2.513488340">
        <ele>371.00</ele>
        <time>2014-03-02T09:00:24Z</time>
      </trkpt>
      <trkpt lat="41.629786770" lon="2.513488340">
        <ele>370.70</ele>
        <time>2014-03-02T09:00:25Z</time>
      </trkpt>
      <trkpt lat="41.629788440" lon="2.513488340">
        <ele>370.50</ele>
        <time>2014-03-02T09:00:26Z</time>
      </trkpt>
      <trkpt lat="41.629788440" lon="2.513488340">
        <ele>370.50</ele>
        <time>2014-03-02T09:00:27Z</time>
      </trkpt>
      <trkpt lat="41.629790120" lon="2.513488340">
        <ele>370.50</ele>
        <time>2014-03-02T09:00:28Z</time>
      </trkpt>
      <trkpt lat="41.629790120" lon="2.513488340">
        <ele>370.90</ele>
        <time>2014-03-02T09:00:29Z</time>
      </trkpt>
      <trkpt lat="41.629790120" lon="2.513488340">
        <ele>371.10</ele>
        <time>2014-03-02T09:00:30Z</time>
      </trkpt>
      <trkpt lat="41.629790120" lon="2.513488340">
        <ele>371.30</ele>
        <time>2014-03-02T09:00:31Z</time>
      </trkpt>
      <trkpt lat="41.629790120" lon="2.513488340">
        <ele>371.00</ele>
        <time>2014-03-02T09:00:32Z</time>
      </trkpt>
      <trkpt lat="41.629790120" lon="2.513488340">
        <ele>370.80</ele>
        <time>2014-03-02T09:00:33Z</time>
      </trkpt>
      <trkpt lat="41.629788440" lon="2.513488340">
        <ele>370.30</ele>
        <time>2014-03-02T09:00:34Z</time>
      </trkpt>
      <trkpt lat="41.629788440" lon="2.513488340">
        <ele>370.00</ele>
        <time>2014-03-02T09:00:35Z</time>
      </trkpt>
      <trkpt lat="41.629786770" lon="2.513488340">
        <ele>369.70</ele>
        <time>2014-03-02T09:00:36Z</time>
      </trkpt>
      <trkpt lat="41.629785090" lon="2.513488340">
        <ele>369.80</ele>
        <time>2014-03-02T09:00:37Z</time>
      </trkpt>
      <trkpt lat="41.629783410" lon="2.513488340">
        <ele>369.80</ele>
        <time>2014-03-02T09:00:38Z</time>
      </trkpt>
      <trkpt lat="41.629781740" lon="2.513490020">
        <ele>369.50</ele>
        <time>2014-03-02T09:00:39Z</time>
      </trkpt>
      <trkpt lat="41.629780060" lon="2.513490020">
        <ele>369.30</ele>
        <time>2014-03-02T09:00:40Z</time>
      </trkpt>
      <trkpt lat="41.629778380" lon="2.513490020">
        <ele>369.40</ele>
        <time>2014-03-02T09:00:41Z</time>
      </trkpt>
      <trkpt lat="41.629776710" lon="2.513490020">
        <ele>369.50</ele>
        <time>2014-03-02T09:00:42Z</time>
      </trkpt>
      <trkpt lat="41.629773350" lon="2.513490020">
        <ele>369.60</ele>
        <time>2014-03-02T09:00:43Z</time>
      </trkpt>
      <trkpt lat="41.629770000" lon="2.513491690">
        <ele>369.90</ele>
        <time>2014-03-02T09:00:44Z</time>
      </trkpt>
      <trkpt lat="41.629763460" lon="2.513491690">
        <ele>370.10</ele>
        <time>2014-03-02T09:00:45Z</time>
      </trkpt>
      <trkpt lat="41.629760110" lon="2.513490020">
        <ele>370.10</ele>
        <time>2014-03-02T09:00:46Z</time>
      </trkpt>
      <trkpt lat="41.629755080" lon="2.513491690">
        <ele>370.20</ele>
        <time>2014-03-02T09:00:47Z</time>
      </trkpt>
      <trkpt lat="41.629750050" lon="2.513495050">
        <ele>370.20</ele>
        <time>2014-03-02T09:00:48Z</time>
      </trkpt>
      <trkpt lat="41.629745020" lon="2.513495050">
        <ele>370.10</ele>
        <time>2014-03-02T09:00:49Z</time>
      </trkpt>
      <trkpt lat="41.629738490" lon="2.513495050">
        <ele>369.90</ele>
        <time>2014-03-02T09:00:50Z</time>
      </trkpt>
      <trkpt lat="41.629733460" lon="2.513496720">
        <ele>370.00</ele>
        <time>2014-03-02T09:00:51Z</time>
      </trkpt>
      <trkpt lat="41.629726750" lon="2.513495050">
        <ele>370.00</ele>
        <time>2014-03-02T09:00:52Z</time>
      </trkpt>
      <trkpt lat="41.629721720" lon="2.513495050">
        <ele>370.40</ele>
        <time>2014-03-02T09:00:53Z</time>
      </trkpt>
      <trkpt lat="41.629715020" lon="2.513495050">
        <ele>370.60</ele>
        <time>2014-03-02T09:00:54Z</time>
      </trkpt>
      <trkpt lat="41.629710160" lon="2.513493370">
        <ele>370.80</ele>
        <time>2014-03-02T09:00:55Z</time>
      </trkpt>
      <trkpt lat="41.629705130" lon="2.513493370">
        <ele>371.10</ele>
        <time>2014-03-02T09:00:56Z</time>
      </trkpt>
      <trkpt lat="41.629700100" lon="2.513495050">
        <ele>371.30</ele>
        <time>2014-03-02T09:00:57Z</time>
      </trkpt>
      <trkpt lat="41.629695070" lon="2.513496720">
        <ele>371.40</ele>
        <time>2014-03-02T09:00:58Z</time>
      </trkpt>
      <trkpt lat="41.629688360" lon="2.513498400">
        <ele>371.40</ele>
        <time>2014-03-02T09:00:59Z</time>
      </trkpt>
      <trkpt lat="41.629681820" lon="2.513500070">
        <ele>371.40</ele>
        <time>2014-03-02T09:01:00Z</time>
      </trkpt>
      <trkpt lat="41.629675120" lon="2.513501750">
        <ele>371.40</ele>
        <time>2014-03-02T09:01:01Z</time>
      </trkpt>
      <trkpt lat="41.629670090" lon="2.513503430">
        <ele>371.40</ele>
        <time>2014-03-02T09:01:02Z</time>
      </trkpt>
      <trkpt lat="41.629665060" lon="2.513503430">
        <ele>371.50</ele>
        <time>2014-03-02T09:01:03Z</time>
      </trkpt>
      <trkpt lat="41.629661710" lon="2.513503430">
        <ele>371.50</ele>
        <time>2014-03-02T09:01:04Z</time>
      </trkpt>
      <trkpt lat="41.629656680" lon="2.513505100">
        <ele>371.20</ele>
        <time>2014-03-02T09:01:05Z</time>
      </trkpt>
      <trkpt lat="41.629653490" lon="2.513505100">
        <ele>371.00</ele>
        <time>2014-03-02T09:01:06Z</time>
      </trkpt>
      <trkpt lat="41.629650140" lon="2.513505100">
        <ele>371.30</ele>
        <time>2014-03-02T09:01:07Z</time>
      </trkpt>
      <trkpt lat="41.629646790" lon="2.513505100">
        <ele>371.40</ele>
        <time>2014-03-02T09:01:08Z</time>
      </trkpt>
      <trkpt lat="41.629645110" lon="2.513505100">
        <ele>371.50</ele>
        <time>2014-03-02T09:01:09Z</time>
      </trkpt>
      <trkpt lat="41.629641760" lon="2.513505100">
        <ele>371.20</ele>
        <time>2014-03-02T09:01:10Z</time>
      </trkpt>
      <trkpt lat="41.629640080" lon="2.513506780">
        <ele>370.90</ele>
        <time>2014-03-02T09:01:11Z</time>
      </trkpt>
      <trkpt lat="41.629636730" lon="2.513506780">
        <ele>371.20</ele>
        <time>2014-03-02T09:01:12Z</time>
      </trkpt>
      <trkpt lat="41.629635050" lon="2.513506780">
        <ele>371.40</ele>
        <time>2014-03-02T09:01:13Z</time>
      </trkpt>
      <trkpt lat="41.629633380" lon="2.513506780">
        <ele>371.50</ele>
        <time>2014-03-02T09:01:14Z</time>
      </trkpt>
      <trkpt lat="41.629630020" lon="2.513508460">
        <ele>371.60</ele>
        <time>2014-03-02T09:01:15Z</time>
      </trkpt>
      <trkpt lat="41.629628350" lon="2.513508460">
        <ele>371.70</ele>
        <time>2014-03-02T09:01:16Z</time>
      </trkpt>
      <trkpt lat="41.629626670" lon="2.513508460">
        <ele>371.60</ele>
        <time>2014-03-02T09:01:17Z</time>
      </trkpt>
      <trkpt lat="41.629623490" lon="2.513508460">
        <ele>371.60</ele>
        <time>2014-03-02T09:01:18Z</time>
      </trkpt>
      <trkpt lat="41.629621810" lon="2.513510130">
        <ele>371.30</ele>
        <time>2014-03-02T09:01:19Z</time>
      </trkpt>
      <trkpt lat="41.629620130" lon="2.513510130">
        <ele>371.10</ele>
        <time>2014-03-02T09:01:20Z</time>
      </trkpt>
      <trkpt lat="41.629618460" lon="2.513510130">
        <ele>371.00</ele>
        <time>2014-03-02T09:01:21Z</time>
      </trkpt>
      <trkpt lat="41.629616780" lon="2.513510130">
        <ele>371.20</ele>
        <time>2014-03-02T09:01:22Z</time>
      </trkpt>
      <trkpt lat="41.629615100" lon="2.513510130">
        <ele>371.40</ele>
        <time>2014-03-02T09:01:23Z</time>
      </trkpt>
      <trkpt lat="41.629613430" lon="2.513503430">
        <ele>371.20</ele>
        <time>2014-03-02T09:01:24Z</time>
      </trkpt>
      <trkpt lat="41.629613430" lon="2.513501750">
        <ele>371.00</ele>
        <time>2014-03-02T09:01:25Z</time>
      </trkpt>
      <trkpt lat="41.629611750" lon="2.513496720">
        <ele>371.10</ele>
        <time>2014-03-02T09:01:26Z</time>
      </trkpt>
      <trkpt lat="41.629610080" lon="2.513488340">
        <ele>371.30</ele>
        <time>2014-03-02T09:01:27Z</time>
      </trkpt>
      <trkpt lat="41.629606720" lon="2.513480130">
        <ele>371.40</ele>
        <time>2014-03-02T09:01:28Z</time>
      </trkpt>
      <trkpt lat="41.629605050" lon="2.513471740">
        <ele>371.30</ele>
        <time>2014-03-02T09:01:29Z</time>
      </trkpt>
      <trkpt lat="41.629601690" lon="2.513463360">
        <ele>371.20</ele>
        <time>2014-03-02T09:01:30Z</time>
      </trkpt>
      <trkpt lat="41.629598340" lon="2.513455150">
        <ele>371.30</ele>
        <time>2014-03-02T09:01:31Z</time>
      </trkpt>
      <trkpt lat="41.629596660" lon="2.513446770">
        <ele>371.30</ele>
        <time>2014-03-02T09:01:32Z</time>
      </trkpt>
      <trkpt lat="41.629593480" lon="2.513438380">
        <ele>371.30</ele>
        <time>2014-03-02T09:01:33Z</time>
      </trkpt>
      <trkpt lat="41.629590130" lon="2.513433350">
        <ele>371.20</ele>
        <time>2014-03-02T09:01:34Z</time>
      </trkpt>
      <trkpt lat="41.629586770" lon="2.513431680">
        <ele>371.20</ele>
        <time>2014-03-02T09:01:35Z</time>
      </trkpt>
      <trkpt lat="41.629585100" lon="2.513430000">
        <ele>371.20</ele>
        <time>2014-03-02T09:01:36Z</time>
      </trkpt>
      <trkpt lat="41.629581740" lon="2.513428490">
        <ele>371.20</ele>
        <time>2014-03-02T09:01:37Z</time>
      </trkpt>
      <trkpt lat="41.629580070" lon="2.513421790">
        <ele>371.30</ele>
        <time>2014-03-02T09:01:38Z</time>
      </trkpt>
      <trkpt lat="41.629576720" lon="2.513410050">
        <ele>371.40</ele>
        <time>2014-03-02T09:01:39Z</time>
      </trkpt>
      <trkpt lat="41.629575040" lon="2.513398490">
        <ele>371.40</ele>
        <time>2014-03-02T09:01:40Z</time>
      </trkpt>
      <trkpt lat="41.629573360" lon="2.513388430">
        <ele>371.80</ele>
        <time>2014-03-02T09:01:41Z</time>
      </trkpt>
      <trkpt lat="41.629570010" lon="2.513376690">
        <ele>372.10</ele>
        <time>2014-03-02T09:01:42Z</time>
      </trkpt>
      <trkpt lat="41.629568330" lon="2.513368480">
        <ele>372.20</ele>
        <time>2014-03-02T09:01:43Z</time>
      </trkpt>
      <trkpt lat="41.629566820" lon="2.513360100">
        <ele>372.30</ele>
        <time>2014-03-02T09:01:44Z</time>
      </trkpt>
      <trkpt lat="41.629563470" lon="2.513348360">
        <ele>372.40</ele>
        <time>2014-03-02T09:01:45Z</time>
      </trkpt>
      <trkpt lat="41.629560120" lon="2.513338470">
        <ele>372.50</ele>
        <time>2014-03-02T09:01:46Z</time>
      </trkpt>
      <trkpt lat="41.629555090" lon="2.513331770">
        <ele>372.50</ele>
        <time>2014-03-02T09:01:47Z</time>
      </trkpt>
      <trkpt lat="41.629550060" lon="2.513326740">
        <ele>372.60</ele>
        <time>2014-03-02T09:01:48Z</time>
      </trkpt>
      <trkpt lat="41.629543360" lon="2.513325060">
        <ele>372.70</ele>
        <time>2014-03-02T09:01:49Z</time>
      </trkpt>
      <trkpt lat="41.629538490" lon="2.513326740">
        <ele>372.80</ele>
        <time>2014-03-02T09:01:50Z</time>
      </trkpt>
      <trkpt lat="41.629533460" lon="2.513330090">
        <ele>372.90</ele>
        <time>2014-03-02T09:01:51Z</time>
      </trkpt>
      <trkpt lat="41.629528440" lon="2.513335120">
        <ele>372.90</ele>
        <time>2014-03-02T09:01:52Z</time>
      </trkpt>
      <trkpt lat="41.629523410" lon="2.513343330">
        <ele>373.30</ele>
        <time>2014-03-02T09:01:53Z</time>
      </trkpt>
      <trkpt lat="41.629520050" lon="2.513353390">
        <ele>373.70</ele>
        <time>2014-03-02T09:01:54Z</time>
      </trkpt>
      <trkpt lat="41.629515020" lon="2.513365130">
        <ele>373.40</ele>
        <time>2014-03-02T09:01:55Z</time>
      </trkpt>
      <trkpt lat="41.629511670" lon="2.513375020">
        <ele>373.30</ele>
        <time>2014-03-02T09:01:56Z</time>
      </trkpt>
      <trkpt lat="41.629508490" lon="2.513381720">
        <ele>373.50</ele>
        <time>2014-03-02T09:01:57Z</time>
      </trkpt>
      <trkpt lat="41.629503460" lon="2.513393460">
        <ele>373.60</ele>
        <time>2014-03-02T09:01:58Z</time>
      </trkpt>
      <trkpt lat="41.629498430" lon="2.513401670">
        <ele>373.70</ele>
        <time>2014-03-02T09:01:59Z</time>
      </trkpt>
      <trkpt lat="41.629496750" lon="2.513413410">
        <ele>373.90</ele>
        <time>2014-03-02T09:02:00Z</time>
      </trkpt>
      <trkpt lat="41.629493400" lon="2.513423460">
        <ele>374.10</ele>
        <time>2014-03-02T09:02:01Z</time>
      </trkpt>
      <trkpt lat="41.629488370" lon="2.513431680">
        <ele>374.50</ele>
        <time>2014-03-02T09:02:02Z</time>
      </trkpt>
      <trkpt lat="41.629485020" lon="2.513441740">
        <ele>374.80</ele>
        <time>2014-03-02T09:02:03Z</time>
      </trkpt>
      <trkpt lat="41.629481660" lon="2.513448440">
        <ele>374.60</ele>
        <time>2014-03-02T09:02:04Z</time>
      </trkpt>
      <trkpt lat="41.629478480" lon="2.513456820">
        <ele>374.30</ele>
        <time>2014-03-02T09:02:05Z</time>
      </trkpt>
      <trkpt lat="41.629476800" lon="2.513461690">
        <ele>374.20</ele>
        <time>2014-03-02T09:02:06Z</time>
      </trkpt>
      <trkpt lat="41.629475130" lon="2.513463360">
        <ele>374.60</ele>
        <time>2014-03-02T09:02:07Z</time>
      </trkpt>
      <trkpt lat="41.629473450" lon="2.513465040">
        <ele>374.80</ele>
        <time>2014-03-02T09:02:08Z</time>
      </trkpt>
      <trkpt lat="41.629470100" lon="2.513465040">
        <ele>375.00</ele>
        <time>2014-03-02T09:02:09Z</time>
      </trkpt>
      <trkpt lat="41.629468420" lon="2.513466710">
        <ele>375.10</ele>
        <time>2014-03-02T09:02:10Z</time>
      </trkpt>
      <trkpt lat="41.629466740" lon="2.513468390">
        <ele>375.20</ele>
        <time>2014-03-02T09:02:11Z</time>
      </trkpt>
      <trkpt lat="41.629465070" lon="2.513470070">
        <ele>375.50</ele>
        <time>2014-03-02T09:02:12Z</time>
      </trkpt>
      <trkpt lat="41.629463390" lon="2.513465040">
        <ele>375.70</ele>
        <time>2014-03-02T09:02:13Z</time>
      </trkpt>
      <trkpt lat="41.629461720" lon="2.513461690">
        <ele>376.10</ele>
        <time>2014-03-02T09:02:14Z</time>
      </trkpt>
      <trkpt lat="41.629458360" lon="2.513458330">
        <ele>376.40</ele>
        <time>2014-03-02T09:02:15Z</time>
      </trkpt>
      <trkpt lat="41.629461720" lon="2.513453470">
        <ele>376.20</ele>
        <time>2014-03-02T09:02:16Z</time>
      </trkpt>
      <trkpt lat="41.629461720" lon="2.513453470">
        <ele>376.00</ele>
        <time>2014-03-02T09:02:17Z</time>
      </trkpt>
      <trkpt lat="41.629461720" lon="2.513451790">
        <ele>375.80</ele>
        <time>2014-03-02T09:02:18Z</time>
      </trkpt>
      <trkpt lat="41.629460040" lon="2.513453470">
        <ele>376.10</ele>
        <time>2014-03-02T09:02:19Z</time>
      </trkpt>
      <trkpt lat="41.629456690" lon="2.513453470">
        <ele>376.40</ele>
        <time>2014-03-02T09:02:20Z</time>
      </trkpt>
      <trkpt lat="41.629455010" lon="2.513453470">
        <ele>376.00</ele>
        <time>2014-03-02T09:02:21Z</time>
      </trkpt>
      <trkpt lat="41.629455010" lon="2.513453470">
        <ele>375.80</ele>
        <time>2014-03-02T09:02:22Z</time>
      </trkpt>
      <trkpt lat="41.629455010" lon="2.513455150">
        <ele>375.70</ele>
        <time>2014-03-02T09:02:23Z</time>
      </trkpt>
      <trkpt lat="41.629455010" lon="2.513456820">
        <ele>375.70</ele>
        <time>2014-03-02T09:02:24Z</time>
      </trkpt>
      <trkpt lat="41.629456690" lon="2.513455150">
        <ele>375.70</ele>
        <time>2014-03-02T09:02:25Z</time>
      </trkpt>
      <trkpt lat="41.629461720" lon="2.513448440">
        <ele>376.00</ele>
        <time>2014-03-02T09:02:26Z</time>
      </trkpt>
      <trkpt lat="41.629471770" lon="2.513436710">
        <ele>376.30</ele>
        <time>2014-03-02T09:02:27Z</time>
      </trkpt>
      <trkpt lat="41.629480160" lon="2.513423460">
        <ele>376.40</ele>
        <time>2014-03-02T09:02:28Z</time>
      </trkpt>
      <trkpt lat="41.629485020" lon="2.513405020">
        <ele>376.50</ele>
        <time>2014-03-02T09:02:29Z</time>
      </trkpt>
      <trkpt lat="41.629493400" lon="2.513388430">
        <ele>376.60</ele>
        <time>2014-03-02T09:02:30Z</time>
      </trkpt>
      <trkpt lat="41.629496750" lon="2.513366800">
        <ele>376.30</ele>
        <time>2014-03-02T09:02:31Z</time>
      </trkpt>
      <trkpt lat="41.629501780" lon="2.513346690">
        <ele>376.10</ele>
        <time>2014-03-02T09:02:32Z</time>
      </trkpt>
      <trkpt lat="41.629506810" lon="2.513328410">
        <ele>375.80</ele>
        <time>2014-03-02T09:02:33Z</time>
      </trkpt>
      <trkpt lat="41.629510000" lon="2.513313490">
        <ele>375.50</ele>
        <time>2014-03-02T09:02:34Z</time>
      </trkpt>
      <trkpt lat="41.629511670" lon="2.513291700">
        <ele>375.10</ele>
        <time>2014-03-02T09:02:35Z</time>
      </trkpt>
      <trkpt lat="41.629513350" lon="2.513266720">
        <ele>374.80</ele>
        <time>2014-03-02T09:02:36Z</time>
      </trkpt>
      <trkpt lat="41.629518380" lon="2.513243420">
        <ele>374.60</ele>
        <time>2014-03-02T09:02:37Z</time>
      </trkpt>
      <trkpt lat="41.629523410" lon="2.513223470">
        <ele>374.70</ele>
        <time>2014-03-02T09:02:38Z</time>
      </trkpt>
      <trkpt lat="41.629526760" lon="2.513203360">
        <ele>374.80</ele>
        <time>2014-03-02T09:02:39Z</time>
      </trkpt>
      <trkpt lat="41.629533460" lon="2.513180050">
        <ele>374.00</ele>
        <time>2014-03-02T09:02:40Z</time>
      </trkpt>
      <trkpt lat="41.629543360" lon="2.513160100">
        <ele>373.40</ele>
        <time>2014-03-02T09:02:41Z</time>
      </trkpt>
      <trkpt lat="41.629548380" lon="2.513141660">
        <ele>373.20</ele>
        <time>2014-03-02T09:02:42Z</time>
      </trkpt>
      <trkpt lat="41.629558440" lon="2.513123390">
        <ele>373.00</ele>
        <time>2014-03-02T09:02:43Z</time>
      </trkpt>
      <trkpt lat="41.629560120" lon="2.513103440">
        <ele>372.80</ele>
        <time>2014-03-02T09:02:44Z</time>
      </trkpt>
      <trkpt lat="41.629561800" lon="2.513086680">
        <ele>372.60</ele>
        <time>2014-03-02T09:02:45Z</time>
      </trkpt>
      <trkpt lat="41.629565150" lon="2.513071760">
        <ele>372.40</ele>
        <time>2014-03-02T09:02:46Z</time>
      </trkpt>
      <trkpt lat="41.629566820" lon="2.513058350">
        <ele>372.30</ele>
        <time>2014-03-02T09:02:47Z</time>
      </trkpt>
      <trkpt lat="41.629566820" lon="2.513046780">
        <ele>372.20</ele>
        <time>2014-03-02T09:02:48Z</time>
      </trkpt>
      <trkpt lat="41.629566820" lon="2.513036720">
        <ele>372.10</ele>
        <time>2014-03-02T09:02:49Z</time>
      </trkpt>
      <trkpt lat="41.629563470" lon="2.513025160">
        <ele>371.80</ele>
        <time>2014-03-02T09:02:50Z</time>
      </trkpt>
      <trkpt lat="41.629560120" lon="2.513015100">
        <ele>371.70</ele>
        <time>2014-03-02T09:02:51Z</time>
      </trkpt>
      <trkpt lat="41.629556770" lon="2.513005040">
        <ele>371.30</ele>
        <time>2014-03-02T09:02:52Z</time>
      </trkpt>
      <trkpt lat="41.629553410" lon="2.512998330">
        <ele>371.00</ele>
        <time>2014-03-02T09:02:53Z</time>
      </trkpt>
      <trkpt lat="41.629550060" lon="2.512996830">
        <ele>370.70</ele>
        <time>2014-03-02T09:02:54Z</time>
      </trkpt>
      <trkpt lat="41.629550060" lon="2.512993470">
        <ele>370.40</ele>
        <time>2014-03-02T09:02:55Z</time>
      </trkpt>
      <trkpt lat="41.629550060" lon="2.512990120">
        <ele>370.20</ele>
        <time>2014-03-02T09:02:56Z</time>
      </trkpt>
      <trkpt lat="41.629548380" lon="2.512988440">
        <ele>369.70</ele>
        <time>2014-03-02T09:02:57Z</time>
      </trkpt>
      <trkpt lat="41.629546710" lon="2.512985090">
        <ele>369.30</ele>
        <time>2014-03-02T09:02:58Z</time>
      </trkpt>
      <trkpt lat="41.629523410" lon="2.512945020">
        <ele>369.00</ele>
        <time>2014-03-02T09:02:59Z</time>
      </trkpt>
      <trkpt lat="41.629520050" lon="2.512941670">
        <ele>368.70</ele>
        <time>2014-03-02T09:03:00Z</time>
      </trkpt>
      <trkpt lat="41.629520050" lon="2.512940000">
        <ele>368.70</ele>
        <time>2014-03-02T09:03:01Z</time>
      </trkpt>
      <trkpt lat="41.629518380" lon="2.512936810">
        <ele>368.60</ele>
        <time>2014-03-02T09:03:02Z</time>
      </trkpt>
      <trkpt lat="41.629515020" lon="2.512933460">
        <ele>368.60</ele>
        <time>2014-03-02T09:03:03Z</time>
      </trkpt>
      <trkpt lat="41.629508490" lon="2.512921720">
        <ele>368.60</ele>
        <time>2014-03-02T09:03:04Z</time>
      </trkpt>
      <trkpt lat="41.629498430" lon="2.512906800">
        <ele>368.60</ele>
        <time>2014-03-02T09:03:05Z</time>
      </trkpt>
      <trkpt lat="41.629488370" lon="2.512895070">
        <ele>368.60</ele>
        <time>2014-03-02T09:03:06Z</time>
      </trkpt>
      <trkpt lat="41.629475130" lon="2.512885010">
        <ele>368.50</ele>
        <time>2014-03-02T09:03:07Z</time>
      </trkpt>
      <trkpt lat="41.629461720" lon="2.512875120">
        <ele>368.50</ele>
        <time>2014-03-02T09:03:08Z</time>
      </trkpt>
      <trkpt lat="41.629446800" lon="2.512865060">
        <ele>368.40</ele>
        <time>2014-03-02T09:03:09Z</time>
      </trkpt>
      <trkpt lat="41.629433380" lon="2.512853490">
        <ele>368.30</ele>
        <time>2014-03-02T09:03:10Z</time>
      </trkpt>
      <trkpt lat="41.629426680" lon="2.512846790">
        <ele>368.10</ele>
        <time>2014-03-02T09:03:11Z</time>
      </trkpt>
      <trkpt lat="41.629425000" lon="2.512835050">
        <ele>367.90</ele>
        <time>2014-03-02T09:03:12Z</time>
      </trkpt>
      <trkpt lat="41.629426680" lon="2.512820130">
        <ele>368.10</ele>
        <time>2014-03-02T09:03:13Z</time>
      </trkpt>
      <trkpt lat="41.629431710" lon="2.512803370">
        <ele>368.30</ele>
        <time>2014-03-02T09:03:14Z</time>
      </trkpt>
      <trkpt lat="41.629435060" lon="2.512781750">
        <ele>368.40</ele>
        <time>2014-03-02T09:03:15Z</time>
      </trkpt>
      <trkpt lat="41.629443440" lon="2.512760120">
        <ele>368.00</ele>
        <time>2014-03-02T09:03:16Z</time>
      </trkpt>
      <trkpt lat="41.629448470" lon="2.512733470">
        <ele>367.70</ele>
        <time>2014-03-02T09:03:17Z</time>
      </trkpt>
      <trkpt lat="41.629455010" lon="2.512711670">
        <ele>367.70</ele>
        <time>2014-03-02T09:03:18Z</time>
      </trkpt>
      <trkpt lat="41.629458360" lon="2.512688370">
        <ele>367.80</ele>
        <time>2014-03-02T09:03:19Z</time>
      </trkpt>
      <trkpt lat="41.629461720" lon="2.512665070">
        <ele>367.50</ele>
        <time>2014-03-02T09:03:20Z</time>
      </trkpt>
      <trkpt lat="41.629465070" lon="2.512640090">
        <ele>367.40</ele>
        <time>2014-03-02T09:03:21Z</time>
      </trkpt>
      <trkpt lat="41.629471770" lon="2.512611760">
        <ele>367.20</ele>
        <time>2014-03-02T09:03:22Z</time>
      </trkpt>
      <trkpt lat="41.629476800" lon="2.512578400">
        <ele>367.60</ele>
        <time>2014-03-02T09:03:23Z</time>
      </trkpt>
      <trkpt lat="41.629480160" lon="2.512543360">
        <ele>367.80</ele>
        <time>2014-03-02T09:03:24Z</time>
      </trkpt>
      <trkpt lat="41.629480160" lon="2.512501790">
        <ele>367.90</ele>
        <time>2014-03-02T09:03:25Z</time>
      </trkpt>
      <trkpt lat="41.629481660" lon="2.512461720">
        <ele>368.00</ele>
        <time>2014-03-02T09:03:26Z</time>
      </trkpt>
      <trkpt lat="41.629481660" lon="2.512421830">
        <ele>367.80</ele>
        <time>2014-03-02T09:03:27Z</time>
      </trkpt>
      <trkpt lat="41.629480160" lon="2.512376730">
        <ele>367.60</ele>
        <time>2014-03-02T09:03:28Z</time>
      </trkpt>
      <trkpt lat="41.629470100" lon="2.512331800">
        <ele>367.50</ele>
        <time>2014-03-02T09:03:29Z</time>
      </trkpt>
      <trkpt lat="41.629461720" lon="2.512283360">
        <ele>367.20</ele>
        <time>2014-03-02T09:03:30Z</time>
      </trkpt>
      <trkpt lat="41.629455010" lon="2.512240110">
        <ele>367.00</ele>
        <time>2014-03-02T09:03:31Z</time>
      </trkpt>
      <trkpt lat="41.629448470" lon="2.512193340">
        <ele>367.00</ele>
        <time>2014-03-02T09:03:32Z</time>
      </trkpt>
      <trkpt lat="41.629436740" lon="2.512155110">
        <ele>366.90</ele>
        <time>2014-03-02T09:03:33Z</time>
      </trkpt>
      <trkpt lat="41.629420140" lon="2.512120080">
        <ele>366.90</ele>
        <time>2014-03-02T09:03:34Z</time>
      </trkpt>
      <trkpt lat="41.629401700" lon="2.512085040">
        <ele>366.60</ele>
        <time>2014-03-02T09:03:35Z</time>
      </trkpt>
      <trkpt lat="41.629385100" lon="2.512046820">
        <ele>366.30</ele>
        <time>2014-03-02T09:03:36Z</time>
      </trkpt>
      <trkpt lat="41.629365160" lon="2.512010110">
        <ele>365.80</ele>
        <time>2014-03-02T09:03:37Z</time>
      </trkpt>
      <trkpt lat="41.629341690" lon="2.511981780">
        <ele>365.40</ele>
        <time>2014-03-02T09:03:38Z</time>
      </trkpt>
      <trkpt lat="41.629318390" lon="2.511953450">
        <ele>364.90</ele>
        <time>2014-03-02T09:03:39Z</time>
      </trkpt>
      <trkpt lat="41.629293410" lon="2.511926790">
        <ele>364.50</ele>
        <time>2014-03-02T09:03:40Z</time>
      </trkpt>
      <trkpt lat="41.629271780" lon="2.511900140">
        <ele>364.20</ele>
        <time>2014-03-02T09:03:41Z</time>
      </trkpt>
      <trkpt lat="41.629251670" lon="2.511876670">
        <ele>363.80</ele>
        <time>2014-03-02T09:03:42Z</time>
      </trkpt>
      <trkpt lat="41.629241770" lon="2.511856720">
        <ele>363.50</ele>
        <time>2014-03-02T09:03:43Z</time>
      </trkpt>
      <trkpt lat="41.629236750" lon="2.511833420">
        <ele>363.60</ele>
        <time>2014-03-02T09:03:44Z</time>
      </trkpt>
      <trkpt lat="41.629238420" lon="2.511815140">
        <ele>363.60</ele>
        <time>2014-03-02T09:03:45Z</time>
      </trkpt>
      <trkpt lat="41.629241770" lon="2.511795030">
        <ele>363.50</ele>
        <time>2014-03-02T09:03:46Z</time>
      </trkpt>
      <trkpt lat="41.629248480" lon="2.511773400">
        <ele>363.40</ele>
        <time>2014-03-02T09:03:47Z</time>
      </trkpt>
      <trkpt lat="41.629253340" lon="2.511750100">
        <ele>363.30</ele>
        <time>2014-03-02T09:03:48Z</time>
      </trkpt>
      <trkpt lat="41.629261720" lon="2.511731830">
        <ele>362.40</ele>
        <time>2014-03-02T09:03:49Z</time>
      </trkpt>
      <trkpt lat="41.629266750" lon="2.511713390">
        <ele>361.80</ele>
        <time>2014-03-02T09:03:50Z</time>
      </trkpt>
      <trkpt lat="41.629271780" lon="2.511693440">
        <ele>361.30</ele>
        <time>2014-03-02T09:03:51Z</time>
      </trkpt>
      <trkpt lat="41.629278490" lon="2.511676680">
        <ele>360.90</ele>
        <time>2014-03-02T09:03:52Z</time>
      </trkpt>
      <trkpt lat="41.629283350" lon="2.511666780">
        <ele>360.60</ele>
        <time>2014-03-02T09:03:53Z</time>
      </trkpt>
      <trkpt lat="41.629293410" lon="2.511651700">
        <ele>360.20</ele>
        <time>2014-03-02T09:03:54Z</time>
      </trkpt>
      <trkpt lat="41.629308490" lon="2.511636780">
        <ele>359.90</ele>
        <time>2014-03-02T09:03:55Z</time>
      </trkpt>
      <trkpt lat="41.629321740" lon="2.511613480">
        <ele>359.10</ele>
        <time>2014-03-02T09:03:56Z</time>
      </trkpt>
      <trkpt lat="41.629338330" lon="2.511590010">
        <ele>358.50</ele>
        <time>2014-03-02T09:03:57Z</time>
      </trkpt>
      <trkpt lat="41.629353420" lon="2.511571730">
        <ele>358.10</ele>
        <time>2014-03-02T09:03:58Z</time>
      </trkpt>
      <trkpt lat="41.629365160" lon="2.511553460">
        <ele>357.70</ele>
        <time>2014-03-02T09:03:59Z</time>
      </trkpt>
      <trkpt lat="41.629380080" lon="2.511540050">
        <ele>357.50</ele>
        <time>2014-03-02T09:04:00Z</time>
      </trkpt>
      <trkpt lat="41.629395000" lon="2.511526810">
        <ele>357.70</ele>
        <time>2014-03-02T09:04:01Z</time>
      </trkpt>
      <trkpt lat="41.629408410" lon="2.511513400">
        <ele>357.80</ele>
        <time>2014-03-02T09:04:02Z</time>
      </trkpt>
      <trkpt lat="41.629425000" lon="2.511501830">
        <ele>357.50</ele>
        <time>2014-03-02T09:04:03Z</time>
      </trkpt>
      <trkpt lat="41.629441770" lon="2.511493450">
        <ele>357.40</ele>
        <time>2014-03-02T09:04:04Z</time>
      </trkpt>
      <trkpt lat="41.629463390" lon="2.511488420">
        <ele>357.00</ele>
        <time>2014-03-02T09:04:05Z</time>
      </trkpt>
      <trkpt lat="41.629480160" lon="2.511488420">
        <ele>356.60</ele>
        <time>2014-03-02T09:04:06Z</time>
      </trkpt>
      <trkpt lat="41.629500100" lon="2.511483390">
        <ele>356.40</ele>
        <time>2014-03-02T09:04:07Z</time>
      </trkpt>
      <trkpt lat="41.629521730" lon="2.511481710">
        <ele>355.70</ele>
        <time>2014-03-02T09:04:08Z</time>
      </trkpt>
      <trkpt lat="41.629543360" lon="2.511481710">
        <ele>355.10</ele>
        <time>2014-03-02T09:04:09Z</time>
      </trkpt>
      <trkpt lat="41.629563470" lon="2.511480040">
        <ele>354.50</ele>
        <time>2014-03-02T09:04:10Z</time>
      </trkpt>
      <trkpt lat="41.629590130" lon="2.511471820">
        <ele>354.00</ele>
        <time>2014-03-02T09:04:11Z</time>
      </trkpt>
      <trkpt lat="41.629615100" lon="2.511463440">
        <ele>353.70</ele>
        <time>2014-03-02T09:04:12Z</time>
      </trkpt>
      <trkpt lat="41.629633380" lon="2.511453380">
        <ele>353.10</ele>
        <time>2014-03-02T09:04:13Z</time>
      </trkpt>
      <trkpt lat="41.629655000" lon="2.511440140">
        <ele>352.60</ele>
        <time>2014-03-02T09:04:14Z</time>
      </trkpt>
      <trkpt lat="41.629676800" lon="2.511421700">
        <ele>352.10</ele>
        <time>2014-03-02T09:04:15Z</time>
      </trkpt>
      <trkpt lat="41.629705130" lon="2.511393370">
        <ele>351.70</ele>
        <time>2014-03-02T09:04:16Z</time>
      </trkpt>
      <trkpt lat="41.629730100" lon="2.511370070">
        <ele>351.00</ele>
        <time>2014-03-02T09:04:17Z</time>
      </trkpt>
      <trkpt lat="41.629748380" lon="2.511345090">
        <ele>350.40</ele>
        <time>2014-03-02T09:04:18Z</time>
      </trkpt>
      <trkpt lat="41.629766820" lon="2.511320110">
        <ele>350.00</ele>
        <time>2014-03-02T09:04:19Z</time>
      </trkpt>
      <trkpt lat="41.629781740" lon="2.511298480">
        <ele>349.80</ele>
        <time>2014-03-02T09:04:20Z</time>
      </trkpt>
      <trkpt lat="41.629796820" lon="2.511271660">
        <ele>349.80</ele>
        <time>2014-03-02T09:04:21Z</time>
      </trkpt>
      <trkpt lat="41.629808390" lon="2.511240150">
        <ele>349.00</ele>
        <time>2014-03-02T09:04:22Z</time>
      </trkpt>
      <trkpt lat="41.629821800" lon="2.511210140">
        <ele>348.40</ele>
        <time>2014-03-02T09:04:23Z</time>
      </trkpt>
      <trkpt lat="41.629831690" lon="2.511185160">
        <ele>347.60</ele>
        <time>2014-03-02T09:04:24Z</time>
      </trkpt>
      <trkpt lat="41.629843430" lon="2.511166720">
        <ele>347.00</ele>
        <time>2014-03-02T09:04:25Z</time>
      </trkpt>
      <trkpt lat="41.629850130" lon="2.511150120">
        <ele>346.50</ele>
        <time>2014-03-02T09:04:26Z</time>
      </trkpt>
      <trkpt lat="41.629858350" lon="2.511140070">
        <ele>346.10</ele>
        <time>2014-03-02T09:04:27Z</time>
      </trkpt>
      <trkpt lat="41.629861700" lon="2.511131680">
        <ele>345.80</ele>
        <time>2014-03-02T09:04:28Z</time>
      </trkpt>
      <trkpt lat="41.629865050" lon="2.511128330">
        <ele>345.50</ele>
        <time>2014-03-02T09:04:29Z</time>
      </trkpt>
      <trkpt lat="41.629866730" lon="2.511123470">
        <ele>345.40</ele>
        <time>2014-03-02T09:04:30Z</time>
      </trkpt>
      <trkpt lat="41.629868410" lon="2.511120120">
        <ele>345.20</ele>
        <time>2014-03-02T09:04:31Z</time>
      </trkpt>
      <trkpt lat="41.629871760" lon="2.511116760">
        <ele>344.90</ele>
        <time>2014-03-02T09:04:32Z</time>
      </trkpt>
      <trkpt lat="41.629875110" lon="2.511111740">
        <ele>344.60</ele>
        <time>2014-03-02T09:04:33Z</time>
      </trkpt>
      <trkpt lat="41.629878460" lon="2.511108380">
        <ele>344.00</ele>
        <time>2014-03-02T09:04:34Z</time>
      </trkpt>
      <trkpt lat="41.629880140" lon="2.511103350">
        <ele>343.60</ele>
        <time>2014-03-02T09:04:35Z</time>
      </trkpt>
      <trkpt lat="41.629885000" lon="2.511100000">
        <ele>343.50</ele>
        <time>2014-03-02T09:04:36Z</time>
      </trkpt>
      <trkpt lat="41.629888350" lon="2.511095140">
        <ele>343.40</ele>
        <time>2014-03-02T09:04:37Z</time>
      </trkpt>
      <trkpt lat="41.629891710" lon="2.511091790">
        <ele>343.40</ele>
        <time>2014-03-02T09:04:38Z</time>
      </trkpt>
      <trkpt lat="41.629895060" lon="2.511086760">
        <ele>343.30</ele>
        <time>2014-03-02T09:04:39Z</time>
      </trkpt>
      <trkpt lat="41.629898410" lon="2.511083400">
        <ele>343.20</ele>
        <time>2014-03-02T09:04:40Z</time>
      </trkpt>
      <trkpt lat="41.629901770" lon="2.511080050">
        <ele>342.50</ele>
        <time>2014-03-02T09:04:41Z</time>
      </trkpt>
      <trkpt lat="41.629905120" lon="2.511076700">
        <ele>342.00</ele>
        <time>2014-03-02T09:04:42Z</time>
      </trkpt>
      <trkpt lat="41.629908470" lon="2.511073350">
        <ele>342.00</ele>
        <time>2014-03-02T09:04:43Z</time>
      </trkpt>
      <trkpt lat="41.629911820" lon="2.511070160">
        <ele>341.90</ele>
        <time>2014-03-02T09:04:44Z</time>
      </trkpt>
      <trkpt lat="41.629916690" lon="2.511066810">
        <ele>341.90</ele>
        <time>2014-03-02T09:04:45Z</time>
      </trkpt>
      <trkpt lat="41.629920040" lon="2.511065130">
        <ele>341.80</ele>
        <time>2014-03-02T09:04:46Z</time>
      </trkpt>
      <trkpt lat="41.629923390" lon="2.511061780">
        <ele>341.70</ele>
        <time>2014-03-02T09:04:47Z</time>
      </trkpt>
      <trkpt lat="41.629926740" lon="2.511058430">
        <ele>341.70</ele>
        <time>2014-03-02T09:04:48Z</time>
      </trkpt>
      <trkpt lat="41.629931770" lon="2.511056750">
        <ele>341.80</ele>
        <time>2014-03-02T09:04:49Z</time>
      </trkpt>
      <trkpt lat="41.629935130" lon="2.511055070">
        <ele>341.60</ele>
        <time>2014-03-02T09:04:50Z</time>
      </trkpt>
      <trkpt lat="41.629941660" lon="2.511051720">
        <ele>341.50</ele>
        <time>2014-03-02T09:04:51Z</time>
      </trkpt>
      <trkpt lat="41.629950050" lon="2.511046690">
        <ele>341.50</ele>
        <time>2014-03-02T09:04:52Z</time>
      </trkpt>
      <trkpt lat="41.629960100" lon="2.511046690">
        <ele>341.70</ele>
        <time>2014-03-02T09:04:53Z</time>
      </trkpt>
      <trkpt lat="41.629971670" lon="2.511051720">
        <ele>342.00</ele>
        <time>2014-03-02T09:04:54Z</time>
      </trkpt>
      <trkpt lat="41.629980050" lon="2.511060100">
        <ele>342.00</ele>
        <time>2014-03-02T09:04:55Z</time>
      </trkpt>
      <trkpt lat="41.629990110" lon="2.511075020">
        <ele>342.10</ele>
        <time>2014-03-02T09:04:56Z</time>
      </trkpt>
      <trkpt lat="41.629998490" lon="2.511090110">
        <ele>342.10</ele>
        <time>2014-03-02T09:04:57Z</time>
      </trkpt>
      <trkpt lat="41.630003350" lon="2.511108380">
        <ele>341.80</ele>
        <time>2014-03-02T09:04:58Z</time>
      </trkpt>
      <trkpt lat="41.630008380" lon="2.511131680">
        <ele>341.60</ele>
        <time>2014-03-02T09:04:59Z</time>
      </trkpt>
      <trkpt lat="41.630013410" lon="2.511163370">
        <ele>341.60</ele>
        <time>2014-03-02T09:05:00Z</time>
      </trkpt>
      <trkpt lat="41.630016770" lon="2.511193370">
        <ele>341.50</ele>
        <time>2014-03-02T09:05:01Z</time>
      </trkpt>
      <trkpt lat="41.630020120" lon="2.511218350">
        <ele>341.80</ele>
        <time>2014-03-02T09:05:02Z</time>
      </trkpt>
      <trkpt lat="41.630021790" lon="2.511235120">
        <ele>341.90</ele>
        <time>2014-03-02T09:05:03Z</time>
      </trkpt>
      <trkpt lat="41.630021790" lon="2.511248360">
        <ele>342.10</ele>
        <time>2014-03-02T09:05:04Z</time>
      </trkpt>
      <trkpt lat="41.630021790" lon="2.511268480">
        <ele>341.60</ele>
        <time>2014-03-02T09:05:05Z</time>
      </trkpt>
      <trkpt lat="41.630018440" lon="2.511283400">
        <ele>341.20</ele>
        <time>2014-03-02T09:05:06Z</time>
      </trkpt>
      <trkpt lat="41.630011740" lon="2.511300160">
        <ele>341.20</ele>
        <time>2014-03-02T09:05:07Z</time>
      </trkpt>
      <trkpt lat="41.630003350" lon="2.511316760">
        <ele>341.10</ele>
        <time>2014-03-02T09:05:08Z</time>
      </trkpt>
      <trkpt lat="41.629991790" lon="2.511331680">
        <ele>341.10</ele>
        <time>2014-03-02T09:05:09Z</time>
      </trkpt>
      <trkpt lat="41.629976700" lon="2.511346760">
        <ele>340.90</ele>
        <time>2014-03-02T09:05:10Z</time>
      </trkpt>
      <trkpt lat="41.629963460" lon="2.511365040">
        <ele>340.80</ele>
        <time>2014-03-02T09:05:11Z</time>
      </trkpt>
      <trkpt lat="41.629950050" lon="2.511380120">
        <ele>340.80</ele>
        <time>2014-03-02T09:05:12Z</time>
      </trkpt>
      <trkpt lat="41.629938480" lon="2.511396720">
        <ele>340.80</ele>
        <time>2014-03-02T09:05:13Z</time>
      </trkpt>
      <trkpt lat="41.629930100" lon="2.511415160">
        <ele>340.90</ele>
        <time>2014-03-02T09:05:14Z</time>
      </trkpt>
      <trkpt lat="41.629923390" lon="2.511435110">
        <ele>340.90</ele>
        <time>2014-03-02T09:05:15Z</time>
      </trkpt>
      <trkpt lat="41.629913330" lon="2.511461760">
        <ele>340.90</ele>
        <time>2014-03-02T09:05:16Z</time>
      </trkpt>
      <trkpt lat="41.629905120" lon="2.511486740">
        <ele>341.20</ele>
        <time>2014-03-02T09:05:17Z</time>
      </trkpt>
      <trkpt lat="41.629898410" lon="2.511508370">
        <ele>341.40</ele>
        <time>2014-03-02T09:05:18Z</time>
      </trkpt>
      <trkpt lat="41.629896740" lon="2.511533340">
        <ele>341.20</ele>
        <time>2014-03-02T09:05:19Z</time>
      </trkpt>
      <trkpt lat="41.629895060" lon="2.511558490">
        <ele>341.10</ele>
        <time>2014-03-02T09:05:20Z</time>
      </trkpt>
      <trkpt lat="41.629895060" lon="2.511578440">
        <ele>341.20</ele>
        <time>2014-03-02T09:05:21Z</time>
      </trkpt>
      <trkpt lat="41.629898410" lon="2.511598390">
        <ele>341.40</ele>
        <time>2014-03-02T09:05:22Z</time>
      </trkpt>
      <trkpt lat="41.629903440" lon="2.511613480">
        <ele>341.50</ele>
        <time>2014-03-02T09:05:23Z</time>
      </trkpt>
      <trkpt lat="41.629913330" lon="2.511623370">
        <ele>341.10</ele>
        <time>2014-03-02T09:05:24Z</time>
      </trkpt>
      <trkpt lat="41.629930100" lon="2.511628400">
        <ele>340.80</ele>
        <time>2014-03-02T09:05:25Z</time>
      </trkpt>
      <trkpt lat="41.629950050" lon="2.511631750">
        <ele>341.10</ele>
        <time>2014-03-02T09:05:26Z</time>
      </trkpt>
      <trkpt lat="41.629965130" lon="2.511631750">
        <ele>341.30</ele>
        <time>2014-03-02T09:05:27Z</time>
      </trkpt>
      <trkpt lat="41.629978380" lon="2.511623370">
        <ele>341.50</ele>
        <time>2014-03-02T09:05:28Z</time>
      </trkpt>
      <trkpt lat="41.629996820" lon="2.511613480">
        <ele>341.70</ele>
        <time>2014-03-02T09:05:29Z</time>
      </trkpt>
      <trkpt lat="41.630015090" lon="2.511601740">
        <ele>341.80</ele>
        <time>2014-03-02T09:05:30Z</time>
      </trkpt>
      <trkpt lat="41.630031690" lon="2.511586820">
        <ele>341.60</ele>
        <time>2014-03-02T09:05:31Z</time>
      </trkpt>
      <trkpt lat="41.630050130" lon="2.511571730">
        <ele>341.50</ele>
        <time>2014-03-02T09:05:32Z</time>
      </trkpt>
      <trkpt lat="41.630068400" lon="2.511555140">
        <ele>341.40</ele>
        <time>2014-03-02T09:05:33Z</time>
      </trkpt>
      <trkpt lat="41.630090020" lon="2.511535020">
        <ele>341.40</ele>
        <time>2014-03-02T09:05:34Z</time>
      </trkpt>
      <trkpt lat="41.630110140" lon="2.511511720">
        <ele>341.30</ele>
        <time>2014-03-02T09:05:35Z</time>
      </trkpt>
      <trkpt lat="41.630133440" lon="2.511488420">
        <ele>341.20</ele>
        <time>2014-03-02T09:05:36Z</time>
      </trkpt>
      <trkpt lat="41.630156740" lon="2.511465120">
        <ele>341.10</ele>
        <time>2014-03-02T09:05:37Z</time>
      </trkpt>
      <trkpt lat="41.630175020" lon="2.511440140">
        <ele>340.80</ele>
        <time>2014-03-02T09:05:38Z</time>
      </trkpt>
      <trkpt lat="41.630188430" lon="2.511425050">
        <ele>340.70</ele>
        <time>2014-03-02T09:05:39Z</time>
      </trkpt>
      <trkpt lat="41.630200160" lon="2.511416670">
        <ele>340.60</ele>
        <time>2014-03-02T09:05:40Z</time>
      </trkpt>
      <trkpt lat="41.630213400" lon="2.511413480">
        <ele>340.60</ele>
        <time>2014-03-02T09:05:41Z</time>
      </trkpt>
      <trkpt lat="41.630230000" lon="2.511416670">
        <ele>340.60</ele>
        <time>2014-03-02T09:05:42Z</time>
      </trkpt>
      <trkpt lat="41.630240060" lon="2.511421700">
        <ele>340.50</ele>
        <time>2014-03-02T09:05:43Z</time>
      </trkpt>
      <trkpt lat="41.630248440" lon="2.511426730">
        <ele>340.50</ele>
        <time>2014-03-02T09:05:44Z</time>
      </trkpt>
      <trkpt lat="41.630258330" lon="2.511443490">
        <ele>340.50</ele>
        <time>2014-03-02T09:05:45Z</time>
      </trkpt>
      <trkpt lat="41.630263360" lon="2.511470150">
        <ele>340.50</ele>
        <time>2014-03-02T09:05:46Z</time>
      </trkpt>
      <trkpt lat="41.630258330" lon="2.511500150">
        <ele>340.30</ele>
        <time>2014-03-02T09:05:47Z</time>
      </trkpt>
      <trkpt lat="41.630251790" lon="2.511533340">
        <ele>340.20</ele>
        <time>2014-03-02T09:05:48Z</time>
      </trkpt>
      <trkpt lat="41.630240060" lon="2.511570060">
        <ele>340.20</ele>
        <time>2014-03-02T09:05:49Z</time>
      </trkpt>
      <trkpt lat="41.630233350" lon="2.511606770">
        <ele>340.40</ele>
        <time>2014-03-02T09:05:50Z</time>
      </trkpt>
      <trkpt lat="41.630230000" lon="2.511648340">
        <ele>340.60</ele>
        <time>2014-03-02T09:05:51Z</time>
      </trkpt>
      <trkpt lat="41.630225140" lon="2.511691760">
        <ele>340.00</ele>
        <time>2014-03-02T09:05:52Z</time>
      </trkpt>
      <trkpt lat="41.630220110" lon="2.511733340">
        <ele>339.60</ele>
        <time>2014-03-02T09:05:53Z</time>
      </trkpt>
      <trkpt lat="41.630216760" lon="2.511771730">
        <ele>339.30</ele>
        <time>2014-03-02T09:05:54Z</time>
      </trkpt>
      <trkpt lat="41.630215080" lon="2.511808440">
        <ele>339.60</ele>
        <time>2014-03-02T09:05:55Z</time>
      </trkpt>
      <trkpt lat="41.630210050" lon="2.511843480">
        <ele>339.80</ele>
        <time>2014-03-02T09:05:56Z</time>
      </trkpt>
      <trkpt lat="41.630203350" lon="2.511878340">
        <ele>339.70</ele>
        <time>2014-03-02T09:05:57Z</time>
      </trkpt>
      <trkpt lat="41.630196810" lon="2.511908350">
        <ele>339.60</ele>
        <time>2014-03-02T09:05:58Z</time>
      </trkpt>
      <trkpt lat="41.630190100" lon="2.511941710">
        <ele>339.20</ele>
        <time>2014-03-02T09:05:59Z</time>
      </trkpt>
      <trkpt lat="41.630183400" lon="2.511973390">
        <ele>339.00</ele>
        <time>2014-03-02T09:06:00Z</time>
      </trkpt>
      <trkpt lat="41.630173340" lon="2.512005080">
        <ele>338.80</ele>
        <time>2014-03-02T09:06:01Z</time>
      </trkpt>
      <trkpt lat="41.630165120" lon="2.512036760">
        <ele>338.80</ele>
        <time>2014-03-02T09:06:02Z</time>
      </trkpt>
      <trkpt lat="41.630158420" lon="2.512070120">
        <ele>338.80</ele>
        <time>2014-03-02T09:06:03Z</time>
      </trkpt>
      <trkpt lat="41.630155070" lon="2.512103480">
        <ele>338.90</ele>
        <time>2014-03-02T09:06:04Z</time>
      </trkpt>
      <trkpt lat="41.630150040" lon="2.512131810">
        <ele>339.00</ele>
        <time>2014-03-02T09:06:05Z</time>
      </trkpt>
      <trkpt lat="41.630141820" lon="2.512158470">
        <ele>338.80</ele>
        <time>2014-03-02T09:06:06Z</time>
      </trkpt>
      <trkpt lat="41.630136790" lon="2.512185120">
        <ele>338.70</ele>
        <time>2014-03-02T09:06:07Z</time>
      </trkpt>
      <trkpt lat="41.630130090" lon="2.512211780">
        <ele>338.60</ele>
        <time>2014-03-02T09:06:08Z</time>
      </trkpt>
      <trkpt lat="41.630125060" lon="2.512241780">
        <ele>338.70</ele>
        <time>2014-03-02T09:06:09Z</time>
      </trkpt>
      <trkpt lat="41.630120030" lon="2.512270110">
        <ele>338.80</ele>
        <time>2014-03-02T09:06:10Z</time>
      </trkpt>
      <trkpt lat="41.630115000" lon="2.512301800">
        <ele>338.80</ele>
        <time>2014-03-02T09:06:11Z</time>
      </trkpt>
      <trkpt lat="41.630110140" lon="2.512331800">
        <ele>338.70</ele>
        <time>2014-03-02T09:06:12Z</time>
      </trkpt>
      <trkpt lat="41.630103430" lon="2.512363490">
        <ele>338.70</ele>
        <time>2014-03-02T09:06:13Z</time>
      </trkpt>
      <trkpt lat="41.630093380" lon="2.512396680">
        <ele>339.10</ele>
        <time>2014-03-02T09:06:14Z</time>
      </trkpt>
      <trkpt lat="41.630083490" lon="2.512421830">
        <ele>339.40</ele>
        <time>2014-03-02T09:06:15Z</time>
      </trkpt>
      <trkpt lat="41.630070070" lon="2.512445130">
        <ele>339.60</ele>
        <time>2014-03-02T09:06:16Z</time>
      </trkpt>
      <trkpt lat="41.630063370" lon="2.512470110">
        <ele>339.80</ele>
        <time>2014-03-02T09:06:17Z</time>
      </trkpt>
      <trkpt lat="41.630056660" lon="2.512498440">
        <ele>340.00</ele>
        <time>2014-03-02T09:06:18Z</time>
      </trkpt>
      <trkpt lat="41.630053480" lon="2.512528440">
        <ele>340.10</ele>
        <time>2014-03-02T09:06:19Z</time>
      </trkpt>
      <trkpt lat="41.630050130" lon="2.512560130">
        <ele>340.30</ele>
        <time>2014-03-02T09:06:20Z</time>
      </trkpt>
      <trkpt lat="41.630046770" lon="2.512593490">
        <ele>340.10</ele>
        <time>2014-03-02T09:06:21Z</time>
      </trkpt>
      <trkpt lat="41.630045100" lon="2.512626680">
        <ele>340.10</ele>
        <time>2014-03-02T09:06:22Z</time>
      </trkpt>
      <trkpt lat="41.630041740" lon="2.512656690">
        <ele>340.10</ele>
        <time>2014-03-02T09:06:23Z</time>
      </trkpt>
      <trkpt lat="41.630040070" lon="2.512683340">
        <ele>340.10</ele>
        <time>2014-03-02T09:06:24Z</time>
      </trkpt>
      <trkpt lat="41.630038390" lon="2.512713350">
        <ele>340.30</ele>
        <time>2014-03-02T09:06:25Z</time>
      </trkpt>
      <trkpt lat="41.630036710" lon="2.512740000">
        <ele>340.50</ele>
        <time>2014-03-02T09:06:26Z</time>
      </trkpt>
      <trkpt lat="41.630035040" lon="2.512765150">
        <ele>340.70</ele>
        <time>2014-03-02T09:06:27Z</time>
      </trkpt>
      <trkpt lat="41.630035040" lon="2.512788450">
        <ele>340.90</ele>
        <time>2014-03-02T09:06:28Z</time>
      </trkpt>
      <trkpt lat="41.630035040" lon="2.512816780">
        <ele>341.10</ele>
        <time>2014-03-02T09:06:29Z</time>
      </trkpt>
      <trkpt lat="41.630036710" lon="2.512840080">
        <ele>341.30</ele>
        <time>2014-03-02T09:06:30Z</time>
      </trkpt>
      <trkpt lat="41.630043420" lon="2.512861710">
        <ele>341.40</ele>
        <time>2014-03-02T09:06:31Z</time>
      </trkpt>
      <trkpt lat="41.630055150" lon="2.512881830">
        <ele>341.50</ele>
        <time>2014-03-02T09:06:32Z</time>
      </trkpt>
      <trkpt lat="41.630066720" lon="2.512891720">
        <ele>342.00</ele>
        <time>2014-03-02T09:06:33Z</time>
      </trkpt>
      <trkpt lat="41.630083490" lon="2.512898420">
        <ele>342.40</ele>
        <time>2014-03-02T09:06:34Z</time>
      </trkpt>
      <trkpt lat="41.630101760" lon="2.512898420">
        <ele>342.70</ele>
        <time>2014-03-02T09:06:35Z</time>
      </trkpt>
      <trkpt lat="41.630118350" lon="2.512901770">
        <ele>342.90</ele>
        <time>2014-03-02T09:06:36Z</time>
      </trkpt>
      <trkpt lat="41.630135120" lon="2.512903450">
        <ele>343.40</ele>
        <time>2014-03-02T09:06:37Z</time>
      </trkpt>
      <trkpt lat="41.630153390" lon="2.512903450">
        <ele>343.70</ele>
        <time>2014-03-02T09:06:38Z</time>
      </trkpt>
      <trkpt lat="41.630170150" lon="2.512898420">
        <ele>343.90</ele>
        <time>2014-03-02T09:06:39Z</time>
      </trkpt>
      <trkpt lat="41.630186750" lon="2.512891720">
        <ele>344.00</ele>
        <time>2014-03-02T09:06:40Z</time>
      </trkpt>
      <trkpt lat="41.630201670" lon="2.512881830">
        <ele>344.00</ele>
        <time>2014-03-02T09:06:41Z</time>
      </trkpt>
      <trkpt lat="41.630218430" lon="2.512876800">
        <ele>343.90</ele>
        <time>2014-03-02T09:06:42Z</time>
      </trkpt>
      <trkpt lat="41.630235030" lon="2.512870090">
        <ele>343.80</ele>
        <time>2014-03-02T09:06:43Z</time>
      </trkpt>
      <trkpt lat="41.630250120" lon="2.512865060">
        <ele>344.00</ele>
        <time>2014-03-02T09:06:44Z</time>
      </trkpt>
      <trkpt lat="41.630265040" lon="2.512856680">
        <ele>344.10</ele>
        <time>2014-03-02T09:06:45Z</time>
      </trkpt>
      <trkpt lat="41.630280120" lon="2.512848470">
        <ele>344.20</ele>
        <time>2014-03-02T09:06:46Z</time>
      </trkpt>
      <trkpt lat="41.630295040" lon="2.512840080">
        <ele>344.60</ele>
        <time>2014-03-02T09:06:47Z</time>
      </trkpt>
      <trkpt lat="41.630311810" lon="2.512833380">
        <ele>345.00</ele>
        <time>2014-03-02T09:06:48Z</time>
      </trkpt>
      <trkpt lat="41.630323380" lon="2.512820130">
        <ele>344.80</ele>
        <time>2014-03-02T09:06:49Z</time>
      </trkpt>
      <trkpt lat="41.630335110" lon="2.512810080">
        <ele>344.70</ele>
        <time>2014-03-02T09:06:50Z</time>
      </trkpt>
      <trkpt lat="41.630348350" lon="2.512800020">
        <ele>344.60</ele>
        <time>2014-03-02T09:06:51Z</time>
      </trkpt>
      <trkpt lat="41.630361760" lon="2.512795160">
        <ele>344.90</ele>
        <time>2014-03-02T09:06:52Z</time>
      </trkpt>
      <trkpt lat="41.630378360" lon="2.512791800">
        <ele>345.10</ele>
        <time>2014-03-02T09:06:53Z</time>
      </trkpt>
      <trkpt lat="41.630393450" lon="2.512783420">
        <ele>345.70</ele>
        <time>2014-03-02T09:06:54Z</time>
      </trkpt>
      <trkpt lat="41.630408370" lon="2.512775040">
        <ele>346.10</ele>
        <time>2014-03-02T09:06:55Z</time>
      </trkpt>
      <trkpt lat="41.630425130" lon="2.512768330">
        <ele>346.10</ele>
        <time>2014-03-02T09:06:56Z</time>
      </trkpt>
      <trkpt lat="41.630441730" lon="2.512766830">
        <ele>346.10</ele>
        <time>2014-03-02T09:06:57Z</time>
      </trkpt>
      <trkpt lat="41.630458490" lon="2.512765150">
        <ele>346.10</ele>
        <time>2014-03-02T09:06:58Z</time>
      </trkpt>
      <trkpt lat="41.630476760" lon="2.512768330">
        <ele>346.60</ele>
        <time>2014-03-02T09:06:59Z</time>
      </trkpt>
      <trkpt lat="41.630493360" lon="2.512775040">
        <ele>347.00</ele>
        <time>2014-03-02T09:07:00Z</time>
      </trkpt>
      <trkpt lat="41.630510120" lon="2.512786770">
        <ele>346.80</ele>
        <time>2014-03-02T09:07:01Z</time>
      </trkpt>
      <trkpt lat="41.630523370" lon="2.512805050">
        <ele>346.70</ele>
        <time>2014-03-02T09:07:02Z</time>
      </trkpt>
      <trkpt lat="41.630531750" lon="2.512826670">
        <ele>346.90</ele>
        <time>2014-03-02T09:07:03Z</time>
      </trkpt>
      <trkpt lat="41.630541810" lon="2.512850140">
        <ele>347.00</ele>
        <time>2014-03-02T09:07:04Z</time>
      </trkpt>
      <trkpt lat="41.630550020" lon="2.512871770">
        <ele>347.10</ele>
        <time>2014-03-02T09:07:05Z</time>
      </trkpt>
      <trkpt lat="41.630556730" lon="2.512895070">
        <ele>347.50</ele>
        <time>2014-03-02T09:07:06Z</time>
      </trkpt>
      <trkpt lat="41.630563430" lon="2.512916690">
        <ele>347.80</ele>
        <time>2014-03-02T09:07:07Z</time>
      </trkpt>
      <trkpt lat="41.630573490" lon="2.512938490">
        <ele>347.90</ele>
        <time>2014-03-02T09:07:08Z</time>
      </trkpt>
      <trkpt lat="41.630585060" lon="2.512960110">
        <ele>348.00</ele>
        <time>2014-03-02T09:07:09Z</time>
      </trkpt>
      <trkpt lat="41.630595120" lon="2.512978380">
        <ele>348.10</ele>
        <time>2014-03-02T09:07:10Z</time>
      </trkpt>
      <trkpt lat="41.630605010" lon="2.512993470">
        <ele>348.20</ele>
        <time>2014-03-02T09:07:11Z</time>
      </trkpt>
      <trkpt lat="41.630616740" lon="2.513010070">
        <ele>348.40</ele>
        <time>2014-03-02T09:07:12Z</time>
      </trkpt>
      <trkpt lat="41.630625120" lon="2.513026660">
        <ele>348.40</ele>
        <time>2014-03-02T09:07:13Z</time>
      </trkpt>
      <trkpt lat="41.630633340" lon="2.513043430">
        <ele>348.40</ele>
        <time>2014-03-02T09:07:14Z</time>
      </trkpt>
      <trkpt lat="41.630641720" lon="2.513061700">
        <ele>349.20</ele>
        <time>2014-03-02T09:07:15Z</time>
      </trkpt>
      <trkpt lat="41.630648430" lon="2.513078460">
        <ele>349.90</ele>
        <time>2014-03-02T09:07:16Z</time>
      </trkpt>
      <trkpt lat="41.630655130" lon="2.513093380">
        <ele>350.30</ele>
        <time>2014-03-02T09:07:17Z</time>
      </trkpt>
      <trkpt lat="41.630663350" lon="2.513108470">
        <ele>350.40</ele>
        <time>2014-03-02T09:07:18Z</time>
      </trkpt>
      <trkpt lat="41.630670050" lon="2.513123390">
        <ele>350.40</ele>
        <time>2014-03-02T09:07:19Z</time>
      </trkpt>
      <trkpt lat="41.630676760" lon="2.513138480">
        <ele>350.70</ele>
        <time>2014-03-02T09:07:20Z</time>
      </trkpt>
      <trkpt lat="41.630685140" lon="2.513151720">
        <ele>350.90</ele>
        <time>2014-03-02T09:07:21Z</time>
      </trkpt>
      <trkpt lat="41.630693350" lon="2.513166810">
        <ele>351.10</ele>
        <time>2014-03-02T09:07:22Z</time>
      </trkpt>
      <trkpt lat="41.630703410" lon="2.513183410">
        <ele>351.30</ele>
        <time>2014-03-02T09:07:23Z</time>
      </trkpt>
      <trkpt lat="41.630710120" lon="2.513191790">
        <ele>351.50</ele>
        <time>2014-03-02T09:07:24Z</time>
      </trkpt>
      <trkpt lat="41.630720010" lon="2.513201680">
        <ele>352.30</ele>
        <time>2014-03-02T09:07:25Z</time>
      </trkpt>
      <trkpt lat="41.630735090" lon="2.513213410">
        <ele>352.90</ele>
        <time>2014-03-02T09:07:26Z</time>
      </trkpt>
      <trkpt lat="41.630748340" lon="2.513223470">
        <ele>353.20</ele>
        <time>2014-03-02T09:07:27Z</time>
      </trkpt>
      <trkpt lat="41.630763430" lon="2.513230010">
        <ele>353.40</ele>
        <time>2014-03-02T09:07:28Z</time>
      </trkpt>
      <trkpt lat="41.630783370" lon="2.513235040">
        <ele>353.50</ele>
        <time>2014-03-02T09:07:29Z</time>
      </trkpt>
      <trkpt lat="41.630805000" lon="2.513233360">
        <ele>353.60</ele>
        <time>2014-03-02T09:07:30Z</time>
      </trkpt>
      <trkpt lat="41.630825120" lon="2.513228330">
        <ele>353.70</ele>
        <time>2014-03-02T09:07:31Z</time>
      </trkpt>
      <trkpt lat="41.630845060" lon="2.513223470">
        <ele>354.10</ele>
        <time>2014-03-02T09:07:32Z</time>
      </trkpt>
      <trkpt lat="41.630863340" lon="2.513215090">
        <ele>354.40</ele>
        <time>2014-03-02T09:07:33Z</time>
      </trkpt>
      <trkpt lat="41.630883450" lon="2.513205030">
        <ele>354.00</ele>
        <time>2014-03-02T09:07:34Z</time>
      </trkpt>
      <trkpt lat="41.630901730" lon="2.513195140">
        <ele>353.80</ele>
        <time>2014-03-02T09:07:35Z</time>
      </trkpt>
      <trkpt lat="41.630918490" lon="2.513180050">
        <ele>353.60</ele>
        <time>2014-03-02T09:07:36Z</time>
      </trkpt>
      <trkpt lat="41.630931730" lon="2.513158430">
        <ele>353.40</ele>
        <time>2014-03-02T09:07:37Z</time>
      </trkpt>
      <trkpt lat="41.630940120" lon="2.513138480">
        <ele>353.30</ele>
        <time>2014-03-02T09:07:38Z</time>
      </trkpt>
      <trkpt lat="41.630951680" lon="2.513123390">
        <ele>353.50</ele>
        <time>2014-03-02T09:07:39Z</time>
      </trkpt>
      <trkpt lat="41.630961740" lon="2.513106800">
        <ele>353.70</ele>
        <time>2014-03-02T09:07:40Z</time>
      </trkpt>
      <trkpt lat="41.630971800" lon="2.513088360">
        <ele>353.80</ele>
        <time>2014-03-02T09:07:41Z</time>
      </trkpt>
      <trkpt lat="41.630981690" lon="2.513070080">
        <ele>353.90</ele>
        <time>2014-03-02T09:07:42Z</time>
      </trkpt>
      <trkpt lat="41.630988400" lon="2.513046780">
        <ele>353.90</ele>
        <time>2014-03-02T09:07:43Z</time>
      </trkpt>
      <trkpt lat="41.630995100" lon="2.513026660">
        <ele>353.90</ele>
        <time>2014-03-02T09:07:44Z</time>
      </trkpt>
      <trkpt lat="41.631003480" lon="2.513008390">
        <ele>353.90</ele>
        <time>2014-03-02T09:07:45Z</time>
      </trkpt>
      <trkpt lat="41.631013370" lon="2.512986770">
        <ele>353.50</ele>
        <time>2014-03-02T09:07:46Z</time>
      </trkpt>
      <trkpt lat="41.631023430" lon="2.512965140">
        <ele>353.30</ele>
        <time>2014-03-02T09:07:47Z</time>
      </trkpt>
      <trkpt lat="41.631035000" lon="2.512946700">
        <ele>353.10</ele>
        <time>2014-03-02T09:07:48Z</time>
      </trkpt>
      <trkpt lat="41.631050090" lon="2.512921720">
        <ele>353.10</ele>
        <time>2014-03-02T09:07:49Z</time>
      </trkpt>
      <trkpt lat="41.631060140" lon="2.512891720">
        <ele>353.10</ele>
        <time>2014-03-02T09:07:50Z</time>
      </trkpt>
      <trkpt lat="41.631071710" lon="2.512861710">
        <ele>353.50</ele>
        <time>2014-03-02T09:07:51Z</time>
      </trkpt>
      <trkpt lat="41.631086800" lon="2.512830030">
        <ele>353.80</ele>
        <time>2014-03-02T09:07:52Z</time>
      </trkpt>
      <trkpt lat="41.631105070" lon="2.512800020">
        <ele>353.90</ele>
        <time>2014-03-02T09:07:53Z</time>
      </trkpt>
      <trkpt lat="41.631126700" lon="2.512770010">
        <ele>353.90</ele>
        <time>2014-03-02T09:07:54Z</time>
      </trkpt>
      <trkpt lat="41.631151670" lon="2.512743360">
        <ele>353.90</ele>
        <time>2014-03-02T09:07:55Z</time>
      </trkpt>
      <trkpt lat="41.631175140" lon="2.512726760">
        <ele>353.80</ele>
        <time>2014-03-02T09:07:56Z</time>
      </trkpt>
      <trkpt lat="41.631200120" lon="2.512718380">
        <ele>353.80</ele>
        <time>2014-03-02T09:07:57Z</time>
      </trkpt>
      <trkpt lat="41.631225100" lon="2.512720050">
        <ele>353.40</ele>
        <time>2014-03-02T09:07:58Z</time>
      </trkpt>
      <trkpt lat="41.631251750" lon="2.512725080">
        <ele>353.10</ele>
        <time>2014-03-02T09:07:59Z</time>
      </trkpt>
      <trkpt lat="41.631278410" lon="2.512733470">
        <ele>353.20</ele>
        <time>2014-03-02T09:08:00Z</time>
      </trkpt>
      <trkpt lat="41.631301710" lon="2.512746710">
        <ele>353.30</ele>
        <time>2014-03-02T09:08:01Z</time>
      </trkpt>
      <trkpt lat="41.631321830" lon="2.512758440">
        <ele>353.30</ele>
        <time>2014-03-02T09:08:02Z</time>
      </trkpt>
      <trkpt lat="41.631340100" lon="2.512773360">
        <ele>353.80</ele>
        <time>2014-03-02T09:08:03Z</time>
      </trkpt>
      <trkpt lat="41.631356700" lon="2.512790130">
        <ele>354.10</ele>
        <time>2014-03-02T09:08:04Z</time>
      </trkpt>
      <trkpt lat="41.631370110" lon="2.512805050">
        <ele>354.30</ele>
        <time>2014-03-02T09:08:05Z</time>
      </trkpt>
      <trkpt lat="41.631383350" lon="2.512823490">
        <ele>354.40</ele>
        <time>2014-03-02T09:08:06Z</time>
      </trkpt>
      <trkpt lat="41.631395090" lon="2.512843440">
        <ele>354.50</ele>
        <time>2014-03-02T09:08:07Z</time>
      </trkpt>
      <trkpt lat="41.631405140" lon="2.512863390">
        <ele>354.30</ele>
        <time>2014-03-02T09:08:08Z</time>
      </trkpt>
      <trkpt lat="41.631415030" lon="2.512881830">
        <ele>354.10</ele>
        <time>2014-03-02T09:08:09Z</time>
      </trkpt>
      <trkpt lat="41.631425090" lon="2.512900100">
        <ele>354.40</ele>
        <time>2014-03-02T09:08:10Z</time>
      </trkpt>
      <trkpt lat="41.631433470" lon="2.512920050">
        <ele>354.60</ele>
        <time>2014-03-02T09:08:11Z</time>
      </trkpt>
      <trkpt lat="41.631440010" lon="2.512943350">
        <ele>354.30</ele>
        <time>2014-03-02T09:08:12Z</time>
      </trkpt>
      <trkpt lat="41.631446720" lon="2.512966820">
        <ele>354.00</ele>
        <time>2014-03-02T09:08:13Z</time>
      </trkpt>
      <trkpt lat="41.631451750" lon="2.512988440">
        <ele>353.90</ele>
        <time>2014-03-02T09:08:14Z</time>
      </trkpt>
      <trkpt lat="41.631456780" lon="2.513013420">
        <ele>353.90</ele>
        <time>2014-03-02T09:08:15Z</time>
      </trkpt>
      <trkpt lat="41.631458450" lon="2.513033370">
        <ele>353.90</ele>
        <time>2014-03-02T09:08:16Z</time>
      </trkpt>
      <trkpt lat="41.631460130" lon="2.513055000">
        <ele>354.20</ele>
        <time>2014-03-02T09:08:17Z</time>
      </trkpt>
      <trkpt lat="41.631461810" lon="2.513075110">
        <ele>354.40</ele>
        <time>2014-03-02T09:08:18Z</time>
      </trkpt>
      <trkpt lat="41.631460130" lon="2.513098410">
        <ele>354.70</ele>
        <time>2014-03-02T09:08:19Z</time>
      </trkpt>
      <trkpt lat="41.631460130" lon="2.513121720">
        <ele>355.00</ele>
        <time>2014-03-02T09:08:20Z</time>
      </trkpt>
      <trkpt lat="41.631461810" lon="2.513145020">
        <ele>355.10</ele>
        <time>2014-03-02T09:08:21Z</time>
      </trkpt>
      <trkpt lat="41.631466670" lon="2.513171670">
        <ele>355.10</ele>
        <time>2014-03-02T09:08:22Z</time>
      </trkpt>
      <trkpt lat="41.631475050" lon="2.513198490">
        <ele>355.10</ele>
        <time>2014-03-02T09:08:23Z</time>
      </trkpt>
      <trkpt lat="41.631481750" lon="2.513225150">
        <ele>355.60</ele>
        <time>2014-03-02T09:08:24Z</time>
      </trkpt>
      <trkpt lat="41.631491810" lon="2.513253480">
        <ele>355.90</ele>
        <time>2014-03-02T09:08:25Z</time>
      </trkpt>
      <trkpt lat="41.631498350" lon="2.513281810">
        <ele>355.70</ele>
        <time>2014-03-02T09:08:26Z</time>
      </trkpt>
      <trkpt lat="41.631505060" lon="2.513301760">
        <ele>355.40</ele>
        <time>2014-03-02T09:08:27Z</time>
      </trkpt>
      <trkpt lat="41.631513440" lon="2.513323380">
        <ele>355.30</ele>
        <time>2014-03-02T09:08:28Z</time>
      </trkpt>
      <trkpt lat="41.631523330" lon="2.513346690">
        <ele>355.60</ele>
        <time>2014-03-02T09:08:29Z</time>
      </trkpt>
      <trkpt lat="41.631533390" lon="2.513366800">
        <ele>355.90</ele>
        <time>2014-03-02T09:08:30Z</time>
      </trkpt>
      <trkpt lat="41.631548470" lon="2.513380050">
        <ele>356.10</ele>
        <time>2014-03-02T09:08:31Z</time>
      </trkpt>
      <trkpt lat="41.631558360" lon="2.513391780">
        <ele>356.30</ele>
        <time>2014-03-02T09:08:32Z</time>
      </trkpt>
      <trkpt lat="41.631575130" lon="2.513396810">
        <ele>356.50</ele>
        <time>2014-03-02T09:08:33Z</time>
      </trkpt>
      <trkpt lat="41.631595080" lon="2.513396810">
        <ele>356.80</ele>
        <time>2014-03-02T09:08:34Z</time>
      </trkpt>
      <trkpt lat="41.631615030" lon="2.513391780">
        <ele>357.00</ele>
        <time>2014-03-02T09:08:35Z</time>
      </trkpt>
      <trkpt lat="41.631633470" lon="2.513381720">
        <ele>357.50</ele>
        <time>2014-03-02T09:08:36Z</time>
      </trkpt>
      <trkpt lat="41.631648390" lon="2.513365130">
        <ele>357.90</ele>
        <time>2014-03-02T09:08:37Z</time>
      </trkpt>
      <trkpt lat="41.631661800" lon="2.513350040">
        <ele>358.10</ele>
        <time>2014-03-02T09:08:38Z</time>
      </trkpt>
      <trkpt lat="41.631673360" lon="2.513331770">
        <ele>358.20</ele>
        <time>2014-03-02T09:08:39Z</time>
      </trkpt>
      <trkpt lat="41.631685100" lon="2.513313490">
        <ele>358.30</ele>
        <time>2014-03-02T09:08:40Z</time>
      </trkpt>
      <trkpt lat="41.631693480" lon="2.513293380">
        <ele>358.60</ele>
        <time>2014-03-02T09:08:41Z</time>
      </trkpt>
      <trkpt lat="41.631705050" lon="2.513275100">
        <ele>358.90</ele>
        <time>2014-03-02T09:08:42Z</time>
      </trkpt>
      <trkpt lat="41.631715110" lon="2.513260020">
        <ele>359.10</ele>
        <time>2014-03-02T09:08:43Z</time>
      </trkpt>
      <trkpt lat="41.631728350" lon="2.513245100">
        <ele>359.30</ele>
        <time>2014-03-02T09:08:44Z</time>
      </trkpt>
      <trkpt lat="41.631741760" lon="2.513231690">
        <ele>359.40</ele>
        <time>2014-03-02T09:08:45Z</time>
      </trkpt>
      <trkpt lat="41.631755000" lon="2.513216770">
        <ele>359.50</ele>
        <time>2014-03-02T09:08:46Z</time>
      </trkpt>
      <trkpt lat="41.631768420" lon="2.513203360">
        <ele>359.60</ele>
        <time>2014-03-02T09:08:47Z</time>
      </trkpt>
      <trkpt lat="41.631781830" lon="2.513190110">
        <ele>359.80</ele>
        <time>2014-03-02T09:08:48Z</time>
      </trkpt>
      <trkpt lat="41.631796750" lon="2.513181730">
        <ele>359.90</ele>
        <time>2014-03-02T09:08:49Z</time>
      </trkpt>
      <trkpt lat="41.631813340" lon="2.513171670">
        <ele>360.40</ele>
        <time>2014-03-02T09:08:50Z</time>
      </trkpt>
      <trkpt lat="41.631828430" lon="2.513160100">
        <ele>360.80</ele>
        <time>2014-03-02T09:08:51Z</time>
      </trkpt>
      <trkpt lat="41.631841670" lon="2.513145020">
        <ele>361.10</ele>
        <time>2014-03-02T09:08:52Z</time>
      </trkpt>
      <trkpt lat="41.631855080" lon="2.513131770">
        <ele>361.10</ele>
        <time>2014-03-02T09:08:53Z</time>
      </trkpt>
      <trkpt lat="41.631868500" lon="2.513116690">
        <ele>361.20</ele>
        <time>2014-03-02T09:08:54Z</time>
      </trkpt>
      <trkpt lat="41.631881740" lon="2.513101770">
        <ele>361.50</ele>
        <time>2014-03-02T09:08:55Z</time>
      </trkpt>
      <trkpt lat="41.631895150" lon="2.513088360">
        <ele>361.70</ele>
        <time>2014-03-02T09:08:56Z</time>
      </trkpt>
      <trkpt lat="41.631905040" lon="2.513075110">
        <ele>362.00</ele>
        <time>2014-03-02T09:08:57Z</time>
      </trkpt>
      <trkpt lat="41.631916780" lon="2.513063380">
        <ele>362.10</ele>
        <time>2014-03-02T09:08:58Z</time>
      </trkpt>
      <trkpt lat="41.631928340" lon="2.513053490">
        <ele>362.20</ele>
        <time>2014-03-02T09:08:59Z</time>
      </trkpt>
      <trkpt lat="41.631936720" lon="2.513040080">
        <ele>362.40</ele>
        <time>2014-03-02T09:09:00Z</time>
      </trkpt>
      <trkpt lat="41.631946780" lon="2.513026660">
        <ele>362.60</ele>
        <time>2014-03-02T09:09:01Z</time>
      </trkpt>
      <trkpt lat="41.631956670" lon="2.513013420">
        <ele>362.60</ele>
        <time>2014-03-02T09:09:02Z</time>
      </trkpt>
      <trkpt lat="41.631963380" lon="2.513001690">
        <ele>362.60</ele>
        <time>2014-03-02T09:09:03Z</time>
      </trkpt>
      <trkpt lat="41.631971760" lon="2.512986770">
        <ele>362.70</ele>
        <time>2014-03-02T09:09:04Z</time>
      </trkpt>
      <trkpt lat="41.631980140" lon="2.512973360">
        <ele>362.70</ele>
        <time>2014-03-02T09:09:05Z</time>
      </trkpt>
      <trkpt lat="41.631990030" lon="2.512960110">
        <ele>362.80</ele>
        <time>2014-03-02T09:09:06Z</time>
      </trkpt>
      <trkpt lat="41.632000090" lon="2.512950050">
        <ele>363.40</ele>
        <time>2014-03-02T09:09:07Z</time>
      </trkpt>
      <trkpt lat="41.632010150" lon="2.512941670">
        <ele>363.90</ele>
        <time>2014-03-02T09:09:08Z</time>
      </trkpt>
      <trkpt lat="41.632021720" lon="2.512930110">
        <ele>364.60</ele>
        <time>2014-03-02T09:09:09Z</time>
      </trkpt>
      <trkpt lat="41.632030100" lon="2.512920050">
        <ele>365.10</ele>
        <time>2014-03-02T09:09:10Z</time>
      </trkpt>
      <trkpt lat="41.632040160" lon="2.512910160">
        <ele>365.40</ele>
        <time>2014-03-02T09:09:11Z</time>
      </trkpt>
      <trkpt lat="41.632051720" lon="2.512900100">
        <ele>365.50</ele>
        <time>2014-03-02T09:09:12Z</time>
      </trkpt>
      <trkpt lat="41.632063460" lon="2.512891720">
        <ele>365.60</ele>
        <time>2014-03-02T09:09:13Z</time>
      </trkpt>
      <trkpt lat="41.632076700" lon="2.512880150">
        <ele>365.40</ele>
        <time>2014-03-02T09:09:14Z</time>
      </trkpt>
      <trkpt lat="41.632091790" lon="2.512871770">
        <ele>365.30</ele>
        <time>2014-03-02T09:09:15Z</time>
      </trkpt>
      <trkpt lat="41.632108390" lon="2.512865060">
        <ele>365.80</ele>
        <time>2014-03-02T09:09:16Z</time>
      </trkpt>
      <trkpt lat="41.632126830" lon="2.512856680">
        <ele>366.10</ele>
        <time>2014-03-02T09:09:17Z</time>
      </trkpt>
      <trkpt lat="41.632145100" lon="2.512848470">
        <ele>366.40</ele>
        <time>2014-03-02T09:09:18Z</time>
      </trkpt>
      <trkpt lat="41.632161690" lon="2.512835050">
        <ele>366.40</ele>
        <time>2014-03-02T09:09:19Z</time>
      </trkpt>
      <trkpt lat="41.632180130" lon="2.512823490">
        <ele>366.40</ele>
        <time>2014-03-02T09:09:20Z</time>
      </trkpt>
      <trkpt lat="41.632196730" lon="2.512813430">
        <ele>366.80</ele>
        <time>2014-03-02T09:09:21Z</time>
      </trkpt>
      <trkpt lat="41.632213490" lon="2.512805050">
        <ele>367.10</ele>
        <time>2014-03-02T09:09:22Z</time>
      </trkpt>
      <trkpt lat="41.632230090" lon="2.512796670">
        <ele>367.20</ele>
        <time>2014-03-02T09:09:23Z</time>
      </trkpt>
      <trkpt lat="41.632245010" lon="2.512786770">
        <ele>367.20</ele>
        <time>2014-03-02T09:09:24Z</time>
      </trkpt>
      <trkpt lat="41.632260100" lon="2.512781750">
        <ele>367.20</ele>
        <time>2014-03-02T09:09:25Z</time>
      </trkpt>
      <trkpt lat="41.632276690" lon="2.512778390">
        <ele>367.60</ele>
        <time>2014-03-02T09:09:26Z</time>
      </trkpt>
      <trkpt lat="41.632291780" lon="2.512773360">
        <ele>367.90</ele>
        <time>2014-03-02T09:09:27Z</time>
      </trkpt>
      <trkpt lat="41.632308380" lon="2.512775040">
        <ele>367.90</ele>
        <time>2014-03-02T09:09:28Z</time>
      </trkpt>
      <trkpt lat="41.632325140" lon="2.512780070">
        <ele>368.00</ele>
        <time>2014-03-02T09:09:29Z</time>
      </trkpt>
      <trkpt lat="41.632338380" lon="2.512791800">
        <ele>368.00</ele>
        <time>2014-03-02T09:09:30Z</time>
      </trkpt>
      <trkpt lat="41.632351800" lon="2.512798340">
        <ele>367.90</ele>
        <time>2014-03-02T09:09:31Z</time>
      </trkpt>
      <trkpt lat="41.632365040" lon="2.512806720">
        <ele>367.90</ele>
        <time>2014-03-02T09:09:32Z</time>
      </trkpt>
      <trkpt lat="41.632375100" lon="2.512811750">
        <ele>367.60</ele>
        <time>2014-03-02T09:09:33Z</time>
      </trkpt>
      <trkpt lat="41.632385160" lon="2.512818460">
        <ele>367.50</ele>
        <time>2014-03-02T09:09:34Z</time>
      </trkpt>
      <trkpt lat="41.632395050" lon="2.512825000">
        <ele>367.70</ele>
        <time>2014-03-02T09:09:35Z</time>
      </trkpt>
      <trkpt lat="41.632408460" lon="2.512833380">
        <ele>368.00</ele>
        <time>2014-03-02T09:09:36Z</time>
      </trkpt>
      <trkpt lat="41.632420020" lon="2.512840080">
        <ele>368.10</ele>
        <time>2014-03-02T09:09:37Z</time>
      </trkpt>
      <trkpt lat="41.632428410" lon="2.512848470">
        <ele>368.40</ele>
        <time>2014-03-02T09:09:38Z</time>
      </trkpt>
      <trkpt lat="41.632438460" lon="2.512853490">
        <ele>368.60</ele>
        <time>2014-03-02T09:09:39Z</time>
      </trkpt>
      <trkpt lat="41.632448360" lon="2.512861710">
        <ele>368.90</ele>
        <time>2014-03-02T09:09:40Z</time>
      </trkpt>
      <trkpt lat="41.632460090" lon="2.512870090">
        <ele>369.10</ele>
        <time>2014-03-02T09:09:41Z</time>
      </trkpt>
      <trkpt lat="41.632475010" lon="2.512878470">
        <ele>369.40</ele>
        <time>2014-03-02T09:09:42Z</time>
      </trkpt>
      <trkpt lat="41.632488420" lon="2.512885010">
        <ele>369.60</ele>
        <time>2014-03-02T09:09:43Z</time>
      </trkpt>
      <trkpt lat="41.632501660" lon="2.512895070">
        <ele>369.70</ele>
        <time>2014-03-02T09:09:44Z</time>
      </trkpt>
      <trkpt lat="41.632513400" lon="2.512901770">
        <ele>370.10</ele>
        <time>2014-03-02T09:09:45Z</time>
      </trkpt>
      <trkpt lat="41.632528490" lon="2.512910160">
        <ele>370.40</ele>
        <time>2014-03-02T09:09:46Z</time>
      </trkpt>
      <trkpt lat="41.632541730" lon="2.512916690">
        <ele>370.00</ele>
        <time>2014-03-02T09:09:47Z</time>
      </trkpt>
      <trkpt lat="41.632553460" lon="2.512923400">
        <ele>369.80</ele>
        <time>2014-03-02T09:09:48Z</time>
      </trkpt>
      <trkpt lat="41.632566710" lon="2.512931780">
        <ele>369.60</ele>
        <time>2014-03-02T09:09:49Z</time>
      </trkpt>
      <trkpt lat="41.632581800" lon="2.512938490">
        <ele>369.90</ele>
        <time>2014-03-02T09:09:50Z</time>
      </trkpt>
      <trkpt lat="41.632596720" lon="2.512945020">
        <ele>370.10</ele>
        <time>2014-03-02T09:09:51Z</time>
      </trkpt>
      <trkpt lat="41.632610130" lon="2.512953410">
        <ele>370.30</ele>
        <time>2014-03-02T09:09:52Z</time>
      </trkpt>
      <trkpt lat="41.632623370" lon="2.512960110">
        <ele>370.50</ele>
        <time>2014-03-02T09:09:53Z</time>
      </trkpt>
      <trkpt lat="41.632633430" lon="2.512965140">
        <ele>370.50</ele>
        <time>2014-03-02T09:09:54Z</time>
      </trkpt>
      <trkpt lat="41.632646670" lon="2.512970000">
        <ele>370.60</ele>
        <time>2014-03-02T09:09:55Z</time>
      </trkpt>
      <trkpt lat="41.632658410" lon="2.512973360">
        <ele>370.60</ele>
        <time>2014-03-02T09:09:56Z</time>
      </trkpt>
      <trkpt lat="41.632670140" lon="2.512981740">
        <ele>370.80</ele>
        <time>2014-03-02T09:09:57Z</time>
      </trkpt>
      <trkpt lat="41.632678350" lon="2.512991800">
        <ele>370.90</ele>
        <time>2014-03-02T09:09:58Z</time>
      </trkpt>
      <trkpt lat="41.632690090" lon="2.513001690">
        <ele>371.40</ele>
        <time>2014-03-02T09:09:59Z</time>
      </trkpt>
      <trkpt lat="41.632701820" lon="2.513008390">
        <ele>371.80</ele>
        <time>2014-03-02T09:10:00Z</time>
      </trkpt>
      <trkpt lat="41.632713390" lon="2.513018450">
        <ele>372.00</ele>
        <time>2014-03-02T09:10:01Z</time>
      </trkpt>
      <trkpt lat="41.632725130" lon="2.513025160">
        <ele>372.20</ele>
        <time>2014-03-02T09:10:02Z</time>
      </trkpt>
      <trkpt lat="41.632735020" lon="2.513033370">
        <ele>372.30</ele>
        <time>2014-03-02T09:10:03Z</time>
      </trkpt>
      <trkpt lat="41.632745070" lon="2.513041750">
        <ele>372.80</ele>
        <time>2014-03-02T09:10:04Z</time>
      </trkpt>
      <trkpt lat="41.632755130" lon="2.513048460">
        <ele>373.20</ele>
        <time>2014-03-02T09:10:05Z</time>
      </trkpt>
      <trkpt lat="41.632770050" lon="2.513053490">
        <ele>373.40</ele>
        <time>2014-03-02T09:10:06Z</time>
      </trkpt>
      <trkpt lat="41.632785140" lon="2.513060020">
        <ele>373.60</ele>
        <time>2014-03-02T09:10:07Z</time>
      </trkpt>
      <trkpt lat="41.632800060" lon="2.513063380">
        <ele>373.80</ele>
        <time>2014-03-02T09:10:08Z</time>
      </trkpt>
      <trkpt lat="41.632815150" lon="2.513065050">
        <ele>374.00</ele>
        <time>2014-03-02T09:10:09Z</time>
      </trkpt>
      <trkpt lat="41.632828390" lon="2.513066730">
        <ele>374.20</ele>
        <time>2014-03-02T09:10:10Z</time>
      </trkpt>
      <trkpt lat="41.632841800" lon="2.513068410">
        <ele>374.30</ele>
        <time>2014-03-02T09:10:11Z</time>
      </trkpt>
      <trkpt lat="41.632856720" lon="2.513068410">
        <ele>374.30</ele>
        <time>2014-03-02T09:10:12Z</time>
      </trkpt>
      <trkpt lat="41.632871810" lon="2.513070080">
        <ele>374.60</ele>
        <time>2014-03-02T09:10:13Z</time>
      </trkpt>
      <trkpt lat="41.632885050" lon="2.513070080">
        <ele>374.90</ele>
        <time>2014-03-02T09:10:14Z</time>
      </trkpt>
      <trkpt lat="41.632901820" lon="2.513076790">
        <ele>375.00</ele>
        <time>2014-03-02T09:10:15Z</time>
      </trkpt>
      <trkpt lat="41.632920090" lon="2.513090030">
        <ele>375.20</ele>
        <time>2014-03-02T09:10:16Z</time>
      </trkpt>
      <trkpt lat="41.632936690" lon="2.513096740">
        <ele>375.40</ele>
        <time>2014-03-02T09:10:17Z</time>
      </trkpt>
      <trkpt lat="41.632950100" lon="2.513101770">
        <ele>375.30</ele>
        <time>2014-03-02T09:10:18Z</time>
      </trkpt>
      <trkpt lat="41.632966690" lon="2.513108470">
        <ele>375.20</ele>
        <time>2014-03-02T09:10:19Z</time>
      </trkpt>
      <trkpt lat="41.632981780" lon="2.513115010">
        <ele>375.30</ele>
        <time>2014-03-02T09:10:20Z</time>
      </trkpt>
      <trkpt lat="41.632995020" lon="2.513123390">
        <ele>375.30</ele>
        <time>2014-03-02T09:10:21Z</time>
      </trkpt>
      <trkpt lat="41.633006760" lon="2.513131770">
        <ele>375.30</ele>
        <time>2014-03-02T09:10:22Z</time>
      </trkpt>
      <trkpt lat="41.633020000" lon="2.513141660">
        <ele>375.50</ele>
        <time>2014-03-02T09:10:23Z</time>
      </trkpt>
      <trkpt lat="41.633033410" lon="2.513150050">
        <ele>375.70</ele>
        <time>2014-03-02T09:10:24Z</time>
      </trkpt>
      <trkpt lat="41.633048330" lon="2.513156750">
        <ele>375.90</ele>
        <time>2014-03-02T09:10:25Z</time>
      </trkpt>
      <trkpt lat="41.633060070" lon="2.513165130">
        <ele>376.10</ele>
        <time>2014-03-02T09:10:26Z</time>
      </trkpt>
      <trkpt lat="41.633073480" lon="2.513173350">
        <ele>376.20</ele>
        <time>2014-03-02T09:10:27Z</time>
      </trkpt>
      <trkpt lat="41.633085040" lon="2.513181730">
        <ele>376.30</ele>
        <time>2014-03-02T09:10:28Z</time>
      </trkpt>
      <trkpt lat="41.633098460" lon="2.513195140">
        <ele>376.40</ele>
        <time>2014-03-02T09:10:29Z</time>
      </trkpt>
      <trkpt lat="41.633113380" lon="2.513205030">
        <ele>376.70</ele>
        <time>2014-03-02T09:10:30Z</time>
      </trkpt>
      <trkpt lat="41.633126790" lon="2.513215090">
        <ele>376.80</ele>
        <time>2014-03-02T09:10:31Z</time>
      </trkpt>
      <trkpt lat="41.633135000" lon="2.513221800">
        <ele>377.00</ele>
        <time>2014-03-02T09:10:32Z</time>
      </trkpt>
      <trkpt lat="41.633146740" lon="2.513230010">
        <ele>377.20</ele>
        <time>2014-03-02T09:10:33Z</time>
      </trkpt>
      <trkpt lat="41.633160150" lon="2.513243420">
        <ele>377.30</ele>
        <time>2014-03-02T09:10:34Z</time>
      </trkpt>
      <trkpt lat="41.633173390" lon="2.513256660">
        <ele>377.40</ele>
        <time>2014-03-02T09:10:35Z</time>
      </trkpt>
      <trkpt lat="41.633185120" lon="2.513271750">
        <ele>377.50</ele>
        <time>2014-03-02T09:10:36Z</time>
      </trkpt>
      <trkpt lat="41.633195020" lon="2.513293380">
        <ele>377.50</ele>
        <time>2014-03-02T09:10:37Z</time>
      </trkpt>
      <trkpt lat="41.633203400" lon="2.513316680">
        <ele>377.50</ele>
        <time>2014-03-02T09:10:38Z</time>
      </trkpt>
      <trkpt lat="41.633208430" lon="2.513340150">
        <ele>377.30</ele>
        <time>2014-03-02T09:10:39Z</time>
      </trkpt>
      <trkpt lat="41.633213460" lon="2.513361770">
        <ele>377.10</ele>
        <time>2014-03-02T09:10:40Z</time>
      </trkpt>
      <trkpt lat="41.633215130" lon="2.513386750">
        <ele>377.00</ele>
        <time>2014-03-02T09:10:41Z</time>
      </trkpt>
      <trkpt lat="41.633215130" lon="2.513406700">
        <ele>377.40</ele>
        <time>2014-03-02T09:10:42Z</time>
      </trkpt>
      <trkpt lat="41.633215130" lon="2.513425140">
        <ele>377.60</ele>
        <time>2014-03-02T09:10:43Z</time>
      </trkpt>
      <trkpt lat="41.633213460" lon="2.513446770">
        <ele>377.70</ele>
        <time>2014-03-02T09:10:44Z</time>
      </trkpt>
      <trkpt lat="41.633210100" lon="2.513468390">
        <ele>377.70</ele>
        <time>2014-03-02T09:10:45Z</time>
      </trkpt>
      <trkpt lat="41.633206750" lon="2.513493370">
        <ele>377.80</ele>
        <time>2014-03-02T09:10:46Z</time>
      </trkpt>
      <trkpt lat="41.633201720" lon="2.513518350">
        <ele>377.90</ele>
        <time>2014-03-02T09:10:47Z</time>
      </trkpt>
      <trkpt lat="41.633196690" lon="2.513543490">
        <ele>378.00</ele>
        <time>2014-03-02T09:10:48Z</time>
      </trkpt>
      <trkpt lat="41.633193340" lon="2.513568470">
        <ele>377.90</ele>
        <time>2014-03-02T09:10:49Z</time>
      </trkpt>
      <trkpt lat="41.633190150" lon="2.513590100">
        <ele>377.90</ele>
        <time>2014-03-02T09:10:50Z</time>
      </trkpt>
      <trkpt lat="41.633188480" lon="2.513610050">
        <ele>378.10</ele>
        <time>2014-03-02T09:10:51Z</time>
      </trkpt>
      <trkpt lat="41.633185120" lon="2.513631670">
        <ele>378.30</ele>
        <time>2014-03-02T09:10:52Z</time>
      </trkpt>
      <trkpt lat="41.633180100" lon="2.513650110">
        <ele>378.50</ele>
        <time>2014-03-02T09:10:53Z</time>
      </trkpt>
      <trkpt lat="41.633175070" lon="2.513670060">
        <ele>378.40</ele>
        <time>2014-03-02T09:10:54Z</time>
      </trkpt>
      <trkpt lat="41.633171710" lon="2.513691680">
        <ele>378.40</ele>
        <time>2014-03-02T09:10:55Z</time>
      </trkpt>
      <trkpt lat="41.633166680" lon="2.513715150">
        <ele>377.90</ele>
        <time>2014-03-02T09:10:56Z</time>
      </trkpt>
      <trkpt lat="41.633161820" lon="2.513740130">
        <ele>377.40</ele>
        <time>2014-03-02T09:10:57Z</time>
      </trkpt>
      <trkpt lat="41.633155120" lon="2.513765110">
        <ele>377.60</ele>
        <time>2014-03-02T09:10:58Z</time>
      </trkpt>
      <trkpt lat="41.633146740" lon="2.513790090">
        <ele>377.70</ele>
        <time>2014-03-02T09:10:59Z</time>
      </trkpt>
      <trkpt lat="41.633140030" lon="2.513815070">
        <ele>377.80</ele>
        <time>2014-03-02T09:11:00Z</time>
      </trkpt>
      <trkpt lat="41.633133490" lon="2.513838370">
        <ele>377.90</ele>
        <time>2014-03-02T09:11:01Z</time>
      </trkpt>
      <trkpt lat="41.633125110" lon="2.513860160">
        <ele>377.90</ele>
        <time>2014-03-02T09:11:02Z</time>
      </trkpt>
      <trkpt lat="41.633115050" lon="2.513880110">
        <ele>378.40</ele>
        <time>2014-03-02T09:11:03Z</time>
      </trkpt>
      <trkpt lat="41.633105160" lon="2.513896710">
        <ele>378.70</ele>
        <time>2014-03-02T09:11:04Z</time>
      </trkpt>
      <trkpt lat="41.633095100" lon="2.513913470">
        <ele>379.00</ele>
        <time>2014-03-02T09:11:05Z</time>
      </trkpt>
      <trkpt lat="41.633083370" lon="2.513926710">
        <ele>378.50</ele>
        <time>2014-03-02T09:11:06Z</time>
      </trkpt>
      <trkpt lat="41.633073480" lon="2.513938450">
        <ele>378.20</ele>
        <time>2014-03-02T09:11:07Z</time>
      </trkpt>
      <trkpt lat="41.633063420" lon="2.513948340">
        <ele>378.60</ele>
        <time>2014-03-02T09:11:08Z</time>
      </trkpt>
      <trkpt lat="41.633050010" lon="2.513960070">
        <ele>379.00</ele>
        <time>2014-03-02T09:11:09Z</time>
      </trkpt>
      <trkpt lat="41.633033410" lon="2.513971810">
        <ele>379.10</ele>
        <time>2014-03-02T09:11:10Z</time>
      </trkpt>
      <trkpt lat="41.633020000" lon="2.513985050">
        <ele>379.30</ele>
        <time>2014-03-02T09:11:11Z</time>
      </trkpt>
      <trkpt lat="41.633005080" lon="2.514000140">
        <ele>379.40</ele>
        <time>2014-03-02T09:11:12Z</time>
      </trkpt>
      <trkpt lat="41.632993350" lon="2.514011710">
        <ele>379.40</ele>
        <time>2014-03-02T09:11:13Z</time>
      </trkpt>
      <trkpt lat="41.632980100" lon="2.514021760">
        <ele>379.50</ele>
        <time>2014-03-02T09:11:14Z</time>
      </trkpt>
      <trkpt lat="41.632966690" lon="2.514033330">
        <ele>379.80</ele>
        <time>2014-03-02T09:11:15Z</time>
      </trkpt>
      <trkpt lat="41.632953450" lon="2.514046740">
        <ele>380.10</ele>
        <time>2014-03-02T09:11:16Z</time>
      </trkpt>
      <trkpt lat="41.632938360" lon="2.514060150">
        <ele>380.40</ele>
        <time>2014-03-02T09:11:17Z</time>
      </trkpt>
      <trkpt lat="41.632925120" lon="2.514073400">
        <ele>380.60</ele>
        <time>2014-03-02T09:11:18Z</time>
      </trkpt>
      <trkpt lat="41.632915060" lon="2.514086810">
        <ele>380.70</ele>
        <time>2014-03-02T09:11:19Z</time>
      </trkpt>
      <trkpt lat="41.632903490" lon="2.514101730">
        <ele>380.90</ele>
        <time>2014-03-02T09:11:20Z</time>
      </trkpt>
      <trkpt lat="41.632891760" lon="2.514118490">
        <ele>381.10</ele>
        <time>2014-03-02T09:11:21Z</time>
      </trkpt>
      <trkpt lat="41.632881700" lon="2.514135090">
        <ele>381.20</ele>
        <time>2014-03-02T09:11:22Z</time>
      </trkpt>
      <trkpt lat="41.632873490" lon="2.514156710">
        <ele>381.30</ele>
        <time>2014-03-02T09:11:23Z</time>
      </trkpt>
      <trkpt lat="41.632868460" lon="2.514183370">
        <ele>381.30</ele>
        <time>2014-03-02T09:11:24Z</time>
      </trkpt>
      <trkpt lat="41.632861750" lon="2.514211700">
        <ele>381.80</ele>
        <time>2014-03-02T09:11:25Z</time>
      </trkpt>
      <trkpt lat="41.632856720" lon="2.514245060">
        <ele>382.10</ele>
        <time>2014-03-02T09:11:26Z</time>
      </trkpt>
      <trkpt lat="41.632851690" lon="2.514276740">
        <ele>381.80</ele>
        <time>2014-03-02T09:11:27Z</time>
      </trkpt>
      <trkpt lat="41.632845150" lon="2.514306750">
        <ele>381.50</ele>
        <time>2014-03-02T09:11:28Z</time>
      </trkpt>
      <trkpt lat="41.632840130" lon="2.514340110">
        <ele>381.30</ele>
        <time>2014-03-02T09:11:29Z</time>
      </trkpt>
      <trkpt lat="41.632838450" lon="2.514375150">
        <ele>381.20</ele>
        <time>2014-03-02T09:11:30Z</time>
      </trkpt>
      <trkpt lat="41.632840130" lon="2.514415040">
        <ele>381.10</ele>
        <time>2014-03-02T09:11:31Z</time>
      </trkpt>
      <trkpt lat="41.632841800" lon="2.514456780">
        <ele>381.30</ele>
        <time>2014-03-02T09:11:32Z</time>
      </trkpt>
      <trkpt lat="41.632845150" lon="2.514501710">
        <ele>381.40</ele>
        <time>2014-03-02T09:11:33Z</time>
      </trkpt>
      <trkpt lat="41.632850020" lon="2.514546810">
        <ele>381.50</ele>
        <time>2014-03-02T09:11:34Z</time>
      </trkpt>
      <trkpt lat="41.632856720" lon="2.514590060">
        <ele>381.60</ele>
        <time>2014-03-02T09:11:35Z</time>
      </trkpt>
      <trkpt lat="41.632866780" lon="2.514633480">
        <ele>381.60</ele>
        <time>2014-03-02T09:11:36Z</time>
      </trkpt>
      <trkpt lat="41.632875160" lon="2.514678400">
        <ele>381.70</ele>
        <time>2014-03-02T09:11:37Z</time>
      </trkpt>
      <trkpt lat="41.632890080" lon="2.514718470">
        <ele>381.70</ele>
        <time>2014-03-02T09:11:38Z</time>
      </trkpt>
      <trkpt lat="41.632905000" lon="2.514758370">
        <ele>381.20</ele>
        <time>2014-03-02T09:11:39Z</time>
      </trkpt>
      <trkpt lat="41.632926790" lon="2.514793400">
        <ele>380.90</ele>
        <time>2014-03-02T09:11:40Z</time>
      </trkpt>
      <trkpt lat="41.632951770" lon="2.514825090">
        <ele>380.70</ele>
        <time>2014-03-02T09:11:41Z</time>
      </trkpt>
      <trkpt lat="41.632978430" lon="2.514851740">
        <ele>380.50</ele>
        <time>2014-03-02T09:11:42Z</time>
      </trkpt>
      <trkpt lat="41.633006760" lon="2.514870010">
        <ele>380.30</ele>
        <time>2014-03-02T09:11:43Z</time>
      </trkpt>
      <trkpt lat="41.633036760" lon="2.514888450">
        <ele>380.10</ele>
        <time>2014-03-02T09:11:44Z</time>
      </trkpt>
      <trkpt lat="41.633065100" lon="2.514901700">
        <ele>380.00</ele>
        <time>2014-03-02T09:11:45Z</time>
      </trkpt>
      <trkpt lat="41.633101810" lon="2.514916780">
        <ele>379.40</ele>
        <time>2014-03-02T09:11:46Z</time>
      </trkpt>
      <trkpt lat="41.633143380" lon="2.514935060">
        <ele>379.00</ele>
        <time>2014-03-02T09:11:47Z</time>
      </trkpt>
      <trkpt lat="41.633185120" lon="2.514953330">
        <ele>378.40</ele>
        <time>2014-03-02T09:11:48Z</time>
      </trkpt>
      <trkpt lat="41.633225020" lon="2.514971770">
        <ele>378.00</ele>
        <time>2014-03-02T09:11:49Z</time>
      </trkpt>
      <trkpt lat="41.633266760" lon="2.514983340">
        <ele>377.70</ele>
        <time>2014-03-02T09:11:50Z</time>
      </trkpt>
      <trkpt lat="41.633315040" lon="2.514988370">
        <ele>377.40</ele>
        <time>2014-03-02T09:11:51Z</time>
      </trkpt>
      <trkpt lat="41.633363490" lon="2.514993390">
        <ele>377.10</ele>
        <time>2014-03-02T09:11:52Z</time>
      </trkpt>
      <trkpt lat="41.633410090" lon="2.514990040">
        <ele>377.00</ele>
        <time>2014-03-02T09:11:53Z</time>
      </trkpt>
      <trkpt lat="41.633451670" lon="2.514983340">
        <ele>377.00</ele>
        <time>2014-03-02T09:11:54Z</time>
      </trkpt>
      <trkpt lat="41.633491730" lon="2.514965060">
        <ele>376.30</ele>
        <time>2014-03-02T09:11:55Z</time>
      </trkpt>
      <trkpt lat="41.633528450" lon="2.514936730">
        <ele>375.80</ele>
        <time>2014-03-02T09:11:56Z</time>
      </trkpt>
      <trkpt lat="41.633566670" lon="2.514903370">
        <ele>375.40</ele>
        <time>2014-03-02T09:11:57Z</time>
      </trkpt>
      <trkpt lat="41.633603380" lon="2.514870010">
        <ele>375.50</ele>
        <time>2014-03-02T09:11:58Z</time>
      </trkpt>
      <trkpt lat="41.633638420" lon="2.514828440">
        <ele>375.60</ele>
        <time>2014-03-02T09:11:59Z</time>
      </trkpt>
      <trkpt lat="41.633676810" lon="2.514783340">
        <ele>375.00</ele>
        <time>2014-03-02T09:12:00Z</time>
      </trkpt>
      <trkpt lat="41.633720060" lon="2.514750150">
        <ele>374.60</ele>
        <time>2014-03-02T09:12:01Z</time>
      </trkpt>
      <trkpt lat="41.633768340" lon="2.514730030">
        <ele>374.10</ele>
        <time>2014-03-02T09:12:02Z</time>
      </trkpt>
      <trkpt lat="41.633820140" lon="2.514725010">
        <ele>373.80</ele>
        <time>2014-03-02T09:12:03Z</time>
      </trkpt>
      <trkpt lat="41.633875120" lon="2.514730030">
        <ele>373.60</ele>
        <time>2014-03-02T09:12:04Z</time>
      </trkpt>
      <trkpt lat="41.633930110" lon="2.514743450">
        <ele>373.50</ele>
        <time>2014-03-02T09:12:05Z</time>
      </trkpt>
      <trkpt lat="41.633986770" lon="2.514758370">
        <ele>373.40</ele>
        <time>2014-03-02T09:12:06Z</time>
      </trkpt>
      <trkpt lat="41.634043430" lon="2.514771780">
        <ele>372.70</ele>
        <time>2014-03-02T09:12:07Z</time>
      </trkpt>
      <trkpt lat="41.634100090" lon="2.514781670">
        <ele>372.30</ele>
        <time>2014-03-02T09:12:08Z</time>
      </trkpt>
      <trkpt lat="41.634155080" lon="2.514780160">
        <ele>371.90</ele>
        <time>2014-03-02T09:12:09Z</time>
      </trkpt>
      <trkpt lat="41.634216770" lon="2.514778480">
        <ele>371.20</ele>
        <time>2014-03-02T09:12:10Z</time>
      </trkpt>
      <trkpt lat="41.634275110" lon="2.514775130">
        <ele>370.60</ele>
        <time>2014-03-02T09:12:11Z</time>
      </trkpt>
      <trkpt lat="41.634323390" lon="2.514758370">
        <ele>369.50</ele>
        <time>2014-03-02T09:12:12Z</time>
      </trkpt>
      <trkpt lat="41.634376700" lon="2.514728360">
        <ele>368.70</ele>
        <time>2014-03-02T09:12:13Z</time>
      </trkpt>
      <trkpt lat="41.634426820" lon="2.514690140">
        <ele>368.20</ele>
        <time>2014-03-02T09:12:14Z</time>
      </trkpt>
      <trkpt lat="41.634478450" lon="2.514658450">
        <ele>367.90</ele>
        <time>2014-03-02T09:12:15Z</time>
      </trkpt>
      <trkpt lat="41.634530080" lon="2.514638340">
        <ele>367.60</ele>
        <time>2014-03-02T09:12:16Z</time>
      </trkpt>
      <trkpt lat="41.634583390" lon="2.514635150">
        <ele>367.00</ele>
        <time>2014-03-02T09:12:17Z</time>
      </trkpt>
      <trkpt lat="41.634636700" lon="2.514636830">
        <ele>366.60</ele>
        <time>2014-03-02T09:12:18Z</time>
      </trkpt>
      <trkpt lat="41.634696720" lon="2.514643370">
        <ele>365.70</ele>
        <time>2014-03-02T09:12:19Z</time>
      </trkpt>
      <trkpt lat="41.634756730" lon="2.514656780">
        <ele>365.00</ele>
        <time>2014-03-02T09:12:20Z</time>
      </trkpt>
      <trkpt lat="41.634818420" lon="2.514670020">
        <ele>364.50</ele>
        <time>2014-03-02T09:12:21Z</time>
      </trkpt>
      <trkpt lat="41.634875080" lon="2.514680080">
        <ele>364.10</ele>
        <time>2014-03-02T09:12:22Z</time>
      </trkpt>
      <trkpt lat="41.634928390" lon="2.514683430">
        <ele>363.70</ele>
        <time>2014-03-02T09:12:23Z</time>
      </trkpt>
      <trkpt lat="41.634976670" lon="2.514683430">
        <ele>363.20</ele>
        <time>2014-03-02T09:12:24Z</time>
      </trkpt>
      <trkpt lat="41.635018410" lon="2.514700030">
        <ele>362.80</ele>
        <time>2014-03-02T09:12:25Z</time>
      </trkpt>
      <trkpt lat="41.635058480" lon="2.514723330">
        <ele>361.70</ele>
        <time>2014-03-02T09:12:26Z</time>
      </trkpt>
      <trkpt lat="41.635093350" lon="2.514755010">
        <ele>361.00</ele>
        <time>2014-03-02T09:12:27Z</time>
      </trkpt>
      <trkpt lat="41.635118490" lon="2.514781670">
        <ele>360.40</ele>
        <time>2014-03-02T09:12:28Z</time>
      </trkpt>
      <trkpt lat="41.635141800" lon="2.514808490">
        <ele>359.80</ele>
        <time>2014-03-02T09:12:29Z</time>
      </trkpt>
      <trkpt lat="41.635161750" lon="2.514836820">
        <ele>359.40</ele>
        <time>2014-03-02T09:12:30Z</time>
      </trkpt>
      <trkpt lat="41.635176660" lon="2.514853420">
        <ele>358.60</ele>
        <time>2014-03-02T09:12:31Z</time>
      </trkpt>
      <trkpt lat="41.635191750" lon="2.514866830">
        <ele>358.00</ele>
        <time>2014-03-02T09:12:32Z</time>
      </trkpt>
      <trkpt lat="41.635205000" lon="2.514873370">
        <ele>357.10</ele>
        <time>2014-03-02T09:12:33Z</time>
      </trkpt>
      <trkpt lat="41.635220080" lon="2.514875040">
        <ele>356.50</ele>
        <time>2014-03-02T09:12:34Z</time>
      </trkpt>
      <trkpt lat="41.635231820" lon="2.514875040">
        <ele>356.00</ele>
        <time>2014-03-02T09:12:35Z</time>
      </trkpt>
      <trkpt lat="41.635240030" lon="2.514871690">
        <ele>355.70</ele>
        <time>2014-03-02T09:12:36Z</time>
      </trkpt>
      <trkpt lat="41.635251770" lon="2.514866830">
        <ele>355.50</ele>
        <time>2014-03-02T09:12:37Z</time>
      </trkpt>
      <trkpt lat="41.635263330" lon="2.514865150">
        <ele>355.00</ele>
        <time>2014-03-02T09:12:38Z</time>
      </trkpt>
      <trkpt lat="41.635275070" lon="2.514860120">
        <ele>354.60</ele>
        <time>2014-03-02T09:12:39Z</time>
      </trkpt>
      <trkpt lat="41.635286800" lon="2.514855090">
        <ele>354.20</ele>
        <time>2014-03-02T09:12:40Z</time>
      </trkpt>
      <trkpt lat="41.635300050" lon="2.514843360">
        <ele>353.90</ele>
        <time>2014-03-02T09:12:41Z</time>
      </trkpt>
      <trkpt lat="41.635316810" lon="2.514835140">
        <ele>353.70</ele>
        <time>2014-03-02T09:12:42Z</time>
      </trkpt>
      <trkpt lat="41.635335080" lon="2.514825090">
        <ele>352.80</ele>
        <time>2014-03-02T09:12:43Z</time>
      </trkpt>
      <trkpt lat="41.635353360" lon="2.514815030">
        <ele>352.10</ele>
        <time>2014-03-02T09:12:44Z</time>
      </trkpt>
      <trkpt lat="41.635373470" lon="2.514805140">
        <ele>351.60</ele>
        <time>2014-03-02T09:12:45Z</time>
      </trkpt>
      <trkpt lat="41.635391740" lon="2.514796750">
        <ele>351.20</ele>
        <time>2014-03-02T09:12:46Z</time>
      </trkpt>
      <trkpt lat="41.635408340" lon="2.514793400">
        <ele>350.90</ele>
        <time>2014-03-02T09:12:47Z</time>
      </trkpt>
      <trkpt lat="41.635430130" lon="2.514791730">
        <ele>350.10</ele>
        <time>2014-03-02T09:12:48Z</time>
      </trkpt>
      <trkpt lat="41.635448410" lon="2.514783340">
        <ele>349.60</ele>
        <time>2014-03-02T09:12:49Z</time>
      </trkpt>
      <trkpt lat="41.635458460" lon="2.514768420">
        <ele>349.00</ele>
        <time>2014-03-02T09:12:50Z</time>
      </trkpt>
      <trkpt lat="41.635470030" lon="2.514751830">
        <ele>348.60</ele>
        <time>2014-03-02T09:12:51Z</time>
      </trkpt>
      <trkpt lat="41.635486800" lon="2.514740090">
        <ele>348.30</ele>
        <time>2014-03-02T09:12:52Z</time>
      </trkpt>
      <trkpt lat="41.635505070" lon="2.514735060">
        <ele>348.20</ele>
        <time>2014-03-02T09:12:53Z</time>
      </trkpt>
      <trkpt lat="41.635528370" lon="2.514736740">
        <ele>348.10</ele>
        <time>2014-03-02T09:12:54Z</time>
      </trkpt>
      <trkpt lat="41.635545130" lon="2.514738420">
        <ele>347.50</ele>
        <time>2014-03-02T09:12:55Z</time>
      </trkpt>
      <trkpt lat="41.635561730" lon="2.514743450">
        <ele>347.10</ele>
        <time>2014-03-02T09:12:56Z</time>
      </trkpt>
      <trkpt lat="41.635575140" lon="2.514750150">
        <ele>346.20</ele>
        <time>2014-03-02T09:12:57Z</time>
      </trkpt>
      <trkpt lat="41.635583350" lon="2.514756690">
        <ele>345.50</ele>
        <time>2014-03-02T09:12:58Z</time>
      </trkpt>
      <trkpt lat="41.635590060" lon="2.514761720">
        <ele>344.80</ele>
        <time>2014-03-02T09:12:59Z</time>
      </trkpt>
      <trkpt lat="41.635598440" lon="2.514766750">
        <ele>344.20</ele>
        <time>2014-03-02T09:13:00Z</time>
      </trkpt>
      <trkpt lat="41.635608330" lon="2.514771780">
        <ele>343.80</ele>
        <time>2014-03-02T09:13:01Z</time>
      </trkpt>
      <trkpt lat="41.635618390" lon="2.514780160">
        <ele>343.60</ele>
        <time>2014-03-02T09:13:02Z</time>
      </trkpt>
      <trkpt lat="41.635630130" lon="2.514790050">
        <ele>343.50</ele>
        <time>2014-03-02T09:13:03Z</time>
      </trkpt>
      <trkpt lat="41.635646720" lon="2.514800110">
        <ele>342.60</ele>
        <time>2014-03-02T09:13:04Z</time>
      </trkpt>
      <trkpt lat="41.635663490" lon="2.514806810">
        <ele>341.90</ele>
        <time>2014-03-02T09:13:05Z</time>
      </trkpt>
      <trkpt lat="41.635680080" lon="2.514816700">
        <ele>341.40</ele>
        <time>2014-03-02T09:13:06Z</time>
      </trkpt>
      <trkpt lat="41.635693490" lon="2.514828440">
        <ele>341.30</ele>
        <time>2014-03-02T09:13:07Z</time>
      </trkpt>
      <trkpt lat="41.635706740" lon="2.514840010">
        <ele>341.30</ele>
        <time>2014-03-02T09:13:08Z</time>
      </trkpt>
      <trkpt lat="41.635723330" lon="2.514853420">
        <ele>340.60</ele>
        <time>2014-03-02T09:13:09Z</time>
      </trkpt>
      <trkpt lat="41.635736740" lon="2.514866830">
        <ele>340.10</ele>
        <time>2014-03-02T09:13:10Z</time>
      </trkpt>
      <trkpt lat="41.635750150" lon="2.514876720">
        <ele>339.40</ele>
        <time>2014-03-02T09:13:11Z</time>
      </trkpt>
      <trkpt lat="41.635766750" lon="2.514896670">
        <ele>339.00</ele>
        <time>2014-03-02T09:13:12Z</time>
      </trkpt>
      <trkpt lat="41.635786700" lon="2.514918460">
        <ele>338.60</ele>
        <time>2014-03-02T09:13:13Z</time>
      </trkpt>
      <trkpt lat="41.635805140" lon="2.514938410">
        <ele>338.20</ele>
        <time>2014-03-02T09:13:14Z</time>
      </trkpt>
      <trkpt lat="41.635825090" lon="2.514951820">
        <ele>337.90</ele>
        <time>2014-03-02T09:13:15Z</time>
      </trkpt>
      <trkpt lat="41.635850070" lon="2.514961710">
        <ele>337.50</ele>
        <time>2014-03-02T09:13:16Z</time>
      </trkpt>
      <trkpt lat="41.635883430" lon="2.514961710">
        <ele>337.20</ele>
        <time>2014-03-02T09:13:17Z</time>
      </trkpt>
      <trkpt lat="41.635918460" lon="2.514961710">
        <ele>337.00</ele>
        <time>2014-03-02T09:13:18Z</time>
      </trkpt>
      <trkpt lat="41.635956680" lon="2.514970090">
        <ele>336.80</ele>
        <time>2014-03-02T09:13:19Z</time>
      </trkpt>
      <trkpt lat="41.635993400" lon="2.514976800">
        <ele>336.70</ele>
        <time>2014-03-02T09:13:20Z</time>
      </trkpt>
      <trkpt lat="41.636028430" lon="2.514985010">
        <ele>336.30</ele>
        <time>2014-03-02T09:13:21Z</time>
      </trkpt>
      <trkpt lat="41.636063470" lon="2.515001780">
        <ele>336.00</ele>
        <time>2014-03-02T09:13:22Z</time>
      </trkpt>
      <trkpt lat="41.636096660" lon="2.515030110">
        <ele>335.00</ele>
        <time>2014-03-02T09:13:23Z</time>
      </trkpt>
      <trkpt lat="41.636123480" lon="2.515061790">
        <ele>334.30</ele>
        <time>2014-03-02T09:13:24Z</time>
      </trkpt>
      <trkpt lat="41.636150140" lon="2.515098340">
        <ele>333.80</ele>
        <time>2014-03-02T09:13:25Z</time>
      </trkpt>
      <trkpt lat="41.636173440" lon="2.515140080">
        <ele>333.40</ele>
        <time>2014-03-02T09:13:26Z</time>
      </trkpt>
      <trkpt lat="41.636203450" lon="2.515175110">
        <ele>333.20</ele>
        <time>2014-03-02T09:13:27Z</time>
      </trkpt>
      <trkpt lat="41.636236810" lon="2.515208470">
        <ele>333.00</ele>
        <time>2014-03-02T09:13:28Z</time>
      </trkpt>
      <trkpt lat="41.636276710" lon="2.515236800">
        <ele>332.90</ele>
        <time>2014-03-02T09:13:29Z</time>
      </trkpt>
      <trkpt lat="41.636315090" lon="2.515261780">
        <ele>332.30</ele>
        <time>2014-03-02T09:13:30Z</time>
      </trkpt>
      <trkpt lat="41.636358350" lon="2.515281730">
        <ele>331.80</ele>
        <time>2014-03-02T09:13:31Z</time>
      </trkpt>
      <trkpt lat="41.636405120" lon="2.515293470">
        <ele>331.40</ele>
        <time>2014-03-02T09:13:32Z</time>
      </trkpt>
      <trkpt lat="41.636456750" lon="2.515298500">
        <ele>331.00</ele>
        <time>2014-03-02T09:13:33Z</time>
      </trkpt>
      <trkpt lat="41.636510060" lon="2.515305030">
        <ele>330.70</ele>
        <time>2014-03-02T09:13:34Z</time>
      </trkpt>
      <trkpt lat="41.636565040" lon="2.515313420">
        <ele>329.80</ele>
        <time>2014-03-02T09:13:35Z</time>
      </trkpt>
      <trkpt lat="41.636623380" lon="2.515325150">
        <ele>329.10</ele>
        <time>2014-03-02T09:13:36Z</time>
      </trkpt>
      <trkpt lat="41.636683400" lon="2.515341750">
        <ele>328.30</ele>
        <time>2014-03-02T09:13:37Z</time>
      </trkpt>
      <trkpt lat="41.636746760" lon="2.515353480">
        <ele>327.80</ele>
        <time>2014-03-02T09:13:38Z</time>
      </trkpt>
      <trkpt lat="41.636813480" lon="2.515356670">
        <ele>327.40</ele>
        <time>2014-03-02T09:13:39Z</time>
      </trkpt>
      <trkpt lat="41.636880040" lon="2.515353480">
        <ele>327.10</ele>
        <time>2014-03-02T09:13:40Z</time>
      </trkpt>
      <trkpt lat="41.636945080" lon="2.515343420">
        <ele>327.00</ele>
        <time>2014-03-02T09:13:41Z</time>
      </trkpt>
      <trkpt lat="41.637008450" lon="2.515328340">
        <ele>326.50</ele>
        <time>2014-03-02T09:13:42Z</time>
      </trkpt>
      <trkpt lat="41.637070140" lon="2.515310060">
        <ele>326.10</ele>
        <time>2014-03-02T09:13:43Z</time>
      </trkpt>
      <trkpt lat="41.637128470" lon="2.515285080">
        <ele>325.90</ele>
        <time>2014-03-02T09:13:44Z</time>
      </trkpt>
      <trkpt lat="41.637183460" lon="2.515256750">
        <ele>325.30</ele>
        <time>2014-03-02T09:13:45Z</time>
      </trkpt>
      <trkpt lat="41.637233420" lon="2.515225070">
        <ele>324.90</ele>
        <time>2014-03-02T09:13:46Z</time>
      </trkpt>
      <trkpt lat="41.637275160" lon="2.515190030">
        <ele>324.80</ele>
        <time>2014-03-02T09:13:47Z</time>
      </trkpt>
      <trkpt lat="41.637311700" lon="2.515158350">
        <ele>324.70</ele>
        <time>2014-03-02T09:13:48Z</time>
      </trkpt>
      <trkpt lat="41.637343390" lon="2.515133370">
        <ele>324.40</ele>
        <time>2014-03-02T09:13:49Z</time>
      </trkpt>
      <trkpt lat="41.637375070" lon="2.515110070">
        <ele>324.10</ele>
        <time>2014-03-02T09:13:50Z</time>
      </trkpt>
      <trkpt lat="41.637403400" lon="2.515088450">
        <ele>324.00</ele>
        <time>2014-03-02T09:13:51Z</time>
      </trkpt>
      <trkpt lat="41.637430060" lon="2.515071680">
        <ele>324.00</ele>
        <time>2014-03-02T09:13:52Z</time>
      </trkpt>
      <trkpt lat="41.637456710" lon="2.515061790">
        <ele>324.10</ele>
        <time>2014-03-02T09:13:53Z</time>
      </trkpt>
      <trkpt lat="41.637483360" lon="2.515058440">
        <ele>324.30</ele>
        <time>2014-03-02T09:13:54Z</time>
      </trkpt>
      <trkpt lat="41.637511700" lon="2.515056760">
        <ele>324.40</ele>
        <time>2014-03-02T09:13:55Z</time>
      </trkpt>
      <trkpt lat="41.637538350" lon="2.515061790">
        <ele>324.50</ele>
        <time>2014-03-02T09:13:56Z</time>
      </trkpt>
      <trkpt lat="41.637565000" lon="2.515065140">
        <ele>324.60</ele>
        <time>2014-03-02T09:13:57Z</time>
      </trkpt>
      <trkpt lat="41.637591830" lon="2.515070000">
        <ele>324.60</ele>
        <time>2014-03-02T09:13:58Z</time>
      </trkpt>
      <trkpt lat="41.637621670" lon="2.515070000">
        <ele>324.80</ele>
        <time>2014-03-02T09:13:59Z</time>
      </trkpt>
      <trkpt lat="41.637655030" lon="2.515068330">
        <ele>324.90</ele>
        <time>2014-03-02T09:14:00Z</time>
      </trkpt>
      <trkpt lat="41.637693420" lon="2.515066820">
        <ele>325.00</ele>
        <time>2014-03-02T09:14:01Z</time>
      </trkpt>
      <trkpt lat="41.637728450" lon="2.515063470">
        <ele>325.00</ele>
        <time>2014-03-02T09:14:02Z</time>
      </trkpt>
      <trkpt lat="41.637763490" lon="2.515063470">
        <ele>325.30</ele>
        <time>2014-03-02T09:14:03Z</time>
      </trkpt>
      <trkpt lat="41.637798360" lon="2.515063470">
        <ele>325.60</ele>
        <time>2014-03-02T09:14:04Z</time>
      </trkpt>
      <trkpt lat="41.637833390" lon="2.515068330">
        <ele>325.70</ele>
        <time>2014-03-02T09:14:05Z</time>
      </trkpt>
      <trkpt lat="41.637866750" lon="2.515073360">
        <ele>325.60</ele>
        <time>2014-03-02T09:14:06Z</time>
      </trkpt>
      <trkpt lat="41.637898440" lon="2.515081740">
        <ele>325.40</ele>
        <time>2014-03-02T09:14:07Z</time>
      </trkpt>
      <trkpt lat="41.637931800" lon="2.515090120">
        <ele>325.00</ele>
        <time>2014-03-02T09:14:08Z</time>
      </trkpt>
      <trkpt lat="41.637963480" lon="2.515100010">
        <ele>324.70</ele>
        <time>2014-03-02T09:14:09Z</time>
      </trkpt>
      <trkpt lat="41.637995000" lon="2.515113420">
        <ele>324.40</ele>
        <time>2014-03-02T09:14:10Z</time>
      </trkpt>
      <trkpt lat="41.638025000" lon="2.515130020">
        <ele>324.30</ele>
        <time>2014-03-02T09:14:11Z</time>
      </trkpt>
      <trkpt lat="41.638053330" lon="2.515146780">
        <ele>324.20</ele>
        <time>2014-03-02T09:14:12Z</time>
      </trkpt>
      <trkpt lat="41.638076800" lon="2.515158350">
        <ele>324.20</ele>
        <time>2014-03-02T09:14:13Z</time>
      </trkpt>
      <trkpt lat="41.638096750" lon="2.515171760">
        <ele>324.10</ele>
        <time>2014-03-02T09:14:14Z</time>
      </trkpt>
      <trkpt lat="41.638116700" lon="2.515185000">
        <ele>324.30</ele>
        <time>2014-03-02T09:14:15Z</time>
      </trkpt>
      <trkpt lat="41.638138490" lon="2.515186680">
        <ele>324.40</ele>
        <time>2014-03-02T09:14:16Z</time>
      </trkpt>
      <trkpt lat="41.638161800" lon="2.515175110">
        <ele>324.50</ele>
        <time>2014-03-02T09:14:17Z</time>
      </trkpt>
      <trkpt lat="41.638181740" lon="2.515156670">
        <ele>324.30</ele>
        <time>2014-03-02T09:14:18Z</time>
      </trkpt>
      <trkpt lat="41.638201690" lon="2.515133370">
        <ele>324.20</ele>
        <time>2014-03-02T09:14:19Z</time>
      </trkpt>
      <trkpt lat="41.638225000" lon="2.515116780">
        <ele>324.50</ele>
        <time>2014-03-02T09:14:20Z</time>
      </trkpt>
      <trkpt lat="41.638246790" lon="2.515103360">
        <ele>324.60</ele>
        <time>2014-03-02T09:14:21Z</time>
      </trkpt>
      <trkpt lat="41.638266740" lon="2.515096830">
        <ele>324.80</ele>
        <time>2014-03-02T09:14:22Z</time>
      </trkpt>
      <trkpt lat="41.638288360" lon="2.515083420">
        <ele>324.90</ele>
        <time>2014-03-02T09:14:23Z</time>
      </trkpt>
      <trkpt lat="41.638308480" lon="2.515066820">
        <ele>325.00</ele>
        <time>2014-03-02T09:14:24Z</time>
      </trkpt>
      <trkpt lat="41.638326750" lon="2.515048380">
        <ele>324.90</ele>
        <time>2014-03-02T09:14:25Z</time>
      </trkpt>
      <trkpt lat="41.638346700" lon="2.515031780">
        <ele>324.80</ele>
        <time>2014-03-02T09:14:26Z</time>
      </trkpt>
      <trkpt lat="41.638366820" lon="2.515018370">
        <ele>324.60</ele>
        <time>2014-03-02T09:14:27Z</time>
      </trkpt>
      <trkpt lat="41.638388440" lon="2.515001780">
        <ele>324.40</ele>
        <time>2014-03-02T09:14:28Z</time>
      </trkpt>
      <trkpt lat="41.638408390" lon="2.514985010">
        <ele>324.30</ele>
        <time>2014-03-02T09:14:29Z</time>
      </trkpt>
      <trkpt lat="41.638425160" lon="2.514973450">
        <ele>324.50</ele>
        <time>2014-03-02T09:14:30Z</time>
      </trkpt>
      <trkpt lat="41.638443430" lon="2.514958360">
        <ele>324.70</ele>
        <time>2014-03-02T09:14:31Z</time>
      </trkpt>
      <trkpt lat="41.638460020" lon="2.514945110">
        <ele>324.90</ele>
        <time>2014-03-02T09:14:32Z</time>
      </trkpt>
      <trkpt lat="41.638480140" lon="2.514933380">
        <ele>325.00</ele>
        <time>2014-03-02T09:14:33Z</time>
      </trkpt>
      <trkpt lat="41.638498410" lon="2.514920140">
        <ele>325.40</ele>
        <time>2014-03-02T09:14:34Z</time>
      </trkpt>
      <trkpt lat="41.638516690" lon="2.514906730">
        <ele>325.80</ele>
        <time>2014-03-02T09:14:35Z</time>
      </trkpt>
      <trkpt lat="41.638535130" lon="2.514893480">
        <ele>326.00</ele>
        <time>2014-03-02T09:14:36Z</time>
      </trkpt>
      <trkpt lat="41.638553400" lon="2.514880070">
        <ele>326.10</ele>
        <time>2014-03-02T09:14:37Z</time>
      </trkpt>
      <trkpt lat="41.638571670" lon="2.514870010">
        <ele>326.30</ele>
        <time>2014-03-02T09:14:38Z</time>
      </trkpt>
      <trkpt lat="41.638590110" lon="2.514865150">
        <ele>326.60</ele>
        <time>2014-03-02T09:14:39Z</time>
      </trkpt>
      <trkpt lat="41.638608380" lon="2.514856770">
        <ele>326.80</ele>
        <time>2014-03-02T09:14:40Z</time>
      </trkpt>
      <trkpt lat="41.638623470" lon="2.514848390">
        <ele>327.50</ele>
        <time>2014-03-02T09:14:41Z</time>
      </trkpt>
      <trkpt lat="41.638641740" lon="2.514838330">
        <ele>328.00</ele>
        <time>2014-03-02T09:14:42Z</time>
      </trkpt>
      <trkpt lat="41.638658340" lon="2.514828440">
        <ele>328.40</ele>
        <time>2014-03-02T09:14:43Z</time>
      </trkpt>
      <trkpt lat="41.638675100" lon="2.514821730">
        <ele>328.20</ele>
        <time>2014-03-02T09:14:44Z</time>
      </trkpt>
      <trkpt lat="41.638695050" lon="2.514813350">
        <ele>328.10</ele>
        <time>2014-03-02T09:14:45Z</time>
      </trkpt>
      <trkpt lat="41.638715000" lon="2.514800110">
        <ele>328.20</ele>
        <time>2014-03-02T09:14:46Z</time>
      </trkpt>
      <trkpt lat="41.638735120" lon="2.514785020">
        <ele>328.30</ele>
        <time>2014-03-02T09:14:47Z</time>
      </trkpt>
      <trkpt lat="41.638755070" lon="2.514766750">
        <ele>328.30</ele>
        <time>2014-03-02T09:14:48Z</time>
      </trkpt>
      <trkpt lat="41.638771660" lon="2.514751830">
        <ele>328.30</ele>
        <time>2014-03-02T09:14:49Z</time>
      </trkpt>
      <trkpt lat="41.638793460" lon="2.514733390">
        <ele>328.20</ele>
        <time>2014-03-02T09:14:50Z</time>
      </trkpt>
      <trkpt lat="41.638815080" lon="2.514715120">
        <ele>328.30</ele>
        <time>2014-03-02T09:14:51Z</time>
      </trkpt>
      <trkpt lat="41.638835030" lon="2.514700030">
        <ele>328.40</ele>
        <time>2014-03-02T09:14:52Z</time>
      </trkpt>
      <trkpt lat="41.638855150" lon="2.514685110">
        <ele>328.50</ele>
        <time>2014-03-02T09:14:53Z</time>
      </trkpt>
      <trkpt lat="41.638875100" lon="2.514670020">
        <ele>328.60</ele>
        <time>2014-03-02T09:14:54Z</time>
      </trkpt>
      <trkpt lat="41.638896720" lon="2.514655100">
        <ele>328.60</ele>
        <time>2014-03-02T09:14:55Z</time>
      </trkpt>
      <trkpt lat="41.638915160" lon="2.514641690">
        <ele>329.00</ele>
        <time>2014-03-02T09:14:56Z</time>
      </trkpt>
      <trkpt lat="41.638935110" lon="2.514628450">
        <ele>329.40</ele>
        <time>2014-03-02T09:14:57Z</time>
      </trkpt>
      <trkpt lat="41.638955060" lon="2.514616710">
        <ele>329.20</ele>
        <time>2014-03-02T09:14:58Z</time>
      </trkpt>
      <trkpt lat="41.638976680" lon="2.514603470">
        <ele>329.10</ele>
        <time>2014-03-02T09:14:59Z</time>
      </trkpt>
      <trkpt lat="41.638998480" lon="2.514590060">
        <ele>329.20</ele>
        <time>2014-03-02T09:15:00Z</time>
      </trkpt>
      <trkpt lat="41.639020100" lon="2.514575140">
        <ele>329.20</ele>
        <time>2014-03-02T09:15:01Z</time>
      </trkpt>
      <trkpt lat="41.639043400" lon="2.514561730">
        <ele>329.20</ele>
        <time>2014-03-02T09:15:02Z</time>
      </trkpt>
      <trkpt lat="41.639065030" lon="2.514548480">
        <ele>329.60</ele>
        <time>2014-03-02T09:15:03Z</time>
      </trkpt>
      <trkpt lat="41.639086820" lon="2.514531720">
        <ele>329.80</ele>
        <time>2014-03-02T09:15:04Z</time>
      </trkpt>
      <trkpt lat="41.639105100" lon="2.514513450">
        <ele>330.20</ele>
        <time>2014-03-02T09:15:05Z</time>
      </trkpt>
      <trkpt lat="41.639121690" lon="2.514495010">
        <ele>330.40</ele>
        <time>2014-03-02T09:15:06Z</time>
      </trkpt>
      <trkpt lat="41.639135100" lon="2.514473380">
        <ele>330.60</ele>
        <time>2014-03-02T09:15:07Z</time>
      </trkpt>
      <trkpt lat="41.639146670" lon="2.514458460">
        <ele>330.70</ele>
        <time>2014-03-02T09:15:08Z</time>
      </trkpt>
      <trkpt lat="41.639156730" lon="2.514443370">
        <ele>330.70</ele>
        <time>2014-03-02T09:15:09Z</time>
      </trkpt>
      <trkpt lat="41.639168460" lon="2.514430130">
        <ele>331.00</ele>
        <time>2014-03-02T09:15:10Z</time>
      </trkpt>
      <trkpt lat="41.639180030" lon="2.514416720">
        <ele>331.30</ele>
        <time>2014-03-02T09:15:11Z</time>
      </trkpt>
      <trkpt lat="41.639190090" lon="2.514403480">
        <ele>331.80</ele>
        <time>2014-03-02T09:15:12Z</time>
      </trkpt>
      <trkpt lat="41.639200150" lon="2.514391740">
        <ele>332.20</ele>
        <time>2014-03-02T09:15:13Z</time>
      </trkpt>
      <trkpt lat="41.639210040" lon="2.514375150">
        <ele>332.50</ele>
        <time>2014-03-02T09:15:14Z</time>
      </trkpt>
      <trkpt lat="41.639225120" lon="2.514360060">
        <ele>333.00</ele>
        <time>2014-03-02T09:15:15Z</time>
      </trkpt>
      <trkpt lat="41.639236690" lon="2.514345140">
        <ele>333.30</ele>
        <time>2014-03-02T09:15:16Z</time>
      </trkpt>
      <trkpt lat="41.639250100" lon="2.514330050">
        <ele>333.40</ele>
        <time>2014-03-02T09:15:17Z</time>
      </trkpt>
      <trkpt lat="41.639261670" lon="2.514316810">
        <ele>333.60</ele>
        <time>2014-03-02T09:15:18Z</time>
      </trkpt>
      <trkpt lat="41.639273400" lon="2.514301720">
        <ele>333.80</ele>
        <time>2014-03-02T09:15:19Z</time>
      </trkpt>
      <trkpt lat="41.639285140" lon="2.514286800">
        <ele>334.00</ele>
        <time>2014-03-02T09:15:20Z</time>
      </trkpt>
      <trkpt lat="41.639296710" lon="2.514275070">
        <ele>334.10</ele>
        <time>2014-03-02T09:15:21Z</time>
      </trkpt>
      <trkpt lat="41.639310120" lon="2.514258470">
        <ele>334.50</ele>
        <time>2014-03-02T09:15:22Z</time>
      </trkpt>
      <trkpt lat="41.639325040" lon="2.514236680">
        <ele>334.80</ele>
        <time>2014-03-02T09:15:23Z</time>
      </trkpt>
      <trkpt lat="41.639341800" lon="2.514220080">
        <ele>335.10</ele>
        <time>2014-03-02T09:15:24Z</time>
      </trkpt>
      <trkpt lat="41.639360070" lon="2.514206670">
        <ele>335.20</ele>
        <time>2014-03-02T09:15:25Z</time>
      </trkpt>
      <trkpt lat="41.639375160" lon="2.514193430">
        <ele>335.40</ele>
        <time>2014-03-02T09:15:26Z</time>
      </trkpt>
      <trkpt lat="41.639391760" lon="2.514180010">
        <ele>335.50</ele>
        <time>2014-03-02T09:15:27Z</time>
      </trkpt>
      <trkpt lat="41.639410030" lon="2.514170120">
        <ele>335.50</ele>
        <time>2014-03-02T09:15:28Z</time>
      </trkpt>
      <trkpt lat="41.639428470" lon="2.514156710">
        <ele>335.30</ele>
        <time>2014-03-02T09:15:29Z</time>
      </trkpt>
      <trkpt lat="41.639445070" lon="2.514140120">
        <ele>335.20</ele>
        <time>2014-03-02T09:15:30Z</time>
      </trkpt>
      <trkpt lat="41.639461830" lon="2.514123350">
        <ele>335.40</ele>
        <time>2014-03-02T09:15:31Z</time>
      </trkpt>
      <trkpt lat="41.639478430" lon="2.514103400">
        <ele>335.50</ele>
        <time>2014-03-02T09:15:32Z</time>
      </trkpt>
      <trkpt lat="41.639493340" lon="2.514081780">
        <ele>335.60</ele>
        <time>2014-03-02T09:15:33Z</time>
      </trkpt>
      <trkpt lat="41.639506760" lon="2.514066690">
        <ele>335.50</ele>
        <time>2014-03-02T09:15:34Z</time>
      </trkpt>
      <trkpt lat="41.639520000" lon="2.514053450">
        <ele>335.30</ele>
        <time>2014-03-02T09:15:35Z</time>
      </trkpt>
      <trkpt lat="41.639530060" lon="2.514038360">
        <ele>335.70</ele>
        <time>2014-03-02T09:15:36Z</time>
      </trkpt>
      <trkpt lat="41.639540120" lon="2.514026790">
        <ele>336.00</ele>
        <time>2014-03-02T09:15:37Z</time>
      </trkpt>
      <trkpt lat="41.639548330" lon="2.514015060">
        <ele>336.20</ele>
        <time>2014-03-02T09:15:38Z</time>
      </trkpt>
      <trkpt lat="41.639553360" lon="2.514000140">
        <ele>336.20</ele>
        <time>2014-03-02T09:15:39Z</time>
      </trkpt>
      <trkpt lat="41.639560060" lon="2.513988400">
        <ele>336.30</ele>
        <time>2014-03-02T09:15:40Z</time>
      </trkpt>
      <trkpt lat="41.639566770" lon="2.513980020">
        <ele>336.40</ele>
        <time>2014-03-02T09:15:41Z</time>
      </trkpt>
      <trkpt lat="41.639571800" lon="2.513970130">
        <ele>336.50</ele>
        <time>2014-03-02T09:15:42Z</time>
      </trkpt>
      <trkpt lat="41.639575150" lon="2.513956720">
        <ele>336.50</ele>
        <time>2014-03-02T09:15:43Z</time>
      </trkpt>
      <trkpt lat="41.639581690" lon="2.513945150">
        <ele>336.40</ele>
        <time>2014-03-02T09:15:44Z</time>
      </trkpt>
      <trkpt lat="41.639590070" lon="2.513933420">
        <ele>336.40</ele>
        <time>2014-03-02T09:15:45Z</time>
      </trkpt>
      <trkpt lat="41.639603480" lon="2.513918330">
        <ele>336.30</ele>
        <time>2014-03-02T09:15:46Z</time>
      </trkpt>
      <trkpt lat="41.639618400" lon="2.513903410">
        <ele>336.20</ele>
        <time>2014-03-02T09:15:47Z</time>
      </trkpt>
      <trkpt lat="41.639633490" lon="2.513888490">
        <ele>336.20</ele>
        <time>2014-03-02T09:15:48Z</time>
      </trkpt>
      <trkpt lat="41.639648410" lon="2.513875080">
        <ele>336.10</ele>
        <time>2014-03-02T09:15:49Z</time>
      </trkpt>
      <trkpt lat="41.639663330" lon="2.513860160">
        <ele>336.00</ele>
        <time>2014-03-02T09:15:50Z</time>
      </trkpt>
      <trkpt lat="41.639678420" lon="2.513843400">
        <ele>335.90</ele>
        <time>2014-03-02T09:15:51Z</time>
      </trkpt>
      <trkpt lat="41.639693340" lon="2.513825120">
        <ele>335.80</ele>
        <time>2014-03-02T09:15:52Z</time>
      </trkpt>
      <trkpt lat="41.639710100" lon="2.513803330">
        <ele>336.00</ele>
        <time>2014-03-02T09:15:53Z</time>
      </trkpt>
      <trkpt lat="41.639726700" lon="2.513780030">
        <ele>336.10</ele>
        <time>2014-03-02T09:15:54Z</time>
      </trkpt>
      <trkpt lat="41.639746810" lon="2.513756730">
        <ele>336.30</ele>
        <time>2014-03-02T09:15:55Z</time>
      </trkpt>
      <trkpt lat="41.639768440" lon="2.513733430">
        <ele>336.50</ele>
        <time>2014-03-02T09:15:56Z</time>
      </trkpt>
      <trkpt lat="41.639790060" lon="2.513713480">
        <ele>336.20</ele>
        <time>2014-03-02T09:15:57Z</time>
      </trkpt>
      <trkpt lat="41.639808340" lon="2.513695040">
        <ele>335.90</ele>
        <time>2014-03-02T09:15:58Z</time>
      </trkpt>
      <trkpt lat="41.639826780" lon="2.513676770">
        <ele>335.70</ele>
        <time>2014-03-02T09:15:59Z</time>
      </trkpt>
      <trkpt lat="41.639845050" lon="2.513655140">
        <ele>335.80</ele>
        <time>2014-03-02T09:16:00Z</time>
      </trkpt>
      <trkpt lat="41.639861810" lon="2.513630160">
        <ele>335.80</ele>
        <time>2014-03-02T09:16:01Z</time>
      </trkpt>
      <trkpt lat="41.639878410" lon="2.513600150">
        <ele>335.70</ele>
        <time>2014-03-02T09:16:02Z</time>
      </trkpt>
      <trkpt lat="41.639896680" lon="2.513568470">
        <ele>335.60</ele>
        <time>2014-03-02T09:16:03Z</time>
      </trkpt>
      <trkpt lat="41.639916800" lon="2.513535110">
        <ele>335.60</ele>
        <time>2014-03-02T09:16:04Z</time>
      </trkpt>
      <trkpt lat="41.639933390" lon="2.513501750">
        <ele>335.10</ele>
        <time>2014-03-02T09:16:05Z</time>
      </trkpt>
      <trkpt lat="41.639950160" lon="2.513466710">
        <ele>334.80</ele>
        <time>2014-03-02T09:16:06Z</time>
      </trkpt>
      <trkpt lat="41.639968430" lon="2.513433350">
        <ele>334.50</ele>
        <time>2014-03-02T09:16:07Z</time>
      </trkpt>
      <trkpt lat="41.639986700" lon="2.513395130">
        <ele>334.30</ele>
        <time>2014-03-02T09:16:08Z</time>
      </trkpt>
      <trkpt lat="41.640006820" lon="2.513363450">
        <ele>333.90</ele>
        <time>2014-03-02T09:16:09Z</time>
      </trkpt>
      <trkpt lat="41.640026770" lon="2.513331770">
        <ele>333.60</ele>
        <time>2014-03-02T09:16:10Z</time>
      </trkpt>
      <trkpt lat="41.640046720" lon="2.513305110">
        <ele>333.30</ele>
        <time>2014-03-02T09:16:11Z</time>
      </trkpt>
      <trkpt lat="41.640073370" lon="2.513273430">
        <ele>332.90</ele>
        <time>2014-03-02T09:16:12Z</time>
      </trkpt>
      <trkpt lat="41.640098350" lon="2.513236720">
        <ele>332.60</ele>
        <time>2014-03-02T09:16:13Z</time>
      </trkpt>
      <trkpt lat="41.640121820" lon="2.513201680">
        <ele>332.10</ele>
        <time>2014-03-02T09:16:14Z</time>
      </trkpt>
      <trkpt lat="41.640140090" lon="2.513158430">
        <ele>331.80</ele>
        <time>2014-03-02T09:16:15Z</time>
      </trkpt>
      <trkpt lat="41.640161720" lon="2.513113330">
        <ele>331.10</ele>
        <time>2014-03-02T09:16:16Z</time>
      </trkpt>
      <trkpt lat="41.640183340" lon="2.513066730">
        <ele>330.60</ele>
        <time>2014-03-02T09:16:17Z</time>
      </trkpt>
      <trkpt lat="41.640201780" lon="2.513021800">
        <ele>330.20</ele>
        <time>2014-03-02T09:16:18Z</time>
      </trkpt>
      <trkpt lat="41.640223410" lon="2.512980060">
        <ele>330.20</ele>
        <time>2014-03-02T09:16:19Z</time>
      </trkpt>
      <trkpt lat="41.640246710" lon="2.512941670">
        <ele>330.20</ele>
        <time>2014-03-02T09:16:20Z</time>
      </trkpt>
      <trkpt lat="41.640268340" lon="2.512896750">
        <ele>329.70</ele>
        <time>2014-03-02T09:16:21Z</time>
      </trkpt>
      <trkpt lat="41.640285100" lon="2.512850140">
        <ele>329.30</ele>
        <time>2014-03-02T09:16:22Z</time>
      </trkpt>
      <trkpt lat="41.640301700" lon="2.512800020">
        <ele>328.60</ele>
        <time>2014-03-02T09:16:23Z</time>
      </trkpt>
      <trkpt lat="41.640315110" lon="2.512750060">
        <ele>328.10</ele>
        <time>2014-03-02T09:16:24Z</time>
      </trkpt>
      <trkpt lat="41.640333380" lon="2.512698430">
        <ele>327.70</ele>
        <time>2014-03-02T09:16:25Z</time>
      </trkpt>
      <trkpt lat="41.640353500" lon="2.512648470">
        <ele>327.10</ele>
        <time>2014-03-02T09:16:26Z</time>
      </trkpt>
      <trkpt lat="41.640375120" lon="2.512596670">
        <ele>326.70</ele>
        <time>2014-03-02T09:16:27Z</time>
      </trkpt>
      <trkpt lat="41.640398420" lon="2.512548390">
        <ele>326.70</ele>
        <time>2014-03-02T09:16:28Z</time>
      </trkpt>
      <trkpt lat="41.640423400" lon="2.512501790">
        <ele>326.70</ele>
        <time>2014-03-02T09:16:29Z</time>
      </trkpt>
      <trkpt lat="41.640445030" lon="2.512455020">
        <ele>326.80</ele>
        <time>2014-03-02T09:16:30Z</time>
      </trkpt>
      <trkpt lat="41.640465140" lon="2.512410090">
        <ele>326.40</ele>
        <time>2014-03-02T09:16:31Z</time>
      </trkpt>
      <trkpt lat="41.640485090" lon="2.512366670">
        <ele>326.10</ele>
        <time>2014-03-02T09:16:32Z</time>
      </trkpt>
      <trkpt lat="41.640505040" lon="2.512321750">
        <ele>325.70</ele>
        <time>2014-03-02T09:16:33Z</time>
      </trkpt>
      <trkpt lat="41.640525160" lon="2.512278500">
        <ele>325.30</ele>
        <time>2014-03-02T09:16:34Z</time>
      </trkpt>
      <trkpt lat="41.640545110" lon="2.512233400">
        <ele>325.00</ele>
        <time>2014-03-02T09:16:35Z</time>
      </trkpt>
      <trkpt lat="41.640570080" lon="2.512191830">
        <ele>324.80</ele>
        <time>2014-03-02T09:16:36Z</time>
      </trkpt>
      <trkpt lat="41.640596740" lon="2.512150090">
        <ele>324.60</ele>
        <time>2014-03-02T09:16:37Z</time>
      </trkpt>
      <trkpt lat="41.640625070" lon="2.512110020">
        <ele>324.30</ele>
        <time>2014-03-02T09:16:38Z</time>
      </trkpt>
      <trkpt lat="41.640645020" lon="2.512081690">
        <ele>324.10</ele>
        <time>2014-03-02T09:16:39Z</time>
      </trkpt>
      <trkpt lat="41.640660110" lon="2.512060060">
        <ele>323.80</ele>
        <time>2014-03-02T09:16:40Z</time>
      </trkpt>
      <trkpt lat="41.640671670" lon="2.512041790">
        <ele>323.50</ele>
        <time>2014-03-02T09:16:41Z</time>
      </trkpt>
      <trkpt lat="41.640680050" lon="2.512030060">
        <ele>323.30</ele>
        <time>2014-03-02T09:16:42Z</time>
      </trkpt>
      <trkpt lat="41.640686760" lon="2.512020000">
        <ele>323.20</ele>
        <time>2014-03-02T09:16:43Z</time>
      </trkpt>
      <trkpt lat="41.640693470" lon="2.512010110">
        <ele>323.00</ele>
        <time>2014-03-02T09:16:44Z</time>
      </trkpt>
      <trkpt lat="41.640698490" lon="2.511998370">
        <ele>323.10</ele>
        <time>2014-03-02T09:16:45Z</time>
      </trkpt>
      <trkpt lat="41.640701680" lon="2.511990160">
        <ele>323.10</ele>
        <time>2014-03-02T09:16:46Z</time>
      </trkpt>
      <trkpt lat="41.640703360" lon="2.511985130">
        <ele>323.20</ele>
        <time>2014-03-02T09:16:47Z</time>
      </trkpt>
      <trkpt lat="41.640705030" lon="2.511981780">
        <ele>323.20</ele>
        <time>2014-03-02T09:16:48Z</time>
      </trkpt>
      <trkpt lat="41.640710060" lon="2.511973390">
        <ele>323.30</ele>
        <time>2014-03-02T09:16:49Z</time>
      </trkpt>
      <trkpt lat="41.640713410" lon="2.511963340">
        <ele>323.40</ele>
        <time>2014-03-02T09:16:50Z</time>
      </trkpt>
      <trkpt lat="41.640716770" lon="2.511955120">
        <ele>323.50</ele>
        <time>2014-03-02T09:16:51Z</time>
      </trkpt>
      <trkpt lat="41.640720120" lon="2.511943390">
        <ele>323.30</ele>
        <time>2014-03-02T09:16:52Z</time>
      </trkpt>
      <trkpt lat="41.640725150" lon="2.511930140">
        <ele>323.20</ele>
        <time>2014-03-02T09:16:53Z</time>
      </trkpt>
      <trkpt lat="41.640723470" lon="2.511916730">
        <ele>323.20</ele>
        <time>2014-03-02T09:16:54Z</time>
      </trkpt>
      <trkpt lat="41.640723470" lon="2.511900140">
        <ele>323.20</ele>
        <time>2014-03-02T09:16:55Z</time>
      </trkpt>
      <trkpt lat="41.640725150" lon="2.511881700">
        <ele>323.20</ele>
        <time>2014-03-02T09:16:56Z</time>
      </trkpt>
      <trkpt lat="41.640721800" lon="2.511861750">
        <ele>323.00</ele>
        <time>2014-03-02T09:16:57Z</time>
      </trkpt>
      <trkpt lat="41.640716770" lon="2.511838450">
        <ele>322.80</ele>
        <time>2014-03-02T09:16:58Z</time>
      </trkpt>
      <trkpt lat="41.640700000" lon="2.511815140">
        <ele>322.70</ele>
        <time>2014-03-02T09:16:59Z</time>
      </trkpt>
      <trkpt lat="41.640681730" lon="2.511795030">
        <ele>322.70</ele>
        <time>2014-03-02T09:17:00Z</time>
      </trkpt>
      <trkpt lat="41.640663460" lon="2.511773400">
        <ele>322.20</ele>
        <time>2014-03-02T09:17:01Z</time>
      </trkpt>
      <trkpt lat="41.640638480" lon="2.511750100">
        <ele>321.80</ele>
        <time>2014-03-02T09:17:02Z</time>
      </trkpt>
      <trkpt lat="41.640606800" lon="2.511723450">
        <ele>321.50</ele>
        <time>2014-03-02T09:17:03Z</time>
      </trkpt>
      <trkpt lat="41.640576790" lon="2.511696790">
        <ele>321.10</ele>
        <time>2014-03-02T09:17:04Z</time>
      </trkpt>
      <trkpt lat="41.640546780" lon="2.511668460">
        <ele>320.80</ele>
        <time>2014-03-02T09:17:05Z</time>
      </trkpt>
      <trkpt lat="41.640510070" lon="2.511643480">
        <ele>320.20</ele>
        <time>2014-03-02T09:17:06Z</time>
      </trkpt>
      <trkpt lat="41.640470000" lon="2.511620010">
        <ele>319.70</ele>
        <time>2014-03-02T09:17:07Z</time>
      </trkpt>
      <trkpt lat="41.640428430" lon="2.511606770">
        <ele>319.40</ele>
        <time>2014-03-02T09:17:08Z</time>
      </trkpt>
      <trkpt lat="41.640386690" lon="2.511608450">
        <ele>318.70</ele>
        <time>2014-03-02T09:17:09Z</time>
      </trkpt>
      <trkpt lat="41.640350140" lon="2.511625040">
        <ele>318.20</ele>
        <time>2014-03-02T09:17:10Z</time>
      </trkpt>
      <trkpt lat="41.640320140" lon="2.511650020">
        <ele>317.90</ele>
        <time>2014-03-02T09:17:11Z</time>
      </trkpt>
      <trkpt lat="41.640295160" lon="2.511680030">
        <ele>317.60</ele>
        <time>2014-03-02T09:17:12Z</time>
      </trkpt>
      <trkpt lat="41.640275040" lon="2.511710040">
        <ele>317.20</ele>
        <time>2014-03-02T09:17:13Z</time>
      </trkpt>
      <trkpt lat="41.640261800" lon="2.511740040">
        <ele>316.80</ele>
        <time>2014-03-02T09:17:14Z</time>
      </trkpt>
      <trkpt lat="41.640250060" lon="2.511773400">
        <ele>316.60</ele>
        <time>2014-03-02T09:17:15Z</time>
      </trkpt>
      <trkpt lat="41.640238330" lon="2.511803410">
        <ele>316.30</ele>
        <time>2014-03-02T09:17:16Z</time>
      </trkpt>
      <trkpt lat="41.640226760" lon="2.511833420">
        <ele>316.10</ele>
        <time>2014-03-02T09:17:17Z</time>
      </trkpt>
      <trkpt lat="41.640215030" lon="2.511863420">
        <ele>316.00</ele>
        <time>2014-03-02T09:17:18Z</time>
      </trkpt>
      <trkpt lat="41.640203460" lon="2.511891750">
        <ele>316.00</ele>
        <time>2014-03-02T09:17:19Z</time>
      </trkpt>
      <trkpt lat="41.640190050" lon="2.511916730">
        <ele>315.90</ele>
        <time>2014-03-02T09:17:20Z</time>
      </trkpt>
      <trkpt lat="41.640180160" lon="2.511945060">
        <ele>315.90</ele>
        <time>2014-03-02T09:17:21Z</time>
      </trkpt>
      <trkpt lat="41.640168420" lon="2.511966690">
        <ele>315.90</ele>
        <time>2014-03-02T09:17:22Z</time>
      </trkpt>
      <trkpt lat="41.640155010" lon="2.511985130">
        <ele>315.60</ele>
        <time>2014-03-02T09:17:23Z</time>
      </trkpt>
      <trkpt lat="41.640141770" lon="2.512005080">
        <ele>315.40</ele>
        <time>2014-03-02T09:17:24Z</time>
      </trkpt>
      <trkpt lat="41.640130030" lon="2.512030060">
        <ele>315.50</ele>
        <time>2014-03-02T09:17:25Z</time>
      </trkpt>
      <trkpt lat="41.640115110" lon="2.512058390">
        <ele>315.60</ele>
        <time>2014-03-02T09:17:26Z</time>
      </trkpt>
      <trkpt lat="41.640100030" lon="2.512088390">
        <ele>315.70</ele>
        <time>2014-03-02T09:17:27Z</time>
      </trkpt>
      <trkpt lat="41.640086780" lon="2.512113370">
        <ele>315.10</ele>
        <time>2014-03-02T09:17:28Z</time>
      </trkpt>
      <trkpt lat="41.640076730" lon="2.512136670">
        <ele>314.60</ele>
        <time>2014-03-02T09:17:29Z</time>
      </trkpt>
      <trkpt lat="41.640068340" lon="2.512161820">
        <ele>314.30</ele>
        <time>2014-03-02T09:17:30Z</time>
      </trkpt>
      <trkpt lat="41.640056780" lon="2.512191830">
        <ele>314.20</ele>
        <time>2014-03-02T09:17:31Z</time>
      </trkpt>
      <trkpt lat="41.640045040" lon="2.512225020">
        <ele>313.60</ele>
        <time>2014-03-02T09:17:32Z</time>
      </trkpt>
      <trkpt lat="41.640033470" lon="2.512253350">
        <ele>313.10</ele>
        <time>2014-03-02T09:17:33Z</time>
      </trkpt>
      <trkpt lat="41.640021740" lon="2.512280000">
        <ele>312.70</ele>
        <time>2014-03-02T09:17:34Z</time>
      </trkpt>
      <trkpt lat="41.640006820" lon="2.512306830">
        <ele>311.90</ele>
        <time>2014-03-02T09:17:35Z</time>
      </trkpt>
      <trkpt lat="41.639993410" lon="2.512333480">
        <ele>311.30</ele>
        <time>2014-03-02T09:17:36Z</time>
      </trkpt>
      <trkpt lat="41.639976810" lon="2.512361810">
        <ele>310.80</ele>
        <time>2014-03-02T09:17:37Z</time>
      </trkpt>
      <trkpt lat="41.639956700" lon="2.512396680">
        <ele>310.40</ele>
        <time>2014-03-02T09:17:38Z</time>
      </trkpt>
      <trkpt lat="41.639936750" lon="2.512430040">
        <ele>310.10</ele>
        <time>2014-03-02T09:17:39Z</time>
      </trkpt>
      <trkpt lat="41.639913450" lon="2.512458370">
        <ele>309.90</ele>
        <time>2014-03-02T09:17:40Z</time>
      </trkpt>
      <trkpt lat="41.639885120" lon="2.512471780">
        <ele>309.70</ele>
        <time>2014-03-02T09:17:41Z</time>
      </trkpt>
      <trkpt lat="41.639858460" lon="2.512471780">
        <ele>309.10</ele>
        <time>2014-03-02T09:17:42Z</time>
      </trkpt>
      <trkpt lat="41.639828450" lon="2.512460050">
        <ele>308.60</ele>
        <time>2014-03-02T09:17:43Z</time>
      </trkpt>
      <trkpt lat="41.639795090" lon="2.512441780">
        <ele>307.60</ele>
        <time>2014-03-02T09:17:44Z</time>
      </trkpt>
      <trkpt lat="41.639763410" lon="2.512425010">
        <ele>306.90</ele>
        <time>2014-03-02T09:17:45Z</time>
      </trkpt>
      <trkpt lat="41.639731730" lon="2.512408420">
        <ele>306.40</ele>
        <time>2014-03-02T09:17:46Z</time>
      </trkpt>
      <trkpt lat="41.639700040" lon="2.512391820">
        <ele>305.80</ele>
        <time>2014-03-02T09:17:47Z</time>
      </trkpt>
      <trkpt lat="41.639666680" lon="2.512371700">
        <ele>305.40</ele>
        <time>2014-03-02T09:17:48Z</time>
      </trkpt>
      <trkpt lat="41.639631810" lon="2.512355110">
        <ele>304.80</ele>
        <time>2014-03-02T09:17:49Z</time>
      </trkpt>
      <trkpt lat="41.639591750" lon="2.512346720">
        <ele>304.40</ele>
        <time>2014-03-02T09:17:50Z</time>
      </trkpt>
      <trkpt lat="41.639546820" lon="2.512353430">
        <ele>303.40</ele>
        <time>2014-03-02T09:17:51Z</time>
      </trkpt>
      <trkpt lat="41.639503400" lon="2.512378410">
        <ele>302.60</ele>
        <time>2014-03-02T09:17:52Z</time>
      </trkpt>
      <trkpt lat="41.639465010" lon="2.512416800">
        <ele>302.10</ele>
        <time>2014-03-02T09:17:53Z</time>
      </trkpt>
      <trkpt lat="41.639431820" lon="2.512460050">
        <ele>301.90</ele>
        <time>2014-03-02T09:17:54Z</time>
      </trkpt>
      <trkpt lat="41.639403490" lon="2.512508500">
        <ele>301.80</ele>
        <time>2014-03-02T09:17:55Z</time>
      </trkpt>
      <trkpt lat="41.639378350" lon="2.512561800">
        <ele>301.30</ele>
        <time>2014-03-02T09:17:56Z</time>
      </trkpt>
      <trkpt lat="41.639355040" lon="2.512618470">
        <ele>301.00</ele>
        <time>2014-03-02T09:17:57Z</time>
      </trkpt>
      <trkpt lat="41.639328390" lon="2.512670100">
        <ele>300.60</ele>
        <time>2014-03-02T09:17:58Z</time>
      </trkpt>
      <trkpt lat="41.639300060" lon="2.512708490">
        <ele>300.30</ele>
        <time>2014-03-02T09:17:59Z</time>
      </trkpt>
      <trkpt lat="41.639265020" lon="2.512733470">
        <ele>300.00</ele>
        <time>2014-03-02T09:18:00Z</time>
      </trkpt>
      <trkpt lat="41.639230150" lon="2.512743360">
        <ele>299.20</ele>
        <time>2014-03-02T09:18:01Z</time>
      </trkpt>
      <trkpt lat="41.639200150" lon="2.512738490">
        <ele>298.60</ele>
        <time>2014-03-02T09:18:02Z</time>
      </trkpt>
      <trkpt lat="41.639178350" lon="2.512726760">
        <ele>298.50</ele>
        <time>2014-03-02T09:18:03Z</time>
      </trkpt>
      <trkpt lat="41.639160080" lon="2.512711670">
        <ele>298.40</ele>
        <time>2014-03-02T09:18:04Z</time>
      </trkpt>
      <trkpt lat="41.639138460" lon="2.512691720">
        <ele>298.30</ele>
        <time>2014-03-02T09:18:05Z</time>
      </trkpt>
      <trkpt lat="41.639115150" lon="2.512665070">
        <ele>298.00</ele>
        <time>2014-03-02T09:18:06Z</time>
      </trkpt>
      <trkpt lat="41.639086820" lon="2.512641770">
        <ele>297.80</ele>
        <time>2014-03-02T09:18:07Z</time>
      </trkpt>
      <trkpt lat="41.639060000" lon="2.512613440">
        <ele>297.40</ele>
        <time>2014-03-02T09:18:08Z</time>
      </trkpt>
      <trkpt lat="41.639036700" lon="2.512575050">
        <ele>297.10</ele>
        <time>2014-03-02T09:18:09Z</time>
      </trkpt>
      <trkpt lat="41.639018430" lon="2.512538330">
        <ele>296.70</ele>
        <time>2014-03-02T09:18:10Z</time>
      </trkpt>
      <trkpt lat="41.638990100" lon="2.512495080">
        <ele>296.40</ele>
        <time>2014-03-02T09:18:11Z</time>
      </trkpt>
      <trkpt lat="41.638960090" lon="2.512450160">
        <ele>296.20</ele>
        <time>2014-03-02T09:18:12Z</time>
      </trkpt>
      <trkpt lat="41.638935110" lon="2.512410090">
        <ele>295.70</ele>
        <time>2014-03-02T09:18:13Z</time>
      </trkpt>
      <trkpt lat="41.638920020" lon="2.512373380">
        <ele>295.40</ele>
        <time>2014-03-02T09:18:14Z</time>
      </trkpt>
      <trkpt lat="41.638901750" lon="2.512338340">
        <ele>295.20</ele>
        <time>2014-03-02T09:18:15Z</time>
      </trkpt>
      <trkpt lat="41.638880120" lon="2.512306830">
        <ele>295.00</ele>
        <time>2014-03-02T09:18:16Z</time>
      </trkpt>
      <trkpt lat="41.638861680" lon="2.512283360">
        <ele>294.50</ele>
        <time>2014-03-02T09:18:17Z</time>
      </trkpt>
      <trkpt lat="41.638838380" lon="2.512258380">
        <ele>294.20</ele>
        <time>2014-03-02T09:18:18Z</time>
      </trkpt>
      <trkpt lat="41.638808380" lon="2.512240110">
        <ele>293.90</ele>
        <time>2014-03-02T09:18:19Z</time>
      </trkpt>
      <trkpt lat="41.638776690" lon="2.512225020">
        <ele>293.20</ele>
        <time>2014-03-02T09:18:20Z</time>
      </trkpt>
      <trkpt lat="41.638746690" lon="2.512226700">
        <ele>292.70</ele>
        <time>2014-03-02T09:18:21Z</time>
      </trkpt>
      <trkpt lat="41.638715000" lon="2.512238430">
        <ele>292.40</ele>
        <time>2014-03-02T09:18:22Z</time>
      </trkpt>
      <trkpt lat="41.638686670" lon="2.512251670">
        <ele>292.20</ele>
        <time>2014-03-02T09:18:23Z</time>
      </trkpt>
      <trkpt lat="41.638658340" lon="2.512265080">
        <ele>292.00</ele>
        <time>2014-03-02T09:18:24Z</time>
      </trkpt>
      <trkpt lat="41.638625150" lon="2.512281680">
        <ele>291.40</ele>
        <time>2014-03-02T09:18:25Z</time>
      </trkpt>
      <trkpt lat="41.638588430" lon="2.512298440">
        <ele>291.00</ele>
        <time>2014-03-02T09:18:26Z</time>
      </trkpt>
      <trkpt lat="41.638551720" lon="2.512308340">
        <ele>290.30</ele>
        <time>2014-03-02T09:18:27Z</time>
      </trkpt>
      <trkpt lat="41.638518360" lon="2.512321750">
        <ele>289.90</ele>
        <time>2014-03-02T09:18:28Z</time>
      </trkpt>
      <trkpt lat="41.638490030" lon="2.512341700">
        <ele>288.80</ele>
        <time>2014-03-02T09:18:29Z</time>
      </trkpt>
      <trkpt lat="41.638466730" lon="2.512370030">
        <ele>288.10</ele>
        <time>2014-03-02T09:18:30Z</time>
      </trkpt>
      <trkpt lat="41.638441750" lon="2.512403390">
        <ele>287.50</ele>
        <time>2014-03-02T09:18:31Z</time>
      </trkpt>
      <trkpt lat="41.638415100" lon="2.512445130">
        <ele>286.90</ele>
        <time>2014-03-02T09:18:32Z</time>
      </trkpt>
      <trkpt lat="41.638391800" lon="2.512490060">
        <ele>286.40</ele>
        <time>2014-03-02T09:18:33Z</time>
      </trkpt>
      <trkpt lat="41.638371680" lon="2.512543360">
        <ele>285.20</ele>
        <time>2014-03-02T09:18:34Z</time>
      </trkpt>
      <trkpt lat="41.638343350" lon="2.512590140">
        <ele>284.20</ele>
        <time>2014-03-02T09:18:35Z</time>
      </trkpt>
      <trkpt lat="41.638321720" lon="2.512621820">
        <ele>283.50</ele>
        <time>2014-03-02T09:18:36Z</time>
      </trkpt>
      <trkpt lat="41.638300100" lon="2.512640090">
        <ele>283.00</ele>
        <time>2014-03-02T09:18:37Z</time>
      </trkpt>
      <trkpt lat="41.638271770" lon="2.512653330">
        <ele>282.60</ele>
        <time>2014-03-02T09:18:38Z</time>
      </trkpt>
      <trkpt lat="41.638243440" lon="2.512653330">
        <ele>281.90</ele>
        <time>2014-03-02T09:18:39Z</time>
      </trkpt>
      <trkpt lat="41.638216780" lon="2.512646800">
        <ele>281.40</ele>
        <time>2014-03-02T09:18:40Z</time>
      </trkpt>
      <trkpt lat="41.638193480" lon="2.512626680">
        <ele>281.50</ele>
        <time>2014-03-02T09:18:41Z</time>
      </trkpt>
      <trkpt lat="41.638175040" lon="2.512595000">
        <ele>281.50</ele>
        <time>2014-03-02T09:18:42Z</time>
      </trkpt>
      <trkpt lat="41.638158440" lon="2.512553420">
        <ele>281.60</ele>
        <time>2014-03-02T09:18:43Z</time>
      </trkpt>
      <trkpt lat="41.638155090" lon="2.512503470">
        <ele>280.80</ele>
        <time>2014-03-02T09:18:44Z</time>
      </trkpt>
      <trkpt lat="41.638156770" lon="2.512448480">
        <ele>280.20</ele>
        <time>2014-03-02T09:18:45Z</time>
      </trkpt>
      <trkpt lat="41.638160120" lon="2.512396680">
        <ele>279.40</ele>
        <time>2014-03-02T09:18:46Z</time>
      </trkpt>
      <trkpt lat="41.638173360" lon="2.512350080">
        <ele>278.90</ele>
        <time>2014-03-02T09:18:47Z</time>
      </trkpt>
      <trkpt lat="41.638195160" lon="2.512311690">
        <ele>278.20</ele>
        <time>2014-03-02T09:18:48Z</time>
      </trkpt>
      <trkpt lat="41.638221810" lon="2.512275140">
        <ele>277.80</ele>
        <time>2014-03-02T09:18:49Z</time>
      </trkpt>
      <trkpt lat="41.638245110" lon="2.512238430">
        <ele>277.40</ele>
        <time>2014-03-02T09:18:50Z</time>
      </trkpt>
      <trkpt lat="41.638263380" lon="2.512203390">
        <ele>276.70</ele>
        <time>2014-03-02T09:18:51Z</time>
      </trkpt>
      <trkpt lat="41.638276800" lon="2.512163330">
        <ele>276.20</ele>
        <time>2014-03-02T09:18:52Z</time>
      </trkpt>
      <trkpt lat="41.638295070" lon="2.512125110">
        <ele>275.80</ele>
        <time>2014-03-02T09:18:53Z</time>
      </trkpt>
      <trkpt lat="41.638316690" lon="2.512093420">
        <ele>275.50</ele>
        <time>2014-03-02T09:18:54Z</time>
      </trkpt>
      <trkpt lat="41.638340000" lon="2.512053360">
        <ele>274.70</ele>
        <time>2014-03-02T09:18:55Z</time>
      </trkpt>
      <trkpt lat="41.638363460" lon="2.512010110">
        <ele>274.00</ele>
        <time>2014-03-02T09:18:56Z</time>
      </trkpt>
      <trkpt lat="41.638378380" lon="2.511971720">
        <ele>273.60</ele>
        <time>2014-03-02T09:18:57Z</time>
      </trkpt>
      <trkpt lat="41.638393470" lon="2.511940030">
        <ele>272.80</ele>
        <time>2014-03-02T09:18:58Z</time>
      </trkpt>
      <trkpt lat="41.638408390" lon="2.511901810">
        <ele>272.20</ele>
        <time>2014-03-02T09:18:59Z</time>
      </trkpt>
      <trkpt lat="41.638423480" lon="2.511858390">
        <ele>271.70</ele>
        <time>2014-03-02T09:19:00Z</time>
      </trkpt>
      <trkpt lat="41.638443430" lon="2.511811790">
        <ele>271.30</ele>
        <time>2014-03-02T09:19:01Z</time>
      </trkpt>
      <trkpt lat="41.638463380" lon="2.511753450">
        <ele>271.00</ele>
        <time>2014-03-02T09:19:02Z</time>
      </trkpt>
      <trkpt lat="41.638480140" lon="2.511695120">
        <ele>270.20</ele>
        <time>2014-03-02T09:19:03Z</time>
      </trkpt>
      <trkpt lat="41.638501770" lon="2.511643480">
        <ele>269.60</ele>
        <time>2014-03-02T09:19:04Z</time>
      </trkpt>
      <trkpt lat="41.638518360" lon="2.511588330">
        <ele>268.90</ele>
        <time>2014-03-02T09:19:05Z</time>
      </trkpt>
      <trkpt lat="41.638540150" lon="2.511535020">
        <ele>268.30</ele>
        <time>2014-03-02T09:19:06Z</time>
      </trkpt>
      <trkpt lat="41.638566810" lon="2.511488420">
        <ele>267.30</ele>
        <time>2014-03-02T09:19:07Z</time>
      </trkpt>
      <trkpt lat="41.638585080" lon="2.511441810">
        <ele>266.50</ele>
        <time>2014-03-02T09:19:08Z</time>
      </trkpt>
      <trkpt lat="41.638598490" lon="2.511406780">
        <ele>265.90</ele>
        <time>2014-03-02T09:19:09Z</time>
      </trkpt>
      <trkpt lat="41.638601680" lon="2.511376770">
        <ele>264.90</ele>
        <time>2014-03-02T09:19:10Z</time>
      </trkpt>
      <trkpt lat="41.638603350" lon="2.511346760">
        <ele>264.10</ele>
        <time>2014-03-02T09:19:11Z</time>
      </trkpt>
      <trkpt lat="41.638603350" lon="2.511315080">
        <ele>263.50</ele>
        <time>2014-03-02T09:19:12Z</time>
      </trkpt>
      <trkpt lat="41.638601680" lon="2.511281720">
        <ele>263.00</ele>
        <time>2014-03-02T09:19:13Z</time>
      </trkpt>
      <trkpt lat="41.638595140" lon="2.511241820">
        <ele>262.50</ele>
        <time>2014-03-02T09:19:14Z</time>
      </trkpt>
      <trkpt lat="41.638585080" lon="2.511193370">
        <ele>262.10</ele>
        <time>2014-03-02T09:19:15Z</time>
      </trkpt>
      <trkpt lat="41.638573350" lon="2.511136710">
        <ele>261.80</ele>
        <time>2014-03-02T09:19:16Z</time>
      </trkpt>
      <trkpt lat="41.638556750" lon="2.511080050">
        <ele>261.00</ele>
        <time>2014-03-02T09:19:17Z</time>
      </trkpt>
      <trkpt lat="41.638541660" lon="2.511023390">
        <ele>260.40</ele>
        <time>2014-03-02T09:19:18Z</time>
      </trkpt>
      <trkpt lat="41.638526740" lon="2.510966730">
        <ele>259.40</ele>
        <time>2014-03-02T09:19:19Z</time>
      </trkpt>
      <trkpt lat="41.638515010" lon="2.510903360">
        <ele>258.70</ele>
        <time>2014-03-02T09:19:20Z</time>
      </trkpt>
      <trkpt lat="41.638508470" lon="2.510836810">
        <ele>258.20</ele>
        <time>2014-03-02T09:19:21Z</time>
      </trkpt>
      <trkpt lat="41.638506790" lon="2.510766740">
        <ele>257.60</ele>
        <time>2014-03-02T09:19:22Z</time>
      </trkpt>
      <trkpt lat="41.638501770" lon="2.510698340">
        <ele>257.10</ele>
        <time>2014-03-02T09:19:23Z</time>
      </trkpt>
      <trkpt lat="41.638496740" lon="2.510641680">
        <ele>256.60</ele>
        <time>2014-03-02T09:19:24Z</time>
      </trkpt>
      <trkpt lat="41.638493380" lon="2.510586690">
        <ele>256.20</ele>
        <time>2014-03-02T09:19:25Z</time>
      </trkpt>
      <trkpt lat="41.638490030" lon="2.510530030">
        <ele>255.80</ele>
        <time>2014-03-02T09:19:26Z</time>
      </trkpt>
      <trkpt lat="41.638486680" lon="2.510471690">
        <ele>255.50</ele>
        <time>2014-03-02T09:19:27Z</time>
      </trkpt>
      <trkpt lat="41.638475110" lon="2.510413350">
        <ele>255.30</ele>
        <time>2014-03-02T09:19:28Z</time>
      </trkpt>
      <trkpt lat="41.638463380" lon="2.510350160">
        <ele>254.90</ele>
        <time>2014-03-02T09:19:29Z</time>
      </trkpt>
      <trkpt lat="41.638450130" lon="2.510286790">
        <ele>254.60</ele>
        <time>2014-03-02T09:19:30Z</time>
      </trkpt>
      <trkpt lat="41.638433370" lon="2.510223420">
        <ele>253.70</ele>
        <time>2014-03-02T09:19:31Z</time>
      </trkpt>
      <trkpt lat="41.638416770" lon="2.510160050">
        <ele>253.00</ele>
        <time>2014-03-02T09:19:32Z</time>
      </trkpt>
      <trkpt lat="41.638401690" lon="2.510090150">
        <ele>252.40</ele>
        <time>2014-03-02T09:19:33Z</time>
      </trkpt>
      <trkpt lat="41.638393470" lon="2.510016720">
        <ele>251.80</ele>
        <time>2014-03-02T09:19:34Z</time>
      </trkpt>
      <trkpt lat="41.638388440" lon="2.509945140">
        <ele>251.50</ele>
        <time>2014-03-02T09:19:35Z</time>
      </trkpt>
      <trkpt lat="41.638383410" lon="2.509873390">
        <ele>251.20</ele>
        <time>2014-03-02T09:19:36Z</time>
      </trkpt>
      <trkpt lat="41.638375030" lon="2.509803490">
        <ele>251.00</ele>
        <time>2014-03-02T09:19:37Z</time>
      </trkpt>
      <trkpt lat="41.638368490" lon="2.509736770">
        <ele>250.50</ele>
        <time>2014-03-02T09:19:38Z</time>
      </trkpt>
      <trkpt lat="41.638365140" lon="2.509673400">
        <ele>250.10</ele>
        <time>2014-03-02T09:19:39Z</time>
      </trkpt>
      <trkpt lat="41.638363460" lon="2.509611710">
        <ele>249.70</ele>
        <time>2014-03-02T09:19:40Z</time>
      </trkpt>
      <trkpt lat="41.638361790" lon="2.509553370">
        <ele>249.30</ele>
        <time>2014-03-02T09:19:41Z</time>
      </trkpt>
      <trkpt lat="41.638363460" lon="2.509510120">
        <ele>249.10</ele>
        <time>2014-03-02T09:19:42Z</time>
      </trkpt>
      <trkpt lat="41.638368490" lon="2.509478440">
        <ele>248.50</ele>
        <time>2014-03-02T09:19:43Z</time>
      </trkpt>
      <trkpt lat="41.638371680" lon="2.509453460">
        <ele>248.00</ele>
        <time>2014-03-02T09:19:44Z</time>
      </trkpt>
      <trkpt lat="41.638376710" lon="2.509423450">
        <ele>247.80</ele>
        <time>2014-03-02T09:19:45Z</time>
      </trkpt>
      <trkpt lat="41.638385090" lon="2.509388420">
        <ele>247.70</ele>
        <time>2014-03-02T09:19:46Z</time>
      </trkpt>
      <trkpt lat="41.638395150" lon="2.509346670">
        <ele>247.60</ele>
        <time>2014-03-02T09:19:47Z</time>
      </trkpt>
      <trkpt lat="41.638408390" lon="2.509303420">
        <ele>247.60</ele>
        <time>2014-03-02T09:19:48Z</time>
      </trkpt>
      <trkpt lat="41.638420130" lon="2.509260000">
        <ele>247.50</ele>
        <time>2014-03-02T09:19:49Z</time>
      </trkpt>
      <trkpt lat="41.638435050" lon="2.509213400">
        <ele>247.40</ele>
        <time>2014-03-02T09:19:50Z</time>
      </trkpt>
      <trkpt lat="41.638450130" lon="2.509163450">
        <ele>247.30</ele>
        <time>2014-03-02T09:19:51Z</time>
      </trkpt>
      <trkpt lat="41.638466730" lon="2.509113490">
        <ele>247.30</ele>
        <time>2014-03-02T09:19:52Z</time>
      </trkpt>
      <trkpt lat="41.638480140" lon="2.509056830">
        <ele>247.30</ele>
        <time>2014-03-02T09:19:53Z</time>
      </trkpt>
      <trkpt lat="41.638491710" lon="2.509006700">
        <ele>247.30</ele>
        <time>2014-03-02T09:19:54Z</time>
      </trkpt>
      <trkpt lat="41.638503440" lon="2.508961780">
        <ele>246.80</ele>
        <time>2014-03-02T09:19:55Z</time>
      </trkpt>
      <trkpt lat="41.638513330" lon="2.508920030">
        <ele>246.40</ele>
        <time>2014-03-02T09:19:56Z</time>
      </trkpt>
      <trkpt lat="41.638521710" lon="2.508883490">
        <ele>245.90</ele>
        <time>2014-03-02T09:19:57Z</time>
      </trkpt>
      <trkpt lat="41.638533450" lon="2.508846780">
        <ele>245.40</ele>
        <time>2014-03-02T09:19:58Z</time>
      </trkpt>
      <trkpt lat="41.638543340" lon="2.508800010">
        <ele>245.10</ele>
        <time>2014-03-02T09:19:59Z</time>
      </trkpt>
      <trkpt lat="41.638558430" lon="2.508750050">
        <ele>244.40</ele>
        <time>2014-03-02T09:20:00Z</time>
      </trkpt>
      <trkpt lat="41.638580050" lon="2.508696740">
        <ele>243.80</ele>
        <time>2014-03-02T09:20:01Z</time>
      </trkpt>
      <trkpt lat="41.638608380" lon="2.508640080">
        <ele>243.00</ele>
        <time>2014-03-02T09:20:02Z</time>
      </trkpt>
      <trkpt lat="41.638640070" lon="2.508576710">
        <ele>242.50</ele>
        <time>2014-03-02T09:20:03Z</time>
      </trkpt>
      <trkpt lat="41.638676780" lon="2.508518370">
        <ele>241.70</ele>
        <time>2014-03-02T09:20:04Z</time>
      </trkpt>
      <trkpt lat="41.638716680" lon="2.508470090">
        <ele>241.20</ele>
        <time>2014-03-02T09:20:05Z</time>
      </trkpt>
      <trkpt lat="41.638760100" lon="2.508426680">
        <ele>240.80</ele>
        <time>2014-03-02T09:20:06Z</time>
      </trkpt>
      <trkpt lat="41.638795130" lon="2.508371690">
        <ele>239.90</ele>
        <time>2014-03-02T09:20:07Z</time>
      </trkpt>
      <trkpt lat="41.638820110" lon="2.508320060">
        <ele>239.20</ele>
        <time>2014-03-02T09:20:08Z</time>
      </trkpt>
      <trkpt lat="41.638846760" lon="2.508265070">
        <ele>238.50</ele>
        <time>2014-03-02T09:20:09Z</time>
      </trkpt>
      <trkpt lat="41.638880120" lon="2.508198350">
        <ele>238.00</ele>
        <time>2014-03-02T09:20:10Z</time>
      </trkpt>
      <trkpt lat="41.638911810" lon="2.508135150">
        <ele>237.60</ele>
        <time>2014-03-02T09:20:11Z</time>
      </trkpt>
      <trkpt lat="41.638941820" lon="2.508085030">
        <ele>237.30</ele>
        <time>2014-03-02T09:20:12Z</time>
      </trkpt>
      <trkpt lat="41.638968470" lon="2.508036750">
        <ele>237.00</ele>
        <time>2014-03-02T09:20:13Z</time>
      </trkpt>
      <trkpt lat="41.638993450" lon="2.507991820">
        <ele>236.40</ele>
        <time>2014-03-02T09:20:14Z</time>
      </trkpt>
      <trkpt lat="41.639015070" lon="2.507951760">
        <ele>235.80</ele>
        <time>2014-03-02T09:20:15Z</time>
      </trkpt>
      <trkpt lat="41.639036700" lon="2.507918400">
        <ele>235.70</ele>
        <time>2014-03-02T09:20:16Z</time>
      </trkpt>
      <trkpt lat="41.639058490" lon="2.507888390">
        <ele>235.70</ele>
        <time>2014-03-02T09:20:17Z</time>
      </trkpt>
      <trkpt lat="41.639080120" lon="2.507856710">
        <ele>235.60</ele>
        <time>2014-03-02T09:20:18Z</time>
      </trkpt>
      <trkpt lat="41.639100070" lon="2.507830050">
        <ele>235.60</ele>
        <time>2014-03-02T09:20:19Z</time>
      </trkpt>
      <trkpt lat="41.639116660" lon="2.507803400">
        <ele>235.60</ele>
        <time>2014-03-02T09:20:20Z</time>
      </trkpt>
      <trkpt lat="41.639126720" lon="2.507778420">
        <ele>235.30</ele>
        <time>2014-03-02T09:20:21Z</time>
      </trkpt>
      <trkpt lat="41.639136780" lon="2.507760150">
        <ele>235.00</ele>
        <time>2014-03-02T09:20:22Z</time>
      </trkpt>
      <trkpt lat="41.639148350" lon="2.507745060">
        <ele>234.90</ele>
        <time>2014-03-02T09:20:23Z</time>
      </trkpt>
      <trkpt lat="41.639163430" lon="2.507728460">
        <ele>234.80</ele>
        <time>2014-03-02T09:20:24Z</time>
      </trkpt>
      <trkpt lat="41.639176680" lon="2.507715050">
        <ele>234.70</ele>
        <time>2014-03-02T09:20:25Z</time>
      </trkpt>
      <trkpt lat="41.639190090" lon="2.507701810">
        <ele>234.50</ele>
        <time>2014-03-02T09:20:26Z</time>
      </trkpt>
      <trkpt lat="41.639203330" lon="2.507690070">
        <ele>234.30</ele>
        <time>2014-03-02T09:20:27Z</time>
      </trkpt>
      <trkpt lat="41.639213390" lon="2.507685050">
        <ele>234.60</ele>
        <time>2014-03-02T09:20:28Z</time>
      </trkpt>
      <trkpt lat="41.639225120" lon="2.507680020">
        <ele>234.90</ele>
        <time>2014-03-02T09:20:29Z</time>
      </trkpt>
      <trkpt lat="41.639233340" lon="2.507675150">
        <ele>234.50</ele>
        <time>2014-03-02T09:20:30Z</time>
      </trkpt>
      <trkpt lat="41.639240040" lon="2.507670130">
        <ele>234.20</ele>
        <time>2014-03-02T09:20:31Z</time>
      </trkpt>
      <trkpt lat="41.639240040" lon="2.507666770">
        <ele>233.90</ele>
        <time>2014-03-02T09:20:32Z</time>
      </trkpt>
      <trkpt lat="41.639240040" lon="2.507663420">
        <ele>234.00</ele>
        <time>2014-03-02T09:20:33Z</time>
      </trkpt>
      <trkpt lat="41.639240040" lon="2.507660070">
        <ele>234.00</ele>
        <time>2014-03-02T09:20:34Z</time>
      </trkpt>
      <trkpt lat="41.639240040" lon="2.507658390">
        <ele>234.30</ele>
        <time>2014-03-02T09:20:35Z</time>
      </trkpt>
      <trkpt lat="41.639240040" lon="2.507655040">
        <ele>234.50</ele>
        <time>2014-03-02T09:20:36Z</time>
      </trkpt>
      <trkpt lat="41.639238370" lon="2.507653360">
        <ele>234.70</ele>
        <time>2014-03-02T09:20:37Z</time>
      </trkpt>
      <trkpt lat="41.639238370" lon="2.507651690">
        <ele>234.80</ele>
        <time>2014-03-02T09:20:38Z</time>
      </trkpt>
      <trkpt lat="41.639236690" lon="2.507650010">
        <ele>234.90</ele>
        <time>2014-03-02T09:20:39Z</time>
      </trkpt>
      <trkpt lat="41.639236690" lon="2.507648330">
        <ele>234.60</ele>
        <time>2014-03-02T09:20:40Z</time>
      </trkpt>
      <trkpt lat="41.639236690" lon="2.507646820">
        <ele>234.40</ele>
        <time>2014-03-02T09:20:41Z</time>
      </trkpt>
      <trkpt lat="41.639240040" lon="2.507648330">
        <ele>234.30</ele>
        <time>2014-03-02T09:20:42Z</time>
      </trkpt>
      <trkpt lat="41.639253450" lon="2.507650010">
        <ele>234.30</ele>
        <time>2014-03-02T09:20:43Z</time>
      </trkpt>
      <trkpt lat="41.639268370" lon="2.507653360">
        <ele>234.20</ele>
        <time>2014-03-02T09:20:44Z</time>
      </trkpt>
      <trkpt lat="41.639285140" lon="2.507655040">
        <ele>234.00</ele>
        <time>2014-03-02T09:20:45Z</time>
      </trkpt>
      <trkpt lat="41.639295030" lon="2.507653360">
        <ele>233.90</ele>
        <time>2014-03-02T09:20:46Z</time>
      </trkpt>
      <trkpt lat="41.639298380" lon="2.507650010">
        <ele>233.60</ele>
        <time>2014-03-02T09:20:47Z</time>
      </trkpt>
      <trkpt lat="41.639298380" lon="2.507650010">
        <ele>233.40</ele>
        <time>2014-03-02T09:20:48Z</time>
      </trkpt>
      <trkpt lat="41.639298380" lon="2.507648330">
        <ele>233.20</ele>
        <time>2014-03-02T09:20:49Z</time>
      </trkpt>
      <trkpt lat="41.639298380" lon="2.507646820">
        <ele>233.00</ele>
        <time>2014-03-02T09:20:50Z</time>
      </trkpt>
      <trkpt lat="41.639298380" lon="2.507646820">
        <ele>232.90</ele>
        <time>2014-03-02T09:20:51Z</time>
      </trkpt>
      <trkpt lat="41.639298380" lon="2.507645150">
        <ele>232.90</ele>
        <time>2014-03-02T09:20:52Z</time>
      </trkpt>
      <trkpt lat="41.639296710" lon="2.507645150">
        <ele>232.80</ele>
        <time>2014-03-02T09:20:53Z</time>
      </trkpt>
      <trkpt lat="41.639296710" lon="2.507645150">
        <ele>233.30</ele>
        <time>2014-03-02T09:20:54Z</time>
      </trkpt>
      <trkpt lat="41.639296710" lon="2.507645150">
        <ele>233.60</ele>
        <time>2014-03-02T09:20:55Z</time>
      </trkpt>
      <trkpt lat="41.639296710" lon="2.507645150">
        <ele>233.40</ele>
        <time>2014-03-02T09:20:56Z</time>
      </trkpt>
      <trkpt lat="41.639296710" lon="2.507645150">
        <ele>233.30</ele>
        <time>2014-03-02T09:20:57Z</time>
      </trkpt>
      <trkpt lat="41.639296710" lon="2.507645150">
        <ele>233.30</ele>
        <time>2014-03-02T09:20:58Z</time>
      </trkpt>
      <trkpt lat="41.639296710" lon="2.507645150">
        <ele>233.10</ele>
        <time>2014-03-02T09:20:59Z</time>
      </trkpt>
      <trkpt lat="41.639295030" lon="2.507645150">
        <ele>233.00</ele>
        <time>2014-03-02T09:21:00Z</time>
      </trkpt>
      <trkpt lat="41.639296710" lon="2.507646820">
        <ele>232.80</ele>
        <time>2014-03-02T09:21:01Z</time>
      </trkpt>
      <trkpt lat="41.639305090" lon="2.507650010">
        <ele>232.70</ele>
        <time>2014-03-02T09:21:02Z</time>
      </trkpt>
      <trkpt lat="41.639313470" lon="2.507656710">
        <ele>232.50</ele>
        <time>2014-03-02T09:21:03Z</time>
      </trkpt>
      <trkpt lat="41.639328390" lon="2.507660070">
        <ele>232.50</ele>
        <time>2014-03-02T09:21:04Z</time>
      </trkpt>
      <trkpt lat="41.639340120" lon="2.507665100">
        <ele>232.50</ele>
        <time>2014-03-02T09:21:05Z</time>
      </trkpt>
      <trkpt lat="41.639356720" lon="2.507665100">
        <ele>232.50</ele>
        <time>2014-03-02T09:21:06Z</time>
      </trkpt>
      <trkpt lat="41.639375160" lon="2.507665100">
        <ele>232.60</ele>
        <time>2014-03-02T09:21:07Z</time>
      </trkpt>
      <trkpt lat="41.639395110" lon="2.507663420">
        <ele>232.40</ele>
        <time>2014-03-02T09:21:08Z</time>
      </trkpt>
      <trkpt lat="41.639415060" lon="2.507658390">
        <ele>232.30</ele>
        <time>2014-03-02T09:21:09Z</time>
      </trkpt>
      <trkpt lat="41.639436680" lon="2.507653360">
        <ele>232.20</ele>
        <time>2014-03-02T09:21:10Z</time>
      </trkpt>
      <trkpt lat="41.639461830" lon="2.507646820">
        <ele>232.30</ele>
        <time>2014-03-02T09:21:11Z</time>
      </trkpt>
      <trkpt lat="41.639486810" lon="2.507643470">
        <ele>232.30</ele>
        <time>2014-03-02T09:21:12Z</time>
      </trkpt>
      <trkpt lat="41.639513460" lon="2.507640120">
        <ele>232.20</ele>
        <time>2014-03-02T09:21:13Z</time>
      </trkpt>
      <trkpt lat="41.639540120" lon="2.507635090">
        <ele>232.00</ele>
        <time>2014-03-02T09:21:14Z</time>
      </trkpt>
      <trkpt lat="41.639568450" lon="2.507628380">
        <ele>231.90</ele>
        <time>2014-03-02T09:21:15Z</time>
      </trkpt>
      <trkpt lat="41.639598450" lon="2.507623350">
        <ele>231.80</ele>
        <time>2014-03-02T09:21:16Z</time>
      </trkpt>
      <trkpt lat="41.639630140" lon="2.507618490">
        <ele>231.80</ele>
        <time>2014-03-02T09:21:17Z</time>
      </trkpt>
      <trkpt lat="41.639661820" lon="2.507613460">
        <ele>231.60</ele>
        <time>2014-03-02T09:21:18Z</time>
      </trkpt>
      <trkpt lat="41.639693340" lon="2.507605080">
        <ele>231.50</ele>
        <time>2014-03-02T09:21:19Z</time>
      </trkpt>
      <trkpt lat="41.639725020" lon="2.507600050">
        <ele>231.40</ele>
        <time>2014-03-02T09:21:20Z</time>
      </trkpt>
      <trkpt lat="41.639756700" lon="2.507593350">
        <ele>231.40</ele>
        <time>2014-03-02T09:21:21Z</time>
      </trkpt>
      <trkpt lat="41.639788390" lon="2.507588490">
        <ele>231.40</ele>
        <time>2014-03-02T09:21:22Z</time>
      </trkpt>
      <trkpt lat="41.639820070" lon="2.507583460">
        <ele>230.70</ele>
        <time>2014-03-02T09:21:23Z</time>
      </trkpt>
      <trkpt lat="41.639851760" lon="2.507581780">
        <ele>230.20</ele>
        <time>2014-03-02T09:21:24Z</time>
      </trkpt>
      <trkpt lat="41.639883440" lon="2.507578430">
        <ele>230.40</ele>
        <time>2014-03-02T09:21:25Z</time>
      </trkpt>
      <trkpt lat="41.639915120" lon="2.507573400">
        <ele>230.60</ele>
        <time>2014-03-02T09:21:26Z</time>
      </trkpt>
      <trkpt lat="41.639946810" lon="2.507565020">
        <ele>230.50</ele>
        <time>2014-03-02T09:21:27Z</time>
      </trkpt>
      <trkpt lat="41.639978490" lon="2.507560160">
        <ele>230.50</ele>
        <time>2014-03-02T09:21:28Z</time>
      </trkpt>
      <trkpt lat="41.640010010" lon="2.507550100">
        <ele>230.50</ele>
        <time>2014-03-02T09:21:29Z</time>
      </trkpt>
      <trkpt lat="41.640040010" lon="2.507543390">
        <ele>230.50</ele>
        <time>2014-03-02T09:21:30Z</time>
      </trkpt>
      <trkpt lat="41.640070020" lon="2.507536690">
        <ele>230.60</ele>
        <time>2014-03-02T09:21:31Z</time>
      </trkpt>
      <trkpt lat="41.640098350" lon="2.507530150">
        <ele>230.60</ele>
        <time>2014-03-02T09:21:32Z</time>
      </trkpt>
      <trkpt lat="41.640130030" lon="2.507521770">
        <ele>230.70</ele>
        <time>2014-03-02T09:21:33Z</time>
      </trkpt>
      <trkpt lat="41.640161720" lon="2.507508350">
        <ele>230.80</ele>
        <time>2014-03-02T09:21:34Z</time>
      </trkpt>
      <trkpt lat="41.640198430" lon="2.507496790">
        <ele>230.90</ele>
        <time>2014-03-02T09:21:35Z</time>
      </trkpt>
      <trkpt lat="41.640235140" lon="2.507486730">
        <ele>230.90</ele>
        <time>2014-03-02T09:21:36Z</time>
      </trkpt>
      <trkpt lat="41.640275040" lon="2.507473490">
        <ele>231.00</ele>
        <time>2014-03-02T09:21:37Z</time>
      </trkpt>
      <trkpt lat="41.640316780" lon="2.507460080">
        <ele>231.10</ele>
        <time>2014-03-02T09:21:38Z</time>
      </trkpt>
      <trkpt lat="41.640360030" lon="2.507448340">
        <ele>231.20</ele>
        <time>2014-03-02T09:21:39Z</time>
      </trkpt>
      <trkpt lat="41.640403450" lon="2.507436770">
        <ele>231.20</ele>
        <time>2014-03-02T09:21:40Z</time>
      </trkpt>
      <trkpt lat="41.640445030" lon="2.507428390">
        <ele>231.30</ele>
        <time>2014-03-02T09:21:41Z</time>
      </trkpt>
      <trkpt lat="41.640488440" lon="2.507421690">
        <ele>230.70</ele>
        <time>2014-03-02T09:21:42Z</time>
      </trkpt>
      <trkpt lat="41.640531700" lon="2.507418330">
        <ele>230.30</ele>
        <time>2014-03-02T09:21:43Z</time>
      </trkpt>
      <trkpt lat="41.640573440" lon="2.507418330">
        <ele>229.60</ele>
        <time>2014-03-02T09:21:44Z</time>
      </trkpt>
      <trkpt lat="41.640613330" lon="2.507420010">
        <ele>229.10</ele>
        <time>2014-03-02T09:21:45Z</time>
      </trkpt>
      <trkpt lat="41.640651720" lon="2.507421690">
        <ele>229.10</ele>
        <time>2014-03-02T09:21:46Z</time>
      </trkpt>
      <trkpt lat="41.640686760" lon="2.507423360">
        <ele>229.20</ele>
        <time>2014-03-02T09:21:47Z</time>
      </trkpt>
      <trkpt lat="41.640720120" lon="2.507420010">
        <ele>229.20</ele>
        <time>2014-03-02T09:21:48Z</time>
      </trkpt>
      <trkpt lat="41.640751800" lon="2.507416820">
        <ele>228.70</ele>
        <time>2014-03-02T09:21:49Z</time>
      </trkpt>
      <trkpt lat="41.640783490" lon="2.507413470">
        <ele>228.40</ele>
        <time>2014-03-02T09:21:50Z</time>
      </trkpt>
      <trkpt lat="41.640813490" lon="2.507406770">
        <ele>228.40</ele>
        <time>2014-03-02T09:21:51Z</time>
      </trkpt>
      <trkpt lat="41.640843330" lon="2.507396710">
        <ele>228.40</ele>
        <time>2014-03-02T09:21:52Z</time>
      </trkpt>
      <trkpt lat="41.640873340" lon="2.507388490">
        <ele>228.50</ele>
        <time>2014-03-02T09:21:53Z</time>
      </trkpt>
      <trkpt lat="41.640903350" lon="2.507380110">
        <ele>228.50</ele>
        <time>2014-03-02T09:21:54Z</time>
      </trkpt>
      <trkpt lat="41.640933360" lon="2.507371730">
        <ele>228.50</ele>
        <time>2014-03-02T09:21:55Z</time>
      </trkpt>
      <trkpt lat="41.640963360" lon="2.507358490">
        <ele>228.70</ele>
        <time>2014-03-02T09:21:56Z</time>
      </trkpt>
      <trkpt lat="41.640991690" lon="2.507346750">
        <ele>228.80</ele>
        <time>2014-03-02T09:21:57Z</time>
      </trkpt>
      <trkpt lat="41.641023380" lon="2.507333340">
        <ele>228.80</ele>
        <time>2014-03-02T09:21:58Z</time>
      </trkpt>
      <trkpt lat="41.641055060" lon="2.507323450">
        <ele>228.80</ele>
        <time>2014-03-02T09:21:59Z</time>
      </trkpt>
      <trkpt lat="41.641088420" lon="2.507311720">
        <ele>228.80</ele>
        <time>2014-03-02T09:22:00Z</time>
      </trkpt>
      <trkpt lat="41.641121780" lon="2.507298470">
        <ele>228.70</ele>
        <time>2014-03-02T09:22:01Z</time>
      </trkpt>
      <trkpt lat="41.641155140" lon="2.507280030">
        <ele>228.60</ele>
        <time>2014-03-02T09:22:02Z</time>
      </trkpt>
      <trkpt lat="41.641190010" lon="2.507263440">
        <ele>228.90</ele>
        <time>2014-03-02T09:22:03Z</time>
      </trkpt>
      <trkpt lat="41.641225050" lon="2.507250020">
        <ele>229.10</ele>
        <time>2014-03-02T09:22:04Z</time>
      </trkpt>
      <trkpt lat="41.641258410" lon="2.507235100">
        <ele>229.20</ele>
        <time>2014-03-02T09:22:05Z</time>
      </trkpt>
      <trkpt lat="41.641290090" lon="2.507221690">
        <ele>229.20</ele>
        <time>2014-03-02T09:22:06Z</time>
      </trkpt>
      <trkpt lat="41.641323450" lon="2.507211800">
        <ele>229.20</ele>
        <time>2014-03-02T09:22:07Z</time>
      </trkpt>
      <trkpt lat="41.641358490" lon="2.507205100">
        <ele>228.90</ele>
        <time>2014-03-02T09:22:08Z</time>
      </trkpt>
      <trkpt lat="41.641391680" lon="2.507200070">
        <ele>228.60</ele>
        <time>2014-03-02T09:22:09Z</time>
      </trkpt>
      <trkpt lat="41.641425040" lon="2.507196720">
        <ele>228.30</ele>
        <time>2014-03-02T09:22:10Z</time>
      </trkpt>
      <trkpt lat="41.641458400" lon="2.507200070">
        <ele>228.00</ele>
        <time>2014-03-02T09:22:11Z</time>
      </trkpt>
      <trkpt lat="41.641490080" lon="2.507203420">
        <ele>228.30</ele>
        <time>2014-03-02T09:22:12Z</time>
      </trkpt>
      <trkpt lat="41.641520090" lon="2.507208450">
        <ele>228.50</ele>
        <time>2014-03-02T09:22:13Z</time>
      </trkpt>
      <trkpt lat="41.641550100" lon="2.507210130">
        <ele>228.60</ele>
        <time>2014-03-02T09:22:14Z</time>
      </trkpt>
      <trkpt lat="41.641580100" lon="2.507215160">
        <ele>228.50</ele>
        <time>2014-03-02T09:22:15Z</time>
      </trkpt>
      <trkpt lat="41.641608430" lon="2.507221690">
        <ele>228.30</ele>
        <time>2014-03-02T09:22:16Z</time>
      </trkpt>
      <trkpt lat="41.641636770" lon="2.507226720">
        <ele>228.30</ele>
        <time>2014-03-02T09:22:17Z</time>
      </trkpt>
      <trkpt lat="41.641663420" lon="2.507233430">
        <ele>228.20</ele>
        <time>2014-03-02T09:22:18Z</time>
      </trkpt>
      <trkpt lat="41.641690070" lon="2.507238460">
        <ele>228.30</ele>
        <time>2014-03-02T09:22:19Z</time>
      </trkpt>
      <trkpt lat="41.641713380" lon="2.507243490">
        <ele>228.40</ele>
        <time>2014-03-02T09:22:20Z</time>
      </trkpt>
      <trkpt lat="41.641735000" lon="2.507246670">
        <ele>228.50</ele>
        <time>2014-03-02T09:22:21Z</time>
      </trkpt>
      <trkpt lat="41.641755120" lon="2.507251700">
        <ele>228.10</ele>
        <time>2014-03-02T09:22:22Z</time>
      </trkpt>
      <trkpt lat="41.641778420" lon="2.507255050">
        <ele>227.90</ele>
        <time>2014-03-02T09:22:23Z</time>
      </trkpt>
      <trkpt lat="41.641805070" lon="2.507258410">
        <ele>227.70</ele>
        <time>2014-03-02T09:22:24Z</time>
      </trkpt>
      <trkpt lat="41.641833400" lon="2.507266790">
        <ele>227.60</ele>
        <time>2014-03-02T09:22:25Z</time>
      </trkpt>
      <trkpt lat="41.641863410" lon="2.507278360">
        <ele>227.60</ele>
        <time>2014-03-02T09:22:26Z</time>
      </trkpt>
      <trkpt lat="41.641891740" lon="2.507290090">
        <ele>227.50</ele>
        <time>2014-03-02T09:22:27Z</time>
      </trkpt>
      <trkpt lat="41.641920070" lon="2.507300150">
        <ele>227.50</ele>
        <time>2014-03-02T09:22:28Z</time>
      </trkpt>
      <trkpt lat="41.641948400" lon="2.507310040">
        <ele>227.60</ele>
        <time>2014-03-02T09:22:29Z</time>
      </trkpt>
      <trkpt lat="41.641978410" lon="2.507320100">
        <ele>227.60</ele>
        <time>2014-03-02T09:22:30Z</time>
      </trkpt>
      <trkpt lat="41.642010100" lon="2.507328480">
        <ele>228.00</ele>
        <time>2014-03-02T09:22:31Z</time>
      </trkpt>
      <trkpt lat="41.642043460" lon="2.507330160">
        <ele>228.30</ele>
        <time>2014-03-02T09:22:32Z</time>
      </trkpt>
      <trkpt lat="41.642078490" lon="2.507328480">
        <ele>228.60</ele>
        <time>2014-03-02T09:22:33Z</time>
      </trkpt>
      <trkpt lat="41.642113360" lon="2.507328480">
        <ele>228.30</ele>
        <time>2014-03-02T09:22:34Z</time>
      </trkpt>
      <trkpt lat="41.642148400" lon="2.507328480">
        <ele>228.10</ele>
        <time>2014-03-02T09:22:35Z</time>
      </trkpt>
      <trkpt lat="41.642185110" lon="2.507330160">
        <ele>227.80</ele>
        <time>2014-03-02T09:22:36Z</time>
      </trkpt>
      <trkpt lat="41.642218470" lon="2.507333340">
        <ele>227.60</ele>
        <time>2014-03-02T09:22:37Z</time>
      </trkpt>
      <trkpt lat="41.642253340" lon="2.507333340">
        <ele>227.30</ele>
        <time>2014-03-02T09:22:38Z</time>
      </trkpt>
      <trkpt lat="41.642286700" lon="2.507336690">
        <ele>227.10</ele>
        <time>2014-03-02T09:22:39Z</time>
      </trkpt>
      <trkpt lat="41.642323410" lon="2.507340050">
        <ele>226.90</ele>
        <time>2014-03-02T09:22:40Z</time>
      </trkpt>
      <trkpt lat="41.642361800" lon="2.507346750">
        <ele>226.80</ele>
        <time>2014-03-02T09:22:41Z</time>
      </trkpt>
      <trkpt lat="41.642403370" lon="2.507353460">
        <ele>226.70</ele>
        <time>2014-03-02T09:22:42Z</time>
      </trkpt>
      <trkpt lat="41.642446790" lon="2.507355130">
        <ele>227.00</ele>
        <time>2014-03-02T09:22:43Z</time>
      </trkpt>
      <trkpt lat="41.642491720" lon="2.507356810">
        <ele>227.30</ele>
        <time>2014-03-02T09:22:44Z</time>
      </trkpt>
      <trkpt lat="41.642536810" lon="2.507360000">
        <ele>227.40</ele>
        <time>2014-03-02T09:22:45Z</time>
      </trkpt>
      <trkpt lat="41.642583420" lon="2.507363350">
        <ele>227.20</ele>
        <time>2014-03-02T09:22:46Z</time>
      </trkpt>
      <trkpt lat="41.642631700" lon="2.507368380">
        <ele>227.00</ele>
        <time>2014-03-02T09:22:47Z</time>
      </trkpt>
      <trkpt lat="41.642680140" lon="2.507371730">
        <ele>226.50</ele>
        <time>2014-03-02T09:22:48Z</time>
      </trkpt>
      <trkpt lat="41.642728420" lon="2.507371730">
        <ele>226.10</ele>
        <time>2014-03-02T09:22:49Z</time>
      </trkpt>
      <trkpt lat="41.642776700" lon="2.507368380">
        <ele>226.10</ele>
        <time>2014-03-02T09:22:50Z</time>
      </trkpt>
      <trkpt lat="41.642828340" lon="2.507366700">
        <ele>226.10</ele>
        <time>2014-03-02T09:22:51Z</time>
      </trkpt>
      <trkpt lat="41.642881810" lon="2.507363350">
        <ele>226.10</ele>
        <time>2014-03-02T09:22:52Z</time>
      </trkpt>
      <trkpt lat="41.642936800" lon="2.507356810">
        <ele>226.00</ele>
        <time>2014-03-02T09:22:53Z</time>
      </trkpt>
      <trkpt lat="41.642991780" lon="2.507350100">
        <ele>226.00</ele>
        <time>2014-03-02T09:22:54Z</time>
      </trkpt>
      <trkpt lat="41.643048450" lon="2.507341720">
        <ele>225.70</ele>
        <time>2014-03-02T09:22:55Z</time>
      </trkpt>
      <trkpt lat="41.643105110" lon="2.507335020">
        <ele>225.50</ele>
        <time>2014-03-02T09:22:56Z</time>
      </trkpt>
      <trkpt lat="41.643163450" lon="2.507326800">
        <ele>225.30</ele>
        <time>2014-03-02T09:22:57Z</time>
      </trkpt>
      <trkpt lat="41.643223460" lon="2.507320100">
        <ele>225.20</ele>
        <time>2014-03-02T09:22:58Z</time>
      </trkpt>
      <trkpt lat="41.643281800" lon="2.507315070">
        <ele>225.10</ele>
        <time>2014-03-02T09:22:59Z</time>
      </trkpt>
      <trkpt lat="41.643338460" lon="2.507310040">
        <ele>225.30</ele>
        <time>2014-03-02T09:23:00Z</time>
      </trkpt>
      <trkpt lat="41.643396800" lon="2.507303330">
        <ele>225.50</ele>
        <time>2014-03-02T09:23:01Z</time>
      </trkpt>
      <trkpt lat="41.643455140" lon="2.507295120">
        <ele>225.20</ele>
        <time>2014-03-02T09:23:02Z</time>
      </trkpt>
      <trkpt lat="41.643518330" lon="2.507286740">
        <ele>225.00</ele>
        <time>2014-03-02T09:23:03Z</time>
      </trkpt>
      <trkpt lat="41.643580030" lon="2.507273490">
        <ele>224.80</ele>
        <time>2014-03-02T09:23:04Z</time>
      </trkpt>
      <trkpt lat="41.643638360" lon="2.507260080">
        <ele>224.00</ele>
        <time>2014-03-02T09:23:05Z</time>
      </trkpt>
      <trkpt lat="41.643693350" lon="2.507248350">
        <ele>223.40</ele>
        <time>2014-03-02T09:23:06Z</time>
      </trkpt>
      <trkpt lat="41.643746830" lon="2.507243490">
        <ele>223.30</ele>
        <time>2014-03-02T09:23:07Z</time>
      </trkpt>
      <trkpt lat="41.643798460" lon="2.507251700">
        <ele>223.20</ele>
        <time>2014-03-02T09:23:08Z</time>
      </trkpt>
      <trkpt lat="41.643850090" lon="2.507273490">
        <ele>222.40</ele>
        <time>2014-03-02T09:23:09Z</time>
      </trkpt>
      <trkpt lat="41.643905080" lon="2.507306690">
        <ele>221.90</ele>
        <time>2014-03-02T09:23:10Z</time>
      </trkpt>
      <trkpt lat="41.643963410" lon="2.507346750">
        <ele>221.50</ele>
        <time>2014-03-02T09:23:11Z</time>
      </trkpt>
      <trkpt lat="41.644021750" lon="2.507395030">
        <ele>221.00</ele>
        <time>2014-03-02T09:23:12Z</time>
      </trkpt>
      <trkpt lat="41.644078410" lon="2.507446660">
        <ele>220.70</ele>
        <time>2014-03-02T09:23:13Z</time>
      </trkpt>
      <trkpt lat="41.644135080" lon="2.507501820">
        <ele>219.80</ele>
        <time>2014-03-02T09:23:14Z</time>
      </trkpt>
      <trkpt lat="41.644195090" lon="2.507550100">
        <ele>219.10</ele>
        <time>2014-03-02T09:23:15Z</time>
      </trkpt>
      <trkpt lat="41.644260130" lon="2.507588490">
        <ele>218.40</ele>
        <time>2014-03-02T09:23:16Z</time>
      </trkpt>
      <trkpt lat="41.644321820" lon="2.507623350">
        <ele>217.80</ele>
        <time>2014-03-02T09:23:17Z</time>
      </trkpt>
      <trkpt lat="41.644385020" lon="2.507658390">
        <ele>217.40</ele>
        <time>2014-03-02T09:23:18Z</time>
      </trkpt>
      <trkpt lat="41.644448390" lon="2.507691750">
        <ele>216.90</ele>
        <time>2014-03-02T09:23:19Z</time>
      </trkpt>
      <trkpt lat="41.644511760" lon="2.507726790">
        <ele>216.50</ele>
        <time>2014-03-02T09:23:20Z</time>
      </trkpt>
      <trkpt lat="41.644575130" lon="2.507756790">
        <ele>216.50</ele>
        <time>2014-03-02T09:23:21Z</time>
      </trkpt>
      <trkpt lat="41.644635140" lon="2.507786800">
        <ele>216.40</ele>
        <time>2014-03-02T09:23:22Z</time>
      </trkpt>
      <trkpt lat="41.644691800" lon="2.507816810">
        <ele>216.40</ele>
        <time>2014-03-02T09:23:23Z</time>
      </trkpt>
      <trkpt lat="41.644748460" lon="2.507850000">
        <ele>216.00</ele>
        <time>2014-03-02T09:23:24Z</time>
      </trkpt>
      <trkpt lat="41.644801770" lon="2.507883360">
        <ele>215.80</ele>
        <time>2014-03-02T09:23:25Z</time>
      </trkpt>
      <trkpt lat="41.644853400" lon="2.507915040">
        <ele>215.50</ele>
        <time>2014-03-02T09:23:26Z</time>
      </trkpt>
      <trkpt lat="41.644901680" lon="2.507943380">
        <ele>215.30</ele>
        <time>2014-03-02T09:23:27Z</time>
      </trkpt>
      <trkpt lat="41.644951810" lon="2.507975060">
        <ele>215.40</ele>
        <time>2014-03-02T09:23:28Z</time>
      </trkpt>
      <trkpt lat="41.645001760" lon="2.508001710">
        <ele>215.40</ele>
        <time>2014-03-02T09:23:29Z</time>
      </trkpt>
      <trkpt lat="41.645050040" lon="2.508033400">
        <ele>215.50</ele>
        <time>2014-03-02T09:23:30Z</time>
      </trkpt>
      <trkpt lat="41.645100000" lon="2.508065080">
        <ele>215.40</ele>
        <time>2014-03-02T09:23:31Z</time>
      </trkpt>
      <trkpt lat="41.645148450" lon="2.508095090">
        <ele>215.30</ele>
        <time>2014-03-02T09:23:32Z</time>
      </trkpt>
      <trkpt lat="41.645195050" lon="2.508126770">
        <ele>215.50</ele>
        <time>2014-03-02T09:23:33Z</time>
      </trkpt>
      <trkpt lat="41.645240150" lon="2.508156780">
        <ele>215.60</ele>
        <time>2014-03-02T09:23:34Z</time>
      </trkpt>
      <trkpt lat="41.645283400" lon="2.508186790">
        <ele>215.40</ele>
        <time>2014-03-02T09:23:35Z</time>
      </trkpt>
      <trkpt lat="41.645326810" lon="2.508221820">
        <ele>215.30</ele>
        <time>2014-03-02T09:23:36Z</time>
      </trkpt>
      <trkpt lat="41.645368390" lon="2.508256690">
        <ele>215.20</ele>
        <time>2014-03-02T09:23:37Z</time>
      </trkpt>
      <trkpt lat="41.645408450" lon="2.508291730">
        <ele>214.90</ele>
        <time>2014-03-02T09:23:38Z</time>
      </trkpt>
      <trkpt lat="41.645450030" lon="2.508325090">
        <ele>214.70</ele>
        <time>2014-03-02T09:23:39Z</time>
      </trkpt>
      <trkpt lat="41.645488420" lon="2.508355090">
        <ele>215.20</ele>
        <time>2014-03-02T09:23:40Z</time>
      </trkpt>
      <trkpt lat="41.645526810" lon="2.508385100">
        <ele>215.60</ele>
        <time>2014-03-02T09:23:41Z</time>
      </trkpt>
      <trkpt lat="41.645565030" lon="2.508410080">
        <ele>215.90</ele>
        <time>2014-03-02T09:23:42Z</time>
      </trkpt>
      <trkpt lat="41.645601740" lon="2.508438410">
        <ele>215.90</ele>
        <time>2014-03-02T09:23:43Z</time>
      </trkpt>
      <trkpt lat="41.645636780" lon="2.508465070">
        <ele>215.90</ele>
        <time>2014-03-02T09:23:44Z</time>
      </trkpt>
      <trkpt lat="41.645671810" lon="2.508491720">
        <ele>215.90</ele>
        <time>2014-03-02T09:23:45Z</time>
      </trkpt>
      <trkpt lat="41.645706680" lon="2.508516700">
        <ele>215.80</ele>
        <time>2014-03-02T09:23:46Z</time>
      </trkpt>
      <trkpt lat="41.645741720" lon="2.508538490">
        <ele>216.00</ele>
        <time>2014-03-02T09:23:47Z</time>
      </trkpt>
      <trkpt lat="41.645775080" lon="2.508556760">
        <ele>216.10</ele>
        <time>2014-03-02T09:23:48Z</time>
      </trkpt>
      <trkpt lat="41.645810110" lon="2.508581740">
        <ele>216.20</ele>
        <time>2014-03-02T09:23:49Z</time>
      </trkpt>
      <trkpt lat="41.645843470" lon="2.508608400">
        <ele>216.70</ele>
        <time>2014-03-02T09:23:50Z</time>
      </trkpt>
      <trkpt lat="41.645875160" lon="2.508631700">
        <ele>217.00</ele>
        <time>2014-03-02T09:23:51Z</time>
      </trkpt>
      <trkpt lat="41.645906670" lon="2.508651810">
        <ele>216.90</ele>
        <time>2014-03-02T09:23:52Z</time>
      </trkpt>
      <trkpt lat="41.645940030" lon="2.508671760">
        <ele>216.80</ele>
        <time>2014-03-02T09:23:53Z</time>
      </trkpt>
      <trkpt lat="41.645973390" lon="2.508698420">
        <ele>216.80</ele>
        <time>2014-03-02T09:23:54Z</time>
      </trkpt>
      <trkpt lat="41.646005080" lon="2.508726750">
        <ele>216.80</ele>
        <time>2014-03-02T09:23:55Z</time>
      </trkpt>
      <trkpt lat="41.646040110" lon="2.508753400">
        <ele>216.80</ele>
        <time>2014-03-02T09:23:56Z</time>
      </trkpt>
      <trkpt lat="41.646075150" lon="2.508775030">
        <ele>216.70</ele>
        <time>2014-03-02T09:23:57Z</time>
      </trkpt>
      <trkpt lat="41.646110020" lon="2.508801680">
        <ele>216.60</ele>
        <time>2014-03-02T09:23:58Z</time>
      </trkpt>
      <trkpt lat="41.646143380" lon="2.508826830">
        <ele>216.70</ele>
        <time>2014-03-02T09:23:59Z</time>
      </trkpt>
      <trkpt lat="41.646173390" lon="2.508848450">
        <ele>216.80</ele>
        <time>2014-03-02T09:24:00Z</time>
      </trkpt>
      <trkpt lat="41.646206750" lon="2.508868400">
        <ele>216.90</ele>
        <time>2014-03-02T09:24:01Z</time>
      </trkpt>
      <trkpt lat="41.646248490" lon="2.508893380">
        <ele>216.70</ele>
        <time>2014-03-02T09:24:02Z</time>
      </trkpt>
      <trkpt lat="41.646293420" lon="2.508923390">
        <ele>216.60</ele>
        <time>2014-03-02T09:24:03Z</time>
      </trkpt>
      <trkpt lat="41.646340020" lon="2.508958420">
        <ele>216.70</ele>
        <time>2014-03-02T09:24:04Z</time>
      </trkpt>
      <trkpt lat="41.646388470" lon="2.508993460">
        <ele>216.70</ele>
        <time>2014-03-02T09:24:05Z</time>
      </trkpt>
      <trkpt lat="41.646435070" lon="2.509023470">
        <ele>216.00</ele>
        <time>2014-03-02T09:24:06Z</time>
      </trkpt>
      <trkpt lat="41.646480000" lon="2.509055150">
        <ele>215.50</ele>
        <time>2014-03-02T09:24:07Z</time>
      </trkpt>
      <trkpt lat="41.646525090" lon="2.509085160">
        <ele>215.20</ele>
        <time>2014-03-02T09:24:08Z</time>
      </trkpt>
      <trkpt lat="41.646568340" lon="2.509118350">
        <ele>215.40</ele>
        <time>2014-03-02T09:24:09Z</time>
      </trkpt>
      <trkpt lat="41.646608410" lon="2.509153390">
        <ele>215.70</ele>
        <time>2014-03-02T09:24:10Z</time>
      </trkpt>
      <trkpt lat="41.646646800" lon="2.509188420">
        <ele>215.50</ele>
        <time>2014-03-02T09:24:11Z</time>
      </trkpt>
      <trkpt lat="41.646680160" lon="2.509225140">
        <ele>215.30</ele>
        <time>2014-03-02T09:24:12Z</time>
      </trkpt>
      <trkpt lat="41.646715030" lon="2.509256820">
        <ele>215.00</ele>
        <time>2014-03-02T09:24:13Z</time>
      </trkpt>
      <trkpt lat="41.646746710" lon="2.509285150">
        <ele>214.80</ele>
        <time>2014-03-02T09:24:14Z</time>
      </trkpt>
      <trkpt lat="41.646778390" lon="2.509310130">
        <ele>214.70</ele>
        <time>2014-03-02T09:24:15Z</time>
      </trkpt>
      <trkpt lat="41.646806720" lon="2.509335110">
        <ele>214.20</ele>
        <time>2014-03-02T09:24:16Z</time>
      </trkpt>
      <trkpt lat="41.646838410" lon="2.509356730">
        <ele>213.90</ele>
        <time>2014-03-02T09:24:17Z</time>
      </trkpt>
      <trkpt lat="41.646868410" lon="2.509380030">
        <ele>213.90</ele>
        <time>2014-03-02T09:24:18Z</time>
      </trkpt>
      <trkpt lat="41.646898420" lon="2.509400150">
        <ele>214.00</ele>
        <time>2014-03-02T09:24:19Z</time>
      </trkpt>
      <trkpt lat="41.646931780" lon="2.509418420">
        <ele>214.00</ele>
        <time>2014-03-02T09:24:20Z</time>
      </trkpt>
      <trkpt lat="41.646965140" lon="2.509438370">
        <ele>213.60</ele>
        <time>2014-03-02T09:24:21Z</time>
      </trkpt>
      <trkpt lat="41.646998330" lon="2.509458490">
        <ele>213.20</ele>
        <time>2014-03-02T09:24:22Z</time>
      </trkpt>
      <trkpt lat="41.647031690" lon="2.509478440">
        <ele>212.70</ele>
        <time>2014-03-02T09:24:23Z</time>
      </trkpt>
      <trkpt lat="41.647063380" lon="2.509501740">
        <ele>212.40</ele>
        <time>2014-03-02T09:24:24Z</time>
      </trkpt>
      <trkpt lat="41.647095060" lon="2.509525040">
        <ele>212.20</ele>
        <time>2014-03-02T09:24:25Z</time>
      </trkpt>
      <trkpt lat="41.647125070" lon="2.509543480">
        <ele>212.00</ele>
        <time>2014-03-02T09:24:26Z</time>
      </trkpt>
      <trkpt lat="41.647155070" lon="2.509563430">
        <ele>211.80</ele>
        <time>2014-03-02T09:24:27Z</time>
      </trkpt>
      <trkpt lat="41.647183410" lon="2.509585060">
        <ele>211.90</ele>
        <time>2014-03-02T09:24:28Z</time>
      </trkpt>
      <trkpt lat="41.647210060" lon="2.509606680">
        <ele>211.90</ele>
        <time>2014-03-02T09:24:29Z</time>
      </trkpt>
      <trkpt lat="41.647235040" lon="2.509628470">
        <ele>211.90</ele>
        <time>2014-03-02T09:24:30Z</time>
      </trkpt>
      <trkpt lat="41.647251800" lon="2.509656800">
        <ele>211.90</ele>
        <time>2014-03-02T09:24:31Z</time>
      </trkpt>
      <trkpt lat="41.647256660" lon="2.509686810">
        <ele>212.00</ele>
        <time>2014-03-02T09:24:32Z</time>
      </trkpt>
      <trkpt lat="41.647255150" lon="2.509716820">
        <ele>212.10</ele>
        <time>2014-03-02T09:24:33Z</time>
      </trkpt>
      <trkpt lat="41.647246770" lon="2.509750010">
        <ele>212.10</ele>
        <time>2014-03-02T09:24:34Z</time>
      </trkpt>
      <trkpt lat="41.647235040" lon="2.509781690">
        <ele>212.00</ele>
        <time>2014-03-02T09:24:35Z</time>
      </trkpt>
      <trkpt lat="41.647221790" lon="2.509813380">
        <ele>211.90</ele>
        <time>2014-03-02T09:24:36Z</time>
      </trkpt>
      <trkpt lat="41.647206710" lon="2.509851770">
        <ele>212.40</ele>
        <time>2014-03-02T09:24:37Z</time>
      </trkpt>
      <trkpt lat="41.647195140" lon="2.509891670">
        <ele>212.80</ele>
        <time>2014-03-02T09:24:38Z</time>
      </trkpt>
      <trkpt lat="41.647180050" lon="2.509926700">
        <ele>213.00</ele>
        <time>2014-03-02T09:24:39Z</time>
      </trkpt>
      <trkpt lat="41.647166810" lon="2.509960060">
        <ele>212.40</ele>
        <time>2014-03-02T09:24:40Z</time>
      </trkpt>
      <trkpt lat="41.647153400" lon="2.509995100">
        <ele>212.00</ele>
        <time>2014-03-02T09:24:41Z</time>
      </trkpt>
      <trkpt lat="41.647138480" lon="2.510028460">
        <ele>211.70</ele>
        <time>2014-03-02T09:24:42Z</time>
      </trkpt>
      <trkpt lat="41.647123390" lon="2.510063490">
        <ele>211.60</ele>
        <time>2014-03-02T09:24:43Z</time>
      </trkpt>
      <trkpt lat="41.647108470" lon="2.510095010">
        <ele>211.40</ele>
        <time>2014-03-02T09:24:44Z</time>
      </trkpt>
      <trkpt lat="41.647091710" lon="2.510126690">
        <ele>211.30</ele>
        <time>2014-03-02T09:24:45Z</time>
      </trkpt>
      <trkpt lat="41.647075110" lon="2.510160050">
        <ele>211.30</ele>
        <time>2014-03-02T09:24:46Z</time>
      </trkpt>
      <trkpt lat="41.647058350" lon="2.510196770">
        <ele>211.30</ele>
        <time>2014-03-02T09:24:47Z</time>
      </trkpt>
      <trkpt lat="41.647040080" lon="2.510233480">
        <ele>211.40</ele>
        <time>2014-03-02T09:24:48Z</time>
      </trkpt>
      <trkpt lat="41.647021800" lon="2.510271700">
        <ele>211.50</ele>
        <time>2014-03-02T09:24:49Z</time>
      </trkpt>
      <trkpt lat="41.647003360" lon="2.510308410">
        <ele>211.50</ele>
        <time>2014-03-02T09:24:50Z</time>
      </trkpt>
      <trkpt lat="41.646988440" lon="2.510351660">
        <ele>211.40</ele>
        <time>2014-03-02T09:24:51Z</time>
      </trkpt>
      <trkpt lat="41.646975030" lon="2.510393410">
        <ele>211.20</ele>
        <time>2014-03-02T09:24:52Z</time>
      </trkpt>
      <trkpt lat="41.646963460" lon="2.510436820">
        <ele>211.10</ele>
        <time>2014-03-02T09:24:53Z</time>
      </trkpt>
      <trkpt lat="41.646953410" lon="2.510475050">
        <ele>211.10</ele>
        <time>2014-03-02T09:24:54Z</time>
      </trkpt>
      <trkpt lat="41.646948380" lon="2.510511760">
        <ele>211.10</ele>
        <time>2014-03-02T09:24:55Z</time>
      </trkpt>
      <trkpt lat="41.646941670" lon="2.510550150">
        <ele>211.00</ele>
        <time>2014-03-02T09:24:56Z</time>
      </trkpt>
      <trkpt lat="41.646936810" lon="2.510588370">
        <ele>211.00</ele>
        <time>2014-03-02T09:24:57Z</time>
      </trkpt>
      <trkpt lat="41.646931780" lon="2.510626760">
        <ele>210.90</ele>
        <time>2014-03-02T09:24:58Z</time>
      </trkpt>
      <trkpt lat="41.646930100" lon="2.510665150">
        <ele>210.90</ele>
        <time>2014-03-02T09:24:59Z</time>
      </trkpt>
      <trkpt lat="41.646925080" lon="2.510703370">
        <ele>211.00</ele>
        <time>2014-03-02T09:25:00Z</time>
      </trkpt>
      <trkpt lat="41.646918370" lon="2.510741760">
        <ele>211.50</ele>
        <time>2014-03-02T09:25:01Z</time>
      </trkpt>
      <trkpt lat="41.646915020" lon="2.510781820">
        <ele>211.80</ele>
        <time>2014-03-02T09:25:02Z</time>
      </trkpt>
      <trkpt lat="41.646911660" lon="2.510820040">
        <ele>212.00</ele>
        <time>2014-03-02T09:25:03Z</time>
      </trkpt>
      <trkpt lat="41.646908480" lon="2.510861790">
        <ele>212.10</ele>
        <time>2014-03-02T09:25:04Z</time>
      </trkpt>
      <trkpt lat="41.646905130" lon="2.510901680">
        <ele>212.20</ele>
        <time>2014-03-02T09:25:05Z</time>
      </trkpt>
      <trkpt lat="41.646901770" lon="2.510940070">
        <ele>212.20</ele>
        <time>2014-03-02T09:25:06Z</time>
      </trkpt>
      <trkpt lat="41.646896740" lon="2.510980140">
        <ele>212.20</ele>
        <time>2014-03-02T09:25:07Z</time>
      </trkpt>
      <trkpt lat="41.646893390" lon="2.511016680">
        <ele>212.30</ele>
        <time>2014-03-02T09:25:08Z</time>
      </trkpt>
      <trkpt lat="41.646890040" lon="2.511055070">
        <ele>212.30</ele>
        <time>2014-03-02T09:25:09Z</time>
      </trkpt>
      <trkpt lat="41.646885010" lon="2.511096820">
        <ele>212.20</ele>
        <time>2014-03-02T09:25:10Z</time>
      </trkpt>
      <trkpt lat="41.646880150" lon="2.511133360">
        <ele>212.00</ele>
        <time>2014-03-02T09:25:11Z</time>
      </trkpt>
      <trkpt lat="41.646878470" lon="2.511170070">
        <ele>211.90</ele>
        <time>2014-03-02T09:25:12Z</time>
      </trkpt>
      <trkpt lat="41.646875120" lon="2.511211810">
        <ele>212.40</ele>
        <time>2014-03-02T09:25:13Z</time>
      </trkpt>
      <trkpt lat="41.646870090" lon="2.511251710">
        <ele>212.70</ele>
        <time>2014-03-02T09:25:14Z</time>
      </trkpt>
      <trkpt lat="41.646866740" lon="2.511291780">
        <ele>212.70</ele>
        <time>2014-03-02T09:25:15Z</time>
      </trkpt>
      <trkpt lat="41.646861710" lon="2.511338380">
        <ele>212.60</ele>
        <time>2014-03-02T09:25:16Z</time>
      </trkpt>
      <trkpt lat="41.646856680" lon="2.511386830">
        <ele>212.60</ele>
        <time>2014-03-02T09:25:17Z</time>
      </trkpt>
      <trkpt lat="41.646851820" lon="2.511435110">
        <ele>212.50</ele>
        <time>2014-03-02T09:25:18Z</time>
      </trkpt>
      <trkpt lat="41.646845110" lon="2.511481710">
        <ele>212.50</ele>
        <time>2014-03-02T09:25:19Z</time>
      </trkpt>
      <trkpt lat="41.646840080" lon="2.511526810">
        <ele>212.20</ele>
        <time>2014-03-02T09:25:20Z</time>
      </trkpt>
      <trkpt lat="41.646835050" lon="2.511571730">
        <ele>212.00</ele>
        <time>2014-03-02T09:25:21Z</time>
      </trkpt>
      <trkpt lat="41.646831700" lon="2.511618340">
        <ele>212.40</ele>
        <time>2014-03-02T09:25:22Z</time>
      </trkpt>
      <trkpt lat="41.646826670" lon="2.511663430">
        <ele>212.70</ele>
        <time>2014-03-02T09:25:23Z</time>
      </trkpt>
      <trkpt lat="41.646825000" lon="2.511708360">
        <ele>212.90</ele>
        <time>2014-03-02T09:25:24Z</time>
      </trkpt>
      <trkpt lat="41.646821810" lon="2.511751780">
        <ele>212.90</ele>
        <time>2014-03-02T09:25:25Z</time>
      </trkpt>
      <trkpt lat="41.646818460" lon="2.511795030">
        <ele>213.00</ele>
        <time>2014-03-02T09:25:26Z</time>
      </trkpt>
      <trkpt lat="41.646815100" lon="2.511838450">
        <ele>213.20</ele>
        <time>2014-03-02T09:25:27Z</time>
      </trkpt>
      <trkpt lat="41.646811750" lon="2.511881700">
        <ele>213.30</ele>
        <time>2014-03-02T09:25:28Z</time>
      </trkpt>
      <trkpt lat="41.646810080" lon="2.511923440">
        <ele>213.50</ele>
        <time>2014-03-02T09:25:29Z</time>
      </trkpt>
      <trkpt lat="41.646810080" lon="2.511965010">
        <ele>213.60</ele>
        <time>2014-03-02T09:25:30Z</time>
      </trkpt>
      <trkpt lat="41.646811750" lon="2.512006750">
        <ele>213.70</ele>
        <time>2014-03-02T09:25:31Z</time>
      </trkpt>
      <trkpt lat="41.646815100" lon="2.512048330">
        <ele>213.40</ele>
        <time>2014-03-02T09:25:32Z</time>
      </trkpt>
      <trkpt lat="41.646818460" lon="2.512090070">
        <ele>213.20</ele>
        <time>2014-03-02T09:25:33Z</time>
      </trkpt>
      <trkpt lat="41.646821810" lon="2.512131810">
        <ele>212.90</ele>
        <time>2014-03-02T09:25:34Z</time>
      </trkpt>
      <trkpt lat="41.646825000" lon="2.512175060">
        <ele>212.70</ele>
        <time>2014-03-02T09:25:35Z</time>
      </trkpt>
      <trkpt lat="41.646828350" lon="2.512215130">
        <ele>212.90</ele>
        <time>2014-03-02T09:25:36Z</time>
      </trkpt>
      <trkpt lat="41.646833380" lon="2.512251670">
        <ele>213.00</ele>
        <time>2014-03-02T09:25:37Z</time>
      </trkpt>
      <trkpt lat="41.646838410" lon="2.512290060">
        <ele>213.10</ele>
        <time>2014-03-02T09:25:38Z</time>
      </trkpt>
      <trkpt lat="41.646845110" lon="2.512326780">
        <ele>213.40</ele>
        <time>2014-03-02T09:25:39Z</time>
      </trkpt>
      <trkpt lat="41.646848460" lon="2.512361810">
        <ele>213.60</ele>
        <time>2014-03-02T09:25:40Z</time>
      </trkpt>
      <trkpt lat="41.646853490" lon="2.512398360">
        <ele>213.50</ele>
        <time>2014-03-02T09:25:41Z</time>
      </trkpt>
      <trkpt lat="41.646856680" lon="2.512433390">
        <ele>213.50</ele>
        <time>2014-03-02T09:25:42Z</time>
      </trkpt>
      <trkpt lat="41.646861710" lon="2.512470110">
        <ele>213.40</ele>
        <time>2014-03-02T09:25:43Z</time>
      </trkpt>
      <trkpt lat="41.646865060" lon="2.512505140">
        <ele>213.50</ele>
        <time>2014-03-02T09:25:44Z</time>
      </trkpt>
      <trkpt lat="41.646870090" lon="2.512541690">
        <ele>213.50</ele>
        <time>2014-03-02T09:25:45Z</time>
      </trkpt>
      <trkpt lat="41.646873440" lon="2.512578400">
        <ele>213.80</ele>
        <time>2014-03-02T09:25:46Z</time>
      </trkpt>
      <trkpt lat="41.646876800" lon="2.512615110">
        <ele>214.00</ele>
        <time>2014-03-02T09:25:47Z</time>
      </trkpt>
      <trkpt lat="41.646880150" lon="2.512651830">
        <ele>214.40</ele>
        <time>2014-03-02T09:25:48Z</time>
      </trkpt>
      <trkpt lat="41.646883330" lon="2.512686690">
        <ele>214.60</ele>
        <time>2014-03-02T09:25:49Z</time>
      </trkpt>
      <trkpt lat="41.646886690" lon="2.512720050">
        <ele>214.90</ele>
        <time>2014-03-02T09:25:50Z</time>
      </trkpt>
      <trkpt lat="41.646890040" lon="2.512755090">
        <ele>215.10</ele>
        <time>2014-03-02T09:25:51Z</time>
      </trkpt>
      <trkpt lat="41.646893390" lon="2.512788450">
        <ele>215.20</ele>
        <time>2014-03-02T09:25:52Z</time>
      </trkpt>
      <trkpt lat="41.646898420" lon="2.512825000">
        <ele>215.60</ele>
        <time>2014-03-02T09:25:53Z</time>
      </trkpt>
      <trkpt lat="41.646903450" lon="2.512858360">
        <ele>215.90</ele>
        <time>2014-03-02T09:25:54Z</time>
      </trkpt>
      <trkpt lat="41.646905130" lon="2.512893390">
        <ele>216.10</ele>
        <time>2014-03-02T09:25:55Z</time>
      </trkpt>
      <trkpt lat="41.646905130" lon="2.512925080">
        <ele>216.40</ele>
        <time>2014-03-02T09:25:56Z</time>
      </trkpt>
      <trkpt lat="41.646908480" lon="2.512956760">
        <ele>216.60</ele>
        <time>2014-03-02T09:25:57Z</time>
      </trkpt>
      <trkpt lat="41.646910160" lon="2.512986770">
        <ele>216.40</ele>
        <time>2014-03-02T09:25:58Z</time>
      </trkpt>
      <trkpt lat="41.646911660" lon="2.513018450">
        <ele>216.30</ele>
        <time>2014-03-02T09:25:59Z</time>
      </trkpt>
      <trkpt lat="41.646916690" lon="2.513050130">
        <ele>216.60</ele>
        <time>2014-03-02T09:26:00Z</time>
      </trkpt>
      <trkpt lat="41.646918370" lon="2.513078460">
        <ele>216.80</ele>
        <time>2014-03-02T09:26:01Z</time>
      </trkpt>
      <trkpt lat="41.646920050" lon="2.513101770">
        <ele>217.00</ele>
        <time>2014-03-02T09:26:02Z</time>
      </trkpt>
      <trkpt lat="41.646925080" lon="2.513128420">
        <ele>217.30</ele>
        <time>2014-03-02T09:26:03Z</time>
      </trkpt>
      <trkpt lat="41.646925080" lon="2.513156750">
        <ele>217.40</ele>
        <time>2014-03-02T09:26:04Z</time>
      </trkpt>
      <trkpt lat="41.646926750" lon="2.513186760">
        <ele>217.60</ele>
        <time>2014-03-02T09:26:05Z</time>
      </trkpt>
      <trkpt lat="41.646930100" lon="2.513215090">
        <ele>217.70</ele>
        <time>2014-03-02T09:26:06Z</time>
      </trkpt>
      <trkpt lat="41.646931780" lon="2.513241740">
        <ele>218.30</ele>
        <time>2014-03-02T09:26:07Z</time>
      </trkpt>
      <trkpt lat="41.646931780" lon="2.513270080">
        <ele>218.80</ele>
        <time>2014-03-02T09:26:08Z</time>
      </trkpt>
      <trkpt lat="41.646931780" lon="2.513300080">
        <ele>219.10</ele>
        <time>2014-03-02T09:26:09Z</time>
      </trkpt>
      <trkpt lat="41.646930100" lon="2.513333440">
        <ele>219.30</ele>
        <time>2014-03-02T09:26:10Z</time>
      </trkpt>
      <trkpt lat="41.646930100" lon="2.513368480">
        <ele>219.40</ele>
        <time>2014-03-02T09:26:11Z</time>
      </trkpt>
      <trkpt lat="41.646931780" lon="2.513398490">
        <ele>219.60</ele>
        <time>2014-03-02T09:26:12Z</time>
      </trkpt>
      <trkpt lat="41.646930100" lon="2.513426820">
        <ele>219.70</ele>
        <time>2014-03-02T09:26:13Z</time>
      </trkpt>
      <trkpt lat="41.646930100" lon="2.513453470">
        <ele>219.80</ele>
        <time>2014-03-02T09:26:14Z</time>
      </trkpt>
      <trkpt lat="41.646930100" lon="2.513480130">
        <ele>220.00</ele>
        <time>2014-03-02T09:26:15Z</time>
      </trkpt>
      <trkpt lat="41.646931780" lon="2.513513490">
        <ele>220.00</ele>
        <time>2014-03-02T09:26:16Z</time>
      </trkpt>
      <trkpt lat="41.646933460" lon="2.513546680">
        <ele>220.20</ele>
        <time>2014-03-02T09:26:17Z</time>
      </trkpt>
      <trkpt lat="41.646933460" lon="2.513580040">
        <ele>220.30</ele>
        <time>2014-03-02T09:26:18Z</time>
      </trkpt>
      <trkpt lat="41.646931780" lon="2.513616750">
        <ele>220.10</ele>
        <time>2014-03-02T09:26:19Z</time>
      </trkpt>
      <trkpt lat="41.646931780" lon="2.513653460">
        <ele>219.90</ele>
        <time>2014-03-02T09:26:20Z</time>
      </trkpt>
      <trkpt lat="41.646931780" lon="2.513690010">
        <ele>219.70</ele>
        <time>2014-03-02T09:26:21Z</time>
      </trkpt>
      <trkpt lat="41.646928430" lon="2.513726720">
        <ele>219.90</ele>
        <time>2014-03-02T09:26:22Z</time>
      </trkpt>
      <trkpt lat="41.646921720" lon="2.513761760">
        <ele>220.10</ele>
        <time>2014-03-02T09:26:23Z</time>
      </trkpt>
      <trkpt lat="41.646918370" lon="2.513798470">
        <ele>220.20</ele>
        <time>2014-03-02T09:26:24Z</time>
      </trkpt>
      <trkpt lat="41.646913340" lon="2.513836690">
        <ele>220.30</ele>
        <time>2014-03-02T09:26:25Z</time>
      </trkpt>
      <trkpt lat="41.646911660" lon="2.513873400">
        <ele>220.30</ele>
        <time>2014-03-02T09:26:26Z</time>
      </trkpt>
      <trkpt lat="41.646911660" lon="2.513905090">
        <ele>220.40</ele>
        <time>2014-03-02T09:26:27Z</time>
      </trkpt>
      <trkpt lat="41.646910160" lon="2.513938450">
        <ele>220.40</ele>
        <time>2014-03-02T09:26:28Z</time>
      </trkpt>
      <trkpt lat="41.646905130" lon="2.513971810">
        <ele>220.30</ele>
        <time>2014-03-02T09:26:29Z</time>
      </trkpt>
      <trkpt lat="41.646901770" lon="2.514001820">
        <ele>220.30</ele>
        <time>2014-03-02T09:26:30Z</time>
      </trkpt>
      <trkpt lat="41.646898420" lon="2.514033330">
        <ele>220.70</ele>
        <time>2014-03-02T09:26:31Z</time>
      </trkpt>
      <trkpt lat="41.646895070" lon="2.514066690">
        <ele>221.00</ele>
        <time>2014-03-02T09:26:32Z</time>
      </trkpt>
      <trkpt lat="41.646891720" lon="2.514100050">
        <ele>221.20</ele>
        <time>2014-03-02T09:26:33Z</time>
      </trkpt>
      <trkpt lat="41.646890040" lon="2.514130060">
        <ele>221.00</ele>
        <time>2014-03-02T09:26:34Z</time>
      </trkpt>
      <trkpt lat="41.646886690" lon="2.514163420">
        <ele>220.80</ele>
        <time>2014-03-02T09:26:35Z</time>
      </trkpt>
      <trkpt lat="41.646885010" lon="2.514193430">
        <ele>220.80</ele>
        <time>2014-03-02T09:26:36Z</time>
      </trkpt>
      <trkpt lat="41.646880150" lon="2.514216730">
        <ele>220.80</ele>
        <time>2014-03-02T09:26:37Z</time>
      </trkpt>
      <trkpt lat="41.646876800" lon="2.514231810">
        <ele>220.40</ele>
        <time>2014-03-02T09:26:38Z</time>
      </trkpt>
      <trkpt lat="41.646873440" lon="2.514243380">
        <ele>220.20</ele>
        <time>2014-03-02T09:26:39Z</time>
      </trkpt>
      <trkpt lat="41.646871770" lon="2.514255120">
        <ele>220.00</ele>
        <time>2014-03-02T09:26:40Z</time>
      </trkpt>
      <trkpt lat="41.646873440" lon="2.514265010">
        <ele>220.30</ele>
        <time>2014-03-02T09:26:41Z</time>
      </trkpt>
      <trkpt lat="41.646876800" lon="2.514281770">
        <ele>220.60</ele>
        <time>2014-03-02T09:26:42Z</time>
      </trkpt>
      <trkpt lat="41.646878470" lon="2.514296690">
        <ele>220.60</ele>
        <time>2014-03-02T09:26:43Z</time>
      </trkpt>
      <trkpt lat="41.646878470" lon="2.514303400">
        <ele>220.70</ele>
        <time>2014-03-02T09:26:44Z</time>
      </trkpt>
      <trkpt lat="41.646880150" lon="2.514308430">
        <ele>220.20</ele>
        <time>2014-03-02T09:26:45Z</time>
      </trkpt>
      <trkpt lat="41.646880150" lon="2.514313450">
        <ele>219.90</ele>
        <time>2014-03-02T09:26:46Z</time>
      </trkpt>
      <trkpt lat="41.646881820" lon="2.514323350">
        <ele>219.60</ele>
        <time>2014-03-02T09:26:47Z</time>
      </trkpt>
      <trkpt lat="41.646883330" lon="2.514338430">
        <ele>219.80</ele>
        <time>2014-03-02T09:26:48Z</time>
      </trkpt>
      <trkpt lat="41.646886690" lon="2.514356710">
        <ele>220.00</ele>
        <time>2014-03-02T09:26:49Z</time>
      </trkpt>
      <trkpt lat="41.646891720" lon="2.514375150">
        <ele>219.90</ele>
        <time>2014-03-02T09:26:50Z</time>
      </trkpt>
      <trkpt lat="41.646898420" lon="2.514395090">
        <ele>219.90</ele>
        <time>2014-03-02T09:26:51Z</time>
      </trkpt>
      <trkpt lat="41.646910160" lon="2.514415040">
        <ele>219.80</ele>
        <time>2014-03-02T09:26:52Z</time>
      </trkpt>
      <trkpt lat="41.646921720" lon="2.514436670">
        <ele>219.70</ele>
        <time>2014-03-02T09:26:53Z</time>
      </trkpt>
      <trkpt lat="41.646935130" lon="2.514460140">
        <ele>219.70</ele>
        <time>2014-03-02T09:26:54Z</time>
      </trkpt>
      <trkpt lat="41.646948380" lon="2.514486790">
        <ele>219.60</ele>
        <time>2014-03-02T09:26:55Z</time>
      </trkpt>
      <trkpt lat="41.646958440" lon="2.514511770">
        <ele>219.50</ele>
        <time>2014-03-02T09:26:56Z</time>
      </trkpt>
      <trkpt lat="41.646968490" lon="2.514536750">
        <ele>219.60</ele>
        <time>2014-03-02T09:26:57Z</time>
      </trkpt>
      <trkpt lat="41.646978380" lon="2.514560050">
        <ele>219.60</ele>
        <time>2014-03-02T09:26:58Z</time>
      </trkpt>
      <trkpt lat="41.646990120" lon="2.514588380">
        <ele>219.60</ele>
        <time>2014-03-02T09:26:59Z</time>
      </trkpt>
      <trkpt lat="41.647005040" lon="2.514616710">
        <ele>219.40</ele>
        <time>2014-03-02T09:27:00Z</time>
      </trkpt>
      <trkpt lat="41.647015100" lon="2.514648400">
        <ele>219.20</ele>
        <time>2014-03-02T09:27:01Z</time>
      </trkpt>
      <trkpt lat="41.647028340" lon="2.514685110">
        <ele>218.90</ele>
        <time>2014-03-02T09:27:02Z</time>
      </trkpt>
      <trkpt lat="41.647041750" lon="2.514725010">
        <ele>218.70</ele>
        <time>2014-03-02T09:27:03Z</time>
      </trkpt>
      <trkpt lat="41.647051810" lon="2.514763390">
        <ele>218.80</ele>
        <time>2014-03-02T09:27:04Z</time>
      </trkpt>
      <trkpt lat="41.647066730" lon="2.514800110">
        <ele>218.80</ele>
        <time>2014-03-02T09:27:05Z</time>
      </trkpt>
      <trkpt lat="41.647080140" lon="2.514836820">
        <ele>218.90</ele>
        <time>2014-03-02T09:27:06Z</time>
      </trkpt>
      <trkpt lat="41.647093380" lon="2.514875040">
        <ele>218.70</ele>
        <time>2014-03-02T09:27:07Z</time>
      </trkpt>
      <trkpt lat="41.647103440" lon="2.514911750">
        <ele>218.60</ele>
        <time>2014-03-02T09:27:08Z</time>
      </trkpt>
      <trkpt lat="41.647115010" lon="2.514948470">
        <ele>218.40</ele>
        <time>2014-03-02T09:27:09Z</time>
      </trkpt>
      <trkpt lat="41.647123390" lon="2.514983340">
        <ele>218.20</ele>
        <time>2014-03-02T09:27:10Z</time>
      </trkpt>
      <trkpt lat="41.647136800" lon="2.515013340">
        <ele>218.20</ele>
        <time>2014-03-02T09:27:11Z</time>
      </trkpt>
      <trkpt lat="41.647150050" lon="2.515045030">
        <ele>218.30</ele>
        <time>2014-03-02T09:27:12Z</time>
      </trkpt>
      <trkpt lat="41.647161780" lon="2.515078390">
        <ele>218.30</ele>
        <time>2014-03-02T09:27:13Z</time>
      </trkpt>
      <trkpt lat="41.647175020" lon="2.515120130">
        <ele>218.50</ele>
        <time>2014-03-02T09:27:14Z</time>
      </trkpt>
      <trkpt lat="41.647186760" lon="2.515160030">
        <ele>218.70</ele>
        <time>2014-03-02T09:27:15Z</time>
      </trkpt>
      <trkpt lat="41.647200000" lon="2.515201770">
        <ele>218.70</ele>
        <time>2014-03-02T09:27:16Z</time>
      </trkpt>
      <trkpt lat="41.647210060" lon="2.515241670">
        <ele>218.80</ele>
        <time>2014-03-02T09:27:17Z</time>
      </trkpt>
      <trkpt lat="41.647223470" lon="2.515280060">
        <ele>218.80</ele>
        <time>2014-03-02T09:27:18Z</time>
      </trkpt>
      <trkpt lat="41.647235040" lon="2.515320120">
        <ele>218.60</ele>
        <time>2014-03-02T09:27:19Z</time>
      </trkpt>
      <trkpt lat="41.647246770" lon="2.515355160">
        <ele>218.50</ele>
        <time>2014-03-02T09:27:20Z</time>
      </trkpt>
      <trkpt lat="41.647258340" lon="2.515393380">
        <ele>218.60</ele>
        <time>2014-03-02T09:27:21Z</time>
      </trkpt>
      <trkpt lat="41.647270070" lon="2.515428420">
        <ele>218.70</ele>
        <time>2014-03-02T09:27:22Z</time>
      </trkpt>
      <trkpt lat="41.647275100" lon="2.515455070">
        <ele>218.60</ele>
        <time>2014-03-02T09:27:23Z</time>
      </trkpt>
      <trkpt lat="41.647278460" lon="2.515485080">
        <ele>218.60</ele>
        <time>2014-03-02T09:27:24Z</time>
      </trkpt>
      <trkpt lat="41.647278460" lon="2.515518440">
        <ele>218.60</ele>
        <time>2014-03-02T09:27:25Z</time>
      </trkpt>
      <trkpt lat="41.647276780" lon="2.515553470">
        <ele>218.40</ele>
        <time>2014-03-02T09:27:26Z</time>
      </trkpt>
      <trkpt lat="41.647276780" lon="2.515590020">
        <ele>218.20</ele>
        <time>2014-03-02T09:27:27Z</time>
      </trkpt>
      <trkpt lat="41.647273430" lon="2.515626730">
        <ele>218.40</ele>
        <time>2014-03-02T09:27:28Z</time>
      </trkpt>
      <trkpt lat="41.647268400" lon="2.515663440">
        <ele>218.50</ele>
        <time>2014-03-02T09:27:29Z</time>
      </trkpt>
      <trkpt lat="41.647268400" lon="2.515706690">
        <ele>218.80</ele>
        <time>2014-03-02T09:27:30Z</time>
      </trkpt>
      <trkpt lat="41.647270070" lon="2.515746760">
        <ele>219.00</ele>
        <time>2014-03-02T09:27:31Z</time>
      </trkpt>
      <trkpt lat="41.647271750" lon="2.515785150">
        <ele>219.20</ele>
        <time>2014-03-02T09:27:32Z</time>
      </trkpt>
      <trkpt lat="41.647275100" lon="2.515821690">
        <ele>219.10</ele>
        <time>2014-03-02T09:27:33Z</time>
      </trkpt>
      <trkpt lat="41.647278460" lon="2.515853380">
        <ele>219.10</ele>
        <time>2014-03-02T09:27:34Z</time>
      </trkpt>
      <trkpt lat="41.647285160" lon="2.515888410">
        <ele>219.00</ele>
        <time>2014-03-02T09:27:35Z</time>
      </trkpt>
      <trkpt lat="41.647288350" lon="2.515926800">
        <ele>219.00</ele>
        <time>2014-03-02T09:27:36Z</time>
      </trkpt>
      <trkpt lat="41.647290020" lon="2.515968380">
        <ele>219.00</ele>
        <time>2014-03-02T09:27:37Z</time>
      </trkpt>
      <trkpt lat="41.647291700" lon="2.516010120">
        <ele>219.10</ele>
        <time>2014-03-02T09:27:38Z</time>
      </trkpt>
      <trkpt lat="41.647295050" lon="2.516046660">
        <ele>219.10</ele>
        <time>2014-03-02T09:27:39Z</time>
      </trkpt>
      <trkpt lat="41.647300080" lon="2.516085050">
        <ele>219.10</ele>
        <time>2014-03-02T09:27:40Z</time>
      </trkpt>
      <trkpt lat="41.647303430" lon="2.516125120">
        <ele>219.10</ele>
        <time>2014-03-02T09:27:41Z</time>
      </trkpt>
      <trkpt lat="41.647306790" lon="2.516166690">
        <ele>219.60</ele>
        <time>2014-03-02T09:27:42Z</time>
      </trkpt>
      <trkpt lat="41.647308460" lon="2.516208440">
        <ele>220.00</ele>
        <time>2014-03-02T09:27:43Z</time>
      </trkpt>
      <trkpt lat="41.647313490" lon="2.516246820">
        <ele>220.30</ele>
        <time>2014-03-02T09:27:44Z</time>
      </trkpt>
      <trkpt lat="41.647315000" lon="2.516286720">
        <ele>220.50</ele>
        <time>2014-03-02T09:27:45Z</time>
      </trkpt>
      <trkpt lat="41.647316680" lon="2.516321760">
        <ele>220.70</ele>
        <time>2014-03-02T09:27:46Z</time>
      </trkpt>
      <trkpt lat="41.647320030" lon="2.516358470">
        <ele>220.50</ele>
        <time>2014-03-02T09:27:47Z</time>
      </trkpt>
      <trkpt lat="41.647323380" lon="2.516396690">
        <ele>220.40</ele>
        <time>2014-03-02T09:27:48Z</time>
      </trkpt>
      <trkpt lat="41.647328410" lon="2.516433410">
        <ele>220.40</ele>
        <time>2014-03-02T09:27:49Z</time>
      </trkpt>
      <trkpt lat="41.647333440" lon="2.516468440">
        <ele>220.50</ele>
        <time>2014-03-02T09:27:50Z</time>
      </trkpt>
      <trkpt lat="41.647338470" lon="2.516503480">
        <ele>220.50</ele>
        <time>2014-03-02T09:27:51Z</time>
      </trkpt>
      <trkpt lat="41.647341820" lon="2.516538350">
        <ele>220.50</ele>
        <time>2014-03-02T09:27:52Z</time>
      </trkpt>
      <trkpt lat="41.647341820" lon="2.516571710">
        <ele>220.60</ele>
        <time>2014-03-02T09:27:53Z</time>
      </trkpt>
      <trkpt lat="41.647345010" lon="2.516605070">
        <ele>220.30</ele>
        <time>2014-03-02T09:27:54Z</time>
      </trkpt>
      <trkpt lat="41.647346690" lon="2.516638430">
        <ele>220.10</ele>
        <time>2014-03-02T09:27:55Z</time>
      </trkpt>
      <trkpt lat="41.647348360" lon="2.516666760">
        <ele>219.90</ele>
        <time>2014-03-02T09:27:56Z</time>
      </trkpt>
      <trkpt lat="41.647353390" lon="2.516698440">
        <ele>220.30</ele>
        <time>2014-03-02T09:27:57Z</time>
      </trkpt>
      <trkpt lat="41.647358420" lon="2.516730120">
        <ele>220.50</ele>
        <time>2014-03-02T09:27:58Z</time>
      </trkpt>
      <trkpt lat="41.647361770" lon="2.516758460">
        <ele>220.60</ele>
        <time>2014-03-02T09:27:59Z</time>
      </trkpt>
      <trkpt lat="41.647361770" lon="2.516786790">
        <ele>220.70</ele>
        <time>2014-03-02T09:28:00Z</time>
      </trkpt>
      <trkpt lat="41.647361770" lon="2.516820150">
        <ele>220.60</ele>
        <time>2014-03-02T09:28:01Z</time>
      </trkpt>
      <trkpt lat="41.647360100" lon="2.516858370">
        <ele>220.50</ele>
        <time>2014-03-02T09:28:02Z</time>
      </trkpt>
      <trkpt lat="41.647356740" lon="2.516888380">
        <ele>220.50</ele>
        <time>2014-03-02T09:28:03Z</time>
      </trkpt>
      <trkpt lat="41.647353390" lon="2.516918380">
        <ele>220.40</ele>
        <time>2014-03-02T09:28:04Z</time>
      </trkpt>
      <trkpt lat="41.647350040" lon="2.516951740">
        <ele>220.40</ele>
        <time>2014-03-02T09:28:05Z</time>
      </trkpt>
      <trkpt lat="41.647340150" lon="2.516986780">
        <ele>220.50</ele>
        <time>2014-03-02T09:28:06Z</time>
      </trkpt>
      <trkpt lat="41.647326740" lon="2.517015110">
        <ele>220.50</ele>
        <time>2014-03-02T09:28:07Z</time>
      </trkpt>
      <trkpt lat="41.647311820" lon="2.517030030">
        <ele>220.40</ele>
        <time>2014-03-02T09:28:08Z</time>
      </trkpt>
      <trkpt lat="41.647295050" lon="2.517041760">
        <ele>220.30</ele>
        <time>2014-03-02T09:28:09Z</time>
      </trkpt>
      <trkpt lat="41.647281810" lon="2.517056680">
        <ele>220.20</ele>
        <time>2014-03-02T09:28:10Z</time>
      </trkpt>
      <trkpt lat="41.647268400" lon="2.517078480">
        <ele>220.20</ele>
        <time>2014-03-02T09:28:11Z</time>
      </trkpt>
      <trkpt lat="41.647260020" lon="2.517101780">
        <ele>220.10</ele>
        <time>2014-03-02T09:28:12Z</time>
      </trkpt>
      <trkpt lat="41.647260020" lon="2.517123400">
        <ele>220.20</ele>
        <time>2014-03-02T09:28:13Z</time>
      </trkpt>
      <trkpt lat="41.647260020" lon="2.517145030">
        <ele>220.20</ele>
        <time>2014-03-02T09:28:14Z</time>
      </trkpt>
      <trkpt lat="41.647260020" lon="2.517175040">
        <ele>220.20</ele>
        <time>2014-03-02T09:28:15Z</time>
      </trkpt>
      <trkpt lat="41.647261690" lon="2.517206720">
        <ele>220.90</ele>
        <time>2014-03-02T09:28:16Z</time>
      </trkpt>
      <trkpt lat="41.647263370" lon="2.517241760">
        <ele>221.40</ele>
        <time>2014-03-02T09:28:17Z</time>
      </trkpt>
      <trkpt lat="41.647266720" lon="2.517270090">
        <ele>221.50</ele>
        <time>2014-03-02T09:28:18Z</time>
      </trkpt>
      <trkpt lat="41.647270070" lon="2.517298420">
        <ele>221.60</ele>
        <time>2014-03-02T09:28:19Z</time>
      </trkpt>
      <trkpt lat="41.647275100" lon="2.517328420">
        <ele>221.50</ele>
        <time>2014-03-02T09:28:20Z</time>
      </trkpt>
      <trkpt lat="41.647278460" lon="2.517360110">
        <ele>221.40</ele>
        <time>2014-03-02T09:28:21Z</time>
      </trkpt>
      <trkpt lat="41.647278460" lon="2.517391790">
        <ele>221.40</ele>
        <time>2014-03-02T09:28:22Z</time>
      </trkpt>
      <trkpt lat="41.647281810" lon="2.517421800">
        <ele>221.60</ele>
        <time>2014-03-02T09:28:23Z</time>
      </trkpt>
      <trkpt lat="41.647281810" lon="2.517451810">
        <ele>221.70</ele>
        <time>2014-03-02T09:28:24Z</time>
      </trkpt>
      <trkpt lat="41.647278460" lon="2.517483490">
        <ele>221.80</ele>
        <time>2014-03-02T09:28:25Z</time>
      </trkpt>
      <trkpt lat="41.647276780" lon="2.517523390">
        <ele>221.90</ele>
        <time>2014-03-02T09:28:26Z</time>
      </trkpt>
      <trkpt lat="41.647273430" lon="2.517560100">
        <ele>222.30</ele>
        <time>2014-03-02T09:28:27Z</time>
      </trkpt>
      <trkpt lat="41.647266720" lon="2.517598490">
        <ele>222.60</ele>
        <time>2014-03-02T09:28:28Z</time>
      </trkpt>
      <trkpt lat="41.647261690" lon="2.517638390">
        <ele>222.80</ele>
        <time>2014-03-02T09:28:29Z</time>
      </trkpt>
      <trkpt lat="41.647256660" lon="2.517685160">
        <ele>222.50</ele>
        <time>2014-03-02T09:28:30Z</time>
      </trkpt>
      <trkpt lat="41.647251800" lon="2.517728410">
        <ele>222.30</ele>
        <time>2014-03-02T09:28:31Z</time>
      </trkpt>
      <trkpt lat="41.647248450" lon="2.517768470">
        <ele>222.30</ele>
        <time>2014-03-02T09:28:32Z</time>
      </trkpt>
      <trkpt lat="41.647246770" lon="2.517810050">
        <ele>222.20</ele>
        <time>2014-03-02T09:28:33Z</time>
      </trkpt>
      <trkpt lat="41.647241740" lon="2.517851790">
        <ele>222.20</ele>
        <time>2014-03-02T09:28:34Z</time>
      </trkpt>
      <trkpt lat="41.647238390" lon="2.517883470">
        <ele>222.40</ele>
        <time>2014-03-02T09:28:35Z</time>
      </trkpt>
      <trkpt lat="41.647235040" lon="2.517911810">
        <ele>222.60</ele>
        <time>2014-03-02T09:28:36Z</time>
      </trkpt>
      <trkpt lat="41.647228330" lon="2.517941810">
        <ele>222.60</ele>
        <time>2014-03-02T09:28:37Z</time>
      </trkpt>
      <trkpt lat="41.647221790" lon="2.517976680">
        <ele>222.70</ele>
        <time>2014-03-02T09:28:38Z</time>
      </trkpt>
      <trkpt lat="41.647211740" lon="2.518016750">
        <ele>223.00</ele>
        <time>2014-03-02T09:28:39Z</time>
      </trkpt>
      <trkpt lat="41.647201680" lon="2.518053460">
        <ele>223.20</ele>
        <time>2014-03-02T09:28:40Z</time>
      </trkpt>
      <trkpt lat="41.647190110" lon="2.518091680">
        <ele>223.40</ele>
        <time>2014-03-02T09:28:41Z</time>
      </trkpt>
      <trkpt lat="41.647180050" lon="2.518126720">
        <ele>223.10</ele>
        <time>2014-03-02T09:28:42Z</time>
      </trkpt>
      <trkpt lat="41.647170160" lon="2.518163430">
        <ele>222.90</ele>
        <time>2014-03-02T09:28:43Z</time>
      </trkpt>
      <trkpt lat="41.647158430" lon="2.518195110">
        <ele>223.20</ele>
        <time>2014-03-02T09:28:44Z</time>
      </trkpt>
      <trkpt lat="41.647146690" lon="2.518226800">
        <ele>223.50</ele>
        <time>2014-03-02T09:28:45Z</time>
      </trkpt>
      <trkpt lat="41.647133450" lon="2.518256800">
        <ele>223.60</ele>
        <time>2014-03-02T09:28:46Z</time>
      </trkpt>
      <trkpt lat="41.647120040" lon="2.518288490">
        <ele>223.60</ele>
        <time>2014-03-02T09:28:47Z</time>
      </trkpt>
      <trkpt lat="41.647106800" lon="2.518320000">
        <ele>223.70</ele>
        <time>2014-03-02T09:28:48Z</time>
      </trkpt>
      <trkpt lat="41.647095060" lon="2.518350010">
        <ele>223.90</ele>
        <time>2014-03-02T09:28:49Z</time>
      </trkpt>
      <trkpt lat="41.647083490" lon="2.518381690">
        <ele>224.00</ele>
        <time>2014-03-02T09:28:50Z</time>
      </trkpt>
      <trkpt lat="41.647071760" lon="2.518411700">
        <ele>223.90</ele>
        <time>2014-03-02T09:28:51Z</time>
      </trkpt>
      <trkpt lat="41.647060020" lon="2.518443390">
        <ele>223.80</ele>
        <time>2014-03-02T09:28:52Z</time>
      </trkpt>
      <trkpt lat="41.647048460" lon="2.518473390">
        <ele>224.40</ele>
        <time>2014-03-02T09:28:53Z</time>
      </trkpt>
      <trkpt lat="41.647036720" lon="2.518503400">
        <ele>224.80</ele>
        <time>2014-03-02T09:28:54Z</time>
      </trkpt>
      <trkpt lat="41.647025160" lon="2.518535080">
        <ele>225.10</ele>
        <time>2014-03-02T09:28:55Z</time>
      </trkpt>
      <trkpt lat="41.647013420" lon="2.518570120">
        <ele>224.90</ele>
        <time>2014-03-02T09:28:56Z</time>
      </trkpt>
      <trkpt lat="41.647003360" lon="2.518605160">
        <ele>224.70</ele>
        <time>2014-03-02T09:28:57Z</time>
      </trkpt>
      <trkpt lat="41.646996820" lon="2.518643380">
        <ele>224.80</ele>
        <time>2014-03-02T09:28:58Z</time>
      </trkpt>
      <trkpt lat="41.646988440" lon="2.518680090">
        <ele>224.90</ele>
        <time>2014-03-02T09:28:59Z</time>
      </trkpt>
      <trkpt lat="41.646981740" lon="2.518715130">
        <ele>225.00</ele>
        <time>2014-03-02T09:29:00Z</time>
      </trkpt>
      <trkpt lat="41.646978380" lon="2.518751670">
        <ele>225.20</ele>
        <time>2014-03-02T09:29:01Z</time>
      </trkpt>
      <trkpt lat="41.646976710" lon="2.518790060">
        <ele>225.40</ele>
        <time>2014-03-02T09:29:02Z</time>
      </trkpt>
      <trkpt lat="41.646975030" lon="2.518828450">
        <ele>225.30</ele>
        <time>2014-03-02T09:29:03Z</time>
      </trkpt>
      <trkpt lat="41.646971680" lon="2.518868350">
        <ele>225.30</ele>
        <time>2014-03-02T09:29:04Z</time>
      </trkpt>
      <trkpt lat="41.646973360" lon="2.518906740">
        <ele>225.80</ele>
        <time>2014-03-02T09:29:05Z</time>
      </trkpt>
      <trkpt lat="41.646975030" lon="2.518946800">
        <ele>226.20</ele>
        <time>2014-03-02T09:29:06Z</time>
      </trkpt>
      <trkpt lat="41.646981740" lon="2.518980000">
        <ele>226.50</ele>
        <time>2014-03-02T09:29:07Z</time>
      </trkpt>
      <trkpt lat="41.646988440" lon="2.519018380">
        <ele>226.50</ele>
        <time>2014-03-02T09:29:08Z</time>
      </trkpt>
      <trkpt lat="41.646995150" lon="2.519056770">
        <ele>226.50</ele>
        <time>2014-03-02T09:29:09Z</time>
      </trkpt>
      <trkpt lat="41.647001690" lon="2.519090130">
        <ele>226.50</ele>
        <time>2014-03-02T09:29:10Z</time>
      </trkpt>
      <trkpt lat="41.647008390" lon="2.519128350">
        <ele>226.50</ele>
        <time>2014-03-02T09:29:11Z</time>
      </trkpt>
      <trkpt lat="41.647011740" lon="2.519163390">
        <ele>226.90</ele>
        <time>2014-03-02T09:29:12Z</time>
      </trkpt>
      <trkpt lat="41.647015100" lon="2.519201780">
        <ele>227.20</ele>
        <time>2014-03-02T09:29:13Z</time>
      </trkpt>
      <trkpt lat="41.647018450" lon="2.519236820">
        <ele>227.40</ele>
        <time>2014-03-02T09:29:14Z</time>
      </trkpt>
      <trkpt lat="41.647021800" lon="2.519268330">
        <ele>227.40</ele>
        <time>2014-03-02T09:29:15Z</time>
      </trkpt>
      <trkpt lat="41.647023480" lon="2.519306720">
        <ele>227.40</ele>
        <time>2014-03-02T09:29:16Z</time>
      </trkpt>
      <trkpt lat="41.647025160" lon="2.519346790">
        <ele>227.40</ele>
        <time>2014-03-02T09:29:17Z</time>
      </trkpt>
      <trkpt lat="41.647023480" lon="2.519381820">
        <ele>227.40</ele>
        <time>2014-03-02T09:29:18Z</time>
      </trkpt>
      <trkpt lat="41.647023480" lon="2.519415020">
        <ele>227.40</ele>
        <time>2014-03-02T09:29:19Z</time>
      </trkpt>
      <trkpt lat="41.647021800" lon="2.519450050">
        <ele>227.80</ele>
        <time>2014-03-02T09:29:20Z</time>
      </trkpt>
      <trkpt lat="41.647020130" lon="2.519486770">
        <ele>228.10</ele>
        <time>2014-03-02T09:29:21Z</time>
      </trkpt>
      <trkpt lat="41.647021800" lon="2.519525150">
        <ele>228.40</ele>
        <time>2014-03-02T09:29:22Z</time>
      </trkpt>
      <trkpt lat="41.647020130" lon="2.519563380">
        <ele>228.60</ele>
        <time>2014-03-02T09:29:23Z</time>
      </trkpt>
      <trkpt lat="41.647016770" lon="2.519601760">
        <ele>228.50</ele>
        <time>2014-03-02T09:29:24Z</time>
      </trkpt>
      <trkpt lat="41.647013420" lon="2.519636800">
        <ele>228.40</ele>
        <time>2014-03-02T09:29:25Z</time>
      </trkpt>
      <trkpt lat="41.647010070" lon="2.519673350">
        <ele>228.30</ele>
        <time>2014-03-02T09:29:26Z</time>
      </trkpt>
      <trkpt lat="41.647005040" lon="2.519708380">
        <ele>228.70</ele>
        <time>2014-03-02T09:29:27Z</time>
      </trkpt>
      <trkpt lat="41.646998330" lon="2.519743420">
        <ele>228.90</ele>
        <time>2014-03-02T09:29:28Z</time>
      </trkpt>
      <trkpt lat="41.646991800" lon="2.519780130">
        <ele>229.00</ele>
        <time>2014-03-02T09:29:29Z</time>
      </trkpt>
      <trkpt lat="41.646985090" lon="2.519815000">
        <ele>229.00</ele>
        <time>2014-03-02T09:29:30Z</time>
      </trkpt>
      <trkpt lat="41.646976710" lon="2.519851710">
        <ele>229.30</ele>
        <time>2014-03-02T09:29:31Z</time>
      </trkpt>
      <trkpt lat="41.646971680" lon="2.519886750">
        <ele>229.50</ele>
        <time>2014-03-02T09:29:32Z</time>
      </trkpt>
      <trkpt lat="41.646966820" lon="2.519921790">
        <ele>229.70</ele>
        <time>2014-03-02T09:29:33Z</time>
      </trkpt>
      <trkpt lat="41.646958440" lon="2.519953470">
        <ele>229.50</ele>
        <time>2014-03-02T09:29:34Z</time>
      </trkpt>
      <trkpt lat="41.646950050" lon="2.519990010">
        <ele>229.30</ele>
        <time>2014-03-02T09:29:35Z</time>
      </trkpt>
      <trkpt lat="41.646943350" lon="2.520026730">
        <ele>229.50</ele>
        <time>2014-03-02T09:29:36Z</time>
      </trkpt>
      <trkpt lat="41.646936810" lon="2.520063440">
        <ele>229.60</ele>
        <time>2014-03-02T09:29:37Z</time>
      </trkpt>
      <trkpt lat="41.646930100" lon="2.520100150">
        <ele>229.70</ele>
        <time>2014-03-02T09:29:38Z</time>
      </trkpt>
      <trkpt lat="41.646923400" lon="2.520133350">
        <ele>229.70</ele>
        <time>2014-03-02T09:29:39Z</time>
      </trkpt>
      <trkpt lat="41.646915020" lon="2.520165030">
        <ele>229.80</ele>
        <time>2014-03-02T09:29:40Z</time>
      </trkpt>
      <trkpt lat="41.646908480" lon="2.520198390">
        <ele>230.20</ele>
        <time>2014-03-02T09:29:41Z</time>
      </trkpt>
      <trkpt lat="41.646900100" lon="2.520230070">
        <ele>230.50</ele>
        <time>2014-03-02T09:29:42Z</time>
      </trkpt>
      <trkpt lat="41.646891720" lon="2.520263430">
        <ele>230.60</ele>
        <time>2014-03-02T09:29:43Z</time>
      </trkpt>
      <trkpt lat="41.646883330" lon="2.520295120">
        <ele>230.60</ele>
        <time>2014-03-02T09:29:44Z</time>
      </trkpt>
      <trkpt lat="41.646876800" lon="2.520326800">
        <ele>230.60</ele>
        <time>2014-03-02T09:29:45Z</time>
      </trkpt>
      <trkpt lat="41.646870090" lon="2.520356810">
        <ele>231.00</ele>
        <time>2014-03-02T09:29:46Z</time>
      </trkpt>
      <trkpt lat="41.646861710" lon="2.520386810">
        <ele>231.20</ele>
        <time>2014-03-02T09:29:47Z</time>
      </trkpt>
      <trkpt lat="41.646855000" lon="2.520418330">
        <ele>231.70</ele>
        <time>2014-03-02T09:29:48Z</time>
      </trkpt>
      <trkpt lat="41.646848460" lon="2.520448340">
        <ele>232.00</ele>
        <time>2014-03-02T09:29:49Z</time>
      </trkpt>
      <trkpt lat="41.646840080" lon="2.520476670">
        <ele>232.10</ele>
        <time>2014-03-02T09:29:50Z</time>
      </trkpt>
      <trkpt lat="41.646833380" lon="2.520505000">
        <ele>232.20</ele>
        <time>2014-03-02T09:29:51Z</time>
      </trkpt>
      <trkpt lat="41.646825000" lon="2.520533330">
        <ele>232.30</ele>
        <time>2014-03-02T09:29:52Z</time>
      </trkpt>
      <trkpt lat="41.646818460" lon="2.520561830">
        <ele>232.40</ele>
        <time>2014-03-02T09:29:53Z</time>
      </trkpt>
      <trkpt lat="41.646811750" lon="2.520591670">
        <ele>232.60</ele>
        <time>2014-03-02T09:29:54Z</time>
      </trkpt>
      <trkpt lat="41.646805050" lon="2.520621670">
        <ele>232.90</ele>
        <time>2014-03-02T09:29:55Z</time>
      </trkpt>
      <trkpt lat="41.646798340" lon="2.520653360">
        <ele>233.10</ele>
        <time>2014-03-02T09:29:56Z</time>
      </trkpt>
      <trkpt lat="41.646791800" lon="2.520681690">
        <ele>233.30</ele>
        <time>2014-03-02T09:29:57Z</time>
      </trkpt>
      <trkpt lat="41.646785100" lon="2.520711700">
        <ele>233.40</ele>
        <time>2014-03-02T09:29:58Z</time>
      </trkpt>
      <trkpt lat="41.646775040" lon="2.520745060">
        <ele>233.50</ele>
        <time>2014-03-02T09:29:59Z</time>
      </trkpt>
      <trkpt lat="41.646768330" lon="2.520780090">
        <ele>233.70</ele>
        <time>2014-03-02T09:30:00Z</time>
      </trkpt>
      <trkpt lat="41.646760120" lon="2.520815130">
        <ele>234.00</ele>
        <time>2014-03-02T09:30:01Z</time>
      </trkpt>
      <trkpt lat="41.646753410" lon="2.520848490">
        <ele>234.30</ele>
        <time>2014-03-02T09:30:02Z</time>
      </trkpt>
      <trkpt lat="41.646746710" lon="2.520883360">
        <ele>234.50</ele>
        <time>2014-03-02T09:30:03Z</time>
      </trkpt>
      <trkpt lat="41.646741680" lon="2.520920070">
        <ele>234.60</ele>
        <time>2014-03-02T09:30:04Z</time>
      </trkpt>
      <trkpt lat="41.646736820" lon="2.520961810">
        <ele>235.00</ele>
        <time>2014-03-02T09:30:05Z</time>
      </trkpt>
      <trkpt lat="41.646731790" lon="2.521006740">
        <ele>235.20</ele>
        <time>2014-03-02T09:30:06Z</time>
      </trkpt>
      <trkpt lat="41.646723410" lon="2.521053340">
        <ele>235.30</ele>
        <time>2014-03-02T09:30:07Z</time>
      </trkpt>
      <trkpt lat="41.646715030" lon="2.521101790">
        <ele>235.30</ele>
        <time>2014-03-02T09:30:08Z</time>
      </trkpt>
      <trkpt lat="41.646706810" lon="2.521150070">
        <ele>234.70</ele>
        <time>2014-03-02T09:30:09Z</time>
      </trkpt>
      <trkpt lat="41.646698430" lon="2.521200030">
        <ele>234.30</ele>
        <time>2014-03-02T09:30:10Z</time>
      </trkpt>
      <trkpt lat="41.646690050" lon="2.521248470">
        <ele>234.00</ele>
        <time>2014-03-02T09:30:11Z</time>
      </trkpt>
      <trkpt lat="41.646685020" lon="2.521298430">
        <ele>234.20</ele>
        <time>2014-03-02T09:30:12Z</time>
      </trkpt>
      <trkpt lat="41.646678480" lon="2.521346710">
        <ele>234.30</ele>
        <time>2014-03-02T09:30:13Z</time>
      </trkpt>
      <trkpt lat="41.646671770" lon="2.521395160">
        <ele>234.20</ele>
        <time>2014-03-02T09:30:14Z</time>
      </trkpt>
      <trkpt lat="41.646665070" lon="2.521441760">
        <ele>234.10</ele>
        <time>2014-03-02T09:30:15Z</time>
      </trkpt>
      <trkpt lat="41.646660040" lon="2.521486690">
        <ele>234.00</ele>
        <time>2014-03-02T09:30:16Z</time>
      </trkpt>
      <trkpt lat="41.646651830" lon="2.521528430">
        <ele>233.90</ele>
        <time>2014-03-02T09:30:17Z</time>
      </trkpt>
      <trkpt lat="41.646645120" lon="2.521570000">
        <ele>233.80</ele>
        <time>2014-03-02T09:30:18Z</time>
      </trkpt>
      <trkpt lat="41.646638410" lon="2.521610070">
        <ele>233.60</ele>
        <time>2014-03-02T09:30:19Z</time>
      </trkpt>
      <trkpt lat="41.646630030" lon="2.521651810">
        <ele>233.50</ele>
        <time>2014-03-02T09:30:20Z</time>
      </trkpt>
      <trkpt lat="41.646621820" lon="2.521693380">
        <ele>233.10</ele>
        <time>2014-03-02T09:30:21Z</time>
      </trkpt>
      <trkpt lat="41.646613440" lon="2.521735130">
        <ele>232.90</ele>
        <time>2014-03-02T09:30:22Z</time>
      </trkpt>
      <trkpt lat="41.646605050" lon="2.521778380">
        <ele>232.70</ele>
        <time>2014-03-02T09:30:23Z</time>
      </trkpt>
      <trkpt lat="41.646596670" lon="2.521823470">
        <ele>233.00</ele>
        <time>2014-03-02T09:30:24Z</time>
      </trkpt>
      <trkpt lat="41.646588460" lon="2.521870080">
        <ele>233.20</ele>
        <time>2014-03-02T09:30:25Z</time>
      </trkpt>
      <trkpt lat="41.646580080" lon="2.521915000">
        <ele>233.10</ele>
        <time>2014-03-02T09:30:26Z</time>
      </trkpt>
      <trkpt lat="41.646570020" lon="2.521960100">
        <ele>233.00</ele>
        <time>2014-03-02T09:30:27Z</time>
      </trkpt>
      <trkpt lat="41.646561800" lon="2.522005020">
        <ele>233.20</ele>
        <time>2014-03-02T09:30:28Z</time>
      </trkpt>
      <trkpt lat="41.646553420" lon="2.522046770">
        <ele>233.40</ele>
        <time>2014-03-02T09:30:29Z</time>
      </trkpt>
      <trkpt lat="41.646546720" lon="2.522088340">
        <ele>233.50</ele>
        <time>2014-03-02T09:30:30Z</time>
      </trkpt>
      <trkpt lat="41.646538330" lon="2.522130080">
        <ele>233.60</ele>
        <time>2014-03-02T09:30:31Z</time>
      </trkpt>
      <trkpt lat="41.646533470" lon="2.522170150">
        <ele>233.60</ele>
        <time>2014-03-02T09:30:32Z</time>
      </trkpt>
      <trkpt lat="41.646526770" lon="2.522211720">
        <ele>233.80</ele>
        <time>2014-03-02T09:30:33Z</time>
      </trkpt>
      <trkpt lat="41.646520060" lon="2.522253460">
        <ele>234.00</ele>
        <time>2014-03-02T09:30:34Z</time>
      </trkpt>
      <trkpt lat="41.646513360" lon="2.522291690">
        <ele>234.10</ele>
        <time>2014-03-02T09:30:35Z</time>
      </trkpt>
      <trkpt lat="41.646508490" lon="2.522331750">
        <ele>233.80</ele>
        <time>2014-03-02T09:30:36Z</time>
      </trkpt>
      <trkpt lat="41.646501790" lon="2.522368460">
        <ele>233.50</ele>
        <time>2014-03-02T09:30:37Z</time>
      </trkpt>
      <trkpt lat="41.646496760" lon="2.522406680">
        <ele>233.60</ele>
        <time>2014-03-02T09:30:38Z</time>
      </trkpt>
      <trkpt lat="41.646491730" lon="2.522445070">
        <ele>233.70</ele>
        <time>2014-03-02T09:30:39Z</time>
      </trkpt>
      <trkpt lat="41.646485030" lon="2.522481790">
        <ele>233.70</ele>
        <time>2014-03-02T09:30:40Z</time>
      </trkpt>
      <trkpt lat="41.646478490" lon="2.522518330">
        <ele>233.70</ele>
        <time>2014-03-02T09:30:41Z</time>
      </trkpt>
      <trkpt lat="41.646471780" lon="2.522555040">
        <ele>233.70</ele>
        <time>2014-03-02T09:30:42Z</time>
      </trkpt>
      <trkpt lat="41.646463400" lon="2.522590080">
        <ele>234.20</ele>
        <time>2014-03-02T09:30:43Z</time>
      </trkpt>
      <trkpt lat="41.646456690" lon="2.522623440">
        <ele>234.60</ele>
        <time>2014-03-02T09:30:44Z</time>
      </trkpt>
      <trkpt lat="41.646451670" lon="2.522656800">
        <ele>234.50</ele>
        <time>2014-03-02T09:30:45Z</time>
      </trkpt>
      <trkpt lat="41.646446800" lon="2.522690160">
        <ele>234.50</ele>
        <time>2014-03-02T09:30:46Z</time>
      </trkpt>
      <trkpt lat="41.646441780" lon="2.522725030">
        <ele>234.50</ele>
        <time>2014-03-02T09:30:47Z</time>
      </trkpt>
      <trkpt lat="41.646435070" lon="2.522756710">
        <ele>234.50</ele>
        <time>2014-03-02T09:30:48Z</time>
      </trkpt>
      <trkpt lat="41.646428360" lon="2.522785040">
        <ele>234.50</ele>
        <time>2014-03-02T09:30:49Z</time>
      </trkpt>
      <trkpt lat="41.646423330" lon="2.522810020">
        <ele>234.60</ele>
        <time>2014-03-02T09:30:50Z</time>
      </trkpt>
      <trkpt lat="41.646418470" lon="2.522833490">
        <ele>234.70</ele>
        <time>2014-03-02T09:30:51Z</time>
      </trkpt>
      <trkpt lat="41.646410090" lon="2.522858470">
        <ele>235.00</ele>
        <time>2014-03-02T09:30:52Z</time>
      </trkpt>
      <trkpt lat="41.646401710" lon="2.522886800">
        <ele>235.30</ele>
        <time>2014-03-02T09:30:53Z</time>
      </trkpt>
      <trkpt lat="41.646393500" lon="2.522915130">
        <ele>235.50</ele>
        <time>2014-03-02T09:30:54Z</time>
      </trkpt>
      <trkpt lat="41.646385110" lon="2.522943460">
        <ele>235.50</ele>
        <time>2014-03-02T09:30:55Z</time>
      </trkpt>
      <trkpt lat="41.646375060" lon="2.522975150">
        <ele>235.50</ele>
        <time>2014-03-02T09:30:56Z</time>
      </trkpt>
      <trkpt lat="41.646366670" lon="2.523006830">
        <ele>236.10</ele>
        <time>2014-03-02T09:30:57Z</time>
      </trkpt>
      <trkpt lat="41.646358460" lon="2.523040020">
        <ele>236.50</ele>
        <time>2014-03-02T09:30:58Z</time>
      </trkpt>
      <trkpt lat="41.646351750" lon="2.523068350">
        <ele>236.70</ele>
        <time>2014-03-02T09:30:59Z</time>
      </trkpt>
      <trkpt lat="41.646345050" lon="2.523096680">
        <ele>237.00</ele>
        <time>2014-03-02T09:31:00Z</time>
      </trkpt>
      <trkpt lat="41.646340020" lon="2.523125010">
        <ele>237.10</ele>
        <time>2014-03-02T09:31:01Z</time>
      </trkpt>
      <trkpt lat="41.646338340" lon="2.523153340">
        <ele>237.30</ele>
        <time>2014-03-02T09:31:02Z</time>
      </trkpt>
      <trkpt lat="41.646340020" lon="2.523181680">
        <ele>237.40</ele>
        <time>2014-03-02T09:31:03Z</time>
      </trkpt>
      <trkpt lat="41.646341700" lon="2.523211680">
        <ele>237.80</ele>
        <time>2014-03-02T09:31:04Z</time>
      </trkpt>
      <trkpt lat="41.646343370" lon="2.523243370">
        <ele>238.00</ele>
        <time>2014-03-02T09:31:05Z</time>
      </trkpt>
      <trkpt lat="41.646345050" lon="2.523280080">
        <ele>238.10</ele>
        <time>2014-03-02T09:31:06Z</time>
      </trkpt>
      <trkpt lat="41.646351750" lon="2.523316790">
        <ele>238.30</ele>
        <time>2014-03-02T09:31:07Z</time>
      </trkpt>
      <trkpt lat="41.646360140" lon="2.523355010">
        <ele>238.30</ele>
        <time>2014-03-02T09:31:08Z</time>
      </trkpt>
      <trkpt lat="41.646368350" lon="2.523396760">
        <ele>237.60</ele>
        <time>2014-03-02T09:31:09Z</time>
      </trkpt>
      <trkpt lat="41.646373380" lon="2.523441680">
        <ele>237.10</ele>
        <time>2014-03-02T09:31:10Z</time>
      </trkpt>
      <trkpt lat="41.646380080" lon="2.523493480">
        <ele>237.20</ele>
        <time>2014-03-02T09:31:11Z</time>
      </trkpt>
      <trkpt lat="41.646386790" lon="2.523543440">
        <ele>237.40</ele>
        <time>2014-03-02T09:31:12Z</time>
      </trkpt>
      <trkpt lat="41.646395000" lon="2.523591720">
        <ele>237.50</ele>
        <time>2014-03-02T09:31:13Z</time>
      </trkpt>
      <trkpt lat="41.646401710" lon="2.523638490">
        <ele>237.20</ele>
        <time>2014-03-02T09:31:14Z</time>
      </trkpt>
      <trkpt lat="41.646411770" lon="2.523685090">
        <ele>236.90</ele>
        <time>2014-03-02T09:31:15Z</time>
      </trkpt>
      <trkpt lat="41.646421830" lon="2.523730020">
        <ele>236.90</ele>
        <time>2014-03-02T09:31:16Z</time>
      </trkpt>
      <trkpt lat="41.646433390" lon="2.523775110">
        <ele>236.80</ele>
        <time>2014-03-02T09:31:17Z</time>
      </trkpt>
      <trkpt lat="41.646443450" lon="2.523823390">
        <ele>236.90</ele>
        <time>2014-03-02T09:31:18Z</time>
      </trkpt>
      <trkpt lat="41.646455020" lon="2.523870000">
        <ele>237.00</ele>
        <time>2014-03-02T09:31:19Z</time>
      </trkpt>
      <trkpt lat="41.646468430" lon="2.523913420">
        <ele>237.10</ele>
        <time>2014-03-02T09:31:20Z</time>
      </trkpt>
      <trkpt lat="41.646480000" lon="2.523961700">
        <ele>236.70</ele>
        <time>2014-03-02T09:31:21Z</time>
      </trkpt>
      <trkpt lat="41.646488380" lon="2.524010140">
        <ele>236.40</ele>
        <time>2014-03-02T09:31:22Z</time>
      </trkpt>
      <trkpt lat="41.646496760" lon="2.524061780">
        <ele>236.50</ele>
        <time>2014-03-02T09:31:23Z</time>
      </trkpt>
      <trkpt lat="41.646503470" lon="2.524111730">
        <ele>236.70</ele>
        <time>2014-03-02T09:31:24Z</time>
      </trkpt>
      <trkpt lat="41.646511680" lon="2.524163360">
        <ele>236.60</ele>
        <time>2014-03-02T09:31:25Z</time>
      </trkpt>
      <trkpt lat="41.646520060" lon="2.524211810">
        <ele>236.60</ele>
        <time>2014-03-02T09:31:26Z</time>
      </trkpt>
      <trkpt lat="41.646526770" lon="2.524260090">
        <ele>236.60</ele>
        <time>2014-03-02T09:31:27Z</time>
      </trkpt>
      <trkpt lat="41.646535150" lon="2.524308370">
        <ele>236.90</ele>
        <time>2014-03-02T09:31:28Z</time>
      </trkpt>
      <trkpt lat="41.646543360" lon="2.524358490">
        <ele>237.10</ele>
        <time>2014-03-02T09:31:29Z</time>
      </trkpt>
      <trkpt lat="41.646548390" lon="2.524408450">
        <ele>237.00</ele>
        <time>2014-03-02T09:31:30Z</time>
      </trkpt>
      <trkpt lat="41.646553420" lon="2.524456730">
        <ele>236.90</ele>
        <time>2014-03-02T09:31:31Z</time>
      </trkpt>
      <trkpt lat="41.646558450" lon="2.524505010">
        <ele>236.90</ele>
        <time>2014-03-02T09:31:32Z</time>
      </trkpt>
      <trkpt lat="41.646563480" lon="2.524553460">
        <ele>237.50</ele>
        <time>2014-03-02T09:31:33Z</time>
      </trkpt>
      <trkpt lat="41.646570020" lon="2.524601740">
        <ele>238.00</ele>
        <time>2014-03-02T09:31:34Z</time>
      </trkpt>
      <trkpt lat="41.646573370" lon="2.524648340">
        <ele>238.00</ele>
        <time>2014-03-02T09:31:35Z</time>
      </trkpt>
      <trkpt lat="41.646580080" lon="2.524696790">
        <ele>237.90</ele>
        <time>2014-03-02T09:31:36Z</time>
      </trkpt>
      <trkpt lat="41.646585110" lon="2.524748420">
        <ele>237.60</ele>
        <time>2014-03-02T09:31:37Z</time>
      </trkpt>
      <trkpt lat="41.646588460" lon="2.524798380">
        <ele>237.30</ele>
        <time>2014-03-02T09:31:38Z</time>
      </trkpt>
      <trkpt lat="41.646593490" lon="2.524851690">
        <ele>237.10</ele>
        <time>2014-03-02T09:31:39Z</time>
      </trkpt>
      <trkpt lat="41.646598350" lon="2.524905160">
        <ele>237.30</ele>
        <time>2014-03-02T09:31:40Z</time>
      </trkpt>
      <trkpt lat="41.646606730" lon="2.524953440">
        <ele>237.40</ele>
        <time>2014-03-02T09:31:41Z</time>
      </trkpt>
      <trkpt lat="41.646620140" lon="2.524998370">
        <ele>237.10</ele>
        <time>2014-03-02T09:31:42Z</time>
      </trkpt>
      <trkpt lat="41.646625000" lon="2.525046820">
        <ele>236.90</ele>
        <time>2014-03-02T09:31:43Z</time>
      </trkpt>
      <trkpt lat="41.646631710" lon="2.525095100">
        <ele>237.30</ele>
        <time>2014-03-02T09:31:44Z</time>
      </trkpt>
      <trkpt lat="41.646636740" lon="2.525145050">
        <ele>237.70</ele>
        <time>2014-03-02T09:31:45Z</time>
      </trkpt>
      <trkpt lat="41.646641770" lon="2.525196690">
        <ele>237.90</ele>
        <time>2014-03-02T09:31:46Z</time>
      </trkpt>
      <trkpt lat="41.646646800" lon="2.525250160">
        <ele>237.60</ele>
        <time>2014-03-02T09:31:47Z</time>
      </trkpt>
      <trkpt lat="41.646650150" lon="2.525305150">
        <ele>237.30</ele>
        <time>2014-03-02T09:31:48Z</time>
      </trkpt>
      <trkpt lat="41.646651830" lon="2.525358460">
        <ele>237.30</ele>
        <time>2014-03-02T09:31:49Z</time>
      </trkpt>
      <trkpt lat="41.646653330" lon="2.525410090">
        <ele>237.20</ele>
        <time>2014-03-02T09:31:50Z</time>
      </trkpt>
      <trkpt lat="41.646653330" lon="2.525460040">
        <ele>237.20</ele>
        <time>2014-03-02T09:31:51Z</time>
      </trkpt>
      <trkpt lat="41.646653330" lon="2.525510000">
        <ele>237.20</ele>
        <time>2014-03-02T09:31:52Z</time>
      </trkpt>
      <trkpt lat="41.646655010" lon="2.525560120">
        <ele>237.30</ele>
        <time>2014-03-02T09:31:53Z</time>
      </trkpt>
      <trkpt lat="41.646653330" lon="2.525608400">
        <ele>237.30</ele>
        <time>2014-03-02T09:31:54Z</time>
      </trkpt>
      <trkpt lat="41.646650150" lon="2.525656680">
        <ele>237.20</ele>
        <time>2014-03-02T09:31:55Z</time>
      </trkpt>
      <trkpt lat="41.646645120" lon="2.525701780">
        <ele>237.40</ele>
        <time>2014-03-02T09:31:56Z</time>
      </trkpt>
      <trkpt lat="41.646640090" lon="2.525745030">
        <ele>237.50</ele>
        <time>2014-03-02T09:31:57Z</time>
      </trkpt>
      <trkpt lat="41.646633390" lon="2.525786770">
        <ele>237.60</ele>
        <time>2014-03-02T09:31:58Z</time>
      </trkpt>
      <trkpt lat="41.646626680" lon="2.525826670">
        <ele>237.50</ele>
        <time>2014-03-02T09:31:59Z</time>
      </trkpt>
      <trkpt lat="41.646620140" lon="2.525863380">
        <ele>237.40</ele>
        <time>2014-03-02T09:32:00Z</time>
      </trkpt>
      <trkpt lat="41.646610080" lon="2.525900090">
        <ele>237.60</ele>
        <time>2014-03-02T09:32:01Z</time>
      </trkpt>
      <trkpt lat="41.646603380" lon="2.525938480">
        <ele>237.80</ele>
        <time>2014-03-02T09:32:02Z</time>
      </trkpt>
      <trkpt lat="41.646595000" lon="2.525970000">
        <ele>238.10</ele>
        <time>2014-03-02T09:32:03Z</time>
      </trkpt>
      <trkpt lat="41.646588460" lon="2.526001680">
        <ele>238.30</ele>
        <time>2014-03-02T09:32:04Z</time>
      </trkpt>
      <trkpt lat="41.646575050" lon="2.526035040">
        <ele>238.50</ele>
        <time>2014-03-02T09:32:05Z</time>
      </trkpt>
      <trkpt lat="41.646558450" lon="2.526073430">
        <ele>238.90</ele>
        <time>2014-03-02T09:32:06Z</time>
      </trkpt>
      <trkpt lat="41.646543360" lon="2.526108470">
        <ele>239.20</ele>
        <time>2014-03-02T09:32:07Z</time>
      </trkpt>
      <trkpt lat="41.646528440" lon="2.526141830">
        <ele>239.20</ele>
        <time>2014-03-02T09:32:08Z</time>
      </trkpt>
      <trkpt lat="41.646513360" lon="2.526176700">
        <ele>239.20</ele>
        <time>2014-03-02T09:32:09Z</time>
      </trkpt>
      <trkpt lat="41.646501790" lon="2.526213410">
        <ele>239.20</ele>
        <time>2014-03-02T09:32:10Z</time>
      </trkpt>
      <trkpt lat="41.646490050" lon="2.526251800">
        <ele>239.50</ele>
        <time>2014-03-02T09:32:11Z</time>
      </trkpt>
      <trkpt lat="41.646480000" lon="2.526290020">
        <ele>239.70</ele>
        <time>2014-03-02T09:32:12Z</time>
      </trkpt>
      <trkpt lat="41.646471780" lon="2.526328410">
        <ele>239.40</ele>
        <time>2014-03-02T09:32:13Z</time>
      </trkpt>
      <trkpt lat="41.646465080" lon="2.526368480">
        <ele>239.10</ele>
        <time>2014-03-02T09:32:14Z</time>
      </trkpt>
      <trkpt lat="41.646463400" lon="2.526408370">
        <ele>239.60</ele>
        <time>2014-03-02T09:32:15Z</time>
      </trkpt>
      <trkpt lat="41.646461720" lon="2.526448440">
        <ele>240.00</ele>
        <time>2014-03-02T09:32:16Z</time>
      </trkpt>
      <trkpt lat="41.646463400" lon="2.526488340">
        <ele>240.40</ele>
        <time>2014-03-02T09:32:17Z</time>
      </trkpt>
      <trkpt lat="41.646465080" lon="2.526526730">
        <ele>240.00</ele>
        <time>2014-03-02T09:32:18Z</time>
      </trkpt>
      <trkpt lat="41.646468430" lon="2.526565110">
        <ele>239.70</ele>
        <time>2014-03-02T09:32:19Z</time>
      </trkpt>
      <trkpt lat="41.646473460" lon="2.526601830">
        <ele>239.50</ele>
        <time>2014-03-02T09:32:20Z</time>
      </trkpt>
      <trkpt lat="41.646480000" lon="2.526638370">
        <ele>239.50</ele>
        <time>2014-03-02T09:32:21Z</time>
      </trkpt>
      <trkpt lat="41.646488380" lon="2.526673410">
        <ele>239.60</ele>
        <time>2014-03-02T09:32:22Z</time>
      </trkpt>
      <trkpt lat="41.646496760" lon="2.526706770">
        <ele>239.60</ele>
        <time>2014-03-02T09:32:23Z</time>
      </trkpt>
      <trkpt lat="41.646505140" lon="2.526743480">
        <ele>239.70</ele>
        <time>2014-03-02T09:32:24Z</time>
      </trkpt>
      <trkpt lat="41.646513360" lon="2.526778350">
        <ele>240.00</ele>
        <time>2014-03-02T09:32:25Z</time>
      </trkpt>
      <trkpt lat="41.646521740" lon="2.526808360">
        <ele>240.30</ele>
        <time>2014-03-02T09:32:26Z</time>
      </trkpt>
      <trkpt lat="41.646528440" lon="2.526840040">
        <ele>240.40</ele>
        <time>2014-03-02T09:32:27Z</time>
      </trkpt>
      <trkpt lat="41.646535150" lon="2.526875080">
        <ele>240.40</ele>
        <time>2014-03-02T09:32:28Z</time>
      </trkpt>
      <trkpt lat="41.646540010" lon="2.526908440">
        <ele>240.30</ele>
        <time>2014-03-02T09:32:29Z</time>
      </trkpt>
      <trkpt lat="41.646548390" lon="2.526940120">
        <ele>240.20</ele>
        <time>2014-03-02T09:32:30Z</time>
      </trkpt>
      <trkpt lat="41.646558450" lon="2.526971800">
        <ele>240.10</ele>
        <time>2014-03-02T09:32:31Z</time>
      </trkpt>
      <trkpt lat="41.646566670" lon="2.527003490">
        <ele>240.40</ele>
        <time>2014-03-02T09:32:32Z</time>
      </trkpt>
      <trkpt lat="41.646573370" lon="2.527036680">
        <ele>240.60</ele>
        <time>2014-03-02T09:32:33Z</time>
      </trkpt>
      <trkpt lat="41.646580080" lon="2.527068360">
        <ele>241.00</ele>
        <time>2014-03-02T09:32:34Z</time>
      </trkpt>
      <trkpt lat="41.646586780" lon="2.527101720">
        <ele>241.30</ele>
        <time>2014-03-02T09:32:35Z</time>
      </trkpt>
      <trkpt lat="41.646593490" lon="2.527133410">
        <ele>241.50</ele>
        <time>2014-03-02T09:32:36Z</time>
      </trkpt>
      <trkpt lat="41.646596670" lon="2.527170120">
        <ele>241.60</ele>
        <time>2014-03-02T09:32:37Z</time>
      </trkpt>
      <trkpt lat="41.646600030" lon="2.527203480">
        <ele>241.70</ele>
        <time>2014-03-02T09:32:38Z</time>
      </trkpt>
      <trkpt lat="41.646605050" lon="2.527235000">
        <ele>242.20</ele>
        <time>2014-03-02T09:32:39Z</time>
      </trkpt>
      <trkpt lat="41.646611760" lon="2.527268360">
        <ele>242.60</ele>
        <time>2014-03-02T09:32:40Z</time>
      </trkpt>
      <trkpt lat="41.646616790" lon="2.527301720">
        <ele>242.40</ele>
        <time>2014-03-02T09:32:41Z</time>
      </trkpt>
      <trkpt lat="41.646621820" lon="2.527333400">
        <ele>242.30</ele>
        <time>2014-03-02T09:32:42Z</time>
      </trkpt>
      <trkpt lat="41.646625000" lon="2.527365080">
        <ele>242.20</ele>
        <time>2014-03-02T09:32:43Z</time>
      </trkpt>
      <trkpt lat="41.646628360" lon="2.527400120">
        <ele>242.60</ele>
        <time>2014-03-02T09:32:44Z</time>
      </trkpt>
      <trkpt lat="41.646635060" lon="2.527430130">
        <ele>243.00</ele>
        <time>2014-03-02T09:32:45Z</time>
      </trkpt>
      <trkpt lat="41.646638410" lon="2.527461810">
        <ele>243.40</ele>
        <time>2014-03-02T09:32:46Z</time>
      </trkpt>
      <trkpt lat="41.646645120" lon="2.527486790">
        <ele>243.60</ele>
        <time>2014-03-02T09:32:47Z</time>
      </trkpt>
      <trkpt lat="41.646651830" lon="2.527516800">
        <ele>243.60</ele>
        <time>2014-03-02T09:32:48Z</time>
      </trkpt>
      <trkpt lat="41.646655010" lon="2.527548480">
        <ele>243.60</ele>
        <time>2014-03-02T09:32:49Z</time>
      </trkpt>
      <trkpt lat="41.646658360" lon="2.527580000">
        <ele>243.60</ele>
        <time>2014-03-02T09:32:50Z</time>
      </trkpt>
      <trkpt lat="41.646663390" lon="2.527610000">
        <ele>243.80</ele>
        <time>2014-03-02T09:32:51Z</time>
      </trkpt>
      <trkpt lat="41.646665070" lon="2.527643360">
        <ele>243.90</ele>
        <time>2014-03-02T09:32:52Z</time>
      </trkpt>
      <trkpt lat="41.646670100" lon="2.527676720">
        <ele>244.00</ele>
        <time>2014-03-02T09:32:53Z</time>
      </trkpt>
      <trkpt lat="41.646675130" lon="2.527706730">
        <ele>244.00</ele>
        <time>2014-03-02T09:32:54Z</time>
      </trkpt>
      <trkpt lat="41.646680160" lon="2.527740090">
        <ele>244.10</ele>
        <time>2014-03-02T09:32:55Z</time>
      </trkpt>
      <trkpt lat="41.646686690" lon="2.527773450">
        <ele>244.50</ele>
        <time>2014-03-02T09:32:56Z</time>
      </trkpt>
      <trkpt lat="41.646690050" lon="2.527805130">
        <ele>244.80</ele>
        <time>2014-03-02T09:32:57Z</time>
      </trkpt>
      <trkpt lat="41.646691720" lon="2.527838490">
        <ele>244.80</ele>
        <time>2014-03-02T09:32:58Z</time>
      </trkpt>
      <trkpt lat="41.646693400" lon="2.527873360">
        <ele>244.90</ele>
        <time>2014-03-02T09:32:59Z</time>
      </trkpt>
      <trkpt lat="41.646695080" lon="2.527908400">
        <ele>245.10</ele>
        <time>2014-03-02T09:33:00Z</time>
      </trkpt>
      <trkpt lat="41.646696750" lon="2.527941760">
        <ele>245.20</ele>
        <time>2014-03-02T09:33:01Z</time>
      </trkpt>
      <trkpt lat="41.646700110" lon="2.527978470">
        <ele>245.40</ele>
        <time>2014-03-02T09:33:02Z</time>
      </trkpt>
      <trkpt lat="41.646705130" lon="2.528015020">
        <ele>245.70</ele>
        <time>2014-03-02T09:33:03Z</time>
      </trkpt>
      <trkpt lat="41.646708490" lon="2.528051730">
        <ele>246.00</ele>
        <time>2014-03-02T09:33:04Z</time>
      </trkpt>
      <trkpt lat="41.646715030" lon="2.528086770">
        <ele>246.20</ele>
        <time>2014-03-02T09:33:05Z</time>
      </trkpt>
      <trkpt lat="41.646720050" lon="2.528121800">
        <ele>246.30</ele>
        <time>2014-03-02T09:33:06Z</time>
      </trkpt>
      <trkpt lat="41.646725080" lon="2.528158350">
        <ele>246.40</ele>
        <time>2014-03-02T09:33:07Z</time>
      </trkpt>
      <trkpt lat="41.646728440" lon="2.528195060">
        <ele>246.40</ele>
        <time>2014-03-02T09:33:08Z</time>
      </trkpt>
      <trkpt lat="41.646733470" lon="2.528230100">
        <ele>246.50</ele>
        <time>2014-03-02T09:33:09Z</time>
      </trkpt>
      <trkpt lat="41.646740000" lon="2.528265130">
        <ele>246.20</ele>
        <time>2014-03-02T09:33:10Z</time>
      </trkpt>
      <trkpt lat="41.646745030" lon="2.528300000">
        <ele>246.10</ele>
        <time>2014-03-02T09:33:11Z</time>
      </trkpt>
      <trkpt lat="41.646751740" lon="2.528335040">
        <ele>246.10</ele>
        <time>2014-03-02T09:33:12Z</time>
      </trkpt>
      <trkpt lat="41.646756770" lon="2.528371750">
        <ele>246.10</ele>
        <time>2014-03-02T09:33:13Z</time>
      </trkpt>
      <trkpt lat="41.646763470" lon="2.528408460">
        <ele>246.10</ele>
        <time>2014-03-02T09:33:14Z</time>
      </trkpt>
      <trkpt lat="41.646770010" lon="2.528446680">
        <ele>246.00</ele>
        <time>2014-03-02T09:33:15Z</time>
      </trkpt>
      <trkpt lat="41.646776720" lon="2.528486750">
        <ele>245.90</ele>
        <time>2014-03-02T09:33:16Z</time>
      </trkpt>
      <trkpt lat="41.646781750" lon="2.528528490">
        <ele>246.30</ele>
        <time>2014-03-02T09:33:17Z</time>
      </trkpt>
      <trkpt lat="41.646786770" lon="2.528570070">
        <ele>246.60</ele>
        <time>2014-03-02T09:33:18Z</time>
      </trkpt>
      <trkpt lat="41.646791800" lon="2.528605100">
        <ele>246.80</ele>
        <time>2014-03-02T09:33:19Z</time>
      </trkpt>
      <trkpt lat="41.646796660" lon="2.528641810">
        <ele>247.00</ele>
        <time>2014-03-02T09:33:20Z</time>
      </trkpt>
      <trkpt lat="41.646806720" lon="2.528678360">
        <ele>247.20</ele>
        <time>2014-03-02T09:33:21Z</time>
      </trkpt>
      <trkpt lat="41.646816780" lon="2.528711720">
        <ele>247.50</ele>
        <time>2014-03-02T09:33:22Z</time>
      </trkpt>
      <trkpt lat="41.646828350" lon="2.528746760">
        <ele>247.80</ele>
        <time>2014-03-02T09:33:23Z</time>
      </trkpt>
      <trkpt lat="41.646838410" lon="2.528783470">
        <ele>248.10</ele>
        <time>2014-03-02T09:33:24Z</time>
      </trkpt>
      <trkpt lat="41.646850140" lon="2.528818340">
        <ele>248.40</ele>
        <time>2014-03-02T09:33:25Z</time>
      </trkpt>
      <trkpt lat="41.646861710" lon="2.528853370">
        <ele>248.30</ele>
        <time>2014-03-02T09:33:26Z</time>
      </trkpt>
      <trkpt lat="41.646873440" lon="2.528888410">
        <ele>248.10</ele>
        <time>2014-03-02T09:33:27Z</time>
      </trkpt>
      <trkpt lat="41.646885010" lon="2.528921770">
        <ele>248.00</ele>
        <time>2014-03-02T09:33:28Z</time>
      </trkpt>
      <trkpt lat="41.646896740" lon="2.528955130">
        <ele>248.50</ele>
        <time>2014-03-02T09:33:29Z</time>
      </trkpt>
      <trkpt lat="41.646906800" lon="2.528990000">
        <ele>248.80</ele>
        <time>2014-03-02T09:33:30Z</time>
      </trkpt>
      <trkpt lat="41.646918370" lon="2.529021680">
        <ele>249.00</ele>
        <time>2014-03-02T09:33:31Z</time>
      </trkpt>
      <trkpt lat="41.646930100" lon="2.529050010">
        <ele>249.10</ele>
        <time>2014-03-02T09:33:32Z</time>
      </trkpt>
      <trkpt lat="41.646943350" lon="2.529078340">
        <ele>249.20</ele>
        <time>2014-03-02T09:33:33Z</time>
      </trkpt>
      <trkpt lat="41.646955080" lon="2.529106680">
        <ele>249.20</ele>
        <time>2014-03-02T09:33:34Z</time>
      </trkpt>
      <trkpt lat="41.646968490" lon="2.529136680">
        <ele>249.20</ele>
        <time>2014-03-02T09:33:35Z</time>
      </trkpt>
      <trkpt lat="41.646981740" lon="2.529165010">
        <ele>249.40</ele>
        <time>2014-03-02T09:33:36Z</time>
      </trkpt>
      <trkpt lat="41.646991800" lon="2.529196700">
        <ele>249.60</ele>
        <time>2014-03-02T09:33:37Z</time>
      </trkpt>
      <trkpt lat="41.647001690" lon="2.529226700">
        <ele>250.40</ele>
        <time>2014-03-02T09:33:38Z</time>
      </trkpt>
      <trkpt lat="41.647013420" lon="2.529255030">
        <ele>250.90</ele>
        <time>2014-03-02T09:33:39Z</time>
      </trkpt>
      <trkpt lat="41.647026660" lon="2.529278340">
        <ele>251.40</ele>
        <time>2014-03-02T09:33:40Z</time>
      </trkpt>
      <trkpt lat="41.647038400" lon="2.529300130">
        <ele>251.30</ele>
        <time>2014-03-02T09:33:41Z</time>
      </trkpt>
      <trkpt lat="41.647048460" lon="2.529326780">
        <ele>251.20</ele>
        <time>2014-03-02T09:33:42Z</time>
      </trkpt>
      <trkpt lat="41.647058350" lon="2.529353440">
        <ele>251.10</ele>
        <time>2014-03-02T09:33:43Z</time>
      </trkpt>
      <trkpt lat="41.647070080" lon="2.529380090">
        <ele>251.00</ele>
        <time>2014-03-02T09:33:44Z</time>
      </trkpt>
      <trkpt lat="41.647078460" lon="2.529406750">
        <ele>251.10</ele>
        <time>2014-03-02T09:33:45Z</time>
      </trkpt>
      <trkpt lat="41.647083490" lon="2.529428370">
        <ele>251.20</ele>
        <time>2014-03-02T09:33:46Z</time>
      </trkpt>
      <trkpt lat="41.647093380" lon="2.529460060">
        <ele>251.30</ele>
        <time>2014-03-02T09:33:47Z</time>
      </trkpt>
      <trkpt lat="41.647106800" lon="2.529493420">
        <ele>251.50</ele>
        <time>2014-03-02T09:33:48Z</time>
      </trkpt>
      <trkpt lat="41.647121720" lon="2.529528450">
        <ele>251.70</ele>
        <time>2014-03-02T09:33:49Z</time>
      </trkpt>
      <trkpt lat="41.647138480" lon="2.529563490">
        <ele>251.80</ele>
        <time>2014-03-02T09:33:50Z</time>
      </trkpt>
      <trkpt lat="41.647155070" lon="2.529600030">
        <ele>251.90</ele>
        <time>2014-03-02T09:33:51Z</time>
      </trkpt>
      <trkpt lat="41.647168490" lon="2.529633390">
        <ele>252.00</ele>
        <time>2014-03-02T09:33:52Z</time>
      </trkpt>
      <trkpt lat="41.647183410" lon="2.529671780">
        <ele>251.90</ele>
        <time>2014-03-02T09:33:53Z</time>
      </trkpt>
      <trkpt lat="41.647200000" lon="2.529711680">
        <ele>251.90</ele>
        <time>2014-03-02T09:33:54Z</time>
      </trkpt>
      <trkpt lat="41.647215090" lon="2.529753420">
        <ele>251.70</ele>
        <time>2014-03-02T09:33:55Z</time>
      </trkpt>
      <trkpt lat="41.647226820" lon="2.529791810">
        <ele>251.60</ele>
        <time>2014-03-02T09:33:56Z</time>
      </trkpt>
      <trkpt lat="41.647238390" lon="2.529825000">
        <ele>251.60</ele>
        <time>2014-03-02T09:33:57Z</time>
      </trkpt>
      <trkpt lat="41.647241740" lon="2.529863390">
        <ele>251.50</ele>
        <time>2014-03-02T09:33:58Z</time>
      </trkpt>
      <trkpt lat="41.647245100" lon="2.529901780">
        <ele>251.50</ele>
        <time>2014-03-02T09:33:59Z</time>
      </trkpt>
      <trkpt lat="41.647248450" lon="2.529938500">
        <ele>251.40</ele>
        <time>2014-03-02T09:34:00Z</time>
      </trkpt>
      <trkpt lat="41.647251800" lon="2.529976720">
        <ele>251.40</ele>
        <time>2014-03-02T09:34:01Z</time>
      </trkpt>
      <trkpt lat="41.647256660" lon="2.530011750">
        <ele>251.00</ele>
        <time>2014-03-02T09:34:02Z</time>
      </trkpt>
      <trkpt lat="41.647260020" lon="2.530046790">
        <ele>250.70</ele>
        <time>2014-03-02T09:34:03Z</time>
      </trkpt>
      <trkpt lat="41.647265050" lon="2.530081830">
        <ele>251.10</ele>
        <time>2014-03-02T09:34:04Z</time>
      </trkpt>
      <trkpt lat="41.647268400" lon="2.530118370">
        <ele>251.40</ele>
        <time>2014-03-02T09:34:05Z</time>
      </trkpt>
      <trkpt lat="41.647271750" lon="2.530153410">
        <ele>251.60</ele>
        <time>2014-03-02T09:34:06Z</time>
      </trkpt>
      <trkpt lat="41.647275100" lon="2.530188440">
        <ele>251.40</ele>
        <time>2014-03-02T09:34:07Z</time>
      </trkpt>
      <trkpt lat="41.647278460" lon="2.530221800">
        <ele>251.30</ele>
        <time>2014-03-02T09:34:08Z</time>
      </trkpt>
      <trkpt lat="41.647280130" lon="2.530256670">
        <ele>251.40</ele>
        <time>2014-03-02T09:34:09Z</time>
      </trkpt>
      <trkpt lat="41.647281810" lon="2.530293390">
        <ele>251.50</ele>
        <time>2014-03-02T09:34:10Z</time>
      </trkpt>
      <trkpt lat="41.647285160" lon="2.530331770">
        <ele>251.50</ele>
        <time>2014-03-02T09:34:11Z</time>
      </trkpt>
      <trkpt lat="41.647290020" lon="2.530371670">
        <ele>251.20</ele>
        <time>2014-03-02T09:34:12Z</time>
      </trkpt>
      <trkpt lat="41.647291700" lon="2.530408380">
        <ele>251.00</ele>
        <time>2014-03-02T09:34:13Z</time>
      </trkpt>
      <trkpt lat="41.647291700" lon="2.530441740">
        <ele>251.30</ele>
        <time>2014-03-02T09:34:14Z</time>
      </trkpt>
      <trkpt lat="41.647293380" lon="2.530476780">
        <ele>251.50</ele>
        <time>2014-03-02T09:34:15Z</time>
      </trkpt>
      <trkpt lat="41.647295050" lon="2.530513490">
        <ele>251.70</ele>
        <time>2014-03-02T09:34:16Z</time>
      </trkpt>
      <trkpt lat="41.647296730" lon="2.530550040">
        <ele>251.80</ele>
        <time>2014-03-02T09:34:17Z</time>
      </trkpt>
      <trkpt lat="41.647296730" lon="2.530583400">
        <ele>251.90</ele>
        <time>2014-03-02T09:34:18Z</time>
      </trkpt>
      <trkpt lat="41.647296730" lon="2.530615080">
        <ele>252.00</ele>
        <time>2014-03-02T09:34:19Z</time>
      </trkpt>
      <trkpt lat="41.647298410" lon="2.530646770">
        <ele>252.00</ele>
        <time>2014-03-02T09:34:20Z</time>
      </trkpt>
      <trkpt lat="41.647300080" lon="2.530676770">
        <ele>252.40</ele>
        <time>2014-03-02T09:34:21Z</time>
      </trkpt>
      <trkpt lat="41.647295050" lon="2.530715160">
        <ele>252.70</ele>
        <time>2014-03-02T09:34:22Z</time>
      </trkpt>
      <trkpt lat="41.647291700" lon="2.530753380">
        <ele>252.70</ele>
        <time>2014-03-02T09:34:23Z</time>
      </trkpt>
      <trkpt lat="41.647293380" lon="2.530791770">
        <ele>252.70</ele>
        <time>2014-03-02T09:34:24Z</time>
      </trkpt>
      <trkpt lat="41.647300080" lon="2.530833350">
        <ele>252.80</ele>
        <time>2014-03-02T09:34:25Z</time>
      </trkpt>
      <trkpt lat="41.647305110" lon="2.530875090">
        <ele>252.70</ele>
        <time>2014-03-02T09:34:26Z</time>
      </trkpt>
      <trkpt lat="41.647308460" lon="2.530913480">
        <ele>252.60</ele>
        <time>2014-03-02T09:34:27Z</time>
      </trkpt>
      <trkpt lat="41.647308460" lon="2.530951700">
        <ele>252.70</ele>
        <time>2014-03-02T09:34:28Z</time>
      </trkpt>
      <trkpt lat="41.647305110" lon="2.530988410">
        <ele>252.70</ele>
        <time>2014-03-02T09:34:29Z</time>
      </trkpt>
      <trkpt lat="41.647300080" lon="2.531023450">
        <ele>252.80</ele>
        <time>2014-03-02T09:34:30Z</time>
      </trkpt>
      <trkpt lat="41.647293380" lon="2.531056810">
        <ele>253.20</ele>
        <time>2014-03-02T09:34:31Z</time>
      </trkpt>
      <trkpt lat="41.647286670" lon="2.531091680">
        <ele>253.60</ele>
        <time>2014-03-02T09:34:32Z</time>
      </trkpt>
      <trkpt lat="41.647281810" lon="2.531128390">
        <ele>253.70</ele>
        <time>2014-03-02T09:34:33Z</time>
      </trkpt>
      <trkpt lat="41.647276780" lon="2.531163430">
        <ele>253.80</ele>
        <time>2014-03-02T09:34:34Z</time>
      </trkpt>
      <trkpt lat="41.647275100" lon="2.531198460">
        <ele>253.70</ele>
        <time>2014-03-02T09:34:35Z</time>
      </trkpt>
      <trkpt lat="41.647275100" lon="2.531230150">
        <ele>253.70</ele>
        <time>2014-03-02T09:34:36Z</time>
      </trkpt>
      <trkpt lat="41.647273430" lon="2.531261660">
        <ele>253.70</ele>
        <time>2014-03-02T09:34:37Z</time>
      </trkpt>
      <trkpt lat="41.647271750" lon="2.531293350">
        <ele>253.60</ele>
        <time>2014-03-02T09:34:38Z</time>
      </trkpt>
      <trkpt lat="41.647271750" lon="2.531321680">
        <ele>253.50</ele>
        <time>2014-03-02T09:34:39Z</time>
      </trkpt>
      <trkpt lat="41.647273430" lon="2.531350010">
        <ele>254.00</ele>
        <time>2014-03-02T09:34:40Z</time>
      </trkpt>
      <trkpt lat="41.647276780" lon="2.531375150">
        <ele>254.40</ele>
        <time>2014-03-02T09:34:41Z</time>
      </trkpt>
      <trkpt lat="41.647280130" lon="2.531401810">
        <ele>254.70</ele>
        <time>2014-03-02T09:34:42Z</time>
      </trkpt>
      <trkpt lat="41.647281810" lon="2.531426790">
        <ele>254.90</ele>
        <time>2014-03-02T09:34:43Z</time>
      </trkpt>
      <trkpt lat="41.647286670" lon="2.531451760">
        <ele>255.10</ele>
        <time>2014-03-02T09:34:44Z</time>
      </trkpt>
      <trkpt lat="41.647291700" lon="2.531475070">
        <ele>255.40</ele>
        <time>2014-03-02T09:34:45Z</time>
      </trkpt>
      <trkpt lat="41.647295050" lon="2.531496690">
        <ele>255.60</ele>
        <time>2014-03-02T09:34:46Z</time>
      </trkpt>
      <trkpt lat="41.647298410" lon="2.531521670">
        <ele>255.80</ele>
        <time>2014-03-02T09:34:47Z</time>
      </trkpt>
      <trkpt lat="41.647298410" lon="2.531551680">
        <ele>256.00</ele>
        <time>2014-03-02T09:34:48Z</time>
      </trkpt>
      <trkpt lat="41.647300080" lon="2.531576820">
        <ele>256.10</ele>
        <time>2014-03-02T09:34:49Z</time>
      </trkpt>
      <trkpt lat="41.647298410" lon="2.531601800">
        <ele>256.40</ele>
        <time>2014-03-02T09:34:50Z</time>
      </trkpt>
      <trkpt lat="41.647296730" lon="2.531623430">
        <ele>256.60</ele>
        <time>2014-03-02T09:34:51Z</time>
      </trkpt>
      <trkpt lat="41.647295050" lon="2.531645050">
        <ele>256.50</ele>
        <time>2014-03-02T09:34:52Z</time>
      </trkpt>
      <trkpt lat="41.647291700" lon="2.531668350">
        <ele>256.40</ele>
        <time>2014-03-02T09:34:53Z</time>
      </trkpt>
      <trkpt lat="41.647286670" lon="2.531695010">
        <ele>257.20</ele>
        <time>2014-03-02T09:34:54Z</time>
      </trkpt>
      <trkpt lat="41.647285160" lon="2.531723340">
        <ele>257.80</ele>
        <time>2014-03-02T09:34:55Z</time>
      </trkpt>
      <trkpt lat="41.647283490" lon="2.531750160">
        <ele>258.30</ele>
        <time>2014-03-02T09:34:56Z</time>
      </trkpt>
      <trkpt lat="41.647281810" lon="2.531778490">
        <ele>258.50</ele>
        <time>2014-03-02T09:34:57Z</time>
      </trkpt>
      <trkpt lat="41.647280130" lon="2.531803470">
        <ele>258.60</ele>
        <time>2014-03-02T09:34:58Z</time>
      </trkpt>
      <trkpt lat="41.647278460" lon="2.531826770">
        <ele>258.80</ele>
        <time>2014-03-02T09:34:59Z</time>
      </trkpt>
      <trkpt lat="41.647276780" lon="2.531850070">
        <ele>258.90</ele>
        <time>2014-03-02T09:35:00Z</time>
      </trkpt>
      <trkpt lat="41.647275100" lon="2.531871700">
        <ele>258.80</ele>
        <time>2014-03-02T09:35:01Z</time>
      </trkpt>
      <trkpt lat="41.647273430" lon="2.531895000">
        <ele>258.80</ele>
        <time>2014-03-02T09:35:02Z</time>
      </trkpt>
      <trkpt lat="41.647273430" lon="2.531918470">
        <ele>258.70</ele>
        <time>2014-03-02T09:35:03Z</time>
      </trkpt>
      <trkpt lat="41.647271750" lon="2.531943450">
        <ele>258.80</ele>
        <time>2014-03-02T09:35:04Z</time>
      </trkpt>
      <trkpt lat="41.647268400" lon="2.531970100">
        <ele>258.80</ele>
        <time>2014-03-02T09:35:05Z</time>
      </trkpt>
      <trkpt lat="41.647268400" lon="2.532005140">
        <ele>259.20</ele>
        <time>2014-03-02T09:35:06Z</time>
      </trkpt>
      <trkpt lat="41.647268400" lon="2.532036820">
        <ele>259.40</ele>
        <time>2014-03-02T09:35:07Z</time>
      </trkpt>
      <trkpt lat="41.647266720" lon="2.532068340">
        <ele>259.70</ele>
        <time>2014-03-02T09:35:08Z</time>
      </trkpt>
      <trkpt lat="41.647268400" lon="2.532100020">
        <ele>259.70</ele>
        <time>2014-03-02T09:35:09Z</time>
      </trkpt>
      <trkpt lat="41.647268400" lon="2.532131700">
        <ele>259.80</ele>
        <time>2014-03-02T09:35:10Z</time>
      </trkpt>
      <trkpt lat="41.647266720" lon="2.532161710">
        <ele>260.00</ele>
        <time>2014-03-02T09:35:11Z</time>
      </trkpt>
      <trkpt lat="41.647265050" lon="2.532191720">
        <ele>260.20</ele>
        <time>2014-03-02T09:35:12Z</time>
      </trkpt>
      <trkpt lat="41.647263370" lon="2.532223400">
        <ele>260.50</ele>
        <time>2014-03-02T09:35:13Z</time>
      </trkpt>
      <trkpt lat="41.647263370" lon="2.532253410">
        <ele>260.70</ele>
        <time>2014-03-02T09:35:14Z</time>
      </trkpt>
      <trkpt lat="41.647260020" lon="2.532283420">
        <ele>260.80</ele>
        <time>2014-03-02T09:35:15Z</time>
      </trkpt>
      <trkpt lat="41.647256660" lon="2.532313420">
        <ele>261.20</ele>
        <time>2014-03-02T09:35:16Z</time>
      </trkpt>
      <trkpt lat="41.647253480" lon="2.532343430">
        <ele>261.50</ele>
        <time>2014-03-02T09:35:17Z</time>
      </trkpt>
      <trkpt lat="41.647245100" lon="2.532370090">
        <ele>261.40</ele>
        <time>2014-03-02T09:35:18Z</time>
      </trkpt>
      <trkpt lat="41.647236710" lon="2.532398420">
        <ele>261.40</ele>
        <time>2014-03-02T09:35:19Z</time>
      </trkpt>
      <trkpt lat="41.647231690" lon="2.532425070">
        <ele>261.60</ele>
        <time>2014-03-02T09:35:20Z</time>
      </trkpt>
      <trkpt lat="41.647226820" lon="2.532455080">
        <ele>261.70</ele>
        <time>2014-03-02T09:35:21Z</time>
      </trkpt>
      <trkpt lat="41.647221790" lon="2.532485090">
        <ele>261.80</ele>
        <time>2014-03-02T09:35:22Z</time>
      </trkpt>
      <trkpt lat="41.647215090" lon="2.532515090">
        <ele>262.20</ele>
        <time>2014-03-02T09:35:23Z</time>
      </trkpt>
      <trkpt lat="41.647211740" lon="2.532545100">
        <ele>262.40</ele>
        <time>2014-03-02T09:35:24Z</time>
      </trkpt>
      <trkpt lat="41.647210060" lon="2.532573430">
        <ele>262.30</ele>
        <time>2014-03-02T09:35:25Z</time>
      </trkpt>
      <trkpt lat="41.647208380" lon="2.532603440">
        <ele>262.20</ele>
        <time>2014-03-02T09:35:26Z</time>
      </trkpt>
      <trkpt lat="41.647210060" lon="2.532631770">
        <ele>262.10</ele>
        <time>2014-03-02T09:35:27Z</time>
      </trkpt>
      <trkpt lat="41.647210060" lon="2.532663450">
        <ele>262.10</ele>
        <time>2014-03-02T09:35:28Z</time>
      </trkpt>
      <trkpt lat="41.647210060" lon="2.532698490">
        <ele>262.20</ele>
        <time>2014-03-02T09:35:29Z</time>
      </trkpt>
      <trkpt lat="41.647215090" lon="2.532730000">
        <ele>262.40</ele>
        <time>2014-03-02T09:35:30Z</time>
      </trkpt>
      <trkpt lat="41.647220120" lon="2.532763360">
        <ele>262.50</ele>
        <time>2014-03-02T09:35:31Z</time>
      </trkpt>
      <trkpt lat="41.647223470" lon="2.532793370">
        <ele>262.80</ele>
        <time>2014-03-02T09:35:32Z</time>
      </trkpt>
      <trkpt lat="41.647226820" lon="2.532825060">
        <ele>263.10</ele>
        <time>2014-03-02T09:35:33Z</time>
      </trkpt>
      <trkpt lat="41.647233360" lon="2.532856740">
        <ele>263.30</ele>
        <time>2014-03-02T09:35:34Z</time>
      </trkpt>
      <trkpt lat="41.647240070" lon="2.532891780">
        <ele>263.00</ele>
        <time>2014-03-02T09:35:35Z</time>
      </trkpt>
      <trkpt lat="41.647246770" lon="2.532926810">
        <ele>262.80</ele>
        <time>2014-03-02T09:35:36Z</time>
      </trkpt>
      <trkpt lat="41.647260020" lon="2.532956820">
        <ele>262.60</ele>
        <time>2014-03-02T09:35:37Z</time>
      </trkpt>
      <trkpt lat="41.647271750" lon="2.532985150">
        <ele>262.50</ele>
        <time>2014-03-02T09:35:38Z</time>
      </trkpt>
      <trkpt lat="41.647280130" lon="2.533011800">
        <ele>262.60</ele>
        <time>2014-03-02T09:35:39Z</time>
      </trkpt>
      <trkpt lat="41.647286670" lon="2.533035110">
        <ele>262.70</ele>
        <time>2014-03-02T09:35:40Z</time>
      </trkpt>
      <trkpt lat="41.647298410" lon="2.533060080">
        <ele>262.70</ele>
        <time>2014-03-02T09:35:41Z</time>
      </trkpt>
      <trkpt lat="41.647311820" lon="2.533083390">
        <ele>262.60</ele>
        <time>2014-03-02T09:35:42Z</time>
      </trkpt>
      <trkpt lat="41.647325060" lon="2.533101830">
        <ele>262.50</ele>
        <time>2014-03-02T09:35:43Z</time>
      </trkpt>
      <trkpt lat="41.647340150" lon="2.533123450">
        <ele>262.60</ele>
        <time>2014-03-02T09:35:44Z</time>
      </trkpt>
      <trkpt lat="41.647356740" lon="2.533145080">
        <ele>262.70</ele>
        <time>2014-03-02T09:35:45Z</time>
      </trkpt>
      <trkpt lat="41.647371660" lon="2.533166700">
        <ele>262.80</ele>
        <time>2014-03-02T09:35:46Z</time>
      </trkpt>
      <trkpt lat="41.647385070" lon="2.533188490">
        <ele>262.80</ele>
        <time>2014-03-02T09:35:47Z</time>
      </trkpt>
      <trkpt lat="41.647400160" lon="2.533211800">
        <ele>262.80</ele>
        <time>2014-03-02T09:35:48Z</time>
      </trkpt>
      <trkpt lat="41.647413410" lon="2.533226720">
        <ele>263.30</ele>
        <time>2014-03-02T09:35:49Z</time>
      </trkpt>
      <trkpt lat="41.647425140" lon="2.533243480">
        <ele>263.60</ele>
        <time>2014-03-02T09:35:50Z</time>
      </trkpt>
      <trkpt lat="41.647435030" lon="2.533258400">
        <ele>263.80</ele>
        <time>2014-03-02T09:35:51Z</time>
      </trkpt>
      <trkpt lat="41.647445090" lon="2.533273490">
        <ele>264.00</ele>
        <time>2014-03-02T09:35:52Z</time>
      </trkpt>
      <trkpt lat="41.647453470" lon="2.533286730">
        <ele>264.20</ele>
        <time>2014-03-02T09:35:53Z</time>
      </trkpt>
      <trkpt lat="41.647458330" lon="2.533300140">
        <ele>264.10</ele>
        <time>2014-03-02T09:35:54Z</time>
      </trkpt>
      <trkpt lat="41.647465040" lon="2.533311710">
        <ele>264.00</ele>
        <time>2014-03-02T09:35:55Z</time>
      </trkpt>
      <trkpt lat="41.647470070" lon="2.533323440">
        <ele>264.60</ele>
        <time>2014-03-02T09:35:56Z</time>
      </trkpt>
      <trkpt lat="41.647476770" lon="2.533333330">
        <ele>265.10</ele>
        <time>2014-03-02T09:35:57Z</time>
      </trkpt>
      <trkpt lat="41.647483480" lon="2.533343390">
        <ele>265.00</ele>
        <time>2014-03-02T09:35:58Z</time>
      </trkpt>
      <trkpt lat="41.647486660" lon="2.533350100">
        <ele>265.00</ele>
        <time>2014-03-02T09:35:59Z</time>
      </trkpt>
      <trkpt lat="41.647488340" lon="2.533355130">
        <ele>264.90</ele>
        <time>2014-03-02T09:36:00Z</time>
      </trkpt>
      <trkpt lat="41.647490020" lon="2.533358480">
        <ele>265.10</ele>
        <time>2014-03-02T09:36:01Z</time>
      </trkpt>
      <trkpt lat="41.647493370" lon="2.533361660">
        <ele>265.20</ele>
        <time>2014-03-02T09:36:02Z</time>
      </trkpt>
      <trkpt lat="41.647495040" lon="2.533365020">
        <ele>265.50</ele>
        <time>2014-03-02T09:36:03Z</time>
      </trkpt>
      <trkpt lat="41.647498400" lon="2.533368370">
        <ele>265.70</ele>
        <time>2014-03-02T09:36:04Z</time>
      </trkpt>
      <trkpt lat="41.647501750" lon="2.533371720">
        <ele>265.90</ele>
        <time>2014-03-02T09:36:05Z</time>
      </trkpt>
      <trkpt lat="41.647505100" lon="2.533375080">
        <ele>265.60</ele>
        <time>2014-03-02T09:36:06Z</time>
      </trkpt>
      <trkpt lat="41.647508460" lon="2.533378430">
        <ele>265.30</ele>
        <time>2014-03-02T09:36:07Z</time>
      </trkpt>
      <trkpt lat="41.647511810" lon="2.533380100">
        <ele>265.30</ele>
        <time>2014-03-02T09:36:08Z</time>
      </trkpt>
      <trkpt lat="41.647515160" lon="2.533383460">
        <ele>265.20</ele>
        <time>2014-03-02T09:36:09Z</time>
      </trkpt>
      <trkpt lat="41.647518350" lon="2.533385130">
        <ele>265.10</ele>
        <time>2014-03-02T09:36:10Z</time>
      </trkpt>
      <trkpt lat="41.647520020" lon="2.533386810">
        <ele>265.00</ele>
        <time>2014-03-02T09:36:11Z</time>
      </trkpt>
      <trkpt lat="41.647523380" lon="2.533388490">
        <ele>264.90</ele>
        <time>2014-03-02T09:36:12Z</time>
      </trkpt>
      <trkpt lat="41.647526730" lon="2.533390000">
        <ele>265.20</ele>
        <time>2014-03-02T09:36:13Z</time>
      </trkpt>
      <trkpt lat="41.647530080" lon="2.533391670">
        <ele>265.40</ele>
        <time>2014-03-02T09:36:14Z</time>
      </trkpt>
      <trkpt lat="41.647533430" lon="2.533393350">
        <ele>265.50</ele>
        <time>2014-03-02T09:36:15Z</time>
      </trkpt>
      <trkpt lat="41.647535110" lon="2.533395020">
        <ele>265.60</ele>
        <time>2014-03-02T09:36:16Z</time>
      </trkpt>
      <trkpt lat="41.647540140" lon="2.533398380">
        <ele>265.90</ele>
        <time>2014-03-02T09:36:17Z</time>
      </trkpt>
      <trkpt lat="41.647541820" lon="2.533400050">
        <ele>266.10</ele>
        <time>2014-03-02T09:36:18Z</time>
      </trkpt>
      <trkpt lat="41.647548350" lon="2.533408440">
        <ele>266.30</ele>
        <time>2014-03-02T09:36:19Z</time>
      </trkpt>
      <trkpt lat="41.647558410" lon="2.533415140">
        <ele>266.20</ele>
        <time>2014-03-02T09:36:20Z</time>
      </trkpt>
      <trkpt lat="41.647565120" lon="2.533418490">
        <ele>266.20</ele>
        <time>2014-03-02T09:36:21Z</time>
      </trkpt>
      <trkpt lat="41.647570150" lon="2.533418490">
        <ele>266.20</ele>
        <time>2014-03-02T09:36:22Z</time>
      </trkpt>
      <trkpt lat="41.647576680" lon="2.533423360">
        <ele>266.20</ele>
        <time>2014-03-02T09:36:23Z</time>
      </trkpt>
      <trkpt lat="41.647585070" lon="2.533431740">
        <ele>266.30</ele>
        <time>2014-03-02T09:36:24Z</time>
      </trkpt>
      <trkpt lat="41.647591770" lon="2.533435090">
        <ele>266.40</ele>
        <time>2014-03-02T09:36:25Z</time>
      </trkpt>
      <trkpt lat="41.647598480" lon="2.533440120">
        <ele>266.50</ele>
        <time>2014-03-02T09:36:26Z</time>
      </trkpt>
      <trkpt lat="41.647603340" lon="2.533445150">
        <ele>266.40</ele>
        <time>2014-03-02T09:36:27Z</time>
      </trkpt>
      <trkpt lat="41.647615070" lon="2.533451690">
        <ele>266.40</ele>
        <time>2014-03-02T09:36:28Z</time>
      </trkpt>
      <trkpt lat="41.647628480" lon="2.533460070">
        <ele>266.50</ele>
        <time>2014-03-02T09:36:29Z</time>
      </trkpt>
      <trkpt lat="41.647640050" lon="2.533470130">
        <ele>266.60</ele>
        <time>2014-03-02T09:36:30Z</time>
      </trkpt>
      <trkpt lat="41.647648430" lon="2.533481690">
        <ele>266.60</ele>
        <time>2014-03-02T09:36:31Z</time>
      </trkpt>
      <trkpt lat="41.647655140" lon="2.533490080">
        <ele>267.00</ele>
        <time>2014-03-02T09:36:32Z</time>
      </trkpt>
      <trkpt lat="41.647665030" lon="2.533498460">
        <ele>267.20</ele>
        <time>2014-03-02T09:36:33Z</time>
      </trkpt>
      <trkpt lat="41.647675090" lon="2.533503490">
        <ele>267.30</ele>
        <time>2014-03-02T09:36:34Z</time>
      </trkpt>
      <trkpt lat="41.647685150" lon="2.533510020">
        <ele>267.40</ele>
        <time>2014-03-02T09:36:35Z</time>
      </trkpt>
      <trkpt lat="41.647696710" lon="2.533518410">
        <ele>267.50</ele>
        <time>2014-03-02T09:36:36Z</time>
      </trkpt>
      <trkpt lat="41.647706770" lon="2.533525110">
        <ele>267.50</ele>
        <time>2014-03-02T09:36:37Z</time>
      </trkpt>
      <trkpt lat="41.647715150" lon="2.533535000">
        <ele>267.60</ele>
        <time>2014-03-02T09:36:38Z</time>
      </trkpt>
      <trkpt lat="41.647721690" lon="2.533548410">
        <ele>268.00</ele>
        <time>2014-03-02T09:36:39Z</time>
      </trkpt>
      <trkpt lat="41.647728400" lon="2.533556800">
        <ele>268.40</ele>
        <time>2014-03-02T09:36:40Z</time>
      </trkpt>
      <trkpt lat="41.647735100" lon="2.533561820">
        <ele>268.60</ele>
        <time>2014-03-02T09:36:41Z</time>
      </trkpt>
      <trkpt lat="41.647740130" lon="2.533563330">
        <ele>268.80</ele>
        <time>2014-03-02T09:36:42Z</time>
      </trkpt>
      <trkpt lat="41.647748350" lon="2.533568360">
        <ele>269.00</ele>
        <time>2014-03-02T09:36:43Z</time>
      </trkpt>
      <trkpt lat="41.647756730" lon="2.533573390">
        <ele>269.10</ele>
        <time>2014-03-02T09:36:44Z</time>
      </trkpt>
      <trkpt lat="41.647765110" lon="2.533583450">
        <ele>269.30</ele>
        <time>2014-03-02T09:36:45Z</time>
      </trkpt>
      <trkpt lat="41.647771820" lon="2.533591660">
        <ele>269.30</ele>
        <time>2014-03-02T09:36:46Z</time>
      </trkpt>
      <trkpt lat="41.647776680" lon="2.533601720">
        <ele>269.30</ele>
        <time>2014-03-02T09:36:47Z</time>
      </trkpt>
      <trkpt lat="41.647781710" lon="2.533610100">
        <ele>269.50</ele>
        <time>2014-03-02T09:36:48Z</time>
      </trkpt>
      <trkpt lat="41.647785060" lon="2.533613460">
        <ele>269.60</ele>
        <time>2014-03-02T09:36:49Z</time>
      </trkpt>
      <trkpt lat="41.647785060" lon="2.533616810">
        <ele>269.70</ele>
        <time>2014-03-02T09:36:50Z</time>
      </trkpt>
      <trkpt lat="41.647786740" lon="2.533618490">
        <ele>269.90</ele>
        <time>2014-03-02T09:36:51Z</time>
      </trkpt>
      <trkpt lat="41.647788410" lon="2.533621670">
        <ele>270.10</ele>
        <time>2014-03-02T09:36:52Z</time>
      </trkpt>
      <trkpt lat="41.647791760" lon="2.533623350">
        <ele>270.20</ele>
        <time>2014-03-02T09:36:53Z</time>
      </trkpt>
      <trkpt lat="41.647795120" lon="2.533625020">
        <ele>270.30</ele>
        <time>2014-03-02T09:36:54Z</time>
      </trkpt>
      <trkpt lat="41.647798470" lon="2.533625020">
        <ele>270.20</ele>
        <time>2014-03-02T09:36:55Z</time>
      </trkpt>
      <trkpt lat="41.647800150" lon="2.533631730">
        <ele>270.10</ele>
        <time>2014-03-02T09:36:56Z</time>
      </trkpt>
      <trkpt lat="41.647801820" lon="2.533635080">
        <ele>270.10</ele>
        <time>2014-03-02T09:36:57Z</time>
      </trkpt>
      <trkpt lat="41.647803330" lon="2.533638440">
        <ele>270.00</ele>
        <time>2014-03-02T09:36:58Z</time>
      </trkpt>
      <trkpt lat="41.647805010" lon="2.533641790">
        <ele>270.00</ele>
        <time>2014-03-02T09:36:59Z</time>
      </trkpt>
      <trkpt lat="41.647800150" lon="2.533643460">
        <ele>270.30</ele>
        <time>2014-03-02T09:37:00Z</time>
      </trkpt>
      <trkpt lat="41.647795120" lon="2.533640110">
        <ele>270.40</ele>
        <time>2014-03-02T09:37:01Z</time>
      </trkpt>
      <trkpt lat="41.647786740" lon="2.533633410">
        <ele>270.70</ele>
        <time>2014-03-02T09:37:02Z</time>
      </trkpt>
      <trkpt lat="41.647773490" lon="2.533623350">
        <ele>271.00</ele>
        <time>2014-03-02T09:37:03Z</time>
      </trkpt>
      <trkpt lat="41.647758400" lon="2.533613460">
        <ele>271.10</ele>
        <time>2014-03-02T09:37:04Z</time>
      </trkpt>
      <trkpt lat="41.647743480" lon="2.533600050">
        <ele>271.00</ele>
        <time>2014-03-02T09:37:05Z</time>
      </trkpt>
      <trkpt lat="41.647730070" lon="2.533590160">
        <ele>270.90</ele>
        <time>2014-03-02T09:37:06Z</time>
      </trkpt>
      <trkpt lat="41.647715150" lon="2.533583450">
        <ele>270.80</ele>
        <time>2014-03-02T09:37:07Z</time>
      </trkpt>
      <trkpt lat="41.647696710" lon="2.533575070">
        <ele>270.60</ele>
        <time>2014-03-02T09:37:08Z</time>
      </trkpt>
      <trkpt lat="41.647681790" lon="2.533568360">
        <ele>270.50</ele>
        <time>2014-03-02T09:37:09Z</time>
      </trkpt>
      <trkpt lat="41.647670060" lon="2.533563330">
        <ele>270.60</ele>
        <time>2014-03-02T09:37:10Z</time>
      </trkpt>
      <trkpt lat="41.647660000" lon="2.533558470">
        <ele>270.60</ele>
        <time>2014-03-02T09:37:11Z</time>
      </trkpt>
      <trkpt lat="41.647645080" lon="2.533548410">
        <ele>270.20</ele>
        <time>2014-03-02T09:37:12Z</time>
      </trkpt>
      <trkpt lat="41.647631670" lon="2.533540030">
        <ele>269.90</ele>
        <time>2014-03-02T09:37:13Z</time>
      </trkpt>
      <trkpt lat="41.647618430" lon="2.533531820">
        <ele>269.60</ele>
        <time>2014-03-02T09:37:14Z</time>
      </trkpt>
      <trkpt lat="41.647603340" lon="2.533523440">
        <ele>269.40</ele>
        <time>2014-03-02T09:37:15Z</time>
      </trkpt>
      <trkpt lat="41.647590100" lon="2.533518410">
        <ele>269.20</ele>
        <time>2014-03-02T09:37:16Z</time>
      </trkpt>
      <trkpt lat="41.647581710" lon="2.533516730">
        <ele>268.70</ele>
        <time>2014-03-02T09:37:17Z</time>
      </trkpt>
      <trkpt lat="41.647573330" lon="2.533518410">
        <ele>268.30</ele>
        <time>2014-03-02T09:37:18Z</time>
      </trkpt>
      <trkpt lat="41.647566790" lon="2.533530140">
        <ele>268.40</ele>
        <time>2014-03-02T09:37:19Z</time>
      </trkpt>
      <trkpt lat="41.647570150" lon="2.533543380">
        <ele>268.50</ele>
        <time>2014-03-02T09:37:20Z</time>
      </trkpt>
      <trkpt lat="41.647575010" lon="2.533563330">
        <ele>268.50</ele>
        <time>2014-03-02T09:37:21Z</time>
      </trkpt>
      <trkpt lat="41.647583390" lon="2.533588480">
        <ele>268.50</ele>
        <time>2014-03-02T09:37:22Z</time>
      </trkpt>
      <trkpt lat="41.647595120" lon="2.533603400">
        <ele>268.50</ele>
        <time>2014-03-02T09:37:23Z</time>
      </trkpt>
      <trkpt lat="41.647605020" lon="2.533626700">
        <ele>268.10</ele>
        <time>2014-03-02T09:37:24Z</time>
      </trkpt>
      <trkpt lat="41.647610040" lon="2.533653350">
        <ele>267.90</ele>
        <time>2014-03-02T09:37:25Z</time>
      </trkpt>
      <trkpt lat="41.647615070" lon="2.533678330">
        <ele>267.50</ele>
        <time>2014-03-02T09:37:26Z</time>
      </trkpt>
      <trkpt lat="41.647620100" lon="2.533706660">
        <ele>267.30</ele>
        <time>2014-03-02T09:37:27Z</time>
      </trkpt>
      <trkpt lat="41.647623460" lon="2.533733490">
        <ele>267.10</ele>
        <time>2014-03-02T09:37:28Z</time>
      </trkpt>
      <trkpt lat="41.647630160" lon="2.533753430">
        <ele>266.90</ele>
        <time>2014-03-02T09:37:29Z</time>
      </trkpt>
      <trkpt lat="41.647635020" lon="2.533778410">
        <ele>266.70</ele>
        <time>2014-03-02T09:37:30Z</time>
      </trkpt>
      <trkpt lat="41.647635020" lon="2.533808420">
        <ele>266.80</ele>
        <time>2014-03-02T09:37:31Z</time>
      </trkpt>
      <trkpt lat="41.647638380" lon="2.533831720">
        <ele>267.00</ele>
        <time>2014-03-02T09:37:32Z</time>
      </trkpt>
      <trkpt lat="41.647643400" lon="2.533853350">
        <ele>267.00</ele>
        <time>2014-03-02T09:37:33Z</time>
      </trkpt>
      <trkpt lat="41.647646760" lon="2.533875140">
        <ele>267.10</ele>
        <time>2014-03-02T09:37:34Z</time>
      </trkpt>
      <trkpt lat="41.647651790" lon="2.533893410">
        <ele>267.10</ele>
        <time>2014-03-02T09:37:35Z</time>
      </trkpt>
      <trkpt lat="41.647655140" lon="2.533910010">
        <ele>267.20</ele>
        <time>2014-03-02T09:37:36Z</time>
      </trkpt>
      <trkpt lat="41.647656820" lon="2.533930130">
        <ele>267.20</ele>
        <time>2014-03-02T09:37:37Z</time>
      </trkpt>
      <trkpt lat="41.647656820" lon="2.533950070">
        <ele>267.80</ele>
        <time>2014-03-02T09:37:38Z</time>
      </trkpt>
      <trkpt lat="41.647656820" lon="2.533971700">
        <ele>268.20</ele>
        <time>2014-03-02T09:37:39Z</time>
      </trkpt>
      <trkpt lat="41.647656820" lon="2.533990140">
        <ele>268.30</ele>
        <time>2014-03-02T09:37:40Z</time>
      </trkpt>
      <trkpt lat="41.647658490" lon="2.534008410">
        <ele>268.30</ele>
        <time>2014-03-02T09:37:41Z</time>
      </trkpt>
      <trkpt lat="41.647658490" lon="2.534026680">
        <ele>268.40</ele>
        <time>2014-03-02T09:37:42Z</time>
      </trkpt>
      <trkpt lat="41.647656820" lon="2.534046800">
        <ele>268.80</ele>
        <time>2014-03-02T09:37:43Z</time>
      </trkpt>
      <trkpt lat="41.647656820" lon="2.534068430">
        <ele>269.10</ele>
        <time>2014-03-02T09:37:44Z</time>
      </trkpt>
      <trkpt lat="41.647653460" lon="2.534086700">
        <ele>269.40</ele>
        <time>2014-03-02T09:37:45Z</time>
      </trkpt>
      <trkpt lat="41.647653460" lon="2.534106820">
        <ele>269.70</ele>
        <time>2014-03-02T09:37:46Z</time>
      </trkpt>
      <trkpt lat="41.647653460" lon="2.534128440">
        <ele>269.90</ele>
        <time>2014-03-02T09:37:47Z</time>
      </trkpt>
      <trkpt lat="41.647653460" lon="2.534148390">
        <ele>270.20</ele>
        <time>2014-03-02T09:37:48Z</time>
      </trkpt>
      <trkpt lat="41.647651790" lon="2.534168340">
        <ele>270.40</ele>
        <time>2014-03-02T09:37:49Z</time>
      </trkpt>
      <trkpt lat="41.647650110" lon="2.534188460">
        <ele>270.70</ele>
        <time>2014-03-02T09:37:50Z</time>
      </trkpt>
      <trkpt lat="41.647646760" lon="2.534208400">
        <ele>270.90</ele>
        <time>2014-03-02T09:37:51Z</time>
      </trkpt>
      <trkpt lat="41.647646760" lon="2.534226680">
        <ele>271.30</ele>
        <time>2014-03-02T09:37:52Z</time>
      </trkpt>
      <trkpt lat="41.647645080" lon="2.534246790">
        <ele>271.50</ele>
        <time>2014-03-02T09:37:53Z</time>
      </trkpt>
      <trkpt lat="41.647641730" lon="2.534263390">
        <ele>271.70</ele>
        <time>2014-03-02T09:37:54Z</time>
      </trkpt>
      <trkpt lat="41.647640050" lon="2.534280150">
        <ele>271.70</ele>
        <time>2014-03-02T09:37:55Z</time>
      </trkpt>
      <trkpt lat="41.647635020" lon="2.534300100">
        <ele>271.70</ele>
        <time>2014-03-02T09:37:56Z</time>
      </trkpt>
      <trkpt lat="41.647630160" lon="2.534323400">
        <ele>272.00</ele>
        <time>2014-03-02T09:37:57Z</time>
      </trkpt>
      <trkpt lat="41.647631670" lon="2.534343350">
        <ele>272.30</ele>
        <time>2014-03-02T09:37:58Z</time>
      </trkpt>
      <trkpt lat="41.647630160" lon="2.534363470">
        <ele>272.40</ele>
        <time>2014-03-02T09:37:59Z</time>
      </trkpt>
      <trkpt lat="41.647626810" lon="2.534381740">
        <ele>272.60</ele>
        <time>2014-03-02T09:38:00Z</time>
      </trkpt>
      <trkpt lat="41.647623460" lon="2.534403370">
        <ele>272.70</ele>
        <time>2014-03-02T09:38:01Z</time>
      </trkpt>
      <trkpt lat="41.647620100" lon="2.534425160">
        <ele>272.80</ele>
        <time>2014-03-02T09:38:02Z</time>
      </trkpt>
      <trkpt lat="41.647615070" lon="2.534445110">
        <ele>273.00</ele>
        <time>2014-03-02T09:38:03Z</time>
      </trkpt>
      <trkpt lat="41.647608370" lon="2.534465060">
        <ele>273.60</ele>
        <time>2014-03-02T09:38:04Z</time>
      </trkpt>
      <trkpt lat="41.647605020" lon="2.534485010">
        <ele>274.10</ele>
        <time>2014-03-02T09:38:05Z</time>
      </trkpt>
      <trkpt lat="41.647605020" lon="2.534500090">
        <ele>274.50</ele>
        <time>2014-03-02T09:38:06Z</time>
      </trkpt>
      <trkpt lat="41.647601660" lon="2.534515010">
        <ele>274.50</ele>
        <time>2014-03-02T09:38:07Z</time>
      </trkpt>
      <trkpt lat="41.647595120" lon="2.534531780">
        <ele>274.50</ele>
        <time>2014-03-02T09:38:08Z</time>
      </trkpt>
      <trkpt lat="41.647588420" lon="2.534548370">
        <ele>274.90</ele>
        <time>2014-03-02T09:38:09Z</time>
      </trkpt>
      <trkpt lat="41.647581710" lon="2.534565140">
        <ele>275.20</ele>
        <time>2014-03-02T09:38:10Z</time>
      </trkpt>
      <trkpt lat="41.647573330" lon="2.534583410">
        <ele>275.10</ele>
        <time>2014-03-02T09:38:11Z</time>
      </trkpt>
      <trkpt lat="41.647561760" lon="2.534598330">
        <ele>275.10</ele>
        <time>2014-03-02T09:38:12Z</time>
      </trkpt>
      <trkpt lat="41.647553380" lon="2.534613420">
        <ele>275.10</ele>
        <time>2014-03-02T09:38:13Z</time>
      </trkpt>
      <trkpt lat="41.647546680" lon="2.534628340">
        <ele>275.30</ele>
        <time>2014-03-02T09:38:14Z</time>
      </trkpt>
      <trkpt lat="41.647536790" lon="2.534645100">
        <ele>275.50</ele>
        <time>2014-03-02T09:38:15Z</time>
      </trkpt>
      <trkpt lat="41.647528400" lon="2.534660020">
        <ele>275.60</ele>
        <time>2014-03-02T09:38:16Z</time>
      </trkpt>
      <trkpt lat="41.647520020" lon="2.534673430">
        <ele>275.60</ele>
        <time>2014-03-02T09:38:17Z</time>
      </trkpt>
      <trkpt lat="41.647510130" lon="2.534690030">
        <ele>275.50</ele>
        <time>2014-03-02T09:38:18Z</time>
      </trkpt>
      <trkpt lat="41.647500070" lon="2.534710150">
        <ele>275.40</ele>
        <time>2014-03-02T09:38:19Z</time>
      </trkpt>
      <trkpt lat="41.647493370" lon="2.534721710">
        <ele>275.40</ele>
        <time>2014-03-02T09:38:20Z</time>
      </trkpt>
      <trkpt lat="41.647485150" lon="2.534735120">
        <ele>275.70</ele>
        <time>2014-03-02T09:38:21Z</time>
      </trkpt>
      <trkpt lat="41.647476770" lon="2.534748370">
        <ele>275.90</ele>
        <time>2014-03-02T09:38:22Z</time>
      </trkpt>
      <trkpt lat="41.647468390" lon="2.534761780">
        <ele>276.50</ele>
        <time>2014-03-02T09:38:23Z</time>
      </trkpt>
      <trkpt lat="41.647461690" lon="2.534776700">
        <ele>277.00</ele>
        <time>2014-03-02T09:38:24Z</time>
      </trkpt>
      <trkpt lat="41.647455150" lon="2.534788430">
        <ele>277.30</ele>
        <time>2014-03-02T09:38:25Z</time>
      </trkpt>
      <trkpt lat="41.647451790" lon="2.534796810">
        <ele>277.40</ele>
        <time>2014-03-02T09:38:26Z</time>
      </trkpt>
      <trkpt lat="41.647445090" lon="2.534808380">
        <ele>277.50</ele>
        <time>2014-03-02T09:38:27Z</time>
      </trkpt>
      <trkpt lat="41.647438380" lon="2.534826820">
        <ele>277.60</ele>
        <time>2014-03-02T09:38:28Z</time>
      </trkpt>
      <trkpt lat="41.647430000" lon="2.534843420">
        <ele>277.60</ele>
        <time>2014-03-02T09:38:29Z</time>
      </trkpt>
      <trkpt lat="41.647421790" lon="2.534861690">
        <ele>278.00</ele>
        <time>2014-03-02T09:38:30Z</time>
      </trkpt>
      <trkpt lat="41.647413410" lon="2.534880130">
        <ele>278.20</ele>
        <time>2014-03-02T09:38:31Z</time>
      </trkpt>
      <trkpt lat="41.647405020" lon="2.534896730">
        <ele>278.40</ele>
        <time>2014-03-02T09:38:32Z</time>
      </trkpt>
      <trkpt lat="41.647396810" lon="2.534915000">
        <ele>278.40</ele>
        <time>2014-03-02T09:38:33Z</time>
      </trkpt>
      <trkpt lat="41.647388430" lon="2.534935120">
        <ele>278.40</ele>
        <time>2014-03-02T09:38:34Z</time>
      </trkpt>
      <trkpt lat="41.647380050" lon="2.534951710">
        <ele>278.80</ele>
        <time>2014-03-02T09:38:35Z</time>
      </trkpt>
      <trkpt lat="41.647371660" lon="2.534971830">
        <ele>279.10</ele>
        <time>2014-03-02T09:38:36Z</time>
      </trkpt>
      <trkpt lat="41.647363450" lon="2.534991780">
        <ele>279.40</ele>
        <time>2014-03-02T09:38:37Z</time>
      </trkpt>
      <trkpt lat="41.647353390" lon="2.535013400">
        <ele>279.60</ele>
        <time>2014-03-02T09:38:38Z</time>
      </trkpt>
      <trkpt lat="41.647341820" lon="2.535031680">
        <ele>279.70</ele>
        <time>2014-03-02T09:38:39Z</time>
      </trkpt>
      <trkpt lat="41.647331770" lon="2.535051790">
        <ele>280.00</ele>
        <time>2014-03-02T09:38:40Z</time>
      </trkpt>
      <trkpt lat="41.647323380" lon="2.535073420">
        <ele>280.20</ele>
        <time>2014-03-02T09:38:41Z</time>
      </trkpt>
      <trkpt lat="41.647316680" lon="2.535095040">
        <ele>280.90</ele>
        <time>2014-03-02T09:38:42Z</time>
      </trkpt>
      <trkpt lat="41.647311820" lon="2.535120020">
        <ele>281.40</ele>
        <time>2014-03-02T09:38:43Z</time>
      </trkpt>
      <trkpt lat="41.647306790" lon="2.535143490">
        <ele>281.50</ele>
        <time>2014-03-02T09:38:44Z</time>
      </trkpt>
      <trkpt lat="41.647300080" lon="2.535163440">
        <ele>281.60</ele>
        <time>2014-03-02T09:38:45Z</time>
      </trkpt>
      <trkpt lat="41.647298410" lon="2.535178360">
        <ele>281.70</ele>
        <time>2014-03-02T09:38:46Z</time>
      </trkpt>
      <trkpt lat="41.647295050" lon="2.535196800">
        <ele>281.90</ele>
        <time>2014-03-02T09:38:47Z</time>
      </trkpt>
      <trkpt lat="41.647290020" lon="2.535215070">
        <ele>282.10</ele>
        <time>2014-03-02T09:38:48Z</time>
      </trkpt>
      <trkpt lat="41.647285160" lon="2.535235020">
        <ele>282.00</ele>
        <time>2014-03-02T09:38:49Z</time>
      </trkpt>
      <trkpt lat="41.647281810" lon="2.535253460">
        <ele>282.00</ele>
        <time>2014-03-02T09:38:50Z</time>
      </trkpt>
      <trkpt lat="41.647275100" lon="2.535273410">
        <ele>282.00</ele>
        <time>2014-03-02T09:38:51Z</time>
      </trkpt>
      <trkpt lat="41.647268400" lon="2.535296710">
        <ele>282.30</ele>
        <time>2014-03-02T09:38:52Z</time>
      </trkpt>
      <trkpt lat="41.647263370" lon="2.535320010">
        <ele>282.60</ele>
        <time>2014-03-02T09:38:53Z</time>
      </trkpt>
      <trkpt lat="41.647256660" lon="2.535343480">
        <ele>282.30</ele>
        <time>2014-03-02T09:38:54Z</time>
      </trkpt>
      <trkpt lat="41.647250130" lon="2.535366780">
        <ele>282.10</ele>
        <time>2014-03-02T09:38:55Z</time>
      </trkpt>
      <trkpt lat="41.647241740" lon="2.535390090">
        <ele>282.50</ele>
        <time>2014-03-02T09:38:56Z</time>
      </trkpt>
      <trkpt lat="41.647235040" lon="2.535413390">
        <ele>282.90</ele>
        <time>2014-03-02T09:38:57Z</time>
      </trkpt>
      <trkpt lat="41.647230010" lon="2.535435010">
        <ele>283.10</ele>
        <time>2014-03-02T09:38:58Z</time>
      </trkpt>
      <trkpt lat="41.647225150" lon="2.535456810">
        <ele>283.00</ele>
        <time>2014-03-02T09:38:59Z</time>
      </trkpt>
      <trkpt lat="41.647220120" lon="2.535478430">
        <ele>282.90</ele>
        <time>2014-03-02T09:39:00Z</time>
      </trkpt>
      <trkpt lat="41.647215090" lon="2.535500060">
        <ele>283.40</ele>
        <time>2014-03-02T09:39:01Z</time>
      </trkpt>
      <trkpt lat="41.647210060" lon="2.535521680">
        <ele>283.70</ele>
        <time>2014-03-02T09:39:02Z</time>
      </trkpt>
      <trkpt lat="41.647203350" lon="2.535546830">
        <ele>283.80</ele>
        <time>2014-03-02T09:39:03Z</time>
      </trkpt>
      <trkpt lat="41.647198490" lon="2.535570130">
        <ele>283.90</ele>
        <time>2014-03-02T09:39:04Z</time>
      </trkpt>
      <trkpt lat="41.647196820" lon="2.535586720">
        <ele>283.90</ele>
        <time>2014-03-02T09:39:05Z</time>
      </trkpt>
      <trkpt lat="41.647190110" lon="2.535606670">
        <ele>284.00</ele>
        <time>2014-03-02T09:39:06Z</time>
      </trkpt>
      <trkpt lat="41.647185080" lon="2.535621760">
        <ele>284.00</ele>
        <time>2014-03-02T09:39:07Z</time>
      </trkpt>
      <trkpt lat="41.647180050" lon="2.535638360">
        <ele>284.30</ele>
        <time>2014-03-02T09:39:08Z</time>
      </trkpt>
      <trkpt lat="41.647175020" lon="2.535655120">
        <ele>284.50</ele>
        <time>2014-03-02T09:39:09Z</time>
      </trkpt>
      <trkpt lat="41.647168490" lon="2.535671720">
        <ele>284.60</ele>
        <time>2014-03-02T09:39:10Z</time>
      </trkpt>
      <trkpt lat="41.647160100" lon="2.535688480">
        <ele>284.70</ele>
        <time>2014-03-02T09:39:11Z</time>
      </trkpt>
      <trkpt lat="41.647148370" lon="2.535703400">
        <ele>284.80</ele>
        <time>2014-03-02T09:39:12Z</time>
      </trkpt>
      <trkpt lat="41.647145020" lon="2.535721670">
        <ele>285.00</ele>
        <time>2014-03-02T09:39:13Z</time>
      </trkpt>
      <trkpt lat="41.647138480" lon="2.535741790">
        <ele>285.10</ele>
        <time>2014-03-02T09:39:14Z</time>
      </trkpt>
      <trkpt lat="41.647133450" lon="2.535761740">
        <ele>285.60</ele>
        <time>2014-03-02T09:39:15Z</time>
      </trkpt>
      <trkpt lat="41.647125070" lon="2.535783360">
        <ele>285.90</ele>
        <time>2014-03-02T09:39:16Z</time>
      </trkpt>
      <trkpt lat="41.647116690" lon="2.535800130">
        <ele>286.20</ele>
        <time>2014-03-02T09:39:17Z</time>
      </trkpt>
      <trkpt lat="41.647106800" lon="2.535818400">
        <ele>286.30</ele>
        <time>2014-03-02T09:39:18Z</time>
      </trkpt>
      <trkpt lat="41.647098410" lon="2.535836670">
        <ele>286.50</ele>
        <time>2014-03-02T09:39:19Z</time>
      </trkpt>
      <trkpt lat="41.647091710" lon="2.535853440">
        <ele>286.60</ele>
        <time>2014-03-02T09:39:20Z</time>
      </trkpt>
      <trkpt lat="41.647083490" lon="2.535868360">
        <ele>286.80</ele>
        <time>2014-03-02T09:39:21Z</time>
      </trkpt>
      <trkpt lat="41.647075110" lon="2.535883440">
        <ele>287.00</ele>
        <time>2014-03-02T09:39:22Z</time>
      </trkpt>
      <trkpt lat="41.647068410" lon="2.535896690">
        <ele>287.10</ele>
        <time>2014-03-02T09:39:23Z</time>
      </trkpt>
      <trkpt lat="41.647063380" lon="2.535911770">
        <ele>287.20</ele>
        <time>2014-03-02T09:39:24Z</time>
      </trkpt>
      <trkpt lat="41.647056670" lon="2.535925020">
        <ele>287.40</ele>
        <time>2014-03-02T09:39:25Z</time>
      </trkpt>
      <trkpt lat="41.647048460" lon="2.535940110">
        <ele>287.60</ele>
        <time>2014-03-02T09:39:26Z</time>
      </trkpt>
      <trkpt lat="41.647040080" lon="2.535953350">
        <ele>287.80</ele>
        <time>2014-03-02T09:39:27Z</time>
      </trkpt>
      <trkpt lat="41.647030020" lon="2.535970110">
        <ele>287.90</ele>
        <time>2014-03-02T09:39:28Z</time>
      </trkpt>
      <trkpt lat="41.647020130" lon="2.535983360">
        <ele>288.10</ele>
        <time>2014-03-02T09:39:29Z</time>
      </trkpt>
      <trkpt lat="41.647011740" lon="2.535998440">
        <ele>288.20</ele>
        <time>2014-03-02T09:39:30Z</time>
      </trkpt>
      <trkpt lat="41.647000010" lon="2.536018390">
        <ele>288.30</ele>
        <time>2014-03-02T09:39:31Z</time>
      </trkpt>
      <trkpt lat="41.646988440" lon="2.536035160">
        <ele>288.40</ele>
        <time>2014-03-02T09:39:32Z</time>
      </trkpt>
      <trkpt lat="41.646978380" lon="2.536048400">
        <ele>288.50</ele>
        <time>2014-03-02T09:39:33Z</time>
      </trkpt>
      <trkpt lat="41.646966820" lon="2.536063490">
        <ele>289.00</ele>
        <time>2014-03-02T09:39:34Z</time>
      </trkpt>
      <trkpt lat="41.646956760" lon="2.536076730">
        <ele>289.30</ele>
        <time>2014-03-02T09:39:35Z</time>
      </trkpt>
      <trkpt lat="41.646946700" lon="2.536090140">
        <ele>289.60</ele>
        <time>2014-03-02T09:39:36Z</time>
      </trkpt>
      <trkpt lat="41.646935130" lon="2.536103390">
        <ele>289.90</ele>
        <time>2014-03-02T09:39:37Z</time>
      </trkpt>
      <trkpt lat="41.646925080" lon="2.536115120">
        <ele>290.10</ele>
        <time>2014-03-02T09:39:38Z</time>
      </trkpt>
      <trkpt lat="41.646913340" lon="2.536128360">
        <ele>290.00</ele>
        <time>2014-03-02T09:39:39Z</time>
      </trkpt>
      <trkpt lat="41.646900100" lon="2.536141770">
        <ele>289.90</ele>
        <time>2014-03-02T09:39:40Z</time>
      </trkpt>
      <trkpt lat="41.646886690" lon="2.536155020">
        <ele>289.80</ele>
        <time>2014-03-02T09:39:41Z</time>
      </trkpt>
      <trkpt lat="41.646875120" lon="2.536166750">
        <ele>289.70</ele>
        <time>2014-03-02T09:39:42Z</time>
      </trkpt>
      <trkpt lat="41.646863380" lon="2.536183350">
        <ele>289.60</ele>
        <time>2014-03-02T09:39:43Z</time>
      </trkpt>
      <trkpt lat="41.646851820" lon="2.536200110">
        <ele>289.60</ele>
        <time>2014-03-02T09:39:44Z</time>
      </trkpt>
      <trkpt lat="41.646840080" lon="2.536211680">
        <ele>289.60</ele>
        <time>2014-03-02T09:39:45Z</time>
      </trkpt>
      <trkpt lat="41.646828350" lon="2.536223410">
        <ele>289.60</ele>
        <time>2014-03-02T09:39:46Z</time>
      </trkpt>
      <trkpt lat="41.646818460" lon="2.536235150">
        <ele>289.60</ele>
        <time>2014-03-02T09:39:47Z</time>
      </trkpt>
      <trkpt lat="41.646806720" lon="2.536248390">
        <ele>289.60</ele>
        <time>2014-03-02T09:39:48Z</time>
      </trkpt>
      <trkpt lat="41.646795160" lon="2.536265160">
        <ele>290.00</ele>
        <time>2014-03-02T09:39:49Z</time>
      </trkpt>
      <trkpt lat="41.646783420" lon="2.536283430">
        <ele>290.40</ele>
        <time>2014-03-02T09:39:50Z</time>
      </trkpt>
      <trkpt lat="41.646771690" lon="2.536300020">
        <ele>291.00</ele>
        <time>2014-03-02T09:39:51Z</time>
      </trkpt>
      <trkpt lat="41.646758440" lon="2.536315110">
        <ele>291.40</ele>
        <time>2014-03-02T09:39:52Z</time>
      </trkpt>
      <trkpt lat="41.646745030" lon="2.536330030">
        <ele>291.60</ele>
        <time>2014-03-02T09:39:53Z</time>
      </trkpt>
      <trkpt lat="41.646731790" lon="2.536345120">
        <ele>291.70</ele>
        <time>2014-03-02T09:39:54Z</time>
      </trkpt>
      <trkpt lat="41.646720050" lon="2.536361720">
        <ele>291.80</ele>
        <time>2014-03-02T09:39:55Z</time>
      </trkpt>
      <trkpt lat="41.646708490" lon="2.536380160">
        <ele>292.20</ele>
        <time>2014-03-02T09:39:56Z</time>
      </trkpt>
      <trkpt lat="41.646695080" lon="2.536396750">
        <ele>292.60</ele>
        <time>2014-03-02T09:39:57Z</time>
      </trkpt>
      <trkpt lat="41.646683340" lon="2.536413350">
        <ele>292.40</ele>
        <time>2014-03-02T09:39:58Z</time>
      </trkpt>
      <trkpt lat="41.646670100" lon="2.536430110">
        <ele>292.20</ele>
        <time>2014-03-02T09:39:59Z</time>
      </trkpt>
      <trkpt lat="41.646658360" lon="2.536448380">
        <ele>292.60</ele>
        <time>2014-03-02T09:40:00Z</time>
      </trkpt>
      <trkpt lat="41.646646800" lon="2.536468330">
        <ele>292.80</ele>
        <time>2014-03-02T09:40:01Z</time>
      </trkpt>
      <trkpt lat="41.646636740" lon="2.536486770">
        <ele>293.00</ele>
        <time>2014-03-02T09:40:02Z</time>
      </trkpt>
      <trkpt lat="41.646625000" lon="2.536505050">
        <ele>293.20</ele>
        <time>2014-03-02T09:40:03Z</time>
      </trkpt>
      <trkpt lat="41.646613440" lon="2.536521810">
        <ele>293.30</ele>
        <time>2014-03-02T09:40:04Z</time>
      </trkpt>
      <trkpt lat="41.646603380" lon="2.536540080">
        <ele>293.20</ele>
        <time>2014-03-02T09:40:05Z</time>
      </trkpt>
      <trkpt lat="41.646593490" lon="2.536556680">
        <ele>293.10</ele>
        <time>2014-03-02T09:40:06Z</time>
      </trkpt>
      <trkpt lat="41.646581750" lon="2.536571770">
        <ele>293.10</ele>
        <time>2014-03-02T09:40:07Z</time>
      </trkpt>
      <trkpt lat="41.646573370" lon="2.536590040">
        <ele>293.30</ele>
        <time>2014-03-02T09:40:08Z</time>
      </trkpt>
      <trkpt lat="41.646566670" lon="2.536608480">
        <ele>293.50</ele>
        <time>2014-03-02T09:40:09Z</time>
      </trkpt>
      <trkpt lat="41.646560130" lon="2.536625070">
        <ele>293.70</ele>
        <time>2014-03-02T09:40:10Z</time>
      </trkpt>
      <trkpt lat="41.646553420" lon="2.536641670">
        <ele>293.90</ele>
        <time>2014-03-02T09:40:11Z</time>
      </trkpt>
      <trkpt lat="41.646546720" lon="2.536660110">
        <ele>294.10</ele>
        <time>2014-03-02T09:40:12Z</time>
      </trkpt>
      <trkpt lat="41.646540010" lon="2.536675030">
        <ele>294.30</ele>
        <time>2014-03-02T09:40:13Z</time>
      </trkpt>
      <trkpt lat="41.646535150" lon="2.536686770">
        <ele>294.40</ele>
        <time>2014-03-02T09:40:14Z</time>
      </trkpt>
      <trkpt lat="41.646531800" lon="2.536700010">
        <ele>294.60</ele>
        <time>2014-03-02T09:40:15Z</time>
      </trkpt>
      <trkpt lat="41.646530120" lon="2.536715100">
        <ele>294.80</ele>
        <time>2014-03-02T09:40:16Z</time>
      </trkpt>
      <trkpt lat="41.646526770" lon="2.536731690">
        <ele>295.10</ele>
        <time>2014-03-02T09:40:17Z</time>
      </trkpt>
      <trkpt lat="41.646520060" lon="2.536743430">
        <ele>295.40</ele>
        <time>2014-03-02T09:40:18Z</time>
      </trkpt>
      <trkpt lat="41.646513360" lon="2.536753490">
        <ele>295.30</ele>
        <time>2014-03-02T09:40:19Z</time>
      </trkpt>
      <trkpt lat="41.646506820" lon="2.536765050">
        <ele>295.30</ele>
        <time>2014-03-02T09:40:20Z</time>
      </trkpt>
      <trkpt lat="41.646500110" lon="2.536778460">
        <ele>295.20</ele>
        <time>2014-03-02T09:40:21Z</time>
      </trkpt>
      <trkpt lat="41.646495080" lon="2.536793380">
        <ele>295.60</ele>
        <time>2014-03-02T09:40:22Z</time>
      </trkpt>
      <trkpt lat="41.646488380" lon="2.536808470">
        <ele>295.90</ele>
        <time>2014-03-02T09:40:23Z</time>
      </trkpt>
      <trkpt lat="41.646481670" lon="2.536823390">
        <ele>296.20</ele>
        <time>2014-03-02T09:40:24Z</time>
      </trkpt>
      <trkpt lat="41.646476810" lon="2.536838480">
        <ele>296.40</ele>
        <time>2014-03-02T09:40:25Z</time>
      </trkpt>
      <trkpt lat="41.646473460" lon="2.536855070">
        <ele>296.50</ele>
        <time>2014-03-02T09:40:26Z</time>
      </trkpt>
      <trkpt lat="41.646466750" lon="2.536873350">
        <ele>296.90</ele>
        <time>2014-03-02T09:40:27Z</time>
      </trkpt>
      <trkpt lat="41.646463400" lon="2.536890110">
        <ele>297.10</ele>
        <time>2014-03-02T09:40:28Z</time>
      </trkpt>
      <trkpt lat="41.646458370" lon="2.536903350">
        <ele>297.20</ele>
        <time>2014-03-02T09:40:29Z</time>
      </trkpt>
      <trkpt lat="41.646455020" lon="2.536916770">
        <ele>297.30</ele>
        <time>2014-03-02T09:40:30Z</time>
      </trkpt>
      <trkpt lat="41.646450160" lon="2.536930010">
        <ele>297.50</ele>
        <time>2014-03-02T09:40:31Z</time>
      </trkpt>
      <trkpt lat="41.646450160" lon="2.536945100">
        <ele>297.60</ele>
        <time>2014-03-02T09:40:32Z</time>
      </trkpt>
      <trkpt lat="41.646450160" lon="2.536961690">
        <ele>297.80</ele>
        <time>2014-03-02T09:40:33Z</time>
      </trkpt>
      <trkpt lat="41.646450160" lon="2.536978460">
        <ele>297.90</ele>
        <time>2014-03-02T09:40:34Z</time>
      </trkpt>
      <trkpt lat="41.646448480" lon="2.536995050">
        <ele>298.00</ele>
        <time>2014-03-02T09:40:35Z</time>
      </trkpt>
      <trkpt lat="41.646448480" lon="2.537008460">
        <ele>297.80</ele>
        <time>2014-03-02T09:40:36Z</time>
      </trkpt>
      <trkpt lat="41.646445130" lon="2.537018350">
        <ele>297.70</ele>
        <time>2014-03-02T09:40:37Z</time>
      </trkpt>
      <trkpt lat="41.646445130" lon="2.537028410">
        <ele>298.20</ele>
        <time>2014-03-02T09:40:38Z</time>
      </trkpt>
      <trkpt lat="41.646445130" lon="2.537040150">
        <ele>298.60</ele>
        <time>2014-03-02T09:40:39Z</time>
      </trkpt>
      <trkpt lat="41.646443450" lon="2.537050040">
        <ele>298.90</ele>
        <time>2014-03-02T09:40:40Z</time>
      </trkpt>
      <trkpt lat="41.646441780" lon="2.537061770">
        <ele>299.20</ele>
        <time>2014-03-02T09:40:41Z</time>
      </trkpt>
      <trkpt lat="41.646441780" lon="2.537073340">
        <ele>299.40</ele>
        <time>2014-03-02T09:40:42Z</time>
      </trkpt>
      <trkpt lat="41.646441780" lon="2.537086750">
        <ele>299.90</ele>
        <time>2014-03-02T09:40:43Z</time>
      </trkpt>
      <trkpt lat="41.646438420" lon="2.537096810">
        <ele>300.20</ele>
        <time>2014-03-02T09:40:44Z</time>
      </trkpt>
      <trkpt lat="41.646436750" lon="2.537108380">
        <ele>300.50</ele>
        <time>2014-03-02T09:40:45Z</time>
      </trkpt>
      <trkpt lat="41.646435070" lon="2.537116760">
        <ele>300.60</ele>
        <time>2014-03-02T09:40:46Z</time>
      </trkpt>
      <trkpt lat="41.646431720" lon="2.537128490">
        <ele>300.70</ele>
        <time>2014-03-02T09:40:47Z</time>
      </trkpt>
      <trkpt lat="41.646430040" lon="2.537138380">
        <ele>301.00</ele>
        <time>2014-03-02T09:40:48Z</time>
      </trkpt>
      <trkpt lat="41.646426690" lon="2.537146760">
        <ele>301.20</ele>
        <time>2014-03-02T09:40:49Z</time>
      </trkpt>
      <trkpt lat="41.646423330" lon="2.537158330">
        <ele>301.60</ele>
        <time>2014-03-02T09:40:50Z</time>
      </trkpt>
      <trkpt lat="41.646421830" lon="2.537168390">
        <ele>301.90</ele>
        <time>2014-03-02T09:40:51Z</time>
      </trkpt>
      <trkpt lat="41.646418470" lon="2.537175100">
        <ele>302.10</ele>
        <time>2014-03-02T09:40:52Z</time>
      </trkpt>
      <trkpt lat="41.646413440" lon="2.537185150">
        <ele>302.50</ele>
        <time>2014-03-02T09:40:53Z</time>
      </trkpt>
      <trkpt lat="41.646408420" lon="2.537190020">
        <ele>302.80</ele>
        <time>2014-03-02T09:40:54Z</time>
      </trkpt>
      <trkpt lat="41.646405060" lon="2.537198400">
        <ele>303.10</ele>
        <time>2014-03-02T09:40:55Z</time>
      </trkpt>
      <trkpt lat="41.646400030" lon="2.537205100">
        <ele>303.40</ele>
        <time>2014-03-02T09:40:56Z</time>
      </trkpt>
      <trkpt lat="41.646395000" lon="2.537210130">
        <ele>303.70</ele>
        <time>2014-03-02T09:40:57Z</time>
      </trkpt>
      <trkpt lat="41.646388470" lon="2.537215160">
        <ele>304.00</ele>
        <time>2014-03-02T09:40:58Z</time>
      </trkpt>
      <trkpt lat="41.646380080" lon="2.537221700">
        <ele>304.20</ele>
        <time>2014-03-02T09:40:59Z</time>
      </trkpt>
      <trkpt lat="41.646371700" lon="2.537231760">
        <ele>304.30</ele>
        <time>2014-03-02T09:41:00Z</time>
      </trkpt>
      <trkpt lat="41.646365000" lon="2.537236790">
        <ele>304.40</ele>
        <time>2014-03-02T09:41:01Z</time>
      </trkpt>
      <trkpt lat="41.646358460" lon="2.537243490">
        <ele>305.00</ele>
        <time>2014-03-02T09:41:02Z</time>
      </trkpt>
      <trkpt lat="41.646351750" lon="2.537251710">
        <ele>305.40</ele>
        <time>2014-03-02T09:41:03Z</time>
      </trkpt>
      <trkpt lat="41.646343370" lon="2.537260090">
        <ele>305.80</ele>
        <time>2014-03-02T09:41:04Z</time>
      </trkpt>
      <trkpt lat="41.646336670" lon="2.537270150">
        <ele>306.10</ele>
        <time>2014-03-02T09:41:05Z</time>
      </trkpt>
      <trkpt lat="41.646328450" lon="2.537280040">
        <ele>306.30</ele>
        <time>2014-03-02T09:41:06Z</time>
      </trkpt>
      <trkpt lat="41.646320070" lon="2.537290100">
        <ele>306.30</ele>
        <time>2014-03-02T09:41:07Z</time>
      </trkpt>
      <trkpt lat="41.646311690" lon="2.537298480">
        <ele>306.30</ele>
        <time>2014-03-02T09:41:08Z</time>
      </trkpt>
      <trkpt lat="41.646303470" lon="2.537308370">
        <ele>306.60</ele>
        <time>2014-03-02T09:41:09Z</time>
      </trkpt>
      <trkpt lat="41.646296770" lon="2.537318430">
        <ele>306.80</ele>
        <time>2014-03-02T09:41:10Z</time>
      </trkpt>
      <trkpt lat="41.646288390" lon="2.537330160">
        <ele>306.90</ele>
        <time>2014-03-02T09:41:11Z</time>
      </trkpt>
      <trkpt lat="41.646280000" lon="2.537338370">
        <ele>307.10</ele>
        <time>2014-03-02T09:41:12Z</time>
      </trkpt>
      <trkpt lat="41.646273470" lon="2.537348430">
        <ele>307.10</ele>
        <time>2014-03-02T09:41:13Z</time>
      </trkpt>
      <trkpt lat="41.646268440" lon="2.537358490">
        <ele>307.20</ele>
        <time>2014-03-02T09:41:14Z</time>
      </trkpt>
      <trkpt lat="41.646263410" lon="2.537371730">
        <ele>307.30</ele>
        <time>2014-03-02T09:41:15Z</time>
      </trkpt>
      <trkpt lat="41.646258380" lon="2.537383470">
        <ele>307.50</ele>
        <time>2014-03-02T09:41:16Z</time>
      </trkpt>
      <trkpt lat="41.646253350" lon="2.537395040">
        <ele>307.60</ele>
        <time>2014-03-02T09:41:17Z</time>
      </trkpt>
      <trkpt lat="41.646248490" lon="2.537403420">
        <ele>307.70</ele>
        <time>2014-03-02T09:41:18Z</time>
      </trkpt>
      <trkpt lat="41.646243460" lon="2.537415150">
        <ele>308.00</ele>
        <time>2014-03-02T09:41:19Z</time>
      </trkpt>
      <trkpt lat="41.646238430" lon="2.537425040">
        <ele>308.20</ele>
        <time>2014-03-02T09:41:20Z</time>
      </trkpt>
      <trkpt lat="41.646233400" lon="2.537435100">
        <ele>308.50</ele>
        <time>2014-03-02T09:41:21Z</time>
      </trkpt>
      <trkpt lat="41.646230050" lon="2.537446670">
        <ele>308.80</ele>
        <time>2014-03-02T09:41:22Z</time>
      </trkpt>
      <trkpt lat="41.646225020" lon="2.537456730">
        <ele>309.00</ele>
        <time>2014-03-02T09:41:23Z</time>
      </trkpt>
      <trkpt lat="41.646220160" lon="2.537466790">
        <ele>309.30</ele>
        <time>2014-03-02T09:41:24Z</time>
      </trkpt>
      <trkpt lat="41.646216800" lon="2.537478350">
        <ele>309.50</ele>
        <time>2014-03-02T09:41:25Z</time>
      </trkpt>
      <trkpt lat="41.646213450" lon="2.537490090">
        <ele>309.80</ele>
        <time>2014-03-02T09:41:26Z</time>
      </trkpt>
      <trkpt lat="41.646210100" lon="2.537501820">
        <ele>310.10</ele>
        <time>2014-03-02T09:41:27Z</time>
      </trkpt>
      <trkpt lat="41.646208420" lon="2.537513390">
        <ele>310.40</ele>
        <time>2014-03-02T09:41:28Z</time>
      </trkpt>
      <trkpt lat="41.646206750" lon="2.537525120">
        <ele>310.60</ele>
        <time>2014-03-02T09:41:29Z</time>
      </trkpt>
      <trkpt lat="41.646208420" lon="2.537535010">
        <ele>310.80</ele>
        <time>2014-03-02T09:41:30Z</time>
      </trkpt>
      <trkpt lat="41.646208420" lon="2.537548430">
        <ele>310.80</ele>
        <time>2014-03-02T09:41:31Z</time>
      </trkpt>
      <trkpt lat="41.646208420" lon="2.537561670">
        <ele>310.80</ele>
        <time>2014-03-02T09:41:32Z</time>
      </trkpt>
      <trkpt lat="41.646208420" lon="2.537576760">
        <ele>311.10</ele>
        <time>2014-03-02T09:41:33Z</time>
      </trkpt>
      <trkpt lat="41.646208420" lon="2.537590000">
        <ele>311.30</ele>
        <time>2014-03-02T09:41:34Z</time>
      </trkpt>
      <trkpt lat="41.646210100" lon="2.537603410">
        <ele>311.70</ele>
        <time>2014-03-02T09:41:35Z</time>
      </trkpt>
      <trkpt lat="41.646210100" lon="2.537618330">
        <ele>312.00</ele>
        <time>2014-03-02T09:41:36Z</time>
      </trkpt>
      <trkpt lat="41.646211780" lon="2.537631740">
        <ele>312.30</ele>
        <time>2014-03-02T09:41:37Z</time>
      </trkpt>
      <trkpt lat="41.646211780" lon="2.537646830">
        <ele>312.70</ele>
        <time>2014-03-02T09:41:38Z</time>
      </trkpt>
      <trkpt lat="41.646213450" lon="2.537660070">
        <ele>313.00</ele>
        <time>2014-03-02T09:41:39Z</time>
      </trkpt>
      <trkpt lat="41.646213450" lon="2.537673480">
        <ele>313.10</ele>
        <time>2014-03-02T09:41:40Z</time>
      </trkpt>
      <trkpt lat="41.646213450" lon="2.537685050">
        <ele>313.30</ele>
        <time>2014-03-02T09:41:41Z</time>
      </trkpt>
      <trkpt lat="41.646215130" lon="2.537698460">
        <ele>313.60</ele>
        <time>2014-03-02T09:41:42Z</time>
      </trkpt>
      <trkpt lat="41.646216800" lon="2.537711700">
        <ele>313.80</ele>
        <time>2014-03-02T09:41:43Z</time>
      </trkpt>
      <trkpt lat="41.646216800" lon="2.537728470">
        <ele>314.00</ele>
        <time>2014-03-02T09:41:44Z</time>
      </trkpt>
      <trkpt lat="41.646218480" lon="2.537745060">
        <ele>314.00</ele>
        <time>2014-03-02T09:41:45Z</time>
      </trkpt>
      <trkpt lat="41.646223340" lon="2.537758480">
        <ele>314.00</ele>
        <time>2014-03-02T09:41:46Z</time>
      </trkpt>
      <trkpt lat="41.646225020" lon="2.537771720">
        <ele>313.80</ele>
        <time>2014-03-02T09:41:47Z</time>
      </trkpt>
      <trkpt lat="41.646225020" lon="2.537786810">
        <ele>313.70</ele>
        <time>2014-03-02T09:41:48Z</time>
      </trkpt>
      <trkpt lat="41.646226700" lon="2.537801730">
        <ele>313.60</ele>
        <time>2014-03-02T09:41:49Z</time>
      </trkpt>
      <trkpt lat="41.646228370" lon="2.537816810">
        <ele>313.90</ele>
        <time>2014-03-02T09:41:50Z</time>
      </trkpt>
      <trkpt lat="41.646230050" lon="2.537831730">
        <ele>314.20</ele>
        <time>2014-03-02T09:41:51Z</time>
      </trkpt>
      <trkpt lat="41.646233400" lon="2.537845140">
        <ele>314.30</ele>
        <time>2014-03-02T09:41:52Z</time>
      </trkpt>
      <trkpt lat="41.646235080" lon="2.537856710">
        <ele>314.40</ele>
        <time>2014-03-02T09:41:53Z</time>
      </trkpt>
      <trkpt lat="41.646238430" lon="2.537870120">
        <ele>314.50</ele>
        <time>2014-03-02T09:41:54Z</time>
      </trkpt>
      <trkpt lat="41.646240110" lon="2.537883370">
        <ele>314.50</ele>
        <time>2014-03-02T09:41:55Z</time>
      </trkpt>
      <trkpt lat="41.646241780" lon="2.537896780">
        <ele>314.60</ele>
        <time>2014-03-02T09:41:56Z</time>
      </trkpt>
      <trkpt lat="41.646241780" lon="2.537913370">
        <ele>315.20</ele>
        <time>2014-03-02T09:41:57Z</time>
      </trkpt>
      <trkpt lat="41.646243460" lon="2.537928460">
        <ele>315.70</ele>
        <time>2014-03-02T09:41:58Z</time>
      </trkpt>
      <trkpt lat="41.646245140" lon="2.537943380">
        <ele>315.60</ele>
        <time>2014-03-02T09:41:59Z</time>
      </trkpt>
      <trkpt lat="41.646246810" lon="2.537958470">
        <ele>315.60</ele>
        <time>2014-03-02T09:42:00Z</time>
      </trkpt>
      <trkpt lat="41.646248490" lon="2.537973390">
        <ele>316.00</ele>
        <time>2014-03-02T09:42:01Z</time>
      </trkpt>
      <trkpt lat="41.646248490" lon="2.537988480">
        <ele>316.40</ele>
        <time>2014-03-02T09:42:02Z</time>
      </trkpt>
      <trkpt lat="41.646246810" lon="2.538003390">
        <ele>316.60</ele>
        <time>2014-03-02T09:42:03Z</time>
      </trkpt>
      <trkpt lat="41.646245140" lon="2.538016810">
        <ele>317.30</ele>
        <time>2014-03-02T09:42:04Z</time>
      </trkpt>
      <trkpt lat="41.646243460" lon="2.538031730">
        <ele>317.80</ele>
        <time>2014-03-02T09:42:05Z</time>
      </trkpt>
      <trkpt lat="41.646243460" lon="2.538048490">
        <ele>318.10</ele>
        <time>2014-03-02T09:42:06Z</time>
      </trkpt>
      <trkpt lat="41.646241780" lon="2.538063410">
        <ele>318.30</ele>
        <time>2014-03-02T09:42:07Z</time>
      </trkpt>
      <trkpt lat="41.646245140" lon="2.538078330">
        <ele>318.40</ele>
        <time>2014-03-02T09:42:08Z</time>
      </trkpt>
      <trkpt lat="41.646248490" lon="2.538093420">
        <ele>318.90</ele>
        <time>2014-03-02T09:42:09Z</time>
      </trkpt>
      <trkpt lat="41.646250000" lon="2.538108340">
        <ele>319.30</ele>
        <time>2014-03-02T09:42:10Z</time>
      </trkpt>
      <trkpt lat="41.646250000" lon="2.538121750">
        <ele>319.30</ele>
        <time>2014-03-02T09:42:11Z</time>
      </trkpt>
      <trkpt lat="41.646248490" lon="2.538135160">
        <ele>319.30</ele>
        <time>2014-03-02T09:42:12Z</time>
      </trkpt>
      <trkpt lat="41.646248490" lon="2.538150080">
        <ele>319.10</ele>
        <time>2014-03-02T09:42:13Z</time>
      </trkpt>
      <trkpt lat="41.646248490" lon="2.538163490">
        <ele>319.00</ele>
        <time>2014-03-02T09:42:14Z</time>
      </trkpt>
      <trkpt lat="41.646248490" lon="2.538175060">
        <ele>318.90</ele>
        <time>2014-03-02T09:42:15Z</time>
      </trkpt>
      <trkpt lat="41.646250000" lon="2.538186790">
        <ele>318.80</ele>
        <time>2014-03-02T09:42:16Z</time>
      </trkpt>
      <trkpt lat="41.646250000" lon="2.538201710">
        <ele>318.70</ele>
        <time>2014-03-02T09:42:17Z</time>
      </trkpt>
      <trkpt lat="41.646250000" lon="2.538216800">
        <ele>319.10</ele>
        <time>2014-03-02T09:42:18Z</time>
      </trkpt>
      <trkpt lat="41.646251670" lon="2.538230040">
        <ele>319.50</ele>
        <time>2014-03-02T09:42:19Z</time>
      </trkpt>
      <trkpt lat="41.646253350" lon="2.538245130">
        <ele>320.10</ele>
        <time>2014-03-02T09:42:20Z</time>
      </trkpt>
      <trkpt lat="41.646253350" lon="2.538256700">
        <ele>320.50</ele>
        <time>2014-03-02T09:42:21Z</time>
      </trkpt>
      <trkpt lat="41.646256700" lon="2.538268430">
        <ele>320.90</ele>
        <time>2014-03-02T09:42:22Z</time>
      </trkpt>
      <trkpt lat="41.646258380" lon="2.538281670">
        <ele>321.00</ele>
        <time>2014-03-02T09:42:23Z</time>
      </trkpt>
      <trkpt lat="41.646261730" lon="2.538296760">
        <ele>321.10</ele>
        <time>2014-03-02T09:42:24Z</time>
      </trkpt>
      <trkpt lat="41.646261730" lon="2.538305140">
        <ele>321.20</ele>
        <time>2014-03-02T09:42:25Z</time>
      </trkpt>
      <trkpt lat="41.646261730" lon="2.538316710">
        <ele>321.30</ele>
        <time>2014-03-02T09:42:26Z</time>
      </trkpt>
      <trkpt lat="41.646261730" lon="2.538330120">
        <ele>321.30</ele>
        <time>2014-03-02T09:42:27Z</time>
      </trkpt>
      <trkpt lat="41.646261730" lon="2.538343360">
        <ele>321.80</ele>
        <time>2014-03-02T09:42:28Z</time>
      </trkpt>
      <trkpt lat="41.646260060" lon="2.538356780">
        <ele>322.20</ele>
        <time>2014-03-02T09:42:29Z</time>
      </trkpt>
      <trkpt lat="41.646258380" lon="2.538368340">
        <ele>322.20</ele>
        <time>2014-03-02T09:42:30Z</time>
      </trkpt>
      <trkpt lat="41.646256700" lon="2.538381750">
        <ele>322.20</ele>
        <time>2014-03-02T09:42:31Z</time>
      </trkpt>
      <trkpt lat="41.646255030" lon="2.538395000">
        <ele>322.30</ele>
        <time>2014-03-02T09:42:32Z</time>
      </trkpt>
      <trkpt lat="41.646251670" lon="2.538408410">
        <ele>322.30</ele>
        <time>2014-03-02T09:42:33Z</time>
      </trkpt>
      <trkpt lat="41.646250000" lon="2.538423500">
        <ele>322.40</ele>
        <time>2014-03-02T09:42:34Z</time>
      </trkpt>
      <trkpt lat="41.646246810" lon="2.538436740">
        <ele>322.90</ele>
        <time>2014-03-02T09:42:35Z</time>
      </trkpt>
      <trkpt lat="41.646245140" lon="2.538446800">
        <ele>323.30</ele>
        <time>2014-03-02T09:42:36Z</time>
      </trkpt>
      <trkpt lat="41.646241780" lon="2.538458360">
        <ele>323.60</ele>
        <time>2014-03-02T09:42:37Z</time>
      </trkpt>
      <trkpt lat="41.646238430" lon="2.538466750">
        <ele>323.80</ele>
        <time>2014-03-02T09:42:38Z</time>
      </trkpt>
      <trkpt lat="41.646233400" lon="2.538473450">
        <ele>324.20</ele>
        <time>2014-03-02T09:42:39Z</time>
      </trkpt>
      <trkpt lat="41.646230050" lon="2.538476800">
        <ele>324.40</ele>
        <time>2014-03-02T09:42:40Z</time>
      </trkpt>
      <trkpt lat="41.646228370" lon="2.538481670">
        <ele>324.60</ele>
        <time>2014-03-02T09:42:41Z</time>
      </trkpt>
      <trkpt lat="41.646228370" lon="2.538485020">
        <ele>324.80</ele>
        <time>2014-03-02T09:42:42Z</time>
      </trkpt>
      <trkpt lat="41.646226700" lon="2.538488370">
        <ele>325.00</ele>
        <time>2014-03-02T09:42:43Z</time>
      </trkpt>
      <trkpt lat="41.646225020" lon="2.538491720">
        <ele>324.80</ele>
        <time>2014-03-02T09:42:44Z</time>
      </trkpt>
      <trkpt lat="41.646223340" lon="2.538495080">
        <ele>324.60</ele>
        <time>2014-03-02T09:42:45Z</time>
      </trkpt>
      <trkpt lat="41.646220160" lon="2.538498430">
        <ele>324.50</ele>
        <time>2014-03-02T09:42:46Z</time>
      </trkpt>
      <trkpt lat="41.646220160" lon="2.538501780">
        <ele>324.90</ele>
        <time>2014-03-02T09:42:47Z</time>
      </trkpt>
      <trkpt lat="41.646220160" lon="2.538505140">
        <ele>325.20</ele>
        <time>2014-03-02T09:42:48Z</time>
      </trkpt>
      <trkpt lat="41.646218480" lon="2.538508490">
        <ele>325.40</ele>
        <time>2014-03-02T09:42:49Z</time>
      </trkpt>
      <trkpt lat="41.646218480" lon="2.538513350">
        <ele>325.50</ele>
        <time>2014-03-02T09:42:50Z</time>
      </trkpt>
      <trkpt lat="41.646216800" lon="2.538518380">
        <ele>325.20</ele>
        <time>2014-03-02T09:42:51Z</time>
      </trkpt>
      <trkpt lat="41.646215130" lon="2.538521730">
        <ele>325.00</ele>
        <time>2014-03-02T09:42:52Z</time>
      </trkpt>
      <trkpt lat="41.646213450" lon="2.538526760">
        <ele>324.90</ele>
        <time>2014-03-02T09:42:53Z</time>
      </trkpt>
      <trkpt lat="41.646213450" lon="2.538531790">
        <ele>325.40</ele>
        <time>2014-03-02T09:42:54Z</time>
      </trkpt>
      <trkpt lat="41.646211780" lon="2.538536820">
        <ele>325.70</ele>
        <time>2014-03-02T09:42:55Z</time>
      </trkpt>
      <trkpt lat="41.646210100" lon="2.538540000">
        <ele>325.50</ele>
        <time>2014-03-02T09:42:56Z</time>
      </trkpt>
      <trkpt lat="41.646208420" lon="2.538543360">
        <ele>325.30</ele>
        <time>2014-03-02T09:42:57Z</time>
      </trkpt>
      <trkpt lat="41.646206750" lon="2.538548390">
        <ele>325.50</ele>
        <time>2014-03-02T09:42:58Z</time>
      </trkpt>
      <trkpt lat="41.646205070" lon="2.538551740">
        <ele>325.70</ele>
        <time>2014-03-02T09:42:59Z</time>
      </trkpt>
      <trkpt lat="41.646201720" lon="2.538555090">
        <ele>325.80</ele>
        <time>2014-03-02T09:43:00Z</time>
      </trkpt>
      <trkpt lat="41.646200040" lon="2.538558440">
        <ele>325.70</ele>
        <time>2014-03-02T09:43:01Z</time>
      </trkpt>
      <trkpt lat="41.646198360" lon="2.538561800">
        <ele>325.60</ele>
        <time>2014-03-02T09:43:02Z</time>
      </trkpt>
      <trkpt lat="41.646195010" lon="2.538565150">
        <ele>325.70</ele>
        <time>2014-03-02T09:43:03Z</time>
      </trkpt>
      <trkpt lat="41.646193340" lon="2.538566830">
        <ele>325.80</ele>
        <time>2014-03-02T09:43:04Z</time>
      </trkpt>
      <trkpt lat="41.646191830" lon="2.538568340">
        <ele>325.80</ele>
        <time>2014-03-02T09:43:05Z</time>
      </trkpt>
      <trkpt lat="41.646190150" lon="2.538570010">
        <ele>326.10</ele>
        <time>2014-03-02T09:43:06Z</time>
      </trkpt>
      <trkpt lat="41.646186800" lon="2.538573360">
        <ele>326.30</ele>
        <time>2014-03-02T09:43:07Z</time>
      </trkpt>
      <trkpt lat="41.646185120" lon="2.538575040">
        <ele>326.10</ele>
        <time>2014-03-02T09:43:08Z</time>
      </trkpt>
      <trkpt lat="41.646183440" lon="2.538576720">
        <ele>326.10</ele>
        <time>2014-03-02T09:43:09Z</time>
      </trkpt>
      <trkpt lat="41.646180090" lon="2.538580070">
        <ele>326.10</ele>
        <time>2014-03-02T09:43:10Z</time>
      </trkpt>
      <trkpt lat="41.646178420" lon="2.538581750">
        <ele>326.10</ele>
        <time>2014-03-02T09:43:11Z</time>
      </trkpt>
      <trkpt lat="41.646176740" lon="2.538583420">
        <ele>326.20</ele>
        <time>2014-03-02T09:43:12Z</time>
      </trkpt>
      <trkpt lat="41.646175060" lon="2.538583420">
        <ele>326.40</ele>
        <time>2014-03-02T09:43:13Z</time>
      </trkpt>
      <trkpt lat="41.646173390" lon="2.538585100">
        <ele>326.60</ele>
        <time>2014-03-02T09:43:14Z</time>
      </trkpt>
      <trkpt lat="41.646170030" lon="2.538586780">
        <ele>326.20</ele>
        <time>2014-03-02T09:43:15Z</time>
      </trkpt>
      <trkpt lat="41.646168360" lon="2.538590130">
        <ele>326.00</ele>
        <time>2014-03-02T09:43:16Z</time>
      </trkpt>
      <trkpt lat="41.646166680" lon="2.538591800">
        <ele>326.10</ele>
        <time>2014-03-02T09:43:17Z</time>
      </trkpt>
      <trkpt lat="41.646165000" lon="2.538593480">
        <ele>326.30</ele>
        <time>2014-03-02T09:43:18Z</time>
      </trkpt>
      <trkpt lat="41.646163500" lon="2.538595160">
        <ele>326.40</ele>
        <time>2014-03-02T09:43:19Z</time>
      </trkpt>
      <trkpt lat="41.646163500" lon="2.538595160">
        <ele>326.50</ele>
        <time>2014-03-02T09:43:20Z</time>
      </trkpt>
      <trkpt lat="41.646160140" lon="2.538596670">
        <ele>326.70</ele>
        <time>2014-03-02T09:43:21Z</time>
      </trkpt>
      <trkpt lat="41.646158470" lon="2.538598340">
        <ele>326.30</ele>
        <time>2014-03-02T09:43:22Z</time>
      </trkpt>
      <trkpt lat="41.646155110" lon="2.538598340">
        <ele>326.10</ele>
        <time>2014-03-02T09:43:23Z</time>
      </trkpt>
      <trkpt lat="41.646153440" lon="2.538600020">
        <ele>325.90</ele>
        <time>2014-03-02T09:43:24Z</time>
      </trkpt>
      <trkpt lat="41.646151760" lon="2.538601700">
        <ele>326.50</ele>
        <time>2014-03-02T09:43:25Z</time>
      </trkpt>
      <trkpt lat="41.646151760" lon="2.538601700">
        <ele>326.90</ele>
        <time>2014-03-02T09:43:26Z</time>
      </trkpt>
      <trkpt lat="41.646150080" lon="2.538601700">
        <ele>326.60</ele>
        <time>2014-03-02T09:43:27Z</time>
      </trkpt>
      <trkpt lat="41.646148410" lon="2.538603370">
        <ele>326.30</ele>
        <time>2014-03-02T09:43:28Z</time>
      </trkpt>
      <trkpt lat="41.646148410" lon="2.538603370">
        <ele>326.40</ele>
        <time>2014-03-02T09:43:29Z</time>
      </trkpt>
      <trkpt lat="41.646148410" lon="2.538603370">
        <ele>326.40</ele>
        <time>2014-03-02T09:43:30Z</time>
      </trkpt>
      <trkpt lat="41.646148410" lon="2.538603370">
        <ele>326.50</ele>
        <time>2014-03-02T09:43:31Z</time>
      </trkpt>
      <trkpt lat="41.646148410" lon="2.538603370">
        <ele>326.30</ele>
        <time>2014-03-02T09:43:32Z</time>
      </trkpt>
      <trkpt lat="41.646148410" lon="2.538603370">
        <ele>326.20</ele>
        <time>2014-03-02T09:43:33Z</time>
      </trkpt>
      <trkpt lat="41.646148410" lon="2.538603370">
        <ele>325.80</ele>
        <time>2014-03-02T09:43:34Z</time>
      </trkpt>
      <trkpt lat="41.646148410" lon="2.538603370">
        <ele>325.50</ele>
        <time>2014-03-02T09:43:35Z</time>
      </trkpt>
      <trkpt lat="41.646148410" lon="2.538603370">
        <ele>325.20</ele>
        <time>2014-03-02T09:43:36Z</time>
      </trkpt>
      <trkpt lat="41.646150080" lon="2.538603370">
        <ele>325.00</ele>
        <time>2014-03-02T09:43:37Z</time>
      </trkpt>
      <trkpt lat="41.646151760" lon="2.538603370">
        <ele>324.90</ele>
        <time>2014-03-02T09:43:38Z</time>
      </trkpt>
      <trkpt lat="41.646151760" lon="2.538603370">
        <ele>324.40</ele>
        <time>2014-03-02T09:43:39Z</time>
      </trkpt>
      <trkpt lat="41.646153440" lon="2.538603370">
        <ele>324.10</ele>
        <time>2014-03-02T09:43:40Z</time>
      </trkpt>
      <trkpt lat="41.646153440" lon="2.538601700">
        <ele>324.30</ele>
        <time>2014-03-02T09:43:41Z</time>
      </trkpt>
      <trkpt lat="41.646155110" lon="2.538601700">
        <ele>324.50</ele>
        <time>2014-03-02T09:43:42Z</time>
      </trkpt>
      <trkpt lat="41.646156790" lon="2.538601700">
        <ele>324.60</ele>
        <time>2014-03-02T09:43:43Z</time>
      </trkpt>
      <trkpt lat="41.646158470" lon="2.538601700">
        <ele>325.00</ele>
        <time>2014-03-02T09:43:44Z</time>
      </trkpt>
      <trkpt lat="41.646158470" lon="2.538601700">
        <ele>325.30</ele>
        <time>2014-03-02T09:43:45Z</time>
      </trkpt>
      <trkpt lat="41.646160140" lon="2.538601700">
        <ele>325.10</ele>
        <time>2014-03-02T09:43:46Z</time>
      </trkpt>
      <trkpt lat="41.646161820" lon="2.538601700">
        <ele>325.00</ele>
        <time>2014-03-02T09:43:47Z</time>
      </trkpt>
      <trkpt lat="41.646161820" lon="2.538601700">
        <ele>325.20</ele>
        <time>2014-03-02T09:43:48Z</time>
      </trkpt>
      <trkpt lat="41.646163500" lon="2.538600020">
        <ele>325.40</ele>
        <time>2014-03-02T09:43:49Z</time>
      </trkpt>
      <trkpt lat="41.646165000" lon="2.538600020">
        <ele>325.50</ele>
        <time>2014-03-02T09:43:50Z</time>
      </trkpt>
      <trkpt lat="41.646165000" lon="2.538600020">
        <ele>325.70</ele>
        <time>2014-03-02T09:43:51Z</time>
      </trkpt>
      <trkpt lat="41.646166680" lon="2.538600020">
        <ele>325.80</ele>
        <time>2014-03-02T09:43:52Z</time>
      </trkpt>
      <trkpt lat="41.646168360" lon="2.538600020">
        <ele>325.90</ele>
        <time>2014-03-02T09:43:53Z</time>
      </trkpt>
      <trkpt lat="41.646168360" lon="2.538600020">
        <ele>326.00</ele>
        <time>2014-03-02T09:43:54Z</time>
      </trkpt>
      <trkpt lat="41.646170030" lon="2.538600020">
        <ele>325.80</ele>
        <time>2014-03-02T09:43:55Z</time>
      </trkpt>
      <trkpt lat="41.646171710" lon="2.538600020">
        <ele>325.70</ele>
        <time>2014-03-02T09:43:56Z</time>
      </trkpt>
      <trkpt lat="41.646171710" lon="2.538600020">
        <ele>325.70</ele>
        <time>2014-03-02T09:43:57Z</time>
      </trkpt>
      <trkpt lat="41.646175060" lon="2.538598340">
        <ele>326.00</ele>
        <time>2014-03-02T09:43:58Z</time>
      </trkpt>
      <trkpt lat="41.646176740" lon="2.538598340">
        <ele>326.20</ele>
        <time>2014-03-02T09:43:59Z</time>
      </trkpt>
      <trkpt lat="41.646178420" lon="2.538598340">
        <ele>326.30</ele>
        <time>2014-03-02T09:44:00Z</time>
      </trkpt>
      <trkpt lat="41.646176740" lon="2.538598340">
        <ele>326.40</ele>
        <time>2014-03-02T09:44:01Z</time>
      </trkpt>
      <trkpt lat="41.646176740" lon="2.538596670">
        <ele>326.50</ele>
        <time>2014-03-02T09:44:02Z</time>
      </trkpt>
      <trkpt lat="41.646176740" lon="2.538596670">
        <ele>326.60</ele>
        <time>2014-03-02T09:44:03Z</time>
      </trkpt>
      <trkpt lat="41.646178420" lon="2.538595160">
        <ele>326.70</ele>
        <time>2014-03-02T09:44:04Z</time>
      </trkpt>
      <trkpt lat="41.646180090" lon="2.538595160">
        <ele>326.60</ele>
        <time>2014-03-02T09:44:05Z</time>
      </trkpt>
      <trkpt lat="41.646181770" lon="2.538595160">
        <ele>326.50</ele>
        <time>2014-03-02T09:44:06Z</time>
      </trkpt>
      <trkpt lat="41.646183440" lon="2.538595160">
        <ele>326.70</ele>
        <time>2014-03-02T09:44:07Z</time>
      </trkpt>
      <trkpt lat="41.646183440" lon="2.538595160">
        <ele>326.80</ele>
        <time>2014-03-02T09:44:08Z</time>
      </trkpt>
      <trkpt lat="41.646185120" lon="2.538595160">
        <ele>326.90</ele>
        <time>2014-03-02T09:44:09Z</time>
      </trkpt>
      <trkpt lat="41.646186800" lon="2.538595160">
        <ele>327.10</ele>
        <time>2014-03-02T09:44:10Z</time>
      </trkpt>
      <trkpt lat="41.646186800" lon="2.538595160">
        <ele>327.20</ele>
        <time>2014-03-02T09:44:11Z</time>
      </trkpt>
      <trkpt lat="41.646188470" lon="2.538593480">
        <ele>327.20</ele>
        <time>2014-03-02T09:44:12Z</time>
      </trkpt>
      <trkpt lat="41.646190150" lon="2.538588450">
        <ele>327.20</ele>
        <time>2014-03-02T09:44:13Z</time>
      </trkpt>
      <trkpt lat="41.646195010" lon="2.538583420">
        <ele>327.10</ele>
        <time>2014-03-02T09:44:14Z</time>
      </trkpt>
      <trkpt lat="41.646196690" lon="2.538580070">
        <ele>327.00</ele>
        <time>2014-03-02T09:44:15Z</time>
      </trkpt>
      <trkpt lat="41.646196690" lon="2.538578390">
        <ele>327.00</ele>
        <time>2014-03-02T09:44:16Z</time>
      </trkpt>
      <trkpt lat="41.646196690" lon="2.538576720">
        <ele>326.80</ele>
        <time>2014-03-02T09:44:17Z</time>
      </trkpt>
      <trkpt lat="41.646196690" lon="2.538576720">
        <ele>326.60</ele>
        <time>2014-03-02T09:44:18Z</time>
      </trkpt>
      <trkpt lat="41.646196690" lon="2.538576720">
        <ele>326.70</ele>
        <time>2014-03-02T09:44:19Z</time>
      </trkpt>
      <trkpt lat="41.646198360" lon="2.538575040">
        <ele>326.70</ele>
        <time>2014-03-02T09:44:20Z</time>
      </trkpt>
      <trkpt lat="41.646198360" lon="2.538573360">
        <ele>326.70</ele>
        <time>2014-03-02T09:44:21Z</time>
      </trkpt>
      <trkpt lat="41.646198360" lon="2.538573360">
        <ele>326.50</ele>
        <time>2014-03-02T09:44:22Z</time>
      </trkpt>
      <trkpt lat="41.646200040" lon="2.538571690">
        <ele>326.40</ele>
        <time>2014-03-02T09:44:23Z</time>
      </trkpt>
      <trkpt lat="41.646203390" lon="2.538566830">
        <ele>326.60</ele>
        <time>2014-03-02T09:44:24Z</time>
      </trkpt>
      <trkpt lat="41.646205070" lon="2.538561800">
        <ele>326.70</ele>
        <time>2014-03-02T09:44:25Z</time>
      </trkpt>
      <trkpt lat="41.646211780" lon="2.538553420">
        <ele>326.40</ele>
        <time>2014-03-02T09:44:26Z</time>
      </trkpt>
      <trkpt lat="41.646216800" lon="2.538540000">
        <ele>326.20</ele>
        <time>2014-03-02T09:44:27Z</time>
      </trkpt>
      <trkpt lat="41.646223340" lon="2.538525080">
        <ele>326.10</ele>
        <time>2014-03-02T09:44:28Z</time>
      </trkpt>
      <trkpt lat="41.646230050" lon="2.538508490">
        <ele>326.50</ele>
        <time>2014-03-02T09:44:29Z</time>
      </trkpt>
      <trkpt lat="41.646233400" lon="2.538491720">
        <ele>326.80</ele>
        <time>2014-03-02T09:44:30Z</time>
      </trkpt>
      <trkpt lat="41.646236750" lon="2.538471780">
        <ele>326.80</ele>
        <time>2014-03-02T09:44:31Z</time>
      </trkpt>
      <trkpt lat="41.646240110" lon="2.538448470">
        <ele>326.80</ele>
        <time>2014-03-02T09:44:32Z</time>
      </trkpt>
      <trkpt lat="41.646241780" lon="2.538423500">
        <ele>326.60</ele>
        <time>2014-03-02T09:44:33Z</time>
      </trkpt>
      <trkpt lat="41.646241780" lon="2.538396670">
        <ele>326.40</ele>
        <time>2014-03-02T09:44:34Z</time>
      </trkpt>
      <trkpt lat="41.646238430" lon="2.538366670">
        <ele>326.30</ele>
        <time>2014-03-02T09:44:35Z</time>
      </trkpt>
      <trkpt lat="41.646235080" lon="2.538336830">
        <ele>326.10</ele>
        <time>2014-03-02T09:44:36Z</time>
      </trkpt>
      <trkpt lat="41.646235080" lon="2.538308330">
        <ele>326.00</ele>
        <time>2014-03-02T09:44:37Z</time>
      </trkpt>
      <trkpt lat="41.646235080" lon="2.538275140">
        <ele>325.20</ele>
        <time>2014-03-02T09:44:38Z</time>
      </trkpt>
      <trkpt lat="41.646235080" lon="2.538243450">
        <ele>324.70</ele>
        <time>2014-03-02T09:44:39Z</time>
      </trkpt>
      <trkpt lat="41.646238430" lon="2.538210090">
        <ele>324.50</ele>
        <time>2014-03-02T09:44:40Z</time>
      </trkpt>
      <trkpt lat="41.646243460" lon="2.538178410">
        <ele>324.30</ele>
        <time>2014-03-02T09:44:41Z</time>
      </trkpt>
      <trkpt lat="41.646246810" lon="2.538146730">
        <ele>324.20</ele>
        <time>2014-03-02T09:44:42Z</time>
      </trkpt>
      <trkpt lat="41.646248490" lon="2.538118390">
        <ele>323.70</ele>
        <time>2014-03-02T09:44:43Z</time>
      </trkpt>
      <trkpt lat="41.646246810" lon="2.538090060">
        <ele>323.40</ele>
        <time>2014-03-02T09:44:44Z</time>
      </trkpt>
      <trkpt lat="41.646245140" lon="2.538061730">
        <ele>323.20</ele>
        <time>2014-03-02T09:44:45Z</time>
      </trkpt>
      <trkpt lat="41.646243460" lon="2.538035080">
        <ele>323.10</ele>
        <time>2014-03-02T09:44:46Z</time>
      </trkpt>
      <trkpt lat="41.646241780" lon="2.538010100">
        <ele>323.00</ele>
        <time>2014-03-02T09:44:47Z</time>
      </trkpt>
      <trkpt lat="41.646238430" lon="2.537985120">
        <ele>322.70</ele>
        <time>2014-03-02T09:44:48Z</time>
      </trkpt>
      <trkpt lat="41.646235080" lon="2.537956790">
        <ele>322.50</ele>
        <time>2014-03-02T09:44:49Z</time>
      </trkpt>
      <trkpt lat="41.646231720" lon="2.537928460">
        <ele>321.60</ele>
        <time>2014-03-02T09:44:50Z</time>
      </trkpt>
      <trkpt lat="41.646231720" lon="2.537903480">
        <ele>320.90</ele>
        <time>2014-03-02T09:44:51Z</time>
      </trkpt>
      <trkpt lat="41.646226700" lon="2.537878340">
        <ele>320.80</ele>
        <time>2014-03-02T09:44:52Z</time>
      </trkpt>
      <trkpt lat="41.646221670" lon="2.537850010">
        <ele>320.70</ele>
        <time>2014-03-02T09:44:53Z</time>
      </trkpt>
      <trkpt lat="41.646218480" lon="2.537820000">
        <ele>320.60</ele>
        <time>2014-03-02T09:44:54Z</time>
      </trkpt>
      <trkpt lat="41.646220160" lon="2.537788480">
        <ele>319.90</ele>
        <time>2014-03-02T09:44:55Z</time>
      </trkpt>
      <trkpt lat="41.646220160" lon="2.537755120">
        <ele>319.50</ele>
        <time>2014-03-02T09:44:56Z</time>
      </trkpt>
      <trkpt lat="41.646225020" lon="2.537725120">
        <ele>319.20</ele>
        <time>2014-03-02T09:44:57Z</time>
      </trkpt>
      <trkpt lat="41.646230050" lon="2.537696780">
        <ele>319.00</ele>
        <time>2014-03-02T09:44:58Z</time>
      </trkpt>
      <trkpt lat="41.646235080" lon="2.537666780">
        <ele>318.30</ele>
        <time>2014-03-02T09:44:59Z</time>
      </trkpt>
      <trkpt lat="41.646240110" lon="2.537636770">
        <ele>317.80</ele>
        <time>2014-03-02T09:45:00Z</time>
      </trkpt>
      <trkpt lat="41.646248490" lon="2.537605090">
        <ele>317.40</ele>
        <time>2014-03-02T09:45:01Z</time>
      </trkpt>
      <trkpt lat="41.646258380" lon="2.537575080">
        <ele>317.20</ele>
        <time>2014-03-02T09:45:02Z</time>
      </trkpt>
      <trkpt lat="41.646268440" lon="2.537548430">
        <ele>317.00</ele>
        <time>2014-03-02T09:45:03Z</time>
      </trkpt>
      <trkpt lat="41.646281680" lon="2.537521770">
        <ele>316.30</ele>
        <time>2014-03-02T09:45:04Z</time>
      </trkpt>
      <trkpt lat="41.646296770" lon="2.537500150">
        <ele>315.70</ele>
        <time>2014-03-02T09:45:05Z</time>
      </trkpt>
      <trkpt lat="41.646310010" lon="2.537478350">
        <ele>315.30</ele>
        <time>2014-03-02T09:45:06Z</time>
      </trkpt>
      <trkpt lat="41.646325100" lon="2.537458400">
        <ele>314.70</ele>
        <time>2014-03-02T09:45:07Z</time>
      </trkpt>
      <trkpt lat="41.646343370" lon="2.537438450">
        <ele>314.30</ele>
        <time>2014-03-02T09:45:08Z</time>
      </trkpt>
      <trkpt lat="41.646363490" lon="2.537421690">
        <ele>314.00</ele>
        <time>2014-03-02T09:45:09Z</time>
      </trkpt>
      <trkpt lat="41.646381760" lon="2.537408450">
        <ele>313.80</ele>
        <time>2014-03-02T09:45:10Z</time>
      </trkpt>
      <trkpt lat="41.646398360" lon="2.537395040">
        <ele>313.40</ele>
        <time>2014-03-02T09:45:11Z</time>
      </trkpt>
      <trkpt lat="41.646416800" lon="2.537381790">
        <ele>313.10</ele>
        <time>2014-03-02T09:45:12Z</time>
      </trkpt>
      <trkpt lat="41.646431720" lon="2.537365030">
        <ele>312.90</ele>
        <time>2014-03-02T09:45:13Z</time>
      </trkpt>
      <trkpt lat="41.646443450" lon="2.537343400">
        <ele>312.20</ele>
        <time>2014-03-02T09:45:14Z</time>
      </trkpt>
      <trkpt lat="41.646450160" lon="2.537320100">
        <ele>311.70</ele>
        <time>2014-03-02T09:45:15Z</time>
      </trkpt>
      <trkpt lat="41.646453340" lon="2.537295120">
        <ele>311.10</ele>
        <time>2014-03-02T09:45:16Z</time>
      </trkpt>
      <trkpt lat="41.646453340" lon="2.537273330">
        <ele>310.60</ele>
        <time>2014-03-02T09:45:17Z</time>
      </trkpt>
      <trkpt lat="41.646450160" lon="2.537250030">
        <ele>309.90</ele>
        <time>2014-03-02T09:45:18Z</time>
      </trkpt>
      <trkpt lat="41.646446800" lon="2.537223380">
        <ele>309.40</ele>
        <time>2014-03-02T09:45:19Z</time>
      </trkpt>
      <trkpt lat="41.646443450" lon="2.537191690">
        <ele>309.00</ele>
        <time>2014-03-02T09:45:20Z</time>
      </trkpt>
      <trkpt lat="41.646440100" lon="2.537163360">
        <ele>308.50</ele>
        <time>2014-03-02T09:45:21Z</time>
      </trkpt>
      <trkpt lat="41.646438420" lon="2.537138380">
        <ele>308.10</ele>
        <time>2014-03-02T09:45:22Z</time>
      </trkpt>
      <trkpt lat="41.646435070" lon="2.537115080">
        <ele>307.60</ele>
        <time>2014-03-02T09:45:23Z</time>
      </trkpt>
      <trkpt lat="41.646428360" lon="2.537091780">
        <ele>307.20</ele>
        <time>2014-03-02T09:45:24Z</time>
      </trkpt>
      <trkpt lat="41.646420150" lon="2.537070150">
        <ele>306.90</ele>
        <time>2014-03-02T09:45:25Z</time>
      </trkpt>
      <trkpt lat="41.646416800" lon="2.537051710">
        <ele>306.40</ele>
        <time>2014-03-02T09:45:26Z</time>
      </trkpt>
      <trkpt lat="41.646416800" lon="2.537035120">
        <ele>306.10</ele>
        <time>2014-03-02T09:45:27Z</time>
      </trkpt>
      <trkpt lat="41.646420150" lon="2.537018350">
        <ele>305.50</ele>
        <time>2014-03-02T09:45:28Z</time>
      </trkpt>
      <trkpt lat="41.646423330" lon="2.537000080">
        <ele>305.00</ele>
        <time>2014-03-02T09:45:29Z</time>
      </trkpt>
      <trkpt lat="41.646431720" lon="2.536983480">
        <ele>304.90</ele>
        <time>2014-03-02T09:45:30Z</time>
      </trkpt>
      <trkpt lat="41.646438420" lon="2.536971750">
        <ele>304.90</ele>
        <time>2014-03-02T09:45:31Z</time>
      </trkpt>
      <trkpt lat="41.646445130" lon="2.536956660">
        <ele>304.80</ele>
        <time>2014-03-02T09:45:32Z</time>
      </trkpt>
      <trkpt lat="41.646450160" lon="2.536943420">
        <ele>304.50</ele>
        <time>2014-03-02T09:45:33Z</time>
      </trkpt>
      <trkpt lat="41.646456690" lon="2.536931680">
        <ele>304.20</ele>
        <time>2014-03-02T09:45:34Z</time>
      </trkpt>
      <trkpt lat="41.646460050" lon="2.536925150">
        <ele>304.30</ele>
        <time>2014-03-02T09:45:35Z</time>
      </trkpt>
      <trkpt lat="41.646458370" lon="2.536920120">
        <ele>304.30</ele>
        <time>2014-03-02T09:45:36Z</time>
      </trkpt>
      <trkpt lat="41.646458370" lon="2.536916770">
        <ele>304.00</ele>
        <time>2014-03-02T09:45:37Z</time>
      </trkpt>
      <trkpt lat="41.646458370" lon="2.536915090">
        <ele>303.70</ele>
        <time>2014-03-02T09:45:38Z</time>
      </trkpt>
      <trkpt lat="41.646456690" lon="2.536911740">
        <ele>303.50</ele>
        <time>2014-03-02T09:45:39Z</time>
      </trkpt>
      <trkpt lat="41.646458370" lon="2.536910060">
        <ele>303.10</ele>
        <time>2014-03-02T09:45:40Z</time>
      </trkpt>
      <trkpt lat="41.646458370" lon="2.536906710">
        <ele>302.80</ele>
        <time>2014-03-02T09:45:41Z</time>
      </trkpt>
      <trkpt lat="41.646458370" lon="2.536905030">
        <ele>302.70</ele>
        <time>2014-03-02T09:45:42Z</time>
      </trkpt>
      <trkpt lat="41.646460050" lon="2.536903350">
        <ele>302.60</ele>
        <time>2014-03-02T09:45:43Z</time>
      </trkpt>
      <trkpt lat="41.646458370" lon="2.536900000">
        <ele>302.50</ele>
        <time>2014-03-02T09:45:44Z</time>
      </trkpt>
      <trkpt lat="41.646460050" lon="2.536898490">
        <ele>302.50</ele>
        <time>2014-03-02T09:45:45Z</time>
      </trkpt>
      <trkpt lat="41.646461720" lon="2.536895140">
        <ele>302.40</ele>
        <time>2014-03-02T09:45:46Z</time>
      </trkpt>
      <trkpt lat="41.646463400" lon="2.536893460">
        <ele>302.30</ele>
        <time>2014-03-02T09:45:47Z</time>
      </trkpt>
      <trkpt lat="41.646463400" lon="2.536891790">
        <ele>302.30</ele>
        <time>2014-03-02T09:45:48Z</time>
      </trkpt>
      <trkpt lat="41.646465080" lon="2.536888430">
        <ele>302.50</ele>
        <time>2014-03-02T09:45:49Z</time>
      </trkpt>
      <trkpt lat="41.646465080" lon="2.536886760">
        <ele>302.60</ele>
        <time>2014-03-02T09:45:50Z</time>
      </trkpt>
      <trkpt lat="41.646466750" lon="2.536885080">
        <ele>302.70</ele>
        <time>2014-03-02T09:45:51Z</time>
      </trkpt>
      <trkpt lat="41.646466750" lon="2.536881730">
        <ele>302.70</ele>
        <time>2014-03-02T09:45:52Z</time>
      </trkpt>
      <trkpt lat="41.646468430" lon="2.536878380">
        <ele>302.70</ele>
        <time>2014-03-02T09:45:53Z</time>
      </trkpt>
      <trkpt lat="41.646470110" lon="2.536876700">
        <ele>302.50</ele>
        <time>2014-03-02T09:45:54Z</time>
      </trkpt>
      <trkpt lat="41.646470110" lon="2.536873350">
        <ele>302.40</ele>
        <time>2014-03-02T09:45:55Z</time>
      </trkpt>
      <trkpt lat="41.646471780" lon="2.536871670">
        <ele>302.60</ele>
        <time>2014-03-02T09:45:56Z</time>
      </trkpt>
      <trkpt lat="41.646473460" lon="2.536870160">
        <ele>302.70</ele>
        <time>2014-03-02T09:45:57Z</time>
      </trkpt>
      <trkpt lat="41.646473460" lon="2.536866810">
        <ele>302.70</ele>
        <time>2014-03-02T09:45:58Z</time>
      </trkpt>
      <trkpt lat="41.646475140" lon="2.536865130">
        <ele>302.80</ele>
        <time>2014-03-02T09:45:59Z</time>
      </trkpt>
      <trkpt lat="41.646475140" lon="2.536863460">
        <ele>302.80</ele>
        <time>2014-03-02T09:46:00Z</time>
      </trkpt>
      <trkpt lat="41.646476810" lon="2.536861780">
        <ele>302.60</ele>
        <time>2014-03-02T09:46:01Z</time>
      </trkpt>
      <trkpt lat="41.646476810" lon="2.536858430">
        <ele>302.40</ele>
        <time>2014-03-02T09:46:02Z</time>
      </trkpt>
      <trkpt lat="41.646478490" lon="2.536856750">
        <ele>302.30</ele>
        <time>2014-03-02T09:46:03Z</time>
      </trkpt>
      <trkpt lat="41.646480000" lon="2.536853400">
        <ele>302.10</ele>
        <time>2014-03-02T09:46:04Z</time>
      </trkpt>
      <trkpt lat="41.646481670" lon="2.536851720">
        <ele>301.90</ele>
        <time>2014-03-02T09:46:05Z</time>
      </trkpt>
      <trkpt lat="41.646483350" lon="2.536850050">
        <ele>301.80</ele>
        <time>2014-03-02T09:46:06Z</time>
      </trkpt>
      <trkpt lat="41.646485030" lon="2.536848370">
        <ele>301.80</ele>
        <time>2014-03-02T09:46:07Z</time>
      </trkpt>
      <trkpt lat="41.646485030" lon="2.536845020">
        <ele>301.30</ele>
        <time>2014-03-02T09:46:08Z</time>
      </trkpt>
      <trkpt lat="41.646485030" lon="2.536843340">
        <ele>300.90</ele>
        <time>2014-03-02T09:46:09Z</time>
      </trkpt>
      <trkpt lat="41.646486700" lon="2.536840150">
        <ele>300.60</ele>
        <time>2014-03-02T09:46:10Z</time>
      </trkpt>
      <trkpt lat="41.646486700" lon="2.536836800">
        <ele>300.80</ele>
        <time>2014-03-02T09:46:11Z</time>
      </trkpt>
      <trkpt lat="41.646486700" lon="2.536833450">
        <ele>301.00</ele>
        <time>2014-03-02T09:46:12Z</time>
      </trkpt>
      <trkpt lat="41.646488380" lon="2.536831770">
        <ele>300.70</ele>
        <time>2014-03-02T09:46:13Z</time>
      </trkpt>
      <trkpt lat="41.646488380" lon="2.536830100">
        <ele>300.50</ele>
        <time>2014-03-02T09:46:14Z</time>
      </trkpt>
      <trkpt lat="41.646490050" lon="2.536828420">
        <ele>300.50</ele>
        <time>2014-03-02T09:46:15Z</time>
      </trkpt>
      <trkpt lat="41.646491730" lon="2.536825070">
        <ele>300.50</ele>
        <time>2014-03-02T09:46:16Z</time>
      </trkpt>
      <trkpt lat="41.646495080" lon="2.536821710">
        <ele>300.50</ele>
        <time>2014-03-02T09:46:17Z</time>
      </trkpt>
      <trkpt lat="41.646500110" lon="2.536816690">
        <ele>300.90</ele>
        <time>2014-03-02T09:46:18Z</time>
      </trkpt>
      <trkpt lat="41.646503470" lon="2.536813330">
        <ele>301.20</ele>
        <time>2014-03-02T09:46:19Z</time>
      </trkpt>
      <trkpt lat="41.646503470" lon="2.536810150">
        <ele>300.80</ele>
        <time>2014-03-02T09:46:20Z</time>
      </trkpt>
      <trkpt lat="41.646506820" lon="2.536810150">
        <ele>300.60</ele>
        <time>2014-03-02T09:46:21Z</time>
      </trkpt>
      <trkpt lat="41.646508490" lon="2.536810150">
        <ele>300.40</ele>
        <time>2014-03-02T09:46:22Z</time>
      </trkpt>
      <trkpt lat="41.646508490" lon="2.536806790">
        <ele>300.30</ele>
        <time>2014-03-02T09:46:23Z</time>
      </trkpt>
      <trkpt lat="41.646506820" lon="2.536805120">
        <ele>300.20</ele>
        <time>2014-03-02T09:46:24Z</time>
      </trkpt>
      <trkpt lat="41.646505140" lon="2.536805120">
        <ele>300.30</ele>
        <time>2014-03-02T09:46:25Z</time>
      </trkpt>
      <trkpt lat="41.646505140" lon="2.536805120">
        <ele>300.40</ele>
        <time>2014-03-02T09:46:26Z</time>
      </trkpt>
      <trkpt lat="41.646503470" lon="2.536803440">
        <ele>300.40</ele>
        <time>2014-03-02T09:46:27Z</time>
      </trkpt>
      <trkpt lat="41.646501790" lon="2.536803440">
        <ele>300.40</ele>
        <time>2014-03-02T09:46:28Z</time>
      </trkpt>
      <trkpt lat="41.646501790" lon="2.536801770">
        <ele>300.40</ele>
        <time>2014-03-02T09:46:29Z</time>
      </trkpt>
      <trkpt lat="41.646501790" lon="2.536801770">
        <ele>300.60</ele>
        <time>2014-03-02T09:46:30Z</time>
      </trkpt>
      <trkpt lat="41.646500110" lon="2.536801770">
        <ele>300.70</ele>
        <time>2014-03-02T09:46:31Z</time>
      </trkpt>
      <trkpt lat="41.646500110" lon="2.536801770">
        <ele>300.90</ele>
        <time>2014-03-02T09:46:32Z</time>
      </trkpt>
      <trkpt lat="41.646498440" lon="2.536801770">
        <ele>301.00</ele>
        <time>2014-03-02T09:46:33Z</time>
      </trkpt>
      <trkpt lat="41.646496760" lon="2.536801770">
        <ele>301.20</ele>
        <time>2014-03-02T09:46:34Z</time>
      </trkpt>
      <trkpt lat="41.646496760" lon="2.536800090">
        <ele>301.30</ele>
        <time>2014-03-02T09:46:35Z</time>
      </trkpt>
      <trkpt lat="41.646495080" lon="2.536798410">
        <ele>301.50</ele>
        <time>2014-03-02T09:46:36Z</time>
      </trkpt>
      <trkpt lat="41.646493410" lon="2.536796740">
        <ele>301.30</ele>
        <time>2014-03-02T09:46:37Z</time>
      </trkpt>
      <trkpt lat="41.646491730" lon="2.536793380">
        <ele>301.20</ele>
        <time>2014-03-02T09:46:38Z</time>
      </trkpt>
      <trkpt lat="41.646490050" lon="2.536791710">
        <ele>301.10</ele>
        <time>2014-03-02T09:46:39Z</time>
      </trkpt>
      <trkpt lat="41.646488380" lon="2.536790030">
        <ele>301.00</ele>
        <time>2014-03-02T09:46:40Z</time>
      </trkpt>
      <trkpt lat="41.646486700" lon="2.536788350">
        <ele>301.00</ele>
        <time>2014-03-02T09:46:41Z</time>
      </trkpt>
      <trkpt lat="41.646486700" lon="2.536788350">
        <ele>301.30</ele>
        <time>2014-03-02T09:46:42Z</time>
      </trkpt>
      <trkpt lat="41.646488380" lon="2.536788350">
        <ele>301.50</ele>
        <time>2014-03-02T09:46:43Z</time>
      </trkpt>
      <trkpt lat="41.646498440" lon="2.536785000">
        <ele>301.60</ele>
        <time>2014-03-02T09:46:44Z</time>
      </trkpt>
      <trkpt lat="41.646508490" lon="2.536783490">
        <ele>301.80</ele>
        <time>2014-03-02T09:46:45Z</time>
      </trkpt>
      <trkpt lat="41.646516710" lon="2.536776790">
        <ele>301.50</ele>
        <time>2014-03-02T09:46:46Z</time>
      </trkpt>
      <trkpt lat="41.646526770" lon="2.536773430">
        <ele>301.30</ele>
        <time>2014-03-02T09:46:47Z</time>
      </trkpt>
      <trkpt lat="41.646538330" lon="2.536770080">
        <ele>301.20</ele>
        <time>2014-03-02T09:46:48Z</time>
      </trkpt>
      <trkpt lat="41.646548390" lon="2.536768410">
        <ele>301.70</ele>
        <time>2014-03-02T09:46:49Z</time>
      </trkpt>
      <trkpt lat="41.646558450" lon="2.536765050">
        <ele>302.10</ele>
        <time>2014-03-02T09:46:50Z</time>
      </trkpt>
      <trkpt lat="41.646570020" lon="2.536760020">
        <ele>302.10</ele>
        <time>2014-03-02T09:46:51Z</time>
      </trkpt>
      <trkpt lat="41.646581750" lon="2.536755160">
        <ele>302.00</ele>
        <time>2014-03-02T09:46:52Z</time>
      </trkpt>
      <trkpt lat="41.646593490" lon="2.536750130">
        <ele>301.90</ele>
        <time>2014-03-02T09:46:53Z</time>
      </trkpt>
      <trkpt lat="41.646603380" lon="2.536741750">
        <ele>301.80</ele>
        <time>2014-03-02T09:46:54Z</time>
      </trkpt>
      <trkpt lat="41.646615110" lon="2.536735050">
        <ele>301.70</ele>
        <time>2014-03-02T09:46:55Z</time>
      </trkpt>
      <trkpt lat="41.646625000" lon="2.536726660">
        <ele>301.80</ele>
        <time>2014-03-02T09:46:56Z</time>
      </trkpt>
      <trkpt lat="41.646633390" lon="2.536718450">
        <ele>301.90</ele>
        <time>2014-03-02T09:46:57Z</time>
      </trkpt>
      <trkpt lat="41.646643440" lon="2.536710070">
        <ele>302.10</ele>
        <time>2014-03-02T09:46:58Z</time>
      </trkpt>
      <trkpt lat="41.646655010" lon="2.536701690">
        <ele>302.20</ele>
        <time>2014-03-02T09:46:59Z</time>
      </trkpt>
      <trkpt lat="41.646665070" lon="2.536693470">
        <ele>302.30</ele>
        <time>2014-03-02T09:47:00Z</time>
      </trkpt>
      <trkpt lat="41.646675130" lon="2.536688440">
        <ele>302.70</ele>
        <time>2014-03-02T09:47:01Z</time>
      </trkpt>
      <trkpt lat="41.646685020" lon="2.536683410">
        <ele>302.90</ele>
        <time>2014-03-02T09:47:02Z</time>
      </trkpt>
      <trkpt lat="41.646695080" lon="2.536680060">
        <ele>303.10</ele>
        <time>2014-03-02T09:47:03Z</time>
      </trkpt>
      <trkpt lat="41.646706810" lon="2.536675030">
        <ele>303.30</ele>
        <time>2014-03-02T09:47:04Z</time>
      </trkpt>
      <trkpt lat="41.646716700" lon="2.536671680">
        <ele>303.60</ele>
        <time>2014-03-02T09:47:05Z</time>
      </trkpt>
      <trkpt lat="41.646726760" lon="2.536670000">
        <ele>303.80</ele>
        <time>2014-03-02T09:47:06Z</time>
      </trkpt>
      <trkpt lat="41.646735140" lon="2.536668490">
        <ele>304.00</ele>
        <time>2014-03-02T09:47:07Z</time>
      </trkpt>
      <trkpt lat="41.646745030" lon="2.536665140">
        <ele>304.40</ele>
        <time>2014-03-02T09:47:08Z</time>
      </trkpt>
      <trkpt lat="41.646755090" lon="2.536663460">
        <ele>304.80</ele>
        <time>2014-03-02T09:47:09Z</time>
      </trkpt>
      <trkpt lat="41.646765150" lon="2.536660110">
        <ele>304.80</ele>
        <time>2014-03-02T09:47:10Z</time>
      </trkpt>
      <trkpt lat="41.646776720" lon="2.536656760">
        <ele>304.70</ele>
        <time>2014-03-02T09:47:11Z</time>
      </trkpt>
      <trkpt lat="41.646788450" lon="2.536650050">
        <ele>305.10</ele>
        <time>2014-03-02T09:47:12Z</time>
      </trkpt>
      <trkpt lat="41.646798340" lon="2.536643350">
        <ele>305.30</ele>
        <time>2014-03-02T09:47:13Z</time>
      </trkpt>
      <trkpt lat="41.646808400" lon="2.536636810">
        <ele>305.50</ele>
        <time>2014-03-02T09:47:14Z</time>
      </trkpt>
      <trkpt lat="41.646820130" lon="2.536631780">
        <ele>305.80</ele>
        <time>2014-03-02T09:47:15Z</time>
      </trkpt>
      <trkpt lat="41.646833380" lon="2.536625070">
        <ele>306.10</ele>
        <time>2014-03-02T09:47:16Z</time>
      </trkpt>
      <trkpt lat="41.646850140" lon="2.536618370">
        <ele>306.20</ele>
        <time>2014-03-02T09:47:17Z</time>
      </trkpt>
      <trkpt lat="41.646866740" lon="2.536611660">
        <ele>306.20</ele>
        <time>2014-03-02T09:47:18Z</time>
      </trkpt>
      <trkpt lat="41.646883330" lon="2.536605130">
        <ele>306.30</ele>
        <time>2014-03-02T09:47:19Z</time>
      </trkpt>
      <trkpt lat="41.646895070" lon="2.536598420">
        <ele>306.00</ele>
        <time>2014-03-02T09:47:20Z</time>
      </trkpt>
      <trkpt lat="41.646906800" lon="2.536593390">
        <ele>305.80</ele>
        <time>2014-03-02T09:47:21Z</time>
      </trkpt>
      <trkpt lat="41.646918370" lon="2.536586690">
        <ele>306.10</ele>
        <time>2014-03-02T09:47:22Z</time>
      </trkpt>
      <trkpt lat="41.646931780" lon="2.536580150">
        <ele>306.40</ele>
        <time>2014-03-02T09:47:23Z</time>
      </trkpt>
      <trkpt lat="41.646943350" lon="2.536573440">
        <ele>307.00</ele>
        <time>2014-03-02T09:47:24Z</time>
      </trkpt>
      <trkpt lat="41.646956760" lon="2.536565060">
        <ele>307.40</ele>
        <time>2014-03-02T09:47:25Z</time>
      </trkpt>
      <trkpt lat="41.646970000" lon="2.536556680">
        <ele>307.70</ele>
        <time>2014-03-02T09:47:26Z</time>
      </trkpt>
      <trkpt lat="41.646981740" lon="2.536550140">
        <ele>307.60</ele>
        <time>2014-03-02T09:47:27Z</time>
      </trkpt>
      <trkpt lat="41.646995150" lon="2.536541760">
        <ele>307.50</ele>
        <time>2014-03-02T09:47:28Z</time>
      </trkpt>
      <trkpt lat="41.647006720" lon="2.536535050">
        <ele>307.70</ele>
        <time>2014-03-02T09:47:29Z</time>
      </trkpt>
      <trkpt lat="41.647020130" lon="2.536528350">
        <ele>307.80</ele>
        <time>2014-03-02T09:47:30Z</time>
      </trkpt>
      <trkpt lat="41.647031690" lon="2.536520130">
        <ele>308.00</ele>
        <time>2014-03-02T09:47:31Z</time>
      </trkpt>
      <trkpt lat="41.647045100" lon="2.536511750">
        <ele>308.20</ele>
        <time>2014-03-02T09:47:32Z</time>
      </trkpt>
      <trkpt lat="41.647058350" lon="2.536503370">
        <ele>308.30</ele>
        <time>2014-03-02T09:47:33Z</time>
      </trkpt>
      <trkpt lat="41.647071760" lon="2.536496660">
        <ele>308.20</ele>
        <time>2014-03-02T09:47:34Z</time>
      </trkpt>
      <trkpt lat="41.647088360" lon="2.536490130">
        <ele>308.10</ele>
        <time>2014-03-02T09:47:35Z</time>
      </trkpt>
      <trkpt lat="41.647105120" lon="2.536483420">
        <ele>308.20</ele>
        <time>2014-03-02T09:47:36Z</time>
      </trkpt>
      <trkpt lat="41.647120040" lon="2.536481740">
        <ele>308.30</ele>
        <time>2014-03-02T09:47:37Z</time>
      </trkpt>
      <trkpt lat="41.647136800" lon="2.536481740">
        <ele>308.40</ele>
        <time>2014-03-02T09:47:38Z</time>
      </trkpt>
      <trkpt lat="41.647150050" lon="2.536483420">
        <ele>308.50</ele>
        <time>2014-03-02T09:47:39Z</time>
      </trkpt>
      <trkpt lat="41.647165130" lon="2.536483420">
        <ele>308.60</ele>
        <time>2014-03-02T09:47:40Z</time>
      </trkpt>
      <trkpt lat="41.647180050" lon="2.536485100">
        <ele>308.90</ele>
        <time>2014-03-02T09:47:41Z</time>
      </trkpt>
      <trkpt lat="41.647195140" lon="2.536486770">
        <ele>309.10</ele>
        <time>2014-03-02T09:47:42Z</time>
      </trkpt>
      <trkpt lat="41.647208380" lon="2.536488450">
        <ele>309.60</ele>
        <time>2014-03-02T09:47:43Z</time>
      </trkpt>
      <trkpt lat="41.647223470" lon="2.536488450">
        <ele>310.00</ele>
        <time>2014-03-02T09:47:44Z</time>
      </trkpt>
      <trkpt lat="41.647238390" lon="2.536493480">
        <ele>310.30</ele>
        <time>2014-03-02T09:47:45Z</time>
      </trkpt>
      <trkpt lat="41.647251800" lon="2.536501690">
        <ele>310.00</ele>
        <time>2014-03-02T09:47:46Z</time>
      </trkpt>
      <trkpt lat="41.647265050" lon="2.536510080">
        <ele>309.80</ele>
        <time>2014-03-02T09:47:47Z</time>
      </trkpt>
      <trkpt lat="41.647275100" lon="2.536521810">
        <ele>310.00</ele>
        <time>2014-03-02T09:47:48Z</time>
      </trkpt>
      <trkpt lat="41.647286670" lon="2.536533380">
        <ele>310.10</ele>
        <time>2014-03-02T09:47:49Z</time>
      </trkpt>
      <trkpt lat="41.647295050" lon="2.536546790">
        <ele>310.20</ele>
        <time>2014-03-02T09:47:50Z</time>
      </trkpt>
      <trkpt lat="41.647305110" lon="2.536560030">
        <ele>310.40</ele>
        <time>2014-03-02T09:47:51Z</time>
      </trkpt>
      <trkpt lat="41.647315000" lon="2.536573440">
        <ele>310.50</ele>
        <time>2014-03-02T09:47:52Z</time>
      </trkpt>
      <trkpt lat="41.647323380" lon="2.536585010">
        <ele>310.50</ele>
        <time>2014-03-02T09:47:53Z</time>
      </trkpt>
      <trkpt lat="41.647331770" lon="2.536595070">
        <ele>310.50</ele>
        <time>2014-03-02T09:47:54Z</time>
      </trkpt>
      <trkpt lat="41.647341820" lon="2.536601770">
        <ele>310.90</ele>
        <time>2014-03-02T09:47:55Z</time>
      </trkpt>
      <trkpt lat="41.647351710" lon="2.536611660">
        <ele>311.20</ele>
        <time>2014-03-02T09:47:56Z</time>
      </trkpt>
      <trkpt lat="41.647361770" lon="2.536623400">
        <ele>311.60</ele>
        <time>2014-03-02T09:47:57Z</time>
      </trkpt>
      <trkpt lat="41.647371660" lon="2.536633460">
        <ele>311.90</ele>
        <time>2014-03-02T09:47:58Z</time>
      </trkpt>
      <trkpt lat="41.647385070" lon="2.536645020">
        <ele>312.10</ele>
        <time>2014-03-02T09:47:59Z</time>
      </trkpt>
      <trkpt lat="41.647395130" lon="2.536655080">
        <ele>312.20</ele>
        <time>2014-03-02T09:48:00Z</time>
      </trkpt>
      <trkpt lat="41.647408380" lon="2.536661790">
        <ele>312.30</ele>
        <time>2014-03-02T09:48:01Z</time>
      </trkpt>
      <trkpt lat="41.647423460" lon="2.536668490">
        <ele>312.70</ele>
        <time>2014-03-02T09:48:02Z</time>
      </trkpt>
      <trkpt lat="41.647436710" lon="2.536675030">
        <ele>313.00</ele>
        <time>2014-03-02T09:48:03Z</time>
      </trkpt>
      <trkpt lat="41.647448440" lon="2.536678380">
        <ele>313.20</ele>
        <time>2014-03-02T09:48:04Z</time>
      </trkpt>
      <trkpt lat="41.647461690" lon="2.536683410">
        <ele>313.10</ele>
        <time>2014-03-02T09:48:05Z</time>
      </trkpt>
      <trkpt lat="41.647476770" lon="2.536688440">
        <ele>312.90</ele>
        <time>2014-03-02T09:48:06Z</time>
      </trkpt>
      <trkpt lat="41.647490020" lon="2.536693470">
        <ele>313.30</ele>
        <time>2014-03-02T09:48:07Z</time>
      </trkpt>
      <trkpt lat="41.647505100" lon="2.536696820">
        <ele>313.50</ele>
        <time>2014-03-02T09:48:08Z</time>
      </trkpt>
      <trkpt lat="41.647520020" lon="2.536696820">
        <ele>313.50</ele>
        <time>2014-03-02T09:48:09Z</time>
      </trkpt>
      <trkpt lat="41.647533430" lon="2.536698330">
        <ele>313.60</ele>
        <time>2014-03-02T09:48:10Z</time>
      </trkpt>
      <trkpt lat="41.647546680" lon="2.536698330">
        <ele>313.60</ele>
        <time>2014-03-02T09:48:11Z</time>
      </trkpt>
      <trkpt lat="41.647558410" lon="2.536700010">
        <ele>314.00</ele>
        <time>2014-03-02T09:48:12Z</time>
      </trkpt>
      <trkpt lat="41.647573330" lon="2.536701690">
        <ele>314.20</ele>
        <time>2014-03-02T09:48:13Z</time>
      </trkpt>
      <trkpt lat="41.647585070" lon="2.536703360">
        <ele>314.40</ele>
        <time>2014-03-02T09:48:14Z</time>
      </trkpt>
      <trkpt lat="41.647598480" lon="2.536703360">
        <ele>314.50</ele>
        <time>2014-03-02T09:48:15Z</time>
      </trkpt>
      <trkpt lat="41.647610040" lon="2.536700010">
        <ele>314.70</ele>
        <time>2014-03-02T09:48:16Z</time>
      </trkpt>
      <trkpt lat="41.647620100" lon="2.536696820">
        <ele>314.80</ele>
        <time>2014-03-02T09:48:17Z</time>
      </trkpt>
      <trkpt lat="41.647631670" lon="2.536690120">
        <ele>314.90</ele>
        <time>2014-03-02T09:48:18Z</time>
      </trkpt>
      <trkpt lat="41.647640050" lon="2.536685090">
        <ele>315.50</ele>
        <time>2014-03-02T09:48:19Z</time>
      </trkpt>
      <trkpt lat="41.647648430" lon="2.536676710">
        <ele>316.00</ele>
        <time>2014-03-02T09:48:20Z</time>
      </trkpt>
      <trkpt lat="41.647658490" lon="2.536666820">
        <ele>316.40</ele>
        <time>2014-03-02T09:48:21Z</time>
      </trkpt>
      <trkpt lat="41.647666710" lon="2.536658430">
        <ele>316.80</ele>
        <time>2014-03-02T09:48:22Z</time>
      </trkpt>
      <trkpt lat="41.647675090" lon="2.536646700">
        <ele>317.00</ele>
        <time>2014-03-02T09:48:23Z</time>
      </trkpt>
      <trkpt lat="41.647681790" lon="2.536633460">
        <ele>317.40</ele>
        <time>2014-03-02T09:48:24Z</time>
      </trkpt>
      <trkpt lat="41.647686820" lon="2.536616690">
        <ele>317.70</ele>
        <time>2014-03-02T09:48:25Z</time>
      </trkpt>
      <trkpt lat="41.647691680" lon="2.536601770">
        <ele>317.60</ele>
        <time>2014-03-02T09:48:26Z</time>
      </trkpt>
      <trkpt lat="41.647696710" lon="2.536585010">
        <ele>317.50</ele>
        <time>2014-03-02T09:48:27Z</time>
      </trkpt>
      <trkpt lat="41.647703420" lon="2.536571770">
        <ele>317.50</ele>
        <time>2014-03-02T09:48:28Z</time>
      </trkpt>
      <trkpt lat="41.647708450" lon="2.536556680">
        <ele>317.60</ele>
        <time>2014-03-02T09:48:29Z</time>
      </trkpt>
      <trkpt lat="41.647713480" lon="2.536541760">
        <ele>317.60</ele>
        <time>2014-03-02T09:48:30Z</time>
      </trkpt>
      <trkpt lat="41.647720020" lon="2.536528350">
        <ele>317.70</ele>
        <time>2014-03-02T09:48:31Z</time>
      </trkpt>
      <trkpt lat="41.647730070" lon="2.536515100">
        <ele>317.90</ele>
        <time>2014-03-02T09:48:32Z</time>
      </trkpt>
      <trkpt lat="41.647738460" lon="2.536501690">
        <ele>317.80</ele>
        <time>2014-03-02T09:48:33Z</time>
      </trkpt>
      <trkpt lat="41.647745160" lon="2.536486770">
        <ele>317.70</ele>
        <time>2014-03-02T09:48:34Z</time>
      </trkpt>
      <trkpt lat="41.647751700" lon="2.536471690">
        <ele>317.90</ele>
        <time>2014-03-02T09:48:35Z</time>
      </trkpt>
      <trkpt lat="41.647756730" lon="2.536455090">
        <ele>318.10</ele>
        <time>2014-03-02T09:48:36Z</time>
      </trkpt>
      <trkpt lat="41.647765110" lon="2.536438490">
        <ele>318.20</ele>
        <time>2014-03-02T09:48:37Z</time>
      </trkpt>
      <trkpt lat="41.647773490" lon="2.536423410">
        <ele>318.70</ele>
        <time>2014-03-02T09:48:38Z</time>
      </trkpt>
      <trkpt lat="41.647785060" lon="2.536410000">
        <ele>319.10</ele>
        <time>2014-03-02T09:48:39Z</time>
      </trkpt>
      <trkpt lat="41.647796790" lon="2.536400100">
        <ele>319.30</ele>
        <time>2014-03-02T09:48:40Z</time>
      </trkpt>
      <trkpt lat="41.647806680" lon="2.536395080">
        <ele>319.50</ele>
        <time>2014-03-02T09:48:41Z</time>
      </trkpt>
      <trkpt lat="41.647816740" lon="2.536393400">
        <ele>319.60</ele>
        <time>2014-03-02T09:48:42Z</time>
      </trkpt>
      <trkpt lat="41.647825120" lon="2.536391720">
        <ele>319.90</ele>
        <time>2014-03-02T09:48:43Z</time>
      </trkpt>
      <trkpt lat="41.647833340" lon="2.536391720">
        <ele>320.20</ele>
        <time>2014-03-02T09:48:44Z</time>
      </trkpt>
      <trkpt lat="41.647841720" lon="2.536395080">
        <ele>320.40</ele>
        <time>2014-03-02T09:48:45Z</time>
      </trkpt>
      <trkpt lat="41.647851780" lon="2.536398430">
        <ele>320.60</ele>
        <time>2014-03-02T09:48:46Z</time>
      </trkpt>
      <trkpt lat="41.647863350" lon="2.536401780">
        <ele>321.00</ele>
        <time>2014-03-02T09:48:47Z</time>
      </trkpt>
      <trkpt lat="41.647873400" lon="2.536406810">
        <ele>321.30</ele>
        <time>2014-03-02T09:48:48Z</time>
      </trkpt>
      <trkpt lat="41.647885140" lon="2.536411670">
        <ele>321.60</ele>
        <time>2014-03-02T09:48:49Z</time>
      </trkpt>
      <trkpt lat="41.647893350" lon="2.536416700">
        <ele>321.70</ele>
        <time>2014-03-02T09:48:50Z</time>
      </trkpt>
      <trkpt lat="41.647898380" lon="2.536423410">
        <ele>321.70</ele>
        <time>2014-03-02T09:48:51Z</time>
      </trkpt>
      <trkpt lat="41.647903410" lon="2.536431790">
        <ele>321.80</ele>
        <time>2014-03-02T09:48:52Z</time>
      </trkpt>
      <trkpt lat="41.647906760" lon="2.536438490">
        <ele>321.90</ele>
        <time>2014-03-02T09:48:53Z</time>
      </trkpt>
      <trkpt lat="41.647910120" lon="2.536440000">
        <ele>321.10</ele>
        <time>2014-03-02T09:48:54Z</time>
      </trkpt>
      <trkpt lat="41.647911790" lon="2.536441680">
        <ele>320.50</ele>
        <time>2014-03-02T09:48:55Z</time>
      </trkpt>
      <trkpt lat="41.647913470" lon="2.536441680">
        <ele>320.00</ele>
        <time>2014-03-02T09:48:56Z</time>
      </trkpt>
      <trkpt lat="41.647913470" lon="2.536443360">
        <ele>320.30</ele>
        <time>2014-03-02T09:48:57Z</time>
      </trkpt>
      <trkpt lat="41.647915150" lon="2.536446710">
        <ele>320.40</ele>
        <time>2014-03-02T09:48:58Z</time>
      </trkpt>
      <trkpt lat="41.647915150" lon="2.536455090">
        <ele>320.90</ele>
        <time>2014-03-02T09:48:59Z</time>
      </trkpt>
      <trkpt lat="41.647916820" lon="2.536465150">
        <ele>321.30</ele>
        <time>2014-03-02T09:49:00Z</time>
      </trkpt>
      <trkpt lat="41.647916820" lon="2.536475040">
        <ele>321.60</ele>
        <time>2014-03-02T09:49:01Z</time>
      </trkpt>
      <trkpt lat="41.647916820" lon="2.536485100">
        <ele>322.20</ele>
        <time>2014-03-02T09:49:02Z</time>
      </trkpt>
      <trkpt lat="41.647913470" lon="2.536493480">
        <ele>322.70</ele>
        <time>2014-03-02T09:49:03Z</time>
      </trkpt>
      <trkpt lat="41.647911790" lon="2.536503370">
        <ele>323.10</ele>
        <time>2014-03-02T09:49:04Z</time>
      </trkpt>
      <trkpt lat="41.647910120" lon="2.536513430">
        <ele>323.40</ele>
        <time>2014-03-02T09:49:05Z</time>
      </trkpt>
      <trkpt lat="41.647910120" lon="2.536523490">
        <ele>323.50</ele>
        <time>2014-03-02T09:49:06Z</time>
      </trkpt>
      <trkpt lat="41.647908440" lon="2.536531700">
        <ele>323.50</ele>
        <time>2014-03-02T09:49:07Z</time>
      </trkpt>
      <trkpt lat="41.647906760" lon="2.536541760">
        <ele>323.60</ele>
        <time>2014-03-02T09:49:08Z</time>
      </trkpt>
      <trkpt lat="41.647905090" lon="2.536551820">
        <ele>323.70</ele>
        <time>2014-03-02T09:49:09Z</time>
      </trkpt>
      <trkpt lat="41.647903410" lon="2.536560030">
        <ele>323.70</ele>
        <time>2014-03-02T09:49:10Z</time>
      </trkpt>
      <trkpt lat="41.647901730" lon="2.536571770">
        <ele>324.10</ele>
        <time>2014-03-02T09:49:11Z</time>
      </trkpt>
      <trkpt lat="41.647900060" lon="2.536580150">
        <ele>324.30</ele>
        <time>2014-03-02T09:49:12Z</time>
      </trkpt>
      <trkpt lat="41.647898380" lon="2.536586690">
        <ele>324.40</ele>
        <time>2014-03-02T09:49:13Z</time>
      </trkpt>
      <trkpt lat="41.647900060" lon="2.536590040">
        <ele>324.50</ele>
        <time>2014-03-02T09:49:14Z</time>
      </trkpt>
      <trkpt lat="41.647900060" lon="2.536590040">
        <ele>324.60</ele>
        <time>2014-03-02T09:49:15Z</time>
      </trkpt>
      <trkpt lat="41.647900060" lon="2.536590040">
        <ele>324.50</ele>
        <time>2014-03-02T09:49:16Z</time>
      </trkpt>
      <trkpt lat="41.647901730" lon="2.536591710">
        <ele>324.50</ele>
        <time>2014-03-02T09:49:17Z</time>
      </trkpt>
      <trkpt lat="41.647896710" lon="2.536598420">
        <ele>324.40</ele>
        <time>2014-03-02T09:49:18Z</time>
      </trkpt>
      <trkpt lat="41.647891680" lon="2.536606800">
        <ele>324.40</ele>
        <time>2014-03-02T09:49:19Z</time>
      </trkpt>
      <trkpt lat="41.647886820" lon="2.536618370">
        <ele>324.30</ele>
        <time>2014-03-02T09:49:20Z</time>
      </trkpt>
      <trkpt lat="41.647883460" lon="2.536633460">
        <ele>324.90</ele>
        <time>2014-03-02T09:49:21Z</time>
      </trkpt>
      <trkpt lat="41.647875080" lon="2.536648380">
        <ele>325.40</ele>
        <time>2014-03-02T09:49:22Z</time>
      </trkpt>
      <trkpt lat="41.647866700" lon="2.536661790">
        <ele>325.10</ele>
        <time>2014-03-02T09:49:23Z</time>
      </trkpt>
      <trkpt lat="41.647861670" lon="2.536680060">
        <ele>324.90</ele>
        <time>2014-03-02T09:49:24Z</time>
      </trkpt>
      <trkpt lat="41.647855130" lon="2.536700010">
        <ele>324.70</ele>
        <time>2014-03-02T09:49:25Z</time>
      </trkpt>
      <trkpt lat="41.647848430" lon="2.536720130">
        <ele>324.60</ele>
        <time>2014-03-02T09:49:26Z</time>
      </trkpt>
      <trkpt lat="41.647843400" lon="2.536743430">
        <ele>324.50</ele>
        <time>2014-03-02T09:49:27Z</time>
      </trkpt>
      <trkpt lat="41.647833340" lon="2.536770080">
        <ele>324.40</ele>
        <time>2014-03-02T09:49:28Z</time>
      </trkpt>
      <trkpt lat="41.647821770" lon="2.536800090">
        <ele>324.30</ele>
        <time>2014-03-02T09:49:29Z</time>
      </trkpt>
      <trkpt lat="41.647810040" lon="2.536826740">
        <ele>324.00</ele>
        <time>2014-03-02T09:49:30Z</time>
      </trkpt>
      <trkpt lat="41.647793440" lon="2.536850050">
        <ele>323.80</ele>
        <time>2014-03-02T09:49:31Z</time>
      </trkpt>
      <trkpt lat="41.647773490" lon="2.536870160">
        <ele>323.50</ele>
        <time>2014-03-02T09:49:32Z</time>
      </trkpt>
      <trkpt lat="41.647751700" lon="2.536891790">
        <ele>323.20</ele>
        <time>2014-03-02T09:49:33Z</time>
      </trkpt>
      <trkpt lat="41.647726720" lon="2.536910060">
        <ele>323.10</ele>
        <time>2014-03-02T09:49:34Z</time>
      </trkpt>
      <trkpt lat="41.647703420" lon="2.536920120">
        <ele>323.10</ele>
        <time>2014-03-02T09:49:35Z</time>
      </trkpt>
      <trkpt lat="41.647685150" lon="2.536925150">
        <ele>323.20</ele>
        <time>2014-03-02T09:49:36Z</time>
      </trkpt>
      <trkpt lat="41.647666710" lon="2.536928330">
        <ele>323.50</ele>
        <time>2014-03-02T09:49:37Z</time>
      </trkpt>
      <trkpt lat="41.647650110" lon="2.536933360">
        <ele>323.70</ele>
        <time>2014-03-02T09:49:38Z</time>
      </trkpt>
      <trkpt lat="41.647633350" lon="2.536940070">
        <ele>323.90</ele>
        <time>2014-03-02T09:49:39Z</time>
      </trkpt>
      <trkpt lat="41.647615070" lon="2.536943420">
        <ele>324.20</ele>
        <time>2014-03-02T09:49:40Z</time>
      </trkpt>
      <trkpt lat="41.647601660" lon="2.536948450">
        <ele>324.50</ele>
        <time>2014-03-02T09:49:41Z</time>
      </trkpt>
      <trkpt lat="41.647588420" lon="2.536953480">
        <ele>324.30</ele>
        <time>2014-03-02T09:49:42Z</time>
      </trkpt>
      <trkpt lat="41.647575010" lon="2.536960020">
        <ele>324.20</ele>
        <time>2014-03-02T09:49:43Z</time>
      </trkpt>
      <trkpt lat="41.647565120" lon="2.536968400">
        <ele>324.50</ele>
        <time>2014-03-02T09:49:44Z</time>
      </trkpt>
      <trkpt lat="41.647553380" lon="2.536978460">
        <ele>324.80</ele>
        <time>2014-03-02T09:49:45Z</time>
      </trkpt>
      <trkpt lat="41.647543490" lon="2.536988350">
        <ele>325.00</ele>
        <time>2014-03-02T09:49:46Z</time>
      </trkpt>
      <trkpt lat="41.647531760" lon="2.536995050">
        <ele>325.00</ele>
        <time>2014-03-02T09:49:47Z</time>
      </trkpt>
      <trkpt lat="41.647520020" lon="2.537003430">
        <ele>325.00</ele>
        <time>2014-03-02T09:49:48Z</time>
      </trkpt>
      <trkpt lat="41.647508460" lon="2.537011820">
        <ele>325.10</ele>
        <time>2014-03-02T09:49:49Z</time>
      </trkpt>
      <trkpt lat="41.647496720" lon="2.537020030">
        <ele>325.10</ele>
        <time>2014-03-02T09:49:50Z</time>
      </trkpt>
      <trkpt lat="41.647486660" lon="2.537028410">
        <ele>325.10</ele>
        <time>2014-03-02T09:49:51Z</time>
      </trkpt>
      <trkpt lat="41.647481800" lon="2.537036790">
        <ele>325.10</ele>
        <time>2014-03-02T09:49:52Z</time>
      </trkpt>
      <trkpt lat="41.647481800" lon="2.537040150">
        <ele>325.10</ele>
        <time>2014-03-02T09:49:53Z</time>
      </trkpt>
      <trkpt lat="41.647480130" lon="2.537041820">
        <ele>325.50</ele>
        <time>2014-03-02T09:49:54Z</time>
      </trkpt>
      <trkpt lat="41.647478450" lon="2.537041820">
        <ele>325.70</ele>
        <time>2014-03-02T09:49:55Z</time>
      </trkpt>
      <trkpt lat="41.647475100" lon="2.537045010">
        <ele>326.10</ele>
        <time>2014-03-02T09:49:56Z</time>
      </trkpt>
      <trkpt lat="41.647473420" lon="2.537048360">
        <ele>326.40</ele>
        <time>2014-03-02T09:49:57Z</time>
      </trkpt>
      <trkpt lat="41.647471740" lon="2.537050040">
        <ele>326.40</ele>
        <time>2014-03-02T09:49:58Z</time>
      </trkpt>
      <trkpt lat="41.647470070" lon="2.537050040">
        <ele>326.40</ele>
        <time>2014-03-02T09:49:59Z</time>
      </trkpt>
      <trkpt lat="41.647468390" lon="2.537051710">
        <ele>326.40</ele>
        <time>2014-03-02T09:50:00Z</time>
      </trkpt>
      <trkpt lat="41.647468390" lon="2.537055070">
        <ele>326.50</ele>
        <time>2014-03-02T09:50:01Z</time>
      </trkpt>
      <trkpt lat="41.647465040" lon="2.537055070">
        <ele>326.50</ele>
        <time>2014-03-02T09:50:02Z</time>
      </trkpt>
      <trkpt lat="41.647463360" lon="2.537056740">
        <ele>326.90</ele>
        <time>2014-03-02T09:50:03Z</time>
      </trkpt>
      <trkpt lat="41.647461690" lon="2.537058420">
        <ele>327.10</ele>
        <time>2014-03-02T09:50:04Z</time>
      </trkpt>
      <trkpt lat="41.647460010" lon="2.537058420">
        <ele>327.30</ele>
        <time>2014-03-02T09:50:05Z</time>
      </trkpt>
      <trkpt lat="41.647460010" lon="2.537058420">
        <ele>327.40</ele>
        <time>2014-03-02T09:50:06Z</time>
      </trkpt>
      <trkpt lat="41.647458330" lon="2.537056740">
        <ele>327.50</ele>
        <time>2014-03-02T09:50:07Z</time>
      </trkpt>
      <trkpt lat="41.647458330" lon="2.537055070">
        <ele>327.60</ele>
        <time>2014-03-02T09:50:08Z</time>
      </trkpt>
      <trkpt lat="41.647458330" lon="2.537051710">
        <ele>327.70</ele>
        <time>2014-03-02T09:50:09Z</time>
      </trkpt>
      <trkpt lat="41.647458330" lon="2.537051710">
        <ele>327.30</ele>
        <time>2014-03-02T09:50:10Z</time>
      </trkpt>
      <trkpt lat="41.647460010" lon="2.537051710">
        <ele>327.10</ele>
        <time>2014-03-02T09:50:11Z</time>
      </trkpt>
      <trkpt lat="41.647463360" lon="2.537050040">
        <ele>326.90</ele>
        <time>2014-03-02T09:50:12Z</time>
      </trkpt>
      <trkpt lat="41.647461690" lon="2.537050040">
        <ele>326.90</ele>
        <time>2014-03-02T09:50:13Z</time>
      </trkpt>
      <trkpt lat="41.647463360" lon="2.537048360">
        <ele>327.00</ele>
        <time>2014-03-02T09:50:14Z</time>
      </trkpt>
      <trkpt lat="41.647470070" lon="2.537045010">
        <ele>327.20</ele>
        <time>2014-03-02T09:50:15Z</time>
      </trkpt>
      <trkpt lat="41.647480130" lon="2.537036790">
        <ele>327.30</ele>
        <time>2014-03-02T09:50:16Z</time>
      </trkpt>
      <trkpt lat="41.647491690" lon="2.537030090">
        <ele>327.50</ele>
        <time>2014-03-02T09:50:17Z</time>
      </trkpt>
      <trkpt lat="41.647506780" lon="2.537020030">
        <ele>327.70</ele>
        <time>2014-03-02T09:50:18Z</time>
      </trkpt>
      <trkpt lat="41.647523380" lon="2.537006790">
        <ele>327.90</ele>
        <time>2014-03-02T09:50:19Z</time>
      </trkpt>
      <trkpt lat="41.647540140" lon="2.536995050">
        <ele>327.70</ele>
        <time>2014-03-02T09:50:20Z</time>
      </trkpt>
      <trkpt lat="41.647556740" lon="2.536988350">
        <ele>327.60</ele>
        <time>2014-03-02T09:50:21Z</time>
      </trkpt>
      <trkpt lat="41.647575010" lon="2.536983480">
        <ele>327.60</ele>
        <time>2014-03-02T09:50:22Z</time>
      </trkpt>
      <trkpt lat="41.647593450" lon="2.536978460">
        <ele>327.60</ele>
        <time>2014-03-02T09:50:23Z</time>
      </trkpt>
      <trkpt lat="41.647613400" lon="2.536976780">
        <ele>327.70</ele>
        <time>2014-03-02T09:50:24Z</time>
      </trkpt>
      <trkpt lat="41.647631670" lon="2.536973430">
        <ele>327.50</ele>
        <time>2014-03-02T09:50:25Z</time>
      </trkpt>
      <trkpt lat="41.647650110" lon="2.536971750">
        <ele>327.30</ele>
        <time>2014-03-02T09:50:26Z</time>
      </trkpt>
      <trkpt lat="41.647666710" lon="2.536970070">
        <ele>327.30</ele>
        <time>2014-03-02T09:50:27Z</time>
      </trkpt>
      <trkpt lat="41.647680120" lon="2.536968400">
        <ele>327.20</ele>
        <time>2014-03-02T09:50:28Z</time>
      </trkpt>
      <trkpt lat="41.647696710" lon="2.536961690">
        <ele>326.70</ele>
        <time>2014-03-02T09:50:29Z</time>
      </trkpt>
      <trkpt lat="41.647711800" lon="2.536953480">
        <ele>326.30</ele>
        <time>2014-03-02T09:50:30Z</time>
      </trkpt>
      <trkpt lat="41.647725040" lon="2.536945100">
        <ele>326.00</ele>
        <time>2014-03-02T09:50:31Z</time>
      </trkpt>
      <trkpt lat="41.647736780" lon="2.536935040">
        <ele>325.70</ele>
        <time>2014-03-02T09:50:32Z</time>
      </trkpt>
      <trkpt lat="41.647750020" lon="2.536921790">
        <ele>325.50</ele>
        <time>2014-03-02T09:50:33Z</time>
      </trkpt>
      <trkpt lat="41.647761760" lon="2.536910060">
        <ele>325.50</ele>
        <time>2014-03-02T09:50:34Z</time>
      </trkpt>
      <trkpt lat="41.647775000" lon="2.536901680">
        <ele>325.50</ele>
        <time>2014-03-02T09:50:35Z</time>
      </trkpt>
      <trkpt lat="41.647786740" lon="2.536895140">
        <ele>325.50</ele>
        <time>2014-03-02T09:50:36Z</time>
      </trkpt>
      <trkpt lat="41.647795120" lon="2.536881730">
        <ele>325.90</ele>
        <time>2014-03-02T09:50:37Z</time>
      </trkpt>
      <trkpt lat="41.647801820" lon="2.536868490">
        <ele>326.30</ele>
        <time>2014-03-02T09:50:38Z</time>
      </trkpt>
      <trkpt lat="41.647808360" lon="2.536851720">
        <ele>326.50</ele>
        <time>2014-03-02T09:50:39Z</time>
      </trkpt>
      <trkpt lat="41.647815070" lon="2.536835130">
        <ele>326.70</ele>
        <time>2014-03-02T09:50:40Z</time>
      </trkpt>
      <trkpt lat="41.647820100" lon="2.536820040">
        <ele>326.60</ele>
        <time>2014-03-02T09:50:41Z</time>
      </trkpt>
      <trkpt lat="41.647826800" lon="2.536801770">
        <ele>326.60</ele>
        <time>2014-03-02T09:50:42Z</time>
      </trkpt>
      <trkpt lat="41.647833340" lon="2.536786680">
        <ele>326.60</ele>
        <time>2014-03-02T09:50:43Z</time>
      </trkpt>
      <trkpt lat="41.647840040" lon="2.536771760">
        <ele>326.70</ele>
        <time>2014-03-02T09:50:44Z</time>
      </trkpt>
      <trkpt lat="41.647845070" lon="2.536755160">
        <ele>326.80</ele>
        <time>2014-03-02T09:50:45Z</time>
      </trkpt>
      <trkpt lat="41.647851780" lon="2.536740070">
        <ele>327.00</ele>
        <time>2014-03-02T09:50:46Z</time>
      </trkpt>
      <trkpt lat="41.647858480" lon="2.536723480">
        <ele>327.20</ele>
        <time>2014-03-02T09:50:47Z</time>
      </trkpt>
      <trkpt lat="41.647866700" lon="2.536708390">
        <ele>327.50</ele>
        <time>2014-03-02T09:50:48Z</time>
      </trkpt>
      <trkpt lat="41.647875080" lon="2.536693470">
        <ele>327.70</ele>
        <time>2014-03-02T09:50:49Z</time>
      </trkpt>
      <trkpt lat="41.647881790" lon="2.536678380">
        <ele>327.90</ele>
        <time>2014-03-02T09:50:50Z</time>
      </trkpt>
      <trkpt lat="41.647888490" lon="2.536661790">
        <ele>327.70</ele>
        <time>2014-03-02T09:50:51Z</time>
      </trkpt>
      <trkpt lat="41.647896710" lon="2.536645020">
        <ele>327.50</ele>
        <time>2014-03-02T09:50:52Z</time>
      </trkpt>
      <trkpt lat="41.647905090" lon="2.536631780">
        <ele>327.30</ele>
        <time>2014-03-02T09:50:53Z</time>
      </trkpt>
      <trkpt lat="41.647915150" lon="2.536625070">
        <ele>327.20</ele>
        <time>2014-03-02T09:50:54Z</time>
      </trkpt>
      <trkpt lat="41.647923360" lon="2.536615020">
        <ele>327.10</ele>
        <time>2014-03-02T09:50:55Z</time>
      </trkpt>
      <trkpt lat="41.647928390" lon="2.536601770">
        <ele>327.50</ele>
        <time>2014-03-02T09:50:56Z</time>
      </trkpt>
      <trkpt lat="41.647931740" lon="2.536585010">
        <ele>327.80</ele>
        <time>2014-03-02T09:50:57Z</time>
      </trkpt>
      <trkpt lat="41.647933420" lon="2.536566740">
        <ele>327.40</ele>
        <time>2014-03-02T09:50:58Z</time>
      </trkpt>
      <trkpt lat="41.647943480" lon="2.536548460">
        <ele>327.10</ele>
        <time>2014-03-02T09:50:59Z</time>
      </trkpt>
      <trkpt lat="41.647951690" lon="2.536530020">
        <ele>327.10</ele>
        <time>2014-03-02T09:51:00Z</time>
      </trkpt>
      <trkpt lat="41.647960070" lon="2.536513430">
        <ele>327.10</ele>
        <time>2014-03-02T09:51:01Z</time>
      </trkpt>
      <trkpt lat="41.647968450" lon="2.536505050">
        <ele>327.10</ele>
        <time>2014-03-02T09:51:02Z</time>
      </trkpt>
      <trkpt lat="41.647975160" lon="2.536498340">
        <ele>326.70</ele>
        <time>2014-03-02T09:51:03Z</time>
      </trkpt>
      <trkpt lat="41.647985050" lon="2.536495160">
        <ele>326.40</ele>
        <time>2014-03-02T09:51:04Z</time>
      </trkpt>
      <trkpt lat="41.647995110" lon="2.536496660">
        <ele>326.10</ele>
        <time>2014-03-02T09:51:05Z</time>
      </trkpt>
      <trkpt lat="41.648006680" lon="2.536503370">
        <ele>325.80</ele>
        <time>2014-03-02T09:51:06Z</time>
      </trkpt>
      <trkpt lat="41.648020090" lon="2.536511750">
        <ele>325.80</ele>
        <time>2014-03-02T09:51:07Z</time>
      </trkpt>
      <trkpt lat="41.648031820" lon="2.536521810">
        <ele>325.80</ele>
        <time>2014-03-02T09:51:08Z</time>
      </trkpt>
      <trkpt lat="41.648041710" lon="2.536531700">
        <ele>325.80</ele>
        <time>2014-03-02T09:51:09Z</time>
      </trkpt>
      <trkpt lat="41.648053450" lon="2.536538410">
        <ele>326.00</ele>
        <time>2014-03-02T09:51:10Z</time>
      </trkpt>
      <trkpt lat="41.648065010" lon="2.536543440">
        <ele>326.10</ele>
        <time>2014-03-02T09:51:11Z</time>
      </trkpt>
      <trkpt lat="41.648075070" lon="2.536546790">
        <ele>326.20</ele>
        <time>2014-03-02T09:51:12Z</time>
      </trkpt>
      <trkpt lat="41.648085130" lon="2.536553490">
        <ele>326.30</ele>
        <time>2014-03-02T09:51:13Z</time>
      </trkpt>
      <trkpt lat="41.648095020" lon="2.536558350">
        <ele>326.60</ele>
        <time>2014-03-02T09:51:14Z</time>
      </trkpt>
      <trkpt lat="41.648106760" lon="2.536565060">
        <ele>326.80</ele>
        <time>2014-03-02T09:51:15Z</time>
      </trkpt>
      <trkpt lat="41.648118490" lon="2.536571770">
        <ele>327.00</ele>
        <time>2014-03-02T09:51:16Z</time>
      </trkpt>
      <trkpt lat="41.648130060" lon="2.536576800">
        <ele>327.30</ele>
        <time>2014-03-02T09:51:17Z</time>
      </trkpt>
      <trkpt lat="41.648140120" lon="2.536585010">
        <ele>327.40</ele>
        <time>2014-03-02T09:51:18Z</time>
      </trkpt>
      <trkpt lat="41.648151680" lon="2.536591710">
        <ele>327.20</ele>
        <time>2014-03-02T09:51:19Z</time>
      </trkpt>
      <trkpt lat="41.648165090" lon="2.536600100">
        <ele>327.00</ele>
        <time>2014-03-02T09:51:20Z</time>
      </trkpt>
      <trkpt lat="41.648180010" lon="2.536606800">
        <ele>326.90</ele>
        <time>2014-03-02T09:51:21Z</time>
      </trkpt>
      <trkpt lat="41.648191750" lon="2.536613340">
        <ele>327.50</ele>
        <time>2014-03-02T09:51:22Z</time>
      </trkpt>
      <trkpt lat="41.648203480" lon="2.536620050">
        <ele>328.00</ele>
        <time>2014-03-02T09:51:23Z</time>
      </trkpt>
      <trkpt lat="41.648213370" lon="2.536625070">
        <ele>328.30</ele>
        <time>2014-03-02T09:51:24Z</time>
      </trkpt>
      <trkpt lat="41.648221760" lon="2.536631780">
        <ele>328.50</ele>
        <time>2014-03-02T09:51:25Z</time>
      </trkpt>
      <trkpt lat="41.648231810" lon="2.536636810">
        <ele>329.00</ele>
        <time>2014-03-02T09:51:26Z</time>
      </trkpt>
      <trkpt lat="41.648241700" lon="2.536646700">
        <ele>329.30</ele>
        <time>2014-03-02T09:51:27Z</time>
      </trkpt>
      <trkpt lat="41.648250090" lon="2.536656760">
        <ele>329.60</ele>
        <time>2014-03-02T09:51:28Z</time>
      </trkpt>
      <trkpt lat="41.648260150" lon="2.536666820">
        <ele>329.40</ele>
        <time>2014-03-02T09:51:29Z</time>
      </trkpt>
      <trkpt lat="41.648271710" lon="2.536675030">
        <ele>329.30</ele>
        <time>2014-03-02T09:51:30Z</time>
      </trkpt>
      <trkpt lat="41.648281770" lon="2.536681740">
        <ele>330.00</ele>
        <time>2014-03-02T09:51:31Z</time>
      </trkpt>
      <trkpt lat="41.648291830" lon="2.536690120">
        <ele>330.50</ele>
        <time>2014-03-02T09:51:32Z</time>
      </trkpt>
      <trkpt lat="41.648300040" lon="2.536698330">
        <ele>330.90</ele>
        <time>2014-03-02T09:51:33Z</time>
      </trkpt>
      <trkpt lat="41.648306750" lon="2.536705040">
        <ele>330.90</ele>
        <time>2014-03-02T09:51:34Z</time>
      </trkpt>
      <trkpt lat="41.648315130" lon="2.536711740">
        <ele>330.90</ele>
        <time>2014-03-02T09:51:35Z</time>
      </trkpt>
      <trkpt lat="41.648323340" lon="2.536716770">
        <ele>331.20</ele>
        <time>2014-03-02T09:51:36Z</time>
      </trkpt>
      <trkpt lat="41.648333400" lon="2.536725150">
        <ele>331.40</ele>
        <time>2014-03-02T09:51:37Z</time>
      </trkpt>
      <trkpt lat="41.648341780" lon="2.536731690">
        <ele>331.80</ele>
        <time>2014-03-02T09:51:38Z</time>
      </trkpt>
      <trkpt lat="41.648350000" lon="2.536741750">
        <ele>332.10</ele>
        <time>2014-03-02T09:51:39Z</time>
      </trkpt>
      <trkpt lat="41.648356700" lon="2.536750130">
        <ele>332.40</ele>
        <time>2014-03-02T09:51:40Z</time>
      </trkpt>
      <trkpt lat="41.648363410" lon="2.536760020">
        <ele>332.60</ele>
        <time>2014-03-02T09:51:41Z</time>
      </trkpt>
      <trkpt lat="41.648368440" lon="2.536770080">
        <ele>332.80</ele>
        <time>2014-03-02T09:51:42Z</time>
      </trkpt>
      <trkpt lat="41.648373470" lon="2.536780140">
        <ele>333.10</ele>
        <time>2014-03-02T09:51:43Z</time>
      </trkpt>
      <trkpt lat="41.648378330" lon="2.536790030">
        <ele>333.30</ele>
        <time>2014-03-02T09:51:44Z</time>
      </trkpt>
      <trkpt lat="41.648383360" lon="2.536801770">
        <ele>333.50</ele>
        <time>2014-03-02T09:51:45Z</time>
      </trkpt>
      <trkpt lat="41.648388390" lon="2.536811820">
        <ele>333.60</ele>
        <time>2014-03-02T09:51:46Z</time>
      </trkpt>
      <trkpt lat="41.648393420" lon="2.536821710">
        <ele>333.70</ele>
        <time>2014-03-02T09:51:47Z</time>
      </trkpt>
      <trkpt lat="41.648396770" lon="2.536833450">
        <ele>334.20</ele>
        <time>2014-03-02T09:51:48Z</time>
      </trkpt>
      <trkpt lat="41.648400120" lon="2.536843340">
        <ele>334.60</ele>
        <time>2014-03-02T09:51:49Z</time>
      </trkpt>
      <trkpt lat="41.648400120" lon="2.536855070">
        <ele>334.60</ele>
        <time>2014-03-02T09:51:50Z</time>
      </trkpt>
      <trkpt lat="41.648400120" lon="2.536866810">
        <ele>334.60</ele>
        <time>2014-03-02T09:51:51Z</time>
      </trkpt>
      <trkpt lat="41.648401800" lon="2.536876700">
        <ele>334.90</ele>
        <time>2014-03-02T09:51:52Z</time>
      </trkpt>
      <trkpt lat="41.648403480" lon="2.536890110">
        <ele>335.00</ele>
        <time>2014-03-02T09:51:53Z</time>
      </trkpt>
      <trkpt lat="41.648401800" lon="2.536905030">
        <ele>335.20</ele>
        <time>2014-03-02T09:51:54Z</time>
      </trkpt>
      <trkpt lat="41.648400120" lon="2.536918440">
        <ele>335.90</ele>
        <time>2014-03-02T09:51:55Z</time>
      </trkpt>
      <trkpt lat="41.648398450" lon="2.536931680">
        <ele>336.40</ele>
        <time>2014-03-02T09:51:56Z</time>
      </trkpt>
      <trkpt lat="41.648398450" lon="2.536945100">
        <ele>336.30</ele>
        <time>2014-03-02T09:51:57Z</time>
      </trkpt>
      <trkpt lat="41.648396770" lon="2.536956660">
        <ele>336.20</ele>
        <time>2014-03-02T09:51:58Z</time>
      </trkpt>
      <trkpt lat="41.648393420" lon="2.536965040">
        <ele>336.10</ele>
        <time>2014-03-02T09:51:59Z</time>
      </trkpt>
      <trkpt lat="41.648386710" lon="2.536975100">
        <ele>336.40</ele>
        <time>2014-03-02T09:52:00Z</time>
      </trkpt>
      <trkpt lat="41.648381680" lon="2.536983480">
        <ele>336.70</ele>
        <time>2014-03-02T09:52:01Z</time>
      </trkpt>
      <trkpt lat="41.648375140" lon="2.536990020">
        <ele>336.90</ele>
        <time>2014-03-02T09:52:02Z</time>
      </trkpt>
      <trkpt lat="41.648370120" lon="2.536998400">
        <ele>337.00</ele>
        <time>2014-03-02T09:52:03Z</time>
      </trkpt>
      <trkpt lat="41.648363410" lon="2.537006790">
        <ele>337.40</ele>
        <time>2014-03-02T09:52:04Z</time>
      </trkpt>
      <trkpt lat="41.648360060" lon="2.537016680">
        <ele>337.70</ele>
        <time>2014-03-02T09:52:05Z</time>
      </trkpt>
      <trkpt lat="41.648355030" lon="2.537025060">
        <ele>337.90</ele>
        <time>2014-03-02T09:52:06Z</time>
      </trkpt>
      <trkpt lat="41.648351680" lon="2.537030090">
        <ele>337.80</ele>
        <time>2014-03-02T09:52:07Z</time>
      </trkpt>
      <trkpt lat="41.648346810" lon="2.537033440">
        <ele>337.70</ele>
        <time>2014-03-02T09:52:08Z</time>
      </trkpt>
      <trkpt lat="41.648341780" lon="2.537031760">
        <ele>338.20</ele>
        <time>2014-03-02T09:52:09Z</time>
      </trkpt>
      <trkpt lat="41.648338430" lon="2.537025060">
        <ele>338.60</ele>
        <time>2014-03-02T09:52:10Z</time>
      </trkpt>
      <trkpt lat="41.648335080" lon="2.537015000">
        <ele>339.10</ele>
        <time>2014-03-02T09:52:11Z</time>
      </trkpt>
      <trkpt lat="41.648331730" lon="2.537003430">
        <ele>339.40</ele>
        <time>2014-03-02T09:52:12Z</time>
      </trkpt>
      <trkpt lat="41.648326700" lon="2.536995050">
        <ele>339.60</ele>
        <time>2014-03-02T09:52:13Z</time>
      </trkpt>
      <trkpt lat="41.648320160" lon="2.536988350">
        <ele>340.00</ele>
        <time>2014-03-02T09:52:14Z</time>
      </trkpt>
      <trkpt lat="41.648311780" lon="2.536981810">
        <ele>340.20</ele>
        <time>2014-03-02T09:52:15Z</time>
      </trkpt>
      <trkpt lat="41.648305070" lon="2.536975100">
        <ele>340.10</ele>
        <time>2014-03-02T09:52:16Z</time>
      </trkpt>
      <trkpt lat="41.648296690" lon="2.536968400">
        <ele>340.00</ele>
        <time>2014-03-02T09:52:17Z</time>
      </trkpt>
      <trkpt lat="41.648286800" lon="2.536963370">
        <ele>340.00</ele>
        <time>2014-03-02T09:52:18Z</time>
      </trkpt>
      <trkpt lat="41.648278420" lon="2.536961690">
        <ele>340.10</ele>
        <time>2014-03-02T09:52:19Z</time>
      </trkpt>
      <trkpt lat="41.648268360" lon="2.536958340">
        <ele>340.30</ele>
        <time>2014-03-02T09:52:20Z</time>
      </trkpt>
      <trkpt lat="41.648260150" lon="2.536955150">
        <ele>340.90</ele>
        <time>2014-03-02T09:52:21Z</time>
      </trkpt>
      <trkpt lat="41.648253440" lon="2.536953480">
        <ele>341.30</ele>
        <time>2014-03-02T09:52:22Z</time>
      </trkpt>
      <trkpt lat="41.648245060" lon="2.536951800">
        <ele>341.20</ele>
        <time>2014-03-02T09:52:23Z</time>
      </trkpt>
      <trkpt lat="41.648238350" lon="2.536950130">
        <ele>341.10</ele>
        <time>2014-03-02T09:52:24Z</time>
      </trkpt>
      <trkpt lat="41.648230140" lon="2.536948450">
        <ele>341.10</ele>
        <time>2014-03-02T09:52:25Z</time>
      </trkpt>
      <trkpt lat="41.648221760" lon="2.536946770">
        <ele>341.00</ele>
        <time>2014-03-02T09:52:26Z</time>
      </trkpt>
      <trkpt lat="41.648213370" lon="2.536946770">
        <ele>340.90</ele>
        <time>2014-03-02T09:52:27Z</time>
      </trkpt>
      <trkpt lat="41.648203480" lon="2.536948450">
        <ele>341.30</ele>
        <time>2014-03-02T09:52:28Z</time>
      </trkpt>
      <trkpt lat="41.648195100" lon="2.536950130">
        <ele>341.60</ele>
        <time>2014-03-02T09:52:29Z</time>
      </trkpt>
      <trkpt lat="41.648186720" lon="2.536953480">
        <ele>341.90</ele>
        <time>2014-03-02T09:52:30Z</time>
      </trkpt>
      <trkpt lat="41.648180010" lon="2.536958340">
        <ele>342.10</ele>
        <time>2014-03-02T09:52:31Z</time>
      </trkpt>
      <trkpt lat="41.648171800" lon="2.536960020">
        <ele>342.20</ele>
        <time>2014-03-02T09:52:32Z</time>
      </trkpt>
      <trkpt lat="41.648163420" lon="2.536963370">
        <ele>342.70</ele>
        <time>2014-03-02T09:52:33Z</time>
      </trkpt>
      <trkpt lat="41.648155040" lon="2.536966720">
        <ele>343.10</ele>
        <time>2014-03-02T09:52:34Z</time>
      </trkpt>
      <trkpt lat="41.648146820" lon="2.536975100">
        <ele>343.50</ele>
        <time>2014-03-02T09:52:35Z</time>
      </trkpt>
      <trkpt lat="41.648140120" lon="2.536981810">
        <ele>343.70</ele>
        <time>2014-03-02T09:52:36Z</time>
      </trkpt>
      <trkpt lat="41.648133410" lon="2.536990020">
        <ele>343.90</ele>
        <time>2014-03-02T09:52:37Z</time>
      </trkpt>
      <trkpt lat="41.648126710" lon="2.536998400">
        <ele>343.90</ele>
        <time>2014-03-02T09:52:38Z</time>
      </trkpt>
      <trkpt lat="41.648120000" lon="2.537005110">
        <ele>343.90</ele>
        <time>2014-03-02T09:52:39Z</time>
      </trkpt>
      <trkpt lat="41.648115140" lon="2.537015000">
        <ele>343.90</ele>
        <time>2014-03-02T09:52:40Z</time>
      </trkpt>
      <trkpt lat="41.648108430" lon="2.537025060">
        <ele>343.90</ele>
        <time>2014-03-02T09:52:41Z</time>
      </trkpt>
      <trkpt lat="41.648101730" lon="2.537036790">
        <ele>343.90</ele>
        <time>2014-03-02T09:52:42Z</time>
      </trkpt>
      <trkpt lat="41.648095020" lon="2.537048360">
        <ele>343.90</ele>
        <time>2014-03-02T09:52:43Z</time>
      </trkpt>
      <trkpt lat="41.648088480" lon="2.537061770">
        <ele>343.90</ele>
        <time>2014-03-02T09:52:44Z</time>
      </trkpt>
      <trkpt lat="41.648080100" lon="2.537070150">
        <ele>343.90</ele>
        <time>2014-03-02T09:52:45Z</time>
      </trkpt>
      <trkpt lat="41.648070040" lon="2.537076690">
        <ele>343.90</ele>
        <time>2014-03-02T09:52:46Z</time>
      </trkpt>
      <trkpt lat="41.648063340" lon="2.537088430">
        <ele>344.00</ele>
        <time>2014-03-02T09:52:47Z</time>
      </trkpt>
      <trkpt lat="41.648056800" lon="2.537100160">
        <ele>344.20</ele>
        <time>2014-03-02T09:52:48Z</time>
      </trkpt>
      <trkpt lat="41.648048420" lon="2.537110050">
        <ele>344.00</ele>
        <time>2014-03-02T09:52:49Z</time>
      </trkpt>
      <trkpt lat="41.648043390" lon="2.537123460">
        <ele>343.80</ele>
        <time>2014-03-02T09:52:50Z</time>
      </trkpt>
      <trkpt lat="41.648038360" lon="2.537136710">
        <ele>343.70</ele>
        <time>2014-03-02T09:52:51Z</time>
      </trkpt>
      <trkpt lat="41.648033330" lon="2.537148440">
        <ele>344.30</ele>
        <time>2014-03-02T09:52:52Z</time>
      </trkpt>
      <trkpt lat="41.648028470" lon="2.537160010">
        <ele>344.70</ele>
        <time>2014-03-02T09:52:53Z</time>
      </trkpt>
      <trkpt lat="41.648023440" lon="2.537171740">
        <ele>344.90</ele>
        <time>2014-03-02T09:52:54Z</time>
      </trkpt>
      <trkpt lat="41.648020090" lon="2.537185150">
        <ele>345.10</ele>
        <time>2014-03-02T09:52:55Z</time>
      </trkpt>
      <trkpt lat="41.648016730" lon="2.537198400">
        <ele>345.20</ele>
        <time>2014-03-02T09:52:56Z</time>
      </trkpt>
      <trkpt lat="41.648013380" lon="2.537210130">
        <ele>345.30</ele>
        <time>2014-03-02T09:52:57Z</time>
      </trkpt>
      <trkpt lat="41.648008350" lon="2.537225050">
        <ele>345.50</ele>
        <time>2014-03-02T09:52:58Z</time>
      </trkpt>
      <trkpt lat="41.648006680" lon="2.537238460">
        <ele>345.50</ele>
        <time>2014-03-02T09:52:59Z</time>
      </trkpt>
      <trkpt lat="41.648003490" lon="2.537250030">
        <ele>345.50</ele>
        <time>2014-03-02T09:53:00Z</time>
      </trkpt>
      <trkpt lat="41.648000140" lon="2.537263440">
        <ele>345.80</ele>
        <time>2014-03-02T09:53:01Z</time>
      </trkpt>
      <trkpt lat="41.647995110" lon="2.537275010">
        <ele>346.00</ele>
        <time>2014-03-02T09:53:02Z</time>
      </trkpt>
      <trkpt lat="41.647991760" lon="2.537288420">
        <ele>346.10</ele>
        <time>2014-03-02T09:53:03Z</time>
      </trkpt>
      <trkpt lat="41.647986730" lon="2.537300150">
        <ele>346.50</ele>
        <time>2014-03-02T09:53:04Z</time>
      </trkpt>
      <trkpt lat="41.647981700" lon="2.537313400">
        <ele>346.80</ele>
        <time>2014-03-02T09:53:05Z</time>
      </trkpt>
      <trkpt lat="41.647976670" lon="2.537325130">
        <ele>347.10</ele>
        <time>2014-03-02T09:53:06Z</time>
      </trkpt>
      <trkpt lat="41.647971810" lon="2.537336700">
        <ele>347.30</ele>
        <time>2014-03-02T09:53:07Z</time>
      </trkpt>
      <trkpt lat="41.647965100" lon="2.537346760">
        <ele>347.40</ele>
        <time>2014-03-02T09:53:08Z</time>
      </trkpt>
      <trkpt lat="41.647956720" lon="2.537355140">
        <ele>347.40</ele>
        <time>2014-03-02T09:53:09Z</time>
      </trkpt>
      <trkpt lat="41.647950010" lon="2.537365030">
        <ele>347.40</ele>
        <time>2014-03-02T09:53:10Z</time>
      </trkpt>
      <trkpt lat="41.647943480" lon="2.537373410">
        <ele>347.70</ele>
        <time>2014-03-02T09:53:11Z</time>
      </trkpt>
      <trkpt lat="41.647935090" lon="2.537383470">
        <ele>347.90</ele>
        <time>2014-03-02T09:53:12Z</time>
      </trkpt>
      <trkpt lat="41.647926710" lon="2.537390010">
        <ele>348.10</ele>
        <time>2014-03-02T09:53:13Z</time>
      </trkpt>
      <trkpt lat="41.647916820" lon="2.537395040">
        <ele>348.30</ele>
        <time>2014-03-02T09:53:14Z</time>
      </trkpt>
      <trkpt lat="41.647908440" lon="2.537401740">
        <ele>348.40</ele>
        <time>2014-03-02T09:53:15Z</time>
      </trkpt>
      <trkpt lat="41.647898380" lon="2.537406770">
        <ele>348.60</ele>
        <time>2014-03-02T09:53:16Z</time>
      </trkpt>
      <trkpt lat="41.647890000" lon="2.537411800">
        <ele>348.70</ele>
        <time>2014-03-02T09:53:17Z</time>
      </trkpt>
      <trkpt lat="41.647880110" lon="2.537418340">
        <ele>349.40</ele>
        <time>2014-03-02T09:53:18Z</time>
      </trkpt>
      <trkpt lat="41.647871730" lon="2.537425040">
        <ele>350.00</ele>
        <time>2014-03-02T09:53:19Z</time>
      </trkpt>
      <trkpt lat="41.647861670" lon="2.537431750">
        <ele>350.10</ele>
        <time>2014-03-02T09:53:20Z</time>
      </trkpt>
      <trkpt lat="41.647851780" lon="2.537440130">
        <ele>350.20</ele>
        <time>2014-03-02T09:53:21Z</time>
      </trkpt>
      <trkpt lat="41.647843400" lon="2.537450020">
        <ele>350.20</ele>
        <time>2014-03-02T09:53:22Z</time>
      </trkpt>
      <trkpt lat="41.647835010" lon="2.537458400">
        <ele>350.60</ele>
        <time>2014-03-02T09:53:23Z</time>
      </trkpt>
      <trkpt lat="41.647826800" lon="2.537466790">
        <ele>351.00</ele>
        <time>2014-03-02T09:53:24Z</time>
      </trkpt>
      <trkpt lat="41.647818420" lon="2.537476680">
        <ele>351.30</ele>
        <time>2014-03-02T09:53:25Z</time>
      </trkpt>
      <trkpt lat="41.647810040" lon="2.537486730">
        <ele>351.50</ele>
        <time>2014-03-02T09:53:26Z</time>
      </trkpt>
      <trkpt lat="41.647801820" lon="2.537496790">
        <ele>352.00</ele>
        <time>2014-03-02T09:53:27Z</time>
      </trkpt>
      <trkpt lat="41.647795120" lon="2.537508360">
        <ele>352.30</ele>
        <time>2014-03-02T09:53:28Z</time>
      </trkpt>
      <trkpt lat="41.647788410" lon="2.537518420">
        <ele>352.50</ele>
        <time>2014-03-02T09:53:29Z</time>
      </trkpt>
      <trkpt lat="41.647785060" lon="2.537531830">
        <ele>352.90</ele>
        <time>2014-03-02T09:53:30Z</time>
      </trkpt>
      <trkpt lat="41.647780030" lon="2.537543400">
        <ele>353.30</ele>
        <time>2014-03-02T09:53:31Z</time>
      </trkpt>
      <trkpt lat="41.647775000" lon="2.537555130">
        <ele>353.10</ele>
        <time>2014-03-02T09:53:32Z</time>
      </trkpt>
      <trkpt lat="41.647770140" lon="2.537570050">
        <ele>353.00</ele>
        <time>2014-03-02T09:53:33Z</time>
      </trkpt>
      <trkpt lat="41.647765110" lon="2.537581790">
        <ele>352.90</ele>
        <time>2014-03-02T09:53:34Z</time>
      </trkpt>
      <trkpt lat="41.647760080" lon="2.537595030">
        <ele>353.10</ele>
        <time>2014-03-02T09:53:35Z</time>
      </trkpt>
      <trkpt lat="41.647756730" lon="2.537608440">
        <ele>353.30</ele>
        <time>2014-03-02T09:53:36Z</time>
      </trkpt>
      <trkpt lat="41.647753380" lon="2.537620010">
        <ele>354.10</ele>
        <time>2014-03-02T09:53:37Z</time>
      </trkpt>
      <trkpt lat="41.647748350" lon="2.537631740">
        <ele>354.70</ele>
        <time>2014-03-02T09:53:38Z</time>
      </trkpt>
      <trkpt lat="41.647746670" lon="2.537641800">
        <ele>355.20</ele>
        <time>2014-03-02T09:53:39Z</time>
      </trkpt>
      <trkpt lat="41.647745160" lon="2.537651690">
        <ele>355.60</ele>
        <time>2014-03-02T09:53:40Z</time>
      </trkpt>
      <trkpt lat="41.647743480" lon="2.537661750">
        <ele>355.90</ele>
        <time>2014-03-02T09:53:41Z</time>
      </trkpt>
      <trkpt lat="41.647740130" lon="2.537675160">
        <ele>355.80</ele>
        <time>2014-03-02T09:53:42Z</time>
      </trkpt>
      <trkpt lat="41.647736780" lon="2.537688400">
        <ele>355.80</ele>
        <time>2014-03-02T09:53:43Z</time>
      </trkpt>
      <trkpt lat="41.647733430" lon="2.537700140">
        <ele>356.10</ele>
        <time>2014-03-02T09:53:44Z</time>
      </trkpt>
      <trkpt lat="41.647728400" lon="2.537713380">
        <ele>356.40</ele>
        <time>2014-03-02T09:53:45Z</time>
      </trkpt>
      <trkpt lat="41.647725040" lon="2.537725120">
        <ele>356.70</ele>
        <time>2014-03-02T09:53:46Z</time>
      </trkpt>
      <trkpt lat="41.647718340" lon="2.537738360">
        <ele>357.00</ele>
        <time>2014-03-02T09:53:47Z</time>
      </trkpt>
      <trkpt lat="41.647713480" lon="2.537751770">
        <ele>357.20</ele>
        <time>2014-03-02T09:53:48Z</time>
      </trkpt>
      <trkpt lat="41.647708450" lon="2.537765010">
        <ele>357.10</ele>
        <time>2014-03-02T09:53:49Z</time>
      </trkpt>
      <trkpt lat="41.647701740" lon="2.537776750">
        <ele>357.10</ele>
        <time>2014-03-02T09:53:50Z</time>
      </trkpt>
      <trkpt lat="41.647695040" lon="2.537786810">
        <ele>357.10</ele>
        <time>2014-03-02T09:53:51Z</time>
      </trkpt>
      <trkpt lat="41.647686820" lon="2.537796700">
        <ele>357.20</ele>
        <time>2014-03-02T09:53:52Z</time>
      </trkpt>
      <trkpt lat="41.647680120" lon="2.537806760">
        <ele>357.20</ele>
        <time>2014-03-02T09:53:53Z</time>
      </trkpt>
      <trkpt lat="41.647671740" lon="2.537816810">
        <ele>357.70</ele>
        <time>2014-03-02T09:53:54Z</time>
      </trkpt>
      <trkpt lat="41.647663350" lon="2.537828380">
        <ele>358.10</ele>
        <time>2014-03-02T09:53:55Z</time>
      </trkpt>
      <trkpt lat="41.647655140" lon="2.537838440">
        <ele>358.40</ele>
        <time>2014-03-02T09:53:56Z</time>
      </trkpt>
      <trkpt lat="41.647646760" lon="2.537845140">
        <ele>358.60</ele>
        <time>2014-03-02T09:53:57Z</time>
      </trkpt>
      <trkpt lat="41.647638380" lon="2.537853360">
        <ele>358.70</ele>
        <time>2014-03-02T09:53:58Z</time>
      </trkpt>
      <trkpt lat="41.647630160" lon="2.537861740">
        <ele>358.80</ele>
        <time>2014-03-02T09:53:59Z</time>
      </trkpt>
      <trkpt lat="41.647620100" lon="2.537868450">
        <ele>358.90</ele>
        <time>2014-03-02T09:54:00Z</time>
      </trkpt>
      <trkpt lat="41.647611720" lon="2.537876830">
        <ele>359.50</ele>
        <time>2014-03-02T09:54:01Z</time>
      </trkpt>
      <trkpt lat="41.647601660" lon="2.537883370">
        <ele>359.90</ele>
        <time>2014-03-02T09:54:02Z</time>
      </trkpt>
      <trkpt lat="41.647591770" lon="2.537890070">
        <ele>360.30</ele>
        <time>2014-03-02T09:54:03Z</time>
      </trkpt>
      <trkpt lat="41.647581710" lon="2.537896780">
        <ele>360.60</ele>
        <time>2014-03-02T09:54:04Z</time>
      </trkpt>
      <trkpt lat="41.647571820" lon="2.537905160">
        <ele>360.60</ele>
        <time>2014-03-02T09:54:05Z</time>
      </trkpt>
      <trkpt lat="41.647561760" lon="2.537911700">
        <ele>360.70</ele>
        <time>2014-03-02T09:54:06Z</time>
      </trkpt>
      <trkpt lat="41.647551710" lon="2.537918400">
        <ele>360.70</ele>
        <time>2014-03-02T09:54:07Z</time>
      </trkpt>
      <trkpt lat="41.647541820" lon="2.537926780">
        <ele>360.60</ele>
        <time>2014-03-02T09:54:08Z</time>
      </trkpt>
      <trkpt lat="41.647531760" lon="2.537935000">
        <ele>360.50</ele>
        <time>2014-03-02T09:54:09Z</time>
      </trkpt>
      <trkpt lat="41.647520020" lon="2.537941700">
        <ele>360.70</ele>
        <time>2014-03-02T09:54:10Z</time>
      </trkpt>
      <trkpt lat="41.647506780" lon="2.537953440">
        <ele>360.90</ele>
        <time>2014-03-02T09:54:11Z</time>
      </trkpt>
      <trkpt lat="41.647495040" lon="2.537966680">
        <ele>361.00</ele>
        <time>2014-03-02T09:54:12Z</time>
      </trkpt>
      <trkpt lat="41.647481800" lon="2.537978420">
        <ele>361.10</ele>
        <time>2014-03-02T09:54:13Z</time>
      </trkpt>
      <trkpt lat="41.647470070" lon="2.537995010">
        <ele>361.10</ele>
        <time>2014-03-02T09:54:14Z</time>
      </trkpt>
      <trkpt lat="41.647456820" lon="2.538018480">
        <ele>361.20</ele>
        <time>2014-03-02T09:54:15Z</time>
      </trkpt>
      <trkpt lat="41.647445090" lon="2.538043460">
        <ele>361.20</ele>
        <time>2014-03-02T09:54:16Z</time>
      </trkpt>
      <trkpt lat="41.647435030" lon="2.538073470">
        <ele>361.20</ele>
        <time>2014-03-02T09:54:17Z</time>
      </trkpt>
      <trkpt lat="41.647425140" lon="2.538103470">
        <ele>361.20</ele>
        <time>2014-03-02T09:54:18Z</time>
      </trkpt>
      <trkpt lat="41.647415080" lon="2.538135160">
        <ele>361.20</ele>
        <time>2014-03-02T09:54:19Z</time>
      </trkpt>
      <trkpt lat="41.647408380" lon="2.538165000">
        <ele>361.10</ele>
        <time>2014-03-02T09:54:20Z</time>
      </trkpt>
      <trkpt lat="41.647401670" lon="2.538193330">
        <ele>361.00</ele>
        <time>2014-03-02T09:54:21Z</time>
      </trkpt>
      <trkpt lat="41.647395130" lon="2.538223340">
        <ele>360.80</ele>
        <time>2014-03-02T09:54:22Z</time>
      </trkpt>
      <trkpt lat="41.647390100" lon="2.538253340">
        <ele>360.60</ele>
        <time>2014-03-02T09:54:23Z</time>
      </trkpt>
      <trkpt lat="41.647386750" lon="2.538276810">
        <ele>360.30</ele>
        <time>2014-03-02T09:54:24Z</time>
      </trkpt>
      <trkpt lat="41.647383400" lon="2.538296760">
        <ele>360.10</ele>
        <time>2014-03-02T09:54:25Z</time>
      </trkpt>
      <trkpt lat="41.647378370" lon="2.538328450">
        <ele>360.00</ele>
        <time>2014-03-02T09:54:26Z</time>
      </trkpt>
      <trkpt lat="41.647371660" lon="2.538363480">
        <ele>359.90</ele>
        <time>2014-03-02T09:54:27Z</time>
      </trkpt>
      <trkpt lat="41.647363450" lon="2.538401700">
        <ele>359.90</ele>
        <time>2014-03-02T09:54:28Z</time>
      </trkpt>
      <trkpt lat="41.647358420" lon="2.538445120">
        <ele>359.80</ele>
        <time>2014-03-02T09:54:29Z</time>
      </trkpt>
      <trkpt lat="41.647358420" lon="2.538481670">
        <ele>359.70</ele>
        <time>2014-03-02T09:54:30Z</time>
      </trkpt>
      <trkpt lat="41.647356740" lon="2.538511670">
        <ele>359.60</ele>
        <time>2014-03-02T09:54:31Z</time>
      </trkpt>
      <trkpt lat="41.647351710" lon="2.538538500">
        <ele>359.00</ele>
        <time>2014-03-02T09:54:32Z</time>
      </trkpt>
      <trkpt lat="41.647348360" lon="2.538563470">
        <ele>358.50</ele>
        <time>2014-03-02T09:54:33Z</time>
      </trkpt>
      <trkpt lat="41.647343330" lon="2.538585100">
        <ele>358.50</ele>
        <time>2014-03-02T09:54:34Z</time>
      </trkpt>
      <trkpt lat="41.647336790" lon="2.538606720">
        <ele>358.40</ele>
        <time>2014-03-02T09:54:35Z</time>
      </trkpt>
      <trkpt lat="41.647326740" lon="2.538631700">
        <ele>358.10</ele>
        <time>2014-03-02T09:54:36Z</time>
      </trkpt>
      <trkpt lat="41.647320030" lon="2.538655000">
        <ele>357.80</ele>
        <time>2014-03-02T09:54:37Z</time>
      </trkpt>
      <trkpt lat="41.647311820" lon="2.538675120">
        <ele>357.60</ele>
        <time>2014-03-02T09:54:38Z</time>
      </trkpt>
      <trkpt lat="41.647305110" lon="2.538695070">
        <ele>357.50</ele>
        <time>2014-03-02T09:54:39Z</time>
      </trkpt>
      <trkpt lat="41.647298410" lon="2.538713340">
        <ele>357.50</ele>
        <time>2014-03-02T09:54:40Z</time>
      </trkpt>
      <trkpt lat="41.647290020" lon="2.538731780">
        <ele>357.40</ele>
        <time>2014-03-02T09:54:41Z</time>
      </trkpt>
      <trkpt lat="41.647283490" lon="2.538750050">
        <ele>357.40</ele>
        <time>2014-03-02T09:54:42Z</time>
      </trkpt>
      <trkpt lat="41.647276780" lon="2.538770000">
        <ele>357.20</ele>
        <time>2014-03-02T09:54:43Z</time>
      </trkpt>
      <trkpt lat="41.647265050" lon="2.538786770">
        <ele>357.00</ele>
        <time>2014-03-02T09:54:44Z</time>
      </trkpt>
      <trkpt lat="41.647256660" lon="2.538805040">
        <ele>356.90</ele>
        <time>2014-03-02T09:54:45Z</time>
      </trkpt>
      <trkpt lat="41.647246770" lon="2.538820130">
        <ele>357.10</ele>
        <time>2014-03-02T09:54:46Z</time>
      </trkpt>
      <trkpt lat="41.647236710" lon="2.538835050">
        <ele>357.30</ele>
        <time>2014-03-02T09:54:47Z</time>
      </trkpt>
      <trkpt lat="41.647223470" lon="2.538850130">
        <ele>357.50</ele>
        <time>2014-03-02T09:54:48Z</time>
      </trkpt>
      <trkpt lat="41.647208380" lon="2.538863380">
        <ele>357.70</ele>
        <time>2014-03-02T09:54:49Z</time>
      </trkpt>
      <trkpt lat="41.647191790" lon="2.538881820">
        <ele>357.90</ele>
        <time>2014-03-02T09:54:50Z</time>
      </trkpt>
      <trkpt lat="41.647176700" lon="2.538900090">
        <ele>358.20</ele>
        <time>2014-03-02T09:54:51Z</time>
      </trkpt>
      <trkpt lat="41.647160100" lon="2.538916690">
        <ele>358.40</ele>
        <time>2014-03-02T09:54:52Z</time>
      </trkpt>
      <trkpt lat="41.647145020" lon="2.538935130">
        <ele>358.70</ele>
        <time>2014-03-02T09:54:53Z</time>
      </trkpt>
      <trkpt lat="41.647128420" lon="2.538956750">
        <ele>359.00</ele>
        <time>2014-03-02T09:54:54Z</time>
      </trkpt>
      <trkpt lat="41.647111820" lon="2.538973350">
        <ele>358.90</ele>
        <time>2014-03-02T09:54:55Z</time>
      </trkpt>
      <trkpt lat="41.647098410" lon="2.538983410">
        <ele>358.90</ele>
        <time>2014-03-02T09:54:56Z</time>
      </trkpt>
      <trkpt lat="41.647081820" lon="2.538991790">
        <ele>358.90</ele>
        <time>2014-03-02T09:54:57Z</time>
      </trkpt>
      <trkpt lat="41.647061700" lon="2.538998490">
        <ele>358.70</ele>
        <time>2014-03-02T09:54:58Z</time>
      </trkpt>
      <trkpt lat="41.647045100" lon="2.539000000">
        <ele>358.60</ele>
        <time>2014-03-02T09:54:59Z</time>
      </trkpt>
      <trkpt lat="41.647025160" lon="2.539001680">
        <ele>358.90</ele>
        <time>2014-03-02T09:55:00Z</time>
      </trkpt>
      <trkpt lat="41.647001690" lon="2.539000000">
        <ele>359.10</ele>
        <time>2014-03-02T09:55:01Z</time>
      </trkpt>
      <trkpt lat="41.646980060" lon="2.538995140">
        <ele>359.00</ele>
        <time>2014-03-02T09:55:02Z</time>
      </trkpt>
      <trkpt lat="41.646956760" lon="2.538986760">
        <ele>358.90</ele>
        <time>2014-03-02T09:55:03Z</time>
      </trkpt>
      <trkpt lat="41.646935130" lon="2.538978380">
        <ele>358.80</ele>
        <time>2014-03-02T09:55:04Z</time>
      </trkpt>
      <trkpt lat="41.646910160" lon="2.538971670">
        <ele>359.00</ele>
        <time>2014-03-02T09:55:05Z</time>
      </trkpt>
      <trkpt lat="41.646883330" lon="2.538963460">
        <ele>359.20</ele>
        <time>2014-03-02T09:55:06Z</time>
      </trkpt>
      <trkpt lat="41.646858360" lon="2.538955080">
        <ele>359.20</ele>
        <time>2014-03-02T09:55:07Z</time>
      </trkpt>
      <trkpt lat="41.646828350" lon="2.538950050">
        <ele>359.20</ele>
        <time>2014-03-02T09:55:08Z</time>
      </trkpt>
      <trkpt lat="41.646795160" lon="2.538946690">
        <ele>359.20</ele>
        <time>2014-03-02T09:55:09Z</time>
      </trkpt>
      <trkpt lat="41.646766830" lon="2.538948370">
        <ele>359.00</ele>
        <time>2014-03-02T09:55:10Z</time>
      </trkpt>
      <trkpt lat="41.646740000" lon="2.538951720">
        <ele>358.80</ele>
        <time>2014-03-02T09:55:11Z</time>
      </trkpt>
      <trkpt lat="41.646708490" lon="2.538961780">
        <ele>358.40</ele>
        <time>2014-03-02T09:55:12Z</time>
      </trkpt>
      <trkpt lat="41.646683340" lon="2.538983410">
        <ele>358.00</ele>
        <time>2014-03-02T09:55:13Z</time>
      </trkpt>
      <trkpt lat="41.646665070" lon="2.539015090">
        <ele>357.80</ele>
        <time>2014-03-02T09:55:14Z</time>
      </trkpt>
      <trkpt lat="41.646658360" lon="2.539046770">
        <ele>357.60</ele>
        <time>2014-03-02T09:55:15Z</time>
      </trkpt>
      <trkpt lat="41.646653330" lon="2.539068400">
        <ele>357.50</ele>
        <time>2014-03-02T09:55:16Z</time>
      </trkpt>
      <trkpt lat="41.646648470" lon="2.539090020">
        <ele>357.70</ele>
        <time>2014-03-02T09:55:17Z</time>
      </trkpt>
      <trkpt lat="41.646640090" lon="2.539108470">
        <ele>357.90</ele>
        <time>2014-03-02T09:55:18Z</time>
      </trkpt>
      <trkpt lat="41.646635060" lon="2.539128410">
        <ele>358.20</ele>
        <time>2014-03-02T09:55:19Z</time>
      </trkpt>
      <trkpt lat="41.646631710" lon="2.539151720">
        <ele>358.40</ele>
        <time>2014-03-02T09:55:20Z</time>
      </trkpt>
      <trkpt lat="41.646628360" lon="2.539168480">
        <ele>358.20</ele>
        <time>2014-03-02T09:55:21Z</time>
      </trkpt>
      <trkpt lat="41.646620140" lon="2.539183400">
        <ele>358.10</ele>
        <time>2014-03-02T09:55:22Z</time>
      </trkpt>
      <trkpt lat="41.646610080" lon="2.539200000">
        <ele>358.00</ele>
        <time>2014-03-02T09:55:23Z</time>
      </trkpt>
      <trkpt lat="41.646596670" lon="2.539213410">
        <ele>357.80</ele>
        <time>2014-03-02T09:55:24Z</time>
      </trkpt>
      <trkpt lat="41.646583430" lon="2.539225140">
        <ele>357.70</ele>
        <time>2014-03-02T09:55:25Z</time>
      </trkpt>
      <trkpt lat="41.646573370" lon="2.539238380">
        <ele>357.70</ele>
        <time>2014-03-02T09:55:26Z</time>
      </trkpt>
      <trkpt lat="41.646560130" lon="2.539250120">
        <ele>357.80</ele>
        <time>2014-03-02T09:55:27Z</time>
      </trkpt>
      <trkpt lat="41.646548390" lon="2.539258330">
        <ele>357.60</ele>
        <time>2014-03-02T09:55:28Z</time>
      </trkpt>
      <trkpt lat="41.646536830" lon="2.539265040">
        <ele>357.50</ele>
        <time>2014-03-02T09:55:29Z</time>
      </trkpt>
      <trkpt lat="41.646525090" lon="2.539271740">
        <ele>357.40</ele>
        <time>2014-03-02T09:55:30Z</time>
      </trkpt>
      <trkpt lat="41.646513360" lon="2.539278450">
        <ele>357.60</ele>
        <time>2014-03-02T09:55:31Z</time>
      </trkpt>
      <trkpt lat="41.646503470" lon="2.539288340">
        <ele>357.80</ele>
        <time>2014-03-02T09:55:32Z</time>
      </trkpt>
      <trkpt lat="41.646493410" lon="2.539296720">
        <ele>357.90</ele>
        <time>2014-03-02T09:55:33Z</time>
      </trkpt>
      <trkpt lat="41.646485030" lon="2.539308460">
        <ele>358.00</ele>
        <time>2014-03-02T09:55:34Z</time>
      </trkpt>
      <trkpt lat="41.646478490" lon="2.539321700">
        <ele>358.10</ele>
        <time>2014-03-02T09:55:35Z</time>
      </trkpt>
      <trkpt lat="41.646471780" lon="2.539333440">
        <ele>358.40</ele>
        <time>2014-03-02T09:55:36Z</time>
      </trkpt>
      <trkpt lat="41.646470110" lon="2.539345000">
        <ele>358.70</ele>
        <time>2014-03-02T09:55:37Z</time>
      </trkpt>
      <trkpt lat="41.646466750" lon="2.539360090">
        <ele>358.80</ele>
        <time>2014-03-02T09:55:38Z</time>
      </trkpt>
      <trkpt lat="41.646461720" lon="2.539375010">
        <ele>358.80</ele>
        <time>2014-03-02T09:55:39Z</time>
      </trkpt>
      <trkpt lat="41.646458370" lon="2.539393450">
        <ele>358.60</ele>
        <time>2014-03-02T09:55:40Z</time>
      </trkpt>
      <trkpt lat="41.646453340" lon="2.539408370">
        <ele>358.50</ele>
        <time>2014-03-02T09:55:41Z</time>
      </trkpt>
      <trkpt lat="41.646446800" lon="2.539426810">
        <ele>358.40</ele>
        <time>2014-03-02T09:55:42Z</time>
      </trkpt>
      <trkpt lat="41.646440100" lon="2.539443410">
        <ele>358.80</ele>
        <time>2014-03-02T09:55:43Z</time>
      </trkpt>
      <trkpt lat="41.646433390" lon="2.539463350">
        <ele>359.10</ele>
        <time>2014-03-02T09:55:44Z</time>
      </trkpt>
      <trkpt lat="41.646421830" lon="2.539481800">
        <ele>359.40</ele>
        <time>2014-03-02T09:55:45Z</time>
      </trkpt>
      <trkpt lat="41.646411770" lon="2.539498390">
        <ele>359.60</ele>
        <time>2014-03-02T09:55:46Z</time>
      </trkpt>
      <trkpt lat="41.646398360" lon="2.539511800">
        <ele>359.90</ele>
        <time>2014-03-02T09:55:47Z</time>
      </trkpt>
      <trkpt lat="41.646386790" lon="2.539525050">
        <ele>360.00</ele>
        <time>2014-03-02T09:55:48Z</time>
      </trkpt>
      <trkpt lat="41.646376730" lon="2.539541810">
        <ele>360.10</ele>
        <time>2014-03-02T09:55:49Z</time>
      </trkpt>
      <trkpt lat="41.646366670" lon="2.539556730">
        <ele>360.20</ele>
        <time>2014-03-02T09:55:50Z</time>
      </trkpt>
      <trkpt lat="41.646356780" lon="2.539570140">
        <ele>360.30</ele>
        <time>2014-03-02T09:55:51Z</time>
      </trkpt>
      <trkpt lat="41.646346720" lon="2.539583380">
        <ele>360.50</ele>
        <time>2014-03-02T09:55:52Z</time>
      </trkpt>
      <trkpt lat="41.646336670" lon="2.539596790">
        <ele>360.70</ele>
        <time>2014-03-02T09:55:53Z</time>
      </trkpt>
      <trkpt lat="41.646328450" lon="2.539610040">
        <ele>360.80</ele>
        <time>2014-03-02T09:55:54Z</time>
      </trkpt>
      <trkpt lat="41.646318390" lon="2.539621770">
        <ele>361.50</ele>
        <time>2014-03-02T09:55:55Z</time>
      </trkpt>
      <trkpt lat="41.646306830" lon="2.539631660">
        <ele>362.10</ele>
        <time>2014-03-02T09:55:56Z</time>
      </trkpt>
      <trkpt lat="41.646296770" lon="2.539645070">
        <ele>362.40</ele>
        <time>2014-03-02T09:55:57Z</time>
      </trkpt>
      <trkpt lat="41.646288390" lon="2.539658490">
        <ele>362.70</ele>
        <time>2014-03-02T09:55:58Z</time>
      </trkpt>
      <trkpt lat="41.646278500" lon="2.539671730">
        <ele>363.10</ele>
        <time>2014-03-02T09:55:59Z</time>
      </trkpt>
      <trkpt lat="41.646270110" lon="2.539685140">
        <ele>363.40</ele>
        <time>2014-03-02T09:56:00Z</time>
      </trkpt>
      <trkpt lat="41.646261730" lon="2.539700060">
        <ele>363.70</ele>
        <time>2014-03-02T09:56:01Z</time>
      </trkpt>
      <trkpt lat="41.646256700" lon="2.539710120">
        <ele>363.40</ele>
        <time>2014-03-02T09:56:02Z</time>
      </trkpt>
      <trkpt lat="41.646246810" lon="2.539723360">
        <ele>363.10</ele>
        <time>2014-03-02T09:56:03Z</time>
      </trkpt>
      <trkpt lat="41.646240110" lon="2.539736770">
        <ele>363.30</ele>
        <time>2014-03-02T09:56:04Z</time>
      </trkpt>
      <trkpt lat="41.646235080" lon="2.539751690">
        <ele>363.40</ele>
        <time>2014-03-02T09:56:05Z</time>
      </trkpt>
      <trkpt lat="41.646231720" lon="2.539766780">
        <ele>363.40</ele>
        <time>2014-03-02T09:56:06Z</time>
      </trkpt>
      <trkpt lat="41.646226700" lon="2.539780020">
        <ele>363.40</ele>
        <time>2014-03-02T09:56:07Z</time>
      </trkpt>
      <trkpt lat="41.646221670" lon="2.539795110">
        <ele>363.40</ele>
        <time>2014-03-02T09:56:08Z</time>
      </trkpt>
      <trkpt lat="41.646218480" lon="2.539811710">
        <ele>363.80</ele>
        <time>2014-03-02T09:56:09Z</time>
      </trkpt>
      <trkpt lat="41.646215130" lon="2.539828470">
        <ele>364.00</ele>
        <time>2014-03-02T09:56:10Z</time>
      </trkpt>
      <trkpt lat="41.646208420" lon="2.539843390">
        <ele>364.80</ele>
        <time>2014-03-02T09:56:11Z</time>
      </trkpt>
      <trkpt lat="41.646203390" lon="2.539858480">
        <ele>365.30</ele>
        <time>2014-03-02T09:56:12Z</time>
      </trkpt>
      <trkpt lat="41.646200040" lon="2.539875070">
        <ele>365.70</ele>
        <time>2014-03-02T09:56:13Z</time>
      </trkpt>
      <trkpt lat="41.646195010" lon="2.539895020">
        <ele>365.60</ele>
        <time>2014-03-02T09:56:14Z</time>
      </trkpt>
      <trkpt lat="41.646193340" lon="2.539911790">
        <ele>365.40</ele>
        <time>2014-03-02T09:56:15Z</time>
      </trkpt>
      <trkpt lat="41.646190150" lon="2.539928380">
        <ele>365.40</ele>
        <time>2014-03-02T09:56:16Z</time>
      </trkpt>
      <trkpt lat="41.646186800" lon="2.539946820">
        <ele>365.50</ele>
        <time>2014-03-02T09:56:17Z</time>
      </trkpt>
      <trkpt lat="41.646188470" lon="2.539963420">
        <ele>365.50</ele>
        <time>2014-03-02T09:56:18Z</time>
      </trkpt>
      <trkpt lat="41.646190150" lon="2.539978340">
        <ele>365.60</ele>
        <time>2014-03-02T09:56:19Z</time>
      </trkpt>
      <trkpt lat="41.646193340" lon="2.539988400">
        <ele>365.60</ele>
        <time>2014-03-02T09:56:20Z</time>
      </trkpt>
      <trkpt lat="41.646196690" lon="2.540000130">
        <ele>365.90</ele>
        <time>2014-03-02T09:56:21Z</time>
      </trkpt>
      <trkpt lat="41.646203390" lon="2.540011700">
        <ele>366.00</ele>
        <time>2014-03-02T09:56:22Z</time>
      </trkpt>
      <trkpt lat="41.646211780" lon="2.540016730">
        <ele>365.80</ele>
        <time>2014-03-02T09:56:23Z</time>
      </trkpt>
      <trkpt lat="41.646218480" lon="2.540023430">
        <ele>365.70</ele>
        <time>2014-03-02T09:56:24Z</time>
      </trkpt>
      <trkpt lat="41.646226700" lon="2.540028460">
        <ele>366.00</ele>
        <time>2014-03-02T09:56:25Z</time>
      </trkpt>
      <trkpt lat="41.646235080" lon="2.540030140">
        <ele>366.30</ele>
        <time>2014-03-02T09:56:26Z</time>
      </trkpt>
      <trkpt lat="41.646243460" lon="2.540028460">
        <ele>366.50</ele>
        <time>2014-03-02T09:56:27Z</time>
      </trkpt>
      <trkpt lat="41.646251670" lon="2.540030140">
        <ele>366.40</ele>
        <time>2014-03-02T09:56:28Z</time>
      </trkpt>
      <trkpt lat="41.646256700" lon="2.540028460">
        <ele>366.40</ele>
        <time>2014-03-02T09:56:29Z</time>
      </trkpt>
      <trkpt lat="41.646265080" lon="2.540028460">
        <ele>366.80</ele>
        <time>2014-03-02T09:56:30Z</time>
      </trkpt>
      <trkpt lat="41.646271790" lon="2.540028460">
        <ele>367.10</ele>
        <time>2014-03-02T09:56:31Z</time>
      </trkpt>
      <trkpt lat="41.646280000" lon="2.540025110">
        <ele>367.30</ele>
        <time>2014-03-02T09:56:32Z</time>
      </trkpt>
      <trkpt lat="41.646288390" lon="2.540021760">
        <ele>367.60</ele>
        <time>2014-03-02T09:56:33Z</time>
      </trkpt>
      <trkpt lat="41.646295090" lon="2.540021760">
        <ele>367.90</ele>
        <time>2014-03-02T09:56:34Z</time>
      </trkpt>
      <trkpt lat="41.646300120" lon="2.540021760">
        <ele>368.00</ele>
        <time>2014-03-02T09:56:35Z</time>
      </trkpt>
      <trkpt lat="41.646308340" lon="2.540020080">
        <ele>368.10</ele>
        <time>2014-03-02T09:56:36Z</time>
      </trkpt>
      <trkpt lat="41.646318390" lon="2.540021760">
        <ele>368.20</ele>
        <time>2014-03-02T09:56:37Z</time>
      </trkpt>
      <trkpt lat="41.646325100" lon="2.540021760">
        <ele>368.30</ele>
        <time>2014-03-02T09:56:38Z</time>
      </trkpt>
      <trkpt lat="41.646333480" lon="2.540025110">
        <ele>368.40</ele>
        <time>2014-03-02T09:56:39Z</time>
      </trkpt>
      <trkpt lat="41.646340020" lon="2.540023430">
        <ele>368.30</ele>
        <time>2014-03-02T09:56:40Z</time>
      </trkpt>
      <trkpt lat="41.646348400" lon="2.540021760">
        <ele>368.30</ele>
        <time>2014-03-02T09:56:41Z</time>
      </trkpt>
      <trkpt lat="41.646356780" lon="2.540020080">
        <ele>368.80</ele>
        <time>2014-03-02T09:56:42Z</time>
      </trkpt>
      <trkpt lat="41.646365000" lon="2.540020080">
        <ele>369.10</ele>
        <time>2014-03-02T09:56:43Z</time>
      </trkpt>
      <trkpt lat="41.646370030" lon="2.540018400">
        <ele>369.80</ele>
        <time>2014-03-02T09:56:44Z</time>
      </trkpt>
      <trkpt lat="41.646375060" lon="2.540011700">
        <ele>370.30</ele>
        <time>2014-03-02T09:56:45Z</time>
      </trkpt>
      <trkpt lat="41.646381760" lon="2.540005160">
        <ele>370.70</ele>
        <time>2014-03-02T09:56:46Z</time>
      </trkpt>
      <trkpt lat="41.646388470" lon="2.539995100">
        <ele>370.90</ele>
        <time>2014-03-02T09:56:47Z</time>
      </trkpt>
      <trkpt lat="41.646395000" lon="2.539986720">
        <ele>370.90</ele>
        <time>2014-03-02T09:56:48Z</time>
      </trkpt>
      <trkpt lat="41.646406740" lon="2.539980020">
        <ele>370.90</ele>
        <time>2014-03-02T09:56:49Z</time>
      </trkpt>
      <trkpt lat="41.646415120" lon="2.539973480">
        <ele>370.80</ele>
        <time>2014-03-02T09:56:50Z</time>
      </trkpt>
      <trkpt lat="41.646425010" lon="2.539965100">
        <ele>370.90</ele>
        <time>2014-03-02T09:56:51Z</time>
      </trkpt>
      <trkpt lat="41.646433390" lon="2.539960070">
        <ele>370.90</ele>
        <time>2014-03-02T09:56:52Z</time>
      </trkpt>
      <trkpt lat="41.646441780" lon="2.539956710">
        <ele>371.00</ele>
        <time>2014-03-02T09:56:53Z</time>
      </trkpt>
      <trkpt lat="41.646451670" lon="2.539950010">
        <ele>371.30</ele>
        <time>2014-03-02T09:56:54Z</time>
      </trkpt>
      <trkpt lat="41.646460050" lon="2.539943470">
        <ele>371.60</ele>
        <time>2014-03-02T09:56:55Z</time>
      </trkpt>
      <trkpt lat="41.646470110" lon="2.539935090">
        <ele>372.00</ele>
        <time>2014-03-02T09:56:56Z</time>
      </trkpt>
      <trkpt lat="41.646480000" lon="2.539928380">
        <ele>372.20</ele>
        <time>2014-03-02T09:56:57Z</time>
      </trkpt>
      <trkpt lat="41.646488380" lon="2.539921680">
        <ele>372.40</ele>
        <time>2014-03-02T09:56:58Z</time>
      </trkpt>
      <trkpt lat="41.646496760" lon="2.539913460">
        <ele>372.40</ele>
        <time>2014-03-02T09:56:59Z</time>
      </trkpt>
      <trkpt lat="41.646505140" lon="2.539908430">
        <ele>372.40</ele>
        <time>2014-03-02T09:57:00Z</time>
      </trkpt>
      <trkpt lat="41.646513360" lon="2.539900050">
        <ele>372.30</ele>
        <time>2014-03-02T09:57:01Z</time>
      </trkpt>
      <trkpt lat="41.646523410" lon="2.539891670">
        <ele>372.20</ele>
        <time>2014-03-02T09:57:02Z</time>
      </trkpt>
      <trkpt lat="41.646531800" lon="2.539888480">
        <ele>372.50</ele>
        <time>2014-03-02T09:57:03Z</time>
      </trkpt>
      <trkpt lat="41.646540010" lon="2.539880100">
        <ele>372.60</ele>
        <time>2014-03-02T09:57:04Z</time>
      </trkpt>
      <trkpt lat="41.646548390" lon="2.539871720">
        <ele>372.80</ele>
        <time>2014-03-02T09:57:05Z</time>
      </trkpt>
      <trkpt lat="41.646558450" lon="2.539863340">
        <ele>373.10</ele>
        <time>2014-03-02T09:57:06Z</time>
      </trkpt>
      <trkpt lat="41.646566670" lon="2.539855130">
        <ele>373.30</ele>
        <time>2014-03-02T09:57:07Z</time>
      </trkpt>
      <trkpt lat="41.646575050" lon="2.539850100">
        <ele>373.40</ele>
        <time>2014-03-02T09:57:08Z</time>
      </trkpt>
      <trkpt lat="41.646588460" lon="2.539843390">
        <ele>373.40</ele>
        <time>2014-03-02T09:57:09Z</time>
      </trkpt>
      <trkpt lat="41.646595000" lon="2.539831820">
        <ele>373.40</ele>
        <time>2014-03-02T09:57:10Z</time>
      </trkpt>
      <trkpt lat="41.646601700" lon="2.539823440">
        <ele>373.50</ele>
        <time>2014-03-02T09:57:11Z</time>
      </trkpt>
      <trkpt lat="41.646610080" lon="2.539813380">
        <ele>373.50</ele>
        <time>2014-03-02T09:57:12Z</time>
      </trkpt>
      <trkpt lat="41.646618470" lon="2.539806680">
        <ele>373.90</ele>
        <time>2014-03-02T09:57:13Z</time>
      </trkpt>
      <trkpt lat="41.646630030" lon="2.539798460">
        <ele>374.20</ele>
        <time>2014-03-02T09:57:14Z</time>
      </trkpt>
      <trkpt lat="41.646636740" lon="2.539791760">
        <ele>374.40</ele>
        <time>2014-03-02T09:57:15Z</time>
      </trkpt>
      <trkpt lat="41.646646800" lon="2.539783380">
        <ele>374.50</ele>
        <time>2014-03-02T09:57:16Z</time>
      </trkpt>
      <trkpt lat="41.646656690" lon="2.539773490">
        <ele>374.70</ele>
        <time>2014-03-02T09:57:17Z</time>
      </trkpt>
      <trkpt lat="41.646665070" lon="2.539763430">
        <ele>374.60</ele>
        <time>2014-03-02T09:57:18Z</time>
      </trkpt>
      <trkpt lat="41.646675130" lon="2.539755050">
        <ele>374.60</ele>
        <time>2014-03-02T09:57:19Z</time>
      </trkpt>
      <trkpt lat="41.646686690" lon="2.539745150">
        <ele>374.50</ele>
        <time>2014-03-02T09:57:20Z</time>
      </trkpt>
      <trkpt lat="41.646695080" lon="2.539735100">
        <ele>374.40</ele>
        <time>2014-03-02T09:57:21Z</time>
      </trkpt>
      <trkpt lat="41.646703460" lon="2.539726710">
        <ele>374.70</ele>
        <time>2014-03-02T09:57:22Z</time>
      </trkpt>
      <trkpt lat="41.646713350" lon="2.539716820">
        <ele>374.80</ele>
        <time>2014-03-02T09:57:23Z</time>
      </trkpt>
      <trkpt lat="41.646721730" lon="2.539706770">
        <ele>375.00</ele>
        <time>2014-03-02T09:57:24Z</time>
      </trkpt>
      <trkpt lat="41.646731790" lon="2.539696710">
        <ele>375.50</ele>
        <time>2014-03-02T09:57:25Z</time>
      </trkpt>
      <trkpt lat="41.646740000" lon="2.539685140">
        <ele>375.80</ele>
        <time>2014-03-02T09:57:26Z</time>
      </trkpt>
      <trkpt lat="41.646750060" lon="2.539675080">
        <ele>376.10</ele>
        <time>2014-03-02T09:57:27Z</time>
      </trkpt>
      <trkpt lat="41.646760120" lon="2.539665020">
        <ele>376.40</ele>
        <time>2014-03-02T09:57:28Z</time>
      </trkpt>
      <trkpt lat="41.646768330" lon="2.539655130">
        <ele>376.70</ele>
        <time>2014-03-02T09:57:29Z</time>
      </trkpt>
      <trkpt lat="41.646778390" lon="2.539645070">
        <ele>377.00</ele>
        <time>2014-03-02T09:57:30Z</time>
      </trkpt>
      <trkpt lat="41.646788450" lon="2.539635020">
        <ele>377.20</ele>
        <time>2014-03-02T09:57:31Z</time>
      </trkpt>
      <trkpt lat="41.646796660" lon="2.539626800">
        <ele>377.40</ele>
        <time>2014-03-02T09:57:32Z</time>
      </trkpt>
      <trkpt lat="41.646808400" lon="2.539616740">
        <ele>377.50</ele>
        <time>2014-03-02T09:57:33Z</time>
      </trkpt>
      <trkpt lat="41.646821810" lon="2.539611710">
        <ele>377.50</ele>
        <time>2014-03-02T09:57:34Z</time>
      </trkpt>
      <trkpt lat="41.646835050" lon="2.539608360">
        <ele>377.50</ele>
        <time>2014-03-02T09:57:35Z</time>
      </trkpt>
      <trkpt lat="41.646845110" lon="2.539605010">
        <ele>377.40</ele>
        <time>2014-03-02T09:57:36Z</time>
      </trkpt>
      <trkpt lat="41.646853490" lon="2.539600150">
        <ele>377.40</ele>
        <time>2014-03-02T09:57:37Z</time>
      </trkpt>
      <trkpt lat="41.646863380" lon="2.539596790">
        <ele>377.30</ele>
        <time>2014-03-02T09:57:38Z</time>
      </trkpt>
      <trkpt lat="41.646875120" lon="2.539593440">
        <ele>377.70</ele>
        <time>2014-03-02T09:57:39Z</time>
      </trkpt>
      <trkpt lat="41.646883330" lon="2.539590090">
        <ele>377.90</ele>
        <time>2014-03-02T09:57:40Z</time>
      </trkpt>
      <trkpt lat="41.646895070" lon="2.539591770">
        <ele>377.80</ele>
        <time>2014-03-02T09:57:41Z</time>
      </trkpt>
      <trkpt lat="41.646906800" lon="2.539591770">
        <ele>377.70</ele>
        <time>2014-03-02T09:57:42Z</time>
      </trkpt>
      <trkpt lat="41.646916690" lon="2.539591770">
        <ele>377.70</ele>
        <time>2014-03-02T09:57:43Z</time>
      </trkpt>
      <trkpt lat="41.646928430" lon="2.539593440">
        <ele>378.00</ele>
        <time>2014-03-02T09:57:44Z</time>
      </trkpt>
      <trkpt lat="41.646938490" lon="2.539596790">
        <ele>378.30</ele>
        <time>2014-03-02T09:57:45Z</time>
      </trkpt>
      <trkpt lat="41.646950050" lon="2.539596790">
        <ele>378.50</ele>
        <time>2014-03-02T09:57:46Z</time>
      </trkpt>
      <trkpt lat="41.646961790" lon="2.539598470">
        <ele>378.70</ele>
        <time>2014-03-02T09:57:47Z</time>
      </trkpt>
      <trkpt lat="41.646975030" lon="2.539595120">
        <ele>378.90</ele>
        <time>2014-03-02T09:57:48Z</time>
      </trkpt>
      <trkpt lat="41.646990120" lon="2.539593440">
        <ele>379.00</ele>
        <time>2014-03-02T09:57:49Z</time>
      </trkpt>
      <trkpt lat="41.647001690" lon="2.539593440">
        <ele>379.00</ele>
        <time>2014-03-02T09:57:50Z</time>
      </trkpt>
      <trkpt lat="41.647013420" lon="2.539590090">
        <ele>378.70</ele>
        <time>2014-03-02T09:57:51Z</time>
      </trkpt>
      <trkpt lat="41.647023480" lon="2.539586740">
        <ele>378.50</ele>
        <time>2014-03-02T09:57:52Z</time>
      </trkpt>
      <trkpt lat="41.647033370" lon="2.539585060">
        <ele>378.40</ele>
        <time>2014-03-02T09:57:53Z</time>
      </trkpt>
      <trkpt lat="41.647043430" lon="2.539581710">
        <ele>378.30</ele>
        <time>2014-03-02T09:57:54Z</time>
      </trkpt>
      <trkpt lat="41.647056670" lon="2.539578350">
        <ele>378.20</ele>
        <time>2014-03-02T09:57:55Z</time>
      </trkpt>
      <trkpt lat="41.647068410" lon="2.539573490">
        <ele>378.90</ele>
        <time>2014-03-02T09:57:56Z</time>
      </trkpt>
      <trkpt lat="41.647076790" lon="2.539570140">
        <ele>379.50</ele>
        <time>2014-03-02T09:57:57Z</time>
      </trkpt>
      <trkpt lat="41.647088360" lon="2.539565110">
        <ele>379.70</ele>
        <time>2014-03-02T09:57:58Z</time>
      </trkpt>
      <trkpt lat="41.647098410" lon="2.539558410">
        <ele>379.90</ele>
        <time>2014-03-02T09:57:59Z</time>
      </trkpt>
      <trkpt lat="41.647111820" lon="2.539551700">
        <ele>380.30</ele>
        <time>2014-03-02T09:58:00Z</time>
      </trkpt>
      <trkpt lat="41.647123390" lon="2.539541810">
        <ele>380.60</ele>
        <time>2014-03-02T09:58:01Z</time>
      </trkpt>
      <trkpt lat="41.647136800" lon="2.539530070">
        <ele>380.80</ele>
        <time>2014-03-02T09:58:02Z</time>
      </trkpt>
      <trkpt lat="41.647148370" lon="2.539520020">
        <ele>380.90</ele>
        <time>2014-03-02T09:58:03Z</time>
      </trkpt>
      <trkpt lat="41.647160100" lon="2.539508450">
        <ele>380.90</ele>
        <time>2014-03-02T09:58:04Z</time>
      </trkpt>
      <trkpt lat="41.647173350" lon="2.539493360">
        <ele>381.00</ele>
        <time>2014-03-02T09:58:05Z</time>
      </trkpt>
      <trkpt lat="41.647186760" lon="2.539475090">
        <ele>381.00</ele>
        <time>2014-03-02T09:58:06Z</time>
      </trkpt>
      <trkpt lat="41.647201680" lon="2.539453460">
        <ele>381.00</ele>
        <time>2014-03-02T09:58:07Z</time>
      </trkpt>
      <trkpt lat="41.647218440" lon="2.539426810">
        <ele>381.00</ele>
        <time>2014-03-02T09:58:08Z</time>
      </trkpt>
      <trkpt lat="41.647236710" lon="2.539403340">
        <ele>380.90</ele>
        <time>2014-03-02T09:58:09Z</time>
      </trkpt>
      <trkpt lat="41.647256660" lon="2.539381720">
        <ele>380.80</ele>
        <time>2014-03-02T09:58:10Z</time>
      </trkpt>
      <trkpt lat="41.647275100" lon="2.539358410">
        <ele>380.80</ele>
        <time>2014-03-02T09:58:11Z</time>
      </trkpt>
      <trkpt lat="41.647296730" lon="2.539338460">
        <ele>380.40</ele>
        <time>2014-03-02T09:58:12Z</time>
      </trkpt>
      <trkpt lat="41.647321710" lon="2.539318350">
        <ele>380.10</ele>
        <time>2014-03-02T09:58:13Z</time>
      </trkpt>
      <trkpt lat="41.647345010" lon="2.539301750">
        <ele>379.90</ele>
        <time>2014-03-02T09:58:14Z</time>
      </trkpt>
      <trkpt lat="41.647368480" lon="2.539283480">
        <ele>380.00</ele>
        <time>2014-03-02T09:58:15Z</time>
      </trkpt>
      <trkpt lat="41.647391780" lon="2.539270070">
        <ele>380.00</ele>
        <time>2014-03-02T09:58:16Z</time>
      </trkpt>
      <trkpt lat="41.647415080" lon="2.539258330">
        <ele>379.70</ele>
        <time>2014-03-02T09:58:17Z</time>
      </trkpt>
      <trkpt lat="41.647436710" lon="2.539250120">
        <ele>379.50</ele>
        <time>2014-03-02T09:58:18Z</time>
      </trkpt>
      <trkpt lat="41.647458330" lon="2.539250120">
        <ele>379.20</ele>
        <time>2014-03-02T09:58:19Z</time>
      </trkpt>
      <trkpt lat="41.647480130" lon="2.539255150">
        <ele>379.00</ele>
        <time>2014-03-02T09:58:20Z</time>
      </trkpt>
      <trkpt lat="41.647500070" lon="2.539263360">
        <ele>378.90</ele>
        <time>2014-03-02T09:58:21Z</time>
      </trkpt>
      <trkpt lat="41.647516670" lon="2.539275100">
        <ele>378.80</ele>
        <time>2014-03-02T09:58:22Z</time>
      </trkpt>
      <trkpt lat="41.647533430" lon="2.539288340">
        <ele>378.80</ele>
        <time>2014-03-02T09:58:23Z</time>
      </trkpt>
      <trkpt lat="41.647546680" lon="2.539305100">
        <ele>379.00</ele>
        <time>2014-03-02T09:58:24Z</time>
      </trkpt>
      <trkpt lat="41.647560090" lon="2.539321700">
        <ele>379.20</ele>
        <time>2014-03-02T09:58:25Z</time>
      </trkpt>
      <trkpt lat="41.647571820" lon="2.539340140">
        <ele>379.50</ele>
        <time>2014-03-02T09:58:26Z</time>
      </trkpt>
      <trkpt lat="41.647581710" lon="2.539358410">
        <ele>379.80</ele>
        <time>2014-03-02T09:58:27Z</time>
      </trkpt>
      <trkpt lat="41.647591770" lon="2.539375010">
        <ele>380.00</ele>
        <time>2014-03-02T09:58:28Z</time>
      </trkpt>
      <trkpt lat="41.647601660" lon="2.539386740">
        <ele>379.90</ele>
        <time>2014-03-02T09:58:29Z</time>
      </trkpt>
      <trkpt lat="41.647611720" lon="2.539396800">
        <ele>379.80</ele>
        <time>2014-03-02T09:58:30Z</time>
      </trkpt>
      <trkpt lat="41.647625130" lon="2.539410050">
        <ele>379.20</ele>
        <time>2014-03-02T09:58:31Z</time>
      </trkpt>
      <trkpt lat="41.647636700" lon="2.539426810">
        <ele>378.80</ele>
        <time>2014-03-02T09:58:32Z</time>
      </trkpt>
      <trkpt lat="41.647650110" lon="2.539445080">
        <ele>378.50</ele>
        <time>2014-03-02T09:58:33Z</time>
      </trkpt>
      <trkpt lat="41.647665030" lon="2.539461680">
        <ele>378.50</ele>
        <time>2014-03-02T09:58:34Z</time>
      </trkpt>
      <trkpt lat="41.647683470" lon="2.539471740">
        <ele>378.50</ele>
        <time>2014-03-02T09:58:35Z</time>
      </trkpt>
      <trkpt lat="41.647703420" lon="2.539476770">
        <ele>378.40</ele>
        <time>2014-03-02T09:58:36Z</time>
      </trkpt>
      <trkpt lat="41.647725040" lon="2.539478440">
        <ele>378.40</ele>
        <time>2014-03-02T09:58:37Z</time>
      </trkpt>
      <trkpt lat="41.647746670" lon="2.539476770">
        <ele>378.30</ele>
        <time>2014-03-02T09:58:38Z</time>
      </trkpt>
      <trkpt lat="41.647768460" lon="2.539473410">
        <ele>378.20</ele>
        <time>2014-03-02T09:58:39Z</time>
      </trkpt>
      <trkpt lat="41.647791760" lon="2.539468380">
        <ele>378.20</ele>
        <time>2014-03-02T09:58:40Z</time>
      </trkpt>
      <trkpt lat="41.647811710" lon="2.539461680">
        <ele>378.10</ele>
        <time>2014-03-02T09:58:41Z</time>
      </trkpt>
      <trkpt lat="41.647826800" lon="2.539456820">
        <ele>378.00</ele>
        <time>2014-03-02T09:58:42Z</time>
      </trkpt>
      <trkpt lat="41.647845070" lon="2.539448440">
        <ele>378.10</ele>
        <time>2014-03-02T09:58:43Z</time>
      </trkpt>
      <trkpt lat="41.647863350" lon="2.539443410">
        <ele>378.20</ele>
        <time>2014-03-02T09:58:44Z</time>
      </trkpt>
      <trkpt lat="41.647883460" lon="2.539435020">
        <ele>378.10</ele>
        <time>2014-03-02T09:58:45Z</time>
      </trkpt>
      <trkpt lat="41.647901730" lon="2.539426810">
        <ele>378.00</ele>
        <time>2014-03-02T09:58:46Z</time>
      </trkpt>
      <trkpt lat="41.647921680" lon="2.539416750">
        <ele>378.00</ele>
        <time>2014-03-02T09:58:47Z</time>
      </trkpt>
      <trkpt lat="41.647936770" lon="2.539406690">
        <ele>378.20</ele>
        <time>2014-03-02T09:58:48Z</time>
      </trkpt>
      <trkpt lat="41.647953370" lon="2.539396800">
        <ele>378.40</ele>
        <time>2014-03-02T09:58:49Z</time>
      </trkpt>
      <trkpt lat="41.647966780" lon="2.539390100">
        <ele>378.40</ele>
        <time>2014-03-02T09:58:50Z</time>
      </trkpt>
      <trkpt lat="41.647981700" lon="2.539381720">
        <ele>378.50</ele>
        <time>2014-03-02T09:58:51Z</time>
      </trkpt>
      <trkpt lat="41.647995110" lon="2.539375010">
        <ele>378.50</ele>
        <time>2014-03-02T09:58:52Z</time>
      </trkpt>
      <trkpt lat="41.648013380" lon="2.539366800">
        <ele>378.40</ele>
        <time>2014-03-02T09:58:53Z</time>
      </trkpt>
      <trkpt lat="41.648031820" lon="2.539356740">
        <ele>378.30</ele>
        <time>2014-03-02T09:58:54Z</time>
      </trkpt>
      <trkpt lat="41.648050090" lon="2.539345000">
        <ele>378.40</ele>
        <time>2014-03-02T09:58:55Z</time>
      </trkpt>
      <trkpt lat="41.648070040" lon="2.539333440">
        <ele>378.50</ele>
        <time>2014-03-02T09:58:56Z</time>
      </trkpt>
      <trkpt lat="41.648086810" lon="2.539323380">
        <ele>378.20</ele>
        <time>2014-03-02T09:58:57Z</time>
      </trkpt>
      <trkpt lat="41.648101730" lon="2.539311810">
        <ele>378.00</ele>
        <time>2014-03-02T09:58:58Z</time>
      </trkpt>
      <trkpt lat="41.648116810" lon="2.539298400">
        <ele>377.80</ele>
        <time>2014-03-02T09:58:59Z</time>
      </trkpt>
      <trkpt lat="41.648130060" lon="2.539283480">
        <ele>377.80</ele>
        <time>2014-03-02T09:59:00Z</time>
      </trkpt>
      <trkpt lat="41.648145150" lon="2.539268390">
        <ele>377.80</ele>
        <time>2014-03-02T09:59:01Z</time>
      </trkpt>
      <trkpt lat="41.648166770" lon="2.539260010">
        <ele>377.70</ele>
        <time>2014-03-02T09:59:02Z</time>
      </trkpt>
      <trkpt lat="41.648188400" lon="2.539256820">
        <ele>377.50</ele>
        <time>2014-03-02T09:59:03Z</time>
      </trkpt>
      <trkpt lat="41.648215050" lon="2.539265040">
        <ele>377.00</ele>
        <time>2014-03-02T09:59:04Z</time>
      </trkpt>
      <trkpt lat="41.648240030" lon="2.539280130">
        <ele>376.60</ele>
        <time>2014-03-02T09:59:05Z</time>
      </trkpt>
      <trkpt lat="41.648260150" lon="2.539296720">
        <ele>376.30</ele>
        <time>2014-03-02T09:59:06Z</time>
      </trkpt>
      <trkpt lat="41.648278420" lon="2.539315000">
        <ele>376.90</ele>
        <time>2014-03-02T09:59:07Z</time>
      </trkpt>
      <trkpt lat="41.648296690" lon="2.539331760">
        <ele>377.30</ele>
        <time>2014-03-02T09:59:08Z</time>
      </trkpt>
      <trkpt lat="41.648315130" lon="2.539346680">
        <ele>377.20</ele>
        <time>2014-03-02T09:59:09Z</time>
      </trkpt>
      <trkpt lat="41.648333400" lon="2.539360090">
        <ele>377.10</ele>
        <time>2014-03-02T09:59:10Z</time>
      </trkpt>
      <trkpt lat="41.648351680" lon="2.539371820">
        <ele>377.00</ele>
        <time>2014-03-02T09:59:11Z</time>
      </trkpt>
      <trkpt lat="41.648368440" lon="2.539383390">
        <ele>376.80</ele>
        <time>2014-03-02T09:59:12Z</time>
      </trkpt>
      <trkpt lat="41.648386710" lon="2.539396800">
        <ele>376.60</ele>
        <time>2014-03-02T09:59:13Z</time>
      </trkpt>
      <trkpt lat="41.648403480" lon="2.539406690">
        <ele>376.20</ele>
        <time>2014-03-02T09:59:14Z</time>
      </trkpt>
      <trkpt lat="41.648420070" lon="2.539416750">
        <ele>375.90</ele>
        <time>2014-03-02T09:59:15Z</time>
      </trkpt>
      <trkpt lat="41.648436670" lon="2.539426810">
        <ele>375.90</ele>
        <time>2014-03-02T09:59:16Z</time>
      </trkpt>
      <trkpt lat="41.648456780" lon="2.539438380">
        <ele>375.80</ele>
        <time>2014-03-02T09:59:17Z</time>
      </trkpt>
      <trkpt lat="41.648476730" lon="2.539453460">
        <ele>375.80</ele>
        <time>2014-03-02T09:59:18Z</time>
      </trkpt>
      <trkpt lat="41.648495010" lon="2.539471740">
        <ele>376.40</ele>
        <time>2014-03-02T09:59:19Z</time>
      </trkpt>
      <trkpt lat="41.648516800" lon="2.539491690">
        <ele>376.70</ele>
        <time>2014-03-02T09:59:20Z</time>
      </trkpt>
      <trkpt lat="41.648531720" lon="2.539513480">
        <ele>376.40</ele>
        <time>2014-03-02T09:59:21Z</time>
      </trkpt>
      <trkpt lat="41.648545130" lon="2.539533430">
        <ele>376.10</ele>
        <time>2014-03-02T09:59:22Z</time>
      </trkpt>
      <trkpt lat="41.648556700" lon="2.539550020">
        <ele>376.20</ele>
        <time>2014-03-02T09:59:23Z</time>
      </trkpt>
      <trkpt lat="41.648566760" lon="2.539568460">
        <ele>376.20</ele>
        <time>2014-03-02T09:59:24Z</time>
      </trkpt>
      <trkpt lat="41.648578490" lon="2.539585060">
        <ele>376.20</ele>
        <time>2014-03-02T09:59:25Z</time>
      </trkpt>
      <trkpt lat="41.648591730" lon="2.539603330">
        <ele>376.10</ele>
        <time>2014-03-02T09:59:26Z</time>
      </trkpt>
      <trkpt lat="41.648605140" lon="2.539618420">
        <ele>376.00</ele>
        <time>2014-03-02T09:59:27Z</time>
      </trkpt>
      <trkpt lat="41.648616710" lon="2.539633340">
        <ele>376.00</ele>
        <time>2014-03-02T09:59:28Z</time>
      </trkpt>
      <trkpt lat="41.648630120" lon="2.539650100">
        <ele>376.10</ele>
        <time>2014-03-02T09:59:29Z</time>
      </trkpt>
      <trkpt lat="41.648643370" lon="2.539663350">
        <ele>376.10</ele>
        <time>2014-03-02T09:59:30Z</time>
      </trkpt>
      <trkpt lat="41.648656780" lon="2.539675080">
        <ele>376.00</ele>
        <time>2014-03-02T09:59:31Z</time>
      </trkpt>
      <trkpt lat="41.648671700" lon="2.539685140">
        <ele>376.00</ele>
        <time>2014-03-02T09:59:32Z</time>
      </trkpt>
      <trkpt lat="41.648685110" lon="2.539695030">
        <ele>376.20</ele>
        <time>2014-03-02T09:59:33Z</time>
      </trkpt>
      <trkpt lat="41.648700030" lon="2.539705090">
        <ele>376.40</ele>
        <time>2014-03-02T09:59:34Z</time>
      </trkpt>
      <trkpt lat="41.648715110" lon="2.539715150">
        <ele>376.50</ele>
        <time>2014-03-02T09:59:35Z</time>
      </trkpt>
      <trkpt lat="41.648730030" lon="2.539725040">
        <ele>376.60</ele>
        <time>2014-03-02T09:59:36Z</time>
      </trkpt>
      <trkpt lat="41.648745120" lon="2.539735100">
        <ele>376.70</ele>
        <time>2014-03-02T09:59:37Z</time>
      </trkpt>
      <trkpt lat="41.648761720" lon="2.539745150">
        <ele>376.70</ele>
        <time>2014-03-02T09:59:38Z</time>
      </trkpt>
      <trkpt lat="41.648776810" lon="2.539755050">
        <ele>376.80</ele>
        <time>2014-03-02T09:59:39Z</time>
      </trkpt>
      <trkpt lat="41.648793400" lon="2.539766780">
        <ele>376.40</ele>
        <time>2014-03-02T09:59:40Z</time>
      </trkpt>
      <trkpt lat="41.648810000" lon="2.539776670">
        <ele>376.20</ele>
        <time>2014-03-02T09:59:41Z</time>
      </trkpt>
      <trkpt lat="41.648826760" lon="2.539786730">
        <ele>376.00</ele>
        <time>2014-03-02T09:59:42Z</time>
      </trkpt>
      <trkpt lat="41.648845030" lon="2.539798460">
        <ele>375.80</ele>
        <time>2014-03-02T09:59:43Z</time>
      </trkpt>
      <trkpt lat="41.648861800" lon="2.539806680">
        <ele>375.70</ele>
        <time>2014-03-02T09:59:44Z</time>
      </trkpt>
      <trkpt lat="41.648876720" lon="2.539818410">
        <ele>376.00</ele>
        <time>2014-03-02T09:59:45Z</time>
      </trkpt>
      <trkpt lat="41.648891810" lon="2.539826790">
        <ele>376.20</ele>
        <time>2014-03-02T09:59:46Z</time>
      </trkpt>
      <trkpt lat="41.648905050" lon="2.539836680">
        <ele>376.30</ele>
        <time>2014-03-02T09:59:47Z</time>
      </trkpt>
      <trkpt lat="41.648918460" lon="2.539845070">
        <ele>376.40</ele>
        <time>2014-03-02T09:59:48Z</time>
      </trkpt>
      <trkpt lat="41.648931700" lon="2.539850100">
        <ele>376.50</ele>
        <time>2014-03-02T09:59:49Z</time>
      </trkpt>
      <trkpt lat="41.648948470" lon="2.539855130">
        <ele>376.50</ele>
        <time>2014-03-02T09:59:50Z</time>
      </trkpt>
      <trkpt lat="41.648965060" lon="2.539858480">
        <ele>376.60</ele>
        <time>2014-03-02T09:59:51Z</time>
      </trkpt>
      <trkpt lat="41.648981830" lon="2.539861660">
        <ele>376.50</ele>
        <time>2014-03-02T09:59:52Z</time>
      </trkpt>
      <trkpt lat="41.648998420" lon="2.539860150">
        <ele>376.50</ele>
        <time>2014-03-02T09:59:53Z</time>
      </trkpt>
      <trkpt lat="41.649013340" lon="2.539855130">
        <ele>376.80</ele>
        <time>2014-03-02T09:59:54Z</time>
      </trkpt>
      <trkpt lat="41.649026750" lon="2.539848420">
        <ele>377.00</ele>
        <time>2014-03-02T09:59:55Z</time>
      </trkpt>
      <trkpt lat="41.649041670" lon="2.539841710">
        <ele>377.10</ele>
        <time>2014-03-02T09:59:56Z</time>
      </trkpt>
      <trkpt lat="41.649058440" lon="2.539833330">
        <ele>377.20</ele>
        <time>2014-03-02T09:59:57Z</time>
      </trkpt>
      <trkpt lat="41.649075030" lon="2.539825120">
        <ele>377.20</ele>
        <time>2014-03-02T09:59:58Z</time>
      </trkpt>
      <trkpt lat="41.649090120" lon="2.539818410">
        <ele>377.20</ele>
        <time>2014-03-02T09:59:59Z</time>
      </trkpt>
      <trkpt lat="41.649108390" lon="2.539813380">
        <ele>377.20</ele>
        <time>2014-03-02T10:00:00Z</time>
      </trkpt>
      <trkpt lat="41.649125160" lon="2.539810030">
        <ele>377.00</ele>
        <time>2014-03-02T10:00:01Z</time>
      </trkpt>
      <trkpt lat="41.649140080" lon="2.539810030">
        <ele>376.90</ele>
        <time>2014-03-02T10:00:02Z</time>
      </trkpt>
      <trkpt lat="41.649155000" lon="2.539811710">
        <ele>376.90</ele>
        <time>2014-03-02T10:00:03Z</time>
      </trkpt>
      <trkpt lat="41.649166730" lon="2.539813380">
        <ele>376.60</ele>
        <time>2014-03-02T10:00:04Z</time>
      </trkpt>
      <trkpt lat="41.649181820" lon="2.539820090">
        <ele>376.40</ele>
        <time>2014-03-02T10:00:05Z</time>
      </trkpt>
      <trkpt lat="41.649195060" lon="2.539826790">
        <ele>376.40</ele>
        <time>2014-03-02T10:00:06Z</time>
      </trkpt>
      <trkpt lat="41.649206800" lon="2.539835010">
        <ele>376.30</ele>
        <time>2014-03-02T10:00:07Z</time>
      </trkpt>
      <trkpt lat="41.649218360" lon="2.539845070">
        <ele>376.20</ele>
        <time>2014-03-02T10:00:08Z</time>
      </trkpt>
      <trkpt lat="41.649228420" lon="2.539856800">
        <ele>376.70</ele>
        <time>2014-03-02T10:00:09Z</time>
      </trkpt>
      <trkpt lat="41.649235130" lon="2.539870040">
        <ele>377.00</ele>
        <time>2014-03-02T10:00:10Z</time>
      </trkpt>
      <trkpt lat="41.649243340" lon="2.539881780">
        <ele>377.70</ele>
        <time>2014-03-02T10:00:11Z</time>
      </trkpt>
      <trkpt lat="41.649250050" lon="2.539895020">
        <ele>378.30</ele>
        <time>2014-03-02T10:00:12Z</time>
      </trkpt>
      <trkpt lat="41.649256750" lon="2.539908430">
        <ele>378.10</ele>
        <time>2014-03-02T10:00:13Z</time>
      </trkpt>
      <trkpt lat="41.649261780" lon="2.539923350">
        <ele>378.00</ele>
        <time>2014-03-02T10:00:14Z</time>
      </trkpt>
      <trkpt lat="41.649266810" lon="2.539936760">
        <ele>377.90</ele>
        <time>2014-03-02T10:00:15Z</time>
      </trkpt>
      <trkpt lat="41.649270000" lon="2.539953360">
        <ele>378.10</ele>
        <time>2014-03-02T10:00:16Z</time>
      </trkpt>
      <trkpt lat="41.649271670" lon="2.539973480">
        <ele>378.30</ele>
        <time>2014-03-02T10:00:17Z</time>
      </trkpt>
      <trkpt lat="41.649271670" lon="2.539990070">
        <ele>378.90</ele>
        <time>2014-03-02T10:00:18Z</time>
      </trkpt>
      <trkpt lat="41.649271670" lon="2.540006670">
        <ele>379.40</ele>
        <time>2014-03-02T10:00:19Z</time>
      </trkpt>
      <trkpt lat="41.649273350" lon="2.540021760">
        <ele>379.30</ele>
        <time>2014-03-02T10:00:20Z</time>
      </trkpt>
      <trkpt lat="41.649275030" lon="2.540035000">
        <ele>379.20</ele>
        <time>2014-03-02T10:00:21Z</time>
      </trkpt>
      <trkpt lat="41.649276700" lon="2.540050090">
        <ele>379.20</ele>
        <time>2014-03-02T10:00:22Z</time>
      </trkpt>
      <trkpt lat="41.649276700" lon="2.540065010">
        <ele>379.60</ele>
        <time>2014-03-02T10:00:23Z</time>
      </trkpt>
      <trkpt lat="41.649275030" lon="2.540078420">
        <ele>379.90</ele>
        <time>2014-03-02T10:00:24Z</time>
      </trkpt>
      <trkpt lat="41.649271670" lon="2.540093340">
        <ele>380.10</ele>
        <time>2014-03-02T10:00:25Z</time>
      </trkpt>
      <trkpt lat="41.649266810" lon="2.540106750">
        <ele>380.20</ele>
        <time>2014-03-02T10:00:26Z</time>
      </trkpt>
      <trkpt lat="41.649263460" lon="2.540116810">
        <ele>380.30</ele>
        <time>2014-03-02T10:00:27Z</time>
      </trkpt>
      <trkpt lat="41.649261780" lon="2.540128380">
        <ele>380.30</ele>
        <time>2014-03-02T10:00:28Z</time>
      </trkpt>
      <trkpt lat="41.649256750" lon="2.540143460">
        <ele>380.30</ele>
        <time>2014-03-02T10:00:29Z</time>
      </trkpt>
      <trkpt lat="41.649251720" lon="2.540156710">
        <ele>380.60</ele>
        <time>2014-03-02T10:00:30Z</time>
      </trkpt>
      <trkpt lat="41.649245020" lon="2.540168440">
        <ele>380.80</ele>
        <time>2014-03-02T10:00:31Z</time>
      </trkpt>
      <trkpt lat="41.649238480" lon="2.540173470">
        <ele>381.40</ele>
        <time>2014-03-02T10:00:32Z</time>
      </trkpt>
      <trkpt lat="41.649231780" lon="2.540176820">
        <ele>381.80</ele>
        <time>2014-03-02T10:00:33Z</time>
      </trkpt>
      <trkpt lat="41.649225070" lon="2.540180010">
        <ele>382.10</ele>
        <time>2014-03-02T10:00:34Z</time>
      </trkpt>
      <trkpt lat="41.649218360" lon="2.540181680">
        <ele>382.50</ele>
        <time>2014-03-02T10:00:35Z</time>
      </trkpt>
      <trkpt lat="41.649213340" lon="2.540190070">
        <ele>382.70</ele>
        <time>2014-03-02T10:00:36Z</time>
      </trkpt>
      <trkpt lat="41.649208470" lon="2.540198450">
        <ele>382.80</ele>
        <time>2014-03-02T10:00:37Z</time>
      </trkpt>
      <trkpt lat="41.649206800" lon="2.540206660">
        <ele>382.80</ele>
        <time>2014-03-02T10:00:38Z</time>
      </trkpt>
      <trkpt lat="41.649206800" lon="2.540210010">
        <ele>383.00</ele>
        <time>2014-03-02T10:00:39Z</time>
      </trkpt>
      <trkpt lat="41.649208470" lon="2.540213370">
        <ele>383.10</ele>
        <time>2014-03-02T10:00:40Z</time>
      </trkpt>
      <trkpt lat="41.649208470" lon="2.540215040">
        <ele>383.20</ele>
        <time>2014-03-02T10:00:41Z</time>
      </trkpt>
      <trkpt lat="41.649210150" lon="2.540216720">
        <ele>383.00</ele>
        <time>2014-03-02T10:00:42Z</time>
      </trkpt>
      <trkpt lat="41.649210150" lon="2.540218400">
        <ele>382.80</ele>
        <time>2014-03-02T10:00:43Z</time>
      </trkpt>
      <trkpt lat="41.649211830" lon="2.540220070">
        <ele>382.50</ele>
        <time>2014-03-02T10:00:44Z</time>
      </trkpt>
      <trkpt lat="41.649213340" lon="2.540221750">
        <ele>382.40</ele>
        <time>2014-03-02T10:00:45Z</time>
      </trkpt>
      <trkpt lat="41.649213340" lon="2.540223430">
        <ele>382.90</ele>
        <time>2014-03-02T10:00:46Z</time>
      </trkpt>
      <trkpt lat="41.649213340" lon="2.540226780">
        <ele>383.30</ele>
        <time>2014-03-02T10:00:47Z</time>
      </trkpt>
      <trkpt lat="41.649213340" lon="2.540228450">
        <ele>383.50</ele>
        <time>2014-03-02T10:00:48Z</time>
      </trkpt>
      <trkpt lat="41.649213340" lon="2.540230130">
        <ele>383.40</ele>
        <time>2014-03-02T10:00:49Z</time>
      </trkpt>
      <trkpt lat="41.649213340" lon="2.540231810">
        <ele>383.30</ele>
        <time>2014-03-02T10:00:50Z</time>
      </trkpt>
      <trkpt lat="41.649213340" lon="2.540233480">
        <ele>383.10</ele>
        <time>2014-03-02T10:00:51Z</time>
      </trkpt>
      <trkpt lat="41.649213340" lon="2.540235160">
        <ele>382.90</ele>
        <time>2014-03-02T10:00:52Z</time>
      </trkpt>
      <trkpt lat="41.649213340" lon="2.540238350">
        <ele>382.80</ele>
        <time>2014-03-02T10:00:53Z</time>
      </trkpt>
      <trkpt lat="41.649213340" lon="2.540240020">
        <ele>383.00</ele>
        <time>2014-03-02T10:00:54Z</time>
      </trkpt>
      <trkpt lat="41.649211830" lon="2.540241700">
        <ele>383.20</ele>
        <time>2014-03-02T10:00:55Z</time>
      </trkpt>
      <trkpt lat="41.649211830" lon="2.540243370">
        <ele>383.20</ele>
        <time>2014-03-02T10:00:56Z</time>
      </trkpt>
      <trkpt lat="41.649211830" lon="2.540245050">
        <ele>383.20</ele>
        <time>2014-03-02T10:00:57Z</time>
      </trkpt>
      <trkpt lat="41.649211830" lon="2.540246730">
        <ele>382.90</ele>
        <time>2014-03-02T10:00:58Z</time>
      </trkpt>
      <trkpt lat="41.649211830" lon="2.540246730">
        <ele>382.60</ele>
        <time>2014-03-02T10:00:59Z</time>
      </trkpt>
      <trkpt lat="41.649213340" lon="2.540246730">
        <ele>382.40</ele>
        <time>2014-03-02T10:01:00Z</time>
      </trkpt>
      <trkpt lat="41.649213340" lon="2.540246730">
        <ele>382.20</ele>
        <time>2014-03-02T10:01:01Z</time>
      </trkpt>
      <trkpt lat="41.649213340" lon="2.540246730">
        <ele>382.10</ele>
        <time>2014-03-02T10:01:02Z</time>
      </trkpt>
      <trkpt lat="41.649213340" lon="2.540251760">
        <ele>382.10</ele>
        <time>2014-03-02T10:01:03Z</time>
      </trkpt>
      <trkpt lat="41.649213340" lon="2.540255110">
        <ele>382.10</ele>
        <time>2014-03-02T10:01:04Z</time>
      </trkpt>
      <trkpt lat="41.649213340" lon="2.540260140">
        <ele>382.50</ele>
        <time>2014-03-02T10:01:05Z</time>
      </trkpt>
      <trkpt lat="41.649211830" lon="2.540263490">
        <ele>382.80</ele>
        <time>2014-03-02T10:01:06Z</time>
      </trkpt>
      <trkpt lat="41.649208470" lon="2.540273380">
        <ele>383.00</ele>
        <time>2014-03-02T10:01:07Z</time>
      </trkpt>
      <trkpt lat="41.649205120" lon="2.540281760">
        <ele>383.10</ele>
        <time>2014-03-02T10:01:08Z</time>
      </trkpt>
      <trkpt lat="41.649200090" lon="2.540293330">
        <ele>383.20</ele>
        <time>2014-03-02T10:01:09Z</time>
      </trkpt>
      <trkpt lat="41.649193390" lon="2.540300040">
        <ele>383.40</ele>
        <time>2014-03-02T10:01:10Z</time>
      </trkpt>
      <trkpt lat="41.649188360" lon="2.540308420">
        <ele>383.40</ele>
        <time>2014-03-02T10:01:11Z</time>
      </trkpt>
      <trkpt lat="41.649181820" lon="2.540320150">
        <ele>383.50</ele>
        <time>2014-03-02T10:01:12Z</time>
      </trkpt>
      <trkpt lat="41.649173440" lon="2.540331720">
        <ele>383.50</ele>
        <time>2014-03-02T10:01:13Z</time>
      </trkpt>
      <trkpt lat="41.649166730" lon="2.540341780">
        <ele>383.50</ele>
        <time>2014-03-02T10:01:14Z</time>
      </trkpt>
      <trkpt lat="41.649161700" lon="2.540353350">
        <ele>383.70</ele>
        <time>2014-03-02T10:01:15Z</time>
      </trkpt>
      <trkpt lat="41.649153490" lon="2.540365080">
        <ele>383.90</ele>
        <time>2014-03-02T10:01:16Z</time>
      </trkpt>
      <trkpt lat="41.649146780" lon="2.540375140">
        <ele>384.30</ele>
        <time>2014-03-02T10:01:17Z</time>
      </trkpt>
      <trkpt lat="41.649138400" lon="2.540385030">
        <ele>384.50</ele>
        <time>2014-03-02T10:01:18Z</time>
      </trkpt>
      <trkpt lat="41.649131700" lon="2.540396760">
        <ele>384.80</ele>
        <time>2014-03-02T10:01:19Z</time>
      </trkpt>
      <trkpt lat="41.649125160" lon="2.540408330">
        <ele>384.80</ele>
        <time>2014-03-02T10:01:20Z</time>
      </trkpt>
      <trkpt lat="41.649118450" lon="2.540418390">
        <ele>384.80</ele>
        <time>2014-03-02T10:01:21Z</time>
      </trkpt>
      <trkpt lat="41.649110070" lon="2.540431800">
        <ele>385.40</ele>
        <time>2014-03-02T10:01:22Z</time>
      </trkpt>
      <trkpt lat="41.649103360" lon="2.540441690">
        <ele>385.80</ele>
        <time>2014-03-02T10:01:23Z</time>
      </trkpt>
      <trkpt lat="41.649096830" lon="2.540453430">
        <ele>385.70</ele>
        <time>2014-03-02T10:01:24Z</time>
      </trkpt>
      <trkpt lat="41.649090120" lon="2.540463480">
        <ele>385.70</ele>
        <time>2014-03-02T10:01:25Z</time>
      </trkpt>
      <trkpt lat="41.649083420" lon="2.540475050">
        <ele>385.70</ele>
        <time>2014-03-02T10:01:26Z</time>
      </trkpt>
      <trkpt lat="41.649076710" lon="2.540486790">
        <ele>385.90</ele>
        <time>2014-03-02T10:01:27Z</time>
      </trkpt>
      <trkpt lat="41.649068500" lon="2.540500030">
        <ele>386.00</ele>
        <time>2014-03-02T10:01:28Z</time>
      </trkpt>
      <trkpt lat="41.649060110" lon="2.540511760">
        <ele>386.50</ele>
        <time>2014-03-02T10:01:29Z</time>
      </trkpt>
      <trkpt lat="41.649051730" lon="2.540525010">
        <ele>386.80</ele>
        <time>2014-03-02T10:01:30Z</time>
      </trkpt>
      <trkpt lat="41.649045030" lon="2.540536740">
        <ele>387.10</ele>
        <time>2014-03-02T10:01:31Z</time>
      </trkpt>
      <trkpt lat="41.649038490" lon="2.540548480">
        <ele>387.50</ele>
        <time>2014-03-02T10:01:32Z</time>
      </trkpt>
      <trkpt lat="41.649030110" lon="2.540558370">
        <ele>387.80</ele>
        <time>2014-03-02T10:01:33Z</time>
      </trkpt>
      <trkpt lat="41.649023400" lon="2.540571780">
        <ele>387.90</ele>
        <time>2014-03-02T10:01:34Z</time>
      </trkpt>
      <trkpt lat="41.649016700" lon="2.540583340">
        <ele>388.00</ele>
        <time>2014-03-02T10:01:35Z</time>
      </trkpt>
      <trkpt lat="41.649008480" lon="2.540598430">
        <ele>387.80</ele>
        <time>2014-03-02T10:01:36Z</time>
      </trkpt>
      <trkpt lat="41.649001780" lon="2.540611680">
        <ele>387.70</ele>
        <time>2014-03-02T10:01:37Z</time>
      </trkpt>
      <trkpt lat="41.648993390" lon="2.540626760">
        <ele>387.60</ele>
        <time>2014-03-02T10:01:38Z</time>
      </trkpt>
      <trkpt lat="41.648985010" lon="2.540640010">
        <ele>387.60</ele>
        <time>2014-03-02T10:01:39Z</time>
      </trkpt>
      <trkpt lat="41.648976800" lon="2.540655090">
        <ele>387.60</ele>
        <time>2014-03-02T10:01:40Z</time>
      </trkpt>
      <trkpt lat="41.648968420" lon="2.540668340">
        <ele>388.10</ele>
        <time>2014-03-02T10:01:41Z</time>
      </trkpt>
      <trkpt lat="41.648961710" lon="2.540681750">
        <ele>388.50</ele>
        <time>2014-03-02T10:01:42Z</time>
      </trkpt>
      <trkpt lat="41.648955000" lon="2.540691810">
        <ele>388.80</ele>
        <time>2014-03-02T10:01:43Z</time>
      </trkpt>
      <trkpt lat="41.648948470" lon="2.540705050">
        <ele>389.00</ele>
        <time>2014-03-02T10:01:44Z</time>
      </trkpt>
      <trkpt lat="41.648943440" lon="2.540716780">
        <ele>389.20</ele>
        <time>2014-03-02T10:01:45Z</time>
      </trkpt>
      <trkpt lat="41.648936730" lon="2.540731700">
        <ele>388.90</ele>
        <time>2014-03-02T10:01:46Z</time>
      </trkpt>
      <trkpt lat="41.648930030" lon="2.540745120">
        <ele>388.70</ele>
        <time>2014-03-02T10:01:47Z</time>
      </trkpt>
      <trkpt lat="41.648923490" lon="2.540758360">
        <ele>389.50</ele>
        <time>2014-03-02T10:01:48Z</time>
      </trkpt>
      <trkpt lat="41.648915110" lon="2.540770090">
        <ele>390.00</ele>
        <time>2014-03-02T10:01:49Z</time>
      </trkpt>
      <trkpt lat="41.648908400" lon="2.540780150">
        <ele>390.40</ele>
        <time>2014-03-02T10:01:50Z</time>
      </trkpt>
      <trkpt lat="41.648898340" lon="2.540791720">
        <ele>390.60</ele>
        <time>2014-03-02T10:01:51Z</time>
      </trkpt>
      <trkpt lat="41.648888450" lon="2.540798420">
        <ele>390.70</ele>
        <time>2014-03-02T10:01:52Z</time>
      </trkpt>
      <trkpt lat="41.648880070" lon="2.540806810">
        <ele>390.40</ele>
        <time>2014-03-02T10:01:53Z</time>
      </trkpt>
      <trkpt lat="41.648868340" lon="2.540815020">
        <ele>390.30</ele>
        <time>2014-03-02T10:01:54Z</time>
      </trkpt>
      <trkpt lat="41.648858450" lon="2.540823400">
        <ele>390.50</ele>
        <time>2014-03-02T10:01:55Z</time>
      </trkpt>
      <trkpt lat="41.648846710" lon="2.540830110">
        <ele>390.80</ele>
        <time>2014-03-02T10:01:56Z</time>
      </trkpt>
      <trkpt lat="41.648835140" lon="2.540835140">
        <ele>390.90</ele>
        <time>2014-03-02T10:01:57Z</time>
      </trkpt>
      <trkpt lat="41.648823410" lon="2.540836810">
        <ele>391.30</ele>
        <time>2014-03-02T10:01:58Z</time>
      </trkpt>
      <trkpt lat="41.648810000" lon="2.540836810">
        <ele>391.50</ele>
        <time>2014-03-02T10:01:59Z</time>
      </trkpt>
      <trkpt lat="41.648800110" lon="2.540835140">
        <ele>391.80</ele>
        <time>2014-03-02T10:02:00Z</time>
      </trkpt>
      <trkpt lat="41.648788370" lon="2.540831780">
        <ele>392.10</ele>
        <time>2014-03-02T10:02:01Z</time>
      </trkpt>
      <trkpt lat="41.648776810" lon="2.540830110">
        <ele>392.70</ele>
        <time>2014-03-02T10:02:02Z</time>
      </trkpt>
      <trkpt lat="41.648766750" lon="2.540825080">
        <ele>393.10</ele>
        <time>2014-03-02T10:02:03Z</time>
      </trkpt>
      <trkpt lat="41.648755010" lon="2.540821730">
        <ele>393.50</ele>
        <time>2014-03-02T10:02:04Z</time>
      </trkpt>
      <trkpt lat="41.648745120" lon="2.540816700">
        <ele>393.30</ele>
        <time>2014-03-02T10:02:05Z</time>
      </trkpt>
      <trkpt lat="41.648733390" lon="2.540811670">
        <ele>393.30</ele>
        <time>2014-03-02T10:02:06Z</time>
      </trkpt>
      <trkpt lat="41.648723330" lon="2.540805130">
        <ele>393.10</ele>
        <time>2014-03-02T10:02:07Z</time>
      </trkpt>
      <trkpt lat="41.648716790" lon="2.540801780">
        <ele>393.00</ele>
        <time>2014-03-02T10:02:08Z</time>
      </trkpt>
      <trkpt lat="41.648711760" lon="2.540805130">
        <ele>392.90</ele>
        <time>2014-03-02T10:02:09Z</time>
      </trkpt>
      <trkpt lat="41.648711760" lon="2.540805130">
        <ele>393.20</ele>
        <time>2014-03-02T10:02:10Z</time>
      </trkpt>
      <trkpt lat="41.648711760" lon="2.540806810">
        <ele>393.40</ele>
        <time>2014-03-02T10:02:11Z</time>
      </trkpt>
      <trkpt lat="41.648710090" lon="2.540806810">
        <ele>393.40</ele>
        <time>2014-03-02T10:02:12Z</time>
      </trkpt>
      <trkpt lat="41.648708410" lon="2.540808480">
        <ele>393.50</ele>
        <time>2014-03-02T10:02:13Z</time>
      </trkpt>
      <trkpt lat="41.648706730" lon="2.540808480">
        <ele>393.70</ele>
        <time>2014-03-02T10:02:14Z</time>
      </trkpt>
      <trkpt lat="41.648706730" lon="2.540810160">
        <ele>393.80</ele>
        <time>2014-03-02T10:02:15Z</time>
      </trkpt>
      <trkpt lat="41.648705060" lon="2.540810160">
        <ele>394.00</ele>
        <time>2014-03-02T10:02:16Z</time>
      </trkpt>
      <trkpt lat="41.648703380" lon="2.540811670">
        <ele>393.90</ele>
        <time>2014-03-02T10:02:17Z</time>
      </trkpt>
      <trkpt lat="41.648703380" lon="2.540811670">
        <ele>393.80</ele>
        <time>2014-03-02T10:02:18Z</time>
      </trkpt>
      <trkpt lat="41.648701700" lon="2.540811670">
        <ele>393.60</ele>
        <time>2014-03-02T10:02:19Z</time>
      </trkpt>
      <trkpt lat="41.648701700" lon="2.540813340">
        <ele>393.30</ele>
        <time>2014-03-02T10:02:20Z</time>
      </trkpt>
      <trkpt lat="41.648700030" lon="2.540813340">
        <ele>393.40</ele>
        <time>2014-03-02T10:02:21Z</time>
      </trkpt>
      <trkpt lat="41.648700030" lon="2.540813340">
        <ele>393.50</ele>
        <time>2014-03-02T10:02:22Z</time>
      </trkpt>
      <trkpt lat="41.648698350" lon="2.540815020">
        <ele>393.50</ele>
        <time>2014-03-02T10:02:23Z</time>
      </trkpt>
      <trkpt lat="41.648698350" lon="2.540815020">
        <ele>393.20</ele>
        <time>2014-03-02T10:02:24Z</time>
      </trkpt>
      <trkpt lat="41.648696670" lon="2.540815020">
        <ele>392.90</ele>
        <time>2014-03-02T10:02:25Z</time>
      </trkpt>
      <trkpt lat="41.648696670" lon="2.540816700">
        <ele>392.90</ele>
        <time>2014-03-02T10:02:26Z</time>
      </trkpt>
      <trkpt lat="41.648695000" lon="2.540816700">
        <ele>392.80</ele>
        <time>2014-03-02T10:02:27Z</time>
      </trkpt>
      <trkpt lat="41.648695000" lon="2.540816700">
        <ele>392.80</ele>
        <time>2014-03-02T10:02:28Z</time>
      </trkpt>
      <trkpt lat="41.648693490" lon="2.540816700">
        <ele>392.50</ele>
        <time>2014-03-02T10:02:29Z</time>
      </trkpt>
      <trkpt lat="41.648691810" lon="2.540816700">
        <ele>392.20</ele>
        <time>2014-03-02T10:02:30Z</time>
      </trkpt>
      <trkpt lat="41.648691810" lon="2.540816700">
        <ele>392.40</ele>
        <time>2014-03-02T10:02:31Z</time>
      </trkpt>
      <trkpt lat="41.648690140" lon="2.540816700">
        <ele>392.40</ele>
        <time>2014-03-02T10:02:32Z</time>
      </trkpt>
      <trkpt lat="41.648690140" lon="2.540816700">
        <ele>392.30</ele>
        <time>2014-03-02T10:02:33Z</time>
      </trkpt>
      <trkpt lat="41.648688460" lon="2.540816700">
        <ele>392.10</ele>
        <time>2014-03-02T10:02:34Z</time>
      </trkpt>
      <trkpt lat="41.648686780" lon="2.540816700">
        <ele>392.00</ele>
        <time>2014-03-02T10:02:35Z</time>
      </trkpt>
      <trkpt lat="41.648686780" lon="2.540816700">
        <ele>392.20</ele>
        <time>2014-03-02T10:02:36Z</time>
      </trkpt>
      <trkpt lat="41.648685110" lon="2.540816700">
        <ele>392.30</ele>
        <time>2014-03-02T10:02:37Z</time>
      </trkpt>
      <trkpt lat="41.648683430" lon="2.540816700">
        <ele>392.40</ele>
        <time>2014-03-02T10:02:38Z</time>
      </trkpt>
      <trkpt lat="41.648681750" lon="2.540815020">
        <ele>392.40</ele>
        <time>2014-03-02T10:02:39Z</time>
      </trkpt>
      <trkpt lat="41.648681750" lon="2.540815020">
        <ele>392.10</ele>
        <time>2014-03-02T10:02:40Z</time>
      </trkpt>
      <trkpt lat="41.648680080" lon="2.540815020">
        <ele>391.90</ele>
        <time>2014-03-02T10:02:41Z</time>
      </trkpt>
      <trkpt lat="41.648678400" lon="2.540815020">
        <ele>391.70</ele>
        <time>2014-03-02T10:02:42Z</time>
      </trkpt>
      <trkpt lat="41.648676730" lon="2.540815020">
        <ele>391.80</ele>
        <time>2014-03-02T10:02:43Z</time>
      </trkpt>
      <trkpt lat="41.648676730" lon="2.540813340">
        <ele>391.90</ele>
        <time>2014-03-02T10:02:44Z</time>
      </trkpt>
      <trkpt lat="41.648675050" lon="2.540813340">
        <ele>392.00</ele>
        <time>2014-03-02T10:02:45Z</time>
      </trkpt>
      <trkpt lat="41.648673370" lon="2.540813340">
        <ele>392.20</ele>
        <time>2014-03-02T10:02:46Z</time>
      </trkpt>
      <trkpt lat="41.648671700" lon="2.540811670">
        <ele>392.30</ele>
        <time>2014-03-02T10:02:47Z</time>
      </trkpt>
      <trkpt lat="41.648670020" lon="2.540811670">
        <ele>392.40</ele>
        <time>2014-03-02T10:02:48Z</time>
      </trkpt>
      <trkpt lat="41.648668340" lon="2.540810160">
        <ele>392.40</ele>
        <time>2014-03-02T10:02:49Z</time>
      </trkpt>
      <trkpt lat="41.648666670" lon="2.540810160">
        <ele>392.10</ele>
        <time>2014-03-02T10:02:50Z</time>
      </trkpt>
      <trkpt lat="41.648665160" lon="2.540808480">
        <ele>391.80</ele>
        <time>2014-03-02T10:02:51Z</time>
      </trkpt>
      <trkpt lat="41.648663480" lon="2.540808480">
        <ele>391.90</ele>
        <time>2014-03-02T10:02:52Z</time>
      </trkpt>
      <trkpt lat="41.648661810" lon="2.540806810">
        <ele>392.00</ele>
        <time>2014-03-02T10:02:53Z</time>
      </trkpt>
      <trkpt lat="41.648660130" lon="2.540806810">
        <ele>392.10</ele>
        <time>2014-03-02T10:02:54Z</time>
      </trkpt>
      <trkpt lat="41.648658450" lon="2.540806810">
        <ele>392.40</ele>
        <time>2014-03-02T10:02:55Z</time>
      </trkpt>
      <trkpt lat="41.648658450" lon="2.540806810">
        <ele>392.60</ele>
        <time>2014-03-02T10:02:56Z</time>
      </trkpt>
      <trkpt lat="41.648656780" lon="2.540806810">
        <ele>392.40</ele>
        <time>2014-03-02T10:02:57Z</time>
      </trkpt>
      <trkpt lat="41.648656780" lon="2.540806810">
        <ele>392.20</ele>
        <time>2014-03-02T10:02:58Z</time>
      </trkpt>
      <trkpt lat="41.648655100" lon="2.540806810">
        <ele>392.00</ele>
        <time>2014-03-02T10:02:59Z</time>
      </trkpt>
      <trkpt lat="41.648655100" lon="2.540806810">
        <ele>391.90</ele>
        <time>2014-03-02T10:03:00Z</time>
      </trkpt>
      <trkpt lat="41.648655100" lon="2.540806810">
        <ele>391.80</ele>
        <time>2014-03-02T10:03:01Z</time>
      </trkpt>
      <trkpt lat="41.648655100" lon="2.540806810">
        <ele>391.80</ele>
        <time>2014-03-02T10:03:02Z</time>
      </trkpt>
      <trkpt lat="41.648653420" lon="2.540806810">
        <ele>391.80</ele>
        <time>2014-03-02T10:03:03Z</time>
      </trkpt>
      <trkpt lat="41.648653420" lon="2.540806810">
        <ele>392.00</ele>
        <time>2014-03-02T10:03:04Z</time>
      </trkpt>
      <trkpt lat="41.648653420" lon="2.540808480">
        <ele>392.10</ele>
        <time>2014-03-02T10:03:05Z</time>
      </trkpt>
      <trkpt lat="41.648653420" lon="2.540808480">
        <ele>392.20</ele>
        <time>2014-03-02T10:03:06Z</time>
      </trkpt>
      <trkpt lat="41.648651750" lon="2.540808480">
        <ele>392.20</ele>
        <time>2014-03-02T10:03:07Z</time>
      </trkpt>
      <trkpt lat="41.648651750" lon="2.540808480">
        <ele>392.10</ele>
        <time>2014-03-02T10:03:08Z</time>
      </trkpt>
      <trkpt lat="41.648651750" lon="2.540808480">
        <ele>391.80</ele>
        <time>2014-03-02T10:03:09Z</time>
      </trkpt>
      <trkpt lat="41.648651750" lon="2.540808480">
        <ele>391.60</ele>
        <time>2014-03-02T10:03:10Z</time>
      </trkpt>
      <trkpt lat="41.648651750" lon="2.540808480">
        <ele>391.40</ele>
        <time>2014-03-02T10:03:11Z</time>
      </trkpt>
      <trkpt lat="41.648651750" lon="2.540808480">
        <ele>391.30</ele>
        <time>2014-03-02T10:03:12Z</time>
      </trkpt>
      <trkpt lat="41.648653420" lon="2.540810160">
        <ele>391.20</ele>
        <time>2014-03-02T10:03:13Z</time>
      </trkpt>
      <trkpt lat="41.648651750" lon="2.540813340">
        <ele>391.00</ele>
        <time>2014-03-02T10:03:14Z</time>
      </trkpt>
      <trkpt lat="41.648651750" lon="2.540813340">
        <ele>390.90</ele>
        <time>2014-03-02T10:03:15Z</time>
      </trkpt>
      <trkpt lat="41.648648390" lon="2.540806810">
        <ele>390.80</ele>
        <time>2014-03-02T10:03:16Z</time>
      </trkpt>
      <trkpt lat="41.648643370" lon="2.540796750">
        <ele>390.70</ele>
        <time>2014-03-02T10:03:17Z</time>
      </trkpt>
      <trkpt lat="41.648638340" lon="2.540788370">
        <ele>390.70</ele>
        <time>2014-03-02T10:03:18Z</time>
      </trkpt>
      <trkpt lat="41.648633480" lon="2.540781830">
        <ele>390.80</ele>
        <time>2014-03-02T10:03:19Z</time>
      </trkpt>
      <trkpt lat="41.648630120" lon="2.540780150">
        <ele>390.80</ele>
        <time>2014-03-02T10:03:20Z</time>
      </trkpt>
      <trkpt lat="41.648630120" lon="2.540781830">
        <ele>390.80</ele>
        <time>2014-03-02T10:03:21Z</time>
      </trkpt>
      <trkpt lat="41.648630120" lon="2.540781830">
        <ele>390.80</ele>
        <time>2014-03-02T10:03:22Z</time>
      </trkpt>
      <trkpt lat="41.648630120" lon="2.540783340">
        <ele>390.80</ele>
        <time>2014-03-02T10:03:23Z</time>
      </trkpt>
      <trkpt lat="41.648630120" lon="2.540783340">
        <ele>390.70</ele>
        <time>2014-03-02T10:03:24Z</time>
      </trkpt>
      <trkpt lat="41.648628450" lon="2.540781830">
        <ele>390.70</ele>
        <time>2014-03-02T10:03:25Z</time>
      </trkpt>
      <trkpt lat="41.648625090" lon="2.540771770">
        <ele>390.70</ele>
        <time>2014-03-02T10:03:26Z</time>
      </trkpt>
      <trkpt lat="41.648618390" lon="2.540761710">
        <ele>390.80</ele>
        <time>2014-03-02T10:03:27Z</time>
      </trkpt>
      <trkpt lat="41.648608330" lon="2.540750140">
        <ele>391.30</ele>
        <time>2014-03-02T10:03:28Z</time>
      </trkpt>
      <trkpt lat="41.648600120" lon="2.540736730">
        <ele>391.70</ele>
        <time>2014-03-02T10:03:29Z</time>
      </trkpt>
      <trkpt lat="41.648593410" lon="2.540721810">
        <ele>391.60</ele>
        <time>2014-03-02T10:03:30Z</time>
      </trkpt>
      <trkpt lat="41.648586700" lon="2.540710080">
        <ele>391.60</ele>
        <time>2014-03-02T10:03:31Z</time>
      </trkpt>
      <trkpt lat="41.648580000" lon="2.540695160">
        <ele>391.60</ele>
        <time>2014-03-02T10:03:32Z</time>
      </trkpt>
      <trkpt lat="41.648573460" lon="2.540681750">
        <ele>391.80</ele>
        <time>2014-03-02T10:03:33Z</time>
      </trkpt>
      <trkpt lat="41.648566760" lon="2.540668340">
        <ele>392.00</ele>
        <time>2014-03-02T10:03:34Z</time>
      </trkpt>
      <trkpt lat="41.648560050" lon="2.540653420">
        <ele>392.20</ele>
        <time>2014-03-02T10:03:35Z</time>
      </trkpt>
      <trkpt lat="41.648555020" lon="2.540638330">
        <ele>392.40</ele>
        <time>2014-03-02T10:03:36Z</time>
      </trkpt>
      <trkpt lat="41.648551670" lon="2.540621730">
        <ele>392.80</ele>
        <time>2014-03-02T10:03:37Z</time>
      </trkpt>
      <trkpt lat="41.648546810" lon="2.540606810">
        <ele>393.20</ele>
        <time>2014-03-02T10:03:38Z</time>
      </trkpt>
      <trkpt lat="41.648541780" lon="2.540593400">
        <ele>393.40</ele>
        <time>2014-03-02T10:03:39Z</time>
      </trkpt>
      <trkpt lat="41.648536750" lon="2.540578480">
        <ele>393.20</ele>
        <time>2014-03-02T10:03:40Z</time>
      </trkpt>
      <trkpt lat="41.648533400" lon="2.540563400">
        <ele>393.00</ele>
        <time>2014-03-02T10:03:41Z</time>
      </trkpt>
      <trkpt lat="41.648528370" lon="2.540548480">
        <ele>393.20</ele>
        <time>2014-03-02T10:03:42Z</time>
      </trkpt>
      <trkpt lat="41.648523340" lon="2.540533390">
        <ele>393.30</ele>
        <time>2014-03-02T10:03:43Z</time>
      </trkpt>
      <trkpt lat="41.648516800" lon="2.540520150">
        <ele>393.40</ele>
        <time>2014-03-02T10:03:44Z</time>
      </trkpt>
      <trkpt lat="41.648513450" lon="2.540506730">
        <ele>393.40</ele>
        <time>2014-03-02T10:03:45Z</time>
      </trkpt>
      <trkpt lat="41.648506740" lon="2.540500030">
        <ele>393.30</ele>
        <time>2014-03-02T10:03:46Z</time>
      </trkpt>
      <trkpt lat="41.648503390" lon="2.540498350">
        <ele>393.20</ele>
        <time>2014-03-02T10:03:47Z</time>
      </trkpt>
      <trkpt lat="41.648503390" lon="2.540501710">
        <ele>393.10</ele>
        <time>2014-03-02T10:03:48Z</time>
      </trkpt>
      <trkpt lat="41.648503390" lon="2.540506730">
        <ele>393.40</ele>
        <time>2014-03-02T10:03:49Z</time>
      </trkpt>
      <trkpt lat="41.648508420" lon="2.540513440">
        <ele>393.50</ele>
        <time>2014-03-02T10:03:50Z</time>
      </trkpt>
      <trkpt lat="41.648513450" lon="2.540515120">
        <ele>393.60</ele>
        <time>2014-03-02T10:03:51Z</time>
      </trkpt>
      <trkpt lat="41.648516800" lon="2.540518470">
        <ele>393.90</ele>
        <time>2014-03-02T10:03:52Z</time>
      </trkpt>
      <trkpt lat="41.648523340" lon="2.540528360">
        <ele>394.00</ele>
        <time>2014-03-02T10:03:53Z</time>
      </trkpt>
      <trkpt lat="41.648530040" lon="2.540541770">
        <ele>394.00</ele>
        <time>2014-03-02T10:03:54Z</time>
      </trkpt>
      <trkpt lat="41.648536750" lon="2.540558370">
        <ele>393.90</ele>
        <time>2014-03-02T10:03:55Z</time>
      </trkpt>
      <trkpt lat="41.648541780" lon="2.540576810">
        <ele>394.30</ele>
        <time>2014-03-02T10:03:56Z</time>
      </trkpt>
      <trkpt lat="41.648548480" lon="2.540596760">
        <ele>394.70</ele>
        <time>2014-03-02T10:03:57Z</time>
      </trkpt>
      <trkpt lat="41.648556700" lon="2.540620060">
        <ele>394.90</ele>
        <time>2014-03-02T10:03:58Z</time>
      </trkpt>
      <trkpt lat="41.648563400" lon="2.540641680">
        <ele>394.60</ele>
        <time>2014-03-02T10:03:59Z</time>
      </trkpt>
      <trkpt lat="41.648570110" lon="2.540663480">
        <ele>394.40</ele>
        <time>2014-03-02T10:04:00Z</time>
      </trkpt>
      <trkpt lat="41.648581670" lon="2.540685100">
        <ele>394.40</ele>
        <time>2014-03-02T10:04:01Z</time>
      </trkpt>
      <trkpt lat="41.648596760" lon="2.540710080">
        <ele>394.30</ele>
        <time>2014-03-02T10:04:02Z</time>
      </trkpt>
      <trkpt lat="41.648610010" lon="2.540738410">
        <ele>394.30</ele>
        <time>2014-03-02T10:04:03Z</time>
      </trkpt>
      <trkpt lat="41.648625090" lon="2.540763390">
        <ele>394.10</ele>
        <time>2014-03-02T10:04:04Z</time>
      </trkpt>
      <trkpt lat="41.648635150" lon="2.540781830">
        <ele>394.00</ele>
        <time>2014-03-02T10:04:05Z</time>
      </trkpt>
      <trkpt lat="41.648641690" lon="2.540795070">
        <ele>393.40</ele>
        <time>2014-03-02T10:04:06Z</time>
      </trkpt>
      <trkpt lat="41.648646720" lon="2.540805130">
        <ele>392.90</ele>
        <time>2014-03-02T10:04:07Z</time>
      </trkpt>
      <trkpt lat="41.648651750" lon="2.540815020">
        <ele>392.70</ele>
        <time>2014-03-02T10:04:08Z</time>
      </trkpt>
      <trkpt lat="41.648656780" lon="2.540821730">
        <ele>392.60</ele>
        <time>2014-03-02T10:04:09Z</time>
      </trkpt>
      <trkpt lat="41.648658450" lon="2.540823400">
        <ele>392.40</ele>
        <time>2014-03-02T10:04:10Z</time>
      </trkpt>
      <trkpt lat="41.648660130" lon="2.540823400">
        <ele>392.10</ele>
        <time>2014-03-02T10:04:11Z</time>
      </trkpt>
      <trkpt lat="41.648661810" lon="2.540826760">
        <ele>391.80</ele>
        <time>2014-03-02T10:04:12Z</time>
      </trkpt>
      <trkpt lat="41.648668340" lon="2.540831780">
        <ele>392.00</ele>
        <time>2014-03-02T10:04:13Z</time>
      </trkpt>
      <trkpt lat="41.648678400" lon="2.540838490">
        <ele>392.10</ele>
        <time>2014-03-02T10:04:14Z</time>
      </trkpt>
      <trkpt lat="41.648688460" lon="2.540848380">
        <ele>392.00</ele>
        <time>2014-03-02T10:04:15Z</time>
      </trkpt>
      <trkpt lat="41.648701700" lon="2.540856760">
        <ele>392.00</ele>
        <time>2014-03-02T10:04:16Z</time>
      </trkpt>
      <trkpt lat="41.648716790" lon="2.540863470">
        <ele>392.00</ele>
        <time>2014-03-02T10:04:17Z</time>
      </trkpt>
      <trkpt lat="41.648735060" lon="2.540870010">
        <ele>391.80</ele>
        <time>2014-03-02T10:04:18Z</time>
      </trkpt>
      <trkpt lat="41.648756690" lon="2.540875030">
        <ele>391.80</ele>
        <time>2014-03-02T10:04:19Z</time>
      </trkpt>
      <trkpt lat="41.648780160" lon="2.540875030">
        <ele>391.60</ele>
        <time>2014-03-02T10:04:20Z</time>
      </trkpt>
      <trkpt lat="41.648805140" lon="2.540868330">
        <ele>391.50</ele>
        <time>2014-03-02T10:04:21Z</time>
      </trkpt>
      <trkpt lat="41.648826760" lon="2.540856760">
        <ele>391.40</ele>
        <time>2014-03-02T10:04:22Z</time>
      </trkpt>
      <trkpt lat="41.648845030" lon="2.540838490">
        <ele>391.70</ele>
        <time>2014-03-02T10:04:23Z</time>
      </trkpt>
      <trkpt lat="41.648863470" lon="2.540816700">
        <ele>392.00</ele>
        <time>2014-03-02T10:04:24Z</time>
      </trkpt>
      <trkpt lat="41.648881750" lon="2.540791720">
        <ele>391.70</ele>
        <time>2014-03-02T10:04:25Z</time>
      </trkpt>
      <trkpt lat="41.648898340" lon="2.540768420">
        <ele>391.60</ele>
        <time>2014-03-02T10:04:26Z</time>
      </trkpt>
      <trkpt lat="41.648913430" lon="2.540743440">
        <ele>391.40</ele>
        <time>2014-03-02T10:04:27Z</time>
      </trkpt>
      <trkpt lat="41.648930030" lon="2.540718460">
        <ele>391.30</ele>
        <time>2014-03-02T10:04:28Z</time>
      </trkpt>
      <trkpt lat="41.648946790" lon="2.540690130">
        <ele>391.20</ele>
        <time>2014-03-02T10:04:29Z</time>
      </trkpt>
      <trkpt lat="41.648966740" lon="2.540660120">
        <ele>391.40</ele>
        <time>2014-03-02T10:04:30Z</time>
      </trkpt>
      <trkpt lat="41.648986690" lon="2.540630120">
        <ele>391.60</ele>
        <time>2014-03-02T10:04:31Z</time>
      </trkpt>
      <trkpt lat="41.649005130" lon="2.540601780">
        <ele>391.30</ele>
        <time>2014-03-02T10:04:32Z</time>
      </trkpt>
      <trkpt lat="41.649023400" lon="2.540571780">
        <ele>391.00</ele>
        <time>2014-03-02T10:04:33Z</time>
      </trkpt>
      <trkpt lat="41.649041670" lon="2.540543450">
        <ele>390.40</ele>
        <time>2014-03-02T10:04:34Z</time>
      </trkpt>
      <trkpt lat="41.649061790" lon="2.540513440">
        <ele>390.00</ele>
        <time>2014-03-02T10:04:35Z</time>
      </trkpt>
      <trkpt lat="41.649080060" lon="2.540486790">
        <ele>389.70</ele>
        <time>2014-03-02T10:04:36Z</time>
      </trkpt>
      <trkpt lat="41.649098340" lon="2.540461810">
        <ele>389.40</ele>
        <time>2014-03-02T10:04:37Z</time>
      </trkpt>
      <trkpt lat="41.649115100" lon="2.540440010">
        <ele>389.20</ele>
        <time>2014-03-02T10:04:38Z</time>
      </trkpt>
      <trkpt lat="41.649133370" lon="2.540415040">
        <ele>388.80</ele>
        <time>2014-03-02T10:04:39Z</time>
      </trkpt>
      <trkpt lat="41.649148460" lon="2.540390060">
        <ele>388.60</ele>
        <time>2014-03-02T10:04:40Z</time>
      </trkpt>
      <trkpt lat="41.649163380" lon="2.540365080">
        <ele>388.20</ele>
        <time>2014-03-02T10:04:41Z</time>
      </trkpt>
      <trkpt lat="41.649178470" lon="2.540341780">
        <ele>387.90</ele>
        <time>2014-03-02T10:04:42Z</time>
      </trkpt>
      <trkpt lat="41.649191710" lon="2.540316800">
        <ele>387.70</ele>
        <time>2014-03-02T10:04:43Z</time>
      </trkpt>
      <trkpt lat="41.649201770" lon="2.540298360">
        <ele>387.50</ele>
        <time>2014-03-02T10:04:44Z</time>
      </trkpt>
      <trkpt lat="41.649213340" lon="2.540286790">
        <ele>387.40</ele>
        <time>2014-03-02T10:04:45Z</time>
      </trkpt>
      <trkpt lat="41.649223390" lon="2.540278410">
        <ele>386.90</ele>
        <time>2014-03-02T10:04:46Z</time>
      </trkpt>
      <trkpt lat="41.649238480" lon="2.540275060">
        <ele>386.60</ele>
        <time>2014-03-02T10:04:47Z</time>
      </trkpt>
      <trkpt lat="41.649255080" lon="2.540278410">
        <ele>386.30</ele>
        <time>2014-03-02T10:04:48Z</time>
      </trkpt>
      <trkpt lat="41.649270000" lon="2.540286790">
        <ele>386.10</ele>
        <time>2014-03-02T10:04:49Z</time>
      </trkpt>
      <trkpt lat="41.649281730" lon="2.540300040">
        <ele>385.90</ele>
        <time>2014-03-02T10:04:50Z</time>
      </trkpt>
      <trkpt lat="41.649291790" lon="2.540313450">
        <ele>385.70</ele>
        <time>2014-03-02T10:04:51Z</time>
      </trkpt>
      <trkpt lat="41.649296820" lon="2.540328370">
        <ele>385.60</ele>
        <time>2014-03-02T10:04:52Z</time>
      </trkpt>
      <trkpt lat="41.649301680" lon="2.540343450">
        <ele>385.40</ele>
        <time>2014-03-02T10:04:53Z</time>
      </trkpt>
      <trkpt lat="41.649303360" lon="2.540360050">
        <ele>385.40</ele>
        <time>2014-03-02T10:04:54Z</time>
      </trkpt>
      <trkpt lat="41.649300000" lon="2.540381680">
        <ele>385.30</ele>
        <time>2014-03-02T10:04:55Z</time>
      </trkpt>
      <trkpt lat="41.649298500" lon="2.540405150">
        <ele>385.30</ele>
        <time>2014-03-02T10:04:56Z</time>
      </trkpt>
      <trkpt lat="41.649295140" lon="2.540425090">
        <ele>385.30</ele>
        <time>2014-03-02T10:04:57Z</time>
      </trkpt>
      <trkpt lat="41.649286760" lon="2.540441690">
        <ele>385.40</ele>
        <time>2014-03-02T10:04:58Z</time>
      </trkpt>
      <trkpt lat="41.649276700" lon="2.540456780">
        <ele>385.40</ele>
        <time>2014-03-02T10:04:59Z</time>
      </trkpt>
      <trkpt lat="41.649268490" lon="2.540468350">
        <ele>385.70</ele>
        <time>2014-03-02T10:05:00Z</time>
      </trkpt>
      <trkpt lat="41.649260110" lon="2.540483430">
        <ele>385.90</ele>
        <time>2014-03-02T10:05:01Z</time>
      </trkpt>
      <trkpt lat="41.649246700" lon="2.540498350">
        <ele>386.10</ele>
        <time>2014-03-02T10:05:02Z</time>
      </trkpt>
      <trkpt lat="41.649236800" lon="2.540508410">
        <ele>386.20</ele>
        <time>2014-03-02T10:05:03Z</time>
      </trkpt>
      <trkpt lat="41.649225070" lon="2.540511760">
        <ele>386.40</ele>
        <time>2014-03-02T10:05:04Z</time>
      </trkpt>
      <trkpt lat="41.649215010" lon="2.540513440">
        <ele>386.80</ele>
        <time>2014-03-02T10:05:05Z</time>
      </trkpt>
      <trkpt lat="41.649205120" lon="2.540516790">
        <ele>387.10</ele>
        <time>2014-03-02T10:05:06Z</time>
      </trkpt>
      <trkpt lat="41.649193390" lon="2.540521820">
        <ele>387.30</ele>
        <time>2014-03-02T10:05:07Z</time>
      </trkpt>
      <trkpt lat="41.649185000" lon="2.540525010">
        <ele>387.80</ele>
        <time>2014-03-02T10:05:08Z</time>
      </trkpt>
      <trkpt lat="41.649173440" lon="2.540531710">
        <ele>388.30</ele>
        <time>2014-03-02T10:05:09Z</time>
      </trkpt>
      <trkpt lat="41.649165060" lon="2.540538420">
        <ele>388.20</ele>
        <time>2014-03-02T10:05:10Z</time>
      </trkpt>
      <trkpt lat="41.649153490" lon="2.540545120">
        <ele>388.10</ele>
        <time>2014-03-02T10:05:11Z</time>
      </trkpt>
      <trkpt lat="41.649145110" lon="2.540551830">
        <ele>389.00</ele>
        <time>2014-03-02T10:05:12Z</time>
      </trkpt>
      <trkpt lat="41.649136720" lon="2.540560040">
        <ele>389.80</ele>
        <time>2014-03-02T10:05:13Z</time>
      </trkpt>
      <trkpt lat="41.649128340" lon="2.540568420">
        <ele>390.30</ele>
        <time>2014-03-02T10:05:14Z</time>
      </trkpt>
      <trkpt lat="41.649118450" lon="2.540576810">
        <ele>390.10</ele>
        <time>2014-03-02T10:05:15Z</time>
      </trkpt>
      <trkpt lat="41.649110070" lon="2.540588370">
        <ele>389.90</ele>
        <time>2014-03-02T10:05:16Z</time>
      </trkpt>
      <trkpt lat="41.649101690" lon="2.540600110">
        <ele>389.80</ele>
        <time>2014-03-02T10:05:17Z</time>
      </trkpt>
      <trkpt lat="41.649095150" lon="2.540611680">
        <ele>389.80</ele>
        <time>2014-03-02T10:05:18Z</time>
      </trkpt>
      <trkpt lat="41.649085090" lon="2.540625090">
        <ele>389.70</ele>
        <time>2014-03-02T10:05:19Z</time>
      </trkpt>
      <trkpt lat="41.649076710" lon="2.540635140">
        <ele>390.10</ele>
        <time>2014-03-02T10:05:20Z</time>
      </trkpt>
      <trkpt lat="41.649068500" lon="2.540645040">
        <ele>390.40</ele>
        <time>2014-03-02T10:05:21Z</time>
      </trkpt>
      <trkpt lat="41.649060110" lon="2.540658450">
        <ele>390.40</ele>
        <time>2014-03-02T10:05:22Z</time>
      </trkpt>
      <trkpt lat="41.649053410" lon="2.540670010">
        <ele>390.50</ele>
        <time>2014-03-02T10:05:23Z</time>
      </trkpt>
      <trkpt lat="41.649043350" lon="2.540681750">
        <ele>390.80</ele>
        <time>2014-03-02T10:05:24Z</time>
      </trkpt>
      <trkpt lat="41.649036810" lon="2.540693480">
        <ele>391.00</ele>
        <time>2014-03-02T10:05:25Z</time>
      </trkpt>
      <trkpt lat="41.649031780" lon="2.540706730">
        <ele>391.20</ele>
        <time>2014-03-02T10:05:26Z</time>
      </trkpt>
      <trkpt lat="41.649023400" lon="2.540718460">
        <ele>391.60</ele>
        <time>2014-03-02T10:05:27Z</time>
      </trkpt>
      <trkpt lat="41.649015020" lon="2.540730030">
        <ele>391.80</ele>
        <time>2014-03-02T10:05:28Z</time>
      </trkpt>
      <trkpt lat="41.649006810" lon="2.540741760">
        <ele>392.20</ele>
        <time>2014-03-02T10:05:29Z</time>
      </trkpt>
      <trkpt lat="41.649000100" lon="2.540755010">
        <ele>392.40</ele>
        <time>2014-03-02T10:05:30Z</time>
      </trkpt>
      <trkpt lat="41.648991720" lon="2.540766740">
        <ele>392.70</ele>
        <time>2014-03-02T10:05:31Z</time>
      </trkpt>
      <trkpt lat="41.648983340" lon="2.540778480">
        <ele>392.90</ele>
        <time>2014-03-02T10:05:32Z</time>
      </trkpt>
      <trkpt lat="41.648976800" lon="2.540791720">
        <ele>393.00</ele>
        <time>2014-03-02T10:05:33Z</time>
      </trkpt>
      <trkpt lat="41.648970090" lon="2.540805130">
        <ele>392.90</ele>
        <time>2014-03-02T10:05:34Z</time>
      </trkpt>
      <trkpt lat="41.648963390" lon="2.540816700">
        <ele>392.90</ele>
        <time>2014-03-02T10:05:35Z</time>
      </trkpt>
      <trkpt lat="41.648956680" lon="2.540828430">
        <ele>393.50</ele>
        <time>2014-03-02T10:05:36Z</time>
      </trkpt>
      <trkpt lat="41.648948470" lon="2.540841680">
        <ele>393.90</ele>
        <time>2014-03-02T10:05:37Z</time>
      </trkpt>
      <trkpt lat="41.648943440" lon="2.540853410">
        <ele>394.00</ele>
        <time>2014-03-02T10:05:38Z</time>
      </trkpt>
      <trkpt lat="41.648940090" lon="2.540868330">
        <ele>394.10</ele>
        <time>2014-03-02T10:05:39Z</time>
      </trkpt>
      <trkpt lat="41.648935060" lon="2.540881740">
        <ele>394.10</ele>
        <time>2014-03-02T10:05:40Z</time>
      </trkpt>
      <trkpt lat="41.648930030" lon="2.540893480">
        <ele>394.30</ele>
        <time>2014-03-02T10:05:41Z</time>
      </trkpt>
      <trkpt lat="41.648925000" lon="2.540906720">
        <ele>394.40</ele>
        <time>2014-03-02T10:05:42Z</time>
      </trkpt>
      <trkpt lat="41.648920140" lon="2.540921810">
        <ele>394.30</ele>
        <time>2014-03-02T10:05:43Z</time>
      </trkpt>
      <trkpt lat="41.648915110" lon="2.540938400">
        <ele>394.20</ele>
        <time>2014-03-02T10:05:44Z</time>
      </trkpt>
      <trkpt lat="41.648911750" lon="2.540951810">
        <ele>394.10</ele>
        <time>2014-03-02T10:05:45Z</time>
      </trkpt>
      <trkpt lat="41.648906730" lon="2.540968410">
        <ele>394.10</ele>
        <time>2014-03-02T10:05:46Z</time>
      </trkpt>
      <trkpt lat="41.648900020" lon="2.540983330">
        <ele>394.00</ele>
        <time>2014-03-02T10:05:47Z</time>
      </trkpt>
      <trkpt lat="41.648893480" lon="2.540998420">
        <ele>394.30</ele>
        <time>2014-03-02T10:05:48Z</time>
      </trkpt>
      <trkpt lat="41.648886780" lon="2.541011830">
        <ele>394.40</ele>
        <time>2014-03-02T10:05:49Z</time>
      </trkpt>
      <trkpt lat="41.648881750" lon="2.541025070">
        <ele>395.10</ele>
        <time>2014-03-02T10:05:50Z</time>
      </trkpt>
      <trkpt lat="41.648875040" lon="2.541038480">
        <ele>395.60</ele>
        <time>2014-03-02T10:05:51Z</time>
      </trkpt>
      <trkpt lat="41.648871690" lon="2.541050050">
        <ele>396.00</ele>
        <time>2014-03-02T10:05:52Z</time>
      </trkpt>
      <trkpt lat="41.648866830" lon="2.541063460">
        <ele>395.80</ele>
        <time>2014-03-02T10:05:53Z</time>
      </trkpt>
      <trkpt lat="41.648861800" lon="2.541076700">
        <ele>395.70</ele>
        <time>2014-03-02T10:05:54Z</time>
      </trkpt>
      <trkpt lat="41.648855090" lon="2.541090110">
        <ele>395.30</ele>
        <time>2014-03-02T10:05:55Z</time>
      </trkpt>
      <trkpt lat="41.648848390" lon="2.541101680">
        <ele>395.10</ele>
        <time>2014-03-02T10:05:56Z</time>
      </trkpt>
      <trkpt lat="41.648840010" lon="2.541115090">
        <ele>395.50</ele>
        <time>2014-03-02T10:05:57Z</time>
      </trkpt>
      <trkpt lat="41.648833470" lon="2.541128340">
        <ele>395.70</ele>
        <time>2014-03-02T10:05:58Z</time>
      </trkpt>
      <trkpt lat="41.648825090" lon="2.541141750">
        <ele>396.00</ele>
        <time>2014-03-02T10:05:59Z</time>
      </trkpt>
      <trkpt lat="41.648816700" lon="2.541155160">
        <ele>395.90</ele>
        <time>2014-03-02T10:06:00Z</time>
      </trkpt>
      <trkpt lat="41.648806810" lon="2.541168400">
        <ele>395.80</ele>
        <time>2014-03-02T10:06:01Z</time>
      </trkpt>
      <trkpt lat="41.648796750" lon="2.541178460">
        <ele>395.60</ele>
        <time>2014-03-02T10:06:02Z</time>
      </trkpt>
      <trkpt lat="41.648788370" lon="2.541188350">
        <ele>395.40</ele>
        <time>2014-03-02T10:06:03Z</time>
      </trkpt>
      <trkpt lat="41.648780160" lon="2.541198410">
        <ele>395.30</ele>
        <time>2014-03-02T10:06:04Z</time>
      </trkpt>
      <trkpt lat="41.648773450" lon="2.541210140">
        <ele>395.80</ele>
        <time>2014-03-02T10:06:05Z</time>
      </trkpt>
      <trkpt lat="41.648763390" lon="2.541221710">
        <ele>396.20</ele>
        <time>2014-03-02T10:06:06Z</time>
      </trkpt>
      <trkpt lat="41.648756690" lon="2.541235120">
        <ele>396.60</ele>
        <time>2014-03-02T10:06:07Z</time>
      </trkpt>
      <trkpt lat="41.648748470" lon="2.541246690">
        <ele>397.00</ele>
        <time>2014-03-02T10:06:08Z</time>
      </trkpt>
      <trkpt lat="41.648741770" lon="2.541261780">
        <ele>397.30</ele>
        <time>2014-03-02T10:06:09Z</time>
      </trkpt>
      <trkpt lat="41.648735060" lon="2.541275020">
        <ele>397.50</ele>
        <time>2014-03-02T10:06:10Z</time>
      </trkpt>
      <trkpt lat="41.648731710" lon="2.541288430">
        <ele>397.70</ele>
        <time>2014-03-02T10:06:11Z</time>
      </trkpt>
      <trkpt lat="41.648733390" lon="2.541300000">
        <ele>397.80</ele>
        <time>2014-03-02T10:06:12Z</time>
      </trkpt>
      <trkpt lat="41.648733390" lon="2.541308380">
        <ele>397.80</ele>
        <time>2014-03-02T10:06:13Z</time>
      </trkpt>
      <trkpt lat="41.648735060" lon="2.541313410">
        <ele>398.40</ele>
        <time>2014-03-02T10:06:14Z</time>
      </trkpt>
      <trkpt lat="41.648740090" lon="2.541318440">
        <ele>398.90</ele>
        <time>2014-03-02T10:06:15Z</time>
      </trkpt>
      <trkpt lat="41.648745120" lon="2.541323470">
        <ele>398.80</ele>
        <time>2014-03-02T10:06:16Z</time>
      </trkpt>
      <trkpt lat="41.648750150" lon="2.541330000">
        <ele>398.80</ele>
        <time>2014-03-02T10:06:17Z</time>
      </trkpt>
      <trkpt lat="41.648756690" lon="2.541341740">
        <ele>398.80</ele>
        <time>2014-03-02T10:06:18Z</time>
      </trkpt>
      <trkpt lat="41.648761720" lon="2.541353470">
        <ele>398.80</ele>
        <time>2014-03-02T10:06:19Z</time>
      </trkpt>
      <trkpt lat="41.648768420" lon="2.541361690">
        <ele>398.80</ele>
        <time>2014-03-02T10:06:20Z</time>
      </trkpt>
      <trkpt lat="41.648773450" lon="2.541371750">
        <ele>399.30</ele>
        <time>2014-03-02T10:06:21Z</time>
      </trkpt>
      <trkpt lat="41.648773450" lon="2.541373420">
        <ele>399.60</ele>
        <time>2014-03-02T10:06:22Z</time>
      </trkpt>
      <trkpt lat="41.648773450" lon="2.541375100">
        <ele>399.90</ele>
        <time>2014-03-02T10:06:23Z</time>
      </trkpt>
      <trkpt lat="41.648775130" lon="2.541375100">
        <ele>399.90</ele>
        <time>2014-03-02T10:06:24Z</time>
      </trkpt>
      <trkpt lat="41.648773450" lon="2.541376780">
        <ele>399.90</ele>
        <time>2014-03-02T10:06:25Z</time>
      </trkpt>
      <trkpt lat="41.648773450" lon="2.541376780">
        <ele>400.10</ele>
        <time>2014-03-02T10:06:26Z</time>
      </trkpt>
      <trkpt lat="41.648771780" lon="2.541378450">
        <ele>400.30</ele>
        <time>2014-03-02T10:06:27Z</time>
      </trkpt>
      <trkpt lat="41.648771780" lon="2.541378450">
        <ele>399.70</ele>
        <time>2014-03-02T10:06:28Z</time>
      </trkpt>
      <trkpt lat="41.648771780" lon="2.541378450">
        <ele>399.40</ele>
        <time>2014-03-02T10:06:29Z</time>
      </trkpt>
      <trkpt lat="41.648771780" lon="2.541380130">
        <ele>399.10</ele>
        <time>2014-03-02T10:06:30Z</time>
      </trkpt>
      <trkpt lat="41.648773450" lon="2.541381800">
        <ele>399.70</ele>
        <time>2014-03-02T10:06:31Z</time>
      </trkpt>
      <trkpt lat="41.648776810" lon="2.541386670">
        <ele>400.20</ele>
        <time>2014-03-02T10:06:32Z</time>
      </trkpt>
      <trkpt lat="41.648775130" lon="2.541388340">
        <ele>400.30</ele>
        <time>2014-03-02T10:06:33Z</time>
      </trkpt>
      <trkpt lat="41.648775130" lon="2.541388340">
        <ele>400.40</ele>
        <time>2014-03-02T10:06:34Z</time>
      </trkpt>
      <trkpt lat="41.648775130" lon="2.541388340">
        <ele>400.50</ele>
        <time>2014-03-02T10:06:35Z</time>
      </trkpt>
      <trkpt lat="41.648776810" lon="2.541391700">
        <ele>400.50</ele>
        <time>2014-03-02T10:06:36Z</time>
      </trkpt>
      <trkpt lat="41.648781670" lon="2.541398400">
        <ele>400.60</ele>
        <time>2014-03-02T10:06:37Z</time>
      </trkpt>
      <trkpt lat="41.648785020" lon="2.541406780">
        <ele>400.70</ele>
        <time>2014-03-02T10:06:38Z</time>
      </trkpt>
      <trkpt lat="41.648790050" lon="2.541413490">
        <ele>400.80</ele>
        <time>2014-03-02T10:06:39Z</time>
      </trkpt>
      <trkpt lat="41.648796750" lon="2.541418350">
        <ele>400.70</ele>
        <time>2014-03-02T10:06:40Z</time>
      </trkpt>
      <trkpt lat="41.648805140" lon="2.541423380">
        <ele>400.60</ele>
        <time>2014-03-02T10:06:41Z</time>
      </trkpt>
      <trkpt lat="41.648810000" lon="2.541428410">
        <ele>400.50</ele>
        <time>2014-03-02T10:06:42Z</time>
      </trkpt>
      <trkpt lat="41.648816700" lon="2.541431760">
        <ele>400.60</ele>
        <time>2014-03-02T10:06:43Z</time>
      </trkpt>
      <trkpt lat="41.648823410" lon="2.541435110">
        <ele>400.60</ele>
        <time>2014-03-02T10:06:44Z</time>
      </trkpt>
      <trkpt lat="41.648830110" lon="2.541438470">
        <ele>400.40</ele>
        <time>2014-03-02T10:06:45Z</time>
      </trkpt>
      <trkpt lat="41.648835140" lon="2.541446680">
        <ele>400.20</ele>
        <time>2014-03-02T10:06:46Z</time>
      </trkpt>
      <trkpt lat="41.648841680" lon="2.541450030">
        <ele>400.90</ele>
        <time>2014-03-02T10:06:47Z</time>
      </trkpt>
      <trkpt lat="41.648850060" lon="2.541455060">
        <ele>401.30</ele>
        <time>2014-03-02T10:06:48Z</time>
      </trkpt>
      <trkpt lat="41.648856770" lon="2.541461770">
        <ele>401.70</ele>
        <time>2014-03-02T10:06:49Z</time>
      </trkpt>
      <trkpt lat="41.648861800" lon="2.541466800">
        <ele>401.40</ele>
        <time>2014-03-02T10:06:50Z</time>
      </trkpt>
      <trkpt lat="41.648866830" lon="2.541471830">
        <ele>401.20</ele>
        <time>2014-03-02T10:06:51Z</time>
      </trkpt>
      <trkpt lat="41.648873370" lon="2.541475010">
        <ele>400.90</ele>
        <time>2014-03-02T10:06:52Z</time>
      </trkpt>
      <trkpt lat="41.648878390" lon="2.541476690">
        <ele>400.70</ele>
        <time>2014-03-02T10:06:53Z</time>
      </trkpt>
      <trkpt lat="41.648885100" lon="2.541480040">
        <ele>401.10</ele>
        <time>2014-03-02T10:06:54Z</time>
      </trkpt>
      <trkpt lat="41.648891810" lon="2.541485070">
        <ele>401.30</ele>
        <time>2014-03-02T10:06:55Z</time>
      </trkpt>
      <trkpt lat="41.648900020" lon="2.541491780">
        <ele>401.50</ele>
        <time>2014-03-02T10:06:56Z</time>
      </trkpt>
      <trkpt lat="41.648908400" lon="2.541493450">
        <ele>401.20</ele>
        <time>2014-03-02T10:06:57Z</time>
      </trkpt>
      <trkpt lat="41.648915110" lon="2.541496800">
        <ele>401.10</ele>
        <time>2014-03-02T10:06:58Z</time>
      </trkpt>
      <trkpt lat="41.648923490" lon="2.541501670">
        <ele>401.10</ele>
        <time>2014-03-02T10:06:59Z</time>
      </trkpt>
      <trkpt lat="41.648930030" lon="2.541505020">
        <ele>401.20</ele>
        <time>2014-03-02T10:07:00Z</time>
      </trkpt>
      <trkpt lat="41.648938410" lon="2.541508370">
        <ele>401.00</ele>
        <time>2014-03-02T10:07:01Z</time>
      </trkpt>
      <trkpt lat="41.648945110" lon="2.541516750">
        <ele>400.90</ele>
        <time>2014-03-02T10:07:02Z</time>
      </trkpt>
      <trkpt lat="41.648951820" lon="2.541526810">
        <ele>400.80</ele>
        <time>2014-03-02T10:07:03Z</time>
      </trkpt>
      <trkpt lat="41.648958360" lon="2.541538380">
        <ele>401.10</ele>
        <time>2014-03-02T10:07:04Z</time>
      </trkpt>
      <trkpt lat="41.648963390" lon="2.541551790">
        <ele>401.40</ele>
        <time>2014-03-02T10:07:05Z</time>
      </trkpt>
      <trkpt lat="41.648966740" lon="2.541563360">
        <ele>401.50</ele>
        <time>2014-03-02T10:07:06Z</time>
      </trkpt>
      <trkpt lat="41.648975120" lon="2.541573420">
        <ele>401.60</ele>
        <time>2014-03-02T10:07:07Z</time>
      </trkpt>
      <trkpt lat="41.648980150" lon="2.541585150">
        <ele>401.70</ele>
        <time>2014-03-02T10:07:08Z</time>
      </trkpt>
      <trkpt lat="41.648986690" lon="2.541595040">
        <ele>401.80</ele>
        <time>2014-03-02T10:07:09Z</time>
      </trkpt>
      <trkpt lat="41.648993390" lon="2.541606780">
        <ele>401.90</ele>
        <time>2014-03-02T10:07:10Z</time>
      </trkpt>
      <trkpt lat="41.649001780" lon="2.541620020">
        <ele>402.20</ele>
        <time>2014-03-02T10:07:11Z</time>
      </trkpt>
      <trkpt lat="41.649008480" lon="2.541635110">
        <ele>402.40</ele>
        <time>2014-03-02T10:07:12Z</time>
      </trkpt>
      <trkpt lat="41.649011670" lon="2.541650030">
        <ele>402.40</ele>
        <time>2014-03-02T10:07:13Z</time>
      </trkpt>
      <trkpt lat="41.649016700" lon="2.541665110">
        <ele>402.40</ele>
        <time>2014-03-02T10:07:14Z</time>
      </trkpt>
      <trkpt lat="41.649021720" lon="2.541681710">
        <ele>402.40</ele>
        <time>2014-03-02T10:07:15Z</time>
      </trkpt>
      <trkpt lat="41.649025080" lon="2.541698470">
        <ele>402.50</ele>
        <time>2014-03-02T10:07:16Z</time>
      </trkpt>
      <trkpt lat="41.649030110" lon="2.541718420">
        <ele>402.50</ele>
        <time>2014-03-02T10:07:17Z</time>
      </trkpt>
      <trkpt lat="41.649033460" lon="2.541738370">
        <ele>402.40</ele>
        <time>2014-03-02T10:07:18Z</time>
      </trkpt>
      <trkpt lat="41.649040000" lon="2.541753460">
        <ele>402.30</ele>
        <time>2014-03-02T10:07:19Z</time>
      </trkpt>
      <trkpt lat="41.649046700" lon="2.541771730">
        <ele>402.20</ele>
        <time>2014-03-02T10:07:20Z</time>
      </trkpt>
      <trkpt lat="41.649051730" lon="2.541790000">
        <ele>402.40</ele>
        <time>2014-03-02T10:07:21Z</time>
      </trkpt>
      <trkpt lat="41.649056760" lon="2.541808440">
        <ele>402.50</ele>
        <time>2014-03-02T10:07:22Z</time>
      </trkpt>
      <trkpt lat="41.649061790" lon="2.541826720">
        <ele>402.30</ele>
        <time>2014-03-02T10:07:23Z</time>
      </trkpt>
      <trkpt lat="41.649065140" lon="2.541846670">
        <ele>402.10</ele>
        <time>2014-03-02T10:07:24Z</time>
      </trkpt>
      <trkpt lat="41.649066820" lon="2.541866780">
        <ele>402.20</ele>
        <time>2014-03-02T10:07:25Z</time>
      </trkpt>
      <trkpt lat="41.649066820" lon="2.541886730">
        <ele>402.40</ele>
        <time>2014-03-02T10:07:26Z</time>
      </trkpt>
      <trkpt lat="41.649070000" lon="2.541906680">
        <ele>402.50</ele>
        <time>2014-03-02T10:07:27Z</time>
      </trkpt>
      <trkpt lat="41.649070000" lon="2.541928470">
        <ele>402.60</ele>
        <time>2014-03-02T10:07:28Z</time>
      </trkpt>
      <trkpt lat="41.649070000" lon="2.541946750">
        <ele>402.70</ele>
        <time>2014-03-02T10:07:29Z</time>
      </trkpt>
      <trkpt lat="41.649068500" lon="2.541968370">
        <ele>402.90</ele>
        <time>2014-03-02T10:07:30Z</time>
      </trkpt>
      <trkpt lat="41.649066820" lon="2.541990000">
        <ele>403.10</ele>
        <time>2014-03-02T10:07:31Z</time>
      </trkpt>
      <trkpt lat="41.649063470" lon="2.542011790">
        <ele>403.30</ele>
        <time>2014-03-02T10:07:32Z</time>
      </trkpt>
      <trkpt lat="41.649058440" lon="2.542033410">
        <ele>403.50</ele>
        <time>2014-03-02T10:07:33Z</time>
      </trkpt>
      <trkpt lat="41.649053410" lon="2.542053360">
        <ele>403.60</ele>
        <time>2014-03-02T10:07:34Z</time>
      </trkpt>
      <trkpt lat="41.649051730" lon="2.542075160">
        <ele>403.60</ele>
        <time>2014-03-02T10:07:35Z</time>
      </trkpt>
      <trkpt lat="41.649050060" lon="2.542098460">
        <ele>403.70</ele>
        <time>2014-03-02T10:07:36Z</time>
      </trkpt>
      <trkpt lat="41.649050060" lon="2.542118410">
        <ele>403.50</ele>
        <time>2014-03-02T10:07:37Z</time>
      </trkpt>
      <trkpt lat="41.649051730" lon="2.542140030">
        <ele>403.30</ele>
        <time>2014-03-02T10:07:38Z</time>
      </trkpt>
      <trkpt lat="41.649051730" lon="2.542163330">
        <ele>403.20</ele>
        <time>2014-03-02T10:07:39Z</time>
      </trkpt>
      <trkpt lat="41.649051730" lon="2.542188480">
        <ele>403.50</ele>
        <time>2014-03-02T10:07:40Z</time>
      </trkpt>
      <trkpt lat="41.649051730" lon="2.542211780">
        <ele>403.80</ele>
        <time>2014-03-02T10:07:41Z</time>
      </trkpt>
      <trkpt lat="41.649051730" lon="2.542233410">
        <ele>403.70</ele>
        <time>2014-03-02T10:07:42Z</time>
      </trkpt>
      <trkpt lat="41.649055080" lon="2.542258380">
        <ele>403.60</ele>
        <time>2014-03-02T10:07:43Z</time>
      </trkpt>
      <trkpt lat="41.649061790" lon="2.542281690">
        <ele>403.70</ele>
        <time>2014-03-02T10:07:44Z</time>
      </trkpt>
      <trkpt lat="41.649068500" lon="2.542305160">
        <ele>403.70</ele>
        <time>2014-03-02T10:07:45Z</time>
      </trkpt>
      <trkpt lat="41.649070000" lon="2.542328460">
        <ele>403.70</ele>
        <time>2014-03-02T10:07:46Z</time>
      </trkpt>
      <trkpt lat="41.649076710" lon="2.542348410">
        <ele>404.00</ele>
        <time>2014-03-02T10:07:47Z</time>
      </trkpt>
      <trkpt lat="41.649085090" lon="2.542370030">
        <ele>404.30</ele>
        <time>2014-03-02T10:07:48Z</time>
      </trkpt>
      <trkpt lat="41.649090120" lon="2.542391820">
        <ele>404.30</ele>
        <time>2014-03-02T10:07:49Z</time>
      </trkpt>
      <trkpt lat="41.649095150" lon="2.542413450">
        <ele>404.30</ele>
        <time>2014-03-02T10:07:50Z</time>
      </trkpt>
      <trkpt lat="41.649100010" lon="2.542436750">
        <ele>404.60</ele>
        <time>2014-03-02T10:07:51Z</time>
      </trkpt>
      <trkpt lat="41.649105040" lon="2.542460050">
        <ele>404.80</ele>
        <time>2014-03-02T10:07:52Z</time>
      </trkpt>
      <trkpt lat="41.649110070" lon="2.542480000">
        <ele>404.90</ele>
        <time>2014-03-02T10:07:53Z</time>
      </trkpt>
      <trkpt lat="41.649115100" lon="2.542505150">
        <ele>405.00</ele>
        <time>2014-03-02T10:07:54Z</time>
      </trkpt>
      <trkpt lat="41.649120130" lon="2.542526770">
        <ele>405.00</ele>
        <time>2014-03-02T10:07:55Z</time>
      </trkpt>
      <trkpt lat="41.649125160" lon="2.542550070">
        <ele>405.30</ele>
        <time>2014-03-02T10:07:56Z</time>
      </trkpt>
      <trkpt lat="41.649133370" lon="2.542571700">
        <ele>405.50</ele>
        <time>2014-03-02T10:07:57Z</time>
      </trkpt>
      <trkpt lat="41.649140080" lon="2.542593490">
        <ele>405.60</ele>
        <time>2014-03-02T10:07:58Z</time>
      </trkpt>
      <trkpt lat="41.649148460" lon="2.542613440">
        <ele>405.70</ele>
        <time>2014-03-02T10:07:59Z</time>
      </trkpt>
      <trkpt lat="41.649156670" lon="2.542633390">
        <ele>405.70</ele>
        <time>2014-03-02T10:08:00Z</time>
      </trkpt>
      <trkpt lat="41.649165060" lon="2.542653340">
        <ele>405.70</ele>
        <time>2014-03-02T10:08:01Z</time>
      </trkpt>
      <trkpt lat="41.649171760" lon="2.542675130">
        <ele>405.70</ele>
        <time>2014-03-02T10:08:02Z</time>
      </trkpt>
      <trkpt lat="41.649180140" lon="2.542696760">
        <ele>405.70</ele>
        <time>2014-03-02T10:08:03Z</time>
      </trkpt>
      <trkpt lat="41.649186680" lon="2.542716710">
        <ele>405.70</ele>
        <time>2014-03-02T10:08:04Z</time>
      </trkpt>
      <trkpt lat="41.649195060" lon="2.542735150">
        <ele>405.70</ele>
        <time>2014-03-02T10:08:05Z</time>
      </trkpt>
      <trkpt lat="41.649201770" lon="2.542758450">
        <ele>405.70</ele>
        <time>2014-03-02T10:08:06Z</time>
      </trkpt>
      <trkpt lat="41.649210150" lon="2.542780070">
        <ele>405.60</ele>
        <time>2014-03-02T10:08:07Z</time>
      </trkpt>
      <trkpt lat="41.649221720" lon="2.542800020">
        <ele>405.50</ele>
        <time>2014-03-02T10:08:08Z</time>
      </trkpt>
      <trkpt lat="41.649233450" lon="2.542818460">
        <ele>405.30</ele>
        <time>2014-03-02T10:08:09Z</time>
      </trkpt>
      <trkpt lat="41.649241670" lon="2.542838410">
        <ele>405.20</ele>
        <time>2014-03-02T10:08:10Z</time>
      </trkpt>
      <trkpt lat="41.649248370" lon="2.542860040">
        <ele>405.10</ele>
        <time>2014-03-02T10:08:11Z</time>
      </trkpt>
      <trkpt lat="41.649256750" lon="2.542881660">
        <ele>405.10</ele>
        <time>2014-03-02T10:08:12Z</time>
      </trkpt>
      <trkpt lat="41.649263460" lon="2.542905130">
        <ele>405.40</ele>
        <time>2014-03-02T10:08:13Z</time>
      </trkpt>
      <trkpt lat="41.649268490" lon="2.542926760">
        <ele>405.60</ele>
        <time>2014-03-02T10:08:14Z</time>
      </trkpt>
      <trkpt lat="41.649275030" lon="2.542951740">
        <ele>405.70</ele>
        <time>2014-03-02T10:08:15Z</time>
      </trkpt>
      <trkpt lat="41.649281730" lon="2.542976710">
        <ele>405.80</ele>
        <time>2014-03-02T10:08:16Z</time>
      </trkpt>
      <trkpt lat="41.649288440" lon="2.543001690">
        <ele>405.90</ele>
        <time>2014-03-02T10:08:17Z</time>
      </trkpt>
      <trkpt lat="41.649295140" lon="2.543026670">
        <ele>406.20</ele>
        <time>2014-03-02T10:08:18Z</time>
      </trkpt>
      <trkpt lat="41.649301680" lon="2.543050140">
        <ele>406.40</ele>
        <time>2014-03-02T10:08:19Z</time>
      </trkpt>
      <trkpt lat="41.649305030" lon="2.543073440">
        <ele>406.80</ele>
        <time>2014-03-02T10:08:20Z</time>
      </trkpt>
      <trkpt lat="41.649313420" lon="2.543096740">
        <ele>407.00</ele>
        <time>2014-03-02T10:08:21Z</time>
      </trkpt>
      <trkpt lat="41.649321800" lon="2.543121720">
        <ele>407.20</ele>
        <time>2014-03-02T10:08:22Z</time>
      </trkpt>
      <trkpt lat="41.649330010" lon="2.543145020">
        <ele>407.30</ele>
        <time>2014-03-02T10:08:23Z</time>
      </trkpt>
      <trkpt lat="41.649336720" lon="2.543165140">
        <ele>407.30</ele>
        <time>2014-03-02T10:08:24Z</time>
      </trkpt>
      <trkpt lat="41.649341750" lon="2.543190120">
        <ele>407.50</ele>
        <time>2014-03-02T10:08:25Z</time>
      </trkpt>
      <trkpt lat="41.649346780" lon="2.543215090">
        <ele>407.70</ele>
        <time>2014-03-02T10:08:26Z</time>
      </trkpt>
      <trkpt lat="41.649353480" lon="2.543238400">
        <ele>407.50</ele>
        <time>2014-03-02T10:08:27Z</time>
      </trkpt>
      <trkpt lat="41.649358340" lon="2.543263370">
        <ele>407.40</ele>
        <time>2014-03-02T10:08:28Z</time>
      </trkpt>
      <trkpt lat="41.649363370" lon="2.543288350">
        <ele>407.20</ele>
        <time>2014-03-02T10:08:29Z</time>
      </trkpt>
      <trkpt lat="41.649368400" lon="2.543315010">
        <ele>407.00</ele>
        <time>2014-03-02T10:08:30Z</time>
      </trkpt>
      <trkpt lat="41.649371750" lon="2.543341830">
        <ele>406.90</ele>
        <time>2014-03-02T10:08:31Z</time>
      </trkpt>
      <trkpt lat="41.649373430" lon="2.543368480">
        <ele>407.40</ele>
        <time>2014-03-02T10:08:32Z</time>
      </trkpt>
      <trkpt lat="41.649376780" lon="2.543396810">
        <ele>407.70</ele>
        <time>2014-03-02T10:08:33Z</time>
      </trkpt>
      <trkpt lat="41.649380140" lon="2.543425150">
        <ele>407.80</ele>
        <time>2014-03-02T10:08:34Z</time>
      </trkpt>
      <trkpt lat="41.649385000" lon="2.543453480">
        <ele>407.80</ele>
        <time>2014-03-02T10:08:35Z</time>
      </trkpt>
      <trkpt lat="41.649388350" lon="2.543480130">
        <ele>407.80</ele>
        <time>2014-03-02T10:08:36Z</time>
      </trkpt>
      <trkpt lat="41.649393380" lon="2.543506780">
        <ele>407.80</ele>
        <time>2014-03-02T10:08:37Z</time>
      </trkpt>
      <trkpt lat="41.649396730" lon="2.543533440">
        <ele>407.90</ele>
        <time>2014-03-02T10:08:38Z</time>
      </trkpt>
      <trkpt lat="41.649398410" lon="2.543560090">
        <ele>408.10</ele>
        <time>2014-03-02T10:08:39Z</time>
      </trkpt>
      <trkpt lat="41.649403440" lon="2.543586750">
        <ele>408.30</ele>
        <time>2014-03-02T10:08:40Z</time>
      </trkpt>
      <trkpt lat="41.649406790" lon="2.543613400">
        <ele>408.50</ele>
        <time>2014-03-02T10:08:41Z</time>
      </trkpt>
      <trkpt lat="41.649411820" lon="2.543638380">
        <ele>408.60</ele>
        <time>2014-03-02T10:08:42Z</time>
      </trkpt>
      <trkpt lat="41.649413490" lon="2.543663360">
        <ele>408.70</ele>
        <time>2014-03-02T10:08:43Z</time>
      </trkpt>
      <trkpt lat="41.649416680" lon="2.543690010">
        <ele>409.00</ele>
        <time>2014-03-02T10:08:44Z</time>
      </trkpt>
      <trkpt lat="41.649416680" lon="2.543715160">
        <ele>409.20</ele>
        <time>2014-03-02T10:08:45Z</time>
      </trkpt>
      <trkpt lat="41.649418360" lon="2.543740140">
        <ele>409.30</ele>
        <time>2014-03-02T10:08:46Z</time>
      </trkpt>
      <trkpt lat="41.649420030" lon="2.543766790">
        <ele>409.40</ele>
        <time>2014-03-02T10:08:47Z</time>
      </trkpt>
      <trkpt lat="41.649421710" lon="2.543793450">
        <ele>409.50</ele>
        <time>2014-03-02T10:08:48Z</time>
      </trkpt>
      <trkpt lat="41.649421710" lon="2.543820100">
        <ele>409.60</ele>
        <time>2014-03-02T10:08:49Z</time>
      </trkpt>
      <trkpt lat="41.649420030" lon="2.543846750">
        <ele>409.70</ele>
        <time>2014-03-02T10:08:50Z</time>
      </trkpt>
      <trkpt lat="41.649418360" lon="2.543873410">
        <ele>409.90</ele>
        <time>2014-03-02T10:08:51Z</time>
      </trkpt>
      <trkpt lat="41.649416680" lon="2.543900060">
        <ele>410.10</ele>
        <time>2014-03-02T10:08:52Z</time>
      </trkpt>
      <trkpt lat="41.649416680" lon="2.543926720">
        <ele>410.50</ele>
        <time>2014-03-02T10:08:53Z</time>
      </trkpt>
      <trkpt lat="41.649418360" lon="2.543953370">
        <ele>410.90</ele>
        <time>2014-03-02T10:08:54Z</time>
      </trkpt>
      <trkpt lat="41.649420030" lon="2.543978350">
        <ele>411.10</ele>
        <time>2014-03-02T10:08:55Z</time>
      </trkpt>
      <trkpt lat="41.649423390" lon="2.544001820">
        <ele>411.30</ele>
        <time>2014-03-02T10:08:56Z</time>
      </trkpt>
      <trkpt lat="41.649426740" lon="2.544026800">
        <ele>411.50</ele>
        <time>2014-03-02T10:08:57Z</time>
      </trkpt>
      <trkpt lat="41.649430090" lon="2.544050100">
        <ele>411.10</ele>
        <time>2014-03-02T10:08:58Z</time>
      </trkpt>
      <trkpt lat="41.649431770" lon="2.544071730">
        <ele>410.90</ele>
        <time>2014-03-02T10:08:59Z</time>
      </trkpt>
      <trkpt lat="41.649435120" lon="2.544093350">
        <ele>411.00</ele>
        <time>2014-03-02T10:09:00Z</time>
      </trkpt>
      <trkpt lat="41.649435120" lon="2.544115140">
        <ele>411.10</ele>
        <time>2014-03-02T10:09:01Z</time>
      </trkpt>
      <trkpt lat="41.649428410" lon="2.544131740">
        <ele>411.10</ele>
        <time>2014-03-02T10:09:02Z</time>
      </trkpt>
      <trkpt lat="41.649421710" lon="2.544141800">
        <ele>411.00</ele>
        <time>2014-03-02T10:09:03Z</time>
      </trkpt>
      <trkpt lat="41.649410140" lon="2.544151690">
        <ele>410.80</ele>
        <time>2014-03-02T10:09:04Z</time>
      </trkpt>
      <trkpt lat="41.649395050" lon="2.544166780">
        <ele>411.10</ele>
        <time>2014-03-02T10:09:05Z</time>
      </trkpt>
      <trkpt lat="41.649380140" lon="2.544181700">
        <ele>411.30</ele>
        <time>2014-03-02T10:09:06Z</time>
      </trkpt>
      <trkpt lat="41.649363370" lon="2.544191750">
        <ele>411.40</ele>
        <time>2014-03-02T10:09:07Z</time>
      </trkpt>
      <trkpt lat="41.649346780" lon="2.544203490">
        <ele>411.50</ele>
        <time>2014-03-02T10:09:08Z</time>
      </trkpt>
      <trkpt lat="41.649328330" lon="2.544208350">
        <ele>411.50</ele>
        <time>2014-03-02T10:09:09Z</time>
      </trkpt>
      <trkpt lat="41.649313420" lon="2.544213380">
        <ele>411.40</ele>
        <time>2014-03-02T10:09:10Z</time>
      </trkpt>
      <trkpt lat="41.649293470" lon="2.544221760">
        <ele>411.40</ele>
        <time>2014-03-02T10:09:11Z</time>
      </trkpt>
      <trkpt lat="41.649268490" lon="2.544230140">
        <ele>411.30</ele>
        <time>2014-03-02T10:09:12Z</time>
      </trkpt>
      <trkpt lat="41.649243340" lon="2.544228470">
        <ele>411.20</ele>
        <time>2014-03-02T10:09:13Z</time>
      </trkpt>
      <trkpt lat="41.649213340" lon="2.544221760">
        <ele>410.70</ele>
        <time>2014-03-02T10:09:14Z</time>
      </trkpt>
      <trkpt lat="41.649185000" lon="2.544211700">
        <ele>410.30</ele>
        <time>2014-03-02T10:09:15Z</time>
      </trkpt>
      <trkpt lat="41.649158350" lon="2.544208350">
        <ele>410.00</ele>
        <time>2014-03-02T10:09:16Z</time>
      </trkpt>
      <trkpt lat="41.649135050" lon="2.544210030">
        <ele>409.60</ele>
        <time>2014-03-02T10:09:17Z</time>
      </trkpt>
      <trkpt lat="41.649111750" lon="2.544213380">
        <ele>409.20</ele>
        <time>2014-03-02T10:09:18Z</time>
      </trkpt>
      <trkpt lat="41.649093470" lon="2.544221760">
        <ele>409.20</ele>
        <time>2014-03-02T10:09:19Z</time>
      </trkpt>
      <trkpt lat="41.649080060" lon="2.544228470">
        <ele>409.30</ele>
        <time>2014-03-02T10:09:20Z</time>
      </trkpt>
      <trkpt lat="41.649061790" lon="2.544235000">
        <ele>409.30</ele>
        <time>2014-03-02T10:09:21Z</time>
      </trkpt>
      <trkpt lat="41.649046700" lon="2.544240030">
        <ele>409.10</ele>
        <time>2014-03-02T10:09:22Z</time>
      </trkpt>
      <trkpt lat="41.649031780" lon="2.544243390">
        <ele>409.00</ele>
        <time>2014-03-02T10:09:23Z</time>
      </trkpt>
      <trkpt lat="41.649016700" lon="2.544243390">
        <ele>408.70</ele>
        <time>2014-03-02T10:09:24Z</time>
      </trkpt>
      <trkpt lat="41.649001780" lon="2.544243390">
        <ele>408.40</ele>
        <time>2014-03-02T10:09:25Z</time>
      </trkpt>
      <trkpt lat="41.648986690" lon="2.544245060">
        <ele>408.70</ele>
        <time>2014-03-02T10:09:26Z</time>
      </trkpt>
      <trkpt lat="41.648973450" lon="2.544253440">
        <ele>409.00</ele>
        <time>2014-03-02T10:09:27Z</time>
      </trkpt>
      <trkpt lat="41.648965060" lon="2.544260150">
        <ele>409.20</ele>
        <time>2014-03-02T10:09:28Z</time>
      </trkpt>
      <trkpt lat="41.648958360" lon="2.544263340">
        <ele>409.10</ele>
        <time>2014-03-02T10:09:29Z</time>
      </trkpt>
      <trkpt lat="41.648950140" lon="2.544268360">
        <ele>409.10</ele>
        <time>2014-03-02T10:09:30Z</time>
      </trkpt>
      <trkpt lat="41.648940090" lon="2.544273390">
        <ele>408.80</ele>
        <time>2014-03-02T10:09:31Z</time>
      </trkpt>
      <trkpt lat="41.648933380" lon="2.544288480">
        <ele>408.60</ele>
        <time>2014-03-02T10:09:32Z</time>
      </trkpt>
      <trkpt lat="41.648933380" lon="2.544300050">
        <ele>408.10</ele>
        <time>2014-03-02T10:09:33Z</time>
      </trkpt>
      <trkpt lat="41.648933380" lon="2.544303400">
        <ele>407.70</ele>
        <time>2014-03-02T10:09:34Z</time>
      </trkpt>
      <trkpt lat="41.648936730" lon="2.544311780">
        <ele>407.40</ele>
        <time>2014-03-02T10:09:35Z</time>
      </trkpt>
      <trkpt lat="41.648941760" lon="2.544320000">
        <ele>407.50</ele>
        <time>2014-03-02T10:09:36Z</time>
      </trkpt>
      <trkpt lat="41.648948470" lon="2.544325030">
        <ele>407.60</ele>
        <time>2014-03-02T10:09:37Z</time>
      </trkpt>
      <trkpt lat="41.648950140" lon="2.544326700">
        <ele>407.50</ele>
        <time>2014-03-02T10:09:38Z</time>
      </trkpt>
      <trkpt lat="41.648951820" lon="2.544328380">
        <ele>407.40</ele>
        <time>2014-03-02T10:09:39Z</time>
      </trkpt>
      <trkpt lat="41.648951820" lon="2.544328380">
        <ele>407.40</ele>
        <time>2014-03-02T10:09:40Z</time>
      </trkpt>
      <trkpt lat="41.648955000" lon="2.544333410">
        <ele>407.60</ele>
        <time>2014-03-02T10:09:41Z</time>
      </trkpt>
      <trkpt lat="41.648958360" lon="2.544341790">
        <ele>407.80</ele>
        <time>2014-03-02T10:09:42Z</time>
      </trkpt>
      <trkpt lat="41.648963390" lon="2.544350000">
        <ele>407.70</ele>
        <time>2014-03-02T10:09:43Z</time>
      </trkpt>
      <trkpt lat="41.648966740" lon="2.544356710">
        <ele>407.60</ele>
        <time>2014-03-02T10:09:44Z</time>
      </trkpt>
      <trkpt lat="41.648968420" lon="2.544358390">
        <ele>407.70</ele>
        <time>2014-03-02T10:09:45Z</time>
      </trkpt>
      <trkpt lat="41.648970090" lon="2.544356710">
        <ele>407.90</ele>
        <time>2014-03-02T10:09:46Z</time>
      </trkpt>
      <trkpt lat="41.648970090" lon="2.544356710">
        <ele>407.90</ele>
        <time>2014-03-02T10:09:47Z</time>
      </trkpt>
      <trkpt lat="41.648971770" lon="2.544355030">
        <ele>407.90</ele>
        <time>2014-03-02T10:09:48Z</time>
      </trkpt>
      <trkpt lat="41.648971770" lon="2.544355030">
        <ele>407.90</ele>
        <time>2014-03-02T10:09:49Z</time>
      </trkpt>
      <trkpt lat="41.648971770" lon="2.544353360">
        <ele>407.90</ele>
        <time>2014-03-02T10:09:50Z</time>
      </trkpt>
      <trkpt lat="41.648971770" lon="2.544351680">
        <ele>407.90</ele>
        <time>2014-03-02T10:09:51Z</time>
      </trkpt>
      <trkpt lat="41.648971770" lon="2.544350000">
        <ele>408.10</ele>
        <time>2014-03-02T10:09:52Z</time>
      </trkpt>
      <trkpt lat="41.648971770" lon="2.544348500">
        <ele>408.10</ele>
        <time>2014-03-02T10:09:53Z</time>
      </trkpt>
      <trkpt lat="41.648970090" lon="2.544346820">
        <ele>408.20</ele>
        <time>2014-03-02T10:09:54Z</time>
      </trkpt>
      <trkpt lat="41.648970090" lon="2.544345140">
        <ele>408.10</ele>
        <time>2014-03-02T10:09:55Z</time>
      </trkpt>
      <trkpt lat="41.648968420" lon="2.544341790">
        <ele>408.10</ele>
        <time>2014-03-02T10:09:56Z</time>
      </trkpt>
      <trkpt lat="41.648968420" lon="2.544340110">
        <ele>407.90</ele>
        <time>2014-03-02T10:09:57Z</time>
      </trkpt>
      <trkpt lat="41.648968420" lon="2.544338440">
        <ele>407.70</ele>
        <time>2014-03-02T10:09:58Z</time>
      </trkpt>
      <trkpt lat="41.648968420" lon="2.544336760">
        <ele>407.60</ele>
        <time>2014-03-02T10:09:59Z</time>
      </trkpt>
      <trkpt lat="41.648966740" lon="2.544335080">
        <ele>407.40</ele>
        <time>2014-03-02T10:10:00Z</time>
      </trkpt>
      <trkpt lat="41.648966740" lon="2.544333410">
        <ele>407.20</ele>
        <time>2014-03-02T10:10:01Z</time>
      </trkpt>
      <trkpt lat="41.648966740" lon="2.544330060">
        <ele>407.30</ele>
        <time>2014-03-02T10:10:02Z</time>
      </trkpt>
      <trkpt lat="41.648965060" lon="2.544328380">
        <ele>407.40</ele>
        <time>2014-03-02T10:10:03Z</time>
      </trkpt>
      <trkpt lat="41.648965060" lon="2.544326700">
        <ele>407.10</ele>
        <time>2014-03-02T10:10:04Z</time>
      </trkpt>
      <trkpt lat="41.648963390" lon="2.544323350">
        <ele>406.80</ele>
        <time>2014-03-02T10:10:05Z</time>
      </trkpt>
      <trkpt lat="41.648961710" lon="2.544321670">
        <ele>406.60</ele>
        <time>2014-03-02T10:10:06Z</time>
      </trkpt>
      <trkpt lat="41.648961710" lon="2.544320000">
        <ele>407.00</ele>
        <time>2014-03-02T10:10:07Z</time>
      </trkpt>
      <trkpt lat="41.648960030" lon="2.544316810">
        <ele>407.30</ele>
        <time>2014-03-02T10:10:08Z</time>
      </trkpt>
      <trkpt lat="41.648958360" lon="2.544315140">
        <ele>407.30</ele>
        <time>2014-03-02T10:10:09Z</time>
      </trkpt>
      <trkpt lat="41.648956680" lon="2.544313460">
        <ele>407.30</ele>
        <time>2014-03-02T10:10:10Z</time>
      </trkpt>
      <trkpt lat="41.648955000" lon="2.544310110">
        <ele>407.40</ele>
        <time>2014-03-02T10:10:11Z</time>
      </trkpt>
      <trkpt lat="41.648953330" lon="2.544308430">
        <ele>407.50</ele>
        <time>2014-03-02T10:10:12Z</time>
      </trkpt>
      <trkpt lat="41.648953330" lon="2.544305080">
        <ele>407.50</ele>
        <time>2014-03-02T10:10:13Z</time>
      </trkpt>
      <trkpt lat="41.648951820" lon="2.544303400">
        <ele>407.60</ele>
        <time>2014-03-02T10:10:14Z</time>
      </trkpt>
      <trkpt lat="41.648950140" lon="2.544301720">
        <ele>407.70</ele>
        <time>2014-03-02T10:10:15Z</time>
      </trkpt>
      <trkpt lat="41.648948470" lon="2.544300050">
        <ele>407.50</ele>
        <time>2014-03-02T10:10:16Z</time>
      </trkpt>
      <trkpt lat="41.648946790" lon="2.544296700">
        <ele>407.30</ele>
        <time>2014-03-02T10:10:17Z</time>
      </trkpt>
      <trkpt lat="41.648945110" lon="2.544295020">
        <ele>407.30</ele>
        <time>2014-03-02T10:10:18Z</time>
      </trkpt>
      <trkpt lat="41.648941760" lon="2.544291670">
        <ele>407.20</ele>
        <time>2014-03-02T10:10:19Z</time>
      </trkpt>
      <trkpt lat="41.648940090" lon="2.544288480">
        <ele>407.20</ele>
        <time>2014-03-02T10:10:20Z</time>
      </trkpt>
      <trkpt lat="41.648936730" lon="2.544285130">
        <ele>407.40</ele>
        <time>2014-03-02T10:10:21Z</time>
      </trkpt>
      <trkpt lat="41.648935060" lon="2.544281780">
        <ele>407.60</ele>
        <time>2014-03-02T10:10:22Z</time>
      </trkpt>
      <trkpt lat="41.648931700" lon="2.544276750">
        <ele>407.50</ele>
        <time>2014-03-02T10:10:23Z</time>
      </trkpt>
      <trkpt lat="41.648930030" lon="2.544275070">
        <ele>407.40</ele>
        <time>2014-03-02T10:10:24Z</time>
      </trkpt>
      <trkpt lat="41.648926670" lon="2.544270040">
        <ele>407.30</ele>
        <time>2014-03-02T10:10:25Z</time>
      </trkpt>
      <trkpt lat="41.648925000" lon="2.544268360">
        <ele>407.50</ele>
        <time>2014-03-02T10:10:26Z</time>
      </trkpt>
      <trkpt lat="41.648923490" lon="2.544266690">
        <ele>407.60</ele>
        <time>2014-03-02T10:10:27Z</time>
      </trkpt>
      <trkpt lat="41.648920140" lon="2.544265010">
        <ele>407.30</ele>
        <time>2014-03-02T10:10:28Z</time>
      </trkpt>
      <trkpt lat="41.648918460" lon="2.544263340">
        <ele>407.10</ele>
        <time>2014-03-02T10:10:29Z</time>
      </trkpt>
      <trkpt lat="41.648916780" lon="2.544260150">
        <ele>407.10</ele>
        <time>2014-03-02T10:10:30Z</time>
      </trkpt>
      <trkpt lat="41.648915110" lon="2.544258470">
        <ele>407.10</ele>
        <time>2014-03-02T10:10:31Z</time>
      </trkpt>
      <trkpt lat="41.648915110" lon="2.544258470">
        <ele>407.10</ele>
        <time>2014-03-02T10:10:32Z</time>
      </trkpt>
      <trkpt lat="41.648913430" lon="2.544256800">
        <ele>407.00</ele>
        <time>2014-03-02T10:10:33Z</time>
      </trkpt>
      <trkpt lat="41.648913430" lon="2.544255120">
        <ele>407.00</ele>
        <time>2014-03-02T10:10:34Z</time>
      </trkpt>
      <trkpt lat="41.648911750" lon="2.544253440">
        <ele>407.20</ele>
        <time>2014-03-02T10:10:35Z</time>
      </trkpt>
      <trkpt lat="41.648911750" lon="2.544251770">
        <ele>407.40</ele>
        <time>2014-03-02T10:10:36Z</time>
      </trkpt>
      <trkpt lat="41.648911750" lon="2.544250090">
        <ele>407.50</ele>
        <time>2014-03-02T10:10:37Z</time>
      </trkpt>
      <trkpt lat="41.648911750" lon="2.544250090">
        <ele>406.90</ele>
        <time>2014-03-02T10:10:38Z</time>
      </trkpt>
      <trkpt lat="41.648910080" lon="2.544248420">
        <ele>406.50</ele>
        <time>2014-03-02T10:10:39Z</time>
      </trkpt>
      <trkpt lat="41.648910080" lon="2.544246740">
        <ele>407.20</ele>
        <time>2014-03-02T10:10:40Z</time>
      </trkpt>
      <trkpt lat="41.648910080" lon="2.544246740">
        <ele>407.70</ele>
        <time>2014-03-02T10:10:41Z</time>
      </trkpt>
      <trkpt lat="41.648910080" lon="2.544245060">
        <ele>407.60</ele>
        <time>2014-03-02T10:10:42Z</time>
      </trkpt>
      <trkpt lat="41.648910080" lon="2.544245060">
        <ele>407.50</ele>
        <time>2014-03-02T10:10:43Z</time>
      </trkpt>
      <trkpt lat="41.648908400" lon="2.544243390">
        <ele>407.50</ele>
        <time>2014-03-02T10:10:44Z</time>
      </trkpt>
      <trkpt lat="41.648908400" lon="2.544241710">
        <ele>407.30</ele>
        <time>2014-03-02T10:10:45Z</time>
      </trkpt>
      <trkpt lat="41.648906730" lon="2.544240030">
        <ele>407.10</ele>
        <time>2014-03-02T10:10:46Z</time>
      </trkpt>
      <trkpt lat="41.648906730" lon="2.544240030">
        <ele>407.20</ele>
        <time>2014-03-02T10:10:47Z</time>
      </trkpt>
      <trkpt lat="41.648906730" lon="2.544238360">
        <ele>407.30</ele>
        <time>2014-03-02T10:10:48Z</time>
      </trkpt>
      <trkpt lat="41.648906730" lon="2.544238360">
        <ele>407.30</ele>
        <time>2014-03-02T10:10:49Z</time>
      </trkpt>
      <trkpt lat="41.648906730" lon="2.544238360">
        <ele>407.20</ele>
        <time>2014-03-02T10:10:50Z</time>
      </trkpt>
      <trkpt lat="41.648906730" lon="2.544236680">
        <ele>407.20</ele>
        <time>2014-03-02T10:10:51Z</time>
      </trkpt>
      <trkpt lat="41.648906730" lon="2.544236680">
        <ele>407.00</ele>
        <time>2014-03-02T10:10:52Z</time>
      </trkpt>
      <trkpt lat="41.648908400" lon="2.544236680">
        <ele>406.80</ele>
        <time>2014-03-02T10:10:53Z</time>
      </trkpt>
      <trkpt lat="41.648908400" lon="2.544236680">
        <ele>406.90</ele>
        <time>2014-03-02T10:10:54Z</time>
      </trkpt>
      <trkpt lat="41.648908400" lon="2.544236680">
        <ele>407.00</ele>
        <time>2014-03-02T10:10:55Z</time>
      </trkpt>
      <trkpt lat="41.648910080" lon="2.544238360">
        <ele>407.00</ele>
        <time>2014-03-02T10:10:56Z</time>
      </trkpt>
      <trkpt lat="41.648910080" lon="2.544238360">
        <ele>407.40</ele>
        <time>2014-03-02T10:10:57Z</time>
      </trkpt>
      <trkpt lat="41.648911750" lon="2.544238360">
        <ele>407.70</ele>
        <time>2014-03-02T10:10:58Z</time>
      </trkpt>
      <trkpt lat="41.648913430" lon="2.544240030">
        <ele>408.00</ele>
        <time>2014-03-02T10:10:59Z</time>
      </trkpt>
      <trkpt lat="41.648913430" lon="2.544241710">
        <ele>408.20</ele>
        <time>2014-03-02T10:11:00Z</time>
      </trkpt>
      <trkpt lat="41.648915110" lon="2.544243390">
        <ele>407.70</ele>
        <time>2014-03-02T10:11:01Z</time>
      </trkpt>
      <trkpt lat="41.648915110" lon="2.544245060">
        <ele>407.40</ele>
        <time>2014-03-02T10:11:02Z</time>
      </trkpt>
      <trkpt lat="41.648916780" lon="2.544246740">
        <ele>407.20</ele>
        <time>2014-03-02T10:11:03Z</time>
      </trkpt>
      <trkpt lat="41.648918460" lon="2.544246740">
        <ele>407.30</ele>
        <time>2014-03-02T10:11:04Z</time>
      </trkpt>
      <trkpt lat="41.648918460" lon="2.544248420">
        <ele>407.40</ele>
        <time>2014-03-02T10:11:05Z</time>
      </trkpt>
      <trkpt lat="41.648920140" lon="2.544248420">
        <ele>407.60</ele>
        <time>2014-03-02T10:11:06Z</time>
      </trkpt>
      <trkpt lat="41.648921810" lon="2.544250090">
        <ele>407.80</ele>
        <time>2014-03-02T10:11:07Z</time>
      </trkpt>
      <trkpt lat="41.648921810" lon="2.544251770">
        <ele>407.70</ele>
        <time>2014-03-02T10:11:08Z</time>
      </trkpt>
      <trkpt lat="41.648923490" lon="2.544253440">
        <ele>407.60</ele>
        <time>2014-03-02T10:11:09Z</time>
      </trkpt>
      <trkpt lat="41.648923490" lon="2.544253440">
        <ele>407.60</ele>
        <time>2014-03-02T10:11:10Z</time>
      </trkpt>
      <trkpt lat="41.648925000" lon="2.544255120">
        <ele>407.70</ele>
        <time>2014-03-02T10:11:11Z</time>
      </trkpt>
      <trkpt lat="41.648926670" lon="2.544256800">
        <ele>407.80</ele>
        <time>2014-03-02T10:11:12Z</time>
      </trkpt>
      <trkpt lat="41.648926670" lon="2.544256800">
        <ele>407.70</ele>
        <time>2014-03-02T10:11:13Z</time>
      </trkpt>
      <trkpt lat="41.648928350" lon="2.544258470">
        <ele>407.50</ele>
        <time>2014-03-02T10:11:14Z</time>
      </trkpt>
      <trkpt lat="41.648928350" lon="2.544260150">
        <ele>407.50</ele>
        <time>2014-03-02T10:11:15Z</time>
      </trkpt>
      <trkpt lat="41.648930030" lon="2.544261830">
        <ele>407.40</ele>
        <time>2014-03-02T10:11:16Z</time>
      </trkpt>
      <trkpt lat="41.648930030" lon="2.544263340">
        <ele>407.40</ele>
        <time>2014-03-02T10:11:17Z</time>
      </trkpt>
      <trkpt lat="41.648931700" lon="2.544265010">
        <ele>407.50</ele>
        <time>2014-03-02T10:11:18Z</time>
      </trkpt>
      <trkpt lat="41.648933380" lon="2.544265010">
        <ele>407.70</ele>
        <time>2014-03-02T10:11:19Z</time>
      </trkpt>
      <trkpt lat="41.648935060" lon="2.544266690">
        <ele>407.30</ele>
        <time>2014-03-02T10:11:20Z</time>
      </trkpt>
      <trkpt lat="41.648935060" lon="2.544268360">
        <ele>407.00</ele>
        <time>2014-03-02T10:11:21Z</time>
      </trkpt>
      <trkpt lat="41.648936730" lon="2.544268360">
        <ele>406.70</ele>
        <time>2014-03-02T10:11:22Z</time>
      </trkpt>
      <trkpt lat="41.648936730" lon="2.544270040">
        <ele>407.20</ele>
        <time>2014-03-02T10:11:23Z</time>
      </trkpt>
      <trkpt lat="41.648936730" lon="2.544271720">
        <ele>407.50</ele>
        <time>2014-03-02T10:11:24Z</time>
      </trkpt>
      <trkpt lat="41.648933380" lon="2.544273390">
        <ele>407.70</ele>
        <time>2014-03-02T10:11:25Z</time>
      </trkpt>
      <trkpt lat="41.648930030" lon="2.544273390">
        <ele>407.90</ele>
        <time>2014-03-02T10:11:26Z</time>
      </trkpt>
      <trkpt lat="41.648925000" lon="2.544275070">
        <ele>407.90</ele>
        <time>2014-03-02T10:11:27Z</time>
      </trkpt>
      <trkpt lat="41.648923490" lon="2.544278420">
        <ele>407.90</ele>
        <time>2014-03-02T10:11:28Z</time>
      </trkpt>
      <trkpt lat="41.648920140" lon="2.544288480">
        <ele>407.90</ele>
        <time>2014-03-02T10:11:29Z</time>
      </trkpt>
      <trkpt lat="41.648920140" lon="2.544290160">
        <ele>408.10</ele>
        <time>2014-03-02T10:11:30Z</time>
      </trkpt>
      <trkpt lat="41.648920140" lon="2.544290160">
        <ele>408.30</ele>
        <time>2014-03-02T10:11:31Z</time>
      </trkpt>
      <trkpt lat="41.648920140" lon="2.544291670">
        <ele>408.50</ele>
        <time>2014-03-02T10:11:32Z</time>
      </trkpt>
      <trkpt lat="41.648918460" lon="2.544291670">
        <ele>408.70</ele>
        <time>2014-03-02T10:11:33Z</time>
      </trkpt>
      <trkpt lat="41.648918460" lon="2.544293340">
        <ele>408.60</ele>
        <time>2014-03-02T10:11:34Z</time>
      </trkpt>
      <trkpt lat="41.648918460" lon="2.544293340">
        <ele>408.60</ele>
        <time>2014-03-02T10:11:35Z</time>
      </trkpt>
      <trkpt lat="41.648918460" lon="2.544295020">
        <ele>408.50</ele>
        <time>2014-03-02T10:11:36Z</time>
      </trkpt>
      <trkpt lat="41.648918460" lon="2.544295020">
        <ele>408.60</ele>
        <time>2014-03-02T10:11:37Z</time>
      </trkpt>
      <trkpt lat="41.648918460" lon="2.544296700">
        <ele>408.60</ele>
        <time>2014-03-02T10:11:38Z</time>
      </trkpt>
      <trkpt lat="41.648918460" lon="2.544296700">
        <ele>408.40</ele>
        <time>2014-03-02T10:11:39Z</time>
      </trkpt>
      <trkpt lat="41.648918460" lon="2.544298370">
        <ele>408.30</ele>
        <time>2014-03-02T10:11:40Z</time>
      </trkpt>
      <trkpt lat="41.648920140" lon="2.544298370">
        <ele>408.30</ele>
        <time>2014-03-02T10:11:41Z</time>
      </trkpt>
      <trkpt lat="41.648920140" lon="2.544300050">
        <ele>408.20</ele>
        <time>2014-03-02T10:11:42Z</time>
      </trkpt>
      <trkpt lat="41.648920140" lon="2.544300050">
        <ele>408.10</ele>
        <time>2014-03-02T10:11:43Z</time>
      </trkpt>
      <trkpt lat="41.648920140" lon="2.544300050">
        <ele>408.10</ele>
        <time>2014-03-02T10:11:44Z</time>
      </trkpt>
      <trkpt lat="41.648921810" lon="2.544301720">
        <ele>408.00</ele>
        <time>2014-03-02T10:11:45Z</time>
      </trkpt>
      <trkpt lat="41.648921810" lon="2.544301720">
        <ele>408.40</ele>
        <time>2014-03-02T10:11:46Z</time>
      </trkpt>
      <trkpt lat="41.648921810" lon="2.544303400">
        <ele>408.60</ele>
        <time>2014-03-02T10:11:47Z</time>
      </trkpt>
      <trkpt lat="41.648923490" lon="2.544303400">
        <ele>408.80</ele>
        <time>2014-03-02T10:11:48Z</time>
      </trkpt>
      <trkpt lat="41.648923490" lon="2.544303400">
        <ele>408.80</ele>
        <time>2014-03-02T10:11:49Z</time>
      </trkpt>
      <trkpt lat="41.648925000" lon="2.544305080">
        <ele>408.90</ele>
        <time>2014-03-02T10:11:50Z</time>
      </trkpt>
      <trkpt lat="41.648925000" lon="2.544305080">
        <ele>408.60</ele>
        <time>2014-03-02T10:11:51Z</time>
      </trkpt>
      <trkpt lat="41.648925000" lon="2.544305080">
        <ele>408.40</ele>
        <time>2014-03-02T10:11:52Z</time>
      </trkpt>
      <trkpt lat="41.648926670" lon="2.544306750">
        <ele>408.60</ele>
        <time>2014-03-02T10:11:53Z</time>
      </trkpt>
      <trkpt lat="41.648926670" lon="2.544306750">
        <ele>408.80</ele>
        <time>2014-03-02T10:11:54Z</time>
      </trkpt>
      <trkpt lat="41.648928350" lon="2.544306750">
        <ele>408.90</ele>
        <time>2014-03-02T10:11:55Z</time>
      </trkpt>
      <trkpt lat="41.648928350" lon="2.544306750">
        <ele>408.80</ele>
        <time>2014-03-02T10:11:56Z</time>
      </trkpt>
      <trkpt lat="41.648930030" lon="2.544308430">
        <ele>408.80</ele>
        <time>2014-03-02T10:11:57Z</time>
      </trkpt>
      <trkpt lat="41.648930030" lon="2.544308430">
        <ele>408.90</ele>
        <time>2014-03-02T10:11:58Z</time>
      </trkpt>
      <trkpt lat="41.648931700" lon="2.544308430">
        <ele>408.90</ele>
        <time>2014-03-02T10:11:59Z</time>
      </trkpt>
      <trkpt lat="41.648931700" lon="2.544308430">
        <ele>408.90</ele>
        <time>2014-03-02T10:12:00Z</time>
      </trkpt>
      <trkpt lat="41.648933380" lon="2.544310110">
        <ele>408.90</ele>
        <time>2014-03-02T10:12:01Z</time>
      </trkpt>
      <trkpt lat="41.648933380" lon="2.544310110">
        <ele>408.90</ele>
        <time>2014-03-02T10:12:02Z</time>
      </trkpt>
      <trkpt lat="41.648935060" lon="2.544310110">
        <ele>409.00</ele>
        <time>2014-03-02T10:12:03Z</time>
      </trkpt>
      <trkpt lat="41.648935060" lon="2.544310110">
        <ele>409.10</ele>
        <time>2014-03-02T10:12:04Z</time>
      </trkpt>
      <trkpt lat="41.648936730" lon="2.544310110">
        <ele>409.20</ele>
        <time>2014-03-02T10:12:05Z</time>
      </trkpt>
      <trkpt lat="41.648936730" lon="2.544310110">
        <ele>409.20</ele>
        <time>2014-03-02T10:12:06Z</time>
      </trkpt>
      <trkpt lat="41.648938410" lon="2.544310110">
        <ele>409.20</ele>
        <time>2014-03-02T10:12:07Z</time>
      </trkpt>
      <trkpt lat="41.648940090" lon="2.544311780">
        <ele>408.80</ele>
        <time>2014-03-02T10:12:08Z</time>
      </trkpt>
      <trkpt lat="41.648940090" lon="2.544311780">
        <ele>408.50</ele>
        <time>2014-03-02T10:12:09Z</time>
      </trkpt>
      <trkpt lat="41.648941760" lon="2.544311780">
        <ele>408.60</ele>
        <time>2014-03-02T10:12:10Z</time>
      </trkpt>
      <trkpt lat="41.648941760" lon="2.544311780">
        <ele>408.60</ele>
        <time>2014-03-02T10:12:11Z</time>
      </trkpt>
      <trkpt lat="41.648943440" lon="2.544311780">
        <ele>408.60</ele>
        <time>2014-03-02T10:12:12Z</time>
      </trkpt>
      <trkpt lat="41.648943440" lon="2.544311780">
        <ele>408.60</ele>
        <time>2014-03-02T10:12:13Z</time>
      </trkpt>
      <trkpt lat="41.648945110" lon="2.544311780">
        <ele>408.60</ele>
        <time>2014-03-02T10:12:14Z</time>
      </trkpt>
      <trkpt lat="41.648945110" lon="2.544311780">
        <ele>408.60</ele>
        <time>2014-03-02T10:12:15Z</time>
      </trkpt>
      <trkpt lat="41.648945110" lon="2.544311780">
        <ele>408.60</ele>
        <time>2014-03-02T10:12:16Z</time>
      </trkpt>
      <trkpt lat="41.648946790" lon="2.544311780">
        <ele>408.80</ele>
        <time>2014-03-02T10:12:17Z</time>
      </trkpt>
      <trkpt lat="41.648946790" lon="2.544311780">
        <ele>409.00</ele>
        <time>2014-03-02T10:12:18Z</time>
      </trkpt>
      <trkpt lat="41.648948470" lon="2.544311780">
        <ele>409.10</ele>
        <time>2014-03-02T10:12:19Z</time>
      </trkpt>
      <trkpt lat="41.648950140" lon="2.544311780">
        <ele>408.90</ele>
        <time>2014-03-02T10:12:20Z</time>
      </trkpt>
      <trkpt lat="41.648950140" lon="2.544311780">
        <ele>408.70</ele>
        <time>2014-03-02T10:12:21Z</time>
      </trkpt>
      <trkpt lat="41.648950140" lon="2.544311780">
        <ele>408.90</ele>
        <time>2014-03-02T10:12:22Z</time>
      </trkpt>
      <trkpt lat="41.648951820" lon="2.544311780">
        <ele>409.10</ele>
        <time>2014-03-02T10:12:23Z</time>
      </trkpt>
      <trkpt lat="41.648951820" lon="2.544311780">
        <ele>408.90</ele>
        <time>2014-03-02T10:12:24Z</time>
      </trkpt>
      <trkpt lat="41.648953330" lon="2.544311780">
        <ele>408.80</ele>
        <time>2014-03-02T10:12:25Z</time>
      </trkpt>
      <trkpt lat="41.648953330" lon="2.544311780">
        <ele>408.70</ele>
        <time>2014-03-02T10:12:26Z</time>
      </trkpt>
      <trkpt lat="41.648955000" lon="2.544311780">
        <ele>408.80</ele>
        <time>2014-03-02T10:12:27Z</time>
      </trkpt>
      <trkpt lat="41.648955000" lon="2.544311780">
        <ele>409.00</ele>
        <time>2014-03-02T10:12:28Z</time>
      </trkpt>
      <trkpt lat="41.648956680" lon="2.544311780">
        <ele>409.20</ele>
        <time>2014-03-02T10:12:29Z</time>
      </trkpt>
      <trkpt lat="41.648956680" lon="2.544311780">
        <ele>409.40</ele>
        <time>2014-03-02T10:12:30Z</time>
      </trkpt>
      <trkpt lat="41.648956680" lon="2.544311780">
        <ele>409.60</ele>
        <time>2014-03-02T10:12:31Z</time>
      </trkpt>
      <trkpt lat="41.648958360" lon="2.544311780">
        <ele>409.80</ele>
        <time>2014-03-02T10:12:32Z</time>
      </trkpt>
      <trkpt lat="41.648958360" lon="2.544311780">
        <ele>410.00</ele>
        <time>2014-03-02T10:12:33Z</time>
      </trkpt>
      <trkpt lat="41.648960030" lon="2.544311780">
        <ele>409.80</ele>
        <time>2014-03-02T10:12:34Z</time>
      </trkpt>
      <trkpt lat="41.648961710" lon="2.544311780">
        <ele>409.70</ele>
        <time>2014-03-02T10:12:35Z</time>
      </trkpt>
      <trkpt lat="41.648961710" lon="2.544313460">
        <ele>409.50</ele>
        <time>2014-03-02T10:12:36Z</time>
      </trkpt>
      <trkpt lat="41.648963390" lon="2.544313460">
        <ele>409.40</ele>
        <time>2014-03-02T10:12:37Z</time>
      </trkpt>
      <trkpt lat="41.648963390" lon="2.544313460">
        <ele>409.30</ele>
        <time>2014-03-02T10:12:38Z</time>
      </trkpt>
      <trkpt lat="41.648965060" lon="2.544313460">
        <ele>409.30</ele>
        <time>2014-03-02T10:12:39Z</time>
      </trkpt>
      <trkpt lat="41.648965060" lon="2.544313460">
        <ele>409.30</ele>
        <time>2014-03-02T10:12:40Z</time>
      </trkpt>
      <trkpt lat="41.648966740" lon="2.544315140">
        <ele>409.60</ele>
        <time>2014-03-02T10:12:41Z</time>
      </trkpt>
      <trkpt lat="41.648968420" lon="2.544315140">
        <ele>409.80</ele>
        <time>2014-03-02T10:12:42Z</time>
      </trkpt>
      <trkpt lat="41.648968420" lon="2.544315140">
        <ele>409.60</ele>
        <time>2014-03-02T10:12:43Z</time>
      </trkpt>
      <trkpt lat="41.648970090" lon="2.544315140">
        <ele>409.40</ele>
        <time>2014-03-02T10:12:44Z</time>
      </trkpt>
      <trkpt lat="41.648970090" lon="2.544316810">
        <ele>409.30</ele>
        <time>2014-03-02T10:12:45Z</time>
      </trkpt>
      <trkpt lat="41.648971770" lon="2.544316810">
        <ele>409.40</ele>
        <time>2014-03-02T10:12:46Z</time>
      </trkpt>
      <trkpt lat="41.648971770" lon="2.544316810">
        <ele>409.40</ele>
        <time>2014-03-02T10:12:47Z</time>
      </trkpt>
      <trkpt lat="41.648973450" lon="2.544316810">
        <ele>409.40</ele>
        <time>2014-03-02T10:12:48Z</time>
      </trkpt>
      <trkpt lat="41.648973450" lon="2.544316810">
        <ele>409.40</ele>
        <time>2014-03-02T10:12:49Z</time>
      </trkpt>
      <trkpt lat="41.648975120" lon="2.544318490">
        <ele>409.10</ele>
        <time>2014-03-02T10:12:50Z</time>
      </trkpt>
      <trkpt lat="41.648975120" lon="2.544318490">
        <ele>408.80</ele>
        <time>2014-03-02T10:12:51Z</time>
      </trkpt>
      <trkpt lat="41.648976800" lon="2.544318490">
        <ele>408.60</ele>
        <time>2014-03-02T10:12:52Z</time>
      </trkpt>
      <trkpt lat="41.648976800" lon="2.544318490">
        <ele>408.50</ele>
        <time>2014-03-02T10:12:53Z</time>
      </trkpt>
      <trkpt lat="41.648976800" lon="2.544318490">
        <ele>408.40</ele>
        <time>2014-03-02T10:12:54Z</time>
      </trkpt>
      <trkpt lat="41.648978470" lon="2.544320000">
        <ele>408.60</ele>
        <time>2014-03-02T10:12:55Z</time>
      </trkpt>
      <trkpt lat="41.648978470" lon="2.544320000">
        <ele>408.80</ele>
        <time>2014-03-02T10:12:56Z</time>
      </trkpt>
      <trkpt lat="41.648980150" lon="2.544320000">
        <ele>408.90</ele>
        <time>2014-03-02T10:12:57Z</time>
      </trkpt>
      <trkpt lat="41.648980150" lon="2.544320000">
        <ele>408.80</ele>
        <time>2014-03-02T10:12:58Z</time>
      </trkpt>
      <trkpt lat="41.648980150" lon="2.544320000">
        <ele>408.70</ele>
        <time>2014-03-02T10:12:59Z</time>
      </trkpt>
      <trkpt lat="41.648981830" lon="2.544320000">
        <ele>408.70</ele>
        <time>2014-03-02T10:13:00Z</time>
      </trkpt>
      <trkpt lat="41.648981830" lon="2.544320000">
        <ele>408.70</ele>
        <time>2014-03-02T10:13:01Z</time>
      </trkpt>
      <trkpt lat="41.648981830" lon="2.544320000">
        <ele>408.90</ele>
        <time>2014-03-02T10:13:02Z</time>
      </trkpt>
      <trkpt lat="41.648983340" lon="2.544320000">
        <ele>409.10</ele>
        <time>2014-03-02T10:13:03Z</time>
      </trkpt>
      <trkpt lat="41.648983340" lon="2.544320000">
        <ele>409.20</ele>
        <time>2014-03-02T10:13:04Z</time>
      </trkpt>
      <trkpt lat="41.648983340" lon="2.544320000">
        <ele>409.00</ele>
        <time>2014-03-02T10:13:05Z</time>
      </trkpt>
      <trkpt lat="41.648983340" lon="2.544320000">
        <ele>408.90</ele>
        <time>2014-03-02T10:13:06Z</time>
      </trkpt>
      <trkpt lat="41.648983340" lon="2.544320000">
        <ele>408.60</ele>
        <time>2014-03-02T10:13:07Z</time>
      </trkpt>
      <trkpt lat="41.648985010" lon="2.544320000">
        <ele>408.50</ele>
        <time>2014-03-02T10:13:08Z</time>
      </trkpt>
      <trkpt lat="41.648985010" lon="2.544320000">
        <ele>408.50</ele>
        <time>2014-03-02T10:13:09Z</time>
      </trkpt>
      <trkpt lat="41.648985010" lon="2.544320000">
        <ele>408.50</ele>
        <time>2014-03-02T10:13:10Z</time>
      </trkpt>
      <trkpt lat="41.648985010" lon="2.544320000">
        <ele>408.40</ele>
        <time>2014-03-02T10:13:11Z</time>
      </trkpt>
      <trkpt lat="41.648985010" lon="2.544320000">
        <ele>408.70</ele>
        <time>2014-03-02T10:13:12Z</time>
      </trkpt>
      <trkpt lat="41.648985010" lon="2.544320000">
        <ele>408.90</ele>
        <time>2014-03-02T10:13:13Z</time>
      </trkpt>
      <trkpt lat="41.648985010" lon="2.544320000">
        <ele>408.80</ele>
        <time>2014-03-02T10:13:14Z</time>
      </trkpt>
      <trkpt lat="41.648986690" lon="2.544320000">
        <ele>408.70</ele>
        <time>2014-03-02T10:13:15Z</time>
      </trkpt>
      <trkpt lat="41.648986690" lon="2.544318490">
        <ele>408.60</ele>
        <time>2014-03-02T10:13:16Z</time>
      </trkpt>
      <trkpt lat="41.648986690" lon="2.544318490">
        <ele>408.80</ele>
        <time>2014-03-02T10:13:17Z</time>
      </trkpt>
      <trkpt lat="41.648986690" lon="2.544318490">
        <ele>408.90</ele>
        <time>2014-03-02T10:13:18Z</time>
      </trkpt>
      <trkpt lat="41.648986690" lon="2.544318490">
        <ele>408.70</ele>
        <time>2014-03-02T10:13:19Z</time>
      </trkpt>
      <trkpt lat="41.648986690" lon="2.544318490">
        <ele>408.50</ele>
        <time>2014-03-02T10:13:20Z</time>
      </trkpt>
      <trkpt lat="41.648986690" lon="2.544318490">
        <ele>408.60</ele>
        <time>2014-03-02T10:13:21Z</time>
      </trkpt>
      <trkpt lat="41.648988360" lon="2.544318490">
        <ele>408.80</ele>
        <time>2014-03-02T10:13:22Z</time>
      </trkpt>
      <trkpt lat="41.648988360" lon="2.544318490">
        <ele>408.90</ele>
        <time>2014-03-02T10:13:23Z</time>
      </trkpt>
      <trkpt lat="41.648988360" lon="2.544318490">
        <ele>408.80</ele>
        <time>2014-03-02T10:13:24Z</time>
      </trkpt>
      <trkpt lat="41.648988360" lon="2.544318490">
        <ele>408.80</ele>
        <time>2014-03-02T10:13:25Z</time>
      </trkpt>
      <trkpt lat="41.648988360" lon="2.544318490">
        <ele>408.90</ele>
        <time>2014-03-02T10:13:26Z</time>
      </trkpt>
      <trkpt lat="41.648988360" lon="2.544318490">
        <ele>409.00</ele>
        <time>2014-03-02T10:13:27Z</time>
      </trkpt>
      <trkpt lat="41.648988360" lon="2.544318490">
        <ele>409.10</ele>
        <time>2014-03-02T10:13:28Z</time>
      </trkpt>
      <trkpt lat="41.648988360" lon="2.544318490">
        <ele>409.30</ele>
        <time>2014-03-02T10:13:29Z</time>
      </trkpt>
      <trkpt lat="41.648988360" lon="2.544318490">
        <ele>409.40</ele>
        <time>2014-03-02T10:13:30Z</time>
      </trkpt>
      <trkpt lat="41.648988360" lon="2.544318490">
        <ele>409.00</ele>
        <time>2014-03-02T10:13:31Z</time>
      </trkpt>
      <trkpt lat="41.648988360" lon="2.544318490">
        <ele>408.70</ele>
        <time>2014-03-02T10:13:32Z</time>
      </trkpt>
      <trkpt lat="41.648988360" lon="2.544318490">
        <ele>409.00</ele>
        <time>2014-03-02T10:13:33Z</time>
      </trkpt>
      <trkpt lat="41.648988360" lon="2.544318490">
        <ele>409.20</ele>
        <time>2014-03-02T10:13:34Z</time>
      </trkpt>
      <trkpt lat="41.648988360" lon="2.544318490">
        <ele>409.40</ele>
        <time>2014-03-02T10:13:35Z</time>
      </trkpt>
      <trkpt lat="41.648990040" lon="2.544318490">
        <ele>409.50</ele>
        <time>2014-03-02T10:13:36Z</time>
      </trkpt>
      <trkpt lat="41.648990040" lon="2.544318490">
        <ele>409.50</ele>
        <time>2014-03-02T10:13:37Z</time>
      </trkpt>
      <trkpt lat="41.648990040" lon="2.544318490">
        <ele>409.30</ele>
        <time>2014-03-02T10:13:38Z</time>
      </trkpt>
      <trkpt lat="41.648990040" lon="2.544318490">
        <ele>409.20</ele>
        <time>2014-03-02T10:13:39Z</time>
      </trkpt>
      <trkpt lat="41.648990040" lon="2.544318490">
        <ele>409.10</ele>
        <time>2014-03-02T10:13:40Z</time>
      </trkpt>
      <trkpt lat="41.648990040" lon="2.544318490">
        <ele>409.10</ele>
        <time>2014-03-02T10:13:41Z</time>
      </trkpt>
      <trkpt lat="41.648990040" lon="2.544318490">
        <ele>409.10</ele>
        <time>2014-03-02T10:13:42Z</time>
      </trkpt>
      <trkpt lat="41.648990040" lon="2.544318490">
        <ele>408.60</ele>
        <time>2014-03-02T10:13:43Z</time>
      </trkpt>
      <trkpt lat="41.648990040" lon="2.544318490">
        <ele>408.30</ele>
        <time>2014-03-02T10:13:44Z</time>
      </trkpt>
      <trkpt lat="41.648990040" lon="2.544318490">
        <ele>408.40</ele>
        <time>2014-03-02T10:13:45Z</time>
      </trkpt>
      <trkpt lat="41.648990040" lon="2.544318490">
        <ele>408.50</ele>
        <time>2014-03-02T10:13:46Z</time>
      </trkpt>
      <trkpt lat="41.648990040" lon="2.544318490">
        <ele>408.70</ele>
        <time>2014-03-02T10:13:47Z</time>
      </trkpt>
      <trkpt lat="41.648990040" lon="2.544318490">
        <ele>408.80</ele>
        <time>2014-03-02T10:13:48Z</time>
      </trkpt>
      <trkpt lat="41.648991720" lon="2.544318490">
        <ele>409.00</ele>
        <time>2014-03-02T10:13:49Z</time>
      </trkpt>
      <trkpt lat="41.648991720" lon="2.544320000">
        <ele>409.00</ele>
        <time>2014-03-02T10:13:50Z</time>
      </trkpt>
      <trkpt lat="41.648991720" lon="2.544320000">
        <ele>409.00</ele>
        <time>2014-03-02T10:13:51Z</time>
      </trkpt>
      <trkpt lat="41.648991720" lon="2.544320000">
        <ele>408.90</ele>
        <time>2014-03-02T10:13:52Z</time>
      </trkpt>
      <trkpt lat="41.648991720" lon="2.544320000">
        <ele>408.80</ele>
        <time>2014-03-02T10:13:53Z</time>
      </trkpt>
      <trkpt lat="41.648993390" lon="2.544321670">
        <ele>408.70</ele>
        <time>2014-03-02T10:13:54Z</time>
      </trkpt>
      <trkpt lat="41.648995070" lon="2.544321670">
        <ele>408.60</ele>
        <time>2014-03-02T10:13:55Z</time>
      </trkpt>
      <trkpt lat="41.648996750" lon="2.544321670">
        <ele>408.60</ele>
        <time>2014-03-02T10:13:56Z</time>
      </trkpt>
      <trkpt lat="41.648996750" lon="2.544321670">
        <ele>408.80</ele>
        <time>2014-03-02T10:13:57Z</time>
      </trkpt>
      <trkpt lat="41.648996750" lon="2.544323350">
        <ele>409.00</ele>
        <time>2014-03-02T10:13:58Z</time>
      </trkpt>
      <trkpt lat="41.648996750" lon="2.544323350">
        <ele>409.10</ele>
        <time>2014-03-02T10:13:59Z</time>
      </trkpt>
      <trkpt lat="41.648998420" lon="2.544323350">
        <ele>409.20</ele>
        <time>2014-03-02T10:14:00Z</time>
      </trkpt>
      <trkpt lat="41.648998420" lon="2.544323350">
        <ele>409.30</ele>
        <time>2014-03-02T10:14:01Z</time>
      </trkpt>
      <trkpt lat="41.648998420" lon="2.544323350">
        <ele>409.20</ele>
        <time>2014-03-02T10:14:02Z</time>
      </trkpt>
      <trkpt lat="41.648998420" lon="2.544323350">
        <ele>409.20</ele>
        <time>2014-03-02T10:14:03Z</time>
      </trkpt>
      <trkpt lat="41.648996750" lon="2.544323350">
        <ele>409.10</ele>
        <time>2014-03-02T10:14:04Z</time>
      </trkpt>
      <trkpt lat="41.648996750" lon="2.544323350">
        <ele>409.00</ele>
        <time>2014-03-02T10:14:05Z</time>
      </trkpt>
      <trkpt lat="41.648996750" lon="2.544323350">
        <ele>408.50</ele>
        <time>2014-03-02T10:14:06Z</time>
      </trkpt>
      <trkpt lat="41.648996750" lon="2.544323350">
        <ele>408.20</ele>
        <time>2014-03-02T10:14:07Z</time>
      </trkpt>
      <trkpt lat="41.648996750" lon="2.544323350">
        <ele>407.90</ele>
        <time>2014-03-02T10:14:08Z</time>
      </trkpt>
      <trkpt lat="41.648996750" lon="2.544323350">
        <ele>408.10</ele>
        <time>2014-03-02T10:14:09Z</time>
      </trkpt>
      <trkpt lat="41.648996750" lon="2.544323350">
        <ele>408.30</ele>
        <time>2014-03-02T10:14:10Z</time>
      </trkpt>
      <trkpt lat="41.648996750" lon="2.544323350">
        <ele>408.20</ele>
        <time>2014-03-02T10:14:11Z</time>
      </trkpt>
      <trkpt lat="41.648996750" lon="2.544323350">
        <ele>408.10</ele>
        <time>2014-03-02T10:14:12Z</time>
      </trkpt>
      <trkpt lat="41.648996750" lon="2.544323350">
        <ele>408.40</ele>
        <time>2014-03-02T10:14:13Z</time>
      </trkpt>
      <trkpt lat="41.648996750" lon="2.544323350">
        <ele>408.60</ele>
        <time>2014-03-02T10:14:14Z</time>
      </trkpt>
      <trkpt lat="41.648996750" lon="2.544323350">
        <ele>408.80</ele>
        <time>2014-03-02T10:14:15Z</time>
      </trkpt>
      <trkpt lat="41.648998420" lon="2.544323350">
        <ele>408.90</ele>
        <time>2014-03-02T10:14:16Z</time>
      </trkpt>
      <trkpt lat="41.648998420" lon="2.544325030">
        <ele>409.00</ele>
        <time>2014-03-02T10:14:17Z</time>
      </trkpt>
      <trkpt lat="41.648998420" lon="2.544325030">
        <ele>408.70</ele>
        <time>2014-03-02T10:14:18Z</time>
      </trkpt>
      <trkpt lat="41.649000100" lon="2.544325030">
        <ele>408.50</ele>
        <time>2014-03-02T10:14:19Z</time>
      </trkpt>
      <trkpt lat="41.649001780" lon="2.544326700">
        <ele>408.30</ele>
        <time>2014-03-02T10:14:20Z</time>
      </trkpt>
      <trkpt lat="41.649001780" lon="2.544326700">
        <ele>408.40</ele>
        <time>2014-03-02T10:14:21Z</time>
      </trkpt>
      <trkpt lat="41.649001780" lon="2.544326700">
        <ele>408.60</ele>
        <time>2014-03-02T10:14:22Z</time>
      </trkpt>
      <trkpt lat="41.649003450" lon="2.544328380">
        <ele>408.40</ele>
        <time>2014-03-02T10:14:23Z</time>
      </trkpt>
      <trkpt lat="41.649005130" lon="2.544328380">
        <ele>408.30</ele>
        <time>2014-03-02T10:14:24Z</time>
      </trkpt>
      <trkpt lat="41.649006810" lon="2.544330060">
        <ele>408.40</ele>
        <time>2014-03-02T10:14:25Z</time>
      </trkpt>
      <trkpt lat="41.649006810" lon="2.544330060">
        <ele>408.50</ele>
        <time>2014-03-02T10:14:26Z</time>
      </trkpt>
      <trkpt lat="41.649008480" lon="2.544331730">
        <ele>408.50</ele>
        <time>2014-03-02T10:14:27Z</time>
      </trkpt>
      <trkpt lat="41.649010160" lon="2.544331730">
        <ele>408.80</ele>
        <time>2014-03-02T10:14:28Z</time>
      </trkpt>
      <trkpt lat="41.649011670" lon="2.544333410">
        <ele>409.00</ele>
        <time>2014-03-02T10:14:29Z</time>
      </trkpt>
      <trkpt lat="41.649013340" lon="2.544333410">
        <ele>408.70</ele>
        <time>2014-03-02T10:14:30Z</time>
      </trkpt>
      <trkpt lat="41.649013340" lon="2.544335080">
        <ele>408.40</ele>
        <time>2014-03-02T10:14:31Z</time>
      </trkpt>
      <trkpt lat="41.649015020" lon="2.544335080">
        <ele>408.60</ele>
        <time>2014-03-02T10:14:32Z</time>
      </trkpt>
      <trkpt lat="41.649016700" lon="2.544336760">
        <ele>408.70</ele>
        <time>2014-03-02T10:14:33Z</time>
      </trkpt>
      <trkpt lat="41.649018370" lon="2.544336760">
        <ele>408.80</ele>
        <time>2014-03-02T10:14:34Z</time>
      </trkpt>
      <trkpt lat="41.649020050" lon="2.544338440">
        <ele>409.20</ele>
        <time>2014-03-02T10:14:35Z</time>
      </trkpt>
      <trkpt lat="41.649021720" lon="2.544338440">
        <ele>409.50</ele>
        <time>2014-03-02T10:14:36Z</time>
      </trkpt>
      <trkpt lat="41.649023400" lon="2.544340110">
        <ele>409.50</ele>
        <time>2014-03-02T10:14:37Z</time>
      </trkpt>
      <trkpt lat="41.649025080" lon="2.544341790">
        <ele>409.50</ele>
        <time>2014-03-02T10:14:38Z</time>
      </trkpt>
      <trkpt lat="41.649026750" lon="2.544341790">
        <ele>409.50</ele>
        <time>2014-03-02T10:14:39Z</time>
      </trkpt>
      <trkpt lat="41.649028430" lon="2.544343470">
        <ele>409.80</ele>
        <time>2014-03-02T10:14:40Z</time>
      </trkpt>
      <trkpt lat="41.649030110" lon="2.544343470">
        <ele>410.10</ele>
        <time>2014-03-02T10:14:41Z</time>
      </trkpt>
      <trkpt lat="41.649031780" lon="2.544345140">
        <ele>409.70</ele>
        <time>2014-03-02T10:14:42Z</time>
      </trkpt>
      <trkpt lat="41.649033460" lon="2.544346820">
        <ele>409.40</ele>
        <time>2014-03-02T10:14:43Z</time>
      </trkpt>
      <trkpt lat="41.649035140" lon="2.544346820">
        <ele>409.10</ele>
        <time>2014-03-02T10:14:44Z</time>
      </trkpt>
      <trkpt lat="41.649036810" lon="2.544348500">
        <ele>408.80</ele>
        <time>2014-03-02T10:14:45Z</time>
      </trkpt>
      <trkpt lat="41.649038490" lon="2.544350000">
        <ele>408.60</ele>
        <time>2014-03-02T10:14:46Z</time>
      </trkpt>
      <trkpt lat="41.649040000" lon="2.544350000">
        <ele>408.20</ele>
        <time>2014-03-02T10:14:47Z</time>
      </trkpt>
      <trkpt lat="41.649041670" lon="2.544351680">
        <ele>407.90</ele>
        <time>2014-03-02T10:14:48Z</time>
      </trkpt>
      <trkpt lat="41.649045030" lon="2.544351680">
        <ele>408.00</ele>
        <time>2014-03-02T10:14:49Z</time>
      </trkpt>
      <trkpt lat="41.649045030" lon="2.544353360">
        <ele>408.00</ele>
        <time>2014-03-02T10:14:50Z</time>
      </trkpt>
      <trkpt lat="41.649046700" lon="2.544353360">
        <ele>408.30</ele>
        <time>2014-03-02T10:14:51Z</time>
      </trkpt>
      <trkpt lat="41.649048380" lon="2.544355030">
        <ele>408.60</ele>
        <time>2014-03-02T10:14:52Z</time>
      </trkpt>
      <trkpt lat="41.649050060" lon="2.544356710">
        <ele>408.70</ele>
        <time>2014-03-02T10:14:53Z</time>
      </trkpt>
      <trkpt lat="41.649051730" lon="2.544356710">
        <ele>408.90</ele>
        <time>2014-03-02T10:14:54Z</time>
      </trkpt>
      <trkpt lat="41.649053410" lon="2.544358390">
        <ele>409.00</ele>
        <time>2014-03-02T10:14:55Z</time>
      </trkpt>
      <trkpt lat="41.649055080" lon="2.544358390">
        <ele>408.90</ele>
        <time>2014-03-02T10:14:56Z</time>
      </trkpt>
      <trkpt lat="41.649056760" lon="2.544360060">
        <ele>408.90</ele>
        <time>2014-03-02T10:14:57Z</time>
      </trkpt>
      <trkpt lat="41.649058440" lon="2.544360060">
        <ele>408.80</ele>
        <time>2014-03-02T10:14:58Z</time>
      </trkpt>
      <trkpt lat="41.649060110" lon="2.544361740">
        <ele>408.90</ele>
        <time>2014-03-02T10:14:59Z</time>
      </trkpt>
      <trkpt lat="41.649061790" lon="2.544361740">
        <ele>408.90</ele>
        <time>2014-03-02T10:15:00Z</time>
      </trkpt>
      <trkpt lat="41.649063470" lon="2.544363420">
        <ele>409.40</ele>
        <time>2014-03-02T10:15:01Z</time>
      </trkpt>
      <trkpt lat="41.649065140" lon="2.544363420">
        <ele>409.80</ele>
        <time>2014-03-02T10:15:02Z</time>
      </trkpt>
      <trkpt lat="41.649066820" lon="2.544365090">
        <ele>409.80</ele>
        <time>2014-03-02T10:15:03Z</time>
      </trkpt>
      <trkpt lat="41.649066820" lon="2.544365090">
        <ele>409.70</ele>
        <time>2014-03-02T10:15:04Z</time>
      </trkpt>
      <trkpt lat="41.649068500" lon="2.544366770">
        <ele>409.60</ele>
        <time>2014-03-02T10:15:05Z</time>
      </trkpt>
      <trkpt lat="41.649070000" lon="2.544366770">
        <ele>409.50</ele>
        <time>2014-03-02T10:15:06Z</time>
      </trkpt>
      <trkpt lat="41.649071680" lon="2.544366770">
        <ele>409.50</ele>
        <time>2014-03-02T10:15:07Z</time>
      </trkpt>
      <trkpt lat="41.649073360" lon="2.544368440">
        <ele>409.00</ele>
        <time>2014-03-02T10:15:08Z</time>
      </trkpt>
      <trkpt lat="41.649073360" lon="2.544368440">
        <ele>408.70</ele>
        <time>2014-03-02T10:15:09Z</time>
      </trkpt>
      <trkpt lat="41.649075030" lon="2.544370120">
        <ele>408.70</ele>
        <time>2014-03-02T10:15:10Z</time>
      </trkpt>
      <trkpt lat="41.649076710" lon="2.544370120">
        <ele>408.60</ele>
        <time>2014-03-02T10:15:11Z</time>
      </trkpt>
      <trkpt lat="41.649076710" lon="2.544370120">
        <ele>408.60</ele>
        <time>2014-03-02T10:15:12Z</time>
      </trkpt>
      <trkpt lat="41.649076710" lon="2.544370120">
        <ele>408.70</ele>
        <time>2014-03-02T10:15:13Z</time>
      </trkpt>
      <trkpt lat="41.649078390" lon="2.544370120">
        <ele>408.70</ele>
        <time>2014-03-02T10:15:14Z</time>
      </trkpt>
      <trkpt lat="41.649078390" lon="2.544371800">
        <ele>409.00</ele>
        <time>2014-03-02T10:15:15Z</time>
      </trkpt>
      <trkpt lat="41.649078390" lon="2.544371800">
        <ele>409.10</ele>
        <time>2014-03-02T10:15:16Z</time>
      </trkpt>
      <trkpt lat="41.649078390" lon="2.544371800">
        <ele>409.30</ele>
        <time>2014-03-02T10:15:17Z</time>
      </trkpt>
      <trkpt lat="41.649078390" lon="2.544371800">
        <ele>409.20</ele>
        <time>2014-03-02T10:15:18Z</time>
      </trkpt>
      <trkpt lat="41.649078390" lon="2.544371800">
        <ele>409.20</ele>
        <time>2014-03-02T10:15:19Z</time>
      </trkpt>
      <trkpt lat="41.649078390" lon="2.544371800">
        <ele>409.50</ele>
        <time>2014-03-02T10:15:20Z</time>
      </trkpt>
      <trkpt lat="41.649076710" lon="2.544370120">
        <ele>409.80</ele>
        <time>2014-03-02T10:15:21Z</time>
      </trkpt>
      <trkpt lat="41.649076710" lon="2.544370120">
        <ele>409.40</ele>
        <time>2014-03-02T10:15:22Z</time>
      </trkpt>
      <trkpt lat="41.649075030" lon="2.544370120">
        <ele>409.00</ele>
        <time>2014-03-02T10:15:23Z</time>
      </trkpt>
      <trkpt lat="41.649073360" lon="2.544370120">
        <ele>408.80</ele>
        <time>2014-03-02T10:15:24Z</time>
      </trkpt>
      <trkpt lat="41.649073360" lon="2.544368440">
        <ele>408.70</ele>
        <time>2014-03-02T10:15:25Z</time>
      </trkpt>
      <trkpt lat="41.649071680" lon="2.544368440">
        <ele>408.60</ele>
        <time>2014-03-02T10:15:26Z</time>
      </trkpt>
      <trkpt lat="41.649070000" lon="2.544368440">
        <ele>408.50</ele>
        <time>2014-03-02T10:15:27Z</time>
      </trkpt>
      <trkpt lat="41.649068500" lon="2.544366770">
        <ele>408.40</ele>
        <time>2014-03-02T10:15:28Z</time>
      </trkpt>
      <trkpt lat="41.649068500" lon="2.544366770">
        <ele>408.60</ele>
        <time>2014-03-02T10:15:29Z</time>
      </trkpt>
      <trkpt lat="41.649066820" lon="2.544366770">
        <ele>408.70</ele>
        <time>2014-03-02T10:15:30Z</time>
      </trkpt>
      <trkpt lat="41.649065140" lon="2.544365090">
        <ele>408.80</ele>
        <time>2014-03-02T10:15:31Z</time>
      </trkpt>
      <trkpt lat="41.649063470" lon="2.544365090">
        <ele>408.80</ele>
        <time>2014-03-02T10:15:32Z</time>
      </trkpt>
      <trkpt lat="41.649061790" lon="2.544365090">
        <ele>408.80</ele>
        <time>2014-03-02T10:15:33Z</time>
      </trkpt>
      <trkpt lat="41.649060110" lon="2.544363420">
        <ele>408.80</ele>
        <time>2014-03-02T10:15:34Z</time>
      </trkpt>
      <trkpt lat="41.649058440" lon="2.544363420">
        <ele>408.80</ele>
        <time>2014-03-02T10:15:35Z</time>
      </trkpt>
      <trkpt lat="41.649056760" lon="2.544361740">
        <ele>408.90</ele>
        <time>2014-03-02T10:15:36Z</time>
      </trkpt>
      <trkpt lat="41.649055080" lon="2.544361740">
        <ele>408.90</ele>
        <time>2014-03-02T10:15:37Z</time>
      </trkpt>
      <trkpt lat="41.649053410" lon="2.544361740">
        <ele>408.90</ele>
        <time>2014-03-02T10:15:38Z</time>
      </trkpt>
      <trkpt lat="41.649051730" lon="2.544360060">
        <ele>408.90</ele>
        <time>2014-03-02T10:15:39Z</time>
      </trkpt>
      <trkpt lat="41.649050060" lon="2.544360060">
        <ele>408.90</ele>
        <time>2014-03-02T10:15:40Z</time>
      </trkpt>
      <trkpt lat="41.649048380" lon="2.544358390">
        <ele>409.10</ele>
        <time>2014-03-02T10:15:41Z</time>
      </trkpt>
      <trkpt lat="41.649046700" lon="2.544358390">
        <ele>409.20</ele>
        <time>2014-03-02T10:15:42Z</time>
      </trkpt>
      <trkpt lat="41.649046700" lon="2.544358390">
        <ele>409.30</ele>
        <time>2014-03-02T10:15:43Z</time>
      </trkpt>
      <trkpt lat="41.649045030" lon="2.544356710">
        <ele>409.40</ele>
        <time>2014-03-02T10:15:44Z</time>
      </trkpt>
      <trkpt lat="41.649043350" lon="2.544356710">
        <ele>409.50</ele>
        <time>2014-03-02T10:15:45Z</time>
      </trkpt>
      <trkpt lat="41.649041670" lon="2.544356710">
        <ele>409.30</ele>
        <time>2014-03-02T10:15:46Z</time>
      </trkpt>
      <trkpt lat="41.649040000" lon="2.544356710">
        <ele>409.20</ele>
        <time>2014-03-02T10:15:47Z</time>
      </trkpt>
      <trkpt lat="41.649040000" lon="2.544355030">
        <ele>409.40</ele>
        <time>2014-03-02T10:15:48Z</time>
      </trkpt>
      <trkpt lat="41.649038490" lon="2.544355030">
        <ele>409.60</ele>
        <time>2014-03-02T10:15:49Z</time>
      </trkpt>
      <trkpt lat="41.649036810" lon="2.544355030">
        <ele>409.70</ele>
        <time>2014-03-02T10:15:50Z</time>
      </trkpt>
      <trkpt lat="41.649036810" lon="2.544355030">
        <ele>409.40</ele>
        <time>2014-03-02T10:15:51Z</time>
      </trkpt>
      <trkpt lat="41.649035140" lon="2.544353360">
        <ele>409.20</ele>
        <time>2014-03-02T10:15:52Z</time>
      </trkpt>
      <trkpt lat="41.649035140" lon="2.544353360">
        <ele>409.20</ele>
        <time>2014-03-02T10:15:53Z</time>
      </trkpt>
      <trkpt lat="41.649033460" lon="2.544353360">
        <ele>409.20</ele>
        <time>2014-03-02T10:15:54Z</time>
      </trkpt>
      <trkpt lat="41.649033460" lon="2.544353360">
        <ele>409.20</ele>
        <time>2014-03-02T10:15:55Z</time>
      </trkpt>
      <trkpt lat="41.649031780" lon="2.544353360">
        <ele>409.10</ele>
        <time>2014-03-02T10:15:56Z</time>
      </trkpt>
      <trkpt lat="41.649030110" lon="2.544351680">
        <ele>409.00</ele>
        <time>2014-03-02T10:15:57Z</time>
      </trkpt>
      <trkpt lat="41.649030110" lon="2.544351680">
        <ele>409.10</ele>
        <time>2014-03-02T10:15:58Z</time>
      </trkpt>
      <trkpt lat="41.649030110" lon="2.544351680">
        <ele>409.20</ele>
        <time>2014-03-02T10:15:59Z</time>
      </trkpt>
      <trkpt lat="41.649028430" lon="2.544351680">
        <ele>409.30</ele>
        <time>2014-03-02T10:16:00Z</time>
      </trkpt>
      <trkpt lat="41.649028430" lon="2.544351680">
        <ele>409.40</ele>
        <time>2014-03-02T10:16:01Z</time>
      </trkpt>
      <trkpt lat="41.649026750" lon="2.544351680">
        <ele>409.40</ele>
        <time>2014-03-02T10:16:02Z</time>
      </trkpt>
      <trkpt lat="41.649026750" lon="2.544351680">
        <ele>409.20</ele>
        <time>2014-03-02T10:16:03Z</time>
      </trkpt>
      <trkpt lat="41.649025080" lon="2.544351680">
        <ele>409.10</ele>
        <time>2014-03-02T10:16:04Z</time>
      </trkpt>
      <trkpt lat="41.649025080" lon="2.544350000">
        <ele>409.10</ele>
        <time>2014-03-02T10:16:05Z</time>
      </trkpt>
      <trkpt lat="41.649023400" lon="2.544350000">
        <ele>409.20</ele>
        <time>2014-03-02T10:16:06Z</time>
      </trkpt>
      <trkpt lat="41.649023400" lon="2.544350000">
        <ele>408.80</ele>
        <time>2014-03-02T10:16:07Z</time>
      </trkpt>
      <trkpt lat="41.649023400" lon="2.544350000">
        <ele>408.60</ele>
        <time>2014-03-02T10:16:08Z</time>
      </trkpt>
      <trkpt lat="41.649021720" lon="2.544350000">
        <ele>408.40</ele>
        <time>2014-03-02T10:16:09Z</time>
      </trkpt>
      <trkpt lat="41.649021720" lon="2.544350000">
        <ele>409.00</ele>
        <time>2014-03-02T10:16:10Z</time>
      </trkpt>
      <trkpt lat="41.649021720" lon="2.544350000">
        <ele>409.40</ele>
        <time>2014-03-02T10:16:11Z</time>
      </trkpt>
      <trkpt lat="41.649020050" lon="2.544350000">
        <ele>409.30</ele>
        <time>2014-03-02T10:16:12Z</time>
      </trkpt>
      <trkpt lat="41.649020050" lon="2.544350000">
        <ele>409.30</ele>
        <time>2014-03-02T10:16:13Z</time>
      </trkpt>
      <trkpt lat="41.649020050" lon="2.544350000">
        <ele>409.30</ele>
        <time>2014-03-02T10:16:14Z</time>
      </trkpt>
      <trkpt lat="41.649020050" lon="2.544350000">
        <ele>409.30</ele>
        <time>2014-03-02T10:16:15Z</time>
      </trkpt>
      <trkpt lat="41.649018370" lon="2.544350000">
        <ele>409.30</ele>
        <time>2014-03-02T10:16:16Z</time>
      </trkpt>
      <trkpt lat="41.649018370" lon="2.544350000">
        <ele>409.40</ele>
        <time>2014-03-02T10:16:17Z</time>
      </trkpt>
      <trkpt lat="41.649018370" lon="2.544350000">
        <ele>409.40</ele>
        <time>2014-03-02T10:16:18Z</time>
      </trkpt>
      <trkpt lat="41.649018370" lon="2.544350000">
        <ele>409.30</ele>
        <time>2014-03-02T10:16:19Z</time>
      </trkpt>
      <trkpt lat="41.649018370" lon="2.544350000">
        <ele>409.10</ele>
        <time>2014-03-02T10:16:20Z</time>
      </trkpt>
      <trkpt lat="41.649018370" lon="2.544351680">
        <ele>409.10</ele>
        <time>2014-03-02T10:16:21Z</time>
      </trkpt>
      <trkpt lat="41.649018370" lon="2.544351680">
        <ele>409.20</ele>
        <time>2014-03-02T10:16:22Z</time>
      </trkpt>
      <trkpt lat="41.649018370" lon="2.544351680">
        <ele>409.30</ele>
        <time>2014-03-02T10:16:23Z</time>
      </trkpt>
      <trkpt lat="41.649016700" lon="2.544351680">
        <ele>409.10</ele>
        <time>2014-03-02T10:16:24Z</time>
      </trkpt>
      <trkpt lat="41.649016700" lon="2.544351680">
        <ele>409.00</ele>
        <time>2014-03-02T10:16:25Z</time>
      </trkpt>
      <trkpt lat="41.649016700" lon="2.544351680">
        <ele>408.80</ele>
        <time>2014-03-02T10:16:26Z</time>
      </trkpt>
      <trkpt lat="41.649016700" lon="2.544351680">
        <ele>408.50</ele>
        <time>2014-03-02T10:16:27Z</time>
      </trkpt>
      <trkpt lat="41.649016700" lon="2.544351680">
        <ele>408.40</ele>
        <time>2014-03-02T10:16:28Z</time>
      </trkpt>
      <trkpt lat="41.649016700" lon="2.544351680">
        <ele>408.70</ele>
        <time>2014-03-02T10:16:29Z</time>
      </trkpt>
      <trkpt lat="41.649016700" lon="2.544353360">
        <ele>408.90</ele>
        <time>2014-03-02T10:16:30Z</time>
      </trkpt>
      <trkpt lat="41.649016700" lon="2.544353360">
        <ele>408.80</ele>
        <time>2014-03-02T10:16:31Z</time>
      </trkpt>
      <trkpt lat="41.649016700" lon="2.544353360">
        <ele>408.80</ele>
        <time>2014-03-02T10:16:32Z</time>
      </trkpt>
      <trkpt lat="41.649016700" lon="2.544353360">
        <ele>408.80</ele>
        <time>2014-03-02T10:16:33Z</time>
      </trkpt>
      <trkpt lat="41.649016700" lon="2.544353360">
        <ele>409.20</ele>
        <time>2014-03-02T10:16:34Z</time>
      </trkpt>
      <trkpt lat="41.649016700" lon="2.544353360">
        <ele>409.50</ele>
        <time>2014-03-02T10:16:35Z</time>
      </trkpt>
      <trkpt lat="41.649016700" lon="2.544355030">
        <ele>409.30</ele>
        <time>2014-03-02T10:16:36Z</time>
      </trkpt>
      <trkpt lat="41.649016700" lon="2.544355030">
        <ele>409.20</ele>
        <time>2014-03-02T10:16:37Z</time>
      </trkpt>
      <trkpt lat="41.649016700" lon="2.544355030">
        <ele>409.20</ele>
        <time>2014-03-02T10:16:38Z</time>
      </trkpt>
      <trkpt lat="41.649016700" lon="2.544355030">
        <ele>409.30</ele>
        <time>2014-03-02T10:16:39Z</time>
      </trkpt>
      <trkpt lat="41.649015020" lon="2.544355030">
        <ele>409.30</ele>
        <time>2014-03-02T10:16:40Z</time>
      </trkpt>
      <trkpt lat="41.649015020" lon="2.544355030">
        <ele>409.10</ele>
        <time>2014-03-02T10:16:41Z</time>
      </trkpt>
      <trkpt lat="41.649015020" lon="2.544355030">
        <ele>409.00</ele>
        <time>2014-03-02T10:16:42Z</time>
      </trkpt>
      <trkpt lat="41.649015020" lon="2.544356710">
        <ele>409.30</ele>
        <time>2014-03-02T10:16:43Z</time>
      </trkpt>
      <trkpt lat="41.649015020" lon="2.544356710">
        <ele>409.50</ele>
        <time>2014-03-02T10:16:44Z</time>
      </trkpt>
      <trkpt lat="41.649015020" lon="2.544356710">
        <ele>409.60</ele>
        <time>2014-03-02T10:16:45Z</time>
      </trkpt>
      <trkpt lat="41.649015020" lon="2.544356710">
        <ele>409.70</ele>
        <time>2014-03-02T10:16:46Z</time>
      </trkpt>
      <trkpt lat="41.649015020" lon="2.544358390">
        <ele>409.80</ele>
        <time>2014-03-02T10:16:47Z</time>
      </trkpt>
      <trkpt lat="41.649015020" lon="2.544358390">
        <ele>409.70</ele>
        <time>2014-03-02T10:16:48Z</time>
      </trkpt>
      <trkpt lat="41.649015020" lon="2.544358390">
        <ele>409.60</ele>
        <time>2014-03-02T10:16:49Z</time>
      </trkpt>
      <trkpt lat="41.649016700" lon="2.544358390">
        <ele>409.70</ele>
        <time>2014-03-02T10:16:50Z</time>
      </trkpt>
      <trkpt lat="41.649016700" lon="2.544358390">
        <ele>409.70</ele>
        <time>2014-03-02T10:16:51Z</time>
      </trkpt>
      <trkpt lat="41.649016700" lon="2.544360060">
        <ele>409.50</ele>
        <time>2014-03-02T10:16:52Z</time>
      </trkpt>
      <trkpt lat="41.649016700" lon="2.544360060">
        <ele>409.40</ele>
        <time>2014-03-02T10:16:53Z</time>
      </trkpt>
      <trkpt lat="41.649016700" lon="2.544360060">
        <ele>409.30</ele>
        <time>2014-03-02T10:16:54Z</time>
      </trkpt>
      <trkpt lat="41.649016700" lon="2.544360060">
        <ele>409.30</ele>
        <time>2014-03-02T10:16:55Z</time>
      </trkpt>
      <trkpt lat="41.649016700" lon="2.544361740">
        <ele>409.40</ele>
        <time>2014-03-02T10:16:56Z</time>
      </trkpt>
      <trkpt lat="41.649018370" lon="2.544361740">
        <ele>409.50</ele>
        <time>2014-03-02T10:16:57Z</time>
      </trkpt>
      <trkpt lat="41.649018370" lon="2.544361740">
        <ele>409.60</ele>
        <time>2014-03-02T10:16:58Z</time>
      </trkpt>
      <trkpt lat="41.649018370" lon="2.544361740">
        <ele>409.70</ele>
        <time>2014-03-02T10:16:59Z</time>
      </trkpt>
      <trkpt lat="41.649018370" lon="2.544361740">
        <ele>409.50</ele>
        <time>2014-03-02T10:17:00Z</time>
      </trkpt>
      <trkpt lat="41.649018370" lon="2.544361740">
        <ele>409.30</ele>
        <time>2014-03-02T10:17:01Z</time>
      </trkpt>
      <trkpt lat="41.649020050" lon="2.544363420">
        <ele>409.20</ele>
        <time>2014-03-02T10:17:02Z</time>
      </trkpt>
      <trkpt lat="41.649020050" lon="2.544363420">
        <ele>409.20</ele>
        <time>2014-03-02T10:17:03Z</time>
      </trkpt>
      <trkpt lat="41.649020050" lon="2.544363420">
        <ele>409.20</ele>
        <time>2014-03-02T10:17:04Z</time>
      </trkpt>
      <trkpt lat="41.649020050" lon="2.544363420">
        <ele>409.10</ele>
        <time>2014-03-02T10:17:05Z</time>
      </trkpt>
      <trkpt lat="41.649020050" lon="2.544363420">
        <ele>409.10</ele>
        <time>2014-03-02T10:17:06Z</time>
      </trkpt>
      <trkpt lat="41.649021720" lon="2.544365090">
        <ele>409.30</ele>
        <time>2014-03-02T10:17:07Z</time>
      </trkpt>
      <trkpt lat="41.649021720" lon="2.544365090">
        <ele>409.50</ele>
        <time>2014-03-02T10:17:08Z</time>
      </trkpt>
      <trkpt lat="41.649021720" lon="2.544365090">
        <ele>409.30</ele>
        <time>2014-03-02T10:17:09Z</time>
      </trkpt>
      <trkpt lat="41.649021720" lon="2.544365090">
        <ele>409.20</ele>
        <time>2014-03-02T10:17:10Z</time>
      </trkpt>
      <trkpt lat="41.649023400" lon="2.544365090">
        <ele>408.90</ele>
        <time>2014-03-02T10:17:11Z</time>
      </trkpt>
      <trkpt lat="41.649023400" lon="2.544366770">
        <ele>408.70</ele>
        <time>2014-03-02T10:17:12Z</time>
      </trkpt>
      <trkpt lat="41.649023400" lon="2.544366770">
        <ele>408.50</ele>
        <time>2014-03-02T10:17:13Z</time>
      </trkpt>
      <trkpt lat="41.649023400" lon="2.544366770">
        <ele>408.80</ele>
        <time>2014-03-02T10:17:14Z</time>
      </trkpt>
      <trkpt lat="41.649023400" lon="2.544366770">
        <ele>409.10</ele>
        <time>2014-03-02T10:17:15Z</time>
      </trkpt>
      <trkpt lat="41.649025080" lon="2.544366770">
        <ele>409.20</ele>
        <time>2014-03-02T10:17:16Z</time>
      </trkpt>
      <trkpt lat="41.649025080" lon="2.544366770">
        <ele>409.40</ele>
        <time>2014-03-02T10:17:17Z</time>
      </trkpt>
      <trkpt lat="41.649025080" lon="2.544366770">
        <ele>409.50</ele>
        <time>2014-03-02T10:17:18Z</time>
      </trkpt>
      <trkpt lat="41.649025080" lon="2.544368440">
        <ele>409.30</ele>
        <time>2014-03-02T10:17:19Z</time>
      </trkpt>
      <trkpt lat="41.649026750" lon="2.544368440">
        <ele>409.20</ele>
        <time>2014-03-02T10:17:20Z</time>
      </trkpt>
      <trkpt lat="41.649026750" lon="2.544368440">
        <ele>409.40</ele>
        <time>2014-03-02T10:17:21Z</time>
      </trkpt>
      <trkpt lat="41.649026750" lon="2.544370120">
        <ele>409.50</ele>
        <time>2014-03-02T10:17:22Z</time>
      </trkpt>
      <trkpt lat="41.649028430" lon="2.544370120">
        <ele>409.60</ele>
        <time>2014-03-02T10:17:23Z</time>
      </trkpt>
      <trkpt lat="41.649030110" lon="2.544368440">
        <ele>409.60</ele>
        <time>2014-03-02T10:17:24Z</time>
      </trkpt>
      <trkpt lat="41.649031780" lon="2.544368440">
        <ele>409.60</ele>
        <time>2014-03-02T10:17:25Z</time>
      </trkpt>
      <trkpt lat="41.649031780" lon="2.544370120">
        <ele>409.60</ele>
        <time>2014-03-02T10:17:26Z</time>
      </trkpt>
      <trkpt lat="41.649031780" lon="2.544370120">
        <ele>409.60</ele>
        <time>2014-03-02T10:17:27Z</time>
      </trkpt>
      <trkpt lat="41.649030110" lon="2.544371800">
        <ele>409.30</ele>
        <time>2014-03-02T10:17:28Z</time>
      </trkpt>
      <trkpt lat="41.649031780" lon="2.544371800">
        <ele>409.00</ele>
        <time>2014-03-02T10:17:29Z</time>
      </trkpt>
      <trkpt lat="41.649031780" lon="2.544373470">
        <ele>409.50</ele>
        <time>2014-03-02T10:17:30Z</time>
      </trkpt>
      <trkpt lat="41.649031780" lon="2.544373470">
        <ele>409.80</ele>
        <time>2014-03-02T10:17:31Z</time>
      </trkpt>
      <trkpt lat="41.649033460" lon="2.544375150">
        <ele>410.10</ele>
        <time>2014-03-02T10:17:32Z</time>
      </trkpt>
      <trkpt lat="41.649033460" lon="2.544375150">
        <ele>409.90</ele>
        <time>2014-03-02T10:17:33Z</time>
      </trkpt>
      <trkpt lat="41.649033460" lon="2.544376830">
        <ele>409.70</ele>
        <time>2014-03-02T10:17:34Z</time>
      </trkpt>
      <trkpt lat="41.649033460" lon="2.544376830">
        <ele>409.50</ele>
        <time>2014-03-02T10:17:35Z</time>
      </trkpt>
      <trkpt lat="41.649035140" lon="2.544376830">
        <ele>409.40</ele>
        <time>2014-03-02T10:17:36Z</time>
      </trkpt>
      <trkpt lat="41.649035140" lon="2.544378340">
        <ele>409.30</ele>
        <time>2014-03-02T10:17:37Z</time>
      </trkpt>
      <trkpt lat="41.649035140" lon="2.544378340">
        <ele>409.30</ele>
        <time>2014-03-02T10:17:38Z</time>
      </trkpt>
      <trkpt lat="41.649036810" lon="2.544380010">
        <ele>409.30</ele>
        <time>2014-03-02T10:17:39Z</time>
      </trkpt>
      <trkpt lat="41.649036810" lon="2.544380010">
        <ele>409.30</ele>
        <time>2014-03-02T10:17:40Z</time>
      </trkpt>
      <trkpt lat="41.649036810" lon="2.544380010">
        <ele>409.40</ele>
        <time>2014-03-02T10:17:41Z</time>
      </trkpt>
      <trkpt lat="41.649038490" lon="2.544381690">
        <ele>409.20</ele>
        <time>2014-03-02T10:17:42Z</time>
      </trkpt>
      <trkpt lat="41.649038490" lon="2.544381690">
        <ele>409.10</ele>
        <time>2014-03-02T10:17:43Z</time>
      </trkpt>
      <trkpt lat="41.649038490" lon="2.544381690">
        <ele>409.00</ele>
        <time>2014-03-02T10:17:44Z</time>
      </trkpt>
      <trkpt lat="41.649038490" lon="2.544381690">
        <ele>409.10</ele>
        <time>2014-03-02T10:17:45Z</time>
      </trkpt>
      <trkpt lat="41.649040000" lon="2.544381690">
        <ele>409.20</ele>
        <time>2014-03-02T10:17:46Z</time>
      </trkpt>
      <trkpt lat="41.649040000" lon="2.544383360">
        <ele>409.40</ele>
        <time>2014-03-02T10:17:47Z</time>
      </trkpt>
      <trkpt lat="41.649040000" lon="2.544383360">
        <ele>409.60</ele>
        <time>2014-03-02T10:17:48Z</time>
      </trkpt>
      <trkpt lat="41.649040000" lon="2.544383360">
        <ele>409.70</ele>
        <time>2014-03-02T10:17:49Z</time>
      </trkpt>
      <trkpt lat="41.649040000" lon="2.544383360">
        <ele>409.80</ele>
        <time>2014-03-02T10:17:50Z</time>
      </trkpt>
      <trkpt lat="41.649040000" lon="2.544383360">
        <ele>409.90</ele>
        <time>2014-03-02T10:17:51Z</time>
      </trkpt>
      <trkpt lat="41.649040000" lon="2.544383360">
        <ele>409.90</ele>
        <time>2014-03-02T10:17:52Z</time>
      </trkpt>
      <trkpt lat="41.649040000" lon="2.544383360">
        <ele>409.90</ele>
        <time>2014-03-02T10:17:53Z</time>
      </trkpt>
      <trkpt lat="41.649040000" lon="2.544385040">
        <ele>410.10</ele>
        <time>2014-03-02T10:17:54Z</time>
      </trkpt>
      <trkpt lat="41.649040000" lon="2.544385040">
        <ele>410.20</ele>
        <time>2014-03-02T10:17:55Z</time>
      </trkpt>
      <trkpt lat="41.649041670" lon="2.544385040">
        <ele>410.00</ele>
        <time>2014-03-02T10:17:56Z</time>
      </trkpt>
      <trkpt lat="41.649043350" lon="2.544386720">
        <ele>409.90</ele>
        <time>2014-03-02T10:17:57Z</time>
      </trkpt>
      <trkpt lat="41.649043350" lon="2.544386720">
        <ele>409.70</ele>
        <time>2014-03-02T10:17:58Z</time>
      </trkpt>
      <trkpt lat="41.649045030" lon="2.544388390">
        <ele>409.70</ele>
        <time>2014-03-02T10:17:59Z</time>
      </trkpt>
      <trkpt lat="41.649046700" lon="2.544388390">
        <ele>409.70</ele>
        <time>2014-03-02T10:18:00Z</time>
      </trkpt>
      <trkpt lat="41.649046700" lon="2.544390070">
        <ele>409.40</ele>
        <time>2014-03-02T10:18:01Z</time>
      </trkpt>
      <trkpt lat="41.649048380" lon="2.544390070">
        <ele>409.10</ele>
        <time>2014-03-02T10:18:02Z</time>
      </trkpt>
      <trkpt lat="41.649050060" lon="2.544391750">
        <ele>408.90</ele>
        <time>2014-03-02T10:18:03Z</time>
      </trkpt>
      <trkpt lat="41.649050060" lon="2.544391750">
        <ele>409.20</ele>
        <time>2014-03-02T10:18:04Z</time>
      </trkpt>
      <trkpt lat="41.649051730" lon="2.544393420">
        <ele>409.40</ele>
        <time>2014-03-02T10:18:05Z</time>
      </trkpt>
      <trkpt lat="41.649051730" lon="2.544393420">
        <ele>408.80</ele>
        <time>2014-03-02T10:18:06Z</time>
      </trkpt>
      <trkpt lat="41.649053410" lon="2.544395100">
        <ele>408.30</ele>
        <time>2014-03-02T10:18:07Z</time>
      </trkpt>
      <trkpt lat="41.649053410" lon="2.544395100">
        <ele>408.50</ele>
        <time>2014-03-02T10:18:08Z</time>
      </trkpt>
      <trkpt lat="41.649053410" lon="2.544395100">
        <ele>408.60</ele>
        <time>2014-03-02T10:18:09Z</time>
      </trkpt>
      <trkpt lat="41.649055080" lon="2.544395100">
        <ele>408.70</ele>
        <time>2014-03-02T10:18:10Z</time>
      </trkpt>
      <trkpt lat="41.649055080" lon="2.544395100">
        <ele>408.70</ele>
        <time>2014-03-02T10:18:11Z</time>
      </trkpt>
      <trkpt lat="41.649055080" lon="2.544395100">
        <ele>408.70</ele>
        <time>2014-03-02T10:18:12Z</time>
      </trkpt>
      <trkpt lat="41.649055080" lon="2.544396780">
        <ele>408.60</ele>
        <time>2014-03-02T10:18:13Z</time>
      </trkpt>
      <trkpt lat="41.649056760" lon="2.544396780">
        <ele>408.40</ele>
        <time>2014-03-02T10:18:14Z</time>
      </trkpt>
      <trkpt lat="41.649056760" lon="2.544396780">
        <ele>408.30</ele>
        <time>2014-03-02T10:18:15Z</time>
      </trkpt>
      <trkpt lat="41.649056760" lon="2.544396780">
        <ele>408.90</ele>
        <time>2014-03-02T10:18:16Z</time>
      </trkpt>
      <trkpt lat="41.649056760" lon="2.544396780">
        <ele>409.30</ele>
        <time>2014-03-02T10:18:17Z</time>
      </trkpt>
      <trkpt lat="41.649056760" lon="2.544398450">
        <ele>409.50</ele>
        <time>2014-03-02T10:18:18Z</time>
      </trkpt>
      <trkpt lat="41.649056760" lon="2.544398450">
        <ele>409.60</ele>
        <time>2014-03-02T10:18:19Z</time>
      </trkpt>
      <trkpt lat="41.649058440" lon="2.544398450">
        <ele>409.70</ele>
        <time>2014-03-02T10:18:20Z</time>
      </trkpt>
      <trkpt lat="41.649058440" lon="2.544398450">
        <ele>409.70</ele>
        <time>2014-03-02T10:18:21Z</time>
      </trkpt>
      <trkpt lat="41.649058440" lon="2.544398450">
        <ele>409.80</ele>
        <time>2014-03-02T10:18:22Z</time>
      </trkpt>
      <trkpt lat="41.649058440" lon="2.544400130">
        <ele>409.40</ele>
        <time>2014-03-02T10:18:23Z</time>
      </trkpt>
      <trkpt lat="41.649058440" lon="2.544400130">
        <ele>409.20</ele>
        <time>2014-03-02T10:18:24Z</time>
      </trkpt>
      <trkpt lat="41.649058440" lon="2.544400130">
        <ele>409.00</ele>
        <time>2014-03-02T10:18:25Z</time>
      </trkpt>
      <trkpt lat="41.649058440" lon="2.544400130">
        <ele>408.90</ele>
        <time>2014-03-02T10:18:26Z</time>
      </trkpt>
      <trkpt lat="41.649058440" lon="2.544400130">
        <ele>408.90</ele>
        <time>2014-03-02T10:18:27Z</time>
      </trkpt>
      <trkpt lat="41.649058440" lon="2.544401800">
        <ele>408.90</ele>
        <time>2014-03-02T10:18:28Z</time>
      </trkpt>
      <trkpt lat="41.649058440" lon="2.544401800">
        <ele>408.90</ele>
        <time>2014-03-02T10:18:29Z</time>
      </trkpt>
      <trkpt lat="41.649058440" lon="2.544401800">
        <ele>409.00</ele>
        <time>2014-03-02T10:18:30Z</time>
      </trkpt>
      <trkpt lat="41.649058440" lon="2.544401800">
        <ele>409.10</ele>
        <time>2014-03-02T10:18:31Z</time>
      </trkpt>
      <trkpt lat="41.649058440" lon="2.544401800">
        <ele>409.20</ele>
        <time>2014-03-02T10:18:32Z</time>
      </trkpt>
      <trkpt lat="41.649058440" lon="2.544403480">
        <ele>409.20</ele>
        <time>2014-03-02T10:18:33Z</time>
      </trkpt>
      <trkpt lat="41.649058440" lon="2.544403480">
        <ele>409.40</ele>
        <time>2014-03-02T10:18:34Z</time>
      </trkpt>
      <trkpt lat="41.649058440" lon="2.544403480">
        <ele>409.50</ele>
        <time>2014-03-02T10:18:35Z</time>
      </trkpt>
      <trkpt lat="41.649058440" lon="2.544403480">
        <ele>409.50</ele>
        <time>2014-03-02T10:18:36Z</time>
      </trkpt>
      <trkpt lat="41.649058440" lon="2.544403480">
        <ele>409.20</ele>
        <time>2014-03-02T10:18:37Z</time>
      </trkpt>
      <trkpt lat="41.649058440" lon="2.544403480">
        <ele>409.00</ele>
        <time>2014-03-02T10:18:38Z</time>
      </trkpt>
      <trkpt lat="41.649060110" lon="2.544403480">
        <ele>409.10</ele>
        <time>2014-03-02T10:18:39Z</time>
      </trkpt>
      <trkpt lat="41.649060110" lon="2.544403480">
        <ele>409.20</ele>
        <time>2014-03-02T10:18:40Z</time>
      </trkpt>
      <trkpt lat="41.649060110" lon="2.544405160">
        <ele>409.30</ele>
        <time>2014-03-02T10:18:41Z</time>
      </trkpt>
      <trkpt lat="41.649060110" lon="2.544405160">
        <ele>409.30</ele>
        <time>2014-03-02T10:18:42Z</time>
      </trkpt>
      <trkpt lat="41.649060110" lon="2.544405160">
        <ele>409.30</ele>
        <time>2014-03-02T10:18:43Z</time>
      </trkpt>
      <trkpt lat="41.649061790" lon="2.544405160">
        <ele>409.20</ele>
        <time>2014-03-02T10:18:44Z</time>
      </trkpt>
      <trkpt lat="41.649061790" lon="2.544405160">
        <ele>409.10</ele>
        <time>2014-03-02T10:18:45Z</time>
      </trkpt>
      <trkpt lat="41.649061790" lon="2.544406670">
        <ele>409.00</ele>
        <time>2014-03-02T10:18:46Z</time>
      </trkpt>
      <trkpt lat="41.649061790" lon="2.544406670">
        <ele>409.00</ele>
        <time>2014-03-02T10:18:47Z</time>
      </trkpt>
      <trkpt lat="41.649061790" lon="2.544406670">
        <ele>409.00</ele>
        <time>2014-03-02T10:18:48Z</time>
      </trkpt>
      <trkpt lat="41.649061790" lon="2.544406670">
        <ele>408.80</ele>
        <time>2014-03-02T10:18:49Z</time>
      </trkpt>
      <trkpt lat="41.649063470" lon="2.544408340">
        <ele>408.70</ele>
        <time>2014-03-02T10:18:50Z</time>
      </trkpt>
      <trkpt lat="41.649063470" lon="2.544408340">
        <ele>408.80</ele>
        <time>2014-03-02T10:18:51Z</time>
      </trkpt>
      <trkpt lat="41.649063470" lon="2.544408340">
        <ele>408.80</ele>
        <time>2014-03-02T10:18:52Z</time>
      </trkpt>
      <trkpt lat="41.649063470" lon="2.544408340">
        <ele>408.70</ele>
        <time>2014-03-02T10:18:53Z</time>
      </trkpt>
      <trkpt lat="41.649063470" lon="2.544410020">
        <ele>408.60</ele>
        <time>2014-03-02T10:18:54Z</time>
      </trkpt>
      <trkpt lat="41.649063470" lon="2.544410020">
        <ele>408.60</ele>
        <time>2014-03-02T10:18:55Z</time>
      </trkpt>
      <trkpt lat="41.649063470" lon="2.544410020">
        <ele>408.50</ele>
        <time>2014-03-02T10:18:56Z</time>
      </trkpt>
      <trkpt lat="41.649063470" lon="2.544410020">
        <ele>408.40</ele>
        <time>2014-03-02T10:18:57Z</time>
      </trkpt>
      <trkpt lat="41.649063470" lon="2.544411700">
        <ele>408.70</ele>
        <time>2014-03-02T10:18:58Z</time>
      </trkpt>
      <trkpt lat="41.649063470" lon="2.544411700">
        <ele>408.90</ele>
        <time>2014-03-02T10:18:59Z</time>
      </trkpt>
      <trkpt lat="41.649065140" lon="2.544411700">
        <ele>409.00</ele>
        <time>2014-03-02T10:19:00Z</time>
      </trkpt>
      <trkpt lat="41.649065140" lon="2.544411700">
        <ele>409.10</ele>
        <time>2014-03-02T10:19:01Z</time>
      </trkpt>
      <trkpt lat="41.649065140" lon="2.544411700">
        <ele>409.10</ele>
        <time>2014-03-02T10:19:02Z</time>
      </trkpt>
      <trkpt lat="41.649065140" lon="2.544413370">
        <ele>409.00</ele>
        <time>2014-03-02T10:19:03Z</time>
      </trkpt>
      <trkpt lat="41.649065140" lon="2.544413370">
        <ele>408.90</ele>
        <time>2014-03-02T10:19:04Z</time>
      </trkpt>
      <trkpt lat="41.649065140" lon="2.544413370">
        <ele>408.70</ele>
        <time>2014-03-02T10:19:05Z</time>
      </trkpt>
      <trkpt lat="41.649066820" lon="2.544413370">
        <ele>408.60</ele>
        <time>2014-03-02T10:19:06Z</time>
      </trkpt>
      <trkpt lat="41.649066820" lon="2.544415050">
        <ele>408.50</ele>
        <time>2014-03-02T10:19:07Z</time>
      </trkpt>
      <trkpt lat="41.649068500" lon="2.544415050">
        <ele>408.70</ele>
        <time>2014-03-02T10:19:08Z</time>
      </trkpt>
      <trkpt lat="41.649068500" lon="2.544416720">
        <ele>408.80</ele>
        <time>2014-03-02T10:19:09Z</time>
      </trkpt>
      <trkpt lat="41.649068500" lon="2.544416720">
        <ele>408.70</ele>
        <time>2014-03-02T10:19:10Z</time>
      </trkpt>
      <trkpt lat="41.649070000" lon="2.544416720">
        <ele>408.70</ele>
        <time>2014-03-02T10:19:11Z</time>
      </trkpt>
      <trkpt lat="41.649068500" lon="2.544416720">
        <ele>408.80</ele>
        <time>2014-03-02T10:19:12Z</time>
      </trkpt>
      <trkpt lat="41.649068500" lon="2.544416720">
        <ele>409.00</ele>
        <time>2014-03-02T10:19:13Z</time>
      </trkpt>
      <trkpt lat="41.649066820" lon="2.544416720">
        <ele>409.10</ele>
        <time>2014-03-02T10:19:14Z</time>
      </trkpt>
      <trkpt lat="41.649065140" lon="2.544416720">
        <ele>408.90</ele>
        <time>2014-03-02T10:19:15Z</time>
      </trkpt>
      <trkpt lat="41.649063470" lon="2.544415050">
        <ele>408.70</ele>
        <time>2014-03-02T10:19:16Z</time>
      </trkpt>
      <trkpt lat="41.649061790" lon="2.544415050">
        <ele>408.40</ele>
        <time>2014-03-02T10:19:17Z</time>
      </trkpt>
      <trkpt lat="41.649060110" lon="2.544415050">
        <ele>408.20</ele>
        <time>2014-03-02T10:19:18Z</time>
      </trkpt>
      <trkpt lat="41.649058440" lon="2.544415050">
        <ele>408.10</ele>
        <time>2014-03-02T10:19:19Z</time>
      </trkpt>
      <trkpt lat="41.649056760" lon="2.544415050">
        <ele>408.30</ele>
        <time>2014-03-02T10:19:20Z</time>
      </trkpt>
      <trkpt lat="41.649055080" lon="2.544415050">
        <ele>408.40</ele>
        <time>2014-03-02T10:19:21Z</time>
      </trkpt>
      <trkpt lat="41.649053410" lon="2.544413370">
        <ele>408.40</ele>
        <time>2014-03-02T10:19:22Z</time>
      </trkpt>
      <trkpt lat="41.649051730" lon="2.544413370">
        <ele>408.30</ele>
        <time>2014-03-02T10:19:23Z</time>
      </trkpt>
      <trkpt lat="41.649050060" lon="2.544413370">
        <ele>408.40</ele>
        <time>2014-03-02T10:19:24Z</time>
      </trkpt>
      <trkpt lat="41.649048380" lon="2.544413370">
        <ele>408.50</ele>
        <time>2014-03-02T10:19:25Z</time>
      </trkpt>
      <trkpt lat="41.649046700" lon="2.544413370">
        <ele>408.60</ele>
        <time>2014-03-02T10:19:26Z</time>
      </trkpt>
      <trkpt lat="41.649045030" lon="2.544411700">
        <ele>408.70</ele>
        <time>2014-03-02T10:19:27Z</time>
      </trkpt>
      <trkpt lat="41.649043350" lon="2.544411700">
        <ele>408.80</ele>
        <time>2014-03-02T10:19:28Z</time>
      </trkpt>
      <trkpt lat="41.649041670" lon="2.544411700">
        <ele>408.70</ele>
        <time>2014-03-02T10:19:29Z</time>
      </trkpt>
      <trkpt lat="41.649040000" lon="2.544411700">
        <ele>408.60</ele>
        <time>2014-03-02T10:19:30Z</time>
      </trkpt>
      <trkpt lat="41.649038490" lon="2.544411700">
        <ele>408.50</ele>
        <time>2014-03-02T10:19:31Z</time>
      </trkpt>
      <trkpt lat="41.649038490" lon="2.544411700">
        <ele>408.40</ele>
        <time>2014-03-02T10:19:32Z</time>
      </trkpt>
      <trkpt lat="41.649036810" lon="2.544410020">
        <ele>408.40</ele>
        <time>2014-03-02T10:19:33Z</time>
      </trkpt>
      <trkpt lat="41.649035140" lon="2.544410020">
        <ele>408.30</ele>
        <time>2014-03-02T10:19:34Z</time>
      </trkpt>
      <trkpt lat="41.649033460" lon="2.544410020">
        <ele>408.30</ele>
        <time>2014-03-02T10:19:35Z</time>
      </trkpt>
      <trkpt lat="41.649033460" lon="2.544410020">
        <ele>408.30</ele>
        <time>2014-03-02T10:19:36Z</time>
      </trkpt>
      <trkpt lat="41.649031780" lon="2.544410020">
        <ele>408.40</ele>
        <time>2014-03-02T10:19:37Z</time>
      </trkpt>
      <trkpt lat="41.649031780" lon="2.544410020">
        <ele>408.40</ele>
        <time>2014-03-02T10:19:38Z</time>
      </trkpt>
      <trkpt lat="41.649030110" lon="2.544410020">
        <ele>408.20</ele>
        <time>2014-03-02T10:19:39Z</time>
      </trkpt>
      <trkpt lat="41.649030110" lon="2.544410020">
        <ele>408.00</ele>
        <time>2014-03-02T10:19:40Z</time>
      </trkpt>
      <trkpt lat="41.649028430" lon="2.544410020">
        <ele>408.20</ele>
        <time>2014-03-02T10:19:41Z</time>
      </trkpt>
      <trkpt lat="41.649026750" lon="2.544410020">
        <ele>408.40</ele>
        <time>2014-03-02T10:19:42Z</time>
      </trkpt>
      <trkpt lat="41.649026750" lon="2.544410020">
        <ele>407.80</ele>
        <time>2014-03-02T10:19:43Z</time>
      </trkpt>
      <trkpt lat="41.649025080" lon="2.544410020">
        <ele>407.50</ele>
        <time>2014-03-02T10:19:44Z</time>
      </trkpt>
      <trkpt lat="41.649025080" lon="2.544410020">
        <ele>407.20</ele>
        <time>2014-03-02T10:19:45Z</time>
      </trkpt>
      <trkpt lat="41.649023400" lon="2.544410020">
        <ele>407.50</ele>
        <time>2014-03-02T10:19:46Z</time>
      </trkpt>
      <trkpt lat="41.649023400" lon="2.544410020">
        <ele>407.70</ele>
        <time>2014-03-02T10:19:47Z</time>
      </trkpt>
      <trkpt lat="41.649021720" lon="2.544408340">
        <ele>407.50</ele>
        <time>2014-03-02T10:19:48Z</time>
      </trkpt>
      <trkpt lat="41.649021720" lon="2.544408340">
        <ele>407.40</ele>
        <time>2014-03-02T10:19:49Z</time>
      </trkpt>
      <trkpt lat="41.649020050" lon="2.544408340">
        <ele>407.60</ele>
        <time>2014-03-02T10:19:50Z</time>
      </trkpt>
      <trkpt lat="41.649020050" lon="2.544408340">
        <ele>407.70</ele>
        <time>2014-03-02T10:19:51Z</time>
      </trkpt>
      <trkpt lat="41.649020050" lon="2.544408340">
        <ele>407.80</ele>
        <time>2014-03-02T10:19:52Z</time>
      </trkpt>
      <trkpt lat="41.649018370" lon="2.544408340">
        <ele>407.70</ele>
        <time>2014-03-02T10:19:53Z</time>
      </trkpt>
      <trkpt lat="41.649018370" lon="2.544408340">
        <ele>407.70</ele>
        <time>2014-03-02T10:19:54Z</time>
      </trkpt>
      <trkpt lat="41.649016700" lon="2.544408340">
        <ele>408.00</ele>
        <time>2014-03-02T10:19:55Z</time>
      </trkpt>
      <trkpt lat="41.649016700" lon="2.544408340">
        <ele>408.20</ele>
        <time>2014-03-02T10:19:56Z</time>
      </trkpt>
      <trkpt lat="41.649016700" lon="2.544408340">
        <ele>408.40</ele>
        <time>2014-03-02T10:19:57Z</time>
      </trkpt>
      <trkpt lat="41.649015020" lon="2.544408340">
        <ele>408.30</ele>
        <time>2014-03-02T10:19:58Z</time>
      </trkpt>
      <trkpt lat="41.649015020" lon="2.544408340">
        <ele>408.30</ele>
        <time>2014-03-02T10:19:59Z</time>
      </trkpt>
      <trkpt lat="41.649013340" lon="2.544408340">
        <ele>408.60</ele>
        <time>2014-03-02T10:20:00Z</time>
      </trkpt>
      <trkpt lat="41.649013340" lon="2.544408340">
        <ele>408.80</ele>
        <time>2014-03-02T10:20:01Z</time>
      </trkpt>
      <trkpt lat="41.649011670" lon="2.544408340">
        <ele>408.40</ele>
        <time>2014-03-02T10:20:02Z</time>
      </trkpt>
      <trkpt lat="41.649011670" lon="2.544408340">
        <ele>408.00</ele>
        <time>2014-03-02T10:20:03Z</time>
      </trkpt>
      <trkpt lat="41.649010160" lon="2.544408340">
        <ele>407.80</ele>
        <time>2014-03-02T10:20:04Z</time>
      </trkpt>
      <trkpt lat="41.649010160" lon="2.544408340">
        <ele>407.90</ele>
        <time>2014-03-02T10:20:05Z</time>
      </trkpt>
      <trkpt lat="41.649010160" lon="2.544408340">
        <ele>408.00</ele>
        <time>2014-03-02T10:20:06Z</time>
      </trkpt>
      <trkpt lat="41.649008480" lon="2.544408340">
        <ele>407.80</ele>
        <time>2014-03-02T10:20:07Z</time>
      </trkpt>
      <trkpt lat="41.649006810" lon="2.544408340">
        <ele>407.70</ele>
        <time>2014-03-02T10:20:08Z</time>
      </trkpt>
      <trkpt lat="41.649006810" lon="2.544406670">
        <ele>407.70</ele>
        <time>2014-03-02T10:20:09Z</time>
      </trkpt>
      <trkpt lat="41.649005130" lon="2.544406670">
        <ele>407.60</ele>
        <time>2014-03-02T10:20:10Z</time>
      </trkpt>
      <trkpt lat="41.649005130" lon="2.544406670">
        <ele>407.60</ele>
        <time>2014-03-02T10:20:11Z</time>
      </trkpt>
      <trkpt lat="41.649005130" lon="2.544406670">
        <ele>407.60</ele>
        <time>2014-03-02T10:20:12Z</time>
      </trkpt>
      <trkpt lat="41.649003450" lon="2.544408340">
        <ele>407.70</ele>
        <time>2014-03-02T10:20:13Z</time>
      </trkpt>
      <trkpt lat="41.649003450" lon="2.544406670">
        <ele>407.70</ele>
        <time>2014-03-02T10:20:14Z</time>
      </trkpt>
      <trkpt lat="41.649001780" lon="2.544406670">
        <ele>407.70</ele>
        <time>2014-03-02T10:20:15Z</time>
      </trkpt>
      <trkpt lat="41.649001780" lon="2.544406670">
        <ele>407.70</ele>
        <time>2014-03-02T10:20:16Z</time>
      </trkpt>
      <trkpt lat="41.649001780" lon="2.544406670">
        <ele>407.70</ele>
        <time>2014-03-02T10:20:17Z</time>
      </trkpt>
      <trkpt lat="41.649000100" lon="2.544406670">
        <ele>407.70</ele>
        <time>2014-03-02T10:20:18Z</time>
      </trkpt>
      <trkpt lat="41.649000100" lon="2.544406670">
        <ele>407.60</ele>
        <time>2014-03-02T10:20:19Z</time>
      </trkpt>
      <trkpt lat="41.649000100" lon="2.544406670">
        <ele>407.60</ele>
        <time>2014-03-02T10:20:20Z</time>
      </trkpt>
      <trkpt lat="41.648998420" lon="2.544406670">
        <ele>407.50</ele>
        <time>2014-03-02T10:20:21Z</time>
      </trkpt>
      <trkpt lat="41.648998420" lon="2.544406670">
        <ele>407.40</ele>
        <time>2014-03-02T10:20:22Z</time>
      </trkpt>
      <trkpt lat="41.648996750" lon="2.544406670">
        <ele>407.30</ele>
        <time>2014-03-02T10:20:23Z</time>
      </trkpt>
      <trkpt lat="41.648996750" lon="2.544406670">
        <ele>407.60</ele>
        <time>2014-03-02T10:20:24Z</time>
      </trkpt>
      <trkpt lat="41.648995070" lon="2.544408340">
        <ele>407.80</ele>
        <time>2014-03-02T10:20:25Z</time>
      </trkpt>
      <trkpt lat="41.648995070" lon="2.544408340">
        <ele>408.00</ele>
        <time>2014-03-02T10:20:26Z</time>
      </trkpt>
      <trkpt lat="41.648993390" lon="2.544408340">
        <ele>408.20</ele>
        <time>2014-03-02T10:20:27Z</time>
      </trkpt>
      <trkpt lat="41.648993390" lon="2.544408340">
        <ele>407.90</ele>
        <time>2014-03-02T10:20:28Z</time>
      </trkpt>
      <trkpt lat="41.648991720" lon="2.544408340">
        <ele>407.70</ele>
        <time>2014-03-02T10:20:29Z</time>
      </trkpt>
      <trkpt lat="41.648991720" lon="2.544408340">
        <ele>407.60</ele>
        <time>2014-03-02T10:20:30Z</time>
      </trkpt>
      <trkpt lat="41.648990040" lon="2.544408340">
        <ele>407.70</ele>
        <time>2014-03-02T10:20:31Z</time>
      </trkpt>
      <trkpt lat="41.648988360" lon="2.544408340">
        <ele>407.80</ele>
        <time>2014-03-02T10:20:32Z</time>
      </trkpt>
      <trkpt lat="41.648988360" lon="2.544408340">
        <ele>407.80</ele>
        <time>2014-03-02T10:20:33Z</time>
      </trkpt>
      <trkpt lat="41.648986690" lon="2.544408340">
        <ele>407.90</ele>
        <time>2014-03-02T10:20:34Z</time>
      </trkpt>
      <trkpt lat="41.648986690" lon="2.544408340">
        <ele>407.90</ele>
        <time>2014-03-02T10:20:35Z</time>
      </trkpt>
      <trkpt lat="41.648985010" lon="2.544408340">
        <ele>407.60</ele>
        <time>2014-03-02T10:20:36Z</time>
      </trkpt>
      <trkpt lat="41.648985010" lon="2.544408340">
        <ele>407.50</ele>
        <time>2014-03-02T10:20:37Z</time>
      </trkpt>
      <trkpt lat="41.648983340" lon="2.544410020">
        <ele>407.90</ele>
        <time>2014-03-02T10:20:38Z</time>
      </trkpt>
      <trkpt lat="41.648983340" lon="2.544410020">
        <ele>408.20</ele>
        <time>2014-03-02T10:20:39Z</time>
      </trkpt>
      <trkpt lat="41.648983340" lon="2.544410020">
        <ele>408.20</ele>
        <time>2014-03-02T10:20:40Z</time>
      </trkpt>
      <trkpt lat="41.648981830" lon="2.544410020">
        <ele>408.30</ele>
        <time>2014-03-02T10:20:41Z</time>
      </trkpt>
      <trkpt lat="41.648981830" lon="2.544410020">
        <ele>408.30</ele>
        <time>2014-03-02T10:20:42Z</time>
      </trkpt>
      <trkpt lat="41.648981830" lon="2.544410020">
        <ele>408.00</ele>
        <time>2014-03-02T10:20:43Z</time>
      </trkpt>
      <trkpt lat="41.648981830" lon="2.544408340">
        <ele>407.90</ele>
        <time>2014-03-02T10:20:44Z</time>
      </trkpt>
      <trkpt lat="41.648980150" lon="2.544410020">
        <ele>407.70</ele>
        <time>2014-03-02T10:20:45Z</time>
      </trkpt>
      <trkpt lat="41.648978470" lon="2.544410020">
        <ele>407.60</ele>
        <time>2014-03-02T10:20:46Z</time>
      </trkpt>
      <trkpt lat="41.648978470" lon="2.544410020">
        <ele>407.80</ele>
        <time>2014-03-02T10:20:47Z</time>
      </trkpt>
      <trkpt lat="41.648975120" lon="2.544410020">
        <ele>408.00</ele>
        <time>2014-03-02T10:20:48Z</time>
      </trkpt>
      <trkpt lat="41.648970090" lon="2.544410020">
        <ele>408.20</ele>
        <time>2014-03-02T10:20:49Z</time>
      </trkpt>
      <trkpt lat="41.648966740" lon="2.544411700">
        <ele>407.90</ele>
        <time>2014-03-02T10:20:50Z</time>
      </trkpt>
      <trkpt lat="41.648965060" lon="2.544411700">
        <ele>407.80</ele>
        <time>2014-03-02T10:20:51Z</time>
      </trkpt>
      <trkpt lat="41.648961710" lon="2.544411700">
        <ele>407.60</ele>
        <time>2014-03-02T10:20:52Z</time>
      </trkpt>
      <trkpt lat="41.648958360" lon="2.544413370">
        <ele>407.50</ele>
        <time>2014-03-02T10:20:53Z</time>
      </trkpt>
      <trkpt lat="41.648956680" lon="2.544413370">
        <ele>407.40</ele>
        <time>2014-03-02T10:20:54Z</time>
      </trkpt>
      <trkpt lat="41.648953330" lon="2.544413370">
        <ele>407.20</ele>
        <time>2014-03-02T10:20:55Z</time>
      </trkpt>
      <trkpt lat="41.648951820" lon="2.544413370">
        <ele>407.10</ele>
        <time>2014-03-02T10:20:56Z</time>
      </trkpt>
      <trkpt lat="41.648950140" lon="2.544413370">
        <ele>407.20</ele>
        <time>2014-03-02T10:20:57Z</time>
      </trkpt>
      <trkpt lat="41.648950140" lon="2.544413370">
        <ele>407.20</ele>
        <time>2014-03-02T10:20:58Z</time>
      </trkpt>
      <trkpt lat="41.648948470" lon="2.544415050">
        <ele>407.30</ele>
        <time>2014-03-02T10:20:59Z</time>
      </trkpt>
      <trkpt lat="41.648946790" lon="2.544415050">
        <ele>407.40</ele>
        <time>2014-03-02T10:21:00Z</time>
      </trkpt>
      <trkpt lat="41.648945110" lon="2.544415050">
        <ele>407.40</ele>
        <time>2014-03-02T10:21:01Z</time>
      </trkpt>
      <trkpt lat="41.648943440" lon="2.544416720">
        <ele>407.80</ele>
        <time>2014-03-02T10:21:02Z</time>
      </trkpt>
      <trkpt lat="41.648943440" lon="2.544416720">
        <ele>408.00</ele>
        <time>2014-03-02T10:21:03Z</time>
      </trkpt>
      <trkpt lat="41.648941760" lon="2.544416720">
        <ele>407.80</ele>
        <time>2014-03-02T10:21:04Z</time>
      </trkpt>
      <trkpt lat="41.648940090" lon="2.544416720">
        <ele>407.60</ele>
        <time>2014-03-02T10:21:05Z</time>
      </trkpt>
      <trkpt lat="41.648940090" lon="2.544418400">
        <ele>407.40</ele>
        <time>2014-03-02T10:21:06Z</time>
      </trkpt>
      <trkpt lat="41.648938410" lon="2.544418400">
        <ele>407.20</ele>
        <time>2014-03-02T10:21:07Z</time>
      </trkpt>
      <trkpt lat="41.648936730" lon="2.544418400">
        <ele>407.10</ele>
        <time>2014-03-02T10:21:08Z</time>
      </trkpt>
      <trkpt lat="41.648936730" lon="2.544420080">
        <ele>406.60</ele>
        <time>2014-03-02T10:21:09Z</time>
      </trkpt>
      <trkpt lat="41.648936730" lon="2.544420080">
        <ele>406.30</ele>
        <time>2014-03-02T10:21:10Z</time>
      </trkpt>
      <trkpt lat="41.648935060" lon="2.544420080">
        <ele>406.60</ele>
        <time>2014-03-02T10:21:11Z</time>
      </trkpt>
      <trkpt lat="41.648933380" lon="2.544420080">
        <ele>406.90</ele>
        <time>2014-03-02T10:21:12Z</time>
      </trkpt>
      <trkpt lat="41.648930030" lon="2.544420080">
        <ele>407.10</ele>
        <time>2014-03-02T10:21:13Z</time>
      </trkpt>
      <trkpt lat="41.648925000" lon="2.544416720">
        <ele>406.90</ele>
        <time>2014-03-02T10:21:14Z</time>
      </trkpt>
      <trkpt lat="41.648923490" lon="2.544410020">
        <ele>406.80</ele>
        <time>2014-03-02T10:21:15Z</time>
      </trkpt>
      <trkpt lat="41.648926670" lon="2.544398450">
        <ele>406.40</ele>
        <time>2014-03-02T10:21:16Z</time>
      </trkpt>
      <trkpt lat="41.648930030" lon="2.544390070">
        <ele>406.10</ele>
        <time>2014-03-02T10:21:17Z</time>
      </trkpt>
      <trkpt lat="41.648931700" lon="2.544385040">
        <ele>406.50</ele>
        <time>2014-03-02T10:21:18Z</time>
      </trkpt>
      <trkpt lat="41.648931700" lon="2.544381690">
        <ele>406.80</ele>
        <time>2014-03-02T10:21:19Z</time>
      </trkpt>
      <trkpt lat="41.648933380" lon="2.544375150">
        <ele>407.10</ele>
        <time>2014-03-02T10:21:20Z</time>
      </trkpt>
      <trkpt lat="41.648933380" lon="2.544370120">
        <ele>407.10</ele>
        <time>2014-03-02T10:21:21Z</time>
      </trkpt>
      <trkpt lat="41.648931700" lon="2.544368440">
        <ele>407.10</ele>
        <time>2014-03-02T10:21:22Z</time>
      </trkpt>
      <trkpt lat="41.648931700" lon="2.544365090">
        <ele>407.20</ele>
        <time>2014-03-02T10:21:23Z</time>
      </trkpt>
      <trkpt lat="41.648933380" lon="2.544363420">
        <ele>407.20</ele>
        <time>2014-03-02T10:21:24Z</time>
      </trkpt>
      <trkpt lat="41.648931700" lon="2.544361740">
        <ele>407.20</ele>
        <time>2014-03-02T10:21:25Z</time>
      </trkpt>
      <trkpt lat="41.648931700" lon="2.544360060">
        <ele>407.20</ele>
        <time>2014-03-02T10:21:26Z</time>
      </trkpt>
      <trkpt lat="41.648930030" lon="2.544356710">
        <ele>407.20</ele>
        <time>2014-03-02T10:21:27Z</time>
      </trkpt>
      <trkpt lat="41.648930030" lon="2.544355030">
        <ele>407.20</ele>
        <time>2014-03-02T10:21:28Z</time>
      </trkpt>
      <trkpt lat="41.648928350" lon="2.544353360">
        <ele>407.30</ele>
        <time>2014-03-02T10:21:29Z</time>
      </trkpt>
      <trkpt lat="41.648926670" lon="2.544351680">
        <ele>406.90</ele>
        <time>2014-03-02T10:21:30Z</time>
      </trkpt>
      <trkpt lat="41.648926670" lon="2.544350000">
        <ele>406.70</ele>
        <time>2014-03-02T10:21:31Z</time>
      </trkpt>
      <trkpt lat="41.648926670" lon="2.544351680">
        <ele>406.50</ele>
        <time>2014-03-02T10:21:32Z</time>
      </trkpt>
      <trkpt lat="41.648926670" lon="2.544350000">
        <ele>406.60</ele>
        <time>2014-03-02T10:21:33Z</time>
      </trkpt>
      <trkpt lat="41.648926670" lon="2.544348500">
        <ele>406.70</ele>
        <time>2014-03-02T10:21:34Z</time>
      </trkpt>
      <trkpt lat="41.648931700" lon="2.544340110">
        <ele>407.20</ele>
        <time>2014-03-02T10:21:35Z</time>
      </trkpt>
      <trkpt lat="41.648941760" lon="2.544328380">
        <ele>407.50</ele>
        <time>2014-03-02T10:21:36Z</time>
      </trkpt>
      <trkpt lat="41.648948470" lon="2.544316810">
        <ele>407.30</ele>
        <time>2014-03-02T10:21:37Z</time>
      </trkpt>
      <trkpt lat="41.648958360" lon="2.544301720">
        <ele>407.20</ele>
        <time>2014-03-02T10:21:38Z</time>
      </trkpt>
      <trkpt lat="41.648971770" lon="2.544288480">
        <ele>407.10</ele>
        <time>2014-03-02T10:21:39Z</time>
      </trkpt>
      <trkpt lat="41.648986690" lon="2.544278420">
        <ele>406.80</ele>
        <time>2014-03-02T10:21:40Z</time>
      </trkpt>
      <trkpt lat="41.649006810" lon="2.544270040">
        <ele>406.60</ele>
        <time>2014-03-02T10:21:41Z</time>
      </trkpt>
      <trkpt lat="41.649025080" lon="2.544263340">
        <ele>406.80</ele>
        <time>2014-03-02T10:21:42Z</time>
      </trkpt>
      <trkpt lat="41.649041670" lon="2.544260150">
        <ele>406.90</ele>
        <time>2014-03-02T10:21:43Z</time>
      </trkpt>
      <trkpt lat="41.649058440" lon="2.544256800">
        <ele>407.00</ele>
        <time>2014-03-02T10:21:44Z</time>
      </trkpt>
      <trkpt lat="41.649071680" lon="2.544256800">
        <ele>407.00</ele>
        <time>2014-03-02T10:21:45Z</time>
      </trkpt>
      <trkpt lat="41.649085090" lon="2.544260150">
        <ele>407.10</ele>
        <time>2014-03-02T10:21:46Z</time>
      </trkpt>
      <trkpt lat="41.649103360" lon="2.544263340">
        <ele>407.20</ele>
        <time>2014-03-02T10:21:47Z</time>
      </trkpt>
      <trkpt lat="41.649121800" lon="2.544268360">
        <ele>407.30</ele>
        <time>2014-03-02T10:21:48Z</time>
      </trkpt>
      <trkpt lat="41.649140080" lon="2.544271720">
        <ele>407.30</ele>
        <time>2014-03-02T10:21:49Z</time>
      </trkpt>
      <trkpt lat="41.649156670" lon="2.544273390">
        <ele>407.30</ele>
        <time>2014-03-02T10:21:50Z</time>
      </trkpt>
      <trkpt lat="41.649175110" lon="2.544276750">
        <ele>407.30</ele>
        <time>2014-03-02T10:21:51Z</time>
      </trkpt>
      <trkpt lat="41.649191710" lon="2.544278420">
        <ele>407.30</ele>
        <time>2014-03-02T10:21:52Z</time>
      </trkpt>
      <trkpt lat="41.649208470" lon="2.544283450">
        <ele>407.20</ele>
        <time>2014-03-02T10:21:53Z</time>
      </trkpt>
      <trkpt lat="41.649225070" lon="2.544291670">
        <ele>407.50</ele>
        <time>2014-03-02T10:21:54Z</time>
      </trkpt>
      <trkpt lat="41.649240160" lon="2.544301720">
        <ele>407.70</ele>
        <time>2014-03-02T10:21:55Z</time>
      </trkpt>
      <trkpt lat="41.649253400" lon="2.544315140">
        <ele>408.00</ele>
        <time>2014-03-02T10:21:56Z</time>
      </trkpt>
      <trkpt lat="41.649266810" lon="2.544331730">
        <ele>408.20</ele>
        <time>2014-03-02T10:21:57Z</time>
      </trkpt>
      <trkpt lat="41.649278380" lon="2.544346820">
        <ele>408.30</ele>
        <time>2014-03-02T10:21:58Z</time>
      </trkpt>
      <trkpt lat="41.649290110" lon="2.544363420">
        <ele>408.20</ele>
        <time>2014-03-02T10:21:59Z</time>
      </trkpt>
      <trkpt lat="41.649301680" lon="2.544376830">
        <ele>408.10</ele>
        <time>2014-03-02T10:22:00Z</time>
      </trkpt>
      <trkpt lat="41.649311740" lon="2.544391750">
        <ele>408.30</ele>
        <time>2014-03-02T10:22:01Z</time>
      </trkpt>
      <trkpt lat="41.649320120" lon="2.544410020">
        <ele>408.40</ele>
        <time>2014-03-02T10:22:02Z</time>
      </trkpt>
      <trkpt lat="41.649326830" lon="2.544426780">
        <ele>408.10</ele>
        <time>2014-03-02T10:22:03Z</time>
      </trkpt>
      <trkpt lat="41.649335040" lon="2.544438350">
        <ele>407.90</ele>
        <time>2014-03-02T10:22:04Z</time>
      </trkpt>
      <trkpt lat="41.649346780" lon="2.544453440">
        <ele>407.70</ele>
        <time>2014-03-02T10:22:05Z</time>
      </trkpt>
      <trkpt lat="41.649356670" lon="2.544470030">
        <ele>407.70</ele>
        <time>2014-03-02T10:22:06Z</time>
      </trkpt>
      <trkpt lat="41.649370080" lon="2.544486800">
        <ele>407.80</ele>
        <time>2014-03-02T10:22:07Z</time>
      </trkpt>
      <trkpt lat="41.649383490" lon="2.544503390">
        <ele>407.70</ele>
        <time>2014-03-02T10:22:08Z</time>
      </trkpt>
      <trkpt lat="41.649393380" lon="2.544526690">
        <ele>407.70</ele>
        <time>2014-03-02T10:22:09Z</time>
      </trkpt>
      <trkpt lat="41.649400080" lon="2.544550000">
        <ele>407.70</ele>
        <time>2014-03-02T10:22:10Z</time>
      </trkpt>
      <trkpt lat="41.649406790" lon="2.544568440">
        <ele>407.60</ele>
        <time>2014-03-02T10:22:11Z</time>
      </trkpt>
      <trkpt lat="41.649413490" lon="2.544585030">
        <ele>407.60</ele>
        <time>2014-03-02T10:22:12Z</time>
      </trkpt>
      <trkpt lat="41.649418360" lon="2.544608330">
        <ele>407.70</ele>
        <time>2014-03-02T10:22:13Z</time>
      </trkpt>
      <trkpt lat="41.649431770" lon="2.544635160">
        <ele>407.80</ele>
        <time>2014-03-02T10:22:14Z</time>
      </trkpt>
      <trkpt lat="41.649448360" lon="2.544665000">
        <ele>408.40</ele>
        <time>2014-03-02T10:22:15Z</time>
      </trkpt>
      <trkpt lat="41.649468480" lon="2.544701710">
        <ele>408.90</ele>
        <time>2014-03-02T10:22:16Z</time>
      </trkpt>
      <trkpt lat="41.649493460" lon="2.544741770">
        <ele>409.20</ele>
        <time>2014-03-02T10:22:17Z</time>
      </trkpt>
      <trkpt lat="41.649520110" lon="2.544786700">
        <ele>408.80</ele>
        <time>2014-03-02T10:22:18Z</time>
      </trkpt>
      <trkpt lat="41.649543410" lon="2.544835150">
        <ele>408.40</ele>
        <time>2014-03-02T10:22:19Z</time>
      </trkpt>
      <trkpt lat="41.649566720" lon="2.544885110">
        <ele>407.90</ele>
        <time>2014-03-02T10:22:20Z</time>
      </trkpt>
      <trkpt lat="41.649596720" lon="2.544933380">
        <ele>407.50</ele>
        <time>2014-03-02T10:22:21Z</time>
      </trkpt>
      <trkpt lat="41.649628410" lon="2.544981660">
        <ele>407.50</ele>
        <time>2014-03-02T10:22:22Z</time>
      </trkpt>
      <trkpt lat="41.649660090" lon="2.545033460">
        <ele>407.50</ele>
        <time>2014-03-02T10:22:23Z</time>
      </trkpt>
      <trkpt lat="41.649693450" lon="2.545080070">
        <ele>407.50</ele>
        <time>2014-03-02T10:22:24Z</time>
      </trkpt>
      <trkpt lat="41.649731670" lon="2.545120130">
        <ele>407.70</ele>
        <time>2014-03-02T10:22:25Z</time>
      </trkpt>
      <trkpt lat="41.649776770" lon="2.545145110">
        <ele>407.70</ele>
        <time>2014-03-02T10:22:26Z</time>
      </trkpt>
      <trkpt lat="41.649823370" lon="2.545151820">
        <ele>407.50</ele>
        <time>2014-03-02T10:22:27Z</time>
      </trkpt>
      <trkpt lat="41.649875000" lon="2.545143440">
        <ele>407.40</ele>
        <time>2014-03-02T10:22:28Z</time>
      </trkpt>
      <trkpt lat="41.649925130" lon="2.545123490">
        <ele>406.70</ele>
        <time>2014-03-02T10:22:29Z</time>
      </trkpt>
      <trkpt lat="41.649973410" lon="2.545101690">
        <ele>406.20</ele>
        <time>2014-03-02T10:22:30Z</time>
      </trkpt>
      <trkpt lat="41.650020010" lon="2.545080070">
        <ele>405.80</ele>
        <time>2014-03-02T10:22:31Z</time>
      </trkpt>
      <trkpt lat="41.650066780" lon="2.545065150">
        <ele>405.60</ele>
        <time>2014-03-02T10:22:32Z</time>
      </trkpt>
      <trkpt lat="41.650115060" lon="2.545058440">
        <ele>405.50</ele>
        <time>2014-03-02T10:22:33Z</time>
      </trkpt>
      <trkpt lat="41.650161660" lon="2.545060120">
        <ele>405.30</ele>
        <time>2014-03-02T10:22:34Z</time>
      </trkpt>
      <trkpt lat="41.650206760" lon="2.545071690">
        <ele>405.10</ele>
        <time>2014-03-02T10:22:35Z</time>
      </trkpt>
      <trkpt lat="41.650246820" lon="2.545098340">
        <ele>405.00</ele>
        <time>2014-03-02T10:22:36Z</time>
      </trkpt>
      <trkpt lat="41.650281690" lon="2.545140080">
        <ele>404.60</ele>
        <time>2014-03-02T10:22:37Z</time>
      </trkpt>
      <trkpt lat="41.650315050" lon="2.545193390">
        <ele>404.30</ele>
        <time>2014-03-02T10:22:38Z</time>
      </trkpt>
      <trkpt lat="41.650351770" lon="2.545248380">
        <ele>404.00</ele>
        <time>2014-03-02T10:22:39Z</time>
      </trkpt>
      <trkpt lat="41.650386800" lon="2.545303360">
        <ele>403.80</ele>
        <time>2014-03-02T10:22:40Z</time>
      </trkpt>
      <trkpt lat="41.650430050" lon="2.545356670">
        <ele>403.90</ele>
        <time>2014-03-02T10:22:41Z</time>
      </trkpt>
      <trkpt lat="41.650475150" lon="2.545410150">
        <ele>404.00</ele>
        <time>2014-03-02T10:22:42Z</time>
      </trkpt>
      <trkpt lat="41.650521750" lon="2.545468490">
        <ele>404.00</ele>
        <time>2014-03-02T10:22:43Z</time>
      </trkpt>
      <trkpt lat="41.650570030" lon="2.545528330">
        <ele>403.60</ele>
        <time>2014-03-02T10:22:44Z</time>
      </trkpt>
      <trkpt lat="41.650618480" lon="2.545588350">
        <ele>403.20</ele>
        <time>2014-03-02T10:22:45Z</time>
      </trkpt>
      <trkpt lat="41.650658380" lon="2.545643330">
        <ele>402.40</ele>
        <time>2014-03-02T10:22:46Z</time>
      </trkpt>
      <trkpt lat="41.650705150" lon="2.545686750">
        <ele>401.70</ele>
        <time>2014-03-02T10:22:47Z</time>
      </trkpt>
      <trkpt lat="41.650755100" lon="2.545725140">
        <ele>401.20</ele>
        <time>2014-03-02T10:22:48Z</time>
      </trkpt>
      <trkpt lat="41.650806730" lon="2.545758330">
        <ele>400.70</ele>
        <time>2014-03-02T10:22:49Z</time>
      </trkpt>
      <trkpt lat="41.650850150" lon="2.545795040">
        <ele>400.30</ele>
        <time>2014-03-02T10:22:50Z</time>
      </trkpt>
      <trkpt lat="41.650876810" lon="2.545846680">
        <ele>400.00</ele>
        <time>2014-03-02T10:22:51Z</time>
      </trkpt>
      <trkpt lat="41.650881670" lon="2.545905020">
        <ele>399.80</ele>
        <time>2014-03-02T10:22:52Z</time>
      </trkpt>
      <trkpt lat="41.650865070" lon="2.545953460">
        <ele>399.70</ele>
        <time>2014-03-02T10:22:53Z</time>
      </trkpt>
      <trkpt lat="41.650833390" lon="2.545983470">
        <ele>399.60</ele>
        <time>2014-03-02T10:22:54Z</time>
      </trkpt>
      <trkpt lat="41.650801710" lon="2.546000070">
        <ele>399.50</ele>
        <time>2014-03-02T10:22:55Z</time>
      </trkpt>
      <trkpt lat="41.650773370" lon="2.546020010">
        <ele>399.10</ele>
        <time>2014-03-02T10:22:56Z</time>
      </trkpt>
      <trkpt lat="41.650748400" lon="2.546046670">
        <ele>398.70</ele>
        <time>2014-03-02T10:22:57Z</time>
      </trkpt>
      <trkpt lat="41.650731800" lon="2.546073490">
        <ele>398.80</ele>
        <time>2014-03-02T10:22:58Z</time>
      </trkpt>
      <trkpt lat="41.650723420" lon="2.546101820">
        <ele>398.80</ele>
        <time>2014-03-02T10:22:59Z</time>
      </trkpt>
      <trkpt lat="41.650718390" lon="2.546135010">
        <ele>398.60</ele>
        <time>2014-03-02T10:23:00Z</time>
      </trkpt>
      <trkpt lat="41.650718390" lon="2.546166700">
        <ele>398.40</ele>
        <time>2014-03-02T10:23:01Z</time>
      </trkpt>
      <trkpt lat="41.650720070" lon="2.546201730">
        <ele>398.30</ele>
        <time>2014-03-02T10:23:02Z</time>
      </trkpt>
      <trkpt lat="41.650723420" lon="2.546236770">
        <ele>398.20</ele>
        <time>2014-03-02T10:23:03Z</time>
      </trkpt>
      <trkpt lat="41.650725100" lon="2.546278350">
        <ele>398.10</ele>
        <time>2014-03-02T10:23:04Z</time>
      </trkpt>
      <trkpt lat="41.650723420" lon="2.546328470">
        <ele>398.00</ele>
        <time>2014-03-02T10:23:05Z</time>
      </trkpt>
      <trkpt lat="41.650723420" lon="2.546388480">
        <ele>397.80</ele>
        <time>2014-03-02T10:23:06Z</time>
      </trkpt>
      <trkpt lat="41.650728450" lon="2.546446820">
        <ele>397.70</ele>
        <time>2014-03-02T10:23:07Z</time>
      </trkpt>
      <trkpt lat="41.650730120" lon="2.546491750">
        <ele>397.40</ele>
        <time>2014-03-02T10:23:08Z</time>
      </trkpt>
      <trkpt lat="41.650753430" lon="2.546525110">
        <ele>397.10</ele>
        <time>2014-03-02T10:23:09Z</time>
      </trkpt>
      <trkpt lat="41.650786790" lon="2.546558470">
        <ele>397.10</ele>
        <time>2014-03-02T10:23:10Z</time>
      </trkpt>
      <trkpt lat="41.650826680" lon="2.546588480">
        <ele>397.10</ele>
        <time>2014-03-02T10:23:11Z</time>
      </trkpt>
      <trkpt lat="41.650870100" lon="2.546618480">
        <ele>396.60</ele>
        <time>2014-03-02T10:23:12Z</time>
      </trkpt>
      <trkpt lat="41.650913350" lon="2.546628370">
        <ele>396.30</ele>
        <time>2014-03-02T10:23:13Z</time>
      </trkpt>
      <trkpt lat="41.650960120" lon="2.546618480">
        <ele>396.00</ele>
        <time>2014-03-02T10:23:14Z</time>
      </trkpt>
      <trkpt lat="41.651003370" lon="2.546593340">
        <ele>395.50</ele>
        <time>2014-03-02T10:23:15Z</time>
      </trkpt>
      <trkpt lat="41.651046790" lon="2.546568360">
        <ele>395.10</ele>
        <time>2014-03-02T10:23:16Z</time>
      </trkpt>
      <trkpt lat="41.651093400" lon="2.546553440">
        <ele>394.70</ele>
        <time>2014-03-02T10:23:17Z</time>
      </trkpt>
      <trkpt lat="41.651145030" lon="2.546551760">
        <ele>394.50</ele>
        <time>2014-03-02T10:23:18Z</time>
      </trkpt>
      <trkpt lat="41.651196830" lon="2.546563330">
        <ele>393.80</ele>
        <time>2014-03-02T10:23:19Z</time>
      </trkpt>
      <trkpt lat="41.651248460" lon="2.546591830">
        <ele>393.20</ele>
        <time>2014-03-02T10:23:20Z</time>
      </trkpt>
      <trkpt lat="41.651295060" lon="2.546633400">
        <ele>392.90</ele>
        <time>2014-03-02T10:23:21Z</time>
      </trkpt>
      <trkpt lat="41.651331780" lon="2.546688390">
        <ele>392.20</ele>
        <time>2014-03-02T10:23:22Z</time>
      </trkpt>
      <trkpt lat="41.651366810" lon="2.546763490">
        <ele>391.80</ele>
        <time>2014-03-02T10:23:23Z</time>
      </trkpt>
      <trkpt lat="41.651401680" lon="2.546850160">
        <ele>391.50</ele>
        <time>2014-03-02T10:23:24Z</time>
      </trkpt>
      <trkpt lat="41.651433370" lon="2.546931800">
        <ele>391.30</ele>
        <time>2014-03-02T10:23:25Z</time>
      </trkpt>
      <trkpt lat="41.651456670" lon="2.547006730">
        <ele>390.30</ele>
        <time>2014-03-02T10:23:26Z</time>
      </trkpt>
      <trkpt lat="41.651485000" lon="2.547073450">
        <ele>389.50</ele>
        <time>2014-03-02T10:23:27Z</time>
      </trkpt>
      <trkpt lat="41.651518360" lon="2.547128440">
        <ele>388.90</ele>
        <time>2014-03-02T10:23:28Z</time>
      </trkpt>
      <trkpt lat="41.651556750" lon="2.547183420">
        <ele>388.50</ele>
        <time>2014-03-02T10:23:29Z</time>
      </trkpt>
      <trkpt lat="41.651598490" lon="2.547235060">
        <ele>388.20</ele>
        <time>2014-03-02T10:23:30Z</time>
      </trkpt>
      <trkpt lat="41.651641740" lon="2.547273440">
        <ele>387.10</ele>
        <time>2014-03-02T10:23:31Z</time>
      </trkpt>
      <trkpt lat="41.651691700" lon="2.547305130">
        <ele>386.30</ele>
        <time>2014-03-02T10:23:32Z</time>
      </trkpt>
      <trkpt lat="41.651745010" lon="2.547321720">
        <ele>385.70</ele>
        <time>2014-03-02T10:23:33Z</time>
      </trkpt>
      <trkpt lat="41.651798480" lon="2.547330110">
        <ele>385.10</ele>
        <time>2014-03-02T10:23:34Z</time>
      </trkpt>
      <trkpt lat="41.651851790" lon="2.547340000">
        <ele>384.70</ele>
        <time>2014-03-02T10:23:35Z</time>
      </trkpt>
      <trkpt lat="41.651895040" lon="2.547360110">
        <ele>384.30</ele>
        <time>2014-03-02T10:23:36Z</time>
      </trkpt>
      <trkpt lat="41.651931750" lon="2.547398330">
        <ele>384.00</ele>
        <time>2014-03-02T10:23:37Z</time>
      </trkpt>
      <trkpt lat="41.651961760" lon="2.547443430">
        <ele>383.10</ele>
        <time>2014-03-02T10:23:38Z</time>
      </trkpt>
      <trkpt lat="41.651973500" lon="2.547488360">
        <ele>382.40</ele>
        <time>2014-03-02T10:23:39Z</time>
      </trkpt>
      <trkpt lat="41.651971820" lon="2.547531770">
        <ele>381.90</ele>
        <time>2014-03-02T10:23:40Z</time>
      </trkpt>
      <trkpt lat="41.651963440" lon="2.547568490">
        <ele>381.80</ele>
        <time>2014-03-02T10:23:41Z</time>
      </trkpt>
      <trkpt lat="41.651951700" lon="2.547601680">
        <ele>381.70</ele>
        <time>2014-03-02T10:23:42Z</time>
      </trkpt>
      <trkpt lat="41.651938460" lon="2.547631690">
        <ele>381.30</ele>
        <time>2014-03-02T10:23:43Z</time>
      </trkpt>
      <trkpt lat="41.651921700" lon="2.547655160">
        <ele>380.90</ele>
        <time>2014-03-02T10:23:44Z</time>
      </trkpt>
      <trkpt lat="41.651905100" lon="2.547675110">
        <ele>380.80</ele>
        <time>2014-03-02T10:23:45Z</time>
      </trkpt>
      <trkpt lat="41.651886830" lon="2.547696730">
        <ele>380.70</ele>
        <time>2014-03-02T10:23:46Z</time>
      </trkpt>
      <trkpt lat="41.651873420" lon="2.547715000">
        <ele>380.60</ele>
        <time>2014-03-02T10:23:47Z</time>
      </trkpt>
      <trkpt lat="41.651861680" lon="2.547731770">
        <ele>381.10</ele>
        <time>2014-03-02T10:23:48Z</time>
      </trkpt>
      <trkpt lat="41.651848440" lon="2.547750040">
        <ele>381.50</ele>
        <time>2014-03-02T10:23:49Z</time>
      </trkpt>
      <trkpt lat="41.651836700" lon="2.547765130">
        <ele>381.60</ele>
        <time>2014-03-02T10:23:50Z</time>
      </trkpt>
      <trkpt lat="41.651823460" lon="2.547781720">
        <ele>381.60</ele>
        <time>2014-03-02T10:23:51Z</time>
      </trkpt>
      <trkpt lat="41.651808370" lon="2.547800000">
        <ele>381.70</ele>
        <time>2014-03-02T10:23:52Z</time>
      </trkpt>
      <trkpt lat="41.651798480" lon="2.547818440">
        <ele>381.40</ele>
        <time>2014-03-02T10:23:53Z</time>
      </trkpt>
      <trkpt lat="41.651786750" lon="2.547841740">
        <ele>381.20</ele>
        <time>2014-03-02T10:23:54Z</time>
      </trkpt>
      <trkpt lat="41.651773340" lon="2.547865040">
        <ele>381.20</ele>
        <time>2014-03-02T10:23:55Z</time>
      </trkpt>
      <trkpt lat="41.651761770" lon="2.547890020">
        <ele>381.20</ele>
        <time>2014-03-02T10:23:56Z</time>
      </trkpt>
      <trkpt lat="41.651750030" lon="2.547915000">
        <ele>381.40</ele>
        <time>2014-03-02T10:23:57Z</time>
      </trkpt>
      <trkpt lat="41.651738470" lon="2.547941820">
        <ele>381.50</ele>
        <time>2014-03-02T10:23:58Z</time>
      </trkpt>
      <trkpt lat="41.651725060" lon="2.547965120">
        <ele>381.50</ele>
        <time>2014-03-02T10:23:59Z</time>
      </trkpt>
      <trkpt lat="41.651713490" lon="2.547991770">
        <ele>381.80</ele>
        <time>2014-03-02T10:24:00Z</time>
      </trkpt>
      <trkpt lat="41.651700080" lon="2.548015080">
        <ele>382.00</ele>
        <time>2014-03-02T10:24:01Z</time>
      </trkpt>
      <trkpt lat="41.651685160" lon="2.548041730">
        <ele>382.20</ele>
        <time>2014-03-02T10:24:02Z</time>
      </trkpt>
      <trkpt lat="41.651670070" lon="2.548065030">
        <ele>382.40</ele>
        <time>2014-03-02T10:24:03Z</time>
      </trkpt>
      <trkpt lat="41.651658340" lon="2.548083470">
        <ele>382.70</ele>
        <time>2014-03-02T10:24:04Z</time>
      </trkpt>
      <trkpt lat="41.651648450" lon="2.548105100">
        <ele>383.00</ele>
        <time>2014-03-02T10:24:05Z</time>
      </trkpt>
      <trkpt lat="41.651636710" lon="2.548128400">
        <ele>383.10</ele>
        <time>2014-03-02T10:24:06Z</time>
      </trkpt>
      <trkpt lat="41.651623470" lon="2.548156730">
        <ele>382.90</ele>
        <time>2014-03-02T10:24:07Z</time>
      </trkpt>
      <trkpt lat="41.651608380" lon="2.548186740">
        <ele>382.80</ele>
        <time>2014-03-02T10:24:08Z</time>
      </trkpt>
      <trkpt lat="41.651593460" lon="2.548216740">
        <ele>382.70</ele>
        <time>2014-03-02T10:24:09Z</time>
      </trkpt>
      <trkpt lat="41.651578370" lon="2.548246750">
        <ele>382.70</ele>
        <time>2014-03-02T10:24:10Z</time>
      </trkpt>
      <trkpt lat="41.651565130" lon="2.548276760">
        <ele>382.90</ele>
        <time>2014-03-02T10:24:11Z</time>
      </trkpt>
      <trkpt lat="41.651551720" lon="2.548308440">
        <ele>383.00</ele>
        <time>2014-03-02T10:24:12Z</time>
      </trkpt>
      <trkpt lat="41.651540150" lon="2.548338450">
        <ele>383.10</ele>
        <time>2014-03-02T10:24:13Z</time>
      </trkpt>
      <trkpt lat="41.651530090" lon="2.548368460">
        <ele>383.40</ele>
        <time>2014-03-02T10:24:14Z</time>
      </trkpt>
      <trkpt lat="41.651520030" lon="2.548396790">
        <ele>383.60</ele>
        <time>2014-03-02T10:24:15Z</time>
      </trkpt>
      <trkpt lat="41.651511820" lon="2.548426790">
        <ele>384.30</ele>
        <time>2014-03-02T10:24:16Z</time>
      </trkpt>
      <trkpt lat="41.651506790" lon="2.548456800">
        <ele>384.70</ele>
        <time>2014-03-02T10:24:17Z</time>
      </trkpt>
      <trkpt lat="41.651503440" lon="2.548490160">
        <ele>385.00</ele>
        <time>2014-03-02T10:24:18Z</time>
      </trkpt>
      <trkpt lat="41.651501760" lon="2.548523350">
        <ele>384.60</ele>
        <time>2014-03-02T10:24:19Z</time>
      </trkpt>
      <trkpt lat="41.651506790" lon="2.548555040">
        <ele>384.30</ele>
        <time>2014-03-02T10:24:20Z</time>
      </trkpt>
      <trkpt lat="41.651511820" lon="2.548588400">
        <ele>384.50</ele>
        <time>2014-03-02T10:24:21Z</time>
      </trkpt>
      <trkpt lat="41.651520030" lon="2.548616730">
        <ele>384.70</ele>
        <time>2014-03-02T10:24:22Z</time>
      </trkpt>
      <trkpt lat="41.651531770" lon="2.548646740">
        <ele>385.00</ele>
        <time>2014-03-02T10:24:23Z</time>
      </trkpt>
      <trkpt lat="41.651545010" lon="2.548673390">
        <ele>385.20</ele>
        <time>2014-03-02T10:24:24Z</time>
      </trkpt>
      <trkpt lat="41.651556750" lon="2.548695020">
        <ele>385.30</ele>
        <time>2014-03-02T10:24:25Z</time>
      </trkpt>
      <trkpt lat="41.651570160" lon="2.548716810">
        <ele>385.00</ele>
        <time>2014-03-02T10:24:26Z</time>
      </trkpt>
      <trkpt lat="41.651583400" lon="2.548738430">
        <ele>384.80</ele>
        <time>2014-03-02T10:24:27Z</time>
      </trkpt>
      <trkpt lat="41.651596810" lon="2.548756710">
        <ele>385.20</ele>
        <time>2014-03-02T10:24:28Z</time>
      </trkpt>
      <trkpt lat="41.651610060" lon="2.548773470">
        <ele>385.50</ele>
        <time>2014-03-02T10:24:29Z</time>
      </trkpt>
      <trkpt lat="41.651621790" lon="2.548790070">
        <ele>385.70</ele>
        <time>2014-03-02T10:24:30Z</time>
      </trkpt>
      <trkpt lat="41.651635030" lon="2.548806660">
        <ele>385.60</ele>
        <time>2014-03-02T10:24:31Z</time>
      </trkpt>
      <trkpt lat="41.651646770" lon="2.548823430">
        <ele>385.50</ele>
        <time>2014-03-02T10:24:32Z</time>
      </trkpt>
      <trkpt lat="41.651658340" lon="2.548843380">
        <ele>385.40</ele>
        <time>2014-03-02T10:24:33Z</time>
      </trkpt>
      <trkpt lat="41.651670070" lon="2.548863490">
        <ele>385.30</ele>
        <time>2014-03-02T10:24:34Z</time>
      </trkpt>
      <trkpt lat="41.651680130" lon="2.548883440">
        <ele>385.70</ele>
        <time>2014-03-02T10:24:35Z</time>
      </trkpt>
      <trkpt lat="41.651688340" lon="2.548905070">
        <ele>385.90</ele>
        <time>2014-03-02T10:24:36Z</time>
      </trkpt>
      <trkpt lat="41.651693370" lon="2.548926690">
        <ele>386.10</ele>
        <time>2014-03-02T10:24:37Z</time>
      </trkpt>
      <trkpt lat="41.651696730" lon="2.548950160">
        <ele>386.70</ele>
        <time>2014-03-02T10:24:38Z</time>
      </trkpt>
      <trkpt lat="41.651700080" lon="2.548973460">
        <ele>387.20</ele>
        <time>2014-03-02T10:24:39Z</time>
      </trkpt>
      <trkpt lat="41.651701750" lon="2.548996760">
        <ele>387.30</ele>
        <time>2014-03-02T10:24:40Z</time>
      </trkpt>
      <trkpt lat="41.651701750" lon="2.549018390">
        <ele>387.30</ele>
        <time>2014-03-02T10:24:41Z</time>
      </trkpt>
      <trkpt lat="41.651700080" lon="2.549040010">
        <ele>387.50</ele>
        <time>2014-03-02T10:24:42Z</time>
      </trkpt>
      <trkpt lat="41.651696730" lon="2.549061810">
        <ele>387.70</ele>
        <time>2014-03-02T10:24:43Z</time>
      </trkpt>
      <trkpt lat="41.651695050" lon="2.549083430">
        <ele>387.80</ele>
        <time>2014-03-02T10:24:44Z</time>
      </trkpt>
      <trkpt lat="41.651690020" lon="2.549106730">
        <ele>388.20</ele>
        <time>2014-03-02T10:24:45Z</time>
      </trkpt>
      <trkpt lat="41.651681810" lon="2.549131710">
        <ele>388.50</ele>
        <time>2014-03-02T10:24:46Z</time>
      </trkpt>
      <trkpt lat="41.651675100" lon="2.549151830">
        <ele>388.80</ele>
        <time>2014-03-02T10:24:47Z</time>
      </trkpt>
      <trkpt lat="41.651666720" lon="2.549171780">
        <ele>389.10</ele>
        <time>2014-03-02T10:24:48Z</time>
      </trkpt>
      <trkpt lat="41.651656830" lon="2.549188370">
        <ele>389.10</ele>
        <time>2014-03-02T10:24:49Z</time>
      </trkpt>
      <trkpt lat="41.651646770" lon="2.549205140">
        <ele>389.10</ele>
        <time>2014-03-02T10:24:50Z</time>
      </trkpt>
      <trkpt lat="41.651636710" lon="2.549223410">
        <ele>389.10</ele>
        <time>2014-03-02T10:24:51Z</time>
      </trkpt>
      <trkpt lat="41.651628330" lon="2.549241680">
        <ele>389.20</ele>
        <time>2014-03-02T10:24:52Z</time>
      </trkpt>
      <trkpt lat="41.651618440" lon="2.549261800">
        <ele>389.30</ele>
        <time>2014-03-02T10:24:53Z</time>
      </trkpt>
      <trkpt lat="41.651610060" lon="2.549280070">
        <ele>389.90</ele>
        <time>2014-03-02T10:24:54Z</time>
      </trkpt>
      <trkpt lat="41.651600000" lon="2.549300020">
        <ele>390.30</ele>
        <time>2014-03-02T10:24:55Z</time>
      </trkpt>
      <trkpt lat="41.651591780" lon="2.549320140">
        <ele>390.60</ele>
        <time>2014-03-02T10:24:56Z</time>
      </trkpt>
      <trkpt lat="41.651580050" lon="2.549341760">
        <ele>390.70</ele>
        <time>2014-03-02T10:24:57Z</time>
      </trkpt>
      <trkpt lat="41.651568480" lon="2.549361710">
        <ele>390.80</ele>
        <time>2014-03-02T10:24:58Z</time>
      </trkpt>
      <trkpt lat="41.651556750" lon="2.549383340">
        <ele>390.90</ele>
        <time>2014-03-02T10:24:59Z</time>
      </trkpt>
      <trkpt lat="41.651546690" lon="2.549403450">
        <ele>391.00</ele>
        <time>2014-03-02T10:25:00Z</time>
      </trkpt>
      <trkpt lat="41.651538480" lon="2.549425080">
        <ele>391.20</ele>
        <time>2014-03-02T10:25:01Z</time>
      </trkpt>
      <trkpt lat="41.651531770" lon="2.549446700">
        <ele>391.30</ele>
        <time>2014-03-02T10:25:02Z</time>
      </trkpt>
      <trkpt lat="41.651525060" lon="2.549468330">
        <ele>391.30</ele>
        <time>2014-03-02T10:25:03Z</time>
      </trkpt>
      <trkpt lat="41.651520030" lon="2.549490120">
        <ele>391.50</ele>
        <time>2014-03-02T10:25:04Z</time>
      </trkpt>
      <trkpt lat="41.651513330" lon="2.549513420">
        <ele>391.60</ele>
        <time>2014-03-02T10:25:05Z</time>
      </trkpt>
      <trkpt lat="41.651508470" lon="2.549536730">
        <ele>392.20</ele>
        <time>2014-03-02T10:25:06Z</time>
      </trkpt>
      <trkpt lat="41.651501760" lon="2.549560030">
        <ele>392.70</ele>
        <time>2014-03-02T10:25:07Z</time>
      </trkpt>
      <trkpt lat="41.651498410" lon="2.549581820">
        <ele>393.00</ele>
        <time>2014-03-02T10:25:08Z</time>
      </trkpt>
      <trkpt lat="41.651493380" lon="2.549605120">
        <ele>393.20</ele>
        <time>2014-03-02T10:25:09Z</time>
      </trkpt>
      <trkpt lat="41.651491700" lon="2.549628420">
        <ele>393.40</ele>
        <time>2014-03-02T10:25:10Z</time>
      </trkpt>
      <trkpt lat="41.651490030" lon="2.549650050">
        <ele>393.70</ele>
        <time>2014-03-02T10:25:11Z</time>
      </trkpt>
      <trkpt lat="41.651488350" lon="2.549673350">
        <ele>394.00</ele>
        <time>2014-03-02T10:25:12Z</time>
      </trkpt>
      <trkpt lat="41.651486670" lon="2.549696820">
        <ele>393.90</ele>
        <time>2014-03-02T10:25:13Z</time>
      </trkpt>
      <trkpt lat="41.651486670" lon="2.549720120">
        <ele>393.90</ele>
        <time>2014-03-02T10:25:14Z</time>
      </trkpt>
      <trkpt lat="41.651485000" lon="2.549745100">
        <ele>393.90</ele>
        <time>2014-03-02T10:25:15Z</time>
      </trkpt>
      <trkpt lat="41.651486670" lon="2.549768400">
        <ele>394.00</ele>
        <time>2014-03-02T10:25:16Z</time>
      </trkpt>
      <trkpt lat="41.651488350" lon="2.549791700">
        <ele>394.10</ele>
        <time>2014-03-02T10:25:17Z</time>
      </trkpt>
      <trkpt lat="41.651493380" lon="2.549815010">
        <ele>394.40</ele>
        <time>2014-03-02T10:25:18Z</time>
      </trkpt>
      <trkpt lat="41.651496730" lon="2.549838470">
        <ele>394.60</ele>
        <time>2014-03-02T10:25:19Z</time>
      </trkpt>
      <trkpt lat="41.651501760" lon="2.549858420">
        <ele>394.70</ele>
        <time>2014-03-02T10:25:20Z</time>
      </trkpt>
      <trkpt lat="41.651505120" lon="2.549878370">
        <ele>394.80</ele>
        <time>2014-03-02T10:25:21Z</time>
      </trkpt>
      <trkpt lat="41.651511820" lon="2.549898490">
        <ele>394.90</ele>
        <time>2014-03-02T10:25:22Z</time>
      </trkpt>
      <trkpt lat="41.651520030" lon="2.549920110">
        <ele>395.40</ele>
        <time>2014-03-02T10:25:23Z</time>
      </trkpt>
      <trkpt lat="41.651528420" lon="2.549940060">
        <ele>395.70</ele>
        <time>2014-03-02T10:25:24Z</time>
      </trkpt>
      <trkpt lat="41.651533450" lon="2.549961690">
        <ele>396.10</ele>
        <time>2014-03-02T10:25:25Z</time>
      </trkpt>
      <trkpt lat="41.651538480" lon="2.549983480">
        <ele>396.50</ele>
        <time>2014-03-02T10:25:26Z</time>
      </trkpt>
      <trkpt lat="41.651541830" lon="2.550005110">
        <ele>396.70</ele>
        <time>2014-03-02T10:25:27Z</time>
      </trkpt>
      <trkpt lat="41.651550040" lon="2.550030080">
        <ele>397.00</ele>
        <time>2014-03-02T10:25:28Z</time>
      </trkpt>
      <trkpt lat="41.651555070" lon="2.550060090">
        <ele>397.20</ele>
        <time>2014-03-02T10:25:29Z</time>
      </trkpt>
      <trkpt lat="41.651560100" lon="2.550088420">
        <ele>397.40</ele>
        <time>2014-03-02T10:25:30Z</time>
      </trkpt>
      <trkpt lat="41.651565130" lon="2.550121780">
        <ele>397.60</ele>
        <time>2014-03-02T10:25:31Z</time>
      </trkpt>
      <trkpt lat="41.651571670" lon="2.550158500">
        <ele>397.60</ele>
        <time>2014-03-02T10:25:32Z</time>
      </trkpt>
      <trkpt lat="41.651578370" lon="2.550196720">
        <ele>397.50</ele>
        <time>2014-03-02T10:25:33Z</time>
      </trkpt>
      <trkpt lat="41.651585080" lon="2.550236780">
        <ele>397.50</ele>
        <time>2014-03-02T10:25:34Z</time>
      </trkpt>
      <trkpt lat="41.651590110" lon="2.550273500">
        <ele>397.90</ele>
        <time>2014-03-02T10:25:35Z</time>
      </trkpt>
      <trkpt lat="41.651593460" lon="2.550308360">
        <ele>398.10</ele>
        <time>2014-03-02T10:25:36Z</time>
      </trkpt>
      <trkpt lat="41.651596810" lon="2.550341720">
        <ele>398.40</ele>
        <time>2014-03-02T10:25:37Z</time>
      </trkpt>
      <trkpt lat="41.651595140" lon="2.550375080">
        <ele>398.60</ele>
        <time>2014-03-02T10:25:38Z</time>
      </trkpt>
      <trkpt lat="41.651593460" lon="2.550406770">
        <ele>398.40</ele>
        <time>2014-03-02T10:25:39Z</time>
      </trkpt>
      <trkpt lat="41.651588430" lon="2.550440130">
        <ele>398.20</ele>
        <time>2014-03-02T10:25:40Z</time>
      </trkpt>
      <trkpt lat="41.651583400" lon="2.550471810">
        <ele>398.10</ele>
        <time>2014-03-02T10:25:41Z</time>
      </trkpt>
      <trkpt lat="41.651580050" lon="2.550503490">
        <ele>398.40</ele>
        <time>2014-03-02T10:25:42Z</time>
      </trkpt>
      <trkpt lat="41.651575020" lon="2.550531830">
        <ele>398.70</ele>
        <time>2014-03-02T10:25:43Z</time>
      </trkpt>
      <trkpt lat="41.651573340" lon="2.550561670">
        <ele>398.80</ele>
        <time>2014-03-02T10:25:44Z</time>
      </trkpt>
      <trkpt lat="41.651568480" lon="2.550590000">
        <ele>398.90</ele>
        <time>2014-03-02T10:25:45Z</time>
      </trkpt>
      <trkpt lat="41.651566810" lon="2.550616820">
        <ele>398.80</ele>
        <time>2014-03-02T10:25:46Z</time>
      </trkpt>
      <trkpt lat="41.651563450" lon="2.550643470">
        <ele>398.70</ele>
        <time>2014-03-02T10:25:47Z</time>
      </trkpt>
      <trkpt lat="41.651560100" lon="2.550670130">
        <ele>398.60</ele>
        <time>2014-03-02T10:25:48Z</time>
      </trkpt>
      <trkpt lat="41.651560100" lon="2.550696780">
        <ele>399.10</ele>
        <time>2014-03-02T10:25:49Z</time>
      </trkpt>
      <trkpt lat="41.651558420" lon="2.550721760">
        <ele>399.50</ele>
        <time>2014-03-02T10:25:50Z</time>
      </trkpt>
      <trkpt lat="41.651563450" lon="2.550748410">
        <ele>399.90</ele>
        <time>2014-03-02T10:25:51Z</time>
      </trkpt>
      <trkpt lat="41.651568480" lon="2.550776740">
        <ele>400.20</ele>
        <time>2014-03-02T10:25:52Z</time>
      </trkpt>
      <trkpt lat="41.651573340" lon="2.550808430">
        <ele>400.50</ele>
        <time>2014-03-02T10:25:53Z</time>
      </trkpt>
      <trkpt lat="41.651576700" lon="2.550843460">
        <ele>400.60</ele>
        <time>2014-03-02T10:25:54Z</time>
      </trkpt>
      <trkpt lat="41.651581730" lon="2.550876820">
        <ele>400.70</ele>
        <time>2014-03-02T10:25:55Z</time>
      </trkpt>
      <trkpt lat="41.651591780" lon="2.550908340">
        <ele>400.60</ele>
        <time>2014-03-02T10:25:56Z</time>
      </trkpt>
      <trkpt lat="41.651601670" lon="2.550938350">
        <ele>400.50</ele>
        <time>2014-03-02T10:25:57Z</time>
      </trkpt>
      <trkpt lat="41.651611730" lon="2.550966680">
        <ele>400.80</ele>
        <time>2014-03-02T10:25:58Z</time>
      </trkpt>
      <trkpt lat="41.651621790" lon="2.550995010">
        <ele>401.00</ele>
        <time>2014-03-02T10:25:59Z</time>
      </trkpt>
      <trkpt lat="41.651630010" lon="2.551021660">
        <ele>401.20</ele>
        <time>2014-03-02T10:26:00Z</time>
      </trkpt>
      <trkpt lat="41.651638390" lon="2.551048490">
        <ele>401.30</ele>
        <time>2014-03-02T10:26:01Z</time>
      </trkpt>
      <trkpt lat="41.651648450" lon="2.551075140">
        <ele>401.40</ele>
        <time>2014-03-02T10:26:02Z</time>
      </trkpt>
      <trkpt lat="41.651658340" lon="2.551103470">
        <ele>401.20</ele>
        <time>2014-03-02T10:26:03Z</time>
      </trkpt>
      <trkpt lat="41.651668390" lon="2.551131800">
        <ele>401.10</ele>
        <time>2014-03-02T10:26:04Z</time>
      </trkpt>
      <trkpt lat="41.651675100" lon="2.551160130">
        <ele>401.00</ele>
        <time>2014-03-02T10:26:05Z</time>
      </trkpt>
      <trkpt lat="41.651683480" lon="2.551186790">
        <ele>400.90</ele>
        <time>2014-03-02T10:26:06Z</time>
      </trkpt>
      <trkpt lat="41.651691700" lon="2.551213440">
        <ele>400.90</ele>
        <time>2014-03-02T10:26:07Z</time>
      </trkpt>
      <trkpt lat="41.651701750" lon="2.551238420">
        <ele>401.10</ele>
        <time>2014-03-02T10:26:08Z</time>
      </trkpt>
      <trkpt lat="41.651713490" lon="2.551263400">
        <ele>401.30</ele>
        <time>2014-03-02T10:26:09Z</time>
      </trkpt>
      <trkpt lat="41.651725060" lon="2.551286700">
        <ele>401.50</ele>
        <time>2014-03-02T10:26:10Z</time>
      </trkpt>
      <trkpt lat="41.651738470" lon="2.551310000">
        <ele>401.70</ele>
        <time>2014-03-02T10:26:11Z</time>
      </trkpt>
      <trkpt lat="41.651755060" lon="2.551330120">
        <ele>401.90</ele>
        <time>2014-03-02T10:26:12Z</time>
      </trkpt>
      <trkpt lat="41.651768470" lon="2.551350070">
        <ele>402.00</ele>
        <time>2014-03-02T10:26:13Z</time>
      </trkpt>
      <trkpt lat="41.651783390" lon="2.551368340">
        <ele>402.10</ele>
        <time>2014-03-02T10:26:14Z</time>
      </trkpt>
      <trkpt lat="41.651800160" lon="2.551383430">
        <ele>402.20</ele>
        <time>2014-03-02T10:26:15Z</time>
      </trkpt>
      <trkpt lat="41.651816750" lon="2.551400020">
        <ele>402.30</ele>
        <time>2014-03-02T10:26:16Z</time>
      </trkpt>
      <trkpt lat="41.651831670" lon="2.551416790">
        <ele>402.50</ele>
        <time>2014-03-02T10:26:17Z</time>
      </trkpt>
      <trkpt lat="41.651846760" lon="2.551433380">
        <ele>402.60</ele>
        <time>2014-03-02T10:26:18Z</time>
      </trkpt>
      <trkpt lat="41.651863360" lon="2.551445120">
        <ele>402.80</ele>
        <time>2014-03-02T10:26:19Z</time>
      </trkpt>
      <trkpt lat="41.651880120" lon="2.551458360">
        <ele>402.80</ele>
        <time>2014-03-02T10:26:20Z</time>
      </trkpt>
      <trkpt lat="41.651896720" lon="2.551471770">
        <ele>402.80</ele>
        <time>2014-03-02T10:26:21Z</time>
      </trkpt>
      <trkpt lat="41.651913480" lon="2.551486690">
        <ele>403.40</ele>
        <time>2014-03-02T10:26:22Z</time>
      </trkpt>
      <trkpt lat="41.651928400" lon="2.551500100">
        <ele>403.80</ele>
        <time>2014-03-02T10:26:23Z</time>
      </trkpt>
      <trkpt lat="41.651943490" lon="2.551515020">
        <ele>403.90</ele>
        <time>2014-03-02T10:26:24Z</time>
      </trkpt>
      <trkpt lat="41.651958410" lon="2.551526760">
        <ele>404.10</ele>
        <time>2014-03-02T10:26:25Z</time>
      </trkpt>
      <trkpt lat="41.651973500" lon="2.551538490">
        <ele>404.20</ele>
        <time>2014-03-02T10:26:26Z</time>
      </trkpt>
      <trkpt lat="41.651986740" lon="2.551551740">
        <ele>404.40</ele>
        <time>2014-03-02T10:26:27Z</time>
      </trkpt>
      <trkpt lat="41.652001830" lon="2.551566820">
        <ele>404.60</ele>
        <time>2014-03-02T10:26:28Z</time>
      </trkpt>
      <trkpt lat="41.652015070" lon="2.551576710">
        <ele>404.80</ele>
        <time>2014-03-02T10:26:29Z</time>
      </trkpt>
      <trkpt lat="41.652030160" lon="2.551588450">
        <ele>404.90</ele>
        <time>2014-03-02T10:26:30Z</time>
      </trkpt>
      <trkpt lat="41.652046750" lon="2.551596660">
        <ele>405.00</ele>
        <time>2014-03-02T10:26:31Z</time>
      </trkpt>
      <trkpt lat="41.652063350" lon="2.551606720">
        <ele>405.30</ele>
        <time>2014-03-02T10:26:32Z</time>
      </trkpt>
      <trkpt lat="41.652078440" lon="2.551616780">
        <ele>405.50</ele>
        <time>2014-03-02T10:26:33Z</time>
      </trkpt>
      <trkpt lat="41.652095030" lon="2.551626670">
        <ele>405.60</ele>
        <time>2014-03-02T10:26:34Z</time>
      </trkpt>
      <trkpt lat="41.652113470" lon="2.551633380">
        <ele>405.70</ele>
        <time>2014-03-02T10:26:35Z</time>
      </trkpt>
      <trkpt lat="41.652131750" lon="2.551636730">
        <ele>406.20</ele>
        <time>2014-03-02T10:26:36Z</time>
      </trkpt>
      <trkpt lat="41.652148340" lon="2.551636730">
        <ele>406.60</ele>
        <time>2014-03-02T10:26:37Z</time>
      </trkpt>
      <trkpt lat="41.652163430" lon="2.551640080">
        <ele>406.90</ele>
        <time>2014-03-02T10:26:38Z</time>
      </trkpt>
      <trkpt lat="41.652180030" lon="2.551643430">
        <ele>407.40</ele>
        <time>2014-03-02T10:26:39Z</time>
      </trkpt>
      <trkpt lat="41.652195110" lon="2.551650140">
        <ele>407.70</ele>
        <time>2014-03-02T10:26:40Z</time>
      </trkpt>
      <trkpt lat="41.652210030" lon="2.551661710">
        <ele>408.00</ele>
        <time>2014-03-02T10:26:41Z</time>
      </trkpt>
      <trkpt lat="41.652223440" lon="2.551668410">
        <ele>408.30</ele>
        <time>2014-03-02T10:26:42Z</time>
      </trkpt>
      <trkpt lat="41.652238360" lon="2.551673440">
        <ele>408.60</ele>
        <time>2014-03-02T10:26:43Z</time>
      </trkpt>
      <trkpt lat="41.652255130" lon="2.551680150">
        <ele>408.90</ele>
        <time>2014-03-02T10:26:44Z</time>
      </trkpt>
      <trkpt lat="41.652268370" lon="2.551685010">
        <ele>409.00</ele>
        <time>2014-03-02T10:26:45Z</time>
      </trkpt>
      <trkpt lat="41.652283460" lon="2.551690040">
        <ele>409.00</ele>
        <time>2014-03-02T10:26:46Z</time>
      </trkpt>
      <trkpt lat="41.652296700" lon="2.551696740">
        <ele>409.00</ele>
        <time>2014-03-02T10:26:47Z</time>
      </trkpt>
      <trkpt lat="41.652310110" lon="2.551705120">
        <ele>409.30</ele>
        <time>2014-03-02T10:26:48Z</time>
      </trkpt>
      <trkpt lat="41.652325030" lon="2.551710150">
        <ele>409.50</ele>
        <time>2014-03-02T10:26:49Z</time>
      </trkpt>
      <trkpt lat="41.652336770" lon="2.551718370">
        <ele>409.60</ele>
        <time>2014-03-02T10:26:50Z</time>
      </trkpt>
      <trkpt lat="41.652350010" lon="2.551726750">
        <ele>410.30</ele>
        <time>2014-03-02T10:26:51Z</time>
      </trkpt>
      <trkpt lat="41.652363420" lon="2.551733460">
        <ele>410.70</ele>
        <time>2014-03-02T10:26:52Z</time>
      </trkpt>
      <trkpt lat="41.652375160" lon="2.551740160">
        <ele>410.60</ele>
        <time>2014-03-02T10:26:53Z</time>
      </trkpt>
      <trkpt lat="41.652386720" lon="2.551746700">
        <ele>410.50</ele>
        <time>2014-03-02T10:26:54Z</time>
      </trkpt>
      <trkpt lat="41.652398460" lon="2.551751730">
        <ele>411.00</ele>
        <time>2014-03-02T10:26:55Z</time>
      </trkpt>
      <trkpt lat="41.652413380" lon="2.551758430">
        <ele>411.30</ele>
        <time>2014-03-02T10:26:56Z</time>
      </trkpt>
      <trkpt lat="41.652426790" lon="2.551763460">
        <ele>411.60</ele>
        <time>2014-03-02T10:26:57Z</time>
      </trkpt>
      <trkpt lat="41.652438360" lon="2.551771680">
        <ele>411.70</ele>
        <time>2014-03-02T10:26:58Z</time>
      </trkpt>
      <trkpt lat="41.652450090" lon="2.551776710">
        <ele>411.80</ele>
        <time>2014-03-02T10:26:59Z</time>
      </trkpt>
      <trkpt lat="41.652463330" lon="2.551785090">
        <ele>412.20</ele>
        <time>2014-03-02T10:27:00Z</time>
      </trkpt>
      <trkpt lat="41.652473390" lon="2.551793470">
        <ele>412.60</ele>
        <time>2014-03-02T10:27:01Z</time>
      </trkpt>
      <trkpt lat="41.652485130" lon="2.551801680">
        <ele>413.10</ele>
        <time>2014-03-02T10:27:02Z</time>
      </trkpt>
      <trkpt lat="41.652498370" lon="2.551810070">
        <ele>413.50</ele>
        <time>2014-03-02T10:27:03Z</time>
      </trkpt>
      <trkpt lat="41.652510110" lon="2.551820120">
        <ele>413.80</ele>
        <time>2014-03-02T10:27:04Z</time>
      </trkpt>
      <trkpt lat="41.652521670" lon="2.551828340">
        <ele>414.10</ele>
        <time>2014-03-02T10:27:05Z</time>
      </trkpt>
      <trkpt lat="41.652531730" lon="2.551841750">
        <ele>414.40</ele>
        <time>2014-03-02T10:27:06Z</time>
      </trkpt>
      <trkpt lat="41.652540110" lon="2.551860020">
        <ele>414.70</ele>
        <time>2014-03-02T10:27:07Z</time>
      </trkpt>
      <trkpt lat="41.652546820" lon="2.551880140">
        <ele>414.90</ele>
        <time>2014-03-02T10:27:08Z</time>
      </trkpt>
      <trkpt lat="41.652548490" lon="2.551903440">
        <ele>415.00</ele>
        <time>2014-03-02T10:27:09Z</time>
      </trkpt>
      <trkpt lat="41.652548490" lon="2.551923390">
        <ele>415.00</ele>
        <time>2014-03-02T10:27:10Z</time>
      </trkpt>
      <trkpt lat="41.652545140" lon="2.551943340">
        <ele>415.10</ele>
        <time>2014-03-02T10:27:11Z</time>
      </trkpt>
      <trkpt lat="41.652536760" lon="2.551960100">
        <ele>415.20</ele>
        <time>2014-03-02T10:27:12Z</time>
      </trkpt>
      <trkpt lat="41.652530050" lon="2.551976700">
        <ele>415.40</ele>
        <time>2014-03-02T10:27:13Z</time>
      </trkpt>
      <trkpt lat="41.652521670" lon="2.551995140">
        <ele>415.40</ele>
        <time>2014-03-02T10:27:14Z</time>
      </trkpt>
      <trkpt lat="41.652511780" lon="2.552011730">
        <ele>415.50</ele>
        <time>2014-03-02T10:27:15Z</time>
      </trkpt>
      <trkpt lat="41.652501720" lon="2.552025150">
        <ele>415.50</ele>
        <time>2014-03-02T10:27:16Z</time>
      </trkpt>
      <trkpt lat="41.652490160" lon="2.552040070">
        <ele>415.60</ele>
        <time>2014-03-02T10:27:17Z</time>
      </trkpt>
      <trkpt lat="41.652480100" lon="2.552055150">
        <ele>415.70</ele>
        <time>2014-03-02T10:27:18Z</time>
      </trkpt>
      <trkpt lat="41.652470040" lon="2.552070070">
        <ele>415.80</ele>
        <time>2014-03-02T10:27:19Z</time>
      </trkpt>
      <trkpt lat="41.652461830" lon="2.552086670">
        <ele>415.80</ele>
        <time>2014-03-02T10:27:20Z</time>
      </trkpt>
      <trkpt lat="41.652451770" lon="2.552101760">
        <ele>416.20</ele>
        <time>2014-03-02T10:27:21Z</time>
      </trkpt>
      <trkpt lat="41.652443390" lon="2.552118350">
        <ele>416.40</ele>
        <time>2014-03-02T10:27:22Z</time>
      </trkpt>
      <trkpt lat="41.652435000" lon="2.552133440">
        <ele>416.60</ele>
        <time>2014-03-02T10:27:23Z</time>
      </trkpt>
      <trkpt lat="41.652426790" lon="2.552146680">
        <ele>416.80</ele>
        <time>2014-03-02T10:27:24Z</time>
      </trkpt>
      <trkpt lat="41.652418410" lon="2.552160090">
        <ele>416.90</ele>
        <time>2014-03-02T10:27:25Z</time>
      </trkpt>
      <trkpt lat="41.652408350" lon="2.552173340">
        <ele>417.10</ele>
        <time>2014-03-02T10:27:26Z</time>
      </trkpt>
      <trkpt lat="41.652400130" lon="2.552185070">
        <ele>417.30</ele>
        <time>2014-03-02T10:27:27Z</time>
      </trkpt>
      <trkpt lat="41.652393430" lon="2.552198480">
        <ele>417.40</ele>
        <time>2014-03-02T10:27:28Z</time>
      </trkpt>
      <trkpt lat="41.652383370" lon="2.552213400">
        <ele>417.60</ele>
        <time>2014-03-02T10:27:29Z</time>
      </trkpt>
      <trkpt lat="41.652375160" lon="2.552228490">
        <ele>417.80</ele>
        <time>2014-03-02T10:27:30Z</time>
      </trkpt>
      <trkpt lat="41.652365100" lon="2.552243410">
        <ele>417.80</ele>
        <time>2014-03-02T10:27:31Z</time>
      </trkpt>
      <trkpt lat="41.652353360" lon="2.552256820">
        <ele>417.80</ele>
        <time>2014-03-02T10:27:32Z</time>
      </trkpt>
      <trkpt lat="41.652341800" lon="2.552268390">
        <ele>418.10</ele>
        <time>2014-03-02T10:27:33Z</time>
      </trkpt>
      <trkpt lat="41.652330060" lon="2.552280120">
        <ele>418.40</ele>
        <time>2014-03-02T10:27:34Z</time>
      </trkpt>
      <trkpt lat="41.652318490" lon="2.552291690">
        <ele>418.50</ele>
        <time>2014-03-02T10:27:35Z</time>
      </trkpt>
      <trkpt lat="41.652306760" lon="2.552303420">
        <ele>418.70</ele>
        <time>2014-03-02T10:27:36Z</time>
      </trkpt>
      <trkpt lat="41.652295030" lon="2.552313480">
        <ele>418.90</ele>
        <time>2014-03-02T10:27:37Z</time>
      </trkpt>
      <trkpt lat="41.652283460" lon="2.552325050">
        <ele>419.00</ele>
        <time>2014-03-02T10:27:38Z</time>
      </trkpt>
      <trkpt lat="41.652270050" lon="2.552338460">
        <ele>419.00</ele>
        <time>2014-03-02T10:27:39Z</time>
      </trkpt>
      <trkpt lat="41.652255130" lon="2.552351700">
        <ele>419.20</ele>
        <time>2014-03-02T10:27:40Z</time>
      </trkpt>
      <trkpt lat="41.652240040" lon="2.552363440">
        <ele>419.30</ele>
        <time>2014-03-02T10:27:41Z</time>
      </trkpt>
      <trkpt lat="41.652221770" lon="2.552371820">
        <ele>419.50</ele>
        <time>2014-03-02T10:27:42Z</time>
      </trkpt>
      <trkpt lat="41.652200140" lon="2.552380040">
        <ele>419.70</ele>
        <time>2014-03-02T10:27:43Z</time>
      </trkpt>
      <trkpt lat="41.652178350" lon="2.552386740">
        <ele>419.80</ele>
        <time>2014-03-02T10:27:44Z</time>
      </trkpt>
      <trkpt lat="41.652165110" lon="2.552395120">
        <ele>419.60</ele>
        <time>2014-03-02T10:27:45Z</time>
      </trkpt>
      <trkpt lat="41.652150020" lon="2.552408370">
        <ele>419.50</ele>
        <time>2014-03-02T10:27:46Z</time>
      </trkpt>
      <trkpt lat="41.652133420" lon="2.552420100">
        <ele>419.40</ele>
        <time>2014-03-02T10:27:47Z</time>
      </trkpt>
      <trkpt lat="41.652115150" lon="2.552443400">
        <ele>419.30</ele>
        <time>2014-03-02T10:27:48Z</time>
      </trkpt>
      <trkpt lat="41.652098390" lon="2.552473410">
        <ele>419.20</ele>
        <time>2014-03-02T10:27:49Z</time>
      </trkpt>
      <trkpt lat="41.652080110" lon="2.552510120">
        <ele>419.00</ele>
        <time>2014-03-02T10:27:50Z</time>
      </trkpt>
      <trkpt lat="41.652063350" lon="2.552551700">
        <ele>418.80</ele>
        <time>2014-03-02T10:27:51Z</time>
      </trkpt>
      <trkpt lat="41.652046750" lon="2.552600140">
        <ele>418.60</ele>
        <time>2014-03-02T10:27:52Z</time>
      </trkpt>
      <trkpt lat="41.652035020" lon="2.552651780">
        <ele>418.40</ele>
        <time>2014-03-02T10:27:53Z</time>
      </trkpt>
      <trkpt lat="41.652021780" lon="2.552710110">
        <ele>418.30</ele>
        <time>2014-03-02T10:27:54Z</time>
      </trkpt>
      <trkpt lat="41.652008360" lon="2.552775160">
        <ele>417.90</ele>
        <time>2014-03-02T10:27:55Z</time>
      </trkpt>
      <trkpt lat="41.651998470" lon="2.552841710">
        <ele>417.70</ele>
        <time>2014-03-02T10:27:56Z</time>
      </trkpt>
      <trkpt lat="41.651983390" lon="2.552895020">
        <ele>417.00</ele>
        <time>2014-03-02T10:27:57Z</time>
      </trkpt>
      <trkpt lat="41.651965110" lon="2.552945140">
        <ele>416.60</ele>
        <time>2014-03-02T10:27:58Z</time>
      </trkpt>
      <trkpt lat="41.651950030" lon="2.552996780">
        <ele>416.30</ele>
        <time>2014-03-02T10:27:59Z</time>
      </trkpt>
      <trkpt lat="41.651935110" lon="2.553048410">
        <ele>416.10</ele>
        <time>2014-03-02T10:28:00Z</time>
      </trkpt>
      <trkpt lat="41.651921700" lon="2.553098360">
        <ele>416.00</ele>
        <time>2014-03-02T10:28:01Z</time>
      </trkpt>
      <trkpt lat="41.651901750" lon="2.553150000">
        <ele>415.60</ele>
        <time>2014-03-02T10:28:02Z</time>
      </trkpt>
      <trkpt lat="41.651880120" lon="2.553201800">
        <ele>415.30</ele>
        <time>2014-03-02T10:28:03Z</time>
      </trkpt>
      <trkpt lat="41.651855140" lon="2.553250080">
        <ele>415.40</ele>
        <time>2014-03-02T10:28:04Z</time>
      </trkpt>
      <trkpt lat="41.651825140" lon="2.553291820">
        <ele>415.50</ele>
        <time>2014-03-02T10:28:05Z</time>
      </trkpt>
      <trkpt lat="41.651790100" lon="2.553323330">
        <ele>415.20</ele>
        <time>2014-03-02T10:28:06Z</time>
      </trkpt>
      <trkpt lat="41.651753390" lon="2.553353340">
        <ele>414.90</ele>
        <time>2014-03-02T10:28:07Z</time>
      </trkpt>
      <trkpt lat="41.651716670" lon="2.553378490">
        <ele>414.80</ele>
        <time>2014-03-02T10:28:08Z</time>
      </trkpt>
      <trkpt lat="41.651681810" lon="2.553401790">
        <ele>414.50</ele>
        <time>2014-03-02T10:28:09Z</time>
      </trkpt>
      <trkpt lat="41.651650120" lon="2.553436830">
        <ele>414.20</ele>
        <time>2014-03-02T10:28:10Z</time>
      </trkpt>
      <trkpt lat="41.651633360" lon="2.553478400">
        <ele>414.20</ele>
        <time>2014-03-02T10:28:11Z</time>
      </trkpt>
      <trkpt lat="41.651626820" lon="2.553521820">
        <ele>414.20</ele>
        <time>2014-03-02T10:28:12Z</time>
      </trkpt>
      <trkpt lat="41.651626820" lon="2.553561720">
        <ele>414.20</ele>
        <time>2014-03-02T10:28:13Z</time>
      </trkpt>
      <trkpt lat="41.651630010" lon="2.553598430">
        <ele>414.30</ele>
        <time>2014-03-02T10:28:14Z</time>
      </trkpt>
      <trkpt lat="41.651638390" lon="2.553626760">
        <ele>414.30</ele>
        <time>2014-03-02T10:28:15Z</time>
      </trkpt>
      <trkpt lat="41.651648450" lon="2.553646710">
        <ele>414.40</ele>
        <time>2014-03-02T10:28:16Z</time>
      </trkpt>
      <trkpt lat="41.651658340" lon="2.553661800">
        <ele>414.50</ele>
        <time>2014-03-02T10:28:17Z</time>
      </trkpt>
      <trkpt lat="41.651665040" lon="2.553675040">
        <ele>413.90</ele>
        <time>2014-03-02T10:28:18Z</time>
      </trkpt>
      <trkpt lat="41.651673420" lon="2.553685100">
        <ele>413.50</ele>
        <time>2014-03-02T10:28:19Z</time>
      </trkpt>
      <trkpt lat="41.651685160" lon="2.553693480">
        <ele>413.10</ele>
        <time>2014-03-02T10:28:20Z</time>
      </trkpt>
      <trkpt lat="41.651695050" lon="2.553703370">
        <ele>413.60</ele>
        <time>2014-03-02T10:28:21Z</time>
      </trkpt>
      <trkpt lat="41.651703430" lon="2.553713430">
        <ele>413.90</ele>
        <time>2014-03-02T10:28:22Z</time>
      </trkpt>
      <trkpt lat="41.651713490" lon="2.553721810">
        <ele>414.10</ele>
        <time>2014-03-02T10:28:23Z</time>
      </trkpt>
      <trkpt lat="41.651720030" lon="2.553728350">
        <ele>414.30</ele>
        <time>2014-03-02T10:28:24Z</time>
      </trkpt>
      <trkpt lat="41.651726730" lon="2.553733380">
        <ele>414.60</ele>
        <time>2014-03-02T10:28:25Z</time>
      </trkpt>
      <trkpt lat="41.651733440" lon="2.553735050">
        <ele>414.90</ele>
        <time>2014-03-02T10:28:26Z</time>
      </trkpt>
      <trkpt lat="41.651738470" lon="2.553736730">
        <ele>415.10</ele>
        <time>2014-03-02T10:28:27Z</time>
      </trkpt>
      <trkpt lat="41.651738470" lon="2.553736730">
        <ele>415.00</ele>
        <time>2014-03-02T10:28:28Z</time>
      </trkpt>
      <trkpt lat="41.651736790" lon="2.553736730">
        <ele>415.00</ele>
        <time>2014-03-02T10:28:29Z</time>
      </trkpt>
      <trkpt lat="41.651736790" lon="2.553736730">
        <ele>415.00</ele>
        <time>2014-03-02T10:28:30Z</time>
      </trkpt>
      <trkpt lat="41.651736790" lon="2.553738410">
        <ele>414.90</ele>
        <time>2014-03-02T10:28:31Z</time>
      </trkpt>
      <trkpt lat="41.651736790" lon="2.553738410">
        <ele>414.90</ele>
        <time>2014-03-02T10:28:32Z</time>
      </trkpt>
      <trkpt lat="41.651735110" lon="2.553738410">
        <ele>414.70</ele>
        <time>2014-03-02T10:28:33Z</time>
      </trkpt>
      <trkpt lat="41.651735110" lon="2.553738410">
        <ele>414.50</ele>
        <time>2014-03-02T10:28:34Z</time>
      </trkpt>
      <trkpt lat="41.651735110" lon="2.553738410">
        <ele>414.50</ele>
        <time>2014-03-02T10:28:35Z</time>
      </trkpt>
      <trkpt lat="41.651733440" lon="2.553738410">
        <ele>414.50</ele>
        <time>2014-03-02T10:28:36Z</time>
      </trkpt>
      <trkpt lat="41.651733440" lon="2.553738410">
        <ele>414.50</ele>
        <time>2014-03-02T10:28:37Z</time>
      </trkpt>
      <trkpt lat="41.651733440" lon="2.553738410">
        <ele>414.40</ele>
        <time>2014-03-02T10:28:38Z</time>
      </trkpt>
      <trkpt lat="41.651731760" lon="2.553738410">
        <ele>414.40</ele>
        <time>2014-03-02T10:28:39Z</time>
      </trkpt>
      <trkpt lat="41.651731760" lon="2.553738410">
        <ele>414.30</ele>
        <time>2014-03-02T10:28:40Z</time>
      </trkpt>
      <trkpt lat="41.651731760" lon="2.553738410">
        <ele>414.20</ele>
        <time>2014-03-02T10:28:41Z</time>
      </trkpt>
      <trkpt lat="41.651730090" lon="2.553738410">
        <ele>414.50</ele>
        <time>2014-03-02T10:28:42Z</time>
      </trkpt>
      <trkpt lat="41.651728410" lon="2.553738410">
        <ele>414.70</ele>
        <time>2014-03-02T10:28:43Z</time>
      </trkpt>
      <trkpt lat="41.651728410" lon="2.553738410">
        <ele>414.50</ele>
        <time>2014-03-02T10:28:44Z</time>
      </trkpt>
      <trkpt lat="41.651726730" lon="2.553738410">
        <ele>414.30</ele>
        <time>2014-03-02T10:28:45Z</time>
      </trkpt>
      <trkpt lat="41.651726730" lon="2.553738410">
        <ele>414.20</ele>
        <time>2014-03-02T10:28:46Z</time>
      </trkpt>
      <trkpt lat="41.651725060" lon="2.553738410">
        <ele>413.90</ele>
        <time>2014-03-02T10:28:47Z</time>
      </trkpt>
      <trkpt lat="41.651725060" lon="2.553738410">
        <ele>413.60</ele>
        <time>2014-03-02T10:28:48Z</time>
      </trkpt>
      <trkpt lat="41.651723380" lon="2.553736730">
        <ele>413.70</ele>
        <time>2014-03-02T10:28:49Z</time>
      </trkpt>
      <trkpt lat="41.651721700" lon="2.553736730">
        <ele>413.70</ele>
        <time>2014-03-02T10:28:50Z</time>
      </trkpt>
      <trkpt lat="41.651721700" lon="2.553736730">
        <ele>413.70</ele>
        <time>2014-03-02T10:28:51Z</time>
      </trkpt>
      <trkpt lat="41.651725060" lon="2.553738410">
        <ele>414.10</ele>
        <time>2014-03-02T10:28:52Z</time>
      </trkpt>
      <trkpt lat="41.651730090" lon="2.553740080">
        <ele>414.30</ele>
        <time>2014-03-02T10:28:53Z</time>
      </trkpt>
      <trkpt lat="41.651736790" lon="2.553736730">
        <ele>414.20</ele>
        <time>2014-03-02T10:28:54Z</time>
      </trkpt>
      <trkpt lat="41.651748360" lon="2.553736730">
        <ele>414.10</ele>
        <time>2014-03-02T10:28:55Z</time>
      </trkpt>
      <trkpt lat="41.651760090" lon="2.553736730">
        <ele>413.90</ele>
        <time>2014-03-02T10:28:56Z</time>
      </trkpt>
      <trkpt lat="41.651770150" lon="2.553733380">
        <ele>413.80</ele>
        <time>2014-03-02T10:28:57Z</time>
      </trkpt>
      <trkpt lat="41.651785070" lon="2.553735050">
        <ele>413.70</ele>
        <time>2014-03-02T10:28:58Z</time>
      </trkpt>
      <trkpt lat="41.651801670" lon="2.553740080">
        <ele>413.70</ele>
        <time>2014-03-02T10:28:59Z</time>
      </trkpt>
      <trkpt lat="41.651820110" lon="2.553745110">
        <ele>413.60</ele>
        <time>2014-03-02T10:29:00Z</time>
      </trkpt>
      <trkpt lat="41.651840060" lon="2.553750140">
        <ele>414.10</ele>
        <time>2014-03-02T10:29:01Z</time>
      </trkpt>
      <trkpt lat="41.651865030" lon="2.553756680">
        <ele>414.50</ele>
        <time>2014-03-02T10:29:02Z</time>
      </trkpt>
      <trkpt lat="41.651888340" lon="2.553765060">
        <ele>414.60</ele>
        <time>2014-03-02T10:29:03Z</time>
      </trkpt>
      <trkpt lat="41.651913480" lon="2.553773440">
        <ele>414.60</ele>
        <time>2014-03-02T10:29:04Z</time>
      </trkpt>
      <trkpt lat="41.651936780" lon="2.553785010">
        <ele>414.70</ele>
        <time>2014-03-02T10:29:05Z</time>
      </trkpt>
      <trkpt lat="41.651958410" lon="2.553796740">
        <ele>414.70</ele>
        <time>2014-03-02T10:29:06Z</time>
      </trkpt>
      <trkpt lat="41.651978360" lon="2.553805130">
        <ele>414.70</ele>
        <time>2014-03-02T10:29:07Z</time>
      </trkpt>
      <trkpt lat="41.651998470" lon="2.553813340">
        <ele>414.40</ele>
        <time>2014-03-02T10:29:08Z</time>
      </trkpt>
      <trkpt lat="41.652016750" lon="2.553828430">
        <ele>414.30</ele>
        <time>2014-03-02T10:29:09Z</time>
      </trkpt>
      <trkpt lat="41.652031670" lon="2.553850050">
        <ele>414.30</ele>
        <time>2014-03-02T10:29:10Z</time>
      </trkpt>
      <trkpt lat="41.652048430" lon="2.553875030">
        <ele>414.30</ele>
        <time>2014-03-02T10:29:11Z</time>
      </trkpt>
      <trkpt lat="41.652068380" lon="2.553903360">
        <ele>414.40</ele>
        <time>2014-03-02T10:29:12Z</time>
      </trkpt>
      <trkpt lat="41.652090000" lon="2.553935050">
        <ele>414.40</ele>
        <time>2014-03-02T10:29:13Z</time>
      </trkpt>
      <trkpt lat="41.652110120" lon="2.553970080">
        <ele>414.40</ele>
        <time>2014-03-02T10:29:14Z</time>
      </trkpt>
      <trkpt lat="41.652128390" lon="2.554010150">
        <ele>414.10</ele>
        <time>2014-03-02T10:29:15Z</time>
      </trkpt>
      <trkpt lat="41.652145160" lon="2.554056750">
        <ele>413.90</ele>
        <time>2014-03-02T10:29:16Z</time>
      </trkpt>
      <trkpt lat="41.652160080" lon="2.554103350">
        <ele>413.70</ele>
        <time>2014-03-02T10:29:17Z</time>
      </trkpt>
      <trkpt lat="41.652183380" lon="2.554146770">
        <ele>413.50</ele>
        <time>2014-03-02T10:29:18Z</time>
      </trkpt>
      <trkpt lat="41.652206680" lon="2.554180130">
        <ele>413.40</ele>
        <time>2014-03-02T10:29:19Z</time>
      </trkpt>
      <trkpt lat="41.652231830" lon="2.554201760">
        <ele>412.90</ele>
        <time>2014-03-02T10:29:20Z</time>
      </trkpt>
      <trkpt lat="41.652255130" lon="2.554220030">
        <ele>412.60</ele>
        <time>2014-03-02T10:29:21Z</time>
      </trkpt>
      <trkpt lat="41.652281780" lon="2.554240150">
        <ele>412.60</ele>
        <time>2014-03-02T10:29:22Z</time>
      </trkpt>
      <trkpt lat="41.652306760" lon="2.554261770">
        <ele>412.50</ele>
        <time>2014-03-02T10:29:23Z</time>
      </trkpt>
      <trkpt lat="41.652333410" lon="2.554285070">
        <ele>412.50</ele>
        <time>2014-03-02T10:29:24Z</time>
      </trkpt>
      <trkpt lat="41.652356720" lon="2.554313410">
        <ele>412.00</ele>
        <time>2014-03-02T10:29:25Z</time>
      </trkpt>
      <trkpt lat="41.652381690" lon="2.554343410">
        <ele>411.70</ele>
        <time>2014-03-02T10:29:26Z</time>
      </trkpt>
      <trkpt lat="41.652405000" lon="2.554376770">
        <ele>412.00</ele>
        <time>2014-03-02T10:29:27Z</time>
      </trkpt>
      <trkpt lat="41.652425110" lon="2.554411810">
        <ele>412.30</ele>
        <time>2014-03-02T10:29:28Z</time>
      </trkpt>
      <trkpt lat="41.652448410" lon="2.554446680">
        <ele>412.40</ele>
        <time>2014-03-02T10:29:29Z</time>
      </trkpt>
      <trkpt lat="41.652468360" lon="2.554485070">
        <ele>412.20</ele>
        <time>2014-03-02T10:29:30Z</time>
      </trkpt>
      <trkpt lat="41.652488480" lon="2.554520100">
        <ele>412.00</ele>
        <time>2014-03-02T10:29:31Z</time>
      </trkpt>
      <trkpt lat="41.652510110" lon="2.554551790">
        <ele>411.80</ele>
        <time>2014-03-02T10:29:32Z</time>
      </trkpt>
      <trkpt lat="41.652526700" lon="2.554586820">
        <ele>411.60</ele>
        <time>2014-03-02T10:29:33Z</time>
      </trkpt>
      <trkpt lat="41.652545140" lon="2.554623370">
        <ele>411.80</ele>
        <time>2014-03-02T10:29:34Z</time>
      </trkpt>
      <trkpt lat="41.652561740" lon="2.554658400">
        <ele>411.90</ele>
        <time>2014-03-02T10:29:35Z</time>
      </trkpt>
      <trkpt lat="41.652576830" lon="2.554695120">
        <ele>412.00</ele>
        <time>2014-03-02T10:29:36Z</time>
      </trkpt>
      <trkpt lat="41.652591750" lon="2.554733340">
        <ele>412.20</ele>
        <time>2014-03-02T10:29:37Z</time>
      </trkpt>
      <trkpt lat="41.652605160" lon="2.554778430">
        <ele>412.30</ele>
        <time>2014-03-02T10:29:38Z</time>
      </trkpt>
      <trkpt lat="41.652610020" lon="2.554825040">
        <ele>412.40</ele>
        <time>2014-03-02T10:29:39Z</time>
      </trkpt>
      <trkpt lat="41.652598450" lon="2.554873480">
        <ele>412.50</ele>
        <time>2014-03-02T10:29:40Z</time>
      </trkpt>
      <trkpt lat="41.652573470" lon="2.554906680">
        <ele>412.20</ele>
        <time>2014-03-02T10:29:41Z</time>
      </trkpt>
      <trkpt lat="41.652550000" lon="2.554926790">
        <ele>412.10</ele>
        <time>2014-03-02T10:29:42Z</time>
      </trkpt>
      <trkpt lat="41.652523350" lon="2.554933330">
        <ele>411.90</ele>
        <time>2014-03-02T10:29:43Z</time>
      </trkpt>
      <trkpt lat="41.652491670" lon="2.554936680">
        <ele>411.70</ele>
        <time>2014-03-02T10:29:44Z</time>
      </trkpt>
      <trkpt lat="41.652458470" lon="2.554938360">
        <ele>411.50</ele>
        <time>2014-03-02T10:29:45Z</time>
      </trkpt>
      <trkpt lat="41.652420080" lon="2.554945070">
        <ele>411.50</ele>
        <time>2014-03-02T10:29:46Z</time>
      </trkpt>
      <trkpt lat="41.652383370" lon="2.554950090">
        <ele>411.50</ele>
        <time>2014-03-02T10:29:47Z</time>
      </trkpt>
      <trkpt lat="41.652343470" lon="2.554965010">
        <ele>411.50</ele>
        <time>2014-03-02T10:29:48Z</time>
      </trkpt>
      <trkpt lat="41.652305080" lon="2.554986810">
        <ele>411.60</ele>
        <time>2014-03-02T10:29:49Z</time>
      </trkpt>
      <trkpt lat="41.652265020" lon="2.555016810">
        <ele>411.60</ele>
        <time>2014-03-02T10:29:50Z</time>
      </trkpt>
      <trkpt lat="41.652221770" lon="2.555056710">
        <ele>411.30</ele>
        <time>2014-03-02T10:29:51Z</time>
      </trkpt>
      <trkpt lat="41.652181700" lon="2.555100130">
        <ele>411.20</ele>
        <time>2014-03-02T10:29:52Z</time>
      </trkpt>
      <trkpt lat="41.652140130" lon="2.555148410">
        <ele>410.80</ele>
        <time>2014-03-02T10:29:53Z</time>
      </trkpt>
      <trkpt lat="41.652096710" lon="2.555195010">
        <ele>410.60</ele>
        <time>2014-03-02T10:29:54Z</time>
      </trkpt>
      <trkpt lat="41.652051780" lon="2.555240110">
        <ele>410.40</ele>
        <time>2014-03-02T10:29:55Z</time>
      </trkpt>
      <trkpt lat="41.652006690" lon="2.555286710">
        <ele>410.00</ele>
        <time>2014-03-02T10:29:56Z</time>
      </trkpt>
      <trkpt lat="41.651956730" lon="2.555333480">
        <ele>409.80</ele>
        <time>2014-03-02T10:29:57Z</time>
      </trkpt>
      <trkpt lat="41.651906780" lon="2.555381760">
        <ele>409.50</ele>
        <time>2014-03-02T10:29:58Z</time>
      </trkpt>
      <trkpt lat="41.651858330" lon="2.555426690">
        <ele>409.20</ele>
        <time>2014-03-02T10:29:59Z</time>
      </trkpt>
      <trkpt lat="41.651810050" lon="2.555473460">
        <ele>408.40</ele>
        <time>2014-03-02T10:30:00Z</time>
      </trkpt>
      <trkpt lat="41.651763450" lon="2.555523420">
        <ele>407.70</ele>
        <time>2014-03-02T10:30:01Z</time>
      </trkpt>
      <trkpt lat="41.651713490" lon="2.555576730">
        <ele>407.20</ele>
        <time>2014-03-02T10:30:02Z</time>
      </trkpt>
      <trkpt lat="41.651666720" lon="2.555633390">
        <ele>406.90</ele>
        <time>2014-03-02T10:30:03Z</time>
      </trkpt>
      <trkpt lat="41.651618440" lon="2.555691730">
        <ele>406.70</ele>
        <time>2014-03-02T10:30:04Z</time>
      </trkpt>
      <trkpt lat="41.651573340" lon="2.555750060">
        <ele>406.80</ele>
        <time>2014-03-02T10:30:05Z</time>
      </trkpt>
      <trkpt lat="41.651526740" lon="2.555805050">
        <ele>406.80</ele>
        <time>2014-03-02T10:30:06Z</time>
      </trkpt>
      <trkpt lat="41.651480140" lon="2.555858360">
        <ele>406.80</ele>
        <time>2014-03-02T10:30:07Z</time>
      </trkpt>
      <trkpt lat="41.651435040" lon="2.555908480">
        <ele>406.90</ele>
        <time>2014-03-02T10:30:08Z</time>
      </trkpt>
      <trkpt lat="41.651391790" lon="2.555960110">
        <ele>407.00</ele>
        <time>2014-03-02T10:30:09Z</time>
      </trkpt>
      <trkpt lat="41.651346700" lon="2.556013420">
        <ele>406.50</ele>
        <time>2014-03-02T10:30:10Z</time>
      </trkpt>
      <trkpt lat="41.651296740" lon="2.556063380">
        <ele>406.10</ele>
        <time>2014-03-02T10:30:11Z</time>
      </trkpt>
      <trkpt lat="41.651240080" lon="2.556106800">
        <ele>405.60</ele>
        <time>2014-03-02T10:30:12Z</time>
      </trkpt>
      <trkpt lat="41.651180060" lon="2.556141670">
        <ele>405.30</ele>
        <time>2014-03-02T10:30:13Z</time>
      </trkpt>
      <trkpt lat="41.651116700" lon="2.556173350">
        <ele>405.00</ele>
        <time>2014-03-02T10:30:14Z</time>
      </trkpt>
      <trkpt lat="41.651056680" lon="2.556203360">
        <ele>404.50</ele>
        <time>2014-03-02T10:30:15Z</time>
      </trkpt>
      <trkpt lat="41.650998350" lon="2.556243420">
        <ele>404.00</ele>
        <time>2014-03-02T10:30:16Z</time>
      </trkpt>
      <trkpt lat="41.650943360" lon="2.556290030">
        <ele>403.70</ele>
        <time>2014-03-02T10:30:17Z</time>
      </trkpt>
      <trkpt lat="41.650888370" lon="2.556346690">
        <ele>403.40</ele>
        <time>2014-03-02T10:30:18Z</time>
      </trkpt>
      <trkpt lat="41.650836740" lon="2.556413410">
        <ele>402.70</ele>
        <time>2014-03-02T10:30:19Z</time>
      </trkpt>
      <trkpt lat="41.650785110" lon="2.556488340">
        <ele>402.20</ele>
        <time>2014-03-02T10:30:20Z</time>
      </trkpt>
      <trkpt lat="41.650733480" lon="2.556561770">
        <ele>401.80</ele>
        <time>2014-03-02T10:30:21Z</time>
      </trkpt>
      <trkpt lat="41.650688380" lon="2.556636700">
        <ele>401.40</ele>
        <time>2014-03-02T10:30:22Z</time>
      </trkpt>
      <trkpt lat="41.650653350" lon="2.556713480">
        <ele>401.10</ele>
        <time>2014-03-02T10:30:23Z</time>
      </trkpt>
      <trkpt lat="41.650626690" lon="2.556791770">
        <ele>400.30</ele>
        <time>2014-03-02T10:30:24Z</time>
      </trkpt>
      <trkpt lat="41.650615120" lon="2.556870050">
        <ele>399.70</ele>
        <time>2014-03-02T10:30:25Z</time>
      </trkpt>
      <trkpt lat="41.650606740" lon="2.556948340">
        <ele>399.10</ele>
        <time>2014-03-02T10:30:26Z</time>
      </trkpt>
      <trkpt lat="41.650598360" lon="2.557030150">
        <ele>398.70</ele>
        <time>2014-03-02T10:30:27Z</time>
      </trkpt>
      <trkpt lat="41.650593330" lon="2.557113460">
        <ele>398.30</ele>
        <time>2014-03-02T10:30:28Z</time>
      </trkpt>
      <trkpt lat="41.650593330" lon="2.557198460">
        <ele>397.80</ele>
        <time>2014-03-02T10:30:29Z</time>
      </trkpt>
      <trkpt lat="41.650591820" lon="2.557283450">
        <ele>397.40</ele>
        <time>2014-03-02T10:30:30Z</time>
      </trkpt>
      <trkpt lat="41.650593330" lon="2.557366760">
        <ele>396.90</ele>
        <time>2014-03-02T10:30:31Z</time>
      </trkpt>
      <trkpt lat="41.650595010" lon="2.557450080">
        <ele>396.50</ele>
        <time>2014-03-02T10:30:32Z</time>
      </trkpt>
      <trkpt lat="41.650596680" lon="2.557535070">
        <ele>396.20</ele>
        <time>2014-03-02T10:30:33Z</time>
      </trkpt>
      <trkpt lat="41.650598360" lon="2.557615040">
        <ele>396.00</ele>
        <time>2014-03-02T10:30:34Z</time>
      </trkpt>
      <trkpt lat="41.650600040" lon="2.557698350">
        <ele>395.80</ele>
        <time>2014-03-02T10:30:35Z</time>
      </trkpt>
      <trkpt lat="41.650600040" lon="2.557781670">
        <ele>395.40</ele>
        <time>2014-03-02T10:30:36Z</time>
      </trkpt>
      <trkpt lat="41.650600040" lon="2.557866830">
        <ele>395.00</ele>
        <time>2014-03-02T10:30:37Z</time>
      </trkpt>
      <trkpt lat="41.650596680" lon="2.557946790">
        <ele>394.90</ele>
        <time>2014-03-02T10:30:38Z</time>
      </trkpt>
      <trkpt lat="41.650593330" lon="2.558028430">
        <ele>394.70</ele>
        <time>2014-03-02T10:30:39Z</time>
      </trkpt>
      <trkpt lat="41.650590150" lon="2.558105040">
        <ele>394.60</ele>
        <time>2014-03-02T10:30:40Z</time>
      </trkpt>
      <trkpt lat="41.650588470" lon="2.558178470">
        <ele>394.30</ele>
        <time>2014-03-02T10:30:41Z</time>
      </trkpt>
      <trkpt lat="41.650588470" lon="2.558250050">
        <ele>394.00</ele>
        <time>2014-03-02T10:30:42Z</time>
      </trkpt>
      <trkpt lat="41.650588470" lon="2.558321800">
        <ele>393.70</ele>
        <time>2014-03-02T10:30:43Z</time>
      </trkpt>
      <trkpt lat="41.650595010" lon="2.558390030">
        <ele>393.50</ele>
        <time>2014-03-02T10:30:44Z</time>
      </trkpt>
      <trkpt lat="41.650603390" lon="2.558456750">
        <ele>393.30</ele>
        <time>2014-03-02T10:30:45Z</time>
      </trkpt>
      <trkpt lat="41.650615120" lon="2.558518440">
        <ele>393.20</ele>
        <time>2014-03-02T10:30:46Z</time>
      </trkpt>
      <trkpt lat="41.650633400" lon="2.558570070">
        <ele>393.20</ele>
        <time>2014-03-02T10:30:47Z</time>
      </trkpt>
      <trkpt lat="41.650651670" lon="2.558615000">
        <ele>393.20</ele>
        <time>2014-03-02T10:30:48Z</time>
      </trkpt>
      <trkpt lat="41.650666760" lon="2.558660090">
        <ele>393.10</ele>
        <time>2014-03-02T10:30:49Z</time>
      </trkpt>
      <trkpt lat="41.650685030" lon="2.558705020">
        <ele>393.10</ele>
        <time>2014-03-02T10:30:50Z</time>
      </trkpt>
      <trkpt lat="41.650698440" lon="2.558751790">
        <ele>393.00</ele>
        <time>2014-03-02T10:30:51Z</time>
      </trkpt>
      <trkpt lat="41.650711680" lon="2.558800070">
        <ele>393.00</ele>
        <time>2014-03-02T10:30:52Z</time>
      </trkpt>
      <trkpt lat="41.650723420" lon="2.558846670">
        <ele>392.90</ele>
        <time>2014-03-02T10:30:53Z</time>
      </trkpt>
      <trkpt lat="41.650738340" lon="2.558890090">
        <ele>392.70</ele>
        <time>2014-03-02T10:30:54Z</time>
      </trkpt>
      <trkpt lat="41.650750070" lon="2.558933340">
        <ele>392.90</ele>
        <time>2014-03-02T10:30:55Z</time>
      </trkpt>
      <trkpt lat="41.650761810" lon="2.558978440">
        <ele>393.00</ele>
        <time>2014-03-02T10:30:56Z</time>
      </trkpt>
      <trkpt lat="41.650776730" lon="2.559026720">
        <ele>393.10</ele>
        <time>2014-03-02T10:30:57Z</time>
      </trkpt>
      <trkpt lat="41.650783430" lon="2.559080030">
        <ele>393.20</ele>
        <time>2014-03-02T10:30:58Z</time>
      </trkpt>
      <trkpt lat="41.650778400" lon="2.559131830">
        <ele>393.30</ele>
        <time>2014-03-02T10:30:59Z</time>
      </trkpt>
      <trkpt lat="41.650763480" lon="2.559178430">
        <ele>393.70</ele>
        <time>2014-03-02T10:31:00Z</time>
      </trkpt>
      <trkpt lat="41.650736660" lon="2.559210110">
        <ele>394.10</ele>
        <time>2014-03-02T10:31:01Z</time>
      </trkpt>
      <trkpt lat="41.650706820" lon="2.559223360">
        <ele>394.00</ele>
        <time>2014-03-02T10:31:02Z</time>
      </trkpt>
      <trkpt lat="41.650676820" lon="2.559220000">
        <ele>393.90</ele>
        <time>2014-03-02T10:31:03Z</time>
      </trkpt>
      <trkpt lat="41.650641780" lon="2.559213470">
        <ele>394.00</ele>
        <time>2014-03-02T10:31:04Z</time>
      </trkpt>
      <trkpt lat="41.650600040" lon="2.559203410">
        <ele>394.00</ele>
        <time>2014-03-02T10:31:05Z</time>
      </trkpt>
      <trkpt lat="41.650550080" lon="2.559190000">
        <ele>394.00</ele>
        <time>2014-03-02T10:31:06Z</time>
      </trkpt>
      <trkpt lat="41.650496770" lon="2.559173400">
        <ele>394.10</ele>
        <time>2014-03-02T10:31:07Z</time>
      </trkpt>
      <trkpt lat="41.650445140" lon="2.559153450">
        <ele>394.20</ele>
        <time>2014-03-02T10:31:08Z</time>
      </trkpt>
      <trkpt lat="41.650393340" lon="2.559128470">
        <ele>393.80</ele>
        <time>2014-03-02T10:31:09Z</time>
      </trkpt>
      <trkpt lat="41.650340030" lon="2.559101820">
        <ele>393.60</ele>
        <time>2014-03-02T10:31:10Z</time>
      </trkpt>
      <trkpt lat="41.650290070" lon="2.559078350">
        <ele>393.40</ele>
        <time>2014-03-02T10:31:11Z</time>
      </trkpt>
      <trkpt lat="41.650241790" lon="2.559055050">
        <ele>393.50</ele>
        <time>2014-03-02T10:31:12Z</time>
      </trkpt>
      <trkpt lat="41.650186810" lon="2.559036780">
        <ele>393.60</ele>
        <time>2014-03-02T10:31:13Z</time>
      </trkpt>
      <trkpt lat="41.650136690" lon="2.559011800">
        <ele>393.00</ele>
        <time>2014-03-02T10:31:14Z</time>
      </trkpt>
      <trkpt lat="41.650088410" lon="2.558990000">
        <ele>392.50</ele>
        <time>2014-03-02T10:31:15Z</time>
      </trkpt>
      <trkpt lat="41.650038450" lon="2.558973410">
        <ele>391.60</ele>
        <time>2014-03-02T10:31:16Z</time>
      </trkpt>
      <trkpt lat="41.649991680" lon="2.558956810">
        <ele>391.00</ele>
        <time>2014-03-02T10:31:17Z</time>
      </trkpt>
      <trkpt lat="41.649941720" lon="2.558930160">
        <ele>390.50</ele>
        <time>2014-03-02T10:31:18Z</time>
      </trkpt>
      <trkpt lat="41.649886740" lon="2.558903340">
        <ele>389.90</ele>
        <time>2014-03-02T10:31:19Z</time>
      </trkpt>
      <trkpt lat="41.649830080" lon="2.558873500">
        <ele>389.50</ele>
        <time>2014-03-02T10:31:20Z</time>
      </trkpt>
      <trkpt lat="41.649773410" lon="2.558848350">
        <ele>388.80</ele>
        <time>2014-03-02T10:31:21Z</time>
      </trkpt>
      <trkpt lat="41.649721780" lon="2.558818340">
        <ele>388.20</ele>
        <time>2014-03-02T10:31:22Z</time>
      </trkpt>
      <trkpt lat="41.649668470" lon="2.558786830">
        <ele>387.20</ele>
        <time>2014-03-02T10:31:23Z</time>
      </trkpt>
      <trkpt lat="41.649615000" lon="2.558753470">
        <ele>386.50</ele>
        <time>2014-03-02T10:31:24Z</time>
      </trkpt>
      <trkpt lat="41.649565040" lon="2.558721780">
        <ele>385.90</ele>
        <time>2014-03-02T10:31:25Z</time>
      </trkpt>
      <trkpt lat="41.649511730" lon="2.558698480">
        <ele>384.90</ele>
        <time>2014-03-02T10:31:26Z</time>
      </trkpt>
      <trkpt lat="41.649458420" lon="2.558685070">
        <ele>384.20</ele>
        <time>2014-03-02T10:31:27Z</time>
      </trkpt>
      <trkpt lat="41.649400080" lon="2.558686750">
        <ele>383.30</ele>
        <time>2014-03-02T10:31:28Z</time>
      </trkpt>
      <trkpt lat="41.649340070" lon="2.558705020">
        <ele>382.70</ele>
        <time>2014-03-02T10:31:29Z</time>
      </trkpt>
      <trkpt lat="41.649281730" lon="2.558733350">
        <ele>382.20</ele>
        <time>2014-03-02T10:31:30Z</time>
      </trkpt>
      <trkpt lat="41.649223390" lon="2.558773420">
        <ele>381.40</ele>
        <time>2014-03-02T10:31:31Z</time>
      </trkpt>
      <trkpt lat="41.649170080" lon="2.558813480">
        <ele>380.70</ele>
        <time>2014-03-02T10:31:32Z</time>
      </trkpt>
      <trkpt lat="41.649113420" lon="2.558851700">
        <ele>379.70</ele>
        <time>2014-03-02T10:31:33Z</time>
      </trkpt>
      <trkpt lat="41.649055080" lon="2.558895120">
        <ele>379.00</ele>
        <time>2014-03-02T10:31:34Z</time>
      </trkpt>
      <trkpt lat="41.648991720" lon="2.558935020">
        <ele>377.90</ele>
        <time>2014-03-02T10:31:35Z</time>
      </trkpt>
      <trkpt lat="41.648933380" lon="2.558960000">
        <ele>377.10</ele>
        <time>2014-03-02T10:31:36Z</time>
      </trkpt>
      <trkpt lat="41.648881750" lon="2.558965030">
        <ele>376.50</ele>
        <time>2014-03-02T10:31:37Z</time>
      </trkpt>
      <trkpt lat="41.648830110" lon="2.558951780">
        <ele>375.50</ele>
        <time>2014-03-02T10:31:38Z</time>
      </trkpt>
      <trkpt lat="41.648783340" lon="2.558918420">
        <ele>374.80</ele>
        <time>2014-03-02T10:31:39Z</time>
      </trkpt>
      <trkpt lat="41.648736740" lon="2.558878360">
        <ele>374.00</ele>
        <time>2014-03-02T10:31:40Z</time>
      </trkpt>
      <trkpt lat="41.648688460" lon="2.558840140">
        <ele>373.40</ele>
        <time>2014-03-02T10:31:41Z</time>
      </trkpt>
      <trkpt lat="41.648640010" lon="2.558813480">
        <ele>372.70</ele>
        <time>2014-03-02T10:31:42Z</time>
      </trkpt>
      <trkpt lat="41.648581670" lon="2.558806780">
        <ele>372.20</ele>
        <time>2014-03-02T10:31:43Z</time>
      </trkpt>
      <trkpt lat="41.648521830" lon="2.558815160">
        <ele>371.80</ele>
        <time>2014-03-02T10:31:44Z</time>
      </trkpt>
      <trkpt lat="41.648461810" lon="2.558820020">
        <ele>371.00</ele>
        <time>2014-03-02T10:31:45Z</time>
      </trkpt>
      <trkpt lat="41.648398450" lon="2.558820020">
        <ele>370.40</ele>
        <time>2014-03-02T10:31:46Z</time>
      </trkpt>
      <trkpt lat="41.648333400" lon="2.558823370">
        <ele>369.50</ele>
        <time>2014-03-02T10:31:47Z</time>
      </trkpt>
      <trkpt lat="41.648266680" lon="2.558830080">
        <ele>368.90</ele>
        <time>2014-03-02T10:31:48Z</time>
      </trkpt>
      <trkpt lat="41.648201810" lon="2.558840140">
        <ele>368.50</ele>
        <time>2014-03-02T10:31:49Z</time>
      </trkpt>
      <trkpt lat="41.648136760" lon="2.558850030">
        <ele>367.60</ele>
        <time>2014-03-02T10:31:50Z</time>
      </trkpt>
      <trkpt lat="41.648071720" lon="2.558863440">
        <ele>366.90</ele>
        <time>2014-03-02T10:31:51Z</time>
      </trkpt>
      <trkpt lat="41.648008350" lon="2.558870140">
        <ele>365.90</ele>
        <time>2014-03-02T10:31:52Z</time>
      </trkpt>
      <trkpt lat="41.647945150" lon="2.558873500">
        <ele>365.10</ele>
        <time>2014-03-02T10:31:53Z</time>
      </trkpt>
      <trkpt lat="41.647880110" lon="2.558881710">
        <ele>363.90</ele>
        <time>2014-03-02T10:31:54Z</time>
      </trkpt>
      <trkpt lat="41.647820100" lon="2.558886740">
        <ele>362.90</ele>
        <time>2014-03-02T10:31:55Z</time>
      </trkpt>
      <trkpt lat="41.647756730" lon="2.558890090">
        <ele>362.20</ele>
        <time>2014-03-02T10:31:56Z</time>
      </trkpt>
      <trkpt lat="41.647695040" lon="2.558891770">
        <ele>360.80</ele>
        <time>2014-03-02T10:31:57Z</time>
      </trkpt>
      <trkpt lat="41.647633350" lon="2.558895120">
        <ele>359.80</ele>
        <time>2014-03-02T10:31:58Z</time>
      </trkpt>
      <trkpt lat="41.647573330" lon="2.558895120">
        <ele>358.50</ele>
        <time>2014-03-02T10:31:59Z</time>
      </trkpt>
      <trkpt lat="41.647516670" lon="2.558900150">
        <ele>357.60</ele>
        <time>2014-03-02T10:32:00Z</time>
      </trkpt>
      <trkpt lat="41.647461690" lon="2.558913390">
        <ele>356.50</ele>
        <time>2014-03-02T10:32:01Z</time>
      </trkpt>
      <trkpt lat="41.647410050" lon="2.558936700">
        <ele>355.70</ele>
        <time>2014-03-02T10:32:02Z</time>
      </trkpt>
      <trkpt lat="41.647366800" lon="2.558976760">
        <ele>355.10</ele>
        <time>2014-03-02T10:32:03Z</time>
      </trkpt>
      <trkpt lat="41.647338470" lon="2.559025040">
        <ele>354.10</ele>
        <time>2014-03-02T10:32:04Z</time>
      </trkpt>
      <trkpt lat="41.647330090" lon="2.559080030">
        <ele>353.30</ele>
        <time>2014-03-02T10:32:05Z</time>
      </trkpt>
      <trkpt lat="41.647338470" lon="2.559126800">
        <ele>352.30</ele>
        <time>2014-03-02T10:32:06Z</time>
      </trkpt>
      <trkpt lat="41.647360100" lon="2.559160160">
        <ele>351.50</ele>
        <time>2014-03-02T10:32:07Z</time>
      </trkpt>
      <trkpt lat="41.647395130" lon="2.559181780">
        <ele>350.90</ele>
        <time>2014-03-02T10:32:08Z</time>
      </trkpt>
      <trkpt lat="41.647436710" lon="2.559196700">
        <ele>350.50</ele>
        <time>2014-03-02T10:32:09Z</time>
      </trkpt>
      <trkpt lat="41.647478450" lon="2.559211790">
        <ele>350.10</ele>
        <time>2014-03-02T10:32:10Z</time>
      </trkpt>
      <trkpt lat="41.647521700" lon="2.559230060">
        <ele>349.50</ele>
        <time>2014-03-02T10:32:11Z</time>
      </trkpt>
      <trkpt lat="41.647563440" lon="2.559248330">
        <ele>349.10</ele>
        <time>2014-03-02T10:32:12Z</time>
      </trkpt>
      <trkpt lat="41.647606690" lon="2.559273480">
        <ele>348.50</ele>
        <time>2014-03-02T10:32:13Z</time>
      </trkpt>
      <trkpt lat="41.647645080" lon="2.559310030">
        <ele>348.10</ele>
        <time>2014-03-02T10:32:14Z</time>
      </trkpt>
      <trkpt lat="41.647680120" lon="2.559355120">
        <ele>347.80</ele>
        <time>2014-03-02T10:32:15Z</time>
      </trkpt>
      <trkpt lat="41.647713480" lon="2.559403400">
        <ele>347.40</ele>
        <time>2014-03-02T10:32:16Z</time>
      </trkpt>
      <trkpt lat="41.647746670" lon="2.559451680">
        <ele>347.10</ele>
        <time>2014-03-02T10:32:17Z</time>
      </trkpt>
      <trkpt lat="41.647785060" lon="2.559491740">
        <ele>346.70</ele>
        <time>2014-03-02T10:32:18Z</time>
      </trkpt>
      <trkpt lat="41.647821770" lon="2.559525100">
        <ele>346.30</ele>
        <time>2014-03-02T10:32:19Z</time>
      </trkpt>
      <trkpt lat="41.647853460" lon="2.559560140">
        <ele>345.30</ele>
        <time>2014-03-02T10:32:20Z</time>
      </trkpt>
      <trkpt lat="41.647873400" lon="2.559596690">
        <ele>344.50</ele>
        <time>2014-03-02T10:32:21Z</time>
      </trkpt>
      <trkpt lat="41.647885140" lon="2.559640100">
        <ele>343.90</ele>
        <time>2014-03-02T10:32:22Z</time>
      </trkpt>
      <trkpt lat="41.647883460" lon="2.559681680">
        <ele>343.60</ele>
        <time>2014-03-02T10:32:23Z</time>
      </trkpt>
      <trkpt lat="41.647871730" lon="2.559725100">
        <ele>343.40</ele>
        <time>2014-03-02T10:32:24Z</time>
      </trkpt>
      <trkpt lat="41.647858480" lon="2.559771700">
        <ele>343.30</ele>
        <time>2014-03-02T10:32:25Z</time>
      </trkpt>
      <trkpt lat="41.647841720" lon="2.559815120">
        <ele>343.30</ele>
        <time>2014-03-02T10:32:26Z</time>
      </trkpt>
      <trkpt lat="41.647826800" lon="2.559866750">
        <ele>342.30</ele>
        <time>2014-03-02T10:32:27Z</time>
      </trkpt>
      <trkpt lat="41.647810040" lon="2.559925090">
        <ele>341.70</ele>
        <time>2014-03-02T10:32:28Z</time>
      </trkpt>
      <trkpt lat="41.647791760" lon="2.559990130">
        <ele>341.10</ele>
        <time>2014-03-02T10:32:29Z</time>
      </trkpt>
      <trkpt lat="41.647773490" lon="2.560063390">
        <ele>340.50</ele>
        <time>2014-03-02T10:32:30Z</time>
      </trkpt>
      <trkpt lat="41.647755050" lon="2.560136820">
        <ele>340.10</ele>
        <time>2014-03-02T10:32:31Z</time>
      </trkpt>
      <trkpt lat="41.647740130" lon="2.560220130">
        <ele>339.70</ele>
        <time>2014-03-02T10:32:32Z</time>
      </trkpt>
      <trkpt lat="41.647730070" lon="2.560313340">
        <ele>339.40</ele>
        <time>2014-03-02T10:32:33Z</time>
      </trkpt>
      <trkpt lat="41.647716660" lon="2.560413420">
        <ele>339.20</ele>
        <time>2014-03-02T10:32:34Z</time>
      </trkpt>
      <trkpt lat="41.647706770" lon="2.560511820">
        <ele>338.60</ele>
        <time>2014-03-02T10:32:35Z</time>
      </trkpt>
      <trkpt lat="41.647696710" lon="2.560600000">
        <ele>338.10</ele>
        <time>2014-03-02T10:32:36Z</time>
      </trkpt>
      <trkpt lat="41.647696710" lon="2.560675100">
        <ele>337.30</ele>
        <time>2014-03-02T10:32:37Z</time>
      </trkpt>
      <trkpt lat="41.647701740" lon="2.560738470">
        <ele>336.70</ele>
        <time>2014-03-02T10:32:38Z</time>
      </trkpt>
      <trkpt lat="41.647716660" lon="2.560798480">
        <ele>335.60</ele>
        <time>2014-03-02T10:32:39Z</time>
      </trkpt>
      <trkpt lat="41.647741810" lon="2.560860010">
        <ele>334.80</ele>
        <time>2014-03-02T10:32:40Z</time>
      </trkpt>
      <trkpt lat="41.647770140" lon="2.560930080">
        <ele>334.20</ele>
        <time>2014-03-02T10:32:41Z</time>
      </trkpt>
      <trkpt lat="41.647801820" lon="2.561005010">
        <ele>333.50</ele>
        <time>2014-03-02T10:32:42Z</time>
      </trkpt>
      <trkpt lat="41.647835010" lon="2.561075090">
        <ele>333.00</ele>
        <time>2014-03-02T10:32:43Z</time>
      </trkpt>
      <trkpt lat="41.647876760" lon="2.561135100">
        <ele>332.40</ele>
        <time>2014-03-02T10:32:44Z</time>
      </trkpt>
      <trkpt lat="41.647925040" lon="2.561188410">
        <ele>331.90</ele>
        <time>2014-03-02T10:32:45Z</time>
      </trkpt>
      <trkpt lat="41.647978350" lon="2.561236690">
        <ele>331.70</ele>
        <time>2014-03-02T10:32:46Z</time>
      </trkpt>
      <trkpt lat="41.648028470" lon="2.561285140">
        <ele>331.60</ele>
        <time>2014-03-02T10:32:47Z</time>
      </trkpt>
      <trkpt lat="41.648076750" lon="2.561335090">
        <ele>331.50</ele>
        <time>2014-03-02T10:32:48Z</time>
      </trkpt>
      <trkpt lat="41.648121680" lon="2.561393430">
        <ele>330.50</ele>
        <time>2014-03-02T10:32:49Z</time>
      </trkpt>
      <trkpt lat="41.648168450" lon="2.561455120">
        <ele>329.70</ele>
        <time>2014-03-02T10:32:50Z</time>
      </trkpt>
      <trkpt lat="41.648215050" lon="2.561520000">
        <ele>328.90</ele>
        <time>2014-03-02T10:32:51Z</time>
      </trkpt>
      <trkpt lat="41.648265010" lon="2.561578340">
        <ele>328.40</ele>
        <time>2014-03-02T10:32:52Z</time>
      </trkpt>
      <trkpt lat="41.648305070" lon="2.561638350">
        <ele>327.90</ele>
        <time>2014-03-02T10:32:53Z</time>
      </trkpt>
      <trkpt lat="41.648333400" lon="2.561696690">
        <ele>327.30</ele>
        <time>2014-03-02T10:32:54Z</time>
      </trkpt>
      <trkpt lat="41.648338430" lon="2.561751670">
        <ele>326.80</ele>
        <time>2014-03-02T10:32:55Z</time>
      </trkpt>
      <trkpt lat="41.648333400" lon="2.561796770">
        <ele>326.00</ele>
        <time>2014-03-02T10:32:56Z</time>
      </trkpt>
      <trkpt lat="41.648315130" lon="2.561831800">
        <ele>325.40</ele>
        <time>2014-03-02T10:32:57Z</time>
      </trkpt>
      <trkpt lat="41.648285120" lon="2.561858460">
        <ele>324.70</ele>
        <time>2014-03-02T10:32:58Z</time>
      </trkpt>
      <trkpt lat="41.648250090" lon="2.561880080">
        <ele>324.10</ele>
        <time>2014-03-02T10:32:59Z</time>
      </trkpt>
      <trkpt lat="41.648213370" lon="2.561903390">
        <ele>323.70</ele>
        <time>2014-03-02T10:33:00Z</time>
      </trkpt>
      <trkpt lat="41.648173480" lon="2.561928360">
        <ele>323.50</ele>
        <time>2014-03-02T10:33:01Z</time>
      </trkpt>
      <trkpt lat="41.648131730" lon="2.561953340">
        <ele>323.30</ele>
        <time>2014-03-02T10:33:02Z</time>
      </trkpt>
      <trkpt lat="41.648090160" lon="2.561986700">
        <ele>322.50</ele>
        <time>2014-03-02T10:33:03Z</time>
      </trkpt>
      <trkpt lat="41.648045070" lon="2.562011680">
        <ele>321.90</ele>
        <time>2014-03-02T10:33:04Z</time>
      </trkpt>
      <trkpt lat="41.648001810" lon="2.562031800">
        <ele>321.40</ele>
        <time>2014-03-02T10:33:05Z</time>
      </trkpt>
      <trkpt lat="41.647963430" lon="2.562043360">
        <ele>321.10</ele>
        <time>2014-03-02T10:33:06Z</time>
      </trkpt>
      <trkpt lat="41.647916820" lon="2.562058450">
        <ele>320.90</ele>
        <time>2014-03-02T10:33:07Z</time>
      </trkpt>
      <trkpt lat="41.647873400" lon="2.562071690">
        <ele>320.90</ele>
        <time>2014-03-02T10:33:08Z</time>
      </trkpt>
      <trkpt lat="41.647831660" lon="2.562086780">
        <ele>320.90</ele>
        <time>2014-03-02T10:33:09Z</time>
      </trkpt>
      <trkpt lat="41.647791760" lon="2.562098350">
        <ele>321.00</ele>
        <time>2014-03-02T10:33:10Z</time>
      </trkpt>
      <trkpt lat="41.647753380" lon="2.562118470">
        <ele>321.10</ele>
        <time>2014-03-02T10:33:11Z</time>
      </trkpt>
      <trkpt lat="41.647720020" lon="2.562135060">
        <ele>321.10</ele>
        <time>2014-03-02T10:33:12Z</time>
      </trkpt>
      <trkpt lat="41.647695040" lon="2.562150150">
        <ele>321.00</ele>
        <time>2014-03-02T10:33:13Z</time>
      </trkpt>
      <trkpt lat="41.647673410" lon="2.562160040">
        <ele>321.00</ele>
        <time>2014-03-02T10:33:14Z</time>
      </trkpt>
      <trkpt lat="41.647648430" lon="2.562170100">
        <ele>321.00</ele>
        <time>2014-03-02T10:33:15Z</time>
      </trkpt>
      <trkpt lat="41.647623460" lon="2.562185020">
        <ele>321.10</ele>
        <time>2014-03-02T10:33:16Z</time>
      </trkpt>
      <trkpt lat="41.647598480" lon="2.562203460">
        <ele>321.50</ele>
        <time>2014-03-02T10:33:17Z</time>
      </trkpt>
      <trkpt lat="41.647570150" lon="2.562228440">
        <ele>321.80</ele>
        <time>2014-03-02T10:33:18Z</time>
      </trkpt>
      <trkpt lat="41.647538460" lon="2.562251740">
        <ele>322.00</ele>
        <time>2014-03-02T10:33:19Z</time>
      </trkpt>
      <trkpt lat="41.647505100" lon="2.562273360">
        <ele>321.70</ele>
        <time>2014-03-02T10:33:20Z</time>
      </trkpt>
      <trkpt lat="41.647471740" lon="2.562295160">
        <ele>321.50</ele>
        <time>2014-03-02T10:33:21Z</time>
      </trkpt>
      <trkpt lat="41.647438380" lon="2.562316780">
        <ele>321.60</ele>
        <time>2014-03-02T10:33:22Z</time>
      </trkpt>
      <trkpt lat="41.647406700" lon="2.562338410">
        <ele>321.70</ele>
        <time>2014-03-02T10:33:23Z</time>
      </trkpt>
      <trkpt lat="41.647375020" lon="2.562351820">
        <ele>321.40</ele>
        <time>2014-03-02T10:33:24Z</time>
      </trkpt>
      <trkpt lat="41.647350040" lon="2.562363380">
        <ele>321.20</ele>
        <time>2014-03-02T10:33:25Z</time>
      </trkpt>
      <trkpt lat="41.647321710" lon="2.562368410">
        <ele>321.00</ele>
        <time>2014-03-02T10:33:26Z</time>
      </trkpt>
      <trkpt lat="41.647291700" lon="2.562370090">
        <ele>321.00</ele>
        <time>2014-03-02T10:33:27Z</time>
      </trkpt>
      <trkpt lat="41.647255150" lon="2.562381830">
        <ele>320.90</ele>
        <time>2014-03-02T10:33:28Z</time>
      </trkpt>
      <trkpt lat="41.647220120" lon="2.562393390">
        <ele>320.70</ele>
        <time>2014-03-02T10:33:29Z</time>
      </trkpt>
      <trkpt lat="41.647185080" lon="2.562400100">
        <ele>320.60</ele>
        <time>2014-03-02T10:33:30Z</time>
      </trkpt>
      <trkpt lat="41.647150050" lon="2.562403450">
        <ele>320.50</ele>
        <time>2014-03-02T10:33:31Z</time>
      </trkpt>
      <trkpt lat="41.647113330" lon="2.562405130">
        <ele>320.10</ele>
        <time>2014-03-02T10:33:32Z</time>
      </trkpt>
      <trkpt lat="41.647071760" lon="2.562405130">
        <ele>319.80</ele>
        <time>2014-03-02T10:33:33Z</time>
      </trkpt>
      <trkpt lat="41.647031690" lon="2.562400100">
        <ele>319.60</ele>
        <time>2014-03-02T10:33:34Z</time>
      </trkpt>
      <trkpt lat="41.646988440" lon="2.562395070">
        <ele>319.40</ele>
        <time>2014-03-02T10:33:35Z</time>
      </trkpt>
      <trkpt lat="41.646940000" lon="2.562383330">
        <ele>319.40</ele>
        <time>2014-03-02T10:33:36Z</time>
      </trkpt>
      <trkpt lat="41.646895070" lon="2.562358360">
        <ele>319.30</ele>
        <time>2014-03-02T10:33:37Z</time>
      </trkpt>
      <trkpt lat="41.646850140" lon="2.562328350">
        <ele>319.30</ele>
        <time>2014-03-02T10:33:38Z</time>
      </trkpt>
      <trkpt lat="41.646798340" lon="2.562298340">
        <ele>319.00</ele>
        <time>2014-03-02T10:33:39Z</time>
      </trkpt>
      <trkpt lat="41.646745030" lon="2.562275040">
        <ele>318.90</ele>
        <time>2014-03-02T10:33:40Z</time>
      </trkpt>
      <trkpt lat="41.646696750" lon="2.562251740">
        <ele>318.50</ele>
        <time>2014-03-02T10:33:41Z</time>
      </trkpt>
      <trkpt lat="41.646646800" lon="2.562230110">
        <ele>318.20</ele>
        <time>2014-03-02T10:33:42Z</time>
      </trkpt>
      <trkpt lat="41.646595000" lon="2.562211670">
        <ele>317.90</ele>
        <time>2014-03-02T10:33:43Z</time>
      </trkpt>
      <trkpt lat="41.646546720" lon="2.562188370">
        <ele>317.60</ele>
        <time>2014-03-02T10:33:44Z</time>
      </trkpt>
      <trkpt lat="41.646501790" lon="2.562153330">
        <ele>317.50</ele>
        <time>2014-03-02T10:33:45Z</time>
      </trkpt>
      <trkpt lat="41.646463400" lon="2.562103380">
        <ele>317.40</ele>
        <time>2014-03-02T10:33:46Z</time>
      </trkpt>
      <trkpt lat="41.646426690" lon="2.562053420">
        <ele>317.40</ele>
        <time>2014-03-02T10:33:47Z</time>
      </trkpt>
      <trkpt lat="41.646386790" lon="2.562010000">
        <ele>316.70</ele>
        <time>2014-03-02T10:33:48Z</time>
      </trkpt>
      <trkpt lat="41.646348400" lon="2.561973460">
        <ele>316.20</ele>
        <time>2014-03-02T10:33:49Z</time>
      </trkpt>
      <trkpt lat="41.646303470" lon="2.561948480">
        <ele>315.90</ele>
        <time>2014-03-02T10:33:50Z</time>
      </trkpt>
      <trkpt lat="41.646258380" lon="2.561931720">
        <ele>315.50</ele>
        <time>2014-03-02T10:33:51Z</time>
      </trkpt>
      <trkpt lat="41.646216800" lon="2.561928360">
        <ele>315.30</ele>
        <time>2014-03-02T10:33:52Z</time>
      </trkpt>
      <trkpt lat="41.646173390" lon="2.561931720">
        <ele>314.80</ele>
        <time>2014-03-02T10:33:53Z</time>
      </trkpt>
      <trkpt lat="41.646133490" lon="2.561943450">
        <ele>314.40</ele>
        <time>2014-03-02T10:33:54Z</time>
      </trkpt>
      <trkpt lat="41.646096780" lon="2.561960050">
        <ele>314.00</ele>
        <time>2014-03-02T10:33:55Z</time>
      </trkpt>
      <trkpt lat="41.646065090" lon="2.561981670">
        <ele>313.70</ele>
        <time>2014-03-02T10:33:56Z</time>
      </trkpt>
      <trkpt lat="41.646036760" lon="2.562008500">
        <ele>313.50</ele>
        <time>2014-03-02T10:33:57Z</time>
      </trkpt>
      <trkpt lat="41.646006750" lon="2.562023410">
        <ele>312.60</ele>
        <time>2014-03-02T10:33:58Z</time>
      </trkpt>
      <trkpt lat="41.645973390" lon="2.562026770">
        <ele>311.90</ele>
        <time>2014-03-02T10:33:59Z</time>
      </trkpt>
      <trkpt lat="41.645936680" lon="2.562018390">
        <ele>311.70</ele>
        <time>2014-03-02T10:34:00Z</time>
      </trkpt>
      <trkpt lat="41.645905000" lon="2.561995080">
        <ele>311.60</ele>
        <time>2014-03-02T10:34:01Z</time>
      </trkpt>
      <trkpt lat="41.645885050" lon="2.561956690">
        <ele>310.90</ele>
        <time>2014-03-02T10:34:02Z</time>
      </trkpt>
      <trkpt lat="41.645875160" lon="2.561916800">
        <ele>310.40</ele>
        <time>2014-03-02T10:34:03Z</time>
      </trkpt>
      <trkpt lat="41.645871810" lon="2.561875060">
        <ele>310.00</ele>
        <time>2014-03-02T10:34:04Z</time>
      </trkpt>
      <trkpt lat="41.645873480" lon="2.561830130">
        <ele>309.20</ele>
        <time>2014-03-02T10:34:05Z</time>
      </trkpt>
      <trkpt lat="41.645881700" lon="2.561785030">
        <ele>308.70</ele>
        <time>2014-03-02T10:34:06Z</time>
      </trkpt>
      <trkpt lat="41.645890080" lon="2.561741780">
        <ele>308.20</ele>
        <time>2014-03-02T10:34:07Z</time>
      </trkpt>
      <trkpt lat="41.645891750" lon="2.561688470">
        <ele>307.80</ele>
        <time>2014-03-02T10:34:08Z</time>
      </trkpt>
      <trkpt lat="41.645886730" lon="2.561630140">
        <ele>307.60</ele>
        <time>2014-03-02T10:34:09Z</time>
      </trkpt>
      <trkpt lat="41.645870130" lon="2.561576830">
        <ele>306.90</ele>
        <time>2014-03-02T10:34:10Z</time>
      </trkpt>
      <trkpt lat="41.645845150" lon="2.561528380">
        <ele>306.40</ele>
        <time>2014-03-02T10:34:11Z</time>
      </trkpt>
      <trkpt lat="41.645810110" lon="2.561486810">
        <ele>306.40</ele>
        <time>2014-03-02T10:34:12Z</time>
      </trkpt>
      <trkpt lat="41.645763340" lon="2.561455120">
        <ele>306.40</ele>
        <time>2014-03-02T10:34:13Z</time>
      </trkpt>
      <trkpt lat="41.645708360" lon="2.561433330">
        <ele>305.70</ele>
        <time>2014-03-02T10:34:14Z</time>
      </trkpt>
      <trkpt lat="41.645655050" lon="2.561411700">
        <ele>305.20</ele>
        <time>2014-03-02T10:34:15Z</time>
      </trkpt>
      <trkpt lat="41.645598390" lon="2.561390080">
        <ele>304.80</ele>
        <time>2014-03-02T10:34:16Z</time>
      </trkpt>
      <trkpt lat="41.645540050" lon="2.561368450">
        <ele>304.10</ele>
        <time>2014-03-02T10:34:17Z</time>
      </trkpt>
      <trkpt lat="41.645483390" lon="2.561340120">
        <ele>303.60</ele>
        <time>2014-03-02T10:34:18Z</time>
      </trkpt>
      <trkpt lat="41.645428400" lon="2.561308440">
        <ele>302.70</ele>
        <time>2014-03-02T10:34:19Z</time>
      </trkpt>
      <trkpt lat="41.645371740" lon="2.561278430">
        <ele>302.00</ele>
        <time>2014-03-02T10:34:20Z</time>
      </trkpt>
      <trkpt lat="41.645318430" lon="2.561255130">
        <ele>301.80</ele>
        <time>2014-03-02T10:34:21Z</time>
      </trkpt>
      <trkpt lat="41.645265120" lon="2.561235010">
        <ele>301.60</ele>
        <time>2014-03-02T10:34:22Z</time>
      </trkpt>
      <trkpt lat="41.645216680" lon="2.561226800">
        <ele>301.50</ele>
        <time>2014-03-02T10:34:23Z</time>
      </trkpt>
      <trkpt lat="41.645170070" lon="2.561228480">
        <ele>301.00</ele>
        <time>2014-03-02T10:34:24Z</time>
      </trkpt>
      <trkpt lat="41.645126820" lon="2.561246750">
        <ele>300.70</ele>
        <time>2014-03-02T10:34:25Z</time>
      </trkpt>
      <trkpt lat="41.645086760" lon="2.561280110">
        <ele>299.90</ele>
        <time>2014-03-02T10:34:26Z</time>
      </trkpt>
      <trkpt lat="41.645050040" lon="2.561323360">
        <ele>299.30</ele>
        <time>2014-03-02T10:34:27Z</time>
      </trkpt>
      <trkpt lat="41.645011820" lon="2.561365100">
        <ele>298.90</ele>
        <time>2014-03-02T10:34:28Z</time>
      </trkpt>
      <trkpt lat="41.644973430" lon="2.561408350">
        <ele>298.20</ele>
        <time>2014-03-02T10:34:29Z</time>
      </trkpt>
      <trkpt lat="41.644936720" lon="2.561455120">
        <ele>297.70</ele>
        <time>2014-03-02T10:34:30Z</time>
      </trkpt>
      <trkpt lat="41.644895150" lon="2.561501730">
        <ele>296.90</ele>
        <time>2014-03-02T10:34:31Z</time>
      </trkpt>
      <trkpt lat="41.644851730" lon="2.561546820">
        <ele>296.40</ele>
        <time>2014-03-02T10:34:32Z</time>
      </trkpt>
      <trkpt lat="41.644810150" lon="2.561590070">
        <ele>295.50</ele>
        <time>2014-03-02T10:34:33Z</time>
      </trkpt>
      <trkpt lat="41.644766740" lon="2.561628460">
        <ele>294.80</ele>
        <time>2014-03-02T10:34:34Z</time>
      </trkpt>
      <trkpt lat="41.644721810" lon="2.561661820">
        <ele>294.30</ele>
        <time>2014-03-02T10:34:35Z</time>
      </trkpt>
      <trkpt lat="41.644673360" lon="2.561681770">
        <ele>293.50</ele>
        <time>2014-03-02T10:34:36Z</time>
      </trkpt>
      <trkpt lat="41.644621730" lon="2.561686800">
        <ele>292.90</ele>
        <time>2014-03-02T10:34:37Z</time>
      </trkpt>
      <trkpt lat="41.644570100" lon="2.561680090">
        <ele>292.10</ele>
        <time>2014-03-02T10:34:38Z</time>
      </trkpt>
      <trkpt lat="41.644515110" lon="2.561666680">
        <ele>291.50</ele>
        <time>2014-03-02T10:34:39Z</time>
      </trkpt>
      <trkpt lat="41.644455100" lon="2.561645060">
        <ele>290.50</ele>
        <time>2014-03-02T10:34:40Z</time>
      </trkpt>
      <trkpt lat="41.644391730" lon="2.561621750">
        <ele>289.70</ele>
        <time>2014-03-02T10:34:41Z</time>
      </trkpt>
      <trkpt lat="41.644323330" lon="2.561603480">
        <ele>289.10</ele>
        <time>2014-03-02T10:34:42Z</time>
      </trkpt>
      <trkpt lat="41.644248400" lon="2.561591750">
        <ele>288.20</ele>
        <time>2014-03-02T10:34:43Z</time>
      </trkpt>
      <trkpt lat="41.644168440" lon="2.561578340">
        <ele>287.40</ele>
        <time>2014-03-02T10:34:44Z</time>
      </trkpt>
      <trkpt lat="41.644091820" lon="2.561566770">
        <ele>286.20</ele>
        <time>2014-03-02T10:34:45Z</time>
      </trkpt>
      <trkpt lat="41.644025100" lon="2.561550000">
        <ele>285.20</ele>
        <time>2014-03-02T10:34:46Z</time>
      </trkpt>
      <trkpt lat="41.643968440" lon="2.561516810">
        <ele>284.50</ele>
        <time>2014-03-02T10:34:47Z</time>
      </trkpt>
      <trkpt lat="41.643930050" lon="2.561463340">
        <ele>284.10</ele>
        <time>2014-03-02T10:34:48Z</time>
      </trkpt>
      <trkpt lat="41.643901720" lon="2.561395110">
        <ele>283.80</ele>
        <time>2014-03-02T10:34:49Z</time>
      </trkpt>
      <trkpt lat="41.643886800" lon="2.561316820">
        <ele>283.10</ele>
        <time>2014-03-02T10:34:50Z</time>
      </trkpt>
      <trkpt lat="41.643875070" lon="2.561236690">
        <ele>282.50</ele>
        <time>2014-03-02T10:34:51Z</time>
      </trkpt>
      <trkpt lat="41.643865010" lon="2.561158400">
        <ele>281.80</ele>
        <time>2014-03-02T10:34:52Z</time>
      </trkpt>
      <trkpt lat="41.643858470" lon="2.561076760">
        <ele>281.30</ele>
        <time>2014-03-02T10:34:53Z</time>
      </trkpt>
      <trkpt lat="41.643856800" lon="2.560986740">
        <ele>280.90</ele>
        <time>2014-03-02T10:34:54Z</time>
      </trkpt>
      <trkpt lat="41.643855120" lon="2.560891690">
        <ele>280.50</ele>
        <time>2014-03-02T10:34:55Z</time>
      </trkpt>
      <trkpt lat="41.643853440" lon="2.560800160">
        <ele>280.20</ele>
        <time>2014-03-02T10:34:56Z</time>
      </trkpt>
      <trkpt lat="41.643850090" lon="2.560711810">
        <ele>279.50</ele>
        <time>2014-03-02T10:34:57Z</time>
      </trkpt>
      <trkpt lat="41.643845060" lon="2.560633360">
        <ele>278.90</ele>
        <time>2014-03-02T10:34:58Z</time>
      </trkpt>
      <trkpt lat="41.643825110" lon="2.560566810">
        <ele>278.40</ele>
        <time>2014-03-02T10:34:59Z</time>
      </trkpt>
      <trkpt lat="41.643783370" lon="2.560510150">
        <ele>278.00</ele>
        <time>2014-03-02T10:35:00Z</time>
      </trkpt>
      <trkpt lat="41.643731740" lon="2.560455160">
        <ele>277.70</ele>
        <time>2014-03-02T10:35:01Z</time>
      </trkpt>
      <trkpt lat="41.643670050" lon="2.560401680">
        <ele>277.00</ele>
        <time>2014-03-02T10:35:02Z</time>
      </trkpt>
      <trkpt lat="41.643605000" lon="2.560346700">
        <ele>276.50</ele>
        <time>2014-03-02T10:35:03Z</time>
      </trkpt>
      <trkpt lat="41.643533420" lon="2.560291710">
        <ele>275.70</ele>
        <time>2014-03-02T10:35:04Z</time>
      </trkpt>
      <trkpt lat="41.643458490" lon="2.560243430">
        <ele>275.10</ele>
        <time>2014-03-02T10:35:05Z</time>
      </trkpt>
      <trkpt lat="41.643385060" lon="2.560206720">
        <ele>274.60</ele>
        <time>2014-03-02T10:35:06Z</time>
      </trkpt>
      <trkpt lat="41.643316670" lon="2.560171680">
        <ele>273.90</ele>
        <time>2014-03-02T10:35:07Z</time>
      </trkpt>
      <trkpt lat="41.643251790" lon="2.560140000">
        <ele>273.40</ele>
        <time>2014-03-02T10:35:08Z</time>
      </trkpt>
      <trkpt lat="41.643175010" lon="2.560118380">
        <ele>272.70</ele>
        <time>2014-03-02T10:35:09Z</time>
      </trkpt>
      <trkpt lat="41.643095050" lon="2.560100100">
        <ele>272.20</ele>
        <time>2014-03-02T10:35:10Z</time>
      </trkpt>
      <trkpt lat="41.643010060" lon="2.560096750">
        <ele>271.60</ele>
        <time>2014-03-02T10:35:11Z</time>
      </trkpt>
      <trkpt lat="41.642928420" lon="2.560103460">
        <ele>271.10</ele>
        <time>2014-03-02T10:35:12Z</time>
      </trkpt>
      <trkpt lat="41.642851810" lon="2.560106810">
        <ele>270.70</ele>
        <time>2014-03-02T10:35:13Z</time>
      </trkpt>
      <trkpt lat="41.642773350" lon="2.560121730">
        <ele>269.80</ele>
        <time>2014-03-02T10:35:14Z</time>
      </trkpt>
      <trkpt lat="41.642698420" lon="2.560146710">
        <ele>269.10</ele>
        <time>2014-03-02T10:35:15Z</time>
      </trkpt>
      <trkpt lat="41.642631700" lon="2.560176710">
        <ele>268.10</ele>
        <time>2014-03-02T10:35:16Z</time>
      </trkpt>
      <trkpt lat="41.642565140" lon="2.560205040">
        <ele>267.40</ele>
        <time>2014-03-02T10:35:17Z</time>
      </trkpt>
      <trkpt lat="41.642490040" lon="2.560228350">
        <ele>266.20</ele>
        <time>2014-03-02T10:35:18Z</time>
      </trkpt>
      <trkpt lat="41.642420140" lon="2.560223480">
        <ele>265.30</ele>
        <time>2014-03-02T10:35:19Z</time>
      </trkpt>
      <trkpt lat="41.642351740" lon="2.560201690">
        <ele>264.60</ele>
        <time>2014-03-02T10:35:20Z</time>
      </trkpt>
      <trkpt lat="41.642290050" lon="2.560158440">
        <ele>264.20</ele>
        <time>2014-03-02T10:35:21Z</time>
      </trkpt>
      <trkpt lat="41.642231710" lon="2.560098430">
        <ele>263.80</ele>
        <time>2014-03-02T10:35:22Z</time>
      </trkpt>
      <trkpt lat="41.642175050" lon="2.560033380">
        <ele>263.50</ele>
        <time>2014-03-02T10:35:23Z</time>
      </trkpt>
      <trkpt lat="41.642115040" lon="2.559976720">
        <ele>263.20</ele>
        <time>2014-03-02T10:35:24Z</time>
      </trkpt>
      <trkpt lat="41.642051670" lon="2.559941690">
        <ele>263.00</ele>
        <time>2014-03-02T10:35:25Z</time>
      </trkpt>
      <trkpt lat="41.641986790" lon="2.559920060">
        <ele>262.20</ele>
        <time>2014-03-02T10:35:26Z</time>
      </trkpt>
      <trkpt lat="41.641925100" lon="2.559921740">
        <ele>261.60</ele>
        <time>2014-03-02T10:35:27Z</time>
      </trkpt>
      <trkpt lat="41.641858380" lon="2.559948390">
        <ele>260.80</ele>
        <time>2014-03-02T10:35:28Z</time>
      </trkpt>
      <trkpt lat="41.641800040" lon="2.559995160">
        <ele>260.20</ele>
        <time>2014-03-02T10:35:29Z</time>
      </trkpt>
      <trkpt lat="41.641751760" lon="2.560040090">
        <ele>259.60</ele>
        <time>2014-03-02T10:35:30Z</time>
      </trkpt>
      <trkpt lat="41.641706670" lon="2.560080150">
        <ele>259.10</ele>
        <time>2014-03-02T10:35:31Z</time>
      </trkpt>
      <trkpt lat="41.641651690" lon="2.560120050">
        <ele>258.80</ele>
        <time>2014-03-02T10:35:32Z</time>
      </trkpt>
      <trkpt lat="41.641591670" lon="2.560153410">
        <ele>258.30</ele>
        <time>2014-03-02T10:35:33Z</time>
      </trkpt>
      <trkpt lat="41.641535010" lon="2.560156770">
        <ele>258.00</ele>
        <time>2014-03-02T10:35:34Z</time>
      </trkpt>
      <trkpt lat="41.641473490" lon="2.560133460">
        <ele>257.40</ele>
        <time>2014-03-02T10:35:35Z</time>
      </trkpt>
      <trkpt lat="41.641431740" lon="2.560076800">
        <ele>257.00</ele>
        <time>2014-03-02T10:35:36Z</time>
      </trkpt>
      <trkpt lat="41.641408440" lon="2.560008410">
        <ele>256.40</ele>
        <time>2014-03-02T10:35:37Z</time>
      </trkpt>
      <trkpt lat="41.641395030" lon="2.559930120">
        <ele>256.00</ele>
        <time>2014-03-02T10:35:38Z</time>
      </trkpt>
      <trkpt lat="41.641390000" lon="2.559841770">
        <ele>255.70</ele>
        <time>2014-03-02T10:35:39Z</time>
      </trkpt>
      <trkpt lat="41.641365020" lon="2.559761810">
        <ele>255.30</ele>
        <time>2014-03-02T10:35:40Z</time>
      </trkpt>
      <trkpt lat="41.641316740" lon="2.559695090">
        <ele>254.90</ele>
        <time>2014-03-02T10:35:41Z</time>
      </trkpt>
      <trkpt lat="41.641251700" lon="2.559655020">
        <ele>254.70</ele>
        <time>2014-03-02T10:35:42Z</time>
      </trkpt>
      <trkpt lat="41.641178440" lon="2.559631720">
        <ele>254.60</ele>
        <time>2014-03-02T10:35:43Z</time>
      </trkpt>
      <trkpt lat="41.641105020" lon="2.559611770">
        <ele>254.40</ele>
        <time>2014-03-02T10:35:44Z</time>
      </trkpt>
      <trkpt lat="41.641033440" lon="2.559588470">
        <ele>253.80</ele>
        <time>2014-03-02T10:35:45Z</time>
      </trkpt>
      <trkpt lat="41.640965040" lon="2.559558460">
        <ele>253.30</ele>
        <time>2014-03-02T10:35:46Z</time>
      </trkpt>
      <trkpt lat="41.640901670" lon="2.559526780">
        <ele>252.60</ele>
        <time>2014-03-02T10:35:47Z</time>
      </trkpt>
      <trkpt lat="41.640841830" lon="2.559503480">
        <ele>252.00</ele>
        <time>2014-03-02T10:35:48Z</time>
      </trkpt>
      <trkpt lat="41.640785000" lon="2.559500130">
        <ele>251.40</ele>
        <time>2014-03-02T10:35:49Z</time>
      </trkpt>
      <trkpt lat="41.640731690" lon="2.559518400">
        <ele>251.00</ele>
        <time>2014-03-02T10:35:50Z</time>
      </trkpt>
      <trkpt lat="41.640686760" lon="2.559548410">
        <ele>250.70</ele>
        <time>2014-03-02T10:35:51Z</time>
      </trkpt>
      <trkpt lat="41.640635130" lon="2.559570030">
        <ele>250.10</ele>
        <time>2014-03-02T10:35:52Z</time>
      </trkpt>
      <trkpt lat="41.640573440" lon="2.559575060">
        <ele>249.60</ele>
        <time>2014-03-02T10:35:53Z</time>
      </trkpt>
      <trkpt lat="41.640506720" lon="2.559558460">
        <ele>249.00</ele>
        <time>2014-03-02T10:35:54Z</time>
      </trkpt>
      <trkpt lat="41.640436810" lon="2.559535000">
        <ele>248.60</ele>
        <time>2014-03-02T10:35:55Z</time>
      </trkpt>
      <trkpt lat="41.640366740" lon="2.559516720">
        <ele>248.00</ele>
        <time>2014-03-02T10:35:56Z</time>
      </trkpt>
      <trkpt lat="41.640295160" lon="2.559508340">
        <ele>247.50</ele>
        <time>2014-03-02T10:35:57Z</time>
      </trkpt>
      <trkpt lat="41.640226760" lon="2.559508340">
        <ele>247.10</ele>
        <time>2014-03-02T10:35:58Z</time>
      </trkpt>
      <trkpt lat="41.640156690" lon="2.559500130">
        <ele>246.30</ele>
        <time>2014-03-02T10:35:59Z</time>
      </trkpt>
      <trkpt lat="41.640096670" lon="2.559468440">
        <ele>245.60</ele>
        <time>2014-03-02T10:36:00Z</time>
      </trkpt>
      <trkpt lat="41.640040010" lon="2.559425020">
        <ele>245.20</ele>
        <time>2014-03-02T10:36:01Z</time>
      </trkpt>
      <trkpt lat="41.639996760" lon="2.559368360">
        <ele>244.90</ele>
        <time>2014-03-02T10:36:02Z</time>
      </trkpt>
      <trkpt lat="41.639956700" lon="2.559316730">
        <ele>244.70</ele>
        <time>2014-03-02T10:36:03Z</time>
      </trkpt>
      <trkpt lat="41.639913450" lon="2.559290080">
        <ele>244.10</ele>
        <time>2014-03-02T10:36:04Z</time>
      </trkpt>
      <trkpt lat="41.639865000" lon="2.559290080">
        <ele>243.60</ele>
        <time>2014-03-02T10:36:05Z</time>
      </trkpt>
      <trkpt lat="41.639818400" lon="2.559320080">
        <ele>242.70</ele>
        <time>2014-03-02T10:36:06Z</time>
      </trkpt>
      <trkpt lat="41.639771790" lon="2.559366690">
        <ele>242.00</ele>
        <time>2014-03-02T10:36:07Z</time>
      </trkpt>
      <trkpt lat="41.639723340" lon="2.559418490">
        <ele>241.20</ele>
        <time>2014-03-02T10:36:08Z</time>
      </trkpt>
      <trkpt lat="41.639673390" lon="2.559473470">
        <ele>240.60</ele>
        <time>2014-03-02T10:36:09Z</time>
      </trkpt>
      <trkpt lat="41.639623430" lon="2.559526780">
        <ele>240.10</ele>
        <time>2014-03-02T10:36:10Z</time>
      </trkpt>
      <trkpt lat="41.639575150" lon="2.559576740">
        <ele>239.50</ele>
        <time>2014-03-02T10:36:11Z</time>
      </trkpt>
      <trkpt lat="41.639530060" lon="2.559626690">
        <ele>239.00</ele>
        <time>2014-03-02T10:36:12Z</time>
      </trkpt>
      <trkpt lat="41.639485130" lon="2.559681680">
        <ele>238.30</ele>
        <time>2014-03-02T10:36:13Z</time>
      </trkpt>
      <trkpt lat="41.639441710" lon="2.559740020">
        <ele>237.70</ele>
        <time>2014-03-02T10:36:14Z</time>
      </trkpt>
      <trkpt lat="41.639398460" lon="2.559795000">
        <ele>236.70</ele>
        <time>2014-03-02T10:36:15Z</time>
      </trkpt>
      <trkpt lat="41.639353370" lon="2.559841770">
        <ele>235.90</ele>
        <time>2014-03-02T10:36:16Z</time>
      </trkpt>
      <trkpt lat="41.639313470" lon="2.559878490">
        <ele>235.40</ele>
        <time>2014-03-02T10:36:17Z</time>
      </trkpt>
      <trkpt lat="41.639278430" lon="2.559908490">
        <ele>234.90</ele>
        <time>2014-03-02T10:36:18Z</time>
      </trkpt>
      <trkpt lat="41.639245070" lon="2.559931790">
        <ele>234.60</ele>
        <time>2014-03-02T10:36:19Z</time>
      </trkpt>
      <trkpt lat="41.639213390" lon="2.559953420">
        <ele>234.00</ele>
        <time>2014-03-02T10:36:20Z</time>
      </trkpt>
      <trkpt lat="41.639183380" lon="2.559970020">
        <ele>233.60</ele>
        <time>2014-03-02T10:36:21Z</time>
      </trkpt>
      <trkpt lat="41.639146670" lon="2.559985100">
        <ele>233.20</ele>
        <time>2014-03-02T10:36:22Z</time>
      </trkpt>
      <trkpt lat="41.639100070" lon="2.559998350">
        <ele>232.90</ele>
        <time>2014-03-02T10:36:23Z</time>
      </trkpt>
      <trkpt lat="41.639050110" lon="2.560010080">
        <ele>232.70</ele>
        <time>2014-03-02T10:36:24Z</time>
      </trkpt>
      <trkpt lat="41.638993450" lon="2.560023490">
        <ele>232.20</ele>
        <time>2014-03-02T10:36:25Z</time>
      </trkpt>
      <trkpt lat="41.638936790" lon="2.560031710">
        <ele>231.90</ele>
        <time>2014-03-02T10:36:26Z</time>
      </trkpt>
      <trkpt lat="41.638880120" lon="2.560031710">
        <ele>231.30</ele>
        <time>2014-03-02T10:36:27Z</time>
      </trkpt>
      <trkpt lat="41.638816760" lon="2.560025000">
        <ele>230.90</ele>
        <time>2014-03-02T10:36:28Z</time>
      </trkpt>
      <trkpt lat="41.638753390" lon="2.560010080">
        <ele>230.50</ele>
        <time>2014-03-02T10:36:29Z</time>
      </trkpt>
      <trkpt lat="41.638693380" lon="2.559990130">
        <ele>229.80</ele>
        <time>2014-03-02T10:36:30Z</time>
      </trkpt>
      <trkpt lat="41.638635040" lon="2.559963480">
        <ele>229.30</ele>
        <time>2014-03-02T10:36:31Z</time>
      </trkpt>
      <trkpt lat="41.638573350" lon="2.559935150">
        <ele>228.80</ele>
        <time>2014-03-02T10:36:32Z</time>
      </trkpt>
      <trkpt lat="41.638510150" lon="2.559906820">
        <ele>228.40</ele>
        <time>2014-03-02T10:36:33Z</time>
      </trkpt>
      <trkpt lat="41.638453490" lon="2.559873460">
        <ele>227.60</ele>
        <time>2014-03-02T10:36:34Z</time>
      </trkpt>
      <trkpt lat="41.638396820" lon="2.559843450">
        <ele>227.00</ele>
        <time>2014-03-02T10:36:35Z</time>
      </trkpt>
      <trkpt lat="41.638338490" lon="2.559821820">
        <ele>226.50</ele>
        <time>2014-03-02T10:36:36Z</time>
      </trkpt>
      <trkpt lat="41.638280150" lon="2.559820150">
        <ele>226.30</ele>
        <time>2014-03-02T10:36:37Z</time>
      </trkpt>
      <trkpt lat="41.638226670" lon="2.559840100">
        <ele>226.10</ele>
        <time>2014-03-02T10:36:38Z</time>
      </trkpt>
      <trkpt lat="41.638180070" lon="2.559875130">
        <ele>225.60</ele>
        <time>2014-03-02T10:36:39Z</time>
      </trkpt>
      <trkpt lat="41.638141680" lon="2.559926770">
        <ele>225.20</ele>
        <time>2014-03-02T10:36:40Z</time>
      </trkpt>
      <trkpt lat="41.638111670" lon="2.559993490">
        <ele>224.80</ele>
        <time>2014-03-02T10:36:41Z</time>
      </trkpt>
      <trkpt lat="41.638080160" lon="2.560058360">
        <ele>224.50</ele>
        <time>2014-03-02T10:36:42Z</time>
      </trkpt>
      <trkpt lat="41.638043440" lon="2.560120050">
        <ele>224.30</ele>
        <time>2014-03-02T10:36:43Z</time>
      </trkpt>
      <trkpt lat="41.638003380" lon="2.560193480">
        <ele>223.40</ele>
        <time>2014-03-02T10:36:44Z</time>
      </trkpt>
      <trkpt lat="41.637955100" lon="2.560266740">
        <ele>222.70</ele>
        <time>2014-03-02T10:36:45Z</time>
      </trkpt>
      <trkpt lat="41.637906820" lon="2.560328430">
        <ele>221.90</ele>
        <time>2014-03-02T10:36:46Z</time>
      </trkpt>
      <trkpt lat="41.637860050" lon="2.560381740">
        <ele>221.30</ele>
        <time>2014-03-02T10:36:47Z</time>
      </trkpt>
      <trkpt lat="41.637818470" lon="2.560428340">
        <ele>220.80</ele>
        <time>2014-03-02T10:36:48Z</time>
      </trkpt>
      <trkpt lat="41.637786790" lon="2.560476790">
        <ele>220.60</ele>
        <time>2014-03-02T10:36:49Z</time>
      </trkpt>
      <trkpt lat="41.637771700" lon="2.560531770">
        <ele>220.50</ele>
        <time>2014-03-02T10:36:50Z</time>
      </trkpt>
      <trkpt lat="41.637773380" lon="2.560590110">
        <ele>219.70</ele>
        <time>2014-03-02T10:36:51Z</time>
      </trkpt>
      <trkpt lat="41.637793490" lon="2.560640070">
        <ele>219.20</ele>
        <time>2014-03-02T10:36:52Z</time>
      </trkpt>
      <trkpt lat="41.637831720" lon="2.560683480">
        <ele>218.90</ele>
        <time>2014-03-02T10:36:53Z</time>
      </trkpt>
      <trkpt lat="41.637875130" lon="2.560733440">
        <ele>218.70</ele>
        <time>2014-03-02T10:36:54Z</time>
      </trkpt>
      <trkpt lat="41.637921740" lon="2.560783400">
        <ele>218.50</ele>
        <time>2014-03-02T10:36:55Z</time>
      </trkpt>
      <trkpt lat="41.637976720" lon="2.560828490">
        <ele>218.00</ele>
        <time>2014-03-02T10:36:56Z</time>
      </trkpt>
      <trkpt lat="41.638031710" lon="2.560875090">
        <ele>217.60</ele>
        <time>2014-03-02T10:36:57Z</time>
      </trkpt>
      <trkpt lat="41.638090050" lon="2.560921700">
        <ele>217.10</ele>
        <time>2014-03-02T10:36:58Z</time>
      </trkpt>
      <trkpt lat="41.638146710" lon="2.560968470">
        <ele>216.70</ele>
        <time>2014-03-02T10:36:59Z</time>
      </trkpt>
      <trkpt lat="41.638201690" lon="2.561016750">
        <ele>216.10</ele>
        <time>2014-03-02T10:37:00Z</time>
      </trkpt>
      <trkpt lat="41.638253490" lon="2.561061680">
        <ele>215.70</ele>
        <time>2014-03-02T10:37:01Z</time>
      </trkpt>
      <trkpt lat="41.638301770" lon="2.561106770">
        <ele>215.40</ele>
        <time>2014-03-02T10:37:02Z</time>
      </trkpt>
      <trkpt lat="41.638345020" lon="2.561156730">
        <ele>214.90</ele>
        <time>2014-03-02T10:37:03Z</time>
      </trkpt>
      <trkpt lat="41.638381740" lon="2.561215060">
        <ele>214.50</ele>
        <time>2014-03-02T10:37:04Z</time>
      </trkpt>
      <trkpt lat="41.638413420" lon="2.561278430">
        <ele>214.20</ele>
        <time>2014-03-02T10:37:05Z</time>
      </trkpt>
      <trkpt lat="41.638451810" lon="2.561333420">
        <ele>213.90</ele>
        <time>2014-03-02T10:37:06Z</time>
      </trkpt>
      <trkpt lat="41.638503440" lon="2.561380020">
        <ele>213.80</ele>
        <time>2014-03-02T10:37:07Z</time>
      </trkpt>
      <trkpt lat="41.638560100" lon="2.561420090">
        <ele>213.20</ele>
        <time>2014-03-02T10:37:08Z</time>
      </trkpt>
      <trkpt lat="41.638620120" lon="2.561460150">
        <ele>212.80</ele>
        <time>2014-03-02T10:37:09Z</time>
      </trkpt>
      <trkpt lat="41.638683490" lon="2.561496700">
        <ele>212.10</ele>
        <time>2014-03-02T10:37:10Z</time>
      </trkpt>
      <trkpt lat="41.638746690" lon="2.561531730">
        <ele>211.70</ele>
        <time>2014-03-02T10:37:11Z</time>
      </trkpt>
      <trkpt lat="41.638806700" lon="2.561570120">
        <ele>211.00</ele>
        <time>2014-03-02T10:37:12Z</time>
      </trkpt>
      <trkpt lat="41.638871740" lon="2.561608340">
        <ele>210.40</ele>
        <time>2014-03-02T10:37:13Z</time>
      </trkpt>
      <trkpt lat="41.638941820" lon="2.561648410">
        <ele>210.00</ele>
        <time>2014-03-02T10:37:14Z</time>
      </trkpt>
      <trkpt lat="41.639011720" lon="2.561686800">
        <ele>209.40</ele>
        <time>2014-03-02T10:37:15Z</time>
      </trkpt>
      <trkpt lat="41.639073410" lon="2.561726700">
        <ele>209.00</ele>
        <time>2014-03-02T10:37:16Z</time>
      </trkpt>
      <trkpt lat="41.639130070" lon="2.561771790">
        <ele>208.70</ele>
        <time>2014-03-02T10:37:17Z</time>
      </trkpt>
      <trkpt lat="41.639186730" lon="2.561820070">
        <ele>208.50</ele>
        <time>2014-03-02T10:37:18Z</time>
      </trkpt>
      <trkpt lat="41.639241720" lon="2.561871700">
        <ele>207.80</ele>
        <time>2014-03-02T10:37:19Z</time>
      </trkpt>
      <trkpt lat="41.639291680" lon="2.561926690">
        <ele>207.20</ele>
        <time>2014-03-02T10:37:20Z</time>
      </trkpt>
      <trkpt lat="41.639341800" lon="2.561978490">
        <ele>206.70</ele>
        <time>2014-03-02T10:37:21Z</time>
      </trkpt>
      <trkpt lat="41.639395110" lon="2.562025090">
        <ele>206.40</ele>
        <time>2014-03-02T10:37:22Z</time>
      </trkpt>
      <trkpt lat="41.639448420" lon="2.562063480">
        <ele>206.10</ele>
        <time>2014-03-02T10:37:23Z</time>
      </trkpt>
      <trkpt lat="41.639503400" lon="2.562093490">
        <ele>205.60</ele>
        <time>2014-03-02T10:37:24Z</time>
      </trkpt>
      <trkpt lat="41.639555040" lon="2.562136740">
        <ele>205.20</ele>
        <time>2014-03-02T10:37:25Z</time>
      </trkpt>
      <trkpt lat="41.639596780" lon="2.562183340">
        <ele>204.90</ele>
        <time>2014-03-02T10:37:26Z</time>
      </trkpt>
      <trkpt lat="41.639623430" lon="2.562230110">
        <ele>204.60</ele>
        <time>2014-03-02T10:37:27Z</time>
      </trkpt>
      <trkpt lat="41.639633490" lon="2.562285100">
        <ele>204.30</ele>
        <time>2014-03-02T10:37:28Z</time>
      </trkpt>
      <trkpt lat="41.639623430" lon="2.562346790">
        <ele>204.00</ele>
        <time>2014-03-02T10:37:29Z</time>
      </trkpt>
      <trkpt lat="41.639608340" lon="2.562413340">
        <ele>203.70</ele>
        <time>2014-03-02T10:37:30Z</time>
      </trkpt>
      <trkpt lat="41.639601810" lon="2.562485090">
        <ele>203.20</ele>
        <time>2014-03-02T10:37:31Z</time>
      </trkpt>
      <trkpt lat="41.639608340" lon="2.562551810">
        <ele>202.80</ele>
        <time>2014-03-02T10:37:32Z</time>
      </trkpt>
      <trkpt lat="41.639631810" lon="2.562608470">
        <ele>202.50</ele>
        <time>2014-03-02T10:37:33Z</time>
      </trkpt>
      <trkpt lat="41.639668360" lon="2.562650050">
        <ele>202.20</ele>
        <time>2014-03-02T10:37:34Z</time>
      </trkpt>
      <trkpt lat="41.639713450" lon="2.562685080">
        <ele>201.90</ele>
        <time>2014-03-02T10:37:35Z</time>
      </trkpt>
      <trkpt lat="41.639761730" lon="2.562711740">
        <ele>201.50</ele>
        <time>2014-03-02T10:37:36Z</time>
      </trkpt>
      <trkpt lat="41.639815040" lon="2.562733360">
        <ele>201.30</ele>
        <time>2014-03-02T10:37:37Z</time>
      </trkpt>
      <trkpt lat="41.639868350" lon="2.562750130">
        <ele>200.50</ele>
        <time>2014-03-02T10:37:38Z</time>
      </trkpt>
      <trkpt lat="41.639918480" lon="2.562766720">
        <ele>199.90</ele>
        <time>2014-03-02T10:37:39Z</time>
      </trkpt>
      <trkpt lat="41.639976810" lon="2.562776780">
        <ele>199.50</ele>
        <time>2014-03-02T10:37:40Z</time>
      </trkpt>
      <trkpt lat="41.640030120" lon="2.562793380">
        <ele>199.30</ele>
        <time>2014-03-02T10:37:41Z</time>
      </trkpt>
      <trkpt lat="41.640085110" lon="2.562815000">
        <ele>199.10</ele>
        <time>2014-03-02T10:37:42Z</time>
      </trkpt>
      <trkpt lat="41.640138420" lon="2.562843330">
        <ele>198.80</ele>
        <time>2014-03-02T10:37:43Z</time>
      </trkpt>
      <trkpt lat="41.640190050" lon="2.562878370">
        <ele>198.60</ele>
        <time>2014-03-02T10:37:44Z</time>
      </trkpt>
      <trkpt lat="41.640228440" lon="2.562930000">
        <ele>198.50</ele>
        <time>2014-03-02T10:37:45Z</time>
      </trkpt>
      <trkpt lat="41.640241680" lon="2.562986660">
        <ele>198.20</ele>
        <time>2014-03-02T10:37:46Z</time>
      </trkpt>
      <trkpt lat="41.640238330" lon="2.563040140">
        <ele>198.10</ele>
        <time>2014-03-02T10:37:47Z</time>
      </trkpt>
      <trkpt lat="41.640220060" lon="2.563078360">
        <ele>197.50</ele>
        <time>2014-03-02T10:37:48Z</time>
      </trkpt>
      <trkpt lat="41.640188370" lon="2.563101660">
        <ele>197.00</ele>
        <time>2014-03-02T10:37:49Z</time>
      </trkpt>
      <trkpt lat="41.640155010" lon="2.563105020">
        <ele>197.20</ele>
        <time>2014-03-02T10:37:50Z</time>
      </trkpt>
      <trkpt lat="41.640113440" lon="2.563098480">
        <ele>197.30</ele>
        <time>2014-03-02T10:37:51Z</time>
      </trkpt>
      <trkpt lat="41.640071700" lon="2.563090100">
        <ele>197.30</ele>
        <time>2014-03-02T10:37:52Z</time>
      </trkpt>
      <trkpt lat="41.640031800" lon="2.563083390">
        <ele>197.00</ele>
        <time>2014-03-02T10:37:53Z</time>
      </trkpt>
      <trkpt lat="41.639986700" lon="2.563073330">
        <ele>196.80</ele>
        <time>2014-03-02T10:37:54Z</time>
      </trkpt>
      <trkpt lat="41.639936750" lon="2.563061770">
        <ele>196.10</ele>
        <time>2014-03-02T10:37:55Z</time>
      </trkpt>
      <trkpt lat="41.639888470" lon="2.563040140">
        <ele>195.70</ele>
        <time>2014-03-02T10:37:56Z</time>
      </trkpt>
      <trkpt lat="41.639841700" lon="2.563016670">
        <ele>195.50</ele>
        <time>2014-03-02T10:37:57Z</time>
      </trkpt>
      <trkpt lat="41.639800120" lon="2.562991690">
        <ele>195.40</ele>
        <time>2014-03-02T10:37:58Z</time>
      </trkpt>
      <trkpt lat="41.639755030" lon="2.562966710">
        <ele>195.30</ele>
        <time>2014-03-02T10:37:59Z</time>
      </trkpt>
      <trkpt lat="41.639705070" lon="2.562945090">
        <ele>194.90</ele>
        <time>2014-03-02T10:38:00Z</time>
      </trkpt>
      <trkpt lat="41.639655120" lon="2.562926820">
        <ele>194.70</ele>
        <time>2014-03-02T10:38:01Z</time>
      </trkpt>
      <trkpt lat="41.639600130" lon="2.562916760">
        <ele>194.20</ele>
        <time>2014-03-02T10:38:02Z</time>
      </trkpt>
      <trkpt lat="41.639545150" lon="2.562908380">
        <ele>193.90</ele>
        <time>2014-03-02T10:38:03Z</time>
      </trkpt>
      <trkpt lat="41.639490160" lon="2.562891780">
        <ele>193.60</ele>
        <time>2014-03-02T10:38:04Z</time>
      </trkpt>
      <trkpt lat="41.639433330" lon="2.562863450">
        <ele>193.40</ele>
        <time>2014-03-02T10:38:05Z</time>
      </trkpt>
      <trkpt lat="41.639375160" lon="2.562826740">
        <ele>193.20</ele>
        <time>2014-03-02T10:38:06Z</time>
      </trkpt>
      <trkpt lat="41.639318330" lon="2.562785160">
        <ele>193.10</ele>
        <time>2014-03-02T10:38:07Z</time>
      </trkpt>
      <trkpt lat="41.639265020" lon="2.562745100">
        <ele>193.00</ele>
        <time>2014-03-02T10:38:08Z</time>
      </trkpt>
      <trkpt lat="41.639210040" lon="2.562705030">
        <ele>193.10</ele>
        <time>2014-03-02T10:38:09Z</time>
      </trkpt>
      <trkpt lat="41.639155050" lon="2.562663460">
        <ele>193.20</ele>
        <time>2014-03-02T10:38:10Z</time>
      </trkpt>
      <trkpt lat="41.639100070" lon="2.562620040">
        <ele>193.30</ele>
        <time>2014-03-02T10:38:11Z</time>
      </trkpt>
      <trkpt lat="41.639040050" lon="2.562573440">
        <ele>192.70</ele>
        <time>2014-03-02T10:38:12Z</time>
      </trkpt>
      <trkpt lat="41.638976680" lon="2.562521800">
        <ele>192.30</ele>
        <time>2014-03-02T10:38:13Z</time>
      </trkpt>
      <trkpt lat="41.638911810" lon="2.562473360">
        <ele>191.40</ele>
        <time>2014-03-02T10:38:14Z</time>
      </trkpt>
      <trkpt lat="41.638848440" lon="2.562426750">
        <ele>190.70</ele>
        <time>2014-03-02T10:38:15Z</time>
      </trkpt>
      <trkpt lat="41.638783400" lon="2.562376800">
        <ele>190.10</ele>
        <time>2014-03-02T10:38:16Z</time>
      </trkpt>
      <trkpt lat="41.638721710" lon="2.562336730">
        <ele>189.70</ele>
        <time>2014-03-02T10:38:17Z</time>
      </trkpt>
      <trkpt lat="41.638663370" lon="2.562303370">
        <ele>189.30</ele>
        <time>2014-03-02T10:38:18Z</time>
      </trkpt>
      <trkpt lat="41.638601680" lon="2.562288450">
        <ele>188.90</ele>
        <time>2014-03-02T10:38:19Z</time>
      </trkpt>
      <trkpt lat="41.638545020" lon="2.562286770">
        <ele>188.70</ele>
        <time>2014-03-02T10:38:20Z</time>
      </trkpt>
      <trkpt lat="41.638480140" lon="2.562293480">
        <ele>188.20</ele>
        <time>2014-03-02T10:38:21Z</time>
      </trkpt>
      <trkpt lat="41.638416770" lon="2.562303370">
        <ele>187.80</ele>
        <time>2014-03-02T10:38:22Z</time>
      </trkpt>
      <trkpt lat="41.638355080" lon="2.562310080">
        <ele>187.30</ele>
        <time>2014-03-02T10:38:23Z</time>
      </trkpt>
      <trkpt lat="41.638300100" lon="2.562303370">
        <ele>187.00</ele>
        <time>2014-03-02T10:38:24Z</time>
      </trkpt>
      <trkpt lat="41.638238410" lon="2.562296660">
        <ele>186.80</ele>
        <time>2014-03-02T10:38:25Z</time>
      </trkpt>
      <trkpt lat="41.638176720" lon="2.562283420">
        <ele>186.40</ele>
        <time>2014-03-02T10:38:26Z</time>
      </trkpt>
      <trkpt lat="41.638113350" lon="2.562266830">
        <ele>186.10</ele>
        <time>2014-03-02T10:38:27Z</time>
      </trkpt>
      <trkpt lat="41.638045120" lon="2.562251740">
        <ele>185.80</ele>
        <time>2014-03-02T10:38:28Z</time>
      </trkpt>
      <trkpt lat="41.637980080" lon="2.562233470">
        <ele>185.50</ele>
        <time>2014-03-02T10:38:29Z</time>
      </trkpt>
      <trkpt lat="41.637915030" lon="2.562213350">
        <ele>185.30</ele>
        <time>2014-03-02T10:38:30Z</time>
      </trkpt>
      <trkpt lat="41.637841770" lon="2.562191720">
        <ele>184.70</ele>
        <time>2014-03-02T10:38:31Z</time>
      </trkpt>
      <trkpt lat="41.637771700" lon="2.562173450">
        <ele>184.20</ele>
        <time>2014-03-02T10:38:32Z</time>
      </trkpt>
      <trkpt lat="41.637705150" lon="2.562150150">
        <ele>183.70</ele>
        <time>2014-03-02T10:38:33Z</time>
      </trkpt>
      <trkpt lat="41.637636750" lon="2.562118470">
        <ele>183.20</ele>
        <time>2014-03-02T10:38:34Z</time>
      </trkpt>
      <trkpt lat="41.637573390" lon="2.562073370">
        <ele>182.90</ele>
        <time>2014-03-02T10:38:35Z</time>
      </trkpt>
      <trkpt lat="41.637510020" lon="2.562025090">
        <ele>182.60</ele>
        <time>2014-03-02T10:38:36Z</time>
      </trkpt>
      <trkpt lat="41.637455030" lon="2.561966750">
        <ele>182.50</ele>
        <time>2014-03-02T10:38:37Z</time>
      </trkpt>
      <trkpt lat="41.637405080" lon="2.561903390">
        <ele>182.10</ele>
        <time>2014-03-02T10:38:38Z</time>
      </trkpt>
      <trkpt lat="41.637360150" lon="2.561836670">
        <ele>181.90</ele>
        <time>2014-03-02T10:38:39Z</time>
      </trkpt>
      <trkpt lat="41.637311700" lon="2.561776820">
        <ele>181.30</ele>
        <time>2014-03-02T10:38:40Z</time>
      </trkpt>
      <trkpt lat="41.637258390" lon="2.561733400">
        <ele>180.80</ele>
        <time>2014-03-02T10:38:41Z</time>
      </trkpt>
      <trkpt lat="41.637200060" lon="2.561711780">
        <ele>180.40</ele>
        <time>2014-03-02T10:38:42Z</time>
      </trkpt>
      <trkpt lat="41.637136690" lon="2.561698360">
        <ele>180.30</ele>
        <time>2014-03-02T10:38:43Z</time>
      </trkpt>
      <trkpt lat="41.637070140" lon="2.561685120">
        <ele>180.10</ele>
        <time>2014-03-02T10:38:44Z</time>
      </trkpt>
      <trkpt lat="41.637005090" lon="2.561678420">
        <ele>179.60</ele>
        <time>2014-03-02T10:38:45Z</time>
      </trkpt>
      <trkpt lat="41.636941730" lon="2.561675060">
        <ele>179.10</ele>
        <time>2014-03-02T10:38:46Z</time>
      </trkpt>
      <trkpt lat="41.636875010" lon="2.561678420">
        <ele>178.40</ele>
        <time>2014-03-02T10:38:47Z</time>
      </trkpt>
      <trkpt lat="41.636808450" lon="2.561673390">
        <ele>177.90</ele>
        <time>2014-03-02T10:38:48Z</time>
      </trkpt>
      <trkpt lat="41.636736700" lon="2.561658470">
        <ele>177.50</ele>
        <time>2014-03-02T10:38:49Z</time>
      </trkpt>
      <trkpt lat="41.636670150" lon="2.561638350">
        <ele>176.90</ele>
        <time>2014-03-02T10:38:50Z</time>
      </trkpt>
      <trkpt lat="41.636605110" lon="2.561616720">
        <ele>176.40</ele>
        <time>2014-03-02T10:38:51Z</time>
      </trkpt>
      <trkpt lat="41.636536710" lon="2.561598450">
        <ele>175.90</ele>
        <time>2014-03-02T10:38:52Z</time>
      </trkpt>
      <trkpt lat="41.636466810" lon="2.561581690">
        <ele>175.50</ele>
        <time>2014-03-02T10:38:53Z</time>
      </trkpt>
      <trkpt lat="41.636396730" lon="2.561571800">
        <ele>175.00</ele>
        <time>2014-03-02T10:38:54Z</time>
      </trkpt>
      <trkpt lat="41.636326660" lon="2.561575150">
        <ele>174.70</ele>
        <time>2014-03-02T10:38:55Z</time>
      </trkpt>
      <trkpt lat="41.636255080" lon="2.561591750">
        <ele>174.40</ele>
        <time>2014-03-02T10:38:56Z</time>
      </trkpt>
      <trkpt lat="41.636178470" lon="2.561618400">
        <ele>174.00</ele>
        <time>2014-03-02T10:38:57Z</time>
      </trkpt>
      <trkpt lat="41.636105040" lon="2.561646730">
        <ele>173.80</ele>
        <time>2014-03-02T10:38:58Z</time>
      </trkpt>
      <trkpt lat="41.636030110" lon="2.561673390">
        <ele>172.90</ele>
        <time>2014-03-02T10:38:59Z</time>
      </trkpt>
      <trkpt lat="41.635958360" lon="2.561696690">
        <ele>172.20</ele>
        <time>2014-03-02T10:39:00Z</time>
      </trkpt>
      <trkpt lat="41.635890130" lon="2.561723340">
        <ele>172.00</ele>
        <time>2014-03-02T10:39:01Z</time>
      </trkpt>
      <trkpt lat="41.635828440" lon="2.561751670">
        <ele>171.90</ele>
        <time>2014-03-02T10:39:02Z</time>
      </trkpt>
      <trkpt lat="41.635770100" lon="2.561778500">
        <ele>171.70</ele>
        <time>2014-03-02T10:39:03Z</time>
      </trkpt>
      <trkpt lat="41.635713440" lon="2.561795090">
        <ele>171.30</ele>
        <time>2014-03-02T10:39:04Z</time>
      </trkpt>
      <trkpt lat="41.635658460" lon="2.561798440">
        <ele>170.90</ele>
        <time>2014-03-02T10:39:05Z</time>
      </trkpt>
      <trkpt lat="41.635611690" lon="2.561788390">
        <ele>170.50</ele>
        <time>2014-03-02T10:39:06Z</time>
      </trkpt>
      <trkpt lat="41.635558380" lon="2.561780000">
        <ele>170.20</ele>
        <time>2014-03-02T10:39:07Z</time>
      </trkpt>
      <trkpt lat="41.635506740" lon="2.561776820">
        <ele>169.90</ele>
        <time>2014-03-02T10:39:08Z</time>
      </trkpt>
      <trkpt lat="41.635458460" lon="2.561771790">
        <ele>169.90</ele>
        <time>2014-03-02T10:39:09Z</time>
      </trkpt>
      <trkpt lat="41.635406660" lon="2.561763410">
        <ele>169.90</ele>
        <time>2014-03-02T10:39:10Z</time>
      </trkpt>
      <trkpt lat="41.635348490" lon="2.561753350">
        <ele>169.50</ele>
        <time>2014-03-02T10:39:11Z</time>
      </trkpt>
      <trkpt lat="41.635288480" lon="2.561750000">
        <ele>169.20</ele>
        <time>2014-03-02T10:39:12Z</time>
      </trkpt>
      <trkpt lat="41.635223440" lon="2.561751670">
        <ele>168.90</ele>
        <time>2014-03-02T10:39:13Z</time>
      </trkpt>
      <trkpt lat="41.635151690" lon="2.561756700">
        <ele>168.60</ele>
        <time>2014-03-02T10:39:14Z</time>
      </trkpt>
      <trkpt lat="41.635075080" lon="2.561758380">
        <ele>168.50</ele>
        <time>2014-03-02T10:39:15Z</time>
      </trkpt>
      <trkpt lat="41.634995110" lon="2.561751670">
        <ele>167.80</ele>
        <time>2014-03-02T10:39:16Z</time>
      </trkpt>
      <trkpt lat="41.634916830" lon="2.561741780">
        <ele>167.40</ele>
        <time>2014-03-02T10:39:17Z</time>
      </trkpt>
      <trkpt lat="41.634840050" lon="2.561728370">
        <ele>166.70</ele>
        <time>2014-03-02T10:39:18Z</time>
      </trkpt>
      <trkpt lat="41.634760080" lon="2.561718480">
        <ele>166.30</ele>
        <time>2014-03-02T10:39:19Z</time>
      </trkpt>
      <trkpt lat="41.634678440" lon="2.561710100">
        <ele>165.90</ele>
        <time>2014-03-02T10:39:20Z</time>
      </trkpt>
      <trkpt lat="41.634595130" lon="2.561698360">
        <ele>165.50</ele>
        <time>2014-03-02T10:39:21Z</time>
      </trkpt>
      <trkpt lat="41.634518350" lon="2.561681770">
        <ele>165.20</ele>
        <time>2014-03-02T10:39:22Z</time>
      </trkpt>
      <trkpt lat="41.634445090" lon="2.561658470">
        <ele>164.30</ele>
        <time>2014-03-02T10:39:23Z</time>
      </trkpt>
      <trkpt lat="41.634371670" lon="2.561630140">
        <ele>163.60</ele>
        <time>2014-03-02T10:39:24Z</time>
      </trkpt>
      <trkpt lat="41.634301760" lon="2.561598450">
        <ele>163.20</ele>
        <time>2014-03-02T10:39:25Z</time>
      </trkpt>
      <trkpt lat="41.634235040" lon="2.561578340">
        <ele>162.90</ele>
        <time>2014-03-02T10:39:26Z</time>
      </trkpt>
      <trkpt lat="41.634166810" lon="2.561551680">
        <ele>162.70</ele>
        <time>2014-03-02T10:39:27Z</time>
      </trkpt>
      <trkpt lat="41.634105120" lon="2.561520000">
        <ele>161.90</ele>
        <time>2014-03-02T10:39:28Z</time>
      </trkpt>
      <trkpt lat="41.634043430" lon="2.561483450">
        <ele>161.40</ele>
        <time>2014-03-02T10:39:29Z</time>
      </trkpt>
      <trkpt lat="41.633988450" lon="2.561445060">
        <ele>161.40</ele>
        <time>2014-03-02T10:39:30Z</time>
      </trkpt>
      <trkpt lat="41.633935140" lon="2.561416730">
        <ele>161.40</ele>
        <time>2014-03-02T10:39:31Z</time>
      </trkpt>
      <trkpt lat="41.633885010" lon="2.561396780">
        <ele>161.40</ele>
        <time>2014-03-02T10:39:32Z</time>
      </trkpt>
      <trkpt lat="41.633835060" lon="2.561388400">
        <ele>161.40</ele>
        <time>2014-03-02T10:39:33Z</time>
      </trkpt>
      <trkpt lat="41.633785100" lon="2.561398460">
        <ele>161.40</ele>
        <time>2014-03-02T10:39:34Z</time>
      </trkpt>
      <trkpt lat="41.633740010" lon="2.561423440">
        <ele>161.10</ele>
        <time>2014-03-02T10:39:35Z</time>
      </trkpt>
      <trkpt lat="41.633703460" lon="2.561453450">
        <ele>160.90</ele>
        <time>2014-03-02T10:39:36Z</time>
      </trkpt>
      <trkpt lat="41.633675130" lon="2.561480100">
        <ele>160.60</ele>
        <time>2014-03-02T10:39:37Z</time>
      </trkpt>
      <trkpt lat="41.633651830" lon="2.561510110">
        <ele>160.50</ele>
        <time>2014-03-02T10:39:38Z</time>
      </trkpt>
      <trkpt lat="41.633621820" lon="2.561555030">
        <ele>160.40</ele>
        <time>2014-03-02T10:39:39Z</time>
      </trkpt>
      <trkpt lat="41.633591810" lon="2.561610020">
        <ele>160.80</ele>
        <time>2014-03-02T10:39:40Z</time>
      </trkpt>
      <trkpt lat="41.633561810" lon="2.561673390">
        <ele>161.00</ele>
        <time>2014-03-02T10:39:41Z</time>
      </trkpt>
      <trkpt lat="41.633538340" lon="2.561733400">
        <ele>161.00</ele>
        <time>2014-03-02T10:39:42Z</time>
      </trkpt>
      <trkpt lat="41.633506820" lon="2.561798440">
        <ele>161.00</ele>
        <time>2014-03-02T10:39:43Z</time>
      </trkpt>
      <trkpt lat="41.633481680" lon="2.561863490">
        <ele>160.60</ele>
        <time>2014-03-02T10:39:44Z</time>
      </trkpt>
      <trkpt lat="41.633463400" lon="2.561933390">
        <ele>160.30</ele>
        <time>2014-03-02T10:39:45Z</time>
      </trkpt>
      <trkpt lat="41.633450160" lon="2.562005140">
        <ele>160.00</ele>
        <time>2014-03-02T10:39:46Z</time>
      </trkpt>
      <trkpt lat="41.633438430" lon="2.562076720">
        <ele>160.10</ele>
        <time>2014-03-02T10:39:47Z</time>
      </trkpt>
      <trkpt lat="41.633426690" lon="2.562151830">
        <ele>160.20</ele>
        <time>2014-03-02T10:39:48Z</time>
      </trkpt>
      <trkpt lat="41.633408420" lon="2.562223410">
        <ele>159.90</ele>
        <time>2014-03-02T10:39:49Z</time>
      </trkpt>
      <trkpt lat="41.633396680" lon="2.562295160">
        <ele>159.70</ele>
        <time>2014-03-02T10:39:50Z</time>
      </trkpt>
      <trkpt lat="41.633381760" lon="2.562366740">
        <ele>159.60</ele>
        <time>2014-03-02T10:39:51Z</time>
      </trkpt>
      <trkpt lat="41.633361820" lon="2.562435130">
        <ele>159.50</ele>
        <time>2014-03-02T10:39:52Z</time>
      </trkpt>
      <trkpt lat="41.633340020" lon="2.562501690">
        <ele>159.40</ele>
        <time>2014-03-02T10:39:53Z</time>
      </trkpt>
      <trkpt lat="41.633321750" lon="2.562566730">
        <ele>159.10</ele>
        <time>2014-03-02T10:39:54Z</time>
      </trkpt>
      <trkpt lat="41.633306660" lon="2.562631770">
        <ele>158.90</ele>
        <time>2014-03-02T10:39:55Z</time>
      </trkpt>
      <trkpt lat="41.633286710" lon="2.562691790">
        <ele>158.80</ele>
        <time>2014-03-02T10:39:56Z</time>
      </trkpt>
      <trkpt lat="41.633271790" lon="2.562750130">
        <ele>158.60</ele>
        <time>2014-03-02T10:39:57Z</time>
      </trkpt>
      <trkpt lat="41.633256710" lon="2.562808460">
        <ele>158.90</ele>
        <time>2014-03-02T10:39:58Z</time>
      </trkpt>
      <trkpt lat="41.633240110" lon="2.562865130">
        <ele>159.20</ele>
        <time>2014-03-02T10:39:59Z</time>
      </trkpt>
      <trkpt lat="41.633226700" lon="2.562920110">
        <ele>159.30</ele>
        <time>2014-03-02T10:40:00Z</time>
      </trkpt>
      <trkpt lat="41.633210100" lon="2.562973420">
        <ele>158.90</ele>
        <time>2014-03-02T10:40:01Z</time>
      </trkpt>
      <trkpt lat="41.633193340" lon="2.563021700">
        <ele>158.60</ele>
        <time>2014-03-02T10:40:02Z</time>
      </trkpt>
      <trkpt lat="41.633180100" lon="2.563068470">
        <ele>158.60</ele>
        <time>2014-03-02T10:40:03Z</time>
      </trkpt>
      <trkpt lat="41.633165010" lon="2.563113400">
        <ele>158.60</ele>
        <time>2014-03-02T10:40:04Z</time>
      </trkpt>
      <trkpt lat="41.633150090" lon="2.563155140">
        <ele>158.60</ele>
        <time>2014-03-02T10:40:05Z</time>
      </trkpt>
      <trkpt lat="41.633136680" lon="2.563191680">
        <ele>158.40</ele>
        <time>2014-03-02T10:40:06Z</time>
      </trkpt>
      <trkpt lat="41.633125110" lon="2.563228400">
        <ele>158.20</ele>
        <time>2014-03-02T10:40:07Z</time>
      </trkpt>
      <trkpt lat="41.633110020" lon="2.563261760">
        <ele>158.20</ele>
        <time>2014-03-02T10:40:08Z</time>
      </trkpt>
      <trkpt lat="41.633093430" lon="2.563296790">
        <ele>158.20</ele>
        <time>2014-03-02T10:40:09Z</time>
      </trkpt>
      <trkpt lat="41.633070120" lon="2.563325120">
        <ele>158.60</ele>
        <time>2014-03-02T10:40:10Z</time>
      </trkpt>
      <trkpt lat="41.633046820" lon="2.563353460">
        <ele>158.90</ele>
        <time>2014-03-02T10:40:11Z</time>
      </trkpt>
      <trkpt lat="41.633026710" lon="2.563381790">
        <ele>159.10</ele>
        <time>2014-03-02T10:40:12Z</time>
      </trkpt>
      <trkpt lat="41.633010110" lon="2.563411790">
        <ele>159.00</ele>
        <time>2014-03-02T10:40:13Z</time>
      </trkpt>
      <trkpt lat="41.632986810" lon="2.563441800">
        <ele>158.90</ele>
        <time>2014-03-02T10:40:14Z</time>
      </trkpt>
      <trkpt lat="41.632965020" lon="2.563470130">
        <ele>158.90</ele>
        <time>2014-03-02T10:40:15Z</time>
      </trkpt>
      <trkpt lat="41.632941710" lon="2.563500140">
        <ele>158.80</ele>
        <time>2014-03-02T10:40:16Z</time>
      </trkpt>
      <trkpt lat="41.632918410" lon="2.563528470">
        <ele>158.80</ele>
        <time>2014-03-02T10:40:17Z</time>
      </trkpt>
      <trkpt lat="41.632893430" lon="2.563556800">
        <ele>158.70</ele>
        <time>2014-03-02T10:40:18Z</time>
      </trkpt>
      <trkpt lat="41.632868460" lon="2.563588480">
        <ele>158.70</ele>
        <time>2014-03-02T10:40:19Z</time>
      </trkpt>
      <trkpt lat="41.632841800" lon="2.563621680">
        <ele>158.90</ele>
        <time>2014-03-02T10:40:20Z</time>
      </trkpt>
      <trkpt lat="41.632811790" lon="2.563655040">
        <ele>159.10</ele>
        <time>2014-03-02T10:40:21Z</time>
      </trkpt>
      <trkpt lat="41.632781790" lon="2.563691750">
        <ele>159.40</ele>
        <time>2014-03-02T10:40:22Z</time>
      </trkpt>
      <trkpt lat="41.632751780" lon="2.563730140">
        <ele>159.60</ele>
        <time>2014-03-02T10:40:23Z</time>
      </trkpt>
      <trkpt lat="41.632723450" lon="2.563766680">
        <ele>159.70</ele>
        <time>2014-03-02T10:40:24Z</time>
      </trkpt>
      <trkpt lat="41.632693440" lon="2.563805070">
        <ele>159.70</ele>
        <time>2014-03-02T10:40:25Z</time>
      </trkpt>
      <trkpt lat="41.632666790" lon="2.563840110">
        <ele>159.70</ele>
        <time>2014-03-02T10:40:26Z</time>
      </trkpt>
      <trkpt lat="41.632640130" lon="2.563871790">
        <ele>159.10</ele>
        <time>2014-03-02T10:40:27Z</time>
      </trkpt>
      <trkpt lat="41.632613480" lon="2.563903480">
        <ele>158.60</ele>
        <time>2014-03-02T10:40:28Z</time>
      </trkpt>
      <trkpt lat="41.632583470" lon="2.563931810">
        <ele>158.30</ele>
        <time>2014-03-02T10:40:29Z</time>
      </trkpt>
      <trkpt lat="41.632553460" lon="2.563963490">
        <ele>158.00</ele>
        <time>2014-03-02T10:40:30Z</time>
      </trkpt>
      <trkpt lat="41.632523460" lon="2.563991820">
        <ele>157.90</ele>
        <time>2014-03-02T10:40:31Z</time>
      </trkpt>
      <trkpt lat="41.632493450" lon="2.564018480">
        <ele>158.20</ele>
        <time>2014-03-02T10:40:32Z</time>
      </trkpt>
      <trkpt lat="41.632461770" lon="2.564045130">
        <ele>158.50</ele>
        <time>2014-03-02T10:40:33Z</time>
      </trkpt>
      <trkpt lat="41.632428410" lon="2.564065080">
        <ele>158.40</ele>
        <time>2014-03-02T10:40:34Z</time>
      </trkpt>
      <trkpt lat="41.632395050" lon="2.564086700">
        <ele>158.30</ele>
        <time>2014-03-02T10:40:35Z</time>
      </trkpt>
      <trkpt lat="41.632360010" lon="2.564110010">
        <ele>158.10</ele>
        <time>2014-03-02T10:40:36Z</time>
      </trkpt>
      <trkpt lat="41.632321790" lon="2.564136830">
        <ele>158.00</ele>
        <time>2014-03-02T10:40:37Z</time>
      </trkpt>
      <trkpt lat="41.632281720" lon="2.564163480">
        <ele>157.90</ele>
        <time>2014-03-02T10:40:38Z</time>
      </trkpt>
      <trkpt lat="41.632240150" lon="2.564188460">
        <ele>158.10</ele>
        <time>2014-03-02T10:40:39Z</time>
      </trkpt>
      <trkpt lat="41.632196730" lon="2.564211760">
        <ele>158.30</ele>
        <time>2014-03-02T10:40:40Z</time>
      </trkpt>
      <trkpt lat="41.632153480" lon="2.564238420">
        <ele>158.10</ele>
        <time>2014-03-02T10:40:41Z</time>
      </trkpt>
      <trkpt lat="41.632110060" lon="2.564265070">
        <ele>157.90</ele>
        <time>2014-03-02T10:40:42Z</time>
      </trkpt>
      <trkpt lat="41.632068490" lon="2.564285020">
        <ele>157.80</ele>
        <time>2014-03-02T10:40:43Z</time>
      </trkpt>
      <trkpt lat="41.632025070" lon="2.564310000">
        <ele>157.40</ele>
        <time>2014-03-02T10:40:44Z</time>
      </trkpt>
      <trkpt lat="41.631978470" lon="2.564341680">
        <ele>157.10</ele>
        <time>2014-03-02T10:40:45Z</time>
      </trkpt>
      <trkpt lat="41.631933370" lon="2.564373370">
        <ele>156.90</ele>
        <time>2014-03-02T10:40:46Z</time>
      </trkpt>
      <trkpt lat="41.631886770" lon="2.564406730">
        <ele>156.80</ele>
        <time>2014-03-02T10:40:47Z</time>
      </trkpt>
      <trkpt lat="41.631838490" lon="2.564435060">
        <ele>156.00</ele>
        <time>2014-03-02T10:40:48Z</time>
      </trkpt>
      <trkpt lat="41.631791720" lon="2.564463390">
        <ele>155.50</ele>
        <time>2014-03-02T10:40:49Z</time>
      </trkpt>
      <trkpt lat="41.631743440" lon="2.564493390">
        <ele>155.10</ele>
        <time>2014-03-02T10:40:50Z</time>
      </trkpt>
      <trkpt lat="41.631698340" lon="2.564523400">
        <ele>155.00</ele>
        <time>2014-03-02T10:40:51Z</time>
      </trkpt>
      <trkpt lat="41.631650060" lon="2.564556760">
        <ele>154.90</ele>
        <time>2014-03-02T10:40:52Z</time>
      </trkpt>
      <trkpt lat="41.631600110" lon="2.564586770">
        <ele>154.50</ele>
        <time>2014-03-02T10:40:53Z</time>
      </trkpt>
      <trkpt lat="41.631550150" lon="2.564618450">
        <ele>154.20</ele>
        <time>2014-03-02T10:40:54Z</time>
      </trkpt>
      <trkpt lat="41.631501700" lon="2.564653490">
        <ele>153.80</ele>
        <time>2014-03-02T10:40:55Z</time>
      </trkpt>
      <trkpt lat="41.631451750" lon="2.564690030">
        <ele>153.60</ele>
        <time>2014-03-02T10:40:56Z</time>
      </trkpt>
      <trkpt lat="41.631406820" lon="2.564721720">
        <ele>153.40</ele>
        <time>2014-03-02T10:40:57Z</time>
      </trkpt>
      <trkpt lat="41.631361730" lon="2.564751720">
        <ele>152.90</ele>
        <time>2014-03-02T10:40:58Z</time>
      </trkpt>
      <trkpt lat="41.631316800" lon="2.564781730">
        <ele>152.50</ele>
        <time>2014-03-02T10:40:59Z</time>
      </trkpt>
      <trkpt lat="41.631273380" lon="2.564810060">
        <ele>152.40</ele>
        <time>2014-03-02T10:41:00Z</time>
      </trkpt>
      <trkpt lat="41.631231810" lon="2.564835040">
        <ele>152.30</ele>
        <time>2014-03-02T10:41:01Z</time>
      </trkpt>
      <trkpt lat="41.631191740" lon="2.564860020">
        <ele>151.60</ele>
        <time>2014-03-02T10:41:02Z</time>
      </trkpt>
      <trkpt lat="41.631155030" lon="2.564883490">
        <ele>151.20</ele>
        <time>2014-03-02T10:41:03Z</time>
      </trkpt>
      <trkpt lat="41.631118480" lon="2.564908470">
        <ele>150.80</ele>
        <time>2014-03-02T10:41:04Z</time>
      </trkpt>
      <trkpt lat="41.631086800" lon="2.564931770">
        <ele>150.50</ele>
        <time>2014-03-02T10:41:05Z</time>
      </trkpt>
      <trkpt lat="41.631058470" lon="2.564953390">
        <ele>150.30</ele>
        <time>2014-03-02T10:41:06Z</time>
      </trkpt>
      <trkpt lat="41.631030140" lon="2.564980050">
        <ele>150.60</ele>
        <time>2014-03-02T10:41:07Z</time>
      </trkpt>
      <trkpt lat="41.631001810" lon="2.565006700">
        <ele>150.80</ele>
        <time>2014-03-02T10:41:08Z</time>
      </trkpt>
      <trkpt lat="41.630970120" lon="2.565035030">
        <ele>151.00</ele>
        <time>2014-03-02T10:41:09Z</time>
      </trkpt>
      <trkpt lat="41.630938440" lon="2.565061690">
        <ele>150.70</ele>
        <time>2014-03-02T10:41:10Z</time>
      </trkpt>
      <trkpt lat="41.630906760" lon="2.565096720">
        <ele>150.50</ele>
        <time>2014-03-02T10:41:11Z</time>
      </trkpt>
      <trkpt lat="41.630878420" lon="2.565133440">
        <ele>150.40</ele>
        <time>2014-03-02T10:41:12Z</time>
      </trkpt>
      <trkpt lat="41.630850090" lon="2.565176690">
        <ele>150.30</ele>
        <time>2014-03-02T10:41:13Z</time>
      </trkpt>
      <trkpt lat="41.630820090" lon="2.565223460">
        <ele>150.20</ele>
        <time>2014-03-02T10:41:14Z</time>
      </trkpt>
      <trkpt lat="41.630786730" lon="2.565278440">
        <ele>150.00</ele>
        <time>2014-03-02T10:41:15Z</time>
      </trkpt>
      <trkpt lat="41.630760070" lon="2.565325050">
        <ele>149.90</ele>
        <time>2014-03-02T10:41:16Z</time>
      </trkpt>
      <trkpt lat="41.630733420" lon="2.565378360">
        <ele>149.40</ele>
        <time>2014-03-02T10:41:17Z</time>
      </trkpt>
      <trkpt lat="41.630700060" lon="2.565436690">
        <ele>149.00</ele>
        <time>2014-03-02T10:41:18Z</time>
      </trkpt>
      <trkpt lat="41.630670050" lon="2.565501740">
        <ele>148.80</ele>
        <time>2014-03-02T10:41:19Z</time>
      </trkpt>
      <trkpt lat="41.630645070" lon="2.565573490">
        <ele>148.60</ele>
        <time>2014-03-02T10:41:20Z</time>
      </trkpt>
      <trkpt lat="41.630621770" lon="2.565643390">
        <ele>148.50</ele>
        <time>2014-03-02T10:41:21Z</time>
      </trkpt>
      <trkpt lat="41.630603330" lon="2.565718490">
        <ele>148.40</ele>
        <time>2014-03-02T10:41:22Z</time>
      </trkpt>
      <trkpt lat="41.630588410" lon="2.565798460">
        <ele>148.20</ele>
        <time>2014-03-02T10:41:23Z</time>
      </trkpt>
      <trkpt lat="41.630573490" lon="2.565878420">
        <ele>147.90</ele>
        <time>2014-03-02T10:41:24Z</time>
      </trkpt>
      <trkpt lat="41.630556730" lon="2.565958380">
        <ele>147.60</ele>
        <time>2014-03-02T10:41:25Z</time>
      </trkpt>
      <trkpt lat="41.630543480" lon="2.566031810">
        <ele>147.30</ele>
        <time>2014-03-02T10:41:26Z</time>
      </trkpt>
      <trkpt lat="41.630528400" lon="2.566106740">
        <ele>147.00</ele>
        <time>2014-03-02T10:41:27Z</time>
      </trkpt>
      <trkpt lat="41.630515150" lon="2.566185030">
        <ele>146.80</ele>
        <time>2014-03-02T10:41:28Z</time>
      </trkpt>
      <trkpt lat="41.630501740" lon="2.566261810">
        <ele>146.90</ele>
        <time>2014-03-02T10:41:29Z</time>
      </trkpt>
      <trkpt lat="41.630490010" lon="2.566338420">
        <ele>147.00</ele>
        <time>2014-03-02T10:41:30Z</time>
      </trkpt>
      <trkpt lat="41.630478440" lon="2.566411680">
        <ele>146.80</ele>
        <time>2014-03-02T10:41:31Z</time>
      </trkpt>
      <trkpt lat="41.630465030" lon="2.566478400">
        <ele>146.60</ele>
        <time>2014-03-02T10:41:32Z</time>
      </trkpt>
      <trkpt lat="41.630450110" lon="2.566545120">
        <ele>146.50</ele>
        <time>2014-03-02T10:41:33Z</time>
      </trkpt>
      <trkpt lat="41.630431670" lon="2.566610160">
        <ele>146.40</ele>
        <time>2014-03-02T10:41:34Z</time>
      </trkpt>
      <trkpt lat="41.630413400" lon="2.566670010">
        <ele>146.30</ele>
        <time>2014-03-02T10:41:35Z</time>
      </trkpt>
      <trkpt lat="41.630395120" lon="2.566725160">
        <ele>146.00</ele>
        <time>2014-03-02T10:41:36Z</time>
      </trkpt>
      <trkpt lat="41.630373330" lon="2.566773440">
        <ele>145.70</ele>
        <time>2014-03-02T10:41:37Z</time>
      </trkpt>
      <trkpt lat="41.630350030" lon="2.566815010">
        <ele>145.60</ele>
        <time>2014-03-02T10:41:38Z</time>
      </trkpt>
      <trkpt lat="41.630323380" lon="2.566853400">
        <ele>145.60</ele>
        <time>2014-03-02T10:41:39Z</time>
      </trkpt>
      <trkpt lat="41.630296720" lon="2.566888440">
        <ele>145.50</ele>
        <time>2014-03-02T10:41:40Z</time>
      </trkpt>
      <trkpt lat="41.630270070" lon="2.566923480">
        <ele>145.20</ele>
        <time>2014-03-02T10:41:41Z</time>
      </trkpt>
      <trkpt lat="41.630243410" lon="2.566951810">
        <ele>145.00</ele>
        <time>2014-03-02T10:41:42Z</time>
      </trkpt>
      <trkpt lat="41.630213400" lon="2.566976780">
        <ele>145.40</ele>
        <time>2014-03-02T10:41:43Z</time>
      </trkpt>
      <trkpt lat="41.630183400" lon="2.567000090">
        <ele>145.60</ele>
        <time>2014-03-02T10:41:44Z</time>
      </trkpt>
      <trkpt lat="41.630153390" lon="2.567016680">
        <ele>145.40</ele>
        <time>2014-03-02T10:41:45Z</time>
      </trkpt>
      <trkpt lat="41.630123380" lon="2.567035120">
        <ele>145.20</ele>
        <time>2014-03-02T10:41:46Z</time>
      </trkpt>
      <trkpt lat="41.630091700" lon="2.567050040">
        <ele>145.10</ele>
        <time>2014-03-02T10:41:47Z</time>
      </trkpt>
      <trkpt lat="41.630060020" lon="2.567060100">
        <ele>146.00</ele>
        <time>2014-03-02T10:41:48Z</time>
      </trkpt>
      <trkpt lat="41.630026820" lon="2.567066810">
        <ele>146.60</ele>
        <time>2014-03-02T10:41:49Z</time>
      </trkpt>
      <trkpt lat="41.629995140" lon="2.567075020">
        <ele>146.30</ele>
        <time>2014-03-02T10:41:50Z</time>
      </trkpt>
      <trkpt lat="41.629963460" lon="2.567081730">
        <ele>146.10</ele>
        <time>2014-03-02T10:41:51Z</time>
      </trkpt>
      <trkpt lat="41.629931770" lon="2.567085080">
        <ele>146.60</ele>
        <time>2014-03-02T10:41:52Z</time>
      </trkpt>
      <trkpt lat="41.629900090" lon="2.567090110">
        <ele>147.00</ele>
        <time>2014-03-02T10:41:53Z</time>
      </trkpt>
      <trkpt lat="41.629868410" lon="2.567091780">
        <ele>147.30</ele>
        <time>2014-03-02T10:41:54Z</time>
      </trkpt>
      <trkpt lat="41.629838400" lon="2.567093460">
        <ele>147.20</ele>
        <time>2014-03-02T10:41:55Z</time>
      </trkpt>
      <trkpt lat="41.629808390" lon="2.567095140">
        <ele>147.10</ele>
        <time>2014-03-02T10:41:56Z</time>
      </trkpt>
      <trkpt lat="41.629778380" lon="2.567098490">
        <ele>147.30</ele>
        <time>2014-03-02T10:41:57Z</time>
      </trkpt>
      <trkpt lat="41.629745020" lon="2.567106700">
        <ele>147.40</ele>
        <time>2014-03-02T10:41:58Z</time>
      </trkpt>
      <trkpt lat="41.629710160" lon="2.567120110">
        <ele>147.50</ele>
        <time>2014-03-02T10:41:59Z</time>
      </trkpt>
      <trkpt lat="41.629675120" lon="2.567138390">
        <ele>147.60</ele>
        <time>2014-03-02T10:42:00Z</time>
      </trkpt>
      <trkpt lat="41.629638410" lon="2.567155150">
        <ele>147.70</ele>
        <time>2014-03-02T10:42:01Z</time>
      </trkpt>
      <trkpt lat="41.629603370" lon="2.567171750">
        <ele>148.20</ele>
        <time>2014-03-02T10:42:02Z</time>
      </trkpt>
      <trkpt lat="41.629568330" lon="2.567186670">
        <ele>148.60</ele>
        <time>2014-03-02T10:42:03Z</time>
      </trkpt>
      <trkpt lat="41.629533460" lon="2.567196730">
        <ele>148.70</ele>
        <time>2014-03-02T10:42:04Z</time>
      </trkpt>
      <trkpt lat="41.629501780" lon="2.567206780">
        <ele>148.80</ele>
        <time>2014-03-02T10:42:05Z</time>
      </trkpt>
      <trkpt lat="41.629471770" lon="2.567215000">
        <ele>148.80</ele>
        <time>2014-03-02T10:42:06Z</time>
      </trkpt>
      <trkpt lat="41.629443440" lon="2.567223380">
        <ele>149.20</ele>
        <time>2014-03-02T10:42:07Z</time>
      </trkpt>
      <trkpt lat="41.629416790" lon="2.567230090">
        <ele>149.50</ele>
        <time>2014-03-02T10:42:08Z</time>
      </trkpt>
      <trkpt lat="41.629388460" lon="2.567238470">
        <ele>149.30</ele>
        <time>2014-03-02T10:42:09Z</time>
      </trkpt>
      <trkpt lat="41.629358450" lon="2.567251710">
        <ele>149.20</ele>
        <time>2014-03-02T10:42:10Z</time>
      </trkpt>
      <trkpt lat="41.629328440" lon="2.567263450">
        <ele>149.60</ele>
        <time>2014-03-02T10:42:11Z</time>
      </trkpt>
      <trkpt lat="41.629296760" lon="2.567275010">
        <ele>149.90</ele>
        <time>2014-03-02T10:42:12Z</time>
      </trkpt>
      <trkpt lat="41.629266750" lon="2.567291780">
        <ele>150.20</ele>
        <time>2014-03-02T10:42:13Z</time>
      </trkpt>
      <trkpt lat="41.629235070" lon="2.567308370">
        <ele>150.20</ele>
        <time>2014-03-02T10:42:14Z</time>
      </trkpt>
      <trkpt lat="41.629205060" lon="2.567321780">
        <ele>150.20</ele>
        <time>2014-03-02T10:42:15Z</time>
      </trkpt>
      <trkpt lat="41.629176730" lon="2.567338380">
        <ele>150.60</ele>
        <time>2014-03-02T10:42:16Z</time>
      </trkpt>
      <trkpt lat="41.629148400" lon="2.567355140">
        <ele>150.80</ele>
        <time>2014-03-02T10:42:17Z</time>
      </trkpt>
      <trkpt lat="41.629121750" lon="2.567373420">
        <ele>151.00</ele>
        <time>2014-03-02T10:42:18Z</time>
      </trkpt>
      <trkpt lat="41.629096770" lon="2.567393360">
        <ele>151.10</ele>
        <time>2014-03-02T10:42:19Z</time>
      </trkpt>
      <trkpt lat="41.629070110" lon="2.567411810">
        <ele>151.20</ele>
        <time>2014-03-02T10:42:20Z</time>
      </trkpt>
      <trkpt lat="41.629043460" lon="2.567426720">
        <ele>151.60</ele>
        <time>2014-03-02T10:42:21Z</time>
      </trkpt>
      <trkpt lat="41.629015130" lon="2.567443490">
        <ele>151.90</ele>
        <time>2014-03-02T10:42:22Z</time>
      </trkpt>
      <trkpt lat="41.628986800" lon="2.567460080">
        <ele>151.90</ele>
        <time>2014-03-02T10:42:23Z</time>
      </trkpt>
      <trkpt lat="41.628956790" lon="2.567476680">
        <ele>152.00</ele>
        <time>2014-03-02T10:42:24Z</time>
      </trkpt>
      <trkpt lat="41.628926780" lon="2.567488420">
        <ele>152.00</ele>
        <time>2014-03-02T10:42:25Z</time>
      </trkpt>
      <trkpt lat="41.628898450" lon="2.567495120">
        <ele>152.00</ele>
        <time>2014-03-02T10:42:26Z</time>
      </trkpt>
      <trkpt lat="41.628868440" lon="2.567496800">
        <ele>152.10</ele>
        <time>2014-03-02T10:42:27Z</time>
      </trkpt>
      <trkpt lat="41.628838440" lon="2.567493440">
        <ele>152.10</ele>
        <time>2014-03-02T10:42:28Z</time>
      </trkpt>
      <trkpt lat="41.628806750" lon="2.567488420">
        <ele>152.20</ele>
        <time>2014-03-02T10:42:29Z</time>
      </trkpt>
      <trkpt lat="41.628773390" lon="2.567481710">
        <ele>152.20</ele>
        <time>2014-03-02T10:42:30Z</time>
      </trkpt>
      <trkpt lat="41.628741710" lon="2.567468470">
        <ele>152.20</ele>
        <time>2014-03-02T10:42:31Z</time>
      </trkpt>
      <trkpt lat="41.628710030" lon="2.567451700">
        <ele>152.20</ele>
        <time>2014-03-02T10:42:32Z</time>
      </trkpt>
      <trkpt lat="41.628680020" lon="2.567431750">
        <ele>152.30</ele>
        <time>2014-03-02T10:42:33Z</time>
      </trkpt>
      <trkpt lat="41.628650010" lon="2.567411810">
        <ele>152.40</ele>
        <time>2014-03-02T10:42:34Z</time>
      </trkpt>
      <trkpt lat="41.628620000" lon="2.567393360">
        <ele>152.40</ele>
        <time>2014-03-02T10:42:35Z</time>
      </trkpt>
      <trkpt lat="41.628588490" lon="2.567375090">
        <ele>152.30</ele>
        <time>2014-03-02T10:42:36Z</time>
      </trkpt>
      <trkpt lat="41.628555130" lon="2.567355140">
        <ele>152.60</ele>
        <time>2014-03-02T10:42:37Z</time>
      </trkpt>
      <trkpt lat="41.628523450" lon="2.567335030">
        <ele>152.80</ele>
        <time>2014-03-02T10:42:38Z</time>
      </trkpt>
      <trkpt lat="41.628490090" lon="2.567311730">
        <ele>153.00</ele>
        <time>2014-03-02T10:42:39Z</time>
      </trkpt>
      <trkpt lat="41.628455050" lon="2.567290100">
        <ele>152.70</ele>
        <time>2014-03-02T10:42:40Z</time>
      </trkpt>
      <trkpt lat="41.628416830" lon="2.567268470">
        <ele>152.40</ele>
        <time>2014-03-02T10:42:41Z</time>
      </trkpt>
      <trkpt lat="41.628373410" lon="2.567255060">
        <ele>152.60</ele>
        <time>2014-03-02T10:42:42Z</time>
      </trkpt>
      <trkpt lat="41.628326810" lon="2.567238470">
        <ele>152.70</ele>
        <time>2014-03-02T10:42:43Z</time>
      </trkpt>
      <trkpt lat="41.628276680" lon="2.567215000">
        <ele>152.80</ele>
        <time>2014-03-02T10:42:44Z</time>
      </trkpt>
      <trkpt lat="41.628223370" lon="2.567186670">
        <ele>152.70</ele>
        <time>2014-03-02T10:42:45Z</time>
      </trkpt>
      <trkpt lat="41.628160010" lon="2.567165040">
        <ele>152.60</ele>
        <time>2014-03-02T10:42:46Z</time>
      </trkpt>
      <trkpt lat="41.628093450" lon="2.567141740">
        <ele>152.30</ele>
        <time>2014-03-02T10:42:47Z</time>
      </trkpt>
      <trkpt lat="41.628021700" lon="2.567121790">
        <ele>152.00</ele>
        <time>2014-03-02T10:42:48Z</time>
      </trkpt>
      <trkpt lat="41.627950120" lon="2.567105030">
        <ele>151.30</ele>
        <time>2014-03-02T10:42:49Z</time>
      </trkpt>
      <trkpt lat="41.627873340" lon="2.567086750">
        <ele>150.70</ele>
        <time>2014-03-02T10:42:50Z</time>
      </trkpt>
      <trkpt lat="41.627800090" lon="2.567073340">
        <ele>150.30</ele>
        <time>2014-03-02T10:42:51Z</time>
      </trkpt>
      <trkpt lat="41.627725150" lon="2.567058420">
        <ele>149.60</ele>
        <time>2014-03-02T10:42:52Z</time>
      </trkpt>
      <trkpt lat="41.627646700" lon="2.567045010">
        <ele>149.10</ele>
        <time>2014-03-02T10:42:53Z</time>
      </trkpt>
      <trkpt lat="41.627566730" lon="2.567036800">
        <ele>148.10</ele>
        <time>2014-03-02T10:42:54Z</time>
      </trkpt>
      <trkpt lat="41.627483420" lon="2.567028420">
        <ele>147.40</ele>
        <time>2014-03-02T10:42:55Z</time>
      </trkpt>
      <trkpt lat="41.627400100" lon="2.567016680">
        <ele>146.40</ele>
        <time>2014-03-02T10:42:56Z</time>
      </trkpt>
      <trkpt lat="41.627315110" lon="2.566998410">
        <ele>145.60</ele>
        <time>2014-03-02T10:42:57Z</time>
      </trkpt>
      <trkpt lat="41.627235150" lon="2.566980140">
        <ele>145.00</ele>
        <time>2014-03-02T10:42:58Z</time>
      </trkpt>
      <trkpt lat="41.627160040" lon="2.566970080">
        <ele>144.50</ele>
        <time>2014-03-02T10:42:59Z</time>
      </trkpt>
      <trkpt lat="41.627095000" lon="2.566963370">
        <ele>144.10</ele>
        <time>2014-03-02T10:43:00Z</time>
      </trkpt>
      <trkpt lat="41.627036660" lon="2.566958340">
        <ele>143.70</ele>
        <time>2014-03-02T10:43:01Z</time>
      </trkpt>
      <trkpt lat="41.626985030" lon="2.566955160">
        <ele>143.30</ele>
        <time>2014-03-02T10:43:02Z</time>
      </trkpt>
      <trkpt lat="41.626935070" lon="2.566948450">
        <ele>143.10</ele>
        <time>2014-03-02T10:43:03Z</time>
      </trkpt>
      <trkpt lat="41.626886790" lon="2.566945100">
        <ele>143.00</ele>
        <time>2014-03-02T10:43:04Z</time>
      </trkpt>
      <trkpt lat="41.626838350" lon="2.566945100">
        <ele>142.90</ele>
        <time>2014-03-02T10:43:05Z</time>
      </trkpt>
      <trkpt lat="41.626790070" lon="2.566946780">
        <ele>143.30</ele>
        <time>2014-03-02T10:43:06Z</time>
      </trkpt>
      <trkpt lat="41.626743460" lon="2.566951810">
        <ele>143.70</ele>
        <time>2014-03-02T10:43:07Z</time>
      </trkpt>
      <trkpt lat="41.626696690" lon="2.566955160">
        <ele>144.10</ele>
        <time>2014-03-02T10:43:08Z</time>
      </trkpt>
      <trkpt lat="41.626655120" lon="2.566956670">
        <ele>144.40</ele>
        <time>2014-03-02T10:43:09Z</time>
      </trkpt>
      <trkpt lat="41.626615050" lon="2.566956670">
        <ele>144.60</ele>
        <time>2014-03-02T10:43:10Z</time>
      </trkpt>
      <trkpt lat="41.626581690" lon="2.566938400">
        <ele>144.40</ele>
        <time>2014-03-02T10:43:11Z</time>
      </trkpt>
      <trkpt lat="41.626556720" lon="2.566908390">
        <ele>144.20</ele>
        <time>2014-03-02T10:43:12Z</time>
      </trkpt>
      <trkpt lat="41.626533410" lon="2.566873350">
        <ele>144.50</ele>
        <time>2014-03-02T10:43:13Z</time>
      </trkpt>
      <trkpt lat="41.626516820" lon="2.566836810">
        <ele>144.70</ele>
        <time>2014-03-02T10:43:14Z</time>
      </trkpt>
      <trkpt lat="41.626501730" lon="2.566796740">
        <ele>144.90</ele>
        <time>2014-03-02T10:43:15Z</time>
      </trkpt>
      <trkpt lat="41.626486810" lon="2.566750140">
        <ele>145.00</ele>
        <time>2014-03-02T10:43:16Z</time>
      </trkpt>
      <trkpt lat="41.626483460" lon="2.566695150">
        <ele>145.10</ele>
        <time>2014-03-02T10:43:17Z</time>
      </trkpt>
      <trkpt lat="41.626496700" lon="2.566631790">
        <ele>144.90</ele>
        <time>2014-03-02T10:43:18Z</time>
      </trkpt>
      <trkpt lat="41.626528380" lon="2.566566740">
        <ele>144.70</ele>
        <time>2014-03-02T10:43:19Z</time>
      </trkpt>
      <trkpt lat="41.626570130" lon="2.566500020">
        <ele>144.50</ele>
        <time>2014-03-02T10:43:20Z</time>
      </trkpt>
      <trkpt lat="41.626616730" lon="2.566425090">
        <ele>144.30</ele>
        <time>2014-03-02T10:43:21Z</time>
      </trkpt>
      <trkpt lat="41.626670040" lon="2.566343450">
        <ele>144.20</ele>
        <time>2014-03-02T10:43:22Z</time>
      </trkpt>
      <trkpt lat="41.626723350" lon="2.566260130">
        <ele>144.00</ele>
        <time>2014-03-02T10:43:23Z</time>
      </trkpt>
      <trkpt lat="41.626776820" lon="2.566175140">
        <ele>143.90</ele>
        <time>2014-03-02T10:43:24Z</time>
      </trkpt>
      <trkpt lat="41.626825100" lon="2.566090150">
        <ele>143.80</ele>
        <time>2014-03-02T10:43:25Z</time>
      </trkpt>
      <trkpt lat="41.626851760" lon="2.566001800">
        <ele>143.70</ele>
        <time>2014-03-02T10:43:26Z</time>
      </trkpt>
      <trkpt lat="41.626846730" lon="2.565911780">
        <ele>143.10</ele>
        <time>2014-03-02T10:43:27Z</time>
      </trkpt>
      <trkpt lat="41.626815050" lon="2.565831820">
        <ele>142.60</ele>
        <time>2014-03-02T10:43:28Z</time>
      </trkpt>
      <trkpt lat="41.626765090" lon="2.565776660">
        <ele>142.30</ele>
        <time>2014-03-02T10:43:29Z</time>
      </trkpt>
      <trkpt lat="41.626701720" lon="2.565755040">
        <ele>141.70</ele>
        <time>2014-03-02T10:43:30Z</time>
      </trkpt>
      <trkpt lat="41.626633490" lon="2.565761740">
        <ele>141.30</ele>
        <time>2014-03-02T10:43:31Z</time>
      </trkpt>
      <trkpt lat="41.626566770" lon="2.565780020">
        <ele>140.30</ele>
        <time>2014-03-02T10:43:32Z</time>
      </trkpt>
      <trkpt lat="41.626496700" lon="2.565801810">
        <ele>139.60</ele>
        <time>2014-03-02T10:43:33Z</time>
      </trkpt>
      <trkpt lat="41.626426800" lon="2.565825110">
        <ele>138.70</ele>
        <time>2014-03-02T10:43:34Z</time>
      </trkpt>
      <trkpt lat="41.626358400" lon="2.565850090">
        <ele>138.00</ele>
        <time>2014-03-02T10:43:35Z</time>
      </trkpt>
      <trkpt lat="41.626286820" lon="2.565875070">
        <ele>137.50</ele>
        <time>2014-03-02T10:43:36Z</time>
      </trkpt>
      <trkpt lat="41.626215070" lon="2.565901720">
        <ele>136.80</ele>
        <time>2014-03-02T10:43:37Z</time>
      </trkpt>
      <trkpt lat="41.626141810" lon="2.565928380">
        <ele>136.20</ele>
        <time>2014-03-02T10:43:38Z</time>
      </trkpt>
      <trkpt lat="41.626066710" lon="2.565956710">
        <ele>135.40</ele>
        <time>2014-03-02T10:43:39Z</time>
      </trkpt>
      <trkpt lat="41.625991780" lon="2.565985040">
        <ele>134.80</ele>
        <time>2014-03-02T10:43:40Z</time>
      </trkpt>
      <trkpt lat="41.625913490" lon="2.566016720">
        <ele>134.40</ele>
        <time>2014-03-02T10:43:41Z</time>
      </trkpt>
      <trkpt lat="41.625836710" lon="2.566051760">
        <ele>133.80</ele>
        <time>2014-03-02T10:43:42Z</time>
      </trkpt>
      <trkpt lat="41.625758420" lon="2.566088470">
        <ele>133.40</ele>
        <time>2014-03-02T10:43:43Z</time>
      </trkpt>
      <trkpt lat="41.625678460" lon="2.566120150">
        <ele>132.80</ele>
        <time>2014-03-02T10:43:44Z</time>
      </trkpt>
      <trkpt lat="41.625595140" lon="2.566145130">
        <ele>132.30</ele>
        <time>2014-03-02T10:43:45Z</time>
      </trkpt>
      <trkpt lat="41.625513340" lon="2.566145130">
        <ele>131.20</ele>
        <time>2014-03-02T10:43:46Z</time>
      </trkpt>
      <trkpt lat="41.625443430" lon="2.566115120">
        <ele>130.40</ele>
        <time>2014-03-02T10:43:47Z</time>
      </trkpt>
      <trkpt lat="41.625390120" lon="2.566056790">
        <ele>129.80</ele>
        <time>2014-03-02T10:43:48Z</time>
      </trkpt>
      <trkpt lat="41.625351730" lon="2.565981680">
        <ele>129.40</ele>
        <time>2014-03-02T10:43:49Z</time>
      </trkpt>
      <trkpt lat="41.625328430" lon="2.565900050">
        <ele>129.20</ele>
        <time>2014-03-02T10:43:50Z</time>
      </trkpt>
      <trkpt lat="41.625318370" lon="2.565816730">
        <ele>128.70</ele>
        <time>2014-03-02T10:43:51Z</time>
      </trkpt>
      <trkpt lat="41.625325080" lon="2.565735090">
        <ele>128.30</ele>
        <time>2014-03-02T10:43:52Z</time>
      </trkpt>
      <trkpt lat="41.625345030" lon="2.565661660">
        <ele>128.20</ele>
        <time>2014-03-02T10:43:53Z</time>
      </trkpt>
      <trkpt lat="41.625370010" lon="2.565593440">
        <ele>128.10</ele>
        <time>2014-03-02T10:43:54Z</time>
      </trkpt>
      <trkpt lat="41.625391800" lon="2.565523360">
        <ele>128.00</ele>
        <time>2014-03-02T10:43:55Z</time>
      </trkpt>
      <trkpt lat="41.625411750" lon="2.565456810">
        <ele>127.90</ele>
        <time>2014-03-02T10:43:56Z</time>
      </trkpt>
      <trkpt lat="41.625426670" lon="2.565390090">
        <ele>127.90</ele>
        <time>2014-03-02T10:43:57Z</time>
      </trkpt>
      <trkpt lat="41.625443430" lon="2.565326720">
        <ele>127.50</ele>
        <time>2014-03-02T10:43:58Z</time>
      </trkpt>
      <trkpt lat="41.625461700" lon="2.565261680">
        <ele>127.20</ele>
        <time>2014-03-02T10:43:59Z</time>
      </trkpt>
      <trkpt lat="41.625480140" lon="2.565198480">
        <ele>126.90</ele>
        <time>2014-03-02T10:44:00Z</time>
      </trkpt>
      <trkpt lat="41.625495060" lon="2.565135110">
        <ele>127.00</ele>
        <time>2014-03-02T10:44:01Z</time>
      </trkpt>
      <trkpt lat="41.625511830" lon="2.565073420">
        <ele>127.00</ele>
        <time>2014-03-02T10:44:02Z</time>
      </trkpt>
      <trkpt lat="41.625525070" lon="2.565011730">
        <ele>127.80</ele>
        <time>2014-03-02T10:44:03Z</time>
      </trkpt>
      <trkpt lat="41.625536810" lon="2.564951720">
        <ele>128.30</ele>
        <time>2014-03-02T10:44:04Z</time>
      </trkpt>
      <trkpt lat="41.625551730" lon="2.564896730">
        <ele>128.40</ele>
        <time>2014-03-02T10:44:05Z</time>
      </trkpt>
      <trkpt lat="41.625565140" lon="2.564846780">
        <ele>128.40</ele>
        <time>2014-03-02T10:44:06Z</time>
      </trkpt>
      <trkpt lat="41.625575030" lon="2.564796820">
        <ele>128.50</ele>
        <time>2014-03-02T10:44:07Z</time>
      </trkpt>
      <trkpt lat="41.625583410" lon="2.564748370">
        <ele>129.00</ele>
        <time>2014-03-02T10:44:08Z</time>
      </trkpt>
      <trkpt lat="41.625591790" lon="2.564705120">
        <ele>129.40</ele>
        <time>2014-03-02T10:44:09Z</time>
      </trkpt>
      <trkpt lat="41.625598330" lon="2.564660030">
        <ele>129.60</ele>
        <time>2014-03-02T10:44:10Z</time>
      </trkpt>
      <trkpt lat="41.625606710" lon="2.564608390">
        <ele>129.60</ele>
        <time>2014-03-02T10:44:11Z</time>
      </trkpt>
      <trkpt lat="41.625615090" lon="2.564550060">
        <ele>129.40</ele>
        <time>2014-03-02T10:44:12Z</time>
      </trkpt>
      <trkpt lat="41.625621800" lon="2.564483340">
        <ele>129.20</ele>
        <time>2014-03-02T10:44:13Z</time>
      </trkpt>
      <trkpt lat="41.625628340" lon="2.564413430">
        <ele>129.00</ele>
        <time>2014-03-02T10:44:14Z</time>
      </trkpt>
      <trkpt lat="41.625628340" lon="2.564338330">
        <ele>128.60</ele>
        <time>2014-03-02T10:44:15Z</time>
      </trkpt>
      <trkpt lat="41.625626830" lon="2.564256690">
        <ele>128.30</ele>
        <time>2014-03-02T10:44:16Z</time>
      </trkpt>
      <trkpt lat="41.625625150" lon="2.564178400">
        <ele>127.90</ele>
        <time>2014-03-02T10:44:17Z</time>
      </trkpt>
      <trkpt lat="41.625621800" lon="2.564105140">
        <ele>127.60</ele>
        <time>2014-03-02T10:44:18Z</time>
      </trkpt>
      <trkpt lat="41.625620120" lon="2.564033400">
        <ele>127.40</ele>
        <time>2014-03-02T10:44:19Z</time>
      </trkpt>
      <trkpt lat="41.625613420" lon="2.563961810">
        <ele>127.00</ele>
        <time>2014-03-02T10:44:20Z</time>
      </trkpt>
      <trkpt lat="41.625611740" lon="2.563890060">
        <ele>126.70</ele>
        <time>2014-03-02T10:44:21Z</time>
      </trkpt>
      <trkpt lat="41.625611740" lon="2.563821670">
        <ele>125.80</ele>
        <time>2014-03-02T10:44:22Z</time>
      </trkpt>
      <trkpt lat="41.625620120" lon="2.563755120">
        <ele>125.20</ele>
        <time>2014-03-02T10:44:23Z</time>
      </trkpt>
      <trkpt lat="41.625635040" lon="2.563695100">
        <ele>125.20</ele>
        <time>2014-03-02T10:44:24Z</time>
      </trkpt>
      <trkpt lat="41.625655160" lon="2.563645150">
        <ele>125.30</ele>
        <time>2014-03-02T10:44:25Z</time>
      </trkpt>
      <trkpt lat="41.625673430" lon="2.563603400">
        <ele>125.30</ele>
        <time>2014-03-02T10:44:26Z</time>
      </trkpt>
      <trkpt lat="41.625693380" lon="2.563566690">
        <ele>125.00</ele>
        <time>2014-03-02T10:44:27Z</time>
      </trkpt>
      <trkpt lat="41.625715000" lon="2.563526790">
        <ele>124.80</ele>
        <time>2014-03-02T10:44:28Z</time>
      </trkpt>
      <trkpt lat="41.625735120" lon="2.563486730">
        <ele>124.50</ele>
        <time>2014-03-02T10:44:29Z</time>
      </trkpt>
      <trkpt lat="41.625755070" lon="2.563448340">
        <ele>124.20</ele>
        <time>2014-03-02T10:44:30Z</time>
      </trkpt>
      <trkpt lat="41.625775020" lon="2.563411790">
        <ele>124.30</ele>
        <time>2014-03-02T10:44:31Z</time>
      </trkpt>
      <trkpt lat="41.625798490" lon="2.563373400">
        <ele>124.40</ele>
        <time>2014-03-02T10:44:32Z</time>
      </trkpt>
      <trkpt lat="41.625818440" lon="2.563331660">
        <ele>124.40</ele>
        <time>2014-03-02T10:44:33Z</time>
      </trkpt>
      <trkpt lat="41.625835030" lon="2.563285060">
        <ele>124.40</ele>
        <time>2014-03-02T10:44:34Z</time>
      </trkpt>
      <trkpt lat="41.625848440" lon="2.563235100">
        <ele>124.30</ele>
        <time>2014-03-02T10:44:35Z</time>
      </trkpt>
      <trkpt lat="41.625856830" lon="2.563178440">
        <ele>124.20</ele>
        <time>2014-03-02T10:44:36Z</time>
      </trkpt>
      <trkpt lat="41.625860010" lon="2.563120100">
        <ele>124.20</ele>
        <time>2014-03-02T10:44:37Z</time>
      </trkpt>
      <trkpt lat="41.625855150" lon="2.563061770">
        <ele>124.10</ele>
        <time>2014-03-02T10:44:38Z</time>
      </trkpt>
      <trkpt lat="41.625840060" lon="2.563003430">
        <ele>124.20</ele>
        <time>2014-03-02T10:44:39Z</time>
      </trkpt>
      <trkpt lat="41.625816760" lon="2.562950120">
        <ele>124.30</ele>
        <time>2014-03-02T10:44:40Z</time>
      </trkpt>
      <trkpt lat="41.625785080" lon="2.562903350">
        <ele>124.30</ele>
        <time>2014-03-02T10:44:41Z</time>
      </trkpt>
      <trkpt lat="41.625748360" lon="2.562861770">
        <ele>124.40</ele>
        <time>2014-03-02T10:44:42Z</time>
      </trkpt>
      <trkpt lat="41.625706790" lon="2.562825060">
        <ele>124.80</ele>
        <time>2014-03-02T10:44:43Z</time>
      </trkpt>
      <trkpt lat="41.625663370" lon="2.562793380">
        <ele>125.10</ele>
        <time>2014-03-02T10:44:44Z</time>
      </trkpt>
      <trkpt lat="41.625618450" lon="2.562765050">
        <ele>125.40</ele>
        <time>2014-03-02T10:44:45Z</time>
      </trkpt>
      <trkpt lat="41.625571670" lon="2.562738390">
        <ele>125.10</ele>
        <time>2014-03-02T10:44:46Z</time>
      </trkpt>
      <trkpt lat="41.625525070" lon="2.562713410">
        <ele>124.80</ele>
        <time>2014-03-02T10:44:47Z</time>
      </trkpt>
      <trkpt lat="41.625480140" lon="2.562686760">
        <ele>124.50</ele>
        <time>2014-03-02T10:44:48Z</time>
      </trkpt>
      <trkpt lat="41.625436730" lon="2.562660100">
        <ele>124.20</ele>
        <time>2014-03-02T10:44:49Z</time>
      </trkpt>
      <trkpt lat="41.625393480" lon="2.562631770">
        <ele>124.10</ele>
        <time>2014-03-02T10:44:50Z</time>
      </trkpt>
      <trkpt lat="41.625353410" lon="2.562605120">
        <ele>124.00</ele>
        <time>2014-03-02T10:44:51Z</time>
      </trkpt>
      <trkpt lat="41.625313340" lon="2.562575110">
        <ele>123.90</ele>
        <time>2014-03-02T10:44:52Z</time>
      </trkpt>
      <trkpt lat="41.625273450" lon="2.562543430">
        <ele>123.90</ele>
        <time>2014-03-02T10:44:53Z</time>
      </trkpt>
      <trkpt lat="41.625235060" lon="2.562508390">
        <ele>123.90</ele>
        <time>2014-03-02T10:44:54Z</time>
      </trkpt>
      <trkpt lat="41.625198340" lon="2.562470000">
        <ele>123.80</ele>
        <time>2014-03-02T10:44:55Z</time>
      </trkpt>
      <trkpt lat="41.625161800" lon="2.562425080">
        <ele>123.70</ele>
        <time>2014-03-02T10:44:56Z</time>
      </trkpt>
      <trkpt lat="41.625128440" lon="2.562380150">
        <ele>123.60</ele>
        <time>2014-03-02T10:44:57Z</time>
      </trkpt>
      <trkpt lat="41.625096760" lon="2.562331700">
        <ele>123.90</ele>
        <time>2014-03-02T10:44:58Z</time>
      </trkpt>
      <trkpt lat="41.625066750" lon="2.562283420">
        <ele>124.20</ele>
        <time>2014-03-02T10:44:59Z</time>
      </trkpt>
      <trkpt lat="41.625038420" lon="2.562233470">
        <ele>124.40</ele>
        <time>2014-03-02T10:45:00Z</time>
      </trkpt>
      <trkpt lat="41.625015120" lon="2.562178480">
        <ele>124.50</ele>
        <time>2014-03-02T10:45:01Z</time>
      </trkpt>
      <trkpt lat="41.624996680" lon="2.562121820">
        <ele>124.50</ele>
        <time>2014-03-02T10:45:02Z</time>
      </trkpt>
      <trkpt lat="41.624985110" lon="2.562065160">
        <ele>124.50</ele>
        <time>2014-03-02T10:45:03Z</time>
      </trkpt>
      <trkpt lat="41.624983430" lon="2.562015030">
        <ele>124.50</ele>
        <time>2014-03-02T10:45:04Z</time>
      </trkpt>
      <trkpt lat="41.624988460" lon="2.561963400">
        <ele>124.40</ele>
        <time>2014-03-02T10:45:05Z</time>
      </trkpt>
      <trkpt lat="41.624996680" lon="2.561915120">
        <ele>124.30</ele>
        <time>2014-03-02T10:45:06Z</time>
      </trkpt>
      <trkpt lat="41.625011760" lon="2.561871700">
        <ele>124.60</ele>
        <time>2014-03-02T10:45:07Z</time>
      </trkpt>
      <trkpt lat="41.625030040" lon="2.561831800">
        <ele>124.90</ele>
        <time>2014-03-02T10:45:08Z</time>
      </trkpt>
      <trkpt lat="41.625046800" lon="2.561790060">
        <ele>125.20</ele>
        <time>2014-03-02T10:45:09Z</time>
      </trkpt>
      <trkpt lat="41.625061720" lon="2.561751670">
        <ele>125.40</ele>
        <time>2014-03-02T10:45:10Z</time>
      </trkpt>
      <trkpt lat="41.625076810" lon="2.561711780">
        <ele>125.50</ele>
        <time>2014-03-02T10:45:11Z</time>
      </trkpt>
      <trkpt lat="41.625090050" lon="2.561673390">
        <ele>126.10</ele>
        <time>2014-03-02T10:45:12Z</time>
      </trkpt>
      <trkpt lat="41.625101780" lon="2.561633490">
        <ele>126.60</ele>
        <time>2014-03-02T10:45:13Z</time>
      </trkpt>
      <trkpt lat="41.625111680" lon="2.561588390">
        <ele>126.80</ele>
        <time>2014-03-02T10:45:14Z</time>
      </trkpt>
      <trkpt lat="41.625118380" lon="2.561545140">
        <ele>126.90</ele>
        <time>2014-03-02T10:45:15Z</time>
      </trkpt>
      <trkpt lat="41.625123410" lon="2.561505080">
        <ele>127.30</ele>
        <time>2014-03-02T10:45:16Z</time>
      </trkpt>
      <trkpt lat="41.625123410" lon="2.561463340">
        <ele>127.60</ele>
        <time>2014-03-02T10:45:17Z</time>
      </trkpt>
      <trkpt lat="41.625121730" lon="2.561420090">
        <ele>127.80</ele>
        <time>2014-03-02T10:45:18Z</time>
      </trkpt>
      <trkpt lat="41.625118380" lon="2.561376670">
        <ele>128.20</ele>
        <time>2014-03-02T10:45:19Z</time>
      </trkpt>
      <trkpt lat="41.625115030" lon="2.561328390">
        <ele>128.50</ele>
        <time>2014-03-02T10:45:20Z</time>
      </trkpt>
      <trkpt lat="41.625113350" lon="2.561280110">
        <ele>128.90</ele>
        <time>2014-03-02T10:45:21Z</time>
      </trkpt>
      <trkpt lat="41.625110000" lon="2.561233340">
        <ele>129.20</ele>
        <time>2014-03-02T10:45:22Z</time>
      </trkpt>
      <trkpt lat="41.625101780" lon="2.561186730">
        <ele>129.40</ele>
        <time>2014-03-02T10:45:23Z</time>
      </trkpt>
      <trkpt lat="41.625091730" lon="2.561141810">
        <ele>129.70</ele>
        <time>2014-03-02T10:45:24Z</time>
      </trkpt>
      <trkpt lat="41.625078480" lon="2.561096710">
        <ele>130.00</ele>
        <time>2014-03-02T10:45:25Z</time>
      </trkpt>
      <trkpt lat="41.625063400" lon="2.561050110">
        <ele>130.20</ele>
        <time>2014-03-02T10:45:26Z</time>
      </trkpt>
      <trkpt lat="41.625046800" lon="2.561005010">
        <ele>130.40</ele>
        <time>2014-03-02T10:45:27Z</time>
      </trkpt>
      <trkpt lat="41.625026680" lon="2.560963440">
        <ele>130.60</ele>
        <time>2014-03-02T10:45:28Z</time>
      </trkpt>
      <trkpt lat="41.625003380" lon="2.560923370">
        <ele>130.80</ele>
        <time>2014-03-02T10:45:29Z</time>
      </trkpt>
      <trkpt lat="41.624980080" lon="2.560885150">
        <ele>130.90</ele>
        <time>2014-03-02T10:45:30Z</time>
      </trkpt>
      <trkpt lat="41.624955100" lon="2.560846760">
        <ele>131.00</ele>
        <time>2014-03-02T10:45:31Z</time>
      </trkpt>
      <trkpt lat="41.624930120" lon="2.560811730">
        <ele>131.10</ele>
        <time>2014-03-02T10:45:32Z</time>
      </trkpt>
      <trkpt lat="41.624901790" lon="2.560778370">
        <ele>131.30</ele>
        <time>2014-03-02T10:45:33Z</time>
      </trkpt>
      <trkpt lat="41.624875140" lon="2.560743330">
        <ele>131.50</ele>
        <time>2014-03-02T10:45:34Z</time>
      </trkpt>
      <trkpt lat="41.624846810" lon="2.560710140">
        <ele>131.20</ele>
        <time>2014-03-02T10:45:35Z</time>
      </trkpt>
      <trkpt lat="41.624818480" lon="2.560678450">
        <ele>130.90</ele>
        <time>2014-03-02T10:45:36Z</time>
      </trkpt>
      <trkpt lat="41.624788470" lon="2.560645090">
        <ele>130.70</ele>
        <time>2014-03-02T10:45:37Z</time>
      </trkpt>
      <trkpt lat="41.624760140" lon="2.560611730">
        <ele>131.30</ele>
        <time>2014-03-02T10:45:38Z</time>
      </trkpt>
      <trkpt lat="41.624730130" lon="2.560578370">
        <ele>131.60</ele>
        <time>2014-03-02T10:45:39Z</time>
      </trkpt>
      <trkpt lat="41.624701800" lon="2.560545010">
        <ele>131.90</ele>
        <time>2014-03-02T10:45:40Z</time>
      </trkpt>
      <trkpt lat="41.624673470" lon="2.560511820">
        <ele>132.10</ele>
        <time>2014-03-02T10:45:41Z</time>
      </trkpt>
      <trkpt lat="41.624646820" lon="2.560476790">
        <ele>132.20</ele>
        <time>2014-03-02T10:45:42Z</time>
      </trkpt>
      <trkpt lat="41.624620160" lon="2.560441750">
        <ele>131.80</ele>
        <time>2014-03-02T10:45:43Z</time>
      </trkpt>
      <trkpt lat="41.624595010" lon="2.560406710">
        <ele>131.40</ele>
        <time>2014-03-02T10:45:44Z</time>
      </trkpt>
      <trkpt lat="41.624570040" lon="2.560368490">
        <ele>131.70</ele>
        <time>2014-03-02T10:45:45Z</time>
      </trkpt>
      <trkpt lat="41.624546740" lon="2.560330100">
        <ele>131.80</ele>
        <time>2014-03-02T10:45:46Z</time>
      </trkpt>
      <trkpt lat="41.624523430" lon="2.560291710">
        <ele>131.90</ele>
        <time>2014-03-02T10:45:47Z</time>
      </trkpt>
      <trkpt lat="41.624501810" lon="2.560251820">
        <ele>131.90</ele>
        <time>2014-03-02T10:45:48Z</time>
      </trkpt>
      <trkpt lat="41.624478340" lon="2.560213430">
        <ele>131.90</ele>
        <time>2014-03-02T10:45:49Z</time>
      </trkpt>
      <trkpt lat="41.624458390" lon="2.560175040">
        <ele>132.20</ele>
        <time>2014-03-02T10:45:50Z</time>
      </trkpt>
      <trkpt lat="41.624438440" lon="2.560138490">
        <ele>132.50</ele>
        <time>2014-03-02T10:45:51Z</time>
      </trkpt>
      <trkpt lat="41.624416820" lon="2.560100100">
        <ele>132.80</ele>
        <time>2014-03-02T10:45:52Z</time>
      </trkpt>
      <trkpt lat="41.624398380" lon="2.560061710">
        <ele>133.10</ele>
        <time>2014-03-02T10:45:53Z</time>
      </trkpt>
      <trkpt lat="41.624381780" lon="2.560020140">
        <ele>133.80</ele>
        <time>2014-03-02T10:45:54Z</time>
      </trkpt>
      <trkpt lat="41.624361660" lon="2.559978400">
        <ele>134.30</ele>
        <time>2014-03-02T10:45:55Z</time>
      </trkpt>
      <trkpt lat="41.624341710" lon="2.559938330">
        <ele>134.60</ele>
        <time>2014-03-02T10:45:56Z</time>
      </trkpt>
      <trkpt lat="41.624320090" lon="2.559901790">
        <ele>134.90</ele>
        <time>2014-03-02T10:45:57Z</time>
      </trkpt>
      <trkpt lat="41.624300140" lon="2.559863400">
        <ele>135.10</ele>
        <time>2014-03-02T10:45:58Z</time>
      </trkpt>
      <trkpt lat="41.624280020" lon="2.559825010">
        <ele>135.00</ele>
        <time>2014-03-02T10:45:59Z</time>
      </trkpt>
      <trkpt lat="41.624260070" lon="2.559786790">
        <ele>134.90</ele>
        <time>2014-03-02T10:46:00Z</time>
      </trkpt>
      <trkpt lat="41.624238450" lon="2.559751750">
        <ele>134.80</ele>
        <time>2014-03-02T10:46:01Z</time>
      </trkpt>
      <trkpt lat="41.624218330" lon="2.559715040">
        <ele>134.90</ele>
        <time>2014-03-02T10:46:02Z</time>
      </trkpt>
      <trkpt lat="41.624196710" lon="2.559676820">
        <ele>134.90</ele>
        <time>2014-03-02T10:46:03Z</time>
      </trkpt>
      <trkpt lat="41.624175080" lon="2.559636750">
        <ele>135.10</ele>
        <time>2014-03-02T10:46:04Z</time>
      </trkpt>
      <trkpt lat="41.624153460" lon="2.559595010">
        <ele>135.30</ele>
        <time>2014-03-02T10:46:05Z</time>
      </trkpt>
      <trkpt lat="41.624128480" lon="2.559553440">
        <ele>135.20</ele>
        <time>2014-03-02T10:46:06Z</time>
      </trkpt>
      <trkpt lat="41.624105010" lon="2.559511690">
        <ele>135.10</ele>
        <time>2014-03-02T10:46:07Z</time>
      </trkpt>
      <trkpt lat="41.624078350" lon="2.559471800">
        <ele>135.10</ele>
        <time>2014-03-02T10:46:08Z</time>
      </trkpt>
      <trkpt lat="41.624050020" lon="2.559428380">
        <ele>135.40</ele>
        <time>2014-03-02T10:46:09Z</time>
      </trkpt>
      <trkpt lat="41.624025050" lon="2.559386800">
        <ele>135.60</ele>
        <time>2014-03-02T10:46:10Z</time>
      </trkpt>
      <trkpt lat="41.624000070" lon="2.559343390">
        <ele>135.60</ele>
        <time>2014-03-02T10:46:11Z</time>
      </trkpt>
      <trkpt lat="41.623975090" lon="2.559298460">
        <ele>135.60</ele>
        <time>2014-03-02T10:46:12Z</time>
      </trkpt>
      <trkpt lat="41.623951790" lon="2.559253360">
        <ele>136.00</ele>
        <time>2014-03-02T10:46:13Z</time>
      </trkpt>
      <trkpt lat="41.623928490" lon="2.559206760">
        <ele>136.30</ele>
        <time>2014-03-02T10:46:14Z</time>
      </trkpt>
      <trkpt lat="41.623905020" lon="2.559160160">
        <ele>136.50</ele>
        <time>2014-03-02T10:46:15Z</time>
      </trkpt>
      <trkpt lat="41.623880040" lon="2.559113390">
        <ele>136.60</ele>
        <time>2014-03-02T10:46:16Z</time>
      </trkpt>
      <trkpt lat="41.623855060" lon="2.559065110">
        <ele>136.60</ele>
        <time>2014-03-02T10:46:17Z</time>
      </trkpt>
      <trkpt lat="41.623830080" lon="2.559016830">
        <ele>136.30</ele>
        <time>2014-03-02T10:46:18Z</time>
      </trkpt>
      <trkpt lat="41.623805100" lon="2.558965030">
        <ele>136.10</ele>
        <time>2014-03-02T10:46:19Z</time>
      </trkpt>
      <trkpt lat="41.623780130" lon="2.558913390">
        <ele>135.90</ele>
        <time>2014-03-02T10:46:20Z</time>
      </trkpt>
      <trkpt lat="41.623755150" lon="2.558858410">
        <ele>135.70</ele>
        <time>2014-03-02T10:46:21Z</time>
      </trkpt>
      <trkpt lat="41.623731680" lon="2.558800070">
        <ele>135.50</ele>
        <time>2014-03-02T10:46:22Z</time>
      </trkpt>
      <trkpt lat="41.623710050" lon="2.558740060">
        <ele>136.00</ele>
        <time>2014-03-02T10:46:23Z</time>
      </trkpt>
      <trkpt lat="41.623688430" lon="2.558680040">
        <ele>136.40</ele>
        <time>2014-03-02T10:46:24Z</time>
      </trkpt>
      <trkpt lat="41.623670160" lon="2.558618350">
        <ele>136.80</ele>
        <time>2014-03-02T10:46:25Z</time>
      </trkpt>
      <trkpt lat="41.623658420" lon="2.558555150">
        <ele>137.10</ele>
        <time>2014-03-02T10:46:26Z</time>
      </trkpt>
      <trkpt lat="41.623648360" lon="2.558490110">
        <ele>137.30</ele>
        <time>2014-03-02T10:46:27Z</time>
      </trkpt>
      <trkpt lat="41.623638470" lon="2.558423390">
        <ele>136.80</ele>
        <time>2014-03-02T10:46:28Z</time>
      </trkpt>
      <trkpt lat="41.623625060" lon="2.558356670">
        <ele>136.40</ele>
        <time>2014-03-02T10:46:29Z</time>
      </trkpt>
      <trkpt lat="41.623613490" lon="2.558288440">
        <ele>136.40</ele>
        <time>2014-03-02T10:46:30Z</time>
      </trkpt>
      <trkpt lat="41.623591700" lon="2.558225070">
        <ele>136.40</ele>
        <time>2014-03-02T10:46:31Z</time>
      </trkpt>
      <trkpt lat="41.623566720" lon="2.558166730">
        <ele>136.30</ele>
        <time>2014-03-02T10:46:32Z</time>
      </trkpt>
      <trkpt lat="41.623531690" lon="2.558115100">
        <ele>136.30</ele>
        <time>2014-03-02T10:46:33Z</time>
      </trkpt>
      <trkpt lat="41.623493470" lon="2.558070010">
        <ele>136.30</ele>
        <time>2014-03-02T10:46:34Z</time>
      </trkpt>
      <trkpt lat="41.623453400" lon="2.558026760">
        <ele>136.60</ele>
        <time>2014-03-02T10:46:35Z</time>
      </trkpt>
      <trkpt lat="41.623413330" lon="2.557980150">
        <ele>136.80</ele>
        <time>2014-03-02T10:46:36Z</time>
      </trkpt>
      <trkpt lat="41.623371760" lon="2.557930030">
        <ele>136.60</ele>
        <time>2014-03-02T10:46:37Z</time>
      </trkpt>
      <trkpt lat="41.623331690" lon="2.557878400">
        <ele>136.50</ele>
        <time>2014-03-02T10:46:38Z</time>
      </trkpt>
      <trkpt lat="41.623296830" lon="2.557821730">
        <ele>136.40</ele>
        <time>2014-03-02T10:46:39Z</time>
      </trkpt>
      <trkpt lat="41.623276710" lon="2.557758370">
        <ele>136.40</ele>
        <time>2014-03-02T10:46:40Z</time>
      </trkpt>
      <trkpt lat="41.623263470" lon="2.557690140">
        <ele>136.40</ele>
        <time>2014-03-02T10:46:41Z</time>
      </trkpt>
      <trkpt lat="41.623263470" lon="2.557623420">
        <ele>136.20</ele>
        <time>2014-03-02T10:46:42Z</time>
      </trkpt>
      <trkpt lat="41.623270000" lon="2.557565080">
        <ele>136.00</ele>
        <time>2014-03-02T10:46:43Z</time>
      </trkpt>
      <trkpt lat="41.623288440" lon="2.557515120">
        <ele>136.30</ele>
        <time>2014-03-02T10:46:44Z</time>
      </trkpt>
      <trkpt lat="41.623311750" lon="2.557468350">
        <ele>136.40</ele>
        <time>2014-03-02T10:46:45Z</time>
      </trkpt>
      <trkpt lat="41.623338400" lon="2.557428460">
        <ele>136.60</ele>
        <time>2014-03-02T10:46:46Z</time>
      </trkpt>
      <trkpt lat="41.623368410" lon="2.557388390">
        <ele>136.90</ele>
        <time>2014-03-02T10:46:47Z</time>
      </trkpt>
      <trkpt lat="41.623400090" lon="2.557346820">
        <ele>137.10</ele>
        <time>2014-03-02T10:46:48Z</time>
      </trkpt>
      <trkpt lat="41.623433450" lon="2.557305070">
        <ele>137.30</ele>
        <time>2014-03-02T10:46:49Z</time>
      </trkpt>
      <trkpt lat="41.623470000" lon="2.557263330">
        <ele>137.40</ele>
        <time>2014-03-02T10:46:50Z</time>
      </trkpt>
      <trkpt lat="41.623505030" lon="2.557226790">
        <ele>137.30</ele>
        <time>2014-03-02T10:46:51Z</time>
      </trkpt>
      <trkpt lat="41.623538390" lon="2.557188400">
        <ele>137.30</ele>
        <time>2014-03-02T10:46:52Z</time>
      </trkpt>
      <trkpt lat="41.623573430" lon="2.557150010">
        <ele>137.30</ele>
        <time>2014-03-02T10:46:53Z</time>
      </trkpt>
      <trkpt lat="41.623606790" lon="2.557113460">
        <ele>137.20</ele>
        <time>2014-03-02T10:46:54Z</time>
      </trkpt>
      <trkpt lat="41.623635120" lon="2.557068370">
        <ele>137.20</ele>
        <time>2014-03-02T10:46:55Z</time>
      </trkpt>
      <trkpt lat="41.623655070" lon="2.557018410">
        <ele>137.40</ele>
        <time>2014-03-02T10:46:56Z</time>
      </trkpt>
      <trkpt lat="41.623668480" lon="2.556968460">
        <ele>137.50</ele>
        <time>2014-03-02T10:46:57Z</time>
      </trkpt>
      <trkpt lat="41.623673340" lon="2.556918330">
        <ele>137.60</ele>
        <time>2014-03-02T10:46:58Z</time>
      </trkpt>
      <trkpt lat="41.623668480" lon="2.556863350">
        <ele>137.80</ele>
        <time>2014-03-02T10:46:59Z</time>
      </trkpt>
      <trkpt lat="41.623656740" lon="2.556800150">
        <ele>138.00</ele>
        <time>2014-03-02T10:47:00Z</time>
      </trkpt>
      <trkpt lat="41.623638470" lon="2.556728400">
        <ele>138.00</ele>
        <time>2014-03-02T10:47:01Z</time>
      </trkpt>
      <trkpt lat="41.623620030" lon="2.556655140">
        <ele>138.00</ele>
        <time>2014-03-02T10:47:02Z</time>
      </trkpt>
      <trkpt lat="41.623603440" lon="2.556580040">
        <ele>138.20</ele>
        <time>2014-03-02T10:47:03Z</time>
      </trkpt>
      <trkpt lat="41.623588350" lon="2.556501750">
        <ele>138.40</ele>
        <time>2014-03-02T10:47:04Z</time>
      </trkpt>
      <trkpt lat="41.623573430" lon="2.556425140">
        <ele>138.50</ele>
        <time>2014-03-02T10:47:05Z</time>
      </trkpt>
      <trkpt lat="41.623560020" lon="2.556348360">
        <ele>138.30</ele>
        <time>2014-03-02T10:47:06Z</time>
      </trkpt>
      <trkpt lat="41.623550130" lon="2.556273430">
        <ele>138.20</ele>
        <time>2014-03-02T10:47:07Z</time>
      </trkpt>
      <trkpt lat="41.623536720" lon="2.556203360">
        <ele>138.20</ele>
        <time>2014-03-02T10:47:08Z</time>
      </trkpt>
      <trkpt lat="41.623528330" lon="2.556136800">
        <ele>138.10</ele>
        <time>2014-03-02T10:47:09Z</time>
      </trkpt>
      <trkpt lat="41.623520120" lon="2.556070080">
        <ele>138.60</ele>
        <time>2014-03-02T10:47:10Z</time>
      </trkpt>
      <trkpt lat="41.623518440" lon="2.556001690">
        <ele>138.90</ele>
        <time>2014-03-02T10:47:11Z</time>
      </trkpt>
      <trkpt lat="41.623518440" lon="2.555935140">
        <ele>139.10</ele>
        <time>2014-03-02T10:47:12Z</time>
      </trkpt>
      <trkpt lat="41.623518440" lon="2.555868420">
        <ele>139.10</ele>
        <time>2014-03-02T10:47:13Z</time>
      </trkpt>
      <trkpt lat="41.623518440" lon="2.555808400">
        <ele>139.00</ele>
        <time>2014-03-02T10:47:14Z</time>
      </trkpt>
      <trkpt lat="41.623516770" lon="2.555750060">
        <ele>139.20</ele>
        <time>2014-03-02T10:47:15Z</time>
      </trkpt>
      <trkpt lat="41.623510060" lon="2.555698430">
        <ele>139.30</ele>
        <time>2014-03-02T10:47:16Z</time>
      </trkpt>
      <trkpt lat="41.623498490" lon="2.555646800">
        <ele>139.40</ele>
        <time>2014-03-02T10:47:17Z</time>
      </trkpt>
      <trkpt lat="41.623483410" lon="2.555596670">
        <ele>139.20</ele>
        <time>2014-03-02T10:47:18Z</time>
      </trkpt>
      <trkpt lat="41.623463460" lon="2.555550070">
        <ele>139.10</ele>
        <time>2014-03-02T10:47:19Z</time>
      </trkpt>
      <trkpt lat="41.623440160" lon="2.555505140">
        <ele>139.50</ele>
        <time>2014-03-02T10:47:20Z</time>
      </trkpt>
      <trkpt lat="41.623415010" lon="2.555465080">
        <ele>139.80</ele>
        <time>2014-03-02T10:47:21Z</time>
      </trkpt>
      <trkpt lat="41.623386680" lon="2.555428370">
        <ele>139.80</ele>
        <time>2014-03-02T10:47:22Z</time>
      </trkpt>
      <trkpt lat="41.623356670" lon="2.555395010">
        <ele>139.80</ele>
        <time>2014-03-02T10:47:23Z</time>
      </trkpt>
      <trkpt lat="41.623323480" lon="2.555368350">
        <ele>139.80</ele>
        <time>2014-03-02T10:47:24Z</time>
      </trkpt>
      <trkpt lat="41.623290120" lon="2.555345050">
        <ele>140.10</ele>
        <time>2014-03-02T10:47:25Z</time>
      </trkpt>
      <trkpt lat="41.623253410" lon="2.555325100">
        <ele>140.30</ele>
        <time>2014-03-02T10:47:26Z</time>
      </trkpt>
      <trkpt lat="41.623216690" lon="2.555310010">
        <ele>140.30</ele>
        <time>2014-03-02T10:47:27Z</time>
      </trkpt>
      <trkpt lat="41.623178470" lon="2.555298450">
        <ele>140.30</ele>
        <time>2014-03-02T10:47:28Z</time>
      </trkpt>
      <trkpt lat="41.623140080" lon="2.555286710">
        <ele>140.60</ele>
        <time>2014-03-02T10:47:29Z</time>
      </trkpt>
      <trkpt lat="41.623101700" lon="2.555276820">
        <ele>140.80</ele>
        <time>2014-03-02T10:47:30Z</time>
      </trkpt>
      <trkpt lat="41.623063470" lon="2.555268440">
        <ele>141.00</ele>
        <time>2014-03-02T10:47:31Z</time>
      </trkpt>
      <trkpt lat="41.623026760" lon="2.555261730">
        <ele>141.40</ele>
        <time>2014-03-02T10:47:32Z</time>
      </trkpt>
      <trkpt lat="41.622990050" lon="2.555253350">
        <ele>141.70</ele>
        <time>2014-03-02T10:47:33Z</time>
      </trkpt>
      <trkpt lat="41.622953340" lon="2.555245140">
        <ele>141.70</ele>
        <time>2014-03-02T10:47:34Z</time>
      </trkpt>
      <trkpt lat="41.622916790" lon="2.555236760">
        <ele>141.70</ele>
        <time>2014-03-02T10:47:35Z</time>
      </trkpt>
      <trkpt lat="41.622880080" lon="2.555225020">
        <ele>141.80</ele>
        <time>2014-03-02T10:47:36Z</time>
      </trkpt>
      <trkpt lat="41.622845040" lon="2.555210100">
        <ele>142.00</ele>
        <time>2014-03-02T10:47:37Z</time>
      </trkpt>
      <trkpt lat="41.622808330" lon="2.555193340">
        <ele>142.10</ele>
        <time>2014-03-02T10:47:38Z</time>
      </trkpt>
      <trkpt lat="41.622771780" lon="2.555173390">
        <ele>142.60</ele>
        <time>2014-03-02T10:47:39Z</time>
      </trkpt>
      <trkpt lat="41.622736750" lon="2.555150090">
        <ele>143.10</ele>
        <time>2014-03-02T10:47:40Z</time>
      </trkpt>
      <trkpt lat="41.622700030" lon="2.555125110">
        <ele>143.20</ele>
        <time>2014-03-02T10:47:41Z</time>
      </trkpt>
      <trkpt lat="41.622665000" lon="2.555100130">
        <ele>143.20</ele>
        <time>2014-03-02T10:47:42Z</time>
      </trkpt>
      <trkpt lat="41.622630130" lon="2.555073480">
        <ele>143.30</ele>
        <time>2014-03-02T10:47:43Z</time>
      </trkpt>
      <trkpt lat="41.622595090" lon="2.555046820">
        <ele>143.20</ele>
        <time>2014-03-02T10:47:44Z</time>
      </trkpt>
      <trkpt lat="41.622560060" lon="2.555018490">
        <ele>143.20</ele>
        <time>2014-03-02T10:47:45Z</time>
      </trkpt>
      <trkpt lat="41.622523340" lon="2.554988480">
        <ele>143.20</ele>
        <time>2014-03-02T10:47:46Z</time>
      </trkpt>
      <trkpt lat="41.622488480" lon="2.554958480">
        <ele>143.20</ele>
        <time>2014-03-02T10:47:47Z</time>
      </trkpt>
      <trkpt lat="41.622453440" lon="2.554930150">
        <ele>143.20</ele>
        <time>2014-03-02T10:47:48Z</time>
      </trkpt>
      <trkpt lat="41.622418400" lon="2.554906680">
        <ele>143.20</ele>
        <time>2014-03-02T10:47:49Z</time>
      </trkpt>
      <trkpt lat="41.622383370" lon="2.554881700">
        <ele>143.20</ele>
        <time>2014-03-02T10:47:50Z</time>
      </trkpt>
      <trkpt lat="41.622350010" lon="2.554856720">
        <ele>143.50</ele>
        <time>2014-03-02T10:47:51Z</time>
      </trkpt>
      <trkpt lat="41.622316810" lon="2.554833420">
        <ele>143.70</ele>
        <time>2014-03-02T10:47:52Z</time>
      </trkpt>
      <trkpt lat="41.622285130" lon="2.554805090">
        <ele>144.00</ele>
        <time>2014-03-02T10:47:53Z</time>
      </trkpt>
      <trkpt lat="41.622253450" lon="2.554773400">
        <ele>144.30</ele>
        <time>2014-03-02T10:47:54Z</time>
      </trkpt>
      <trkpt lat="41.622225120" lon="2.554733340">
        <ele>144.20</ele>
        <time>2014-03-02T10:47:55Z</time>
      </trkpt>
      <trkpt lat="41.622196780" lon="2.554693440">
        <ele>144.20</ele>
        <time>2014-03-02T10:47:56Z</time>
      </trkpt>
      <trkpt lat="41.622170130" lon="2.554651700">
        <ele>144.20</ele>
        <time>2014-03-02T10:47:57Z</time>
      </trkpt>
      <trkpt lat="41.622148340" lon="2.554605100">
        <ele>144.30</ele>
        <time>2014-03-02T10:47:58Z</time>
      </trkpt>
      <trkpt lat="41.622126710" lon="2.554561680">
        <ele>144.40</ele>
        <time>2014-03-02T10:47:59Z</time>
      </trkpt>
      <trkpt lat="41.622106760" lon="2.554516750">
        <ele>144.80</ele>
        <time>2014-03-02T10:48:00Z</time>
      </trkpt>
      <trkpt lat="41.622088490" lon="2.554471820">
        <ele>145.00</ele>
        <time>2014-03-02T10:48:01Z</time>
      </trkpt>
      <trkpt lat="41.622070050" lon="2.554430080">
        <ele>145.20</ele>
        <time>2014-03-02T10:48:02Z</time>
      </trkpt>
      <trkpt lat="41.622053450" lon="2.554388340">
        <ele>145.30</ele>
        <time>2014-03-02T10:48:03Z</time>
      </trkpt>
      <trkpt lat="41.622035010" lon="2.554346770">
        <ele>145.30</ele>
        <time>2014-03-02T10:48:04Z</time>
      </trkpt>
      <trkpt lat="41.622016740" lon="2.554305020">
        <ele>145.70</ele>
        <time>2014-03-02T10:48:05Z</time>
      </trkpt>
      <trkpt lat="41.621998470" lon="2.554263450">
        <ele>146.00</ele>
        <time>2014-03-02T10:48:06Z</time>
      </trkpt>
      <trkpt lat="41.621981710" lon="2.554221710">
        <ele>146.30</ele>
        <time>2014-03-02T10:48:07Z</time>
      </trkpt>
      <trkpt lat="41.621961760" lon="2.554183490">
        <ele>146.50</ele>
        <time>2014-03-02T10:48:08Z</time>
      </trkpt>
      <trkpt lat="41.621943480" lon="2.554143420">
        <ele>146.60</ele>
        <time>2014-03-02T10:48:09Z</time>
      </trkpt>
      <trkpt lat="41.621923370" lon="2.554103350">
        <ele>147.00</ele>
        <time>2014-03-02T10:48:10Z</time>
      </trkpt>
      <trkpt lat="41.621900070" lon="2.554065130">
        <ele>147.30</ele>
        <time>2014-03-02T10:48:11Z</time>
      </trkpt>
      <trkpt lat="41.621875090" lon="2.554028420">
        <ele>147.60</ele>
        <time>2014-03-02T10:48:12Z</time>
      </trkpt>
      <trkpt lat="41.621851790" lon="2.553991710">
        <ele>147.80</ele>
        <time>2014-03-02T10:48:13Z</time>
      </trkpt>
      <trkpt lat="41.621828480" lon="2.553956670">
        <ele>148.00</ele>
        <time>2014-03-02T10:48:14Z</time>
      </trkpt>
      <trkpt lat="41.621803340" lon="2.553920130">
        <ele>148.20</ele>
        <time>2014-03-02T10:48:15Z</time>
      </trkpt>
      <trkpt lat="41.621778360" lon="2.553885090">
        <ele>148.30</ele>
        <time>2014-03-02T10:48:16Z</time>
      </trkpt>
      <trkpt lat="41.621755060" lon="2.553848380">
        <ele>149.00</ele>
        <time>2014-03-02T10:48:17Z</time>
      </trkpt>
      <trkpt lat="41.621731760" lon="2.553811660">
        <ele>149.60</ele>
        <time>2014-03-02T10:48:18Z</time>
      </trkpt>
      <trkpt lat="41.621710130" lon="2.553775120">
        <ele>149.60</ele>
        <time>2014-03-02T10:48:19Z</time>
      </trkpt>
      <trkpt lat="41.621688340" lon="2.553740080">
        <ele>149.60</ele>
        <time>2014-03-02T10:48:20Z</time>
      </trkpt>
      <trkpt lat="41.621668390" lon="2.553706720">
        <ele>149.70</ele>
        <time>2014-03-02T10:48:21Z</time>
      </trkpt>
      <trkpt lat="41.621650120" lon="2.553673360">
        <ele>149.80</ele>
        <time>2014-03-02T10:48:22Z</time>
      </trkpt>
      <trkpt lat="41.621631680" lon="2.553638490">
        <ele>150.00</ele>
        <time>2014-03-02T10:48:23Z</time>
      </trkpt>
      <trkpt lat="41.621611730" lon="2.553600110">
        <ele>150.40</ele>
        <time>2014-03-02T10:48:24Z</time>
      </trkpt>
      <trkpt lat="41.621593460" lon="2.553561720">
        <ele>150.70</ele>
        <time>2014-03-02T10:48:25Z</time>
      </trkpt>
      <trkpt lat="41.621576690" lon="2.553525000">
        <ele>150.70</ele>
        <time>2014-03-02T10:48:26Z</time>
      </trkpt>
      <trkpt lat="41.621561770" lon="2.553490130">
        <ele>150.80</ele>
        <time>2014-03-02T10:48:27Z</time>
      </trkpt>
      <trkpt lat="41.621546680" lon="2.553455100">
        <ele>150.80</ele>
        <time>2014-03-02T10:48:28Z</time>
      </trkpt>
      <trkpt lat="41.621530090" lon="2.553420060">
        <ele>150.90</ele>
        <time>2014-03-02T10:48:29Z</time>
      </trkpt>
      <trkpt lat="41.621516680" lon="2.553380000">
        <ele>151.10</ele>
        <time>2014-03-02T10:48:30Z</time>
      </trkpt>
      <trkpt lat="41.621501760" lon="2.553341770">
        <ele>151.30</ele>
        <time>2014-03-02T10:48:31Z</time>
      </trkpt>
      <trkpt lat="41.621486670" lon="2.553301710">
        <ele>151.40</ele>
        <time>2014-03-02T10:48:32Z</time>
      </trkpt>
      <trkpt lat="41.621470070" lon="2.553261810">
        <ele>152.10</ele>
        <time>2014-03-02T10:48:33Z</time>
      </trkpt>
      <trkpt lat="41.621455150" lon="2.553218390">
        <ele>152.50</ele>
        <time>2014-03-02T10:48:34Z</time>
      </trkpt>
      <trkpt lat="41.621441740" lon="2.553175140">
        <ele>152.90</ele>
        <time>2014-03-02T10:48:35Z</time>
      </trkpt>
      <trkpt lat="41.621428330" lon="2.553128370">
        <ele>152.80</ele>
        <time>2014-03-02T10:48:36Z</time>
      </trkpt>
      <trkpt lat="41.621413410" lon="2.553081770">
        <ele>152.80</ele>
        <time>2014-03-02T10:48:37Z</time>
      </trkpt>
      <trkpt lat="41.621401680" lon="2.553035000">
        <ele>152.90</ele>
        <time>2014-03-02T10:48:38Z</time>
      </trkpt>
      <trkpt lat="41.621388430" lon="2.552986720">
        <ele>153.00</ele>
        <time>2014-03-02T10:48:39Z</time>
      </trkpt>
      <trkpt lat="41.621376700" lon="2.552936760">
        <ele>153.10</ele>
        <time>2014-03-02T10:48:40Z</time>
      </trkpt>
      <trkpt lat="41.621365130" lon="2.552885130">
        <ele>153.50</ele>
        <time>2014-03-02T10:48:41Z</time>
      </trkpt>
      <trkpt lat="41.621355070" lon="2.552833330">
        <ele>153.80</ele>
        <time>2014-03-02T10:48:42Z</time>
      </trkpt>
      <trkpt lat="41.621346690" lon="2.552781700">
        <ele>153.90</ele>
        <time>2014-03-02T10:48:43Z</time>
      </trkpt>
      <trkpt lat="41.621338480" lon="2.552728390">
        <ele>154.00</ele>
        <time>2014-03-02T10:48:44Z</time>
      </trkpt>
      <trkpt lat="41.621333450" lon="2.552675080">
        <ele>154.30</ele>
        <time>2014-03-02T10:48:45Z</time>
      </trkpt>
      <trkpt lat="41.621328420" lon="2.552620090">
        <ele>154.60</ele>
        <time>2014-03-02T10:48:46Z</time>
      </trkpt>
      <trkpt lat="41.621325070" lon="2.552563430">
        <ele>154.80</ele>
        <time>2014-03-02T10:48:47Z</time>
      </trkpt>
      <trkpt lat="41.621321710" lon="2.552506770">
        <ele>155.00</ele>
        <time>2014-03-02T10:48:48Z</time>
      </trkpt>
      <trkpt lat="41.621318360" lon="2.552451780">
        <ele>155.10</ele>
        <time>2014-03-02T10:48:49Z</time>
      </trkpt>
      <trkpt lat="41.621313330" lon="2.552396800">
        <ele>154.80</ele>
        <time>2014-03-02T10:48:50Z</time>
      </trkpt>
      <trkpt lat="41.621308470" lon="2.552341810">
        <ele>154.50</ele>
        <time>2014-03-02T10:48:51Z</time>
      </trkpt>
      <trkpt lat="41.621305120" lon="2.552286830">
        <ele>154.40</ele>
        <time>2014-03-02T10:48:52Z</time>
      </trkpt>
      <trkpt lat="41.621301770" lon="2.552233350">
        <ele>154.40</ele>
        <time>2014-03-02T10:48:53Z</time>
      </trkpt>
      <trkpt lat="41.621296740" lon="2.552181720">
        <ele>154.40</ele>
        <time>2014-03-02T10:48:54Z</time>
      </trkpt>
      <trkpt lat="41.621291710" lon="2.552130090">
        <ele>154.40</ele>
        <time>2014-03-02T10:48:55Z</time>
      </trkpt>
      <trkpt lat="41.621285000" lon="2.552080130">
        <ele>154.40</ele>
        <time>2014-03-02T10:48:56Z</time>
      </trkpt>
      <trkpt lat="41.621276790" lon="2.552033360">
        <ele>154.50</ele>
        <time>2014-03-02T10:48:57Z</time>
      </trkpt>
      <trkpt lat="41.621265050" lon="2.551985080">
        <ele>154.50</ele>
        <time>2014-03-02T10:48:58Z</time>
      </trkpt>
      <trkpt lat="41.621251810" lon="2.551941660">
        <ele>154.70</ele>
        <time>2014-03-02T10:48:59Z</time>
      </trkpt>
      <trkpt lat="41.621233370" lon="2.551898410">
        <ele>154.80</ele>
        <time>2014-03-02T10:49:00Z</time>
      </trkpt>
      <trkpt lat="41.621211740" lon="2.551858350">
        <ele>154.90</ele>
        <time>2014-03-02T10:49:01Z</time>
      </trkpt>
      <trkpt lat="41.621188440" lon="2.551820120">
        <ele>154.90</ele>
        <time>2014-03-02T10:49:02Z</time>
      </trkpt>
      <trkpt lat="41.621163460" lon="2.551783410">
        <ele>154.90</ele>
        <time>2014-03-02T10:49:03Z</time>
      </trkpt>
      <trkpt lat="41.621138490" lon="2.551746700">
        <ele>154.80</ele>
        <time>2014-03-02T10:49:04Z</time>
      </trkpt>
      <trkpt lat="41.621111660" lon="2.551713340">
        <ele>154.60</ele>
        <time>2014-03-02T10:49:05Z</time>
      </trkpt>
      <trkpt lat="41.621086690" lon="2.551680150">
        <ele>154.60</ele>
        <time>2014-03-02T10:49:06Z</time>
      </trkpt>
      <trkpt lat="41.621060030" lon="2.551646790">
        <ele>154.70</ele>
        <time>2014-03-02T10:49:07Z</time>
      </trkpt>
      <trkpt lat="41.621036730" lon="2.551613430">
        <ele>154.90</ele>
        <time>2014-03-02T10:49:08Z</time>
      </trkpt>
      <trkpt lat="41.621013430" lon="2.551576710">
        <ele>155.30</ele>
        <time>2014-03-02T10:49:09Z</time>
      </trkpt>
      <trkpt lat="41.620993480" lon="2.551540000">
        <ele>155.60</ele>
        <time>2014-03-02T10:49:10Z</time>
      </trkpt>
      <trkpt lat="41.620971690" lon="2.551503460">
        <ele>155.70</ele>
        <time>2014-03-02T10:49:11Z</time>
      </trkpt>
      <trkpt lat="41.620955090" lon="2.551465070">
        <ele>155.80</ele>
        <time>2014-03-02T10:49:12Z</time>
      </trkpt>
      <trkpt lat="41.620941680" lon="2.551423490">
        <ele>155.90</ele>
        <time>2014-03-02T10:49:13Z</time>
      </trkpt>
      <trkpt lat="41.620930110" lon="2.551380070">
        <ele>156.20</ele>
        <time>2014-03-02T10:49:14Z</time>
      </trkpt>
      <trkpt lat="41.620920050" lon="2.551340010">
        <ele>156.50</ele>
        <time>2014-03-02T10:49:15Z</time>
      </trkpt>
      <trkpt lat="41.620923410" lon="2.551301790">
        <ele>156.70</ele>
        <time>2014-03-02T10:49:16Z</time>
      </trkpt>
      <trkpt lat="41.620926760" lon="2.551268430">
        <ele>156.90</ele>
        <time>2014-03-02T10:49:17Z</time>
      </trkpt>
      <trkpt lat="41.620928440" lon="2.551240100">
        <ele>157.00</ele>
        <time>2014-03-02T10:49:18Z</time>
      </trkpt>
      <trkpt lat="41.620925080" lon="2.551208410">
        <ele>157.00</ele>
        <time>2014-03-02T10:49:19Z</time>
      </trkpt>
      <trkpt lat="41.620925080" lon="2.551173380">
        <ele>157.00</ele>
        <time>2014-03-02T10:49:20Z</time>
      </trkpt>
      <trkpt lat="41.620923410" lon="2.551140020">
        <ele>157.50</ele>
        <time>2014-03-02T10:49:21Z</time>
      </trkpt>
      <trkpt lat="41.620925080" lon="2.551105150">
        <ele>157.80</ele>
        <time>2014-03-02T10:49:22Z</time>
      </trkpt>
      <trkpt lat="41.620926760" lon="2.551068440">
        <ele>158.30</ele>
        <time>2014-03-02T10:49:23Z</time>
      </trkpt>
      <trkpt lat="41.620921730" lon="2.551028370">
        <ele>158.70</ele>
        <time>2014-03-02T10:49:24Z</time>
      </trkpt>
      <trkpt lat="41.620918380" lon="2.550988470">
        <ele>159.00</ele>
        <time>2014-03-02T10:49:25Z</time>
      </trkpt>
      <trkpt lat="41.620916700" lon="2.550948410">
        <ele>159.60</ele>
        <time>2014-03-02T10:49:26Z</time>
      </trkpt>
      <trkpt lat="41.620913350" lon="2.550908340">
        <ele>160.10</ele>
        <time>2014-03-02T10:49:27Z</time>
      </trkpt>
      <trkpt lat="41.620910000" lon="2.550870120">
        <ele>160.00</ele>
        <time>2014-03-02T10:49:28Z</time>
      </trkpt>
      <trkpt lat="41.620903460" lon="2.550833410">
        <ele>160.00</ele>
        <time>2014-03-02T10:49:29Z</time>
      </trkpt>
      <trkpt lat="41.620896750" lon="2.550795020">
        <ele>160.20</ele>
        <time>2014-03-02T10:49:30Z</time>
      </trkpt>
      <trkpt lat="41.620891720" lon="2.550758470">
        <ele>160.30</ele>
        <time>2014-03-02T10:49:31Z</time>
      </trkpt>
      <trkpt lat="41.620885020" lon="2.550720080">
        <ele>160.40</ele>
        <time>2014-03-02T10:49:32Z</time>
      </trkpt>
      <trkpt lat="41.620873450" lon="2.550676660">
        <ele>160.70</ele>
        <time>2014-03-02T10:49:33Z</time>
      </trkpt>
      <trkpt lat="41.620861720" lon="2.550630060">
        <ele>160.80</ele>
        <time>2014-03-02T10:49:34Z</time>
      </trkpt>
      <trkpt lat="41.620848470" lon="2.550581780">
        <ele>160.90</ele>
        <time>2014-03-02T10:49:35Z</time>
      </trkpt>
      <trkpt lat="41.620833380" lon="2.550530150">
        <ele>161.00</ele>
        <time>2014-03-02T10:49:36Z</time>
      </trkpt>
      <trkpt lat="41.620818460" lon="2.550476670">
        <ele>161.00</ele>
        <time>2014-03-02T10:49:37Z</time>
      </trkpt>
      <trkpt lat="41.620801700" lon="2.550420010">
        <ele>161.20</ele>
        <time>2014-03-02T10:49:38Z</time>
      </trkpt>
      <trkpt lat="41.620785100" lon="2.550363350">
        <ele>161.30</ele>
        <time>2014-03-02T10:49:39Z</time>
      </trkpt>
      <trkpt lat="41.620768340" lon="2.550306690">
        <ele>161.40</ele>
        <time>2014-03-02T10:49:40Z</time>
      </trkpt>
      <trkpt lat="41.620750070" lon="2.550248350">
        <ele>161.50</ele>
        <time>2014-03-02T10:49:41Z</time>
      </trkpt>
      <trkpt lat="41.620731800" lon="2.550188340">
        <ele>161.50</ele>
        <time>2014-03-02T10:49:42Z</time>
      </trkpt>
      <trkpt lat="41.620715030" lon="2.550130000">
        <ele>161.50</ele>
        <time>2014-03-02T10:49:43Z</time>
      </trkpt>
      <trkpt lat="41.620696760" lon="2.550070150">
        <ele>161.50</ele>
        <time>2014-03-02T10:49:44Z</time>
      </trkpt>
      <trkpt lat="41.620676810" lon="2.550011810">
        <ele>161.60</ele>
        <time>2014-03-02T10:49:45Z</time>
      </trkpt>
      <trkpt lat="41.620656690" lon="2.549953470">
        <ele>161.60</ele>
        <time>2014-03-02T10:49:46Z</time>
      </trkpt>
      <trkpt lat="41.620633390" lon="2.549896810">
        <ele>161.70</ele>
        <time>2014-03-02T10:49:47Z</time>
      </trkpt>
      <trkpt lat="41.620611770" lon="2.549840150">
        <ele>161.70</ele>
        <time>2014-03-02T10:49:48Z</time>
      </trkpt>
      <trkpt lat="41.620588470" lon="2.549783490">
        <ele>161.50</ele>
        <time>2014-03-02T10:49:49Z</time>
      </trkpt>
      <trkpt lat="41.620563490" lon="2.549731690">
        <ele>161.40</ele>
        <time>2014-03-02T10:49:50Z</time>
      </trkpt>
      <trkpt lat="41.620540020" lon="2.549680060">
        <ele>161.30</ele>
        <time>2014-03-02T10:49:51Z</time>
      </trkpt>
      <trkpt lat="41.620513360" lon="2.549631780">
        <ele>161.50</ele>
        <time>2014-03-02T10:49:52Z</time>
      </trkpt>
      <trkpt lat="41.620490060" lon="2.549585010">
        <ele>161.70</ele>
        <time>2014-03-02T10:49:53Z</time>
      </trkpt>
      <trkpt lat="41.620466760" lon="2.549538400">
        <ele>161.50</ele>
        <time>2014-03-02T10:49:54Z</time>
      </trkpt>
      <trkpt lat="41.620445130" lon="2.549493480">
        <ele>161.30</ele>
        <time>2014-03-02T10:49:55Z</time>
      </trkpt>
      <trkpt lat="41.620423340" lon="2.549450060">
        <ele>161.20</ele>
        <time>2014-03-02T10:49:56Z</time>
      </trkpt>
      <trkpt lat="41.620401720" lon="2.549405130">
        <ele>161.50</ele>
        <time>2014-03-02T10:49:57Z</time>
      </trkpt>
      <trkpt lat="41.620380090" lon="2.549363390">
        <ele>161.60</ele>
        <time>2014-03-02T10:49:58Z</time>
      </trkpt>
      <trkpt lat="41.620356790" lon="2.549323490">
        <ele>161.40</ele>
        <time>2014-03-02T10:49:59Z</time>
      </trkpt>
      <trkpt lat="41.620335000" lon="2.549286780">
        <ele>161.30</ele>
        <time>2014-03-02T10:50:00Z</time>
      </trkpt>
      <trkpt lat="41.620315050" lon="2.549248390">
        <ele>161.60</ele>
        <time>2014-03-02T10:50:01Z</time>
      </trkpt>
      <trkpt lat="41.620293420" lon="2.549210000">
        <ele>161.80</ele>
        <time>2014-03-02T10:50:02Z</time>
      </trkpt>
      <trkpt lat="41.620271800" lon="2.549175130">
        <ele>161.90</ele>
        <time>2014-03-02T10:50:03Z</time>
      </trkpt>
      <trkpt lat="41.620248500" lon="2.549141770">
        <ele>162.10</ele>
        <time>2014-03-02T10:50:04Z</time>
      </trkpt>
      <trkpt lat="41.620223350" lon="2.549108410">
        <ele>162.30</ele>
        <time>2014-03-02T10:50:05Z</time>
      </trkpt>
      <trkpt lat="41.620200050" lon="2.549075050">
        <ele>162.60</ele>
        <time>2014-03-02T10:50:06Z</time>
      </trkpt>
      <trkpt lat="41.620175070" lon="2.549045040">
        <ele>162.90</ele>
        <time>2014-03-02T10:50:07Z</time>
      </trkpt>
      <trkpt lat="41.620150090" lon="2.549016710">
        <ele>163.50</ele>
        <time>2014-03-02T10:50:08Z</time>
      </trkpt>
      <trkpt lat="41.620125110" lon="2.548990060">
        <ele>163.90</ele>
        <time>2014-03-02T10:50:09Z</time>
      </trkpt>
      <trkpt lat="41.620100140" lon="2.548966760">
        <ele>164.20</ele>
        <time>2014-03-02T10:50:10Z</time>
      </trkpt>
      <trkpt lat="41.620073480" lon="2.548940100">
        <ele>164.10</ele>
        <time>2014-03-02T10:50:11Z</time>
      </trkpt>
      <trkpt lat="41.620050010" lon="2.548913450">
        <ele>163.90</ele>
        <time>2014-03-02T10:50:12Z</time>
      </trkpt>
      <trkpt lat="41.620026710" lon="2.548886790">
        <ele>164.30</ele>
        <time>2014-03-02T10:50:13Z</time>
      </trkpt>
      <trkpt lat="41.620001730" lon="2.548861820">
        <ele>164.60</ele>
        <time>2014-03-02T10:50:14Z</time>
      </trkpt>
      <trkpt lat="41.619976750" lon="2.548835160">
        <ele>164.80</ele>
        <time>2014-03-02T10:50:15Z</time>
      </trkpt>
      <trkpt lat="41.619951780" lon="2.548811690">
        <ele>165.20</ele>
        <time>2014-03-02T10:50:16Z</time>
      </trkpt>
      <trkpt lat="41.619928470" lon="2.548788390">
        <ele>165.40</ele>
        <time>2014-03-02T10:50:17Z</time>
      </trkpt>
      <trkpt lat="41.619903330" lon="2.548765090">
        <ele>165.70</ele>
        <time>2014-03-02T10:50:18Z</time>
      </trkpt>
      <trkpt lat="41.619880030" lon="2.548741790">
        <ele>165.90</ele>
        <time>2014-03-02T10:50:19Z</time>
      </trkpt>
      <trkpt lat="41.619856730" lon="2.548716810">
        <ele>166.10</ele>
        <time>2014-03-02T10:50:20Z</time>
      </trkpt>
      <trkpt lat="41.619835100" lon="2.548693340">
        <ele>166.20</ele>
        <time>2014-03-02T10:50:21Z</time>
      </trkpt>
      <trkpt lat="41.619811800" lon="2.548668360">
        <ele>166.30</ele>
        <time>2014-03-02T10:50:22Z</time>
      </trkpt>
      <trkpt lat="41.619788330" lon="2.548643380">
        <ele>166.10</ele>
        <time>2014-03-02T10:50:23Z</time>
      </trkpt>
      <trkpt lat="41.619763350" lon="2.548621760">
        <ele>165.90</ele>
        <time>2014-03-02T10:50:24Z</time>
      </trkpt>
      <trkpt lat="41.619741730" lon="2.548598460">
        <ele>166.20</ele>
        <time>2014-03-02T10:50:25Z</time>
      </trkpt>
      <trkpt lat="41.619720100" lon="2.548573480">
        <ele>166.40</ele>
        <time>2014-03-02T10:50:26Z</time>
      </trkpt>
      <trkpt lat="41.619698470" lon="2.548551680">
        <ele>166.60</ele>
        <time>2014-03-02T10:50:27Z</time>
      </trkpt>
      <trkpt lat="41.619678360" lon="2.548526710">
        <ele>166.70</ele>
        <time>2014-03-02T10:50:28Z</time>
      </trkpt>
      <trkpt lat="41.619658410" lon="2.548503410">
        <ele>166.90</ele>
        <time>2014-03-02T10:50:29Z</time>
      </trkpt>
      <trkpt lat="41.619636780" lon="2.548478430">
        <ele>167.40</ele>
        <time>2014-03-02T10:50:30Z</time>
      </trkpt>
      <trkpt lat="41.619615160" lon="2.548451770">
        <ele>167.90</ele>
        <time>2014-03-02T10:50:31Z</time>
      </trkpt>
      <trkpt lat="41.619595040" lon="2.548423440">
        <ele>168.20</ele>
        <time>2014-03-02T10:50:32Z</time>
      </trkpt>
      <trkpt lat="41.619573420" lon="2.548395110">
        <ele>168.40</ele>
        <time>2014-03-02T10:50:33Z</time>
      </trkpt>
      <trkpt lat="41.619551790" lon="2.548368460">
        <ele>168.80</ele>
        <time>2014-03-02T10:50:34Z</time>
      </trkpt>
      <trkpt lat="41.619531670" lon="2.548340130">
        <ele>169.10</ele>
        <time>2014-03-02T10:50:35Z</time>
      </trkpt>
      <trkpt lat="41.619510050" lon="2.548311790">
        <ele>169.30</ele>
        <time>2014-03-02T10:50:36Z</time>
      </trkpt>
      <trkpt lat="41.619491780" lon="2.548280110">
        <ele>169.40</ele>
        <time>2014-03-02T10:50:37Z</time>
      </trkpt>
      <trkpt lat="41.619471830" lon="2.548250100">
        <ele>169.50</ele>
        <time>2014-03-02T10:50:38Z</time>
      </trkpt>
      <trkpt lat="41.619453390" lon="2.548218420">
        <ele>169.70</ele>
        <time>2014-03-02T10:50:39Z</time>
      </trkpt>
      <trkpt lat="41.619438470" lon="2.548183380">
        <ele>169.80</ele>
        <time>2014-03-02T10:50:40Z</time>
      </trkpt>
      <trkpt lat="41.619423380" lon="2.548150020">
        <ele>169.90</ele>
        <time>2014-03-02T10:50:41Z</time>
      </trkpt>
      <trkpt lat="41.619406780" lon="2.548118340">
        <ele>169.80</ele>
        <time>2014-03-02T10:50:42Z</time>
      </trkpt>
      <trkpt lat="41.619386670" lon="2.548093360">
        <ele>169.70</ele>
        <time>2014-03-02T10:50:43Z</time>
      </trkpt>
      <trkpt lat="41.619366720" lon="2.548076770">
        <ele>169.80</ele>
        <time>2014-03-02T10:50:44Z</time>
      </trkpt>
      <trkpt lat="41.619350120" lon="2.548075090">
        <ele>169.80</ele>
        <time>2014-03-02T10:50:45Z</time>
      </trkpt>
      <trkpt lat="41.619338390" lon="2.548078440">
        <ele>170.10</ele>
        <time>2014-03-02T10:50:46Z</time>
      </trkpt>
      <trkpt lat="41.619326820" lon="2.548090010">
        <ele>170.30</ele>
        <time>2014-03-02T10:50:47Z</time>
      </trkpt>
      <trkpt lat="41.619320120" lon="2.548103420">
        <ele>170.50</ele>
        <time>2014-03-02T10:50:48Z</time>
      </trkpt>
      <trkpt lat="41.619318440" lon="2.548121690">
        <ele>170.40</ele>
        <time>2014-03-02T10:50:49Z</time>
      </trkpt>
      <trkpt lat="41.619320120" lon="2.548146670">
        <ele>170.40</ele>
        <time>2014-03-02T10:50:50Z</time>
      </trkpt>
      <trkpt lat="41.619325140" lon="2.548171820">
        <ele>170.60</ele>
        <time>2014-03-02T10:50:51Z</time>
      </trkpt>
      <trkpt lat="41.619333360" lon="2.548193440">
        <ele>170.70</ele>
        <time>2014-03-02T10:50:52Z</time>
      </trkpt>
      <trkpt lat="41.619340060" lon="2.548213390">
        <ele>170.90</ele>
        <time>2014-03-02T10:50:53Z</time>
      </trkpt>
      <trkpt lat="41.619350120" lon="2.548233340">
        <ele>171.00</ele>
        <time>2014-03-02T10:50:54Z</time>
      </trkpt>
      <trkpt lat="41.619360010" lon="2.548251780">
        <ele>171.10</ele>
        <time>2014-03-02T10:50:55Z</time>
      </trkpt>
      <trkpt lat="41.619368400" lon="2.548270050">
        <ele>171.10</ele>
        <time>2014-03-02T10:50:56Z</time>
      </trkpt>
      <trkpt lat="41.619376780" lon="2.548290000">
        <ele>171.00</ele>
        <time>2014-03-02T10:50:57Z</time>
      </trkpt>
      <trkpt lat="41.619385160" lon="2.548310120">
        <ele>170.90</ele>
        <time>2014-03-02T10:50:58Z</time>
      </trkpt>
      <trkpt lat="41.619393370" lon="2.548331740">
        <ele>170.80</ele>
        <time>2014-03-02T10:50:59Z</time>
      </trkpt>
      <trkpt lat="41.619400080" lon="2.548353370">
        <ele>170.70</ele>
        <time>2014-03-02T10:51:00Z</time>
      </trkpt>
      <trkpt lat="41.619406780" lon="2.548373490">
        <ele>170.90</ele>
        <time>2014-03-02T10:51:01Z</time>
      </trkpt>
      <trkpt lat="41.619415000" lon="2.548391760">
        <ele>171.10</ele>
        <time>2014-03-02T10:51:02Z</time>
      </trkpt>
      <trkpt lat="41.619421700" lon="2.548411710">
        <ele>171.30</ele>
        <time>2014-03-02T10:51:03Z</time>
      </trkpt>
      <trkpt lat="41.619430090" lon="2.548430150">
        <ele>171.40</ele>
        <time>2014-03-02T10:51:04Z</time>
      </trkpt>
      <trkpt lat="41.619440140" lon="2.548446740">
        <ele>171.90</ele>
        <time>2014-03-02T10:51:05Z</time>
      </trkpt>
      <trkpt lat="41.619450040" lon="2.548465020">
        <ele>172.20</ele>
        <time>2014-03-02T10:51:06Z</time>
      </trkpt>
      <trkpt lat="41.619460090" lon="2.548480100">
        <ele>172.50</ele>
        <time>2014-03-02T10:51:07Z</time>
      </trkpt>
      <trkpt lat="41.619468480" lon="2.548498380">
        <ele>172.60</ele>
        <time>2014-03-02T10:51:08Z</time>
      </trkpt>
      <trkpt lat="41.619476690" lon="2.548516820">
        <ele>172.70</ele>
        <time>2014-03-02T10:51:09Z</time>
      </trkpt>
      <trkpt lat="41.619488420" lon="2.548535090">
        <ele>173.00</ele>
        <time>2014-03-02T10:51:10Z</time>
      </trkpt>
      <trkpt lat="41.619498480" lon="2.548550010">
        <ele>173.30</ele>
        <time>2014-03-02T10:51:11Z</time>
      </trkpt>
      <trkpt lat="41.619511730" lon="2.548565100">
        <ele>173.30</ele>
        <time>2014-03-02T10:51:12Z</time>
      </trkpt>
      <trkpt lat="41.619523460" lon="2.548580020">
        <ele>173.40</ele>
        <time>2014-03-02T10:51:13Z</time>
      </trkpt>
      <trkpt lat="41.619535030" lon="2.548591750">
        <ele>173.40</ele>
        <time>2014-03-02T10:51:14Z</time>
      </trkpt>
      <trkpt lat="41.619546760" lon="2.548603480">
        <ele>173.70</ele>
        <time>2014-03-02T10:51:15Z</time>
      </trkpt>
      <trkpt lat="41.619555140" lon="2.548611700">
        <ele>174.00</ele>
        <time>2014-03-02T10:51:16Z</time>
      </trkpt>
      <trkpt lat="41.619565030" lon="2.548621760">
        <ele>174.40</ele>
        <time>2014-03-02T10:51:17Z</time>
      </trkpt>
      <trkpt lat="41.619576770" lon="2.548633490">
        <ele>174.70</ele>
        <time>2014-03-02T10:51:18Z</time>
      </trkpt>
      <trkpt lat="41.619586830" lon="2.548646740">
        <ele>174.90</ele>
        <time>2014-03-02T10:51:19Z</time>
      </trkpt>
      <trkpt lat="41.619596720" lon="2.548658470">
        <ele>175.00</ele>
        <time>2014-03-02T10:51:20Z</time>
      </trkpt>
      <trkpt lat="41.619606780" lon="2.548671710">
        <ele>175.10</ele>
        <time>2014-03-02T10:51:21Z</time>
      </trkpt>
      <trkpt lat="41.619618340" lon="2.548685120">
        <ele>175.30</ele>
        <time>2014-03-02T10:51:22Z</time>
      </trkpt>
      <trkpt lat="41.619626730" lon="2.548700040">
        <ele>175.40</ele>
        <time>2014-03-02T10:51:23Z</time>
      </trkpt>
      <trkpt lat="41.619635110" lon="2.548711780">
        <ele>176.00</ele>
        <time>2014-03-02T10:51:24Z</time>
      </trkpt>
      <trkpt lat="41.619645000" lon="2.548721670">
        <ele>176.50</ele>
        <time>2014-03-02T10:51:25Z</time>
      </trkpt>
      <trkpt lat="41.619653380" lon="2.548738430">
        <ele>176.90</ele>
        <time>2014-03-02T10:51:26Z</time>
      </trkpt>
      <trkpt lat="41.619660090" lon="2.548755030">
        <ele>177.10</ele>
        <time>2014-03-02T10:51:27Z</time>
      </trkpt>
      <trkpt lat="41.619670140" lon="2.548773470">
        <ele>177.30</ele>
        <time>2014-03-02T10:51:28Z</time>
      </trkpt>
      <trkpt lat="41.619680030" lon="2.548790070">
        <ele>177.10</ele>
        <time>2014-03-02T10:51:29Z</time>
      </trkpt>
      <trkpt lat="41.619690090" lon="2.548808340">
        <ele>177.00</ele>
        <time>2014-03-02T10:51:30Z</time>
      </trkpt>
      <trkpt lat="41.619700150" lon="2.548828460">
        <ele>177.20</ele>
        <time>2014-03-02T10:51:31Z</time>
      </trkpt>
      <trkpt lat="41.619708370" lon="2.548846730">
        <ele>177.40</ele>
        <time>2014-03-02T10:51:32Z</time>
      </trkpt>
      <trkpt lat="41.619715070" lon="2.548865000">
        <ele>177.60</ele>
        <time>2014-03-02T10:51:33Z</time>
      </trkpt>
      <trkpt lat="41.619721780" lon="2.548883440">
        <ele>177.70</ele>
        <time>2014-03-02T10:51:34Z</time>
      </trkpt>
      <trkpt lat="41.619730160" lon="2.548900040">
        <ele>177.80</ele>
        <time>2014-03-02T10:51:35Z</time>
      </trkpt>
      <trkpt lat="41.619738370" lon="2.548916800">
        <ele>178.20</ele>
        <time>2014-03-02T10:51:36Z</time>
      </trkpt>
      <trkpt lat="41.619746750" lon="2.548935070">
        <ele>178.50</ele>
        <time>2014-03-02T10:51:37Z</time>
      </trkpt>
      <trkpt lat="41.619755140" lon="2.548955020">
        <ele>178.70</ele>
        <time>2014-03-02T10:51:38Z</time>
      </trkpt>
      <trkpt lat="41.619761670" lon="2.548971790">
        <ele>178.90</ele>
        <time>2014-03-02T10:51:39Z</time>
      </trkpt>
      <trkpt lat="41.619771730" lon="2.548988380">
        <ele>179.00</ele>
        <time>2014-03-02T10:51:40Z</time>
      </trkpt>
      <trkpt lat="41.619781790" lon="2.549005150">
        <ele>178.90</ele>
        <time>2014-03-02T10:51:41Z</time>
      </trkpt>
      <trkpt lat="41.619788330" lon="2.549020070">
        <ele>178.80</ele>
        <time>2014-03-02T10:51:42Z</time>
      </trkpt>
      <trkpt lat="41.619796710" lon="2.549036660">
        <ele>179.10</ele>
        <time>2014-03-02T10:51:43Z</time>
      </trkpt>
      <trkpt lat="41.619806770" lon="2.549053430">
        <ele>179.30</ele>
        <time>2014-03-02T10:51:44Z</time>
      </trkpt>
      <trkpt lat="41.619815150" lon="2.549070020">
        <ele>179.50</ele>
        <time>2014-03-02T10:51:45Z</time>
      </trkpt>
      <trkpt lat="41.619825040" lon="2.549083430">
        <ele>179.80</ele>
        <time>2014-03-02T10:51:46Z</time>
      </trkpt>
      <trkpt lat="41.619830070" lon="2.549100030">
        <ele>180.10</ele>
        <time>2014-03-02T10:51:47Z</time>
      </trkpt>
      <trkpt lat="41.619835100" lon="2.549115120">
        <ele>180.30</ele>
        <time>2014-03-02T10:51:48Z</time>
      </trkpt>
      <trkpt lat="41.619841810" lon="2.549133390">
        <ele>180.40</ele>
        <time>2014-03-02T10:51:49Z</time>
      </trkpt>
      <trkpt lat="41.619843480" lon="2.549150150">
        <ele>180.40</ele>
        <time>2014-03-02T10:51:50Z</time>
      </trkpt>
      <trkpt lat="41.619850020" lon="2.549168430">
        <ele>180.40</ele>
        <time>2014-03-02T10:51:51Z</time>
      </trkpt>
      <trkpt lat="41.619855050" lon="2.549183350">
        <ele>180.40</ele>
        <time>2014-03-02T10:51:52Z</time>
      </trkpt>
      <trkpt lat="41.619858400" lon="2.549200110">
        <ele>180.70</ele>
        <time>2014-03-02T10:51:53Z</time>
      </trkpt>
      <trkpt lat="41.619863430" lon="2.549216710">
        <ele>180.90</ele>
        <time>2014-03-02T10:51:54Z</time>
      </trkpt>
      <trkpt lat="41.619865110" lon="2.549235150">
        <ele>181.00</ele>
        <time>2014-03-02T10:51:55Z</time>
      </trkpt>
      <trkpt lat="41.619866780" lon="2.549255090">
        <ele>181.20</ele>
        <time>2014-03-02T10:51:56Z</time>
      </trkpt>
      <trkpt lat="41.619870140" lon="2.549273370">
        <ele>181.20</ele>
        <time>2014-03-02T10:51:57Z</time>
      </trkpt>
      <trkpt lat="41.619871810" lon="2.549291810">
        <ele>181.80</ele>
        <time>2014-03-02T10:51:58Z</time>
      </trkpt>
      <trkpt lat="41.619875000" lon="2.549308400">
        <ele>182.30</ele>
        <time>2014-03-02T10:51:59Z</time>
      </trkpt>
      <trkpt lat="41.619878350" lon="2.549328350">
        <ele>182.50</ele>
        <time>2014-03-02T10:52:00Z</time>
      </trkpt>
      <trkpt lat="41.619881700" lon="2.549351820">
        <ele>182.70</ele>
        <time>2014-03-02T10:52:01Z</time>
      </trkpt>
      <trkpt lat="41.619886730" lon="2.549375120">
        <ele>182.70</ele>
        <time>2014-03-02T10:52:02Z</time>
      </trkpt>
      <trkpt lat="41.619891760" lon="2.549396750">
        <ele>182.60</ele>
        <time>2014-03-02T10:52:03Z</time>
      </trkpt>
      <trkpt lat="41.619896790" lon="2.549418370">
        <ele>182.60</ele>
        <time>2014-03-02T10:52:04Z</time>
      </trkpt>
      <trkpt lat="41.619900140" lon="2.549438490">
        <ele>182.90</ele>
        <time>2014-03-02T10:52:05Z</time>
      </trkpt>
      <trkpt lat="41.619903330" lon="2.549460120">
        <ele>183.20</ele>
        <time>2014-03-02T10:52:06Z</time>
      </trkpt>
      <trkpt lat="41.619905000" lon="2.549481740">
        <ele>183.50</ele>
        <time>2014-03-02T10:52:07Z</time>
      </trkpt>
      <trkpt lat="41.619906680" lon="2.549503370">
        <ele>183.80</ele>
        <time>2014-03-02T10:52:08Z</time>
      </trkpt>
      <trkpt lat="41.619905000" lon="2.549521810">
        <ele>184.20</ele>
        <time>2014-03-02T10:52:09Z</time>
      </trkpt>
      <trkpt lat="41.619906680" lon="2.549541760">
        <ele>184.50</ele>
        <time>2014-03-02T10:52:10Z</time>
      </trkpt>
      <trkpt lat="41.619910030" lon="2.549563380">
        <ele>184.80</ele>
        <time>2014-03-02T10:52:11Z</time>
      </trkpt>
      <trkpt lat="41.619913390" lon="2.549581820">
        <ele>185.10</ele>
        <time>2014-03-02T10:52:12Z</time>
      </trkpt>
      <trkpt lat="41.619915060" lon="2.549603450">
        <ele>185.30</ele>
        <time>2014-03-02T10:52:13Z</time>
      </trkpt>
      <trkpt lat="41.619915060" lon="2.549623390">
        <ele>185.40</ele>
        <time>2014-03-02T10:52:14Z</time>
      </trkpt>
      <trkpt lat="41.619913390" lon="2.549645020">
        <ele>185.40</ele>
        <time>2014-03-02T10:52:15Z</time>
      </trkpt>
      <trkpt lat="41.619913390" lon="2.549666810">
        <ele>185.50</ele>
        <time>2014-03-02T10:52:16Z</time>
      </trkpt>
      <trkpt lat="41.619913390" lon="2.549690110">
        <ele>185.60</ele>
        <time>2014-03-02T10:52:17Z</time>
      </trkpt>
      <trkpt lat="41.619913390" lon="2.549711740">
        <ele>185.70</ele>
        <time>2014-03-02T10:52:18Z</time>
      </trkpt>
      <trkpt lat="41.619913390" lon="2.549735040">
        <ele>185.70</ele>
        <time>2014-03-02T10:52:19Z</time>
      </trkpt>
      <trkpt lat="41.619911710" lon="2.549758340">
        <ele>185.70</ele>
        <time>2014-03-02T10:52:20Z</time>
      </trkpt>
      <trkpt lat="41.619913390" lon="2.549781810">
        <ele>186.00</ele>
        <time>2014-03-02T10:52:21Z</time>
      </trkpt>
      <trkpt lat="41.619913390" lon="2.549805110">
        <ele>186.20</ele>
        <time>2014-03-02T10:52:22Z</time>
      </trkpt>
      <trkpt lat="41.619913390" lon="2.549830090">
        <ele>186.40</ele>
        <time>2014-03-02T10:52:23Z</time>
      </trkpt>
      <trkpt lat="41.619913390" lon="2.549853390">
        <ele>187.10</ele>
        <time>2014-03-02T10:52:24Z</time>
      </trkpt>
      <trkpt lat="41.619913390" lon="2.549876700">
        <ele>187.60</ele>
        <time>2014-03-02T10:52:25Z</time>
      </trkpt>
      <trkpt lat="41.619913390" lon="2.549900000">
        <ele>187.60</ele>
        <time>2014-03-02T10:52:26Z</time>
      </trkpt>
      <trkpt lat="41.619913390" lon="2.549923470">
        <ele>187.60</ele>
        <time>2014-03-02T10:52:27Z</time>
      </trkpt>
      <trkpt lat="41.619913390" lon="2.549946770">
        <ele>187.70</ele>
        <time>2014-03-02T10:52:28Z</time>
      </trkpt>
      <trkpt lat="41.619913390" lon="2.549968390">
        <ele>187.80</ele>
        <time>2014-03-02T10:52:29Z</time>
      </trkpt>
      <trkpt lat="41.619913390" lon="2.549991700">
        <ele>187.90</ele>
        <time>2014-03-02T10:52:30Z</time>
      </trkpt>
      <trkpt lat="41.619913390" lon="2.550013490">
        <ele>188.00</ele>
        <time>2014-03-02T10:52:31Z</time>
      </trkpt>
      <trkpt lat="41.619913390" lon="2.550036790">
        <ele>188.10</ele>
        <time>2014-03-02T10:52:32Z</time>
      </trkpt>
      <trkpt lat="41.619916740" lon="2.550060090">
        <ele>188.70</ele>
        <time>2014-03-02T10:52:33Z</time>
      </trkpt>
      <trkpt lat="41.619918420" lon="2.550083390">
        <ele>189.20</ele>
        <time>2014-03-02T10:52:34Z</time>
      </trkpt>
      <trkpt lat="41.619920090" lon="2.550106700">
        <ele>189.50</ele>
        <time>2014-03-02T10:52:35Z</time>
      </trkpt>
      <trkpt lat="41.619921770" lon="2.550128490">
        <ele>188.90</ele>
        <time>2014-03-02T10:52:36Z</time>
      </trkpt>
      <trkpt lat="41.619925120" lon="2.550150110">
        <ele>188.40</ele>
        <time>2014-03-02T10:52:37Z</time>
      </trkpt>
      <trkpt lat="41.619928470" lon="2.550170060">
        <ele>188.50</ele>
        <time>2014-03-02T10:52:38Z</time>
      </trkpt>
      <trkpt lat="41.619930150" lon="2.550191690">
        <ele>188.50</ele>
        <time>2014-03-02T10:52:39Z</time>
      </trkpt>
      <trkpt lat="41.619935010" lon="2.550213480">
        <ele>189.00</ele>
        <time>2014-03-02T10:52:40Z</time>
      </trkpt>
      <trkpt lat="41.619940040" lon="2.550233430">
        <ele>189.30</ele>
        <time>2014-03-02T10:52:41Z</time>
      </trkpt>
      <trkpt lat="41.619945070" lon="2.550253380">
        <ele>189.60</ele>
        <time>2014-03-02T10:52:42Z</time>
      </trkpt>
      <trkpt lat="41.619951780" lon="2.550273500">
        <ele>189.80</ele>
        <time>2014-03-02T10:52:43Z</time>
      </trkpt>
      <trkpt lat="41.619956810" lon="2.550296800">
        <ele>189.90</ele>
        <time>2014-03-02T10:52:44Z</time>
      </trkpt>
      <trkpt lat="41.619963340" lon="2.550318420">
        <ele>190.10</ele>
        <time>2014-03-02T10:52:45Z</time>
      </trkpt>
      <trkpt lat="41.619970050" lon="2.550338370">
        <ele>190.30</ele>
        <time>2014-03-02T10:52:46Z</time>
      </trkpt>
      <trkpt lat="41.619973400" lon="2.550360000">
        <ele>190.70</ele>
        <time>2014-03-02T10:52:47Z</time>
      </trkpt>
      <trkpt lat="41.619976750" lon="2.550380110">
        <ele>191.10</ele>
        <time>2014-03-02T10:52:48Z</time>
      </trkpt>
      <trkpt lat="41.619980110" lon="2.550400060">
        <ele>191.30</ele>
        <time>2014-03-02T10:52:49Z</time>
      </trkpt>
      <trkpt lat="41.619985140" lon="2.550420010">
        <ele>191.10</ele>
        <time>2014-03-02T10:52:50Z</time>
      </trkpt>
      <trkpt lat="41.619990000" lon="2.550440130">
        <ele>191.00</ele>
        <time>2014-03-02T10:52:51Z</time>
      </trkpt>
      <trkpt lat="41.619996700" lon="2.550461750">
        <ele>191.10</ele>
        <time>2014-03-02T10:52:52Z</time>
      </trkpt>
      <trkpt lat="41.620001730" lon="2.550480030">
        <ele>191.20</ele>
        <time>2014-03-02T10:52:53Z</time>
      </trkpt>
      <trkpt lat="41.620008440" lon="2.550500140">
        <ele>191.40</ele>
        <time>2014-03-02T10:52:54Z</time>
      </trkpt>
      <trkpt lat="41.620016820" lon="2.550516740">
        <ele>191.60</ele>
        <time>2014-03-02T10:52:55Z</time>
      </trkpt>
      <trkpt lat="41.620023360" lon="2.550538360">
        <ele>191.80</ele>
        <time>2014-03-02T10:52:56Z</time>
      </trkpt>
      <trkpt lat="41.620031740" lon="2.550556800">
        <ele>192.00</ele>
        <time>2014-03-02T10:52:57Z</time>
      </trkpt>
      <trkpt lat="41.620038440" lon="2.550576750">
        <ele>192.10</ele>
        <time>2014-03-02T10:52:58Z</time>
      </trkpt>
      <trkpt lat="41.620045150" lon="2.550595030">
        <ele>192.30</ele>
        <time>2014-03-02T10:52:59Z</time>
      </trkpt>
      <trkpt lat="41.620050010" lon="2.550615140">
        <ele>192.50</ele>
        <time>2014-03-02T10:53:00Z</time>
      </trkpt>
      <trkpt lat="41.620053360" lon="2.550635090">
        <ele>192.60</ele>
        <time>2014-03-02T10:53:01Z</time>
      </trkpt>
      <trkpt lat="41.620058390" lon="2.550655040">
        <ele>193.10</ele>
        <time>2014-03-02T10:53:02Z</time>
      </trkpt>
      <trkpt lat="41.620063420" lon="2.550673480">
        <ele>193.40</ele>
        <time>2014-03-02T10:53:03Z</time>
      </trkpt>
      <trkpt lat="41.620065100" lon="2.550693430">
        <ele>193.40</ele>
        <time>2014-03-02T10:53:04Z</time>
      </trkpt>
      <trkpt lat="41.620066780" lon="2.550711700">
        <ele>193.40</ele>
        <time>2014-03-02T10:53:05Z</time>
      </trkpt>
      <trkpt lat="41.620066780" lon="2.550731820">
        <ele>193.80</ele>
        <time>2014-03-02T10:53:06Z</time>
      </trkpt>
      <trkpt lat="41.620065100" lon="2.550753440">
        <ele>194.10</ele>
        <time>2014-03-02T10:53:07Z</time>
      </trkpt>
      <trkpt lat="41.620061750" lon="2.550773390">
        <ele>194.30</ele>
        <time>2014-03-02T10:53:08Z</time>
      </trkpt>
      <trkpt lat="41.620058390" lon="2.550791660">
        <ele>194.80</ele>
        <time>2014-03-02T10:53:09Z</time>
      </trkpt>
      <trkpt lat="41.620051690" lon="2.550811780">
        <ele>195.10</ele>
        <time>2014-03-02T10:53:10Z</time>
      </trkpt>
      <trkpt lat="41.620043470" lon="2.550828380">
        <ele>195.50</ele>
        <time>2014-03-02T10:53:11Z</time>
      </trkpt>
      <trkpt lat="41.620033420" lon="2.550843460">
        <ele>195.90</ele>
        <time>2014-03-02T10:53:12Z</time>
      </trkpt>
      <trkpt lat="41.620023360" lon="2.550855030">
        <ele>196.10</ele>
        <time>2014-03-02T10:53:13Z</time>
      </trkpt>
      <trkpt lat="41.620015140" lon="2.550865090">
        <ele>196.10</ele>
        <time>2014-03-02T10:53:14Z</time>
      </trkpt>
      <trkpt lat="41.620006760" lon="2.550873470">
        <ele>196.20</ele>
        <time>2014-03-02T10:53:15Z</time>
      </trkpt>
      <trkpt lat="41.620001730" lon="2.550878330">
        <ele>196.60</ele>
        <time>2014-03-02T10:53:16Z</time>
      </trkpt>
      <trkpt lat="41.619993350" lon="2.550885040">
        <ele>196.90</ele>
        <time>2014-03-02T10:53:17Z</time>
      </trkpt>
      <trkpt lat="41.619980110" lon="2.550891740">
        <ele>197.20</ele>
        <time>2014-03-02T10:53:18Z</time>
      </trkpt>
      <trkpt lat="41.619970050" lon="2.550895100">
        <ele>197.50</ele>
        <time>2014-03-02T10:53:19Z</time>
      </trkpt>
      <trkpt lat="41.619956810" lon="2.550898450">
        <ele>197.70</ele>
        <time>2014-03-02T10:53:20Z</time>
      </trkpt>
      <trkpt lat="41.619946750" lon="2.550901800">
        <ele>198.10</ele>
        <time>2014-03-02T10:53:21Z</time>
      </trkpt>
      <trkpt lat="41.619935010" lon="2.550906660">
        <ele>198.40</ele>
        <time>2014-03-02T10:53:22Z</time>
      </trkpt>
      <trkpt lat="41.619921770" lon="2.550911690">
        <ele>198.30</ele>
        <time>2014-03-02T10:53:23Z</time>
      </trkpt>
      <trkpt lat="41.619908360" lon="2.550916720">
        <ele>198.30</ele>
        <time>2014-03-02T10:53:24Z</time>
      </trkpt>
      <trkpt lat="41.619893440" lon="2.550925100">
        <ele>198.50</ele>
        <time>2014-03-02T10:53:25Z</time>
      </trkpt>
      <trkpt lat="41.619878350" lon="2.550933490">
        <ele>198.60</ele>
        <time>2014-03-02T10:53:26Z</time>
      </trkpt>
      <trkpt lat="41.619863430" lon="2.550945050">
        <ele>198.70</ele>
        <time>2014-03-02T10:53:27Z</time>
      </trkpt>
      <trkpt lat="41.619850020" lon="2.550951760">
        <ele>199.00</ele>
        <time>2014-03-02T10:53:28Z</time>
      </trkpt>
      <trkpt lat="41.619838450" lon="2.550958460">
        <ele>199.20</ele>
        <time>2014-03-02T10:53:29Z</time>
      </trkpt>
      <trkpt lat="41.619825040" lon="2.550968360">
        <ele>199.80</ele>
        <time>2014-03-02T10:53:30Z</time>
      </trkpt>
      <trkpt lat="41.619821690" lon="2.550975060">
        <ele>200.30</ele>
        <time>2014-03-02T10:53:31Z</time>
      </trkpt>
      <trkpt lat="41.619808450" lon="2.550988470">
        <ele>200.40</ele>
        <time>2014-03-02T10:53:32Z</time>
      </trkpt>
      <trkpt lat="41.619796710" lon="2.551005070">
        <ele>200.40</ele>
        <time>2014-03-02T10:53:33Z</time>
      </trkpt>
      <trkpt lat="41.619788330" lon="2.551018480">
        <ele>200.50</ele>
        <time>2014-03-02T10:53:34Z</time>
      </trkpt>
      <trkpt lat="41.619778440" lon="2.551031720">
        <ele>200.30</ele>
        <time>2014-03-02T10:53:35Z</time>
      </trkpt>
      <trkpt lat="41.619771730" lon="2.551041780">
        <ele>200.20</ele>
        <time>2014-03-02T10:53:36Z</time>
      </trkpt>
      <trkpt lat="41.619768380" lon="2.551053350">
        <ele>200.40</ele>
        <time>2014-03-02T10:53:37Z</time>
      </trkpt>
      <trkpt lat="41.619760000" lon="2.551066760">
        <ele>200.60</ele>
        <time>2014-03-02T10:53:38Z</time>
      </trkpt>
      <trkpt lat="41.619750110" lon="2.551080000">
        <ele>200.80</ele>
        <time>2014-03-02T10:53:39Z</time>
      </trkpt>
      <trkpt lat="41.619741730" lon="2.551091740">
        <ele>201.00</ele>
        <time>2014-03-02T10:53:40Z</time>
      </trkpt>
      <trkpt lat="41.619731670" lon="2.551103470">
        <ele>201.20</ele>
        <time>2014-03-02T10:53:41Z</time>
      </trkpt>
      <trkpt lat="41.619725130" lon="2.551115040">
        <ele>201.20</ele>
        <time>2014-03-02T10:53:42Z</time>
      </trkpt>
      <trkpt lat="41.619718420" lon="2.551128450">
        <ele>201.20</ele>
        <time>2014-03-02T10:53:43Z</time>
      </trkpt>
      <trkpt lat="41.619710040" lon="2.551145050">
        <ele>201.30</ele>
        <time>2014-03-02T10:53:44Z</time>
      </trkpt>
      <trkpt lat="41.619700150" lon="2.551160130">
        <ele>201.40</ele>
        <time>2014-03-02T10:53:45Z</time>
      </trkpt>
      <trkpt lat="41.619688420" lon="2.551176730">
        <ele>201.50</ele>
        <time>2014-03-02T10:53:46Z</time>
      </trkpt>
      <trkpt lat="41.619676680" lon="2.551190140">
        <ele>201.60</ele>
        <time>2014-03-02T10:53:47Z</time>
      </trkpt>
      <trkpt lat="41.619666790" lon="2.551205060">
        <ele>201.70</ele>
        <time>2014-03-02T10:53:48Z</time>
      </trkpt>
      <trkpt lat="41.619655060" lon="2.551223330">
        <ele>201.90</ele>
        <time>2014-03-02T10:53:49Z</time>
      </trkpt>
      <trkpt lat="41.619643490" lon="2.551240100">
        <ele>202.00</ele>
        <time>2014-03-02T10:53:50Z</time>
      </trkpt>
      <trkpt lat="41.619633430" lon="2.551258370">
        <ele>202.70</ele>
        <time>2014-03-02T10:53:51Z</time>
      </trkpt>
      <trkpt lat="41.619625050" lon="2.551275130">
        <ele>203.20</ele>
        <time>2014-03-02T10:53:52Z</time>
      </trkpt>
      <trkpt lat="41.619616670" lon="2.551293410">
        <ele>203.60</ele>
        <time>2014-03-02T10:53:53Z</time>
      </trkpt>
      <trkpt lat="41.619610130" lon="2.551310000">
        <ele>203.60</ele>
        <time>2014-03-02T10:53:54Z</time>
      </trkpt>
      <trkpt lat="41.619603420" lon="2.551328440">
        <ele>203.70</ele>
        <time>2014-03-02T10:53:55Z</time>
      </trkpt>
      <trkpt lat="41.619596720" lon="2.551345040">
        <ele>203.70</ele>
        <time>2014-03-02T10:53:56Z</time>
      </trkpt>
      <trkpt lat="41.619588340" lon="2.551361800">
        <ele>203.70</ele>
        <time>2014-03-02T10:53:57Z</time>
      </trkpt>
      <trkpt lat="41.619580120" lon="2.551380070">
        <ele>203.70</ele>
        <time>2014-03-02T10:53:58Z</time>
      </trkpt>
      <trkpt lat="41.619568390" lon="2.551395160">
        <ele>204.00</ele>
        <time>2014-03-02T10:53:59Z</time>
      </trkpt>
      <trkpt lat="41.619560010" lon="2.551413430">
        <ele>204.10</ele>
        <time>2014-03-02T10:54:00Z</time>
      </trkpt>
      <trkpt lat="41.619553470" lon="2.551430030">
        <ele>204.10</ele>
        <time>2014-03-02T10:54:01Z</time>
      </trkpt>
      <trkpt lat="41.619545090" lon="2.551450150">
        <ele>204.10</ele>
        <time>2014-03-02T10:54:02Z</time>
      </trkpt>
      <trkpt lat="41.619536700" lon="2.551466740">
        <ele>204.40</ele>
        <time>2014-03-02T10:54:03Z</time>
      </trkpt>
      <trkpt lat="41.619530000" lon="2.551485020">
        <ele>204.60</ele>
        <time>2014-03-02T10:54:04Z</time>
      </trkpt>
      <trkpt lat="41.619523460" lon="2.551503460">
        <ele>204.70</ele>
        <time>2014-03-02T10:54:05Z</time>
      </trkpt>
      <trkpt lat="41.619516760" lon="2.551520050">
        <ele>205.20</ele>
        <time>2014-03-02T10:54:06Z</time>
      </trkpt>
      <trkpt lat="41.619508370" lon="2.551540000">
        <ele>205.60</ele>
        <time>2014-03-02T10:54:07Z</time>
      </trkpt>
      <trkpt lat="41.619503340" lon="2.551558440">
        <ele>206.10</ele>
        <time>2014-03-02T10:54:08Z</time>
      </trkpt>
      <trkpt lat="41.619496810" lon="2.551576710">
        <ele>206.50</ele>
        <time>2014-03-02T10:54:09Z</time>
      </trkpt>
      <trkpt lat="41.619490100" lon="2.551593480">
        <ele>206.80</ele>
        <time>2014-03-02T10:54:10Z</time>
      </trkpt>
      <trkpt lat="41.619483400" lon="2.551611750">
        <ele>207.10</ele>
        <time>2014-03-02T10:54:11Z</time>
      </trkpt>
      <trkpt lat="41.619476690" lon="2.551630020">
        <ele>207.30</ele>
        <time>2014-03-02T10:54:12Z</time>
      </trkpt>
      <trkpt lat="41.619468480" lon="2.551648460">
        <ele>207.50</ele>
        <time>2014-03-02T10:54:13Z</time>
      </trkpt>
      <trkpt lat="41.619463450" lon="2.551665060">
        <ele>207.60</ele>
        <time>2014-03-02T10:54:14Z</time>
      </trkpt>
      <trkpt lat="41.619456740" lon="2.551681820">
        <ele>207.70</ele>
        <time>2014-03-02T10:54:15Z</time>
      </trkpt>
      <trkpt lat="41.619450040" lon="2.551696740">
        <ele>207.80</ele>
        <time>2014-03-02T10:54:16Z</time>
      </trkpt>
      <trkpt lat="41.619443330" lon="2.551715020">
        <ele>207.90</ele>
        <time>2014-03-02T10:54:17Z</time>
      </trkpt>
      <trkpt lat="41.619436790" lon="2.551731780">
        <ele>208.10</ele>
        <time>2014-03-02T10:54:18Z</time>
      </trkpt>
      <trkpt lat="41.619433440" lon="2.551748380">
        <ele>208.30</ele>
        <time>2014-03-02T10:54:19Z</time>
      </trkpt>
      <trkpt lat="41.619426730" lon="2.551765140">
        <ele>208.90</ele>
        <time>2014-03-02T10:54:20Z</time>
      </trkpt>
      <trkpt lat="41.619416680" lon="2.551780060">
        <ele>209.40</ele>
        <time>2014-03-02T10:54:21Z</time>
      </trkpt>
      <trkpt lat="41.619403430" lon="2.551793470">
        <ele>209.20</ele>
        <time>2014-03-02T10:54:22Z</time>
      </trkpt>
      <trkpt lat="41.619383480" lon="2.551808390">
        <ele>209.10</ele>
        <time>2014-03-02T10:54:23Z</time>
      </trkpt>
      <trkpt lat="41.619370070" lon="2.551825150">
        <ele>208.90</ele>
        <time>2014-03-02T10:54:24Z</time>
      </trkpt>
      <trkpt lat="41.619356830" lon="2.551840070">
        <ele>209.10</ele>
        <time>2014-03-02T10:54:25Z</time>
      </trkpt>
      <trkpt lat="41.619346770" lon="2.551853480">
        <ele>209.30</ele>
        <time>2014-03-02T10:54:26Z</time>
      </trkpt>
      <trkpt lat="41.619338390" lon="2.551865050">
        <ele>209.20</ele>
        <time>2014-03-02T10:54:27Z</time>
      </trkpt>
      <trkpt lat="41.619333360" lon="2.551876790">
        <ele>209.20</ele>
        <time>2014-03-02T10:54:28Z</time>
      </trkpt>
      <trkpt lat="41.619325140" lon="2.551891710">
        <ele>209.60</ele>
        <time>2014-03-02T10:54:29Z</time>
      </trkpt>
      <trkpt lat="41.619315090" lon="2.551910150">
        <ele>210.00</ele>
        <time>2014-03-02T10:54:30Z</time>
      </trkpt>
      <trkpt lat="41.619303350" lon="2.551928420">
        <ele>210.20</ele>
        <time>2014-03-02T10:54:31Z</time>
      </trkpt>
      <trkpt lat="41.619296810" lon="2.551948370">
        <ele>210.60</ele>
        <time>2014-03-02T10:54:32Z</time>
      </trkpt>
      <trkpt lat="41.619290110" lon="2.551966810">
        <ele>210.80</ele>
        <time>2014-03-02T10:54:33Z</time>
      </trkpt>
      <trkpt lat="41.619281730" lon="2.551981730">
        <ele>210.90</ele>
        <time>2014-03-02T10:54:34Z</time>
      </trkpt>
      <trkpt lat="41.619273340" lon="2.551996810">
        <ele>211.00</ele>
        <time>2014-03-02T10:54:35Z</time>
      </trkpt>
      <trkpt lat="41.619268480" lon="2.552010060">
        <ele>211.10</ele>
        <time>2014-03-02T10:54:36Z</time>
      </trkpt>
      <trkpt lat="41.619261780" lon="2.552023470">
        <ele>211.10</ele>
        <time>2014-03-02T10:54:37Z</time>
      </trkpt>
      <trkpt lat="41.619256750" lon="2.552038390">
        <ele>211.10</ele>
        <time>2014-03-02T10:54:38Z</time>
      </trkpt>
      <trkpt lat="41.619246690" lon="2.552053480">
        <ele>211.30</ele>
        <time>2014-03-02T10:54:39Z</time>
      </trkpt>
      <trkpt lat="41.619245010" lon="2.552068400">
        <ele>211.50</ele>
        <time>2014-03-02T10:54:40Z</time>
      </trkpt>
      <trkpt lat="41.619243340" lon="2.552085160">
        <ele>211.60</ele>
        <time>2014-03-02T10:54:41Z</time>
      </trkpt>
      <trkpt lat="41.619236800" lon="2.552100080">
        <ele>211.70</ele>
        <time>2014-03-02T10:54:42Z</time>
      </trkpt>
      <trkpt lat="41.619235120" lon="2.552111810">
        <ele>211.80</ele>
        <time>2014-03-02T10:54:43Z</time>
      </trkpt>
      <trkpt lat="41.619228420" lon="2.552126730">
        <ele>211.90</ele>
        <time>2014-03-02T10:54:44Z</time>
      </trkpt>
      <trkpt lat="41.619220040" lon="2.552141820">
        <ele>211.90</ele>
        <time>2014-03-02T10:54:45Z</time>
      </trkpt>
      <trkpt lat="41.619208470" lon="2.552160090">
        <ele>212.30</ele>
        <time>2014-03-02T10:54:46Z</time>
      </trkpt>
      <trkpt lat="41.619200090" lon="2.552178370">
        <ele>212.60</ele>
        <time>2014-03-02T10:54:47Z</time>
      </trkpt>
      <trkpt lat="41.619190030" lon="2.552198480">
        <ele>212.70</ele>
        <time>2014-03-02T10:54:48Z</time>
      </trkpt>
      <trkpt lat="41.619181810" lon="2.552218430">
        <ele>212.80</ele>
        <time>2014-03-02T10:54:49Z</time>
      </trkpt>
      <trkpt lat="41.619173430" lon="2.552238380">
        <ele>212.90</ele>
        <time>2014-03-02T10:54:50Z</time>
      </trkpt>
      <trkpt lat="41.619165050" lon="2.552256820">
        <ele>212.90</ele>
        <time>2014-03-02T10:54:51Z</time>
      </trkpt>
      <trkpt lat="41.619160020" lon="2.552275090">
        <ele>212.90</ele>
        <time>2014-03-02T10:54:52Z</time>
      </trkpt>
      <trkpt lat="41.619153480" lon="2.552296720">
        <ele>213.00</ele>
        <time>2014-03-02T10:54:53Z</time>
      </trkpt>
      <trkpt lat="41.619146780" lon="2.552316670">
        <ele>213.00</ele>
        <time>2014-03-02T10:54:54Z</time>
      </trkpt>
      <trkpt lat="41.619141750" lon="2.552338460">
        <ele>213.10</ele>
        <time>2014-03-02T10:54:55Z</time>
      </trkpt>
      <trkpt lat="41.619133370" lon="2.552358410">
        <ele>213.20</ele>
        <time>2014-03-02T10:54:56Z</time>
      </trkpt>
      <trkpt lat="41.619123480" lon="2.552376680">
        <ele>213.30</ele>
        <time>2014-03-02T10:54:57Z</time>
      </trkpt>
      <trkpt lat="41.619116770" lon="2.552395120">
        <ele>213.70</ele>
        <time>2014-03-02T10:54:58Z</time>
      </trkpt>
      <trkpt lat="41.619110070" lon="2.552413400">
        <ele>213.90</ele>
        <time>2014-03-02T10:54:59Z</time>
      </trkpt>
      <trkpt lat="41.619103360" lon="2.552431670">
        <ele>214.40</ele>
        <time>2014-03-02T10:55:00Z</time>
      </trkpt>
      <trkpt lat="41.619096820" lon="2.552451780">
        <ele>214.80</ele>
        <time>2014-03-02T10:55:01Z</time>
      </trkpt>
      <trkpt lat="41.619095150" lon="2.552470060">
        <ele>215.10</ele>
        <time>2014-03-02T10:55:02Z</time>
      </trkpt>
      <trkpt lat="41.619093470" lon="2.552491680">
        <ele>215.00</ele>
        <time>2014-03-02T10:55:03Z</time>
      </trkpt>
      <trkpt lat="41.619091790" lon="2.552511800">
        <ele>214.90</ele>
        <time>2014-03-02T10:55:04Z</time>
      </trkpt>
      <trkpt lat="41.619090120" lon="2.552533420">
        <ele>215.10</ele>
        <time>2014-03-02T10:55:05Z</time>
      </trkpt>
      <trkpt lat="41.619088440" lon="2.552553370">
        <ele>215.30</ele>
        <time>2014-03-02T10:55:06Z</time>
      </trkpt>
      <trkpt lat="41.619086760" lon="2.552570140">
        <ele>214.80</ele>
        <time>2014-03-02T10:55:07Z</time>
      </trkpt>
      <trkpt lat="41.619086760" lon="2.552588410">
        <ele>214.50</ele>
        <time>2014-03-02T10:55:08Z</time>
      </trkpt>
      <trkpt lat="41.619090120" lon="2.552606680">
        <ele>214.30</ele>
        <time>2014-03-02T10:55:09Z</time>
      </trkpt>
      <trkpt lat="41.619090120" lon="2.552623450">
        <ele>214.60</ele>
        <time>2014-03-02T10:55:10Z</time>
      </trkpt>
      <trkpt lat="41.619095150" lon="2.552641720">
        <ele>214.80</ele>
        <time>2014-03-02T10:55:11Z</time>
      </trkpt>
      <trkpt lat="41.619100010" lon="2.552661670">
        <ele>215.30</ele>
        <time>2014-03-02T10:55:12Z</time>
      </trkpt>
      <trkpt lat="41.619105040" lon="2.552680110">
        <ele>215.60</ele>
        <time>2014-03-02T10:55:13Z</time>
      </trkpt>
      <trkpt lat="41.619110070" lon="2.552700060">
        <ele>216.00</ele>
        <time>2014-03-02T10:55:14Z</time>
      </trkpt>
      <trkpt lat="41.619113420" lon="2.552718330">
        <ele>216.40</ele>
        <time>2014-03-02T10:55:15Z</time>
      </trkpt>
      <trkpt lat="41.619115090" lon="2.552740120">
        <ele>216.70</ele>
        <time>2014-03-02T10:55:16Z</time>
      </trkpt>
      <trkpt lat="41.619116770" lon="2.552761750">
        <ele>216.90</ele>
        <time>2014-03-02T10:55:17Z</time>
      </trkpt>
      <trkpt lat="41.619116770" lon="2.552785050">
        <ele>217.10</ele>
        <time>2014-03-02T10:55:18Z</time>
      </trkpt>
      <trkpt lat="41.619115090" lon="2.552808350">
        <ele>217.20</ele>
        <time>2014-03-02T10:55:19Z</time>
      </trkpt>
      <trkpt lat="41.619108390" lon="2.552831820">
        <ele>217.30</ele>
        <time>2014-03-02T10:55:20Z</time>
      </trkpt>
      <trkpt lat="41.619098330" lon="2.552853450">
        <ele>217.40</ele>
        <time>2014-03-02T10:55:21Z</time>
      </trkpt>
      <trkpt lat="41.619085090" lon="2.552871720">
        <ele>217.10</ele>
        <time>2014-03-02T10:55:22Z</time>
      </trkpt>
      <trkpt lat="41.619070000" lon="2.552886810">
        <ele>216.90</ele>
        <time>2014-03-02T10:55:23Z</time>
      </trkpt>
      <trkpt lat="41.619055080" lon="2.552898370">
        <ele>217.30</ele>
        <time>2014-03-02T10:55:24Z</time>
      </trkpt>
      <trkpt lat="41.619040160" lon="2.552903400">
        <ele>217.60</ele>
        <time>2014-03-02T10:55:25Z</time>
      </trkpt>
      <trkpt lat="41.619021720" lon="2.552906750">
        <ele>217.50</ele>
        <time>2014-03-02T10:55:26Z</time>
      </trkpt>
      <trkpt lat="41.619005120" lon="2.552910110">
        <ele>217.30</ele>
        <time>2014-03-02T10:55:27Z</time>
      </trkpt>
      <trkpt lat="41.618988360" lon="2.552915140">
        <ele>217.30</ele>
        <time>2014-03-02T10:55:28Z</time>
      </trkpt>
      <trkpt lat="41.618971760" lon="2.552918490">
        <ele>217.20</ele>
        <time>2014-03-02T10:55:29Z</time>
      </trkpt>
      <trkpt lat="41.618955000" lon="2.552918490">
        <ele>217.20</ele>
        <time>2014-03-02T10:55:30Z</time>
      </trkpt>
      <trkpt lat="41.618936730" lon="2.552920000">
        <ele>217.40</ele>
        <time>2014-03-02T10:55:31Z</time>
      </trkpt>
      <trkpt lat="41.618918450" lon="2.552921670">
        <ele>217.40</ele>
        <time>2014-03-02T10:55:32Z</time>
      </trkpt>
      <trkpt lat="41.618898340" lon="2.552921670">
        <ele>217.40</ele>
        <time>2014-03-02T10:55:33Z</time>
      </trkpt>
      <trkpt lat="41.618878390" lon="2.552923350">
        <ele>217.40</ele>
        <time>2014-03-02T10:55:34Z</time>
      </trkpt>
      <trkpt lat="41.618860120" lon="2.552923350">
        <ele>217.30</ele>
        <time>2014-03-02T10:55:35Z</time>
      </trkpt>
      <trkpt lat="41.618841680" lon="2.552925030">
        <ele>217.50</ele>
        <time>2014-03-02T10:55:36Z</time>
      </trkpt>
      <trkpt lat="41.618823400" lon="2.552921670">
        <ele>217.70</ele>
        <time>2014-03-02T10:55:37Z</time>
      </trkpt>
      <trkpt lat="41.618803460" lon="2.552921670">
        <ele>217.40</ele>
        <time>2014-03-02T10:55:38Z</time>
      </trkpt>
      <trkpt lat="41.618781660" lon="2.552920000">
        <ele>217.10</ele>
        <time>2014-03-02T10:55:39Z</time>
      </trkpt>
      <trkpt lat="41.618756680" lon="2.552918490">
        <ele>217.00</ele>
        <time>2014-03-02T10:55:40Z</time>
      </trkpt>
      <trkpt lat="41.618731710" lon="2.552911780">
        <ele>217.20</ele>
        <time>2014-03-02T10:55:41Z</time>
      </trkpt>
      <trkpt lat="41.618703380" lon="2.552903400">
        <ele>217.40</ele>
        <time>2014-03-02T10:55:42Z</time>
      </trkpt>
      <trkpt lat="41.618673370" lon="2.552890160">
        <ele>217.70</ele>
        <time>2014-03-02T10:55:43Z</time>
      </trkpt>
      <trkpt lat="41.618641680" lon="2.552873390">
        <ele>217.90</ele>
        <time>2014-03-02T10:55:44Z</time>
      </trkpt>
      <trkpt lat="41.618605140" lon="2.552858470">
        <ele>218.10</ele>
        <time>2014-03-02T10:55:45Z</time>
      </trkpt>
      <trkpt lat="41.618566750" lon="2.552845060">
        <ele>218.20</ele>
        <time>2014-03-02T10:55:46Z</time>
      </trkpt>
      <trkpt lat="41.618526680" lon="2.552833330">
        <ele>218.30</ele>
        <time>2014-03-02T10:55:47Z</time>
      </trkpt>
      <trkpt lat="41.618486790" lon="2.552821760">
        <ele>218.00</ele>
        <time>2014-03-02T10:55:48Z</time>
      </trkpt>
      <trkpt lat="41.618445040" lon="2.552815060">
        <ele>217.80</ele>
        <time>2014-03-02T10:55:49Z</time>
      </trkpt>
      <trkpt lat="41.618406820" lon="2.552811700">
        <ele>217.70</ele>
        <time>2014-03-02T10:55:50Z</time>
      </trkpt>
      <trkpt lat="41.618370110" lon="2.552810030">
        <ele>217.60</ele>
        <time>2014-03-02T10:55:51Z</time>
      </trkpt>
      <trkpt lat="41.618340100" lon="2.552810030">
        <ele>217.60</ele>
        <time>2014-03-02T10:55:52Z</time>
      </trkpt>
      <trkpt lat="41.618311770" lon="2.552810030">
        <ele>217.70</ele>
        <time>2014-03-02T10:55:53Z</time>
      </trkpt>
      <trkpt lat="41.618288470" lon="2.552808350">
        <ele>217.80</ele>
        <time>2014-03-02T10:55:54Z</time>
      </trkpt>
      <trkpt lat="41.618265000" lon="2.552806670">
        <ele>217.70</ele>
        <time>2014-03-02T10:55:55Z</time>
      </trkpt>
      <trkpt lat="41.618241700" lon="2.552806670">
        <ele>217.50</ele>
        <time>2014-03-02T10:55:56Z</time>
      </trkpt>
      <trkpt lat="41.618218400" lon="2.552805000">
        <ele>217.30</ele>
        <time>2014-03-02T10:55:57Z</time>
      </trkpt>
      <trkpt lat="41.618195100" lon="2.552801810">
        <ele>217.10</ele>
        <time>2014-03-02T10:55:58Z</time>
      </trkpt>
      <trkpt lat="41.618173470" lon="2.552798460">
        <ele>216.90</ele>
        <time>2014-03-02T10:55:59Z</time>
      </trkpt>
      <trkpt lat="41.618150000" lon="2.552793430">
        <ele>216.90</ele>
        <time>2014-03-02T10:56:00Z</time>
      </trkpt>
      <trkpt lat="41.618128380" lon="2.552788400">
        <ele>216.90</ele>
        <time>2014-03-02T10:56:01Z</time>
      </trkpt>
      <trkpt lat="41.618110100" lon="2.552780020">
        <ele>216.70</ele>
        <time>2014-03-02T10:56:02Z</time>
      </trkpt>
      <trkpt lat="41.618090160" lon="2.552773480">
        <ele>216.60</ele>
        <time>2014-03-02T10:56:03Z</time>
      </trkpt>
      <trkpt lat="41.618070040" lon="2.552766780">
        <ele>216.90</ele>
        <time>2014-03-02T10:56:04Z</time>
      </trkpt>
      <trkpt lat="41.618050090" lon="2.552760070">
        <ele>217.00</ele>
        <time>2014-03-02T10:56:05Z</time>
      </trkpt>
      <trkpt lat="41.618030140" lon="2.552755040">
        <ele>217.20</ele>
        <time>2014-03-02T10:56:06Z</time>
      </trkpt>
      <trkpt lat="41.618011700" lon="2.552750010">
        <ele>217.50</ele>
        <time>2014-03-02T10:56:07Z</time>
      </trkpt>
      <trkpt lat="41.617991750" lon="2.552745150">
        <ele>217.80</ele>
        <time>2014-03-02T10:56:08Z</time>
      </trkpt>
      <trkpt lat="41.617973480" lon="2.552740120">
        <ele>218.10</ele>
        <time>2014-03-02T10:56:09Z</time>
      </trkpt>
      <trkpt lat="41.617953360" lon="2.552738450">
        <ele>218.30</ele>
        <time>2014-03-02T10:56:10Z</time>
      </trkpt>
      <trkpt lat="41.617936770" lon="2.552733420">
        <ele>218.50</ele>
        <time>2014-03-02T10:56:11Z</time>
      </trkpt>
      <trkpt lat="41.617920000" lon="2.552730060">
        <ele>218.60</ele>
        <time>2014-03-02T10:56:12Z</time>
      </trkpt>
      <trkpt lat="41.617901730" lon="2.552726710">
        <ele>218.70</ele>
        <time>2014-03-02T10:56:13Z</time>
      </trkpt>
      <trkpt lat="41.617885130" lon="2.552723360">
        <ele>218.60</ele>
        <time>2014-03-02T10:56:14Z</time>
      </trkpt>
      <trkpt lat="41.617865020" lon="2.552718330">
        <ele>218.60</ele>
        <time>2014-03-02T10:56:15Z</time>
      </trkpt>
      <trkpt lat="41.617846740" lon="2.552716820">
        <ele>219.30</ele>
        <time>2014-03-02T10:56:16Z</time>
      </trkpt>
      <trkpt lat="41.617830150" lon="2.552715140">
        <ele>219.90</ele>
        <time>2014-03-02T10:56:17Z</time>
      </trkpt>
      <trkpt lat="41.617813380" lon="2.552711790">
        <ele>220.30</ele>
        <time>2014-03-02T10:56:18Z</time>
      </trkpt>
      <trkpt lat="41.617795110" lon="2.552711790">
        <ele>220.10</ele>
        <time>2014-03-02T10:56:19Z</time>
      </trkpt>
      <trkpt lat="41.617778350" lon="2.552710110">
        <ele>220.00</ele>
        <time>2014-03-02T10:56:20Z</time>
      </trkpt>
      <trkpt lat="41.617758400" lon="2.552711790">
        <ele>220.30</ele>
        <time>2014-03-02T10:56:21Z</time>
      </trkpt>
      <trkpt lat="41.617735100" lon="2.552715140">
        <ele>220.60</ele>
        <time>2014-03-02T10:56:22Z</time>
      </trkpt>
      <trkpt lat="41.617711800" lon="2.552723360">
        <ele>221.20</ele>
        <time>2014-03-02T10:56:23Z</time>
      </trkpt>
      <trkpt lat="41.617690000" lon="2.552735090">
        <ele>221.70</ele>
        <time>2014-03-02T10:56:24Z</time>
      </trkpt>
      <trkpt lat="41.617670050" lon="2.552750010">
        <ele>222.10</ele>
        <time>2014-03-02T10:56:25Z</time>
      </trkpt>
      <trkpt lat="41.617653460" lon="2.552770130">
        <ele>222.20</ele>
        <time>2014-03-02T10:56:26Z</time>
      </trkpt>
      <trkpt lat="41.617641720" lon="2.552790080">
        <ele>222.20</ele>
        <time>2014-03-02T10:56:27Z</time>
      </trkpt>
      <trkpt lat="41.617636690" lon="2.552811700">
        <ele>222.50</ele>
        <time>2014-03-02T10:56:28Z</time>
      </trkpt>
      <trkpt lat="41.617636690" lon="2.552838360">
        <ele>222.70</ele>
        <time>2014-03-02T10:56:29Z</time>
      </trkpt>
      <trkpt lat="41.617641720" lon="2.552865010">
        <ele>222.60</ele>
        <time>2014-03-02T10:56:30Z</time>
      </trkpt>
      <trkpt lat="41.617646750" lon="2.552891670">
        <ele>222.60</ele>
        <time>2014-03-02T10:56:31Z</time>
      </trkpt>
      <trkpt lat="41.617651780" lon="2.552915140">
        <ele>222.60</ele>
        <time>2014-03-02T10:56:32Z</time>
      </trkpt>
      <trkpt lat="41.617660000" lon="2.552936760">
        <ele>222.70</ele>
        <time>2014-03-02T10:56:33Z</time>
      </trkpt>
      <trkpt lat="41.617666700" lon="2.552960060">
        <ele>222.80</ele>
        <time>2014-03-02T10:56:34Z</time>
      </trkpt>
      <trkpt lat="41.617673410" lon="2.552981690">
        <ele>223.10</ele>
        <time>2014-03-02T10:56:35Z</time>
      </trkpt>
      <trkpt lat="41.617670050" lon="2.553001800">
        <ele>223.40</ele>
        <time>2014-03-02T10:56:36Z</time>
      </trkpt>
      <trkpt lat="41.617673410" lon="2.553023430">
        <ele>223.50</ele>
        <time>2014-03-02T10:56:37Z</time>
      </trkpt>
      <trkpt lat="41.617676760" lon="2.553045060">
        <ele>223.70</ele>
        <time>2014-03-02T10:56:38Z</time>
      </trkpt>
      <trkpt lat="41.617678440" lon="2.553065000">
        <ele>223.80</ele>
        <time>2014-03-02T10:56:39Z</time>
      </trkpt>
      <trkpt lat="41.617680110" lon="2.553085120">
        <ele>224.20</ele>
        <time>2014-03-02T10:56:40Z</time>
      </trkpt>
      <trkpt lat="41.617681790" lon="2.553103390">
        <ele>224.50</ele>
        <time>2014-03-02T10:56:41Z</time>
      </trkpt>
      <trkpt lat="41.617686820" lon="2.553121670">
        <ele>224.60</ele>
        <time>2014-03-02T10:56:42Z</time>
      </trkpt>
      <trkpt lat="41.617691680" lon="2.553140110">
        <ele>224.60</ele>
        <time>2014-03-02T10:56:43Z</time>
      </trkpt>
      <trkpt lat="41.617696710" lon="2.553158380">
        <ele>224.70</ele>
        <time>2014-03-02T10:56:44Z</time>
      </trkpt>
      <trkpt lat="41.617700060" lon="2.553180000">
        <ele>225.10</ele>
        <time>2014-03-02T10:56:45Z</time>
      </trkpt>
      <trkpt lat="41.617703410" lon="2.553200120">
        <ele>225.40</ele>
        <time>2014-03-02T10:56:46Z</time>
      </trkpt>
      <trkpt lat="41.617705090" lon="2.553220070">
        <ele>225.40</ele>
        <time>2014-03-02T10:56:47Z</time>
      </trkpt>
      <trkpt lat="41.617706770" lon="2.553238340">
        <ele>225.40</ele>
        <time>2014-03-02T10:56:48Z</time>
      </trkpt>
      <trkpt lat="41.617706770" lon="2.553258460">
        <ele>226.00</ele>
        <time>2014-03-02T10:56:49Z</time>
      </trkpt>
      <trkpt lat="41.617703410" lon="2.553275050">
        <ele>226.40</ele>
        <time>2014-03-02T10:56:50Z</time>
      </trkpt>
      <trkpt lat="41.617695030" lon="2.553291820">
        <ele>226.80</ele>
        <time>2014-03-02T10:56:51Z</time>
      </trkpt>
      <trkpt lat="41.617681790" lon="2.553305060">
        <ele>226.80</ele>
        <time>2014-03-02T10:56:52Z</time>
      </trkpt>
      <trkpt lat="41.617666700" lon="2.553315120">
        <ele>226.80</ele>
        <time>2014-03-02T10:56:53Z</time>
      </trkpt>
      <trkpt lat="41.617648430" lon="2.553320150">
        <ele>227.00</ele>
        <time>2014-03-02T10:56:54Z</time>
      </trkpt>
      <trkpt lat="41.617631670" lon="2.553321830">
        <ele>227.20</ele>
        <time>2014-03-02T10:56:55Z</time>
      </trkpt>
      <trkpt lat="41.617613390" lon="2.553318470">
        <ele>227.40</ele>
        <time>2014-03-02T10:56:56Z</time>
      </trkpt>
      <trkpt lat="41.617600150" lon="2.553310090">
        <ele>227.60</ele>
        <time>2014-03-02T10:56:57Z</time>
      </trkpt>
      <trkpt lat="41.617586740" lon="2.553298360">
        <ele>227.70</ele>
        <time>2014-03-02T10:56:58Z</time>
      </trkpt>
      <trkpt lat="41.617575000" lon="2.553285110">
        <ele>228.00</ele>
        <time>2014-03-02T10:56:59Z</time>
      </trkpt>
      <trkpt lat="41.617560080" lon="2.553271700">
        <ele>228.20</ele>
        <time>2014-03-02T10:57:00Z</time>
      </trkpt>
      <trkpt lat="41.617545000" lon="2.553258460">
        <ele>228.70</ele>
        <time>2014-03-02T10:57:01Z</time>
      </trkpt>
      <trkpt lat="41.617531750" lon="2.553246720">
        <ele>229.10</ele>
        <time>2014-03-02T10:57:02Z</time>
      </trkpt>
      <trkpt lat="41.617518340" lon="2.553233480">
        <ele>229.40</ele>
        <time>2014-03-02T10:57:03Z</time>
      </trkpt>
      <trkpt lat="41.617505100" lon="2.553220070">
        <ele>229.50</ele>
        <time>2014-03-02T10:57:04Z</time>
      </trkpt>
      <trkpt lat="41.617493360" lon="2.553205150">
        <ele>229.60</ele>
        <time>2014-03-02T10:57:05Z</time>
      </trkpt>
      <trkpt lat="41.617483470" lon="2.553190060">
        <ele>229.80</ele>
        <time>2014-03-02T10:57:06Z</time>
      </trkpt>
      <trkpt lat="41.617470060" lon="2.553176820">
        <ele>230.00</ele>
        <time>2014-03-02T10:57:07Z</time>
      </trkpt>
      <trkpt lat="41.617458490" lon="2.553163410">
        <ele>230.00</ele>
        <time>2014-03-02T10:57:08Z</time>
      </trkpt>
      <trkpt lat="41.617445080" lon="2.553151670">
        <ele>229.90</ele>
        <time>2014-03-02T10:57:09Z</time>
      </trkpt>
      <trkpt lat="41.617435030" lon="2.553138430">
        <ele>229.90</ele>
        <time>2014-03-02T10:57:10Z</time>
      </trkpt>
      <trkpt lat="41.617423460" lon="2.553125020">
        <ele>229.90</ele>
        <time>2014-03-02T10:57:11Z</time>
      </trkpt>
      <trkpt lat="41.617413400" lon="2.553113450">
        <ele>229.80</ele>
        <time>2014-03-02T10:57:12Z</time>
      </trkpt>
      <trkpt lat="41.617401670" lon="2.553105070">
        <ele>230.10</ele>
        <time>2014-03-02T10:57:13Z</time>
      </trkpt>
      <trkpt lat="41.617390100" lon="2.553095010">
        <ele>230.30</ele>
        <time>2014-03-02T10:57:14Z</time>
      </trkpt>
      <trkpt lat="41.617378360" lon="2.553085120">
        <ele>230.40</ele>
        <time>2014-03-02T10:57:15Z</time>
      </trkpt>
      <trkpt lat="41.617365120" lon="2.553073390">
        <ele>230.90</ele>
        <time>2014-03-02T10:57:16Z</time>
      </trkpt>
      <trkpt lat="41.617350030" lon="2.553061820">
        <ele>231.20</ele>
        <time>2014-03-02T10:57:17Z</time>
      </trkpt>
      <trkpt lat="41.617336790" lon="2.553050080">
        <ele>231.10</ele>
        <time>2014-03-02T10:57:18Z</time>
      </trkpt>
      <trkpt lat="41.617321700" lon="2.553038350">
        <ele>231.00</ele>
        <time>2014-03-02T10:57:19Z</time>
      </trkpt>
      <trkpt lat="41.617306780" lon="2.553025110">
        <ele>231.30</ele>
        <time>2014-03-02T10:57:20Z</time>
      </trkpt>
      <trkpt lat="41.617293370" lon="2.553010020">
        <ele>231.60</ele>
        <time>2014-03-02T10:57:21Z</time>
      </trkpt>
      <trkpt lat="41.617281800" lon="2.552996780">
        <ele>231.70</ele>
        <time>2014-03-02T10:57:22Z</time>
      </trkpt>
      <trkpt lat="41.617270070" lon="2.552981690">
        <ele>231.90</ele>
        <time>2014-03-02T10:57:23Z</time>
      </trkpt>
      <trkpt lat="41.617258340" lon="2.552970120">
        <ele>232.10</ele>
        <time>2014-03-02T10:57:24Z</time>
      </trkpt>
      <trkpt lat="41.617246770" lon="2.552958390">
        <ele>232.20</ele>
        <time>2014-03-02T10:57:25Z</time>
      </trkpt>
      <trkpt lat="41.617236710" lon="2.552946820">
        <ele>232.30</ele>
        <time>2014-03-02T10:57:26Z</time>
      </trkpt>
      <trkpt lat="41.617225140" lon="2.552935080">
        <ele>232.60</ele>
        <time>2014-03-02T10:57:27Z</time>
      </trkpt>
      <trkpt lat="41.617213410" lon="2.552923350">
        <ele>232.80</ele>
        <time>2014-03-02T10:57:28Z</time>
      </trkpt>
      <trkpt lat="41.617201670" lon="2.552911780">
        <ele>232.90</ele>
        <time>2014-03-02T10:57:29Z</time>
      </trkpt>
      <trkpt lat="41.617191780" lon="2.552898370">
        <ele>233.10</ele>
        <time>2014-03-02T10:57:30Z</time>
      </trkpt>
      <trkpt lat="41.617181720" lon="2.552886810">
        <ele>233.30</ele>
        <time>2014-03-02T10:57:31Z</time>
      </trkpt>
      <trkpt lat="41.617171670" lon="2.552873390">
        <ele>234.00</ele>
        <time>2014-03-02T10:57:32Z</time>
      </trkpt>
      <trkpt lat="41.617163450" lon="2.552861830">
        <ele>234.60</ele>
        <time>2014-03-02T10:57:33Z</time>
      </trkpt>
      <trkpt lat="41.617153390" lon="2.552851770">
        <ele>235.00</ele>
        <time>2014-03-02T10:57:34Z</time>
      </trkpt>
      <trkpt lat="41.617140150" lon="2.552845060">
        <ele>235.40</ele>
        <time>2014-03-02T10:57:35Z</time>
      </trkpt>
      <trkpt lat="41.617126740" lon="2.552843390">
        <ele>235.70</ele>
        <time>2014-03-02T10:57:36Z</time>
      </trkpt>
      <trkpt lat="41.617111820" lon="2.552843390">
        <ele>236.10</ele>
        <time>2014-03-02T10:57:37Z</time>
      </trkpt>
      <trkpt lat="41.617096730" lon="2.552845060">
        <ele>236.40</ele>
        <time>2014-03-02T10:57:38Z</time>
      </trkpt>
      <trkpt lat="41.617081810" lon="2.552848420">
        <ele>236.60</ele>
        <time>2014-03-02T10:57:39Z</time>
      </trkpt>
      <trkpt lat="41.617065050" lon="2.552853450">
        <ele>236.70</ele>
        <time>2014-03-02T10:57:40Z</time>
      </trkpt>
      <trkpt lat="41.617048450" lon="2.552860150">
        <ele>236.80</ele>
        <time>2014-03-02T10:57:41Z</time>
      </trkpt>
      <trkpt lat="41.617033360" lon="2.552873390">
        <ele>237.20</ele>
        <time>2014-03-02T10:57:42Z</time>
      </trkpt>
      <trkpt lat="41.617020120" lon="2.552888480">
        <ele>237.50</ele>
        <time>2014-03-02T10:57:43Z</time>
      </trkpt>
      <trkpt lat="41.617006710" lon="2.552905080">
        <ele>237.80</ele>
        <time>2014-03-02T10:57:44Z</time>
      </trkpt>
      <trkpt lat="41.616995140" lon="2.552925030">
        <ele>238.00</ele>
        <time>2014-03-02T10:57:45Z</time>
      </trkpt>
      <trkpt lat="41.616983410" lon="2.552945140">
        <ele>238.00</ele>
        <time>2014-03-02T10:57:46Z</time>
      </trkpt>
      <trkpt lat="41.616973350" lon="2.552965090">
        <ele>238.00</ele>
        <time>2014-03-02T10:57:47Z</time>
      </trkpt>
      <trkpt lat="41.616942000" lon="2.553041030">
        <ele>238.00</ele>
        <time>2014-03-02T10:57:50Z</time>
      </trkpt>
      <trkpt lat="41.616925070" lon="2.553080090">
        <ele>238.30</ele>
        <time>2014-03-02T10:57:52Z</time>
      </trkpt>
      <trkpt lat="41.616906800" lon="2.553118480">
        <ele>238.20</ele>
        <time>2014-03-02T10:57:53Z</time>
      </trkpt>
      <trkpt lat="41.616885010" lon="2.553168440">
        <ele>238.10</ele>
        <time>2014-03-02T10:57:54Z</time>
      </trkpt>
      <trkpt lat="41.616855000" lon="2.553220070">
        <ele>238.10</ele>
        <time>2014-03-02T10:57:55Z</time>
      </trkpt>
      <trkpt lat="41.616813420" lon="2.553266670">
        <ele>238.10</ele>
        <time>2014-03-02T10:57:56Z</time>
      </trkpt>
      <trkpt lat="41.616766820" lon="2.553306740">
        <ele>238.10</ele>
        <time>2014-03-02T10:57:57Z</time>
      </trkpt>
      <trkpt lat="41.616711670" lon="2.553331720">
        <ele>237.80</ele>
        <time>2014-03-02T10:57:58Z</time>
      </trkpt>
      <trkpt lat="41.616655010" lon="2.553345130">
        <ele>237.60</ele>
        <time>2014-03-02T10:57:59Z</time>
      </trkpt>
      <trkpt lat="41.616595160" lon="2.553348480">
        <ele>237.40</ele>
        <time>2014-03-02T10:58:00Z</time>
      </trkpt>
      <trkpt lat="41.616535140" lon="2.553341770">
        <ele>236.50</ele>
        <time>2014-03-02T10:58:01Z</time>
      </trkpt>
      <trkpt lat="41.616478480" lon="2.553336750">
        <ele>235.90</ele>
        <time>2014-03-02T10:58:02Z</time>
      </trkpt>
      <trkpt lat="41.616423330" lon="2.553345130">
        <ele>235.30</ele>
        <time>2014-03-02T10:58:03Z</time>
      </trkpt>
      <trkpt lat="41.616346720" lon="2.553495000">
        <ele>235.10</ele>
        <time>2014-03-02T10:58:07Z</time>
      </trkpt>
      <trkpt lat="41.616360130" lon="2.553531710">
        <ele>235.00</ele>
        <time>2014-03-02T10:58:08Z</time>
      </trkpt>
      <trkpt lat="41.616371700" lon="2.553575130">
        <ele>234.90</ele>
        <time>2014-03-02T10:58:09Z</time>
      </trkpt>
      <trkpt lat="41.616385110" lon="2.553626760">
        <ele>235.00</ele>
        <time>2014-03-02T10:58:10Z</time>
      </trkpt>
      <trkpt lat="41.616398350" lon="2.553685100">
        <ele>235.00</ele>
        <time>2014-03-02T10:58:11Z</time>
      </trkpt>
      <trkpt lat="41.616410090" lon="2.553753490">
        <ele>235.10</ele>
        <time>2014-03-02T10:58:12Z</time>
      </trkpt>
      <trkpt lat="41.616415120" lon="2.553825080">
        <ele>234.80</ele>
        <time>2014-03-02T10:58:13Z</time>
      </trkpt>
      <trkpt lat="41.616418470" lon="2.553898330">
        <ele>234.60</ele>
        <time>2014-03-02T10:58:14Z</time>
      </trkpt>
      <trkpt lat="41.616418470" lon="2.553971760">
        <ele>234.40</ele>
        <time>2014-03-02T10:58:15Z</time>
      </trkpt>
      <trkpt lat="41.616416790" lon="2.554038480">
        <ele>234.30</ele>
        <time>2014-03-02T10:58:16Z</time>
      </trkpt>
      <trkpt lat="41.616415120" lon="2.554100000">
        <ele>234.20</ele>
        <time>2014-03-02T10:58:17Z</time>
      </trkpt>
      <trkpt lat="41.616413440" lon="2.554156660">
        <ele>234.10</ele>
        <time>2014-03-02T10:58:18Z</time>
      </trkpt>
      <trkpt lat="41.616413440" lon="2.554208460">
        <ele>234.00</ele>
        <time>2014-03-02T10:58:19Z</time>
      </trkpt>
      <trkpt lat="41.616411760" lon="2.554253390">
        <ele>234.70</ele>
        <time>2014-03-02T10:58:20Z</time>
      </trkpt>
      <trkpt lat="41.616411760" lon="2.554293460">
        <ele>235.10</ele>
        <time>2014-03-02T10:58:21Z</time>
      </trkpt>
      <trkpt lat="41.616411760" lon="2.554326820">
        <ele>235.50</ele>
        <time>2014-03-02T10:58:22Z</time>
      </trkpt>
      <trkpt lat="41.616413440" lon="2.554356820">
        <ele>235.80</ele>
        <time>2014-03-02T10:58:23Z</time>
      </trkpt>
      <trkpt lat="41.616415120" lon="2.554386660">
        <ele>235.90</ele>
        <time>2014-03-02T10:58:24Z</time>
      </trkpt>
      <trkpt lat="41.616413440" lon="2.554415160">
        <ele>235.90</ele>
        <time>2014-03-02T10:58:25Z</time>
      </trkpt>
      <trkpt lat="41.616415120" lon="2.554443490">
        <ele>236.00</ele>
        <time>2014-03-02T10:58:26Z</time>
      </trkpt>
      <trkpt lat="41.616415120" lon="2.554476680">
        <ele>236.20</ele>
        <time>2014-03-02T10:58:27Z</time>
      </trkpt>
      <trkpt lat="41.616411760" lon="2.554510040">
        <ele>236.40</ele>
        <time>2014-03-02T10:58:28Z</time>
      </trkpt>
      <trkpt lat="41.616401700" lon="2.554541730">
        <ele>236.50</ele>
        <time>2014-03-02T10:58:29Z</time>
      </trkpt>
      <trkpt lat="41.616388460" lon="2.554571740">
        <ele>236.70</ele>
        <time>2014-03-02T10:58:30Z</time>
      </trkpt>
      <trkpt lat="41.616378400" lon="2.554601740">
        <ele>236.80</ele>
        <time>2014-03-02T10:58:31Z</time>
      </trkpt>
      <trkpt lat="41.616365160" lon="2.554625040">
        <ele>236.80</ele>
        <time>2014-03-02T10:58:32Z</time>
      </trkpt>
      <trkpt lat="41.616348400" lon="2.554643480">
        <ele>236.90</ele>
        <time>2014-03-02T10:58:33Z</time>
      </trkpt>
      <trkpt lat="41.616336830" lon="2.554658400">
        <ele>236.70</ele>
        <time>2014-03-02T10:58:34Z</time>
      </trkpt>
      <trkpt lat="41.616321740" lon="2.554671820">
        <ele>236.60</ele>
        <time>2014-03-02T10:58:35Z</time>
      </trkpt>
      <trkpt lat="41.616306820" lon="2.554685060">
        <ele>236.50</ele>
        <time>2014-03-02T10:58:36Z</time>
      </trkpt>
      <trkpt lat="41.616293410" lon="2.554693440">
        <ele>236.30</ele>
        <time>2014-03-02T10:58:37Z</time>
      </trkpt>
      <trkpt lat="41.616281680" lon="2.554708360">
        <ele>236.20</ele>
        <time>2014-03-02T10:58:38Z</time>
      </trkpt>
      <trkpt lat="41.616263400" lon="2.554726800">
        <ele>236.50</ele>
        <time>2014-03-02T10:58:39Z</time>
      </trkpt>
      <trkpt lat="41.616243450" lon="2.554748430">
        <ele>236.80</ele>
        <time>2014-03-02T10:58:40Z</time>
      </trkpt>
      <trkpt lat="41.616220150" lon="2.554780110">
        <ele>236.90</ele>
        <time>2014-03-02T10:58:41Z</time>
      </trkpt>
      <trkpt lat="41.616195010" lon="2.554821680">
        <ele>237.00</ele>
        <time>2014-03-02T10:58:42Z</time>
      </trkpt>
      <trkpt lat="41.616166680" lon="2.554866780">
        <ele>237.10</ele>
        <time>2014-03-02T10:58:43Z</time>
      </trkpt>
      <trkpt lat="41.616138350" lon="2.554915060">
        <ele>237.10</ele>
        <time>2014-03-02T10:58:44Z</time>
      </trkpt>
      <trkpt lat="41.616110010" lon="2.554961830">
        <ele>237.10</ele>
        <time>2014-03-02T10:58:45Z</time>
      </trkpt>
      <trkpt lat="41.616080010" lon="2.555013460">
        <ele>237.10</ele>
        <time>2014-03-02T10:58:46Z</time>
      </trkpt>
      <trkpt lat="41.616046810" lon="2.555065090">
        <ele>237.00</ele>
        <time>2014-03-02T10:58:47Z</time>
      </trkpt>
      <trkpt lat="41.616013450" lon="2.555120080">
        <ele>236.60</ele>
        <time>2014-03-02T10:58:48Z</time>
      </trkpt>
      <trkpt lat="41.615978420" lon="2.555178420">
        <ele>236.30</ele>
        <time>2014-03-02T10:58:49Z</time>
      </trkpt>
      <trkpt lat="41.615943380" lon="2.555231730">
        <ele>236.00</ele>
        <time>2014-03-02T10:58:50Z</time>
      </trkpt>
      <trkpt lat="41.615905160" lon="2.555281680">
        <ele>235.60</ele>
        <time>2014-03-02T10:58:51Z</time>
      </trkpt>
      <trkpt lat="41.615863420" lon="2.555323420">
        <ele>235.30</ele>
        <time>2014-03-02T10:58:52Z</time>
      </trkpt>
      <trkpt lat="41.615816820" lon="2.555350080">
        <ele>234.70</ele>
        <time>2014-03-02T10:58:53Z</time>
      </trkpt>
      <trkpt lat="41.615771720" lon="2.555365000">
        <ele>234.40</ele>
        <time>2014-03-02T10:58:54Z</time>
      </trkpt>
      <trkpt lat="41.615731820" lon="2.555370030">
        <ele>234.20</ele>
        <time>2014-03-02T10:58:55Z</time>
      </trkpt>
      <trkpt lat="41.615698460" lon="2.555375060">
        <ele>234.10</ele>
        <time>2014-03-02T10:58:56Z</time>
      </trkpt>
      <trkpt lat="41.615670130" lon="2.555381760">
        <ele>234.00</ele>
        <time>2014-03-02T10:58:57Z</time>
      </trkpt>
      <trkpt lat="41.615641800" lon="2.555393330">
        <ele>233.60</ele>
        <time>2014-03-02T10:58:58Z</time>
      </trkpt>
      <trkpt lat="41.615618330" lon="2.555411770">
        <ele>233.20</ele>
        <time>2014-03-02T10:58:59Z</time>
      </trkpt>
      <trkpt lat="41.615598380" lon="2.555433390">
        <ele>233.20</ele>
        <time>2014-03-02T10:59:00Z</time>
      </trkpt>
      <trkpt lat="41.615585140" lon="2.555453340">
        <ele>233.20</ele>
        <time>2014-03-02T10:59:01Z</time>
      </trkpt>
      <trkpt lat="41.615575080" lon="2.555476810">
        <ele>233.30</ele>
        <time>2014-03-02T10:59:02Z</time>
      </trkpt>
      <trkpt lat="41.615570050" lon="2.555505140">
        <ele>233.30</ele>
        <time>2014-03-02T10:59:03Z</time>
      </trkpt>
      <trkpt lat="41.615565020" lon="2.555543370">
        <ele>233.40</ele>
        <time>2014-03-02T10:59:04Z</time>
      </trkpt>
      <trkpt lat="41.615560160" lon="2.555585110">
        <ele>233.40</ele>
        <time>2014-03-02T10:59:05Z</time>
      </trkpt>
      <trkpt lat="41.615560160" lon="2.555623330">
        <ele>233.50</ele>
        <time>2014-03-02T10:59:06Z</time>
      </trkpt>
      <trkpt lat="41.615563350" lon="2.555661720">
        <ele>233.60</ele>
        <time>2014-03-02T10:59:07Z</time>
      </trkpt>
      <trkpt lat="41.615565020" lon="2.555696750">
        <ele>233.80</ele>
        <time>2014-03-02T10:59:08Z</time>
      </trkpt>
      <trkpt lat="41.615566700" lon="2.555726760">
        <ele>233.70</ele>
        <time>2014-03-02T10:59:09Z</time>
      </trkpt>
      <trkpt lat="41.615568380" lon="2.555755090">
        <ele>233.60</ele>
        <time>2014-03-02T10:59:10Z</time>
      </trkpt>
      <trkpt lat="41.615570050" lon="2.555783420">
        <ele>233.50</ele>
        <time>2014-03-02T10:59:11Z</time>
      </trkpt>
      <trkpt lat="41.615571730" lon="2.555810080">
        <ele>233.20</ele>
        <time>2014-03-02T10:59:12Z</time>
      </trkpt>
      <trkpt lat="41.615571730" lon="2.555838410">
        <ele>233.00</ele>
        <time>2014-03-02T10:59:13Z</time>
      </trkpt>
      <trkpt lat="41.615573400" lon="2.555868420">
        <ele>233.00</ele>
        <time>2014-03-02T10:59:14Z</time>
      </trkpt>
      <trkpt lat="41.615575080" lon="2.555900100">
        <ele>233.10</ele>
        <time>2014-03-02T10:59:15Z</time>
      </trkpt>
      <trkpt lat="41.615573400" lon="2.555926750">
        <ele>233.10</ele>
        <time>2014-03-02T10:59:16Z</time>
      </trkpt>
      <trkpt lat="41.615568380" lon="2.555951730">
        <ele>233.20</ele>
        <time>2014-03-02T10:59:17Z</time>
      </trkpt>
      <trkpt lat="41.615565020" lon="2.555973360">
        <ele>233.30</ele>
        <time>2014-03-02T10:59:18Z</time>
      </trkpt>
      <trkpt lat="41.615560160" lon="2.555995150">
        <ele>233.50</ele>
        <time>2014-03-02T10:59:19Z</time>
      </trkpt>
      <trkpt lat="41.615556810" lon="2.556015100">
        <ele>233.70</ele>
        <time>2014-03-02T10:59:20Z</time>
      </trkpt>
      <trkpt lat="41.615550100" lon="2.556033370">
        <ele>234.40</ele>
        <time>2014-03-02T10:59:21Z</time>
      </trkpt>
      <trkpt lat="41.615541720" lon="2.556046780">
        <ele>234.90</ele>
        <time>2014-03-02T10:59:22Z</time>
      </trkpt>
      <trkpt lat="41.615533340" lon="2.556060030">
        <ele>235.30</ele>
        <time>2014-03-02T10:59:23Z</time>
      </trkpt>
      <trkpt lat="41.615523450" lon="2.556076790">
        <ele>235.20</ele>
        <time>2014-03-02T10:59:24Z</time>
      </trkpt>
      <trkpt lat="41.615516740" lon="2.556090030">
        <ele>235.10</ele>
        <time>2014-03-02T10:59:25Z</time>
      </trkpt>
      <trkpt lat="41.615506680" lon="2.556100090">
        <ele>235.40</ele>
        <time>2014-03-02T10:59:26Z</time>
      </trkpt>
      <trkpt lat="41.615498470" lon="2.556108470">
        <ele>235.60</ele>
        <time>2014-03-02T10:59:27Z</time>
      </trkpt>
      <trkpt lat="41.615491770" lon="2.556120040">
        <ele>236.20</ele>
        <time>2014-03-02T10:59:28Z</time>
      </trkpt>
      <trkpt lat="41.615485060" lon="2.556130100">
        <ele>236.60</ele>
        <time>2014-03-02T10:59:29Z</time>
      </trkpt>
      <trkpt lat="41.615476680" lon="2.556141670">
        <ele>236.90</ele>
        <time>2014-03-02T10:59:30Z</time>
      </trkpt>
      <trkpt lat="41.615468460" lon="2.556150050">
        <ele>237.10</ele>
        <time>2014-03-02T10:59:31Z</time>
      </trkpt>
      <trkpt lat="41.615460080" lon="2.556155080">
        <ele>237.30</ele>
        <time>2014-03-02T10:59:32Z</time>
      </trkpt>
      <trkpt lat="41.615453380" lon="2.556163460">
        <ele>237.40</ele>
        <time>2014-03-02T10:59:33Z</time>
      </trkpt>
      <trkpt lat="41.615443490" lon="2.556170000">
        <ele>237.40</ele>
        <time>2014-03-02T10:59:34Z</time>
      </trkpt>
      <trkpt lat="41.615431750" lon="2.556180050">
        <ele>237.50</ele>
        <time>2014-03-02T10:59:35Z</time>
      </trkpt>
      <trkpt lat="41.615423370" lon="2.556190110">
        <ele>238.40</ele>
        <time>2014-03-02T10:59:36Z</time>
      </trkpt>
      <trkpt lat="41.615413480" lon="2.556200000">
        <ele>239.10</ele>
        <time>2014-03-02T10:59:37Z</time>
      </trkpt>
      <trkpt lat="41.615403420" lon="2.556210060">
        <ele>239.50</ele>
        <time>2014-03-02T10:59:38Z</time>
      </trkpt>
      <trkpt lat="41.615391690" lon="2.556220120">
        <ele>239.80</ele>
        <time>2014-03-02T10:59:39Z</time>
      </trkpt>
      <trkpt lat="41.615380120" lon="2.556228330">
        <ele>239.90</ele>
        <time>2014-03-02T10:59:40Z</time>
      </trkpt>
      <trkpt lat="41.615370060" lon="2.556238390">
        <ele>240.00</ele>
        <time>2014-03-02T10:59:41Z</time>
      </trkpt>
      <trkpt lat="41.615361680" lon="2.556246770">
        <ele>240.00</ele>
        <time>2014-03-02T10:59:42Z</time>
      </trkpt>
      <trkpt lat="41.615355140" lon="2.556253480">
        <ele>240.60</ele>
        <time>2014-03-02T10:59:43Z</time>
      </trkpt>
      <trkpt lat="41.615346760" lon="2.556263370">
        <ele>240.90</ele>
        <time>2014-03-02T10:59:44Z</time>
      </trkpt>
      <trkpt lat="41.615338380" lon="2.556275110">
        <ele>241.20</ele>
        <time>2014-03-02T10:59:45Z</time>
      </trkpt>
      <trkpt lat="41.615331670" lon="2.556288350">
        <ele>241.40</ele>
        <time>2014-03-02T10:59:46Z</time>
      </trkpt>
      <trkpt lat="41.615323460" lon="2.556301760">
        <ele>241.50</ele>
        <time>2014-03-02T10:59:47Z</time>
      </trkpt>
      <trkpt lat="41.615315070" lon="2.556313490">
        <ele>241.70</ele>
        <time>2014-03-02T10:59:48Z</time>
      </trkpt>
      <trkpt lat="41.615306690" lon="2.556325060">
        <ele>241.90</ele>
        <time>2014-03-02T10:59:49Z</time>
      </trkpt>
      <trkpt lat="41.615300150" lon="2.556338470">
        <ele>242.40</ele>
        <time>2014-03-02T10:59:50Z</time>
      </trkpt>
      <trkpt lat="41.615291770" lon="2.556351720">
        <ele>242.90</ele>
        <time>2014-03-02T10:59:51Z</time>
      </trkpt>
      <trkpt lat="41.615283390" lon="2.556368480">
        <ele>242.90</ele>
        <time>2014-03-02T10:59:52Z</time>
      </trkpt>
      <trkpt lat="41.615275010" lon="2.556383400">
        <ele>243.00</ele>
        <time>2014-03-02T10:59:53Z</time>
      </trkpt>
      <trkpt lat="41.615268470" lon="2.556400000">
        <ele>243.00</ele>
        <time>2014-03-02T10:59:54Z</time>
      </trkpt>
      <trkpt lat="41.615261770" lon="2.556416760">
        <ele>242.90</ele>
        <time>2014-03-02T10:59:55Z</time>
      </trkpt>
      <trkpt lat="41.615255060" lon="2.556431680">
        <ele>242.70</ele>
        <time>2014-03-02T10:59:56Z</time>
      </trkpt>
      <trkpt lat="41.615248350" lon="2.556446770">
        <ele>243.40</ele>
        <time>2014-03-02T10:59:57Z</time>
      </trkpt>
      <trkpt lat="41.615238460" lon="2.556460010">
        <ele>243.90</ele>
        <time>2014-03-02T10:59:58Z</time>
      </trkpt>
      <trkpt lat="41.615231760" lon="2.556473420">
        <ele>244.40</ele>
        <time>2014-03-02T10:59:59Z</time>
      </trkpt>
      <trkpt lat="41.615225050" lon="2.556486660">
        <ele>244.70</ele>
        <time>2014-03-02T11:00:00Z</time>
      </trkpt>
      <trkpt lat="41.615218350" lon="2.556501750">
        <ele>244.90</ele>
        <time>2014-03-02T11:00:01Z</time>
      </trkpt>
      <trkpt lat="41.615211810" lon="2.556516670">
        <ele>245.50</ele>
        <time>2014-03-02T11:00:02Z</time>
      </trkpt>
      <trkpt lat="41.615203430" lon="2.556533440">
        <ele>245.90</ele>
        <time>2014-03-02T11:00:03Z</time>
      </trkpt>
      <trkpt lat="41.615195050" lon="2.556546680">
        <ele>245.80</ele>
        <time>2014-03-02T11:00:04Z</time>
      </trkpt>
      <trkpt lat="41.615186660" lon="2.556563440">
        <ele>245.70</ele>
        <time>2014-03-02T11:00:05Z</time>
      </trkpt>
      <trkpt lat="41.615180130" lon="2.556578360">
        <ele>245.90</ele>
        <time>2014-03-02T11:00:06Z</time>
      </trkpt>
      <trkpt lat="41.615171740" lon="2.556593450">
        <ele>245.90</ele>
        <time>2014-03-02T11:00:07Z</time>
      </trkpt>
      <trkpt lat="41.615163360" lon="2.556610050">
        <ele>246.00</ele>
        <time>2014-03-02T11:00:08Z</time>
      </trkpt>
      <trkpt lat="41.615156820" lon="2.556626810">
        <ele>246.30</ele>
        <time>2014-03-02T11:00:09Z</time>
      </trkpt>
      <trkpt lat="41.615151800" lon="2.556641730">
        <ele>246.50</ele>
        <time>2014-03-02T11:00:10Z</time>
      </trkpt>
      <trkpt lat="41.615141740" lon="2.556656820">
        <ele>246.70</ele>
        <time>2014-03-02T11:00:11Z</time>
      </trkpt>
      <trkpt lat="41.615133360" lon="2.556673410">
        <ele>246.80</ele>
        <time>2014-03-02T11:00:12Z</time>
      </trkpt>
      <trkpt lat="41.615125140" lon="2.556685150">
        <ele>246.90</ele>
        <time>2014-03-02T11:00:13Z</time>
      </trkpt>
      <trkpt lat="41.615120110" lon="2.556700070">
        <ele>247.00</ele>
        <time>2014-03-02T11:00:14Z</time>
      </trkpt>
      <trkpt lat="41.615115080" lon="2.556715160">
        <ele>247.00</ele>
        <time>2014-03-02T11:00:15Z</time>
      </trkpt>
      <trkpt lat="41.615110050" lon="2.556731750">
        <ele>247.20</ele>
        <time>2014-03-02T11:00:16Z</time>
      </trkpt>
      <trkpt lat="41.615101670" lon="2.556750020">
        <ele>247.30</ele>
        <time>2014-03-02T11:00:17Z</time>
      </trkpt>
      <trkpt lat="41.615095130" lon="2.556768460">
        <ele>247.60</ele>
        <time>2014-03-02T11:00:18Z</time>
      </trkpt>
      <trkpt lat="41.615088430" lon="2.556785060">
        <ele>247.80</ele>
        <time>2014-03-02T11:00:19Z</time>
      </trkpt>
      <trkpt lat="41.615080050" lon="2.556801820">
        <ele>248.00</ele>
        <time>2014-03-02T11:00:20Z</time>
      </trkpt>
      <trkpt lat="41.615073340" lon="2.556818420">
        <ele>248.50</ele>
        <time>2014-03-02T11:00:21Z</time>
      </trkpt>
      <trkpt lat="41.615066800" lon="2.556833340">
        <ele>249.00</ele>
        <time>2014-03-02T11:00:22Z</time>
      </trkpt>
      <trkpt lat="41.615058420" lon="2.556850100">
        <ele>248.90</ele>
        <time>2014-03-02T11:00:23Z</time>
      </trkpt>
      <trkpt lat="41.615051720" lon="2.556865020">
        <ele>248.80</ele>
        <time>2014-03-02T11:00:24Z</time>
      </trkpt>
      <trkpt lat="41.615043330" lon="2.556881790">
        <ele>248.40</ele>
        <time>2014-03-02T11:00:25Z</time>
      </trkpt>
      <trkpt lat="41.615035120" lon="2.556896710">
        <ele>248.20</ele>
        <time>2014-03-02T11:00:26Z</time>
      </trkpt>
      <trkpt lat="41.615028410" lon="2.556913470">
        <ele>248.00</ele>
        <time>2014-03-02T11:00:27Z</time>
      </trkpt>
      <trkpt lat="41.615020030" lon="2.556930070">
        <ele>248.40</ele>
        <time>2014-03-02T11:00:28Z</time>
      </trkpt>
      <trkpt lat="41.615013490" lon="2.556946660">
        <ele>248.70</ele>
        <time>2014-03-02T11:00:29Z</time>
      </trkpt>
      <trkpt lat="41.615003440" lon="2.556963430">
        <ele>248.80</ele>
        <time>2014-03-02T11:00:30Z</time>
      </trkpt>
      <trkpt lat="41.614995050" lon="2.556978350">
        <ele>248.80</ele>
        <time>2014-03-02T11:00:31Z</time>
      </trkpt>
      <trkpt lat="41.614985000" lon="2.556993430">
        <ele>248.80</ele>
        <time>2014-03-02T11:00:32Z</time>
      </trkpt>
      <trkpt lat="41.614976780" lon="2.557008350">
        <ele>249.20</ele>
        <time>2014-03-02T11:00:33Z</time>
      </trkpt>
      <trkpt lat="41.614966720" lon="2.557025120">
        <ele>249.40</ele>
        <time>2014-03-02T11:00:34Z</time>
      </trkpt>
      <trkpt lat="41.614958340" lon="2.557040040">
        <ele>249.90</ele>
        <time>2014-03-02T11:00:35Z</time>
      </trkpt>
      <trkpt lat="41.614946770" lon="2.557055130">
        <ele>250.30</ele>
        <time>2014-03-02T11:00:36Z</time>
      </trkpt>
      <trkpt lat="41.614936720" lon="2.557071720">
        <ele>250.40</ele>
        <time>2014-03-02T11:00:37Z</time>
      </trkpt>
      <trkpt lat="41.614926820" lon="2.557085130">
        <ele>250.50</ele>
        <time>2014-03-02T11:00:38Z</time>
      </trkpt>
      <trkpt lat="41.614916770" lon="2.557100050">
        <ele>250.60</ele>
        <time>2014-03-02T11:00:39Z</time>
      </trkpt>
      <trkpt lat="41.614905030" lon="2.557113460">
        <ele>250.50</ele>
        <time>2014-03-02T11:00:40Z</time>
      </trkpt>
      <trkpt lat="41.614893460" lon="2.557126710">
        <ele>250.30</ele>
        <time>2014-03-02T11:00:41Z</time>
      </trkpt>
      <trkpt lat="41.614883410" lon="2.557140120">
        <ele>250.60</ele>
        <time>2014-03-02T11:00:42Z</time>
      </trkpt>
      <trkpt lat="41.614873350" lon="2.557153360">
        <ele>250.80</ele>
        <time>2014-03-02T11:00:43Z</time>
      </trkpt>
      <trkpt lat="41.614861780" lon="2.557165100">
        <ele>251.10</ele>
        <time>2014-03-02T11:00:44Z</time>
      </trkpt>
      <trkpt lat="41.614853400" lon="2.557175150">
        <ele>251.30</ele>
        <time>2014-03-02T11:00:45Z</time>
      </trkpt>
      <trkpt lat="41.614841660" lon="2.557186720">
        <ele>251.40</ele>
        <time>2014-03-02T11:00:46Z</time>
      </trkpt>
      <trkpt lat="41.614830100" lon="2.557196780">
        <ele>251.40</ele>
        <time>2014-03-02T11:00:47Z</time>
      </trkpt>
      <trkpt lat="41.614818360" lon="2.557208350">
        <ele>251.40</ele>
        <time>2014-03-02T11:00:48Z</time>
      </trkpt>
      <trkpt lat="41.614806800" lon="2.557220080">
        <ele>251.90</ele>
        <time>2014-03-02T11:00:49Z</time>
      </trkpt>
      <trkpt lat="41.614795060" lon="2.557230140">
        <ele>252.30</ele>
        <time>2014-03-02T11:00:50Z</time>
      </trkpt>
      <trkpt lat="41.614783490" lon="2.557240030">
        <ele>252.60</ele>
        <time>2014-03-02T11:00:51Z</time>
      </trkpt>
      <trkpt lat="41.614771760" lon="2.557251770">
        <ele>252.70</ele>
        <time>2014-03-02T11:00:52Z</time>
      </trkpt>
      <trkpt lat="41.614758350" lon="2.557265010">
        <ele>252.80</ele>
        <time>2014-03-02T11:00:53Z</time>
      </trkpt>
      <trkpt lat="41.614746780" lon="2.557275070">
        <ele>253.00</ele>
        <time>2014-03-02T11:00:54Z</time>
      </trkpt>
      <trkpt lat="41.614731690" lon="2.557286800">
        <ele>253.20</ele>
        <time>2014-03-02T11:00:55Z</time>
      </trkpt>
      <trkpt lat="41.614718450" lon="2.557296690">
        <ele>253.50</ele>
        <time>2014-03-02T11:00:56Z</time>
      </trkpt>
      <trkpt lat="41.614703360" lon="2.557306750">
        <ele>253.70</ele>
        <time>2014-03-02T11:00:57Z</time>
      </trkpt>
      <trkpt lat="41.614690120" lon="2.557316810">
        <ele>253.90</ele>
        <time>2014-03-02T11:00:58Z</time>
      </trkpt>
      <trkpt lat="41.614675030" lon="2.557325020">
        <ele>254.40</ele>
        <time>2014-03-02T11:00:59Z</time>
      </trkpt>
      <trkpt lat="41.614658440" lon="2.557335080">
        <ele>254.70</ele>
        <time>2014-03-02T11:01:00Z</time>
      </trkpt>
      <trkpt lat="41.614645030" lon="2.557343460">
        <ele>254.80</ele>
        <time>2014-03-02T11:01:01Z</time>
      </trkpt>
      <trkpt lat="41.614630110" lon="2.557351680">
        <ele>254.80</ele>
        <time>2014-03-02T11:01:02Z</time>
      </trkpt>
      <trkpt lat="41.614616690" lon="2.557360060">
        <ele>255.00</ele>
        <time>2014-03-02T11:01:03Z</time>
      </trkpt>
      <trkpt lat="41.614603450" lon="2.557368440">
        <ele>255.20</ele>
        <time>2014-03-02T11:01:04Z</time>
      </trkpt>
      <trkpt lat="41.614590040" lon="2.557375150">
        <ele>255.40</ele>
        <time>2014-03-02T11:01:05Z</time>
      </trkpt>
      <trkpt lat="41.614575120" lon="2.557381680">
        <ele>255.50</ele>
        <time>2014-03-02T11:01:06Z</time>
      </trkpt>
      <trkpt lat="41.614561710" lon="2.557388390">
        <ele>255.60</ele>
        <time>2014-03-02T11:01:07Z</time>
      </trkpt>
      <trkpt lat="41.614548470" lon="2.557395100">
        <ele>256.00</ele>
        <time>2014-03-02T11:01:08Z</time>
      </trkpt>
      <trkpt lat="41.614535050" lon="2.557400120">
        <ele>256.30</ele>
        <time>2014-03-02T11:01:09Z</time>
      </trkpt>
      <trkpt lat="41.614523490" lon="2.557410020">
        <ele>256.50</ele>
        <time>2014-03-02T11:01:10Z</time>
      </trkpt>
      <trkpt lat="41.614511750" lon="2.557420070">
        <ele>256.70</ele>
        <time>2014-03-02T11:01:11Z</time>
      </trkpt>
      <trkpt lat="41.614500020" lon="2.557431810">
        <ele>256.90</ele>
        <time>2014-03-02T11:01:12Z</time>
      </trkpt>
      <trkpt lat="41.614488450" lon="2.557441700">
        <ele>257.30</ele>
        <time>2014-03-02T11:01:13Z</time>
      </trkpt>
      <trkpt lat="41.614478390" lon="2.557451760">
        <ele>257.50</ele>
        <time>2014-03-02T11:01:14Z</time>
      </trkpt>
      <trkpt lat="41.614463470" lon="2.557463490">
        <ele>257.80</ele>
        <time>2014-03-02T11:01:15Z</time>
      </trkpt>
      <trkpt lat="41.614445030" lon="2.557471710">
        <ele>258.00</ele>
        <time>2014-03-02T11:01:16Z</time>
      </trkpt>
      <trkpt lat="41.614426760" lon="2.557476740">
        <ele>258.10</ele>
        <time>2014-03-02T11:01:17Z</time>
      </trkpt>
      <trkpt lat="41.614406810" lon="2.557481760">
        <ele>258.70</ele>
        <time>2014-03-02T11:01:18Z</time>
      </trkpt>
      <trkpt lat="41.614388370" lon="2.557485120">
        <ele>259.10</ele>
        <time>2014-03-02T11:01:19Z</time>
      </trkpt>
      <trkpt lat="41.614370100" lon="2.557488470">
        <ele>259.10</ele>
        <time>2014-03-02T11:01:20Z</time>
      </trkpt>
      <trkpt lat="41.614353340" lon="2.557491820">
        <ele>259.10</ele>
        <time>2014-03-02T11:01:21Z</time>
      </trkpt>
      <trkpt lat="41.614335060" lon="2.557495010">
        <ele>259.50</ele>
        <time>2014-03-02T11:01:22Z</time>
      </trkpt>
      <trkpt lat="41.614318470" lon="2.557498360">
        <ele>259.70</ele>
        <time>2014-03-02T11:01:23Z</time>
      </trkpt>
      <trkpt lat="41.614301700" lon="2.557503390">
        <ele>259.90</ele>
        <time>2014-03-02T11:01:24Z</time>
      </trkpt>
      <trkpt lat="41.614285110" lon="2.557508420">
        <ele>259.90</ele>
        <time>2014-03-02T11:01:25Z</time>
      </trkpt>
      <trkpt lat="41.614271700" lon="2.557515120">
        <ele>259.90</ele>
        <time>2014-03-02T11:01:26Z</time>
      </trkpt>
      <trkpt lat="41.614260130" lon="2.557526690">
        <ele>260.00</ele>
        <time>2014-03-02T11:01:27Z</time>
      </trkpt>
      <trkpt lat="41.614248390" lon="2.557536750">
        <ele>260.00</ele>
        <time>2014-03-02T11:01:28Z</time>
      </trkpt>
      <trkpt lat="41.614233470" lon="2.557545130">
        <ele>260.10</ele>
        <time>2014-03-02T11:01:29Z</time>
      </trkpt>
      <trkpt lat="41.614218390" lon="2.557555020">
        <ele>260.40</ele>
        <time>2014-03-02T11:01:30Z</time>
      </trkpt>
      <trkpt lat="41.614201790" lon="2.557566760">
        <ele>260.70</ele>
        <time>2014-03-02T11:01:31Z</time>
      </trkpt>
      <trkpt lat="41.614185030" lon="2.557575140">
        <ele>260.70</ele>
        <time>2014-03-02T11:01:32Z</time>
      </trkpt>
      <trkpt lat="41.614166750" lon="2.557585030">
        <ele>260.70</ele>
        <time>2014-03-02T11:01:33Z</time>
      </trkpt>
      <trkpt lat="41.614150160" lon="2.557598440">
        <ele>260.50</ele>
        <time>2014-03-02T11:01:34Z</time>
      </trkpt>
      <trkpt lat="41.614135070" lon="2.557611680">
        <ele>260.30</ele>
        <time>2014-03-02T11:01:35Z</time>
      </trkpt>
      <trkpt lat="41.614120150" lon="2.557621740">
        <ele>260.20</ele>
        <time>2014-03-02T11:01:36Z</time>
      </trkpt>
      <trkpt lat="41.614103390" lon="2.557630120">
        <ele>260.40</ele>
        <time>2014-03-02T11:01:37Z</time>
      </trkpt>
      <trkpt lat="41.614085110" lon="2.557638340">
        <ele>260.50</ele>
        <time>2014-03-02T11:01:38Z</time>
      </trkpt>
      <trkpt lat="41.614068350" lon="2.557645040">
        <ele>260.80</ele>
        <time>2014-03-02T11:01:39Z</time>
      </trkpt>
      <trkpt lat="41.614048400" lon="2.557650070">
        <ele>261.00</ele>
        <time>2014-03-02T11:01:40Z</time>
      </trkpt>
      <trkpt lat="41.614030130" lon="2.557655100">
        <ele>261.20</ele>
        <time>2014-03-02T11:01:41Z</time>
      </trkpt>
      <trkpt lat="41.614013370" lon="2.557661810">
        <ele>261.30</ele>
        <time>2014-03-02T11:01:42Z</time>
      </trkpt>
      <trkpt lat="41.613996770" lon="2.557670020">
        <ele>261.40</ele>
        <time>2014-03-02T11:01:43Z</time>
      </trkpt>
      <trkpt lat="41.613980010" lon="2.557676730">
        <ele>262.00</ele>
        <time>2014-03-02T11:01:44Z</time>
      </trkpt>
      <trkpt lat="41.613963410" lon="2.557686790">
        <ele>262.40</ele>
        <time>2014-03-02T11:01:45Z</time>
      </trkpt>
      <trkpt lat="41.613948490" lon="2.557696680">
        <ele>262.30</ele>
        <time>2014-03-02T11:01:46Z</time>
      </trkpt>
      <trkpt lat="41.613931730" lon="2.557708410">
        <ele>262.20</ele>
        <time>2014-03-02T11:01:47Z</time>
      </trkpt>
      <trkpt lat="41.613915130" lon="2.557718470">
        <ele>262.10</ele>
        <time>2014-03-02T11:01:48Z</time>
      </trkpt>
      <trkpt lat="41.613900040" lon="2.557728360">
        <ele>262.40</ele>
        <time>2014-03-02T11:01:49Z</time>
      </trkpt>
      <trkpt lat="41.613885120" lon="2.557738420">
        <ele>262.70</ele>
        <time>2014-03-02T11:01:50Z</time>
      </trkpt>
      <trkpt lat="41.613870030" lon="2.557750150">
        <ele>263.10</ele>
        <time>2014-03-02T11:01:51Z</time>
      </trkpt>
      <trkpt lat="41.613855110" lon="2.557761720">
        <ele>263.50</ele>
        <time>2014-03-02T11:01:52Z</time>
      </trkpt>
      <trkpt lat="41.613840030" lon="2.557773450">
        <ele>263.60</ele>
        <time>2014-03-02T11:01:53Z</time>
      </trkpt>
      <trkpt lat="41.613825110" lon="2.557786700">
        <ele>263.70</ele>
        <time>2014-03-02T11:01:54Z</time>
      </trkpt>
      <trkpt lat="41.613810020" lon="2.557798430">
        <ele>263.80</ele>
        <time>2014-03-02T11:01:55Z</time>
      </trkpt>
      <trkpt lat="41.613796780" lon="2.557811680">
        <ele>263.90</ele>
        <time>2014-03-02T11:01:56Z</time>
      </trkpt>
      <trkpt lat="41.613785040" lon="2.557826760">
        <ele>263.90</ele>
        <time>2014-03-02T11:01:57Z</time>
      </trkpt>
      <trkpt lat="41.613771800" lon="2.557840010">
        <ele>264.00</ele>
        <time>2014-03-02T11:01:58Z</time>
      </trkpt>
      <trkpt lat="41.613760060" lon="2.557855090">
        <ele>264.10</ele>
        <time>2014-03-02T11:01:59Z</time>
      </trkpt>
      <trkpt lat="41.613748330" lon="2.557870010">
        <ele>264.40</ele>
        <time>2014-03-02T11:02:00Z</time>
      </trkpt>
      <trkpt lat="41.613735090" lon="2.557885100">
        <ele>264.60</ele>
        <time>2014-03-02T11:02:01Z</time>
      </trkpt>
      <trkpt lat="41.613721670" lon="2.557900020">
        <ele>264.80</ele>
        <time>2014-03-02T11:02:02Z</time>
      </trkpt>
      <trkpt lat="41.613710110" lon="2.557918460">
        <ele>265.00</ele>
        <time>2014-03-02T11:02:03Z</time>
      </trkpt>
      <trkpt lat="41.613700050" lon="2.557933380">
        <ele>265.20</ele>
        <time>2014-03-02T11:02:04Z</time>
      </trkpt>
      <trkpt lat="41.613686810" lon="2.557945120">
        <ele>265.50</ele>
        <time>2014-03-02T11:02:05Z</time>
      </trkpt>
      <trkpt lat="41.613676750" lon="2.557956680">
        <ele>265.70</ele>
        <time>2014-03-02T11:02:06Z</time>
      </trkpt>
      <trkpt lat="41.613663340" lon="2.557966740">
        <ele>266.00</ele>
        <time>2014-03-02T11:02:07Z</time>
      </trkpt>
      <trkpt lat="41.613651770" lon="2.557976800">
        <ele>266.10</ele>
        <time>2014-03-02T11:02:08Z</time>
      </trkpt>
      <trkpt lat="41.613638360" lon="2.557986690">
        <ele>266.30</ele>
        <time>2014-03-02T11:02:09Z</time>
      </trkpt>
      <trkpt lat="41.613625120" lon="2.557995070">
        <ele>266.00</ele>
        <time>2014-03-02T11:02:10Z</time>
      </trkpt>
      <trkpt lat="41.613611700" lon="2.558001780">
        <ele>265.80</ele>
        <time>2014-03-02T11:02:11Z</time>
      </trkpt>
      <trkpt lat="41.613598460" lon="2.558006810">
        <ele>266.30</ele>
        <time>2014-03-02T11:02:12Z</time>
      </trkpt>
      <trkpt lat="41.613585050" lon="2.558010160">
        <ele>266.80</ele>
        <time>2014-03-02T11:02:13Z</time>
      </trkpt>
      <trkpt lat="41.613571810" lon="2.558015020">
        <ele>267.10</ele>
        <time>2014-03-02T11:02:14Z</time>
      </trkpt>
      <trkpt lat="41.613560070" lon="2.558016700">
        <ele>267.50</ele>
        <time>2014-03-02T11:02:15Z</time>
      </trkpt>
      <trkpt lat="41.613546830" lon="2.558020050">
        <ele>267.80</ele>
        <time>2014-03-02T11:02:16Z</time>
      </trkpt>
      <trkpt lat="41.613535090" lon="2.558021730">
        <ele>268.50</ele>
        <time>2014-03-02T11:02:17Z</time>
      </trkpt>
      <trkpt lat="41.613523360" lon="2.558018370">
        <ele>268.90</ele>
        <time>2014-03-02T11:02:18Z</time>
      </trkpt>
      <trkpt lat="41.613508440" lon="2.558010160">
        <ele>269.00</ele>
        <time>2014-03-02T11:02:19Z</time>
      </trkpt>
      <trkpt lat="41.613491680" lon="2.558001780">
        <ele>269.00</ele>
        <time>2014-03-02T11:02:20Z</time>
      </trkpt>
      <trkpt lat="41.613476760" lon="2.557995070">
        <ele>269.00</ele>
        <time>2014-03-02T11:02:21Z</time>
      </trkpt>
      <trkpt lat="41.613461670" lon="2.557985010">
        <ele>269.30</ele>
        <time>2014-03-02T11:02:22Z</time>
      </trkpt>
      <trkpt lat="41.613450100" lon="2.557971770">
        <ele>269.50</ele>
        <time>2014-03-02T11:02:23Z</time>
      </trkpt>
      <trkpt lat="41.613438370" lon="2.557958360">
        <ele>269.70</ele>
        <time>2014-03-02T11:02:24Z</time>
      </trkpt>
      <trkpt lat="41.613426800" lon="2.557946790">
        <ele>269.90</ele>
        <time>2014-03-02T11:02:25Z</time>
      </trkpt>
      <trkpt lat="41.613415060" lon="2.557935060">
        <ele>270.00</ele>
        <time>2014-03-02T11:02:26Z</time>
      </trkpt>
      <trkpt lat="41.613403330" lon="2.557921810">
        <ele>270.40</ele>
        <time>2014-03-02T11:02:27Z</time>
      </trkpt>
      <trkpt lat="41.613393440" lon="2.557908400">
        <ele>270.60</ele>
        <time>2014-03-02T11:02:28Z</time>
      </trkpt>
      <trkpt lat="41.613385060" lon="2.557896670">
        <ele>271.20</ele>
        <time>2014-03-02T11:02:29Z</time>
      </trkpt>
      <trkpt lat="41.613373490" lon="2.557883430">
        <ele>271.60</ele>
        <time>2014-03-02T11:02:30Z</time>
      </trkpt>
      <trkpt lat="41.613363430" lon="2.557870010">
        <ele>272.10</ele>
        <time>2014-03-02T11:02:31Z</time>
      </trkpt>
      <trkpt lat="41.613353370" lon="2.557860120">
        <ele>272.40</ele>
        <time>2014-03-02T11:02:32Z</time>
      </trkpt>
      <trkpt lat="41.613341810" lon="2.557851740">
        <ele>272.60</ele>
        <time>2014-03-02T11:02:33Z</time>
      </trkpt>
      <trkpt lat="41.613328400" lon="2.557836820">
        <ele>272.70</ele>
        <time>2014-03-02T11:02:34Z</time>
      </trkpt>
      <trkpt lat="41.613313480" lon="2.557820060">
        <ele>272.70</ele>
        <time>2014-03-02T11:02:35Z</time>
      </trkpt>
      <trkpt lat="41.613300070" lon="2.557800110">
        <ele>272.70</ele>
        <time>2014-03-02T11:02:36Z</time>
      </trkpt>
      <trkpt lat="41.613288330" lon="2.557780160">
        <ele>272.60</ele>
        <time>2014-03-02T11:02:37Z</time>
      </trkpt>
      <trkpt lat="41.613275090" lon="2.557756690">
        <ele>273.20</ele>
        <time>2014-03-02T11:02:38Z</time>
      </trkpt>
      <trkpt lat="41.613263350" lon="2.557731710">
        <ele>273.60</ele>
        <time>2014-03-02T11:02:39Z</time>
      </trkpt>
      <trkpt lat="41.613251790" lon="2.557705060">
        <ele>273.90</ele>
        <time>2014-03-02T11:02:40Z</time>
      </trkpt>
      <trkpt lat="41.613240050" lon="2.557681760">
        <ele>273.90</ele>
        <time>2014-03-02T11:02:41Z</time>
      </trkpt>
      <trkpt lat="41.613230160" lon="2.557663480">
        <ele>273.80</ele>
        <time>2014-03-02T11:02:42Z</time>
      </trkpt>
      <trkpt lat="41.613218430" lon="2.557651750">
        <ele>274.00</ele>
        <time>2014-03-02T11:02:43Z</time>
      </trkpt>
      <trkpt lat="41.613210040" lon="2.557641690">
        <ele>274.10</ele>
        <time>2014-03-02T11:02:44Z</time>
      </trkpt>
      <trkpt lat="41.613200150" lon="2.557633480">
        <ele>274.20</ele>
        <time>2014-03-02T11:02:45Z</time>
      </trkpt>
      <trkpt lat="41.613185070" lon="2.557625100">
        <ele>274.00</ele>
        <time>2014-03-02T11:02:46Z</time>
      </trkpt>
      <trkpt lat="41.613168470" lon="2.557621740">
        <ele>273.90</ele>
        <time>2014-03-02T11:02:47Z</time>
      </trkpt>
      <trkpt lat="41.613153380" lon="2.557621740">
        <ele>274.30</ele>
        <time>2014-03-02T11:02:48Z</time>
      </trkpt>
      <trkpt lat="41.613138460" lon="2.557626770">
        <ele>274.50</ele>
        <time>2014-03-02T11:02:49Z</time>
      </trkpt>
      <trkpt lat="41.613125050" lon="2.557628450">
        <ele>274.50</ele>
        <time>2014-03-02T11:02:50Z</time>
      </trkpt>
      <trkpt lat="41.613115160" lon="2.557631800">
        <ele>274.50</ele>
        <time>2014-03-02T11:02:51Z</time>
      </trkpt>
      <trkpt lat="41.613105100" lon="2.557636660">
        <ele>274.40</ele>
        <time>2014-03-02T11:02:52Z</time>
      </trkpt>
      <trkpt lat="41.613101750" lon="2.557638340">
        <ele>274.40</ele>
        <time>2014-03-02T11:02:53Z</time>
      </trkpt>
      <trkpt lat="41.613100070" lon="2.557640010">
        <ele>274.40</ele>
        <time>2014-03-02T11:02:54Z</time>
      </trkpt>
      <trkpt lat="41.613100070" lon="2.557640010">
        <ele>274.20</ele>
        <time>2014-03-02T11:02:55Z</time>
      </trkpt>
      <trkpt lat="41.613100070" lon="2.557640010">
        <ele>274.00</ele>
        <time>2014-03-02T11:02:56Z</time>
      </trkpt>
      <trkpt lat="41.613100070" lon="2.557638340">
        <ele>274.00</ele>
        <time>2014-03-02T11:02:57Z</time>
      </trkpt>
      <trkpt lat="41.613100070" lon="2.557640010">
        <ele>273.90</ele>
        <time>2014-03-02T11:02:58Z</time>
      </trkpt>
      <trkpt lat="41.613100070" lon="2.557640010">
        <ele>273.90</ele>
        <time>2014-03-02T11:02:59Z</time>
      </trkpt>
      <trkpt lat="41.613098400" lon="2.557640010">
        <ele>273.50</ele>
        <time>2014-03-02T11:03:00Z</time>
      </trkpt>
      <trkpt lat="41.613098400" lon="2.557641690">
        <ele>273.20</ele>
        <time>2014-03-02T11:03:01Z</time>
      </trkpt>
      <trkpt lat="41.613100070" lon="2.557641690">
        <ele>273.10</ele>
        <time>2014-03-02T11:03:02Z</time>
      </trkpt>
      <trkpt lat="41.613100070" lon="2.557640010">
        <ele>273.00</ele>
        <time>2014-03-02T11:03:03Z</time>
      </trkpt>
      <trkpt lat="41.613100070" lon="2.557641690">
        <ele>273.00</ele>
        <time>2014-03-02T11:03:04Z</time>
      </trkpt>
      <trkpt lat="41.613100070" lon="2.557640010">
        <ele>273.10</ele>
        <time>2014-03-02T11:03:05Z</time>
      </trkpt>
      <trkpt lat="41.613101750" lon="2.557640010">
        <ele>273.10</ele>
        <time>2014-03-02T11:03:06Z</time>
      </trkpt>
      <trkpt lat="41.613103430" lon="2.557640010">
        <ele>273.00</ele>
        <time>2014-03-02T11:03:07Z</time>
      </trkpt>
      <trkpt lat="41.613105100" lon="2.557638340">
        <ele>272.90</ele>
        <time>2014-03-02T11:03:08Z</time>
      </trkpt>
      <trkpt lat="41.613105100" lon="2.557638340">
        <ele>272.90</ele>
        <time>2014-03-02T11:03:09Z</time>
      </trkpt>
      <trkpt lat="41.613105100" lon="2.557636660">
        <ele>272.80</ele>
        <time>2014-03-02T11:03:10Z</time>
      </trkpt>
      <trkpt lat="41.613106780" lon="2.557638340">
        <ele>272.80</ele>
        <time>2014-03-02T11:03:11Z</time>
      </trkpt>
      <trkpt lat="41.613106780" lon="2.557638340">
        <ele>273.00</ele>
        <time>2014-03-02T11:03:12Z</time>
      </trkpt>
      <trkpt lat="41.613106780" lon="2.557640010">
        <ele>273.20</ele>
        <time>2014-03-02T11:03:13Z</time>
      </trkpt>
      <trkpt lat="41.613105100" lon="2.557640010">
        <ele>272.80</ele>
        <time>2014-03-02T11:03:14Z</time>
      </trkpt>
      <trkpt lat="41.613103430" lon="2.557643370">
        <ele>272.50</ele>
        <time>2014-03-02T11:03:15Z</time>
      </trkpt>
      <trkpt lat="41.613101750" lon="2.557645040">
        <ele>273.00</ele>
        <time>2014-03-02T11:03:16Z</time>
      </trkpt>
      <trkpt lat="41.613101750" lon="2.557645040">
        <ele>273.30</ele>
        <time>2014-03-02T11:03:17Z</time>
      </trkpt>
      <trkpt lat="41.613100070" lon="2.557646720">
        <ele>273.50</ele>
        <time>2014-03-02T11:03:18Z</time>
      </trkpt>
      <trkpt lat="41.613098400" lon="2.557648400">
        <ele>273.50</ele>
        <time>2014-03-02T11:03:19Z</time>
      </trkpt>
      <trkpt lat="41.613096720" lon="2.557650070">
        <ele>273.40</ele>
        <time>2014-03-02T11:03:20Z</time>
      </trkpt>
      <trkpt lat="41.613095040" lon="2.557650070">
        <ele>273.30</ele>
        <time>2014-03-02T11:03:21Z</time>
      </trkpt>
      <trkpt lat="41.613095040" lon="2.557650070">
        <ele>273.10</ele>
        <time>2014-03-02T11:03:22Z</time>
      </trkpt>
      <trkpt lat="41.613095040" lon="2.557650070">
        <ele>273.00</ele>
        <time>2014-03-02T11:03:23Z</time>
      </trkpt>
      <trkpt lat="41.613093370" lon="2.557651750">
        <ele>272.90</ele>
        <time>2014-03-02T11:03:24Z</time>
      </trkpt>
      <trkpt lat="41.613091690" lon="2.557653430">
        <ele>272.80</ele>
        <time>2014-03-02T11:03:25Z</time>
      </trkpt>
      <trkpt lat="41.613090010" lon="2.557656780">
        <ele>272.70</ele>
        <time>2014-03-02T11:03:26Z</time>
      </trkpt>
      <trkpt lat="41.613088340" lon="2.557658450">
        <ele>272.60</ele>
        <time>2014-03-02T11:03:27Z</time>
      </trkpt>
      <trkpt lat="41.613088340" lon="2.557658450">
        <ele>272.80</ele>
        <time>2014-03-02T11:03:28Z</time>
      </trkpt>
      <trkpt lat="41.613086660" lon="2.557660130">
        <ele>272.90</ele>
        <time>2014-03-02T11:03:29Z</time>
      </trkpt>
      <trkpt lat="41.613086660" lon="2.557661810">
        <ele>273.00</ele>
        <time>2014-03-02T11:03:30Z</time>
      </trkpt>
      <trkpt lat="41.613085150" lon="2.557661810">
        <ele>272.70</ele>
        <time>2014-03-02T11:03:31Z</time>
      </trkpt>
      <trkpt lat="41.613085150" lon="2.557663480">
        <ele>272.60</ele>
        <time>2014-03-02T11:03:32Z</time>
      </trkpt>
      <trkpt lat="41.613083480" lon="2.557665160">
        <ele>272.60</ele>
        <time>2014-03-02T11:03:33Z</time>
      </trkpt>
      <trkpt lat="41.613081800" lon="2.557666670">
        <ele>272.60</ele>
        <time>2014-03-02T11:03:34Z</time>
      </trkpt>
      <trkpt lat="41.613080120" lon="2.557668350">
        <ele>272.40</ele>
        <time>2014-03-02T11:03:35Z</time>
      </trkpt>
      <trkpt lat="41.613078450" lon="2.557670020">
        <ele>272.30</ele>
        <time>2014-03-02T11:03:36Z</time>
      </trkpt>
      <trkpt lat="41.613076770" lon="2.557670020">
        <ele>272.20</ele>
        <time>2014-03-02T11:03:37Z</time>
      </trkpt>
      <trkpt lat="41.613076770" lon="2.557671700">
        <ele>272.30</ele>
        <time>2014-03-02T11:03:38Z</time>
      </trkpt>
      <trkpt lat="41.613075090" lon="2.557673370">
        <ele>272.50</ele>
        <time>2014-03-02T11:03:39Z</time>
      </trkpt>
      <trkpt lat="41.613073420" lon="2.557673370">
        <ele>272.20</ele>
        <time>2014-03-02T11:03:40Z</time>
      </trkpt>
      <trkpt lat="41.613073420" lon="2.557675050">
        <ele>272.10</ele>
        <time>2014-03-02T11:03:41Z</time>
      </trkpt>
      <trkpt lat="41.613061680" lon="2.557681760">
        <ele>272.60</ele>
        <time>2014-03-02T11:03:42Z</time>
      </trkpt>
      <trkpt lat="41.613061680" lon="2.557681760">
        <ele>273.00</ele>
        <time>2014-03-02T11:03:43Z</time>
      </trkpt>
      <trkpt lat="41.613061680" lon="2.557680080">
        <ele>273.30</ele>
        <time>2014-03-02T11:03:44Z</time>
      </trkpt>
      <trkpt lat="41.613058330" lon="2.557680080">
        <ele>273.10</ele>
        <time>2014-03-02T11:03:45Z</time>
      </trkpt>
      <trkpt lat="41.613051790" lon="2.557681760">
        <ele>273.00</ele>
        <time>2014-03-02T11:03:46Z</time>
      </trkpt>
      <trkpt lat="41.613043410" lon="2.557685110">
        <ele>272.80</ele>
        <time>2014-03-02T11:03:47Z</time>
      </trkpt>
      <trkpt lat="41.613031680" lon="2.557688460">
        <ele>272.60</ele>
        <time>2014-03-02T11:03:48Z</time>
      </trkpt>
      <trkpt lat="41.613018430" lon="2.557696680">
        <ele>272.50</ele>
        <time>2014-03-02T11:03:49Z</time>
      </trkpt>
      <trkpt lat="41.613003350" lon="2.557705060">
        <ele>272.50</ele>
        <time>2014-03-02T11:03:50Z</time>
      </trkpt>
      <trkpt lat="41.612988430" lon="2.557716790">
        <ele>272.50</ele>
        <time>2014-03-02T11:03:51Z</time>
      </trkpt>
      <trkpt lat="41.612971660" lon="2.557725010">
        <ele>272.40</ele>
        <time>2014-03-02T11:03:52Z</time>
      </trkpt>
      <trkpt lat="41.612956740" lon="2.557731710">
        <ele>272.40</ele>
        <time>2014-03-02T11:03:53Z</time>
      </trkpt>
      <trkpt lat="41.612941820" lon="2.557738420">
        <ele>273.10</ele>
        <time>2014-03-02T11:03:54Z</time>
      </trkpt>
      <trkpt lat="41.612925060" lon="2.557743450">
        <ele>273.60</ele>
        <time>2014-03-02T11:03:55Z</time>
      </trkpt>
      <trkpt lat="41.612911820" lon="2.557746800">
        <ele>274.00</ele>
        <time>2014-03-02T11:03:56Z</time>
      </trkpt>
      <trkpt lat="41.612895050" lon="2.557750150">
        <ele>273.90</ele>
        <time>2014-03-02T11:03:57Z</time>
      </trkpt>
      <trkpt lat="41.612878460" lon="2.557753340">
        <ele>273.80</ele>
        <time>2014-03-02T11:03:58Z</time>
      </trkpt>
      <trkpt lat="41.612860020" lon="2.557755010">
        <ele>274.10</ele>
        <time>2014-03-02T11:03:59Z</time>
      </trkpt>
      <trkpt lat="41.612843420" lon="2.557758370">
        <ele>274.30</ele>
        <time>2014-03-02T11:04:00Z</time>
      </trkpt>
      <trkpt lat="41.612825150" lon="2.557761720">
        <ele>274.30</ele>
        <time>2014-03-02T11:04:01Z</time>
      </trkpt>
      <trkpt lat="41.612808380" lon="2.557763400">
        <ele>274.30</ele>
        <time>2014-03-02T11:04:02Z</time>
      </trkpt>
      <trkpt lat="41.612790110" lon="2.557765070">
        <ele>274.30</ele>
        <time>2014-03-02T11:04:03Z</time>
      </trkpt>
      <trkpt lat="41.612771670" lon="2.557765070">
        <ele>274.50</ele>
        <time>2014-03-02T11:04:04Z</time>
      </trkpt>
      <trkpt lat="41.612755070" lon="2.557765070">
        <ele>274.80</ele>
        <time>2014-03-02T11:04:05Z</time>
      </trkpt>
      <trkpt lat="41.612735120" lon="2.557765070">
        <ele>275.00</ele>
        <time>2014-03-02T11:04:06Z</time>
      </trkpt>
      <trkpt lat="41.612711820" lon="2.557768430">
        <ele>275.10</ele>
        <time>2014-03-02T11:04:07Z</time>
      </trkpt>
      <trkpt lat="41.612693380" lon="2.557770100">
        <ele>275.20</ele>
        <time>2014-03-02T11:04:08Z</time>
      </trkpt>
      <trkpt lat="41.612670080" lon="2.557775130">
        <ele>275.90</ele>
        <time>2014-03-02T11:04:09Z</time>
      </trkpt>
      <trkpt lat="41.612651810" lon="2.557776810">
        <ele>276.40</ele>
        <time>2014-03-02T11:04:10Z</time>
      </trkpt>
      <trkpt lat="41.612631690" lon="2.557778480">
        <ele>276.20</ele>
        <time>2014-03-02T11:04:11Z</time>
      </trkpt>
      <trkpt lat="41.612613420" lon="2.557783350">
        <ele>276.10</ele>
        <time>2014-03-02T11:04:12Z</time>
      </trkpt>
      <trkpt lat="41.612595150" lon="2.557788370">
        <ele>276.20</ele>
        <time>2014-03-02T11:04:13Z</time>
      </trkpt>
      <trkpt lat="41.612576710" lon="2.557791730">
        <ele>276.20</ele>
        <time>2014-03-02T11:04:14Z</time>
      </trkpt>
      <trkpt lat="41.612558430" lon="2.557795080">
        <ele>276.30</ele>
        <time>2014-03-02T11:04:15Z</time>
      </trkpt>
      <trkpt lat="41.612541670" lon="2.557798430">
        <ele>276.70</ele>
        <time>2014-03-02T11:04:16Z</time>
      </trkpt>
      <trkpt lat="41.612521720" lon="2.557803460">
        <ele>277.10</ele>
        <time>2014-03-02T11:04:17Z</time>
      </trkpt>
      <trkpt lat="41.612503450" lon="2.557808490">
        <ele>277.00</ele>
        <time>2014-03-02T11:04:18Z</time>
      </trkpt>
      <trkpt lat="41.612485010" lon="2.557811680">
        <ele>277.00</ele>
        <time>2014-03-02T11:04:19Z</time>
      </trkpt>
      <trkpt lat="41.612466740" lon="2.557815030">
        <ele>276.90</ele>
        <time>2014-03-02T11:04:20Z</time>
      </trkpt>
      <trkpt lat="41.612450140" lon="2.557816710">
        <ele>276.80</ele>
        <time>2014-03-02T11:04:21Z</time>
      </trkpt>
      <trkpt lat="41.612431700" lon="2.557818380">
        <ele>276.70</ele>
        <time>2014-03-02T11:04:22Z</time>
      </trkpt>
      <trkpt lat="41.612413430" lon="2.557821730">
        <ele>276.80</ele>
        <time>2014-03-02T11:04:23Z</time>
      </trkpt>
      <trkpt lat="41.612395150" lon="2.557825090">
        <ele>276.80</ele>
        <time>2014-03-02T11:04:24Z</time>
      </trkpt>
      <trkpt lat="41.612376710" lon="2.557828440">
        <ele>277.40</ele>
        <time>2014-03-02T11:04:25Z</time>
      </trkpt>
      <trkpt lat="41.612358440" lon="2.557831790">
        <ele>277.80</ele>
        <time>2014-03-02T11:04:26Z</time>
      </trkpt>
      <trkpt lat="41.612341680" lon="2.557835150">
        <ele>278.10</ele>
        <time>2014-03-02T11:04:27Z</time>
      </trkpt>
      <trkpt lat="41.612325080" lon="2.557836820">
        <ele>278.20</ele>
        <time>2014-03-02T11:04:28Z</time>
      </trkpt>
      <trkpt lat="41.612308490" lon="2.557838330">
        <ele>278.30</ele>
        <time>2014-03-02T11:04:29Z</time>
      </trkpt>
      <trkpt lat="41.612291720" lon="2.557843360">
        <ele>278.80</ele>
        <time>2014-03-02T11:04:30Z</time>
      </trkpt>
      <trkpt lat="41.612275130" lon="2.557843360">
        <ele>279.20</ele>
        <time>2014-03-02T11:04:31Z</time>
      </trkpt>
      <trkpt lat="41.612258360" lon="2.557846710">
        <ele>279.20</ele>
        <time>2014-03-02T11:04:32Z</time>
      </trkpt>
      <trkpt lat="41.612240090" lon="2.557851740">
        <ele>279.30</ele>
        <time>2014-03-02T11:04:33Z</time>
      </trkpt>
      <trkpt lat="41.612223490" lon="2.557856770">
        <ele>279.30</ele>
        <time>2014-03-02T11:04:34Z</time>
      </trkpt>
      <trkpt lat="41.612205050" lon="2.557860120">
        <ele>279.80</ele>
        <time>2014-03-02T11:04:35Z</time>
      </trkpt>
      <trkpt lat="41.612186780" lon="2.557863480">
        <ele>280.10</ele>
        <time>2014-03-02T11:04:36Z</time>
      </trkpt>
      <trkpt lat="41.612168340" lon="2.557868340">
        <ele>280.60</ele>
        <time>2014-03-02T11:04:37Z</time>
      </trkpt>
      <trkpt lat="41.612151740" lon="2.557873370">
        <ele>281.00</ele>
        <time>2014-03-02T11:04:38Z</time>
      </trkpt>
      <trkpt lat="41.612135150" lon="2.557876720">
        <ele>281.10</ele>
        <time>2014-03-02T11:04:39Z</time>
      </trkpt>
      <trkpt lat="41.612118380" lon="2.557880070">
        <ele>281.20</ele>
        <time>2014-03-02T11:04:40Z</time>
      </trkpt>
      <trkpt lat="41.612101790" lon="2.557883430">
        <ele>281.20</ele>
        <time>2014-03-02T11:04:41Z</time>
      </trkpt>
      <trkpt lat="41.612085020" lon="2.557886780">
        <ele>281.30</ele>
        <time>2014-03-02T11:04:42Z</time>
      </trkpt>
      <trkpt lat="41.612068430" lon="2.557888450">
        <ele>281.30</ele>
        <time>2014-03-02T11:04:43Z</time>
      </trkpt>
      <trkpt lat="41.612053340" lon="2.557888450">
        <ele>281.50</ele>
        <time>2014-03-02T11:04:44Z</time>
      </trkpt>
      <trkpt lat="41.612036740" lon="2.557888450">
        <ele>281.70</ele>
        <time>2014-03-02T11:04:45Z</time>
      </trkpt>
      <trkpt lat="41.612020150" lon="2.557891810">
        <ele>281.80</ele>
        <time>2014-03-02T11:04:46Z</time>
      </trkpt>
      <trkpt lat="41.612005060" lon="2.557891810">
        <ele>282.00</ele>
        <time>2014-03-02T11:04:47Z</time>
      </trkpt>
      <trkpt lat="41.611990140" lon="2.557890130">
        <ele>282.10</ele>
        <time>2014-03-02T11:04:48Z</time>
      </trkpt>
      <trkpt lat="41.611975050" lon="2.557886780">
        <ele>282.70</ele>
        <time>2014-03-02T11:04:49Z</time>
      </trkpt>
      <trkpt lat="41.611960130" lon="2.557880070">
        <ele>283.10</ele>
        <time>2014-03-02T11:04:50Z</time>
      </trkpt>
      <trkpt lat="41.611948400" lon="2.557868340">
        <ele>283.20</ele>
        <time>2014-03-02T11:04:51Z</time>
      </trkpt>
      <trkpt lat="41.611933480" lon="2.557861800">
        <ele>283.20</ele>
        <time>2014-03-02T11:04:52Z</time>
      </trkpt>
      <trkpt lat="41.611920070" lon="2.557855090">
        <ele>283.30</ele>
        <time>2014-03-02T11:04:53Z</time>
      </trkpt>
      <trkpt lat="41.611910010" lon="2.557845040">
        <ele>283.80</ele>
        <time>2014-03-02T11:04:54Z</time>
      </trkpt>
      <trkpt lat="41.611898440" lon="2.557835150">
        <ele>284.20</ele>
        <time>2014-03-02T11:04:55Z</time>
      </trkpt>
      <trkpt lat="41.611886710" lon="2.557821730">
        <ele>284.70</ele>
        <time>2014-03-02T11:04:56Z</time>
      </trkpt>
      <trkpt lat="41.611873470" lon="2.557803460">
        <ele>285.00</ele>
        <time>2014-03-02T11:04:57Z</time>
      </trkpt>
      <trkpt lat="41.611863410" lon="2.557780160">
        <ele>285.10</ele>
        <time>2014-03-02T11:04:58Z</time>
      </trkpt>
      <trkpt lat="41.611858380" lon="2.557755010">
        <ele>285.20</ele>
        <time>2014-03-02T11:04:59Z</time>
      </trkpt>
      <trkpt lat="41.611856700" lon="2.557731710">
        <ele>285.20</ele>
        <time>2014-03-02T11:05:00Z</time>
      </trkpt>
      <trkpt lat="41.611851670" lon="2.557710090">
        <ele>285.60</ele>
        <time>2014-03-02T11:05:01Z</time>
      </trkpt>
      <trkpt lat="41.611845130" lon="2.557688460">
        <ele>285.90</ele>
        <time>2014-03-02T11:05:02Z</time>
      </trkpt>
      <trkpt lat="41.611841780" lon="2.557668350">
        <ele>286.30</ele>
        <time>2014-03-02T11:05:03Z</time>
      </trkpt>
      <trkpt lat="41.611838430" lon="2.557646720">
        <ele>286.50</ele>
        <time>2014-03-02T11:05:04Z</time>
      </trkpt>
      <trkpt lat="41.611835080" lon="2.557626770">
        <ele>286.70</ele>
        <time>2014-03-02T11:05:05Z</time>
      </trkpt>
      <trkpt lat="41.611831720" lon="2.557606820">
        <ele>287.20</ele>
        <time>2014-03-02T11:05:06Z</time>
      </trkpt>
      <trkpt lat="41.611828370" lon="2.557586710">
        <ele>287.50</ele>
        <time>2014-03-02T11:05:07Z</time>
      </trkpt>
      <trkpt lat="41.611823340" lon="2.557568430">
        <ele>287.60</ele>
        <time>2014-03-02T11:05:08Z</time>
      </trkpt>
      <trkpt lat="41.611816800" lon="2.557550160">
        <ele>287.70</ele>
        <time>2014-03-02T11:05:09Z</time>
      </trkpt>
      <trkpt lat="41.611808420" lon="2.557531720">
        <ele>287.70</ele>
        <time>2014-03-02T11:05:10Z</time>
      </trkpt>
      <trkpt lat="41.611805070" lon="2.557511770">
        <ele>287.70</ele>
        <time>2014-03-02T11:05:11Z</time>
      </trkpt>
      <trkpt lat="41.611798360" lon="2.557495010">
        <ele>287.70</ele>
        <time>2014-03-02T11:05:12Z</time>
      </trkpt>
      <trkpt lat="41.611791830" lon="2.557475060">
        <ele>287.80</ele>
        <time>2014-03-02T11:05:13Z</time>
      </trkpt>
      <trkpt lat="41.611783440" lon="2.557455110">
        <ele>287.90</ele>
        <time>2014-03-02T11:05:14Z</time>
      </trkpt>
      <trkpt lat="41.611778410" lon="2.557436670">
        <ele>288.40</ele>
        <time>2014-03-02T11:05:15Z</time>
      </trkpt>
      <trkpt lat="41.611770030" lon="2.557420070">
        <ele>288.80</ele>
        <time>2014-03-02T11:05:16Z</time>
      </trkpt>
      <trkpt lat="41.611761820" lon="2.557401800">
        <ele>289.00</ele>
        <time>2014-03-02T11:05:17Z</time>
      </trkpt>
      <trkpt lat="41.611755110" lon="2.557383360">
        <ele>289.10</ele>
        <time>2014-03-02T11:05:18Z</time>
      </trkpt>
      <trkpt lat="41.611746730" lon="2.557366760">
        <ele>289.20</ele>
        <time>2014-03-02T11:05:19Z</time>
      </trkpt>
      <trkpt lat="41.611738350" lon="2.557348490">
        <ele>289.20</ele>
        <time>2014-03-02T11:05:20Z</time>
      </trkpt>
      <trkpt lat="41.611731810" lon="2.557331730">
        <ele>289.20</ele>
        <time>2014-03-02T11:05:21Z</time>
      </trkpt>
      <trkpt lat="41.611725110" lon="2.557313460">
        <ele>289.30</ele>
        <time>2014-03-02T11:05:22Z</time>
      </trkpt>
      <trkpt lat="41.611720080" lon="2.557291660">
        <ele>289.40</ele>
        <time>2014-03-02T11:05:23Z</time>
      </trkpt>
      <trkpt lat="41.611718400" lon="2.557270040">
        <ele>289.40</ele>
        <time>2014-03-02T11:05:24Z</time>
      </trkpt>
      <trkpt lat="41.611716720" lon="2.557246740">
        <ele>289.50</ele>
        <time>2014-03-02T11:05:25Z</time>
      </trkpt>
      <trkpt lat="41.611716720" lon="2.557221760">
        <ele>289.50</ele>
        <time>2014-03-02T11:05:26Z</time>
      </trkpt>
      <trkpt lat="41.611715050" lon="2.557198460">
        <ele>289.90</ele>
        <time>2014-03-02T11:05:27Z</time>
      </trkpt>
      <trkpt lat="41.611715050" lon="2.557173480">
        <ele>290.20</ele>
        <time>2014-03-02T11:05:28Z</time>
      </trkpt>
      <trkpt lat="41.611713370" lon="2.557151690">
        <ele>290.60</ele>
        <time>2014-03-02T11:05:29Z</time>
      </trkpt>
      <trkpt lat="41.611711690" lon="2.557130060">
        <ele>290.90</ele>
        <time>2014-03-02T11:05:30Z</time>
      </trkpt>
      <trkpt lat="41.611706670" lon="2.557106760">
        <ele>291.20</ele>
        <time>2014-03-02T11:05:31Z</time>
      </trkpt>
      <trkpt lat="41.611703480" lon="2.557083460">
        <ele>291.30</ele>
        <time>2014-03-02T11:05:32Z</time>
      </trkpt>
      <trkpt lat="41.611700130" lon="2.557061660">
        <ele>291.40</ele>
        <time>2014-03-02T11:05:33Z</time>
      </trkpt>
      <trkpt lat="41.611698450" lon="2.557040040">
        <ele>291.70</ele>
        <time>2014-03-02T11:05:34Z</time>
      </trkpt>
      <trkpt lat="41.611696770" lon="2.557015060">
        <ele>291.90</ele>
        <time>2014-03-02T11:05:35Z</time>
      </trkpt>
      <trkpt lat="41.611690070" lon="2.556990080">
        <ele>292.20</ele>
        <time>2014-03-02T11:05:36Z</time>
      </trkpt>
      <trkpt lat="41.611685040" lon="2.556966780">
        <ele>292.40</ele>
        <time>2014-03-02T11:05:37Z</time>
      </trkpt>
      <trkpt lat="41.611680010" lon="2.556945160">
        <ele>292.50</ele>
        <time>2014-03-02T11:05:38Z</time>
      </trkpt>
      <trkpt lat="41.611673470" lon="2.556923360">
        <ele>292.80</ele>
        <time>2014-03-02T11:05:39Z</time>
      </trkpt>
      <trkpt lat="41.611663410" lon="2.556903410">
        <ele>293.00</ele>
        <time>2014-03-02T11:05:40Z</time>
      </trkpt>
      <trkpt lat="41.611655030" lon="2.556883460">
        <ele>293.20</ele>
        <time>2014-03-02T11:05:41Z</time>
      </trkpt>
      <trkpt lat="41.611646820" lon="2.556863350">
        <ele>293.40</ele>
        <time>2014-03-02T11:05:42Z</time>
      </trkpt>
      <trkpt lat="41.611635080" lon="2.556843400">
        <ele>293.50</ele>
        <time>2014-03-02T11:05:43Z</time>
      </trkpt>
      <trkpt lat="41.611625030" lon="2.556823450">
        <ele>293.30</ele>
        <time>2014-03-02T11:05:44Z</time>
      </trkpt>
      <trkpt lat="41.611616810" lon="2.556800150">
        <ele>293.10</ele>
        <time>2014-03-02T11:05:45Z</time>
      </trkpt>
      <trkpt lat="41.611608430" lon="2.556780030">
        <ele>293.60</ele>
        <time>2014-03-02T11:05:46Z</time>
      </trkpt>
      <trkpt lat="41.611605080" lon="2.556760080">
        <ele>293.90</ele>
        <time>2014-03-02T11:05:47Z</time>
      </trkpt>
      <trkpt lat="41.611600050" lon="2.556740130">
        <ele>294.40</ele>
        <time>2014-03-02T11:05:48Z</time>
      </trkpt>
      <trkpt lat="41.611593340" lon="2.556711800">
        <ele>294.70</ele>
        <time>2014-03-02T11:05:49Z</time>
      </trkpt>
      <trkpt lat="41.611590160" lon="2.556675090">
        <ele>295.00</ele>
        <time>2014-03-02T11:05:50Z</time>
      </trkpt>
      <trkpt lat="41.611581780" lon="2.556636700">
        <ele>294.80</ele>
        <time>2014-03-02T11:05:51Z</time>
      </trkpt>
      <trkpt lat="41.611575070" lon="2.556596800">
        <ele>294.60</ele>
        <time>2014-03-02T11:05:52Z</time>
      </trkpt>
      <trkpt lat="41.611565010" lon="2.556548360">
        <ele>294.50</ele>
        <time>2014-03-02T11:05:53Z</time>
      </trkpt>
      <trkpt lat="41.611555120" lon="2.556498400">
        <ele>294.40</ele>
        <time>2014-03-02T11:05:54Z</time>
      </trkpt>
      <trkpt lat="41.611543390" lon="2.556440060">
        <ele>294.70</ele>
        <time>2014-03-02T11:05:55Z</time>
      </trkpt>
      <trkpt lat="41.611536680" lon="2.556380050">
        <ele>294.90</ele>
        <time>2014-03-02T11:05:56Z</time>
      </trkpt>
      <trkpt lat="41.611531820" lon="2.556321710">
        <ele>295.00</ele>
        <time>2014-03-02T11:05:57Z</time>
      </trkpt>
      <trkpt lat="41.611523440" lon="2.556270080">
        <ele>294.90</ele>
        <time>2014-03-02T11:05:58Z</time>
      </trkpt>
      <trkpt lat="41.611506670" lon="2.556210060">
        <ele>294.80</ele>
        <time>2014-03-02T11:05:59Z</time>
      </trkpt>
      <trkpt lat="41.611495110" lon="2.556140160">
        <ele>294.30</ele>
        <time>2014-03-02T11:06:00Z</time>
      </trkpt>
      <trkpt lat="41.611486720" lon="2.556065060">
        <ele>293.90</ele>
        <time>2014-03-02T11:06:01Z</time>
      </trkpt>
      <trkpt lat="41.611486720" lon="2.555990120">
        <ele>293.60</ele>
        <time>2014-03-02T11:06:02Z</time>
      </trkpt>
      <trkpt lat="41.611488400" lon="2.555911670">
        <ele>293.20</ele>
        <time>2014-03-02T11:06:03Z</time>
      </trkpt>
      <trkpt lat="41.611495110" lon="2.555835060">
        <ele>292.90</ele>
        <time>2014-03-02T11:06:04Z</time>
      </trkpt>
      <trkpt lat="41.611505000" lon="2.555760120">
        <ele>292.50</ele>
        <time>2014-03-02T11:06:05Z</time>
      </trkpt>
      <trkpt lat="41.611510030" lon="2.555686700">
        <ele>292.10</ele>
        <time>2014-03-02T11:06:06Z</time>
      </trkpt>
      <trkpt lat="41.611518410" lon="2.555613440">
        <ele>291.50</ele>
        <time>2014-03-02T11:06:07Z</time>
      </trkpt>
      <trkpt lat="41.611520080" lon="2.555538340">
        <ele>291.00</ele>
        <time>2014-03-02T11:06:08Z</time>
      </trkpt>
      <trkpt lat="41.611526790" lon="2.555476810">
        <ele>290.70</ele>
        <time>2014-03-02T11:06:09Z</time>
      </trkpt>
      <trkpt lat="41.611530140" lon="2.555426690">
        <ele>290.50</ele>
        <time>2014-03-02T11:06:10Z</time>
      </trkpt>
      <trkpt lat="41.611518410" lon="2.555385120">
        <ele>290.30</ele>
        <time>2014-03-02T11:06:11Z</time>
      </trkpt>
      <trkpt lat="41.611501810" lon="2.555338340">
        <ele>290.10</ele>
        <time>2014-03-02T11:06:12Z</time>
      </trkpt>
      <trkpt lat="41.611490080" lon="2.555290060">
        <ele>289.90</ele>
        <time>2014-03-02T11:06:13Z</time>
      </trkpt>
      <trkpt lat="41.611481700" lon="2.555241780">
        <ele>289.80</ele>
        <time>2014-03-02T11:06:14Z</time>
      </trkpt>
      <trkpt lat="41.611473480" lon="2.555188480">
        <ele>289.70</ele>
        <time>2014-03-02T11:06:15Z</time>
      </trkpt>
      <trkpt lat="41.611471800" lon="2.555143380">
        <ele>289.70</ele>
        <time>2014-03-02T11:06:16Z</time>
      </trkpt>
      <trkpt lat="41.611476670" lon="2.555096780">
        <ele>288.90</ele>
        <time>2014-03-02T11:06:17Z</time>
      </trkpt>
      <trkpt lat="41.611486720" lon="2.555048330">
        <ele>288.40</ele>
        <time>2014-03-02T11:06:18Z</time>
      </trkpt>
      <trkpt lat="41.611496780" lon="2.554996700">
        <ele>287.70</ele>
        <time>2014-03-02T11:06:19Z</time>
      </trkpt>
      <trkpt lat="41.611508350" lon="2.554945070">
        <ele>287.20</ele>
        <time>2014-03-02T11:06:20Z</time>
      </trkpt>
      <trkpt lat="41.611521760" lon="2.554898460">
        <ele>286.60</ele>
        <time>2014-03-02T11:06:21Z</time>
      </trkpt>
      <trkpt lat="41.611538360" lon="2.554850010">
        <ele>286.10</ele>
        <time>2014-03-02T11:06:22Z</time>
      </trkpt>
      <trkpt lat="41.611551770" lon="2.554801730">
        <ele>285.80</ele>
        <time>2014-03-02T11:06:23Z</time>
      </trkpt>
      <trkpt lat="41.611563330" lon="2.554758480">
        <ele>285.10</ele>
        <time>2014-03-02T11:06:24Z</time>
      </trkpt>
      <trkpt lat="41.611576750" lon="2.554715070">
        <ele>284.60</ele>
        <time>2014-03-02T11:06:25Z</time>
      </trkpt>
      <trkpt lat="41.611586800" lon="2.554670140">
        <ele>284.40</ele>
        <time>2014-03-02T11:06:26Z</time>
      </trkpt>
      <trkpt lat="41.611593340" lon="2.554621690">
        <ele>284.30</ele>
        <time>2014-03-02T11:06:27Z</time>
      </trkpt>
      <trkpt lat="41.611591670" lon="2.554578440">
        <ele>284.30</ele>
        <time>2014-03-02T11:06:28Z</time>
      </trkpt>
      <trkpt lat="41.611576750" lon="2.554538380">
        <ele>284.20</ele>
        <time>2014-03-02T11:06:29Z</time>
      </trkpt>
      <trkpt lat="41.611561830" lon="2.554503340">
        <ele>284.20</ele>
        <time>2014-03-02T11:06:30Z</time>
      </trkpt>
      <trkpt lat="41.611546740" lon="2.554478360">
        <ele>284.20</ele>
        <time>2014-03-02T11:06:31Z</time>
      </trkpt>
      <trkpt lat="41.611535000" lon="2.554455060">
        <ele>284.30</ele>
        <time>2014-03-02T11:06:32Z</time>
      </trkpt>
      <trkpt lat="41.611526790" lon="2.554438460">
        <ele>284.10</ele>
        <time>2014-03-02T11:06:33Z</time>
      </trkpt>
      <trkpt lat="41.611523440" lon="2.554431760">
        <ele>284.00</ele>
        <time>2014-03-02T11:06:34Z</time>
      </trkpt>
      <trkpt lat="41.611521760" lon="2.554425050">
        <ele>283.90</ele>
        <time>2014-03-02T11:06:35Z</time>
      </trkpt>
      <trkpt lat="41.611518410" lon="2.554418350">
        <ele>283.80</ele>
        <time>2014-03-02T11:06:36Z</time>
      </trkpt>
      <trkpt lat="41.611516730" lon="2.554413480">
        <ele>283.80</ele>
        <time>2014-03-02T11:06:37Z</time>
      </trkpt>
      <trkpt lat="41.611513380" lon="2.554405100">
        <ele>283.90</ele>
        <time>2014-03-02T11:06:38Z</time>
      </trkpt>
      <trkpt lat="41.611508350" lon="2.554386660">
        <ele>284.00</ele>
        <time>2014-03-02T11:06:39Z</time>
      </trkpt>
      <trkpt lat="41.611495110" lon="2.554363360">
        <ele>283.70</ele>
        <time>2014-03-02T11:06:40Z</time>
      </trkpt>
      <trkpt lat="41.611483370" lon="2.554333350">
        <ele>283.60</ele>
        <time>2014-03-02T11:06:41Z</time>
      </trkpt>
      <trkpt lat="41.611470130" lon="2.554298490">
        <ele>283.40</ele>
        <time>2014-03-02T11:06:42Z</time>
      </trkpt>
      <trkpt lat="41.611455040" lon="2.554260100">
        <ele>283.40</ele>
        <time>2014-03-02T11:06:43Z</time>
      </trkpt>
      <trkpt lat="41.611436770" lon="2.554218350">
        <ele>283.30</ele>
        <time>2014-03-02T11:06:44Z</time>
      </trkpt>
      <trkpt lat="41.611420000" lon="2.554175100">
        <ele>282.90</ele>
        <time>2014-03-02T11:06:45Z</time>
      </trkpt>
      <trkpt lat="41.611400060" lon="2.554131690">
        <ele>282.70</ele>
        <time>2014-03-02T11:06:46Z</time>
      </trkpt>
      <trkpt lat="41.611378430" lon="2.554088430">
        <ele>282.50</ele>
        <time>2014-03-02T11:06:47Z</time>
      </trkpt>
      <trkpt lat="41.611355130" lon="2.554048370">
        <ele>282.30</ele>
        <time>2014-03-02T11:06:48Z</time>
      </trkpt>
      <trkpt lat="41.611326800" lon="2.554021710">
        <ele>282.10</ele>
        <time>2014-03-02T11:06:49Z</time>
      </trkpt>
      <trkpt lat="41.611291760" lon="2.554003440">
        <ele>281.40</ele>
        <time>2014-03-02T11:06:50Z</time>
      </trkpt>
      <trkpt lat="41.611258400" lon="2.553985000">
        <ele>280.90</ele>
        <time>2014-03-02T11:06:51Z</time>
      </trkpt>
      <trkpt lat="41.611221690" lon="2.553965050">
        <ele>280.70</ele>
        <time>2014-03-02T11:06:52Z</time>
      </trkpt>
      <trkpt lat="41.611181790" lon="2.553945100">
        <ele>280.50</ele>
        <time>2014-03-02T11:06:53Z</time>
      </trkpt>
      <trkpt lat="41.611143400" lon="2.553925160">
        <ele>280.40</ele>
        <time>2014-03-02T11:06:54Z</time>
      </trkpt>
      <trkpt lat="41.611105010" lon="2.553908390">
        <ele>280.10</ele>
        <time>2014-03-02T11:06:55Z</time>
      </trkpt>
      <trkpt lat="41.611065110" lon="2.553893470">
        <ele>279.90</ele>
        <time>2014-03-02T11:06:56Z</time>
      </trkpt>
      <trkpt lat="41.611020020" lon="2.553888440">
        <ele>279.50</ele>
        <time>2014-03-02T11:06:57Z</time>
      </trkpt>
      <trkpt lat="41.610971740" lon="2.553893470">
        <ele>279.20</ele>
        <time>2014-03-02T11:06:58Z</time>
      </trkpt>
      <trkpt lat="41.610925140" lon="2.553895150">
        <ele>279.00</ele>
        <time>2014-03-02T11:06:59Z</time>
      </trkpt>
      <trkpt lat="41.610873340" lon="2.553895150">
        <ele>278.80</ele>
        <time>2014-03-02T11:07:00Z</time>
      </trkpt>
      <trkpt lat="41.610821700" lon="2.553890120">
        <ele>278.70</ele>
        <time>2014-03-02T11:07:01Z</time>
      </trkpt>
      <trkpt lat="41.610768400" lon="2.553885090">
        <ele>278.50</ele>
        <time>2014-03-02T11:07:02Z</time>
      </trkpt>
      <trkpt lat="41.610721790" lon="2.553876710">
        <ele>278.40</ele>
        <time>2014-03-02T11:07:03Z</time>
      </trkpt>
      <trkpt lat="41.610678370" lon="2.553866820">
        <ele>278.40</ele>
        <time>2014-03-02T11:07:04Z</time>
      </trkpt>
      <trkpt lat="41.610640150" lon="2.553855080">
        <ele>278.30</ele>
        <time>2014-03-02T11:07:05Z</time>
      </trkpt>
      <trkpt lat="41.610601760" lon="2.553838490">
        <ele>278.30</ele>
        <time>2014-03-02T11:07:06Z</time>
      </trkpt>
      <trkpt lat="41.610565050" lon="2.553820050">
        <ele>277.90</ele>
        <time>2014-03-02T11:07:07Z</time>
      </trkpt>
      <trkpt lat="41.610528340" lon="2.553803450">
        <ele>277.60</ele>
        <time>2014-03-02T11:07:08Z</time>
      </trkpt>
      <trkpt lat="41.610490120" lon="2.553795070">
        <ele>277.40</ele>
        <time>2014-03-02T11:07:09Z</time>
      </trkpt>
      <trkpt lat="41.610453400" lon="2.553791720">
        <ele>277.30</ele>
        <time>2014-03-02T11:07:10Z</time>
      </trkpt>
      <trkpt lat="41.610416690" lon="2.553786690">
        <ele>276.90</ele>
        <time>2014-03-02T11:07:11Z</time>
      </trkpt>
      <trkpt lat="41.610380150" lon="2.553788360">
        <ele>276.70</ele>
        <time>2014-03-02T11:07:12Z</time>
      </trkpt>
      <trkpt lat="41.610343430" lon="2.553791720">
        <ele>276.50</ele>
        <time>2014-03-02T11:07:13Z</time>
      </trkpt>
      <trkpt lat="41.610310070" lon="2.553793390">
        <ele>276.10</ele>
        <time>2014-03-02T11:07:14Z</time>
      </trkpt>
      <trkpt lat="41.610276710" lon="2.553796740">
        <ele>275.80</ele>
        <time>2014-03-02T11:07:15Z</time>
      </trkpt>
      <trkpt lat="41.610243350" lon="2.553796740">
        <ele>275.90</ele>
        <time>2014-03-02T11:07:16Z</time>
      </trkpt>
      <trkpt lat="41.610208480" lon="2.553798420">
        <ele>276.00</ele>
        <time>2014-03-02T11:07:17Z</time>
      </trkpt>
      <trkpt lat="41.610176800" lon="2.553798420">
        <ele>276.00</ele>
        <time>2014-03-02T11:07:18Z</time>
      </trkpt>
      <trkpt lat="41.610146790" lon="2.553798420">
        <ele>276.00</ele>
        <time>2014-03-02T11:07:19Z</time>
      </trkpt>
      <trkpt lat="41.610115110" lon="2.553798420">
        <ele>276.00</ele>
        <time>2014-03-02T11:07:20Z</time>
      </trkpt>
      <trkpt lat="41.610081750" lon="2.553798420">
        <ele>276.10</ele>
        <time>2014-03-02T11:07:21Z</time>
      </trkpt>
      <trkpt lat="41.610050070" lon="2.553795070">
        <ele>276.30</ele>
        <time>2014-03-02T11:07:22Z</time>
      </trkpt>
      <trkpt lat="41.610018380" lon="2.553793390">
        <ele>276.20</ele>
        <time>2014-03-02T11:07:23Z</time>
      </trkpt>
      <trkpt lat="41.609988380" lon="2.553788360">
        <ele>276.10</ele>
        <time>2014-03-02T11:07:24Z</time>
      </trkpt>
      <trkpt lat="41.609960040" lon="2.553781820">
        <ele>276.10</ele>
        <time>2014-03-02T11:07:25Z</time>
      </trkpt>
      <trkpt lat="41.609933390" lon="2.553775120">
        <ele>276.10</ele>
        <time>2014-03-02T11:07:26Z</time>
      </trkpt>
      <trkpt lat="41.609903380" lon="2.553768410">
        <ele>276.20</ele>
        <time>2014-03-02T11:07:27Z</time>
      </trkpt>
      <trkpt lat="41.609875050" lon="2.553761710">
        <ele>276.10</ele>
        <time>2014-03-02T11:07:28Z</time>
      </trkpt>
      <trkpt lat="41.609843370" lon="2.553756680">
        <ele>276.10</ele>
        <time>2014-03-02T11:07:29Z</time>
      </trkpt>
      <trkpt lat="41.609811680" lon="2.553756680">
        <ele>275.80</ele>
        <time>2014-03-02T11:07:30Z</time>
      </trkpt>
      <trkpt lat="41.609781680" lon="2.553758360">
        <ele>275.50</ele>
        <time>2014-03-02T11:07:31Z</time>
      </trkpt>
      <trkpt lat="41.609750160" lon="2.553760030">
        <ele>275.40</ele>
        <time>2014-03-02T11:07:32Z</time>
      </trkpt>
      <trkpt lat="41.609718480" lon="2.553761710">
        <ele>275.50</ele>
        <time>2014-03-02T11:07:33Z</time>
      </trkpt>
      <trkpt lat="41.609688470" lon="2.553771770">
        <ele>275.60</ele>
        <time>2014-03-02T11:07:34Z</time>
      </trkpt>
      <trkpt lat="41.609656790" lon="2.553786690">
        <ele>275.40</ele>
        <time>2014-03-02T11:07:35Z</time>
      </trkpt>
      <trkpt lat="41.609630130" lon="2.553801770">
        <ele>275.30</ele>
        <time>2014-03-02T11:07:36Z</time>
      </trkpt>
      <trkpt lat="41.609603480" lon="2.553820050">
        <ele>275.60</ele>
        <time>2014-03-02T11:07:37Z</time>
      </trkpt>
      <trkpt lat="41.609580010" lon="2.553840000">
        <ele>275.80</ele>
        <time>2014-03-02T11:07:38Z</time>
      </trkpt>
      <trkpt lat="41.609556710" lon="2.553858440">
        <ele>276.00</ele>
        <time>2014-03-02T11:07:39Z</time>
      </trkpt>
      <trkpt lat="41.609535080" lon="2.553875030">
        <ele>276.00</ele>
        <time>2014-03-02T11:07:40Z</time>
      </trkpt>
      <trkpt lat="41.609513460" lon="2.553893470">
        <ele>275.90</ele>
        <time>2014-03-02T11:07:41Z</time>
      </trkpt>
      <trkpt lat="41.609491660" lon="2.553908390">
        <ele>276.00</ele>
        <time>2014-03-02T11:07:42Z</time>
      </trkpt>
      <trkpt lat="41.609471710" lon="2.553925160">
        <ele>276.10</ele>
        <time>2014-03-02T11:07:43Z</time>
      </trkpt>
      <trkpt lat="41.609448410" lon="2.553941750">
        <ele>276.10</ele>
        <time>2014-03-02T11:07:44Z</time>
      </trkpt>
      <trkpt lat="41.609426790" lon="2.553963380">
        <ele>276.40</ele>
        <time>2014-03-02T11:07:45Z</time>
      </trkpt>
      <trkpt lat="41.609400130" lon="2.553988350">
        <ele>276.60</ele>
        <time>2014-03-02T11:07:46Z</time>
      </trkpt>
      <trkpt lat="41.609368450" lon="2.554008470">
        <ele>276.30</ele>
        <time>2014-03-02T11:07:47Z</time>
      </trkpt>
      <trkpt lat="41.609333410" lon="2.554028420">
        <ele>276.20</ele>
        <time>2014-03-02T11:07:48Z</time>
      </trkpt>
      <trkpt lat="41.609296700" lon="2.554045020">
        <ele>276.00</ele>
        <time>2014-03-02T11:07:49Z</time>
      </trkpt>
      <trkpt lat="41.609261660" lon="2.554053400">
        <ele>275.90</ele>
        <time>2014-03-02T11:07:50Z</time>
      </trkpt>
      <trkpt lat="41.609225120" lon="2.554046690">
        <ele>275.70</ele>
        <time>2014-03-02T11:07:51Z</time>
      </trkpt>
      <trkpt lat="41.609180020" lon="2.554030100">
        <ele>275.60</ele>
        <time>2014-03-02T11:07:52Z</time>
      </trkpt>
      <trkpt lat="41.609131740" lon="2.554013330">
        <ele>275.50</ele>
        <time>2014-03-02T11:07:53Z</time>
      </trkpt>
      <trkpt lat="41.609085140" lon="2.554003440">
        <ele>275.00</ele>
        <time>2014-03-02T11:07:54Z</time>
      </trkpt>
      <trkpt lat="41.609041720" lon="2.553996740">
        <ele>274.70</ele>
        <time>2014-03-02T11:07:55Z</time>
      </trkpt>
      <trkpt lat="41.609000150" lon="2.553985000">
        <ele>274.40</ele>
        <time>2014-03-02T11:07:56Z</time>
      </trkpt>
      <trkpt lat="41.608955050" lon="2.553975110">
        <ele>274.20</ele>
        <time>2014-03-02T11:07:57Z</time>
      </trkpt>
      <trkpt lat="41.608908450" lon="2.553963380">
        <ele>274.00</ele>
        <time>2014-03-02T11:07:58Z</time>
      </trkpt>
      <trkpt lat="41.608863360" lon="2.553945100">
        <ele>273.40</ele>
        <time>2014-03-02T11:07:59Z</time>
      </trkpt>
      <trkpt lat="41.608823460" lon="2.553928340">
        <ele>272.90</ele>
        <time>2014-03-02T11:08:00Z</time>
      </trkpt>
      <trkpt lat="41.608785070" lon="2.553915100">
        <ele>272.10</ele>
        <time>2014-03-02T11:08:01Z</time>
      </trkpt>
      <trkpt lat="41.608748360" lon="2.553891800">
        <ele>271.60</ele>
        <time>2014-03-02T11:08:02Z</time>
      </trkpt>
      <trkpt lat="41.608708460" lon="2.553871680">
        <ele>271.20</ele>
        <time>2014-03-02T11:08:03Z</time>
      </trkpt>
      <trkpt lat="41.608665040" lon="2.553850050">
        <ele>270.80</ele>
        <time>2014-03-02T11:08:04Z</time>
      </trkpt>
      <trkpt lat="41.608620110" lon="2.553826750">
        <ele>270.60</ele>
        <time>2014-03-02T11:08:05Z</time>
      </trkpt>
      <trkpt lat="41.608568480" lon="2.553800100">
        <ele>269.90</ele>
        <time>2014-03-02T11:08:06Z</time>
      </trkpt>
      <trkpt lat="41.608513500" lon="2.553770090">
        <ele>269.40</ele>
        <time>2014-03-02T11:08:07Z</time>
      </trkpt>
      <trkpt lat="41.608461700" lon="2.553733380">
        <ele>268.70</ele>
        <time>2014-03-02T11:08:08Z</time>
      </trkpt>
      <trkpt lat="41.608410060" lon="2.553691800">
        <ele>268.20</ele>
        <time>2014-03-02T11:08:09Z</time>
      </trkpt>
      <trkpt lat="41.608361780" lon="2.553646710">
        <ele>267.90</ele>
        <time>2014-03-02T11:08:10Z</time>
      </trkpt>
      <trkpt lat="41.608313340" lon="2.553608490">
        <ele>267.40</ele>
        <time>2014-03-02T11:08:11Z</time>
      </trkpt>
      <trkpt lat="41.608265060" lon="2.553576800">
        <ele>267.00</ele>
        <time>2014-03-02T11:08:12Z</time>
      </trkpt>
      <trkpt lat="41.608218450" lon="2.553550150">
        <ele>266.30</ele>
        <time>2014-03-02T11:08:13Z</time>
      </trkpt>
      <trkpt lat="41.608171680" lon="2.553516790">
        <ele>265.80</ele>
        <time>2014-03-02T11:08:14Z</time>
      </trkpt>
      <trkpt lat="41.608120050" lon="2.553480080">
        <ele>265.20</ele>
        <time>2014-03-02T11:08:15Z</time>
      </trkpt>
      <trkpt lat="41.608071770" lon="2.553451750">
        <ele>264.70</ele>
        <time>2014-03-02T11:08:16Z</time>
      </trkpt>
      <trkpt lat="41.608016780" lon="2.553420060">
        <ele>264.30</ele>
        <time>2014-03-02T11:08:17Z</time>
      </trkpt>
      <trkpt lat="41.607961800" lon="2.553383350">
        <ele>263.60</ele>
        <time>2014-03-02T11:08:18Z</time>
      </trkpt>
      <trkpt lat="41.607905140" lon="2.553348480">
        <ele>263.00</ele>
        <time>2014-03-02T11:08:19Z</time>
      </trkpt>
      <trkpt lat="41.607850150" lon="2.553315120">
        <ele>262.40</ele>
        <time>2014-03-02T11:08:20Z</time>
      </trkpt>
      <trkpt lat="41.607798350" lon="2.553285110">
        <ele>262.00</ele>
        <time>2014-03-02T11:08:21Z</time>
      </trkpt>
      <trkpt lat="41.607750070" lon="2.553256780">
        <ele>261.60</ele>
        <time>2014-03-02T11:08:22Z</time>
      </trkpt>
      <trkpt lat="41.607705140" lon="2.553230130">
        <ele>261.30</ele>
        <time>2014-03-02T11:08:23Z</time>
      </trkpt>
      <trkpt lat="41.607663400" lon="2.553201800">
        <ele>261.10</ele>
        <time>2014-03-02T11:08:24Z</time>
      </trkpt>
      <trkpt lat="41.607623340" lon="2.553171790">
        <ele>260.90</ele>
        <time>2014-03-02T11:08:25Z</time>
      </trkpt>
      <trkpt lat="41.607588470" lon="2.553141780">
        <ele>260.70</ele>
        <time>2014-03-02T11:08:26Z</time>
      </trkpt>
      <trkpt lat="41.607551760" lon="2.553111780">
        <ele>260.40</ele>
        <time>2014-03-02T11:08:27Z</time>
      </trkpt>
      <trkpt lat="41.607516720" lon="2.553085120">
        <ele>260.10</ele>
        <time>2014-03-02T11:08:28Z</time>
      </trkpt>
      <trkpt lat="41.607481680" lon="2.553058470">
        <ele>259.90</ele>
        <time>2014-03-02T11:08:29Z</time>
      </trkpt>
      <trkpt lat="41.607448490" lon="2.553031810">
        <ele>259.90</ele>
        <time>2014-03-02T11:08:30Z</time>
      </trkpt>
      <trkpt lat="41.607416810" lon="2.553006670">
        <ele>259.90</ele>
        <time>2014-03-02T11:08:31Z</time>
      </trkpt>
      <trkpt lat="41.607383450" lon="2.552980010">
        <ele>259.70</ele>
        <time>2014-03-02T11:08:32Z</time>
      </trkpt>
      <trkpt lat="41.607350090" lon="2.552960060">
        <ele>259.60</ele>
        <time>2014-03-02T11:08:33Z</time>
      </trkpt>
      <trkpt lat="41.607316730" lon="2.552948500">
        <ele>259.80</ele>
        <time>2014-03-02T11:08:34Z</time>
      </trkpt>
      <trkpt lat="41.607286720" lon="2.552943470">
        <ele>259.90</ele>
        <time>2014-03-02T11:08:35Z</time>
      </trkpt>
      <trkpt lat="41.607253360" lon="2.552946820">
        <ele>260.00</ele>
        <time>2014-03-02T11:08:36Z</time>
      </trkpt>
      <trkpt lat="41.607220000" lon="2.552953360">
        <ele>260.30</ele>
        <time>2014-03-02T11:08:37Z</time>
      </trkpt>
      <trkpt lat="41.607186810" lon="2.552960060">
        <ele>260.60</ele>
        <time>2014-03-02T11:08:38Z</time>
      </trkpt>
      <trkpt lat="41.607148420" lon="2.552963420">
        <ele>260.70</ele>
        <time>2014-03-02T11:08:39Z</time>
      </trkpt>
      <trkpt lat="41.607113380" lon="2.552961740">
        <ele>260.80</ele>
        <time>2014-03-02T11:08:40Z</time>
      </trkpt>
      <trkpt lat="41.607078350" lon="2.552963420">
        <ele>260.80</ele>
        <time>2014-03-02T11:08:41Z</time>
      </trkpt>
      <trkpt lat="41.607043480" lon="2.552963420">
        <ele>260.90</ele>
        <time>2014-03-02T11:08:42Z</time>
      </trkpt>
      <trkpt lat="41.607010120" lon="2.552965090">
        <ele>261.00</ele>
        <time>2014-03-02T11:08:43Z</time>
      </trkpt>
      <trkpt lat="41.606978430" lon="2.552968440">
        <ele>261.20</ele>
        <time>2014-03-02T11:08:44Z</time>
      </trkpt>
      <trkpt lat="41.606946750" lon="2.552975150">
        <ele>261.30</ele>
        <time>2014-03-02T11:08:45Z</time>
      </trkpt>
      <trkpt lat="41.606915070" lon="2.552978340">
        <ele>261.90</ele>
        <time>2014-03-02T11:08:46Z</time>
      </trkpt>
      <trkpt lat="41.606883380" lon="2.552985040">
        <ele>262.30</ele>
        <time>2014-03-02T11:08:47Z</time>
      </trkpt>
      <trkpt lat="41.606853380" lon="2.552990070">
        <ele>262.60</ele>
        <time>2014-03-02T11:08:48Z</time>
      </trkpt>
      <trkpt lat="41.606825040" lon="2.552998450">
        <ele>262.70</ele>
        <time>2014-03-02T11:08:49Z</time>
      </trkpt>
      <trkpt lat="41.606800070" lon="2.553010020">
        <ele>262.80</ele>
        <time>2014-03-02T11:08:50Z</time>
      </trkpt>
      <trkpt lat="41.606778440" lon="2.553025110">
        <ele>262.90</ele>
        <time>2014-03-02T11:08:51Z</time>
      </trkpt>
      <trkpt lat="41.606755140" lon="2.553043380">
        <ele>263.00</ele>
        <time>2014-03-02T11:08:52Z</time>
      </trkpt>
      <trkpt lat="41.606731670" lon="2.553063500">
        <ele>263.60</ele>
        <time>2014-03-02T11:08:53Z</time>
      </trkpt>
      <trkpt lat="41.606705020" lon="2.553086800">
        <ele>264.00</ele>
        <time>2014-03-02T11:08:54Z</time>
      </trkpt>
      <trkpt lat="41.606676690" lon="2.553116800">
        <ele>264.40</ele>
        <time>2014-03-02T11:08:55Z</time>
      </trkpt>
      <trkpt lat="41.606646680" lon="2.553148490">
        <ele>264.20</ele>
        <time>2014-03-02T11:08:56Z</time>
      </trkpt>
      <trkpt lat="41.606618350" lon="2.553188390">
        <ele>264.00</ele>
        <time>2014-03-02T11:08:57Z</time>
      </trkpt>
      <trkpt lat="41.606586660" lon="2.553231800">
        <ele>264.20</ele>
        <time>2014-03-02T11:08:58Z</time>
      </trkpt>
      <trkpt lat="41.606553470" lon="2.553275050">
        <ele>264.30</ele>
        <time>2014-03-02T11:08:59Z</time>
      </trkpt>
      <trkpt lat="41.606516760" lon="2.553313440">
        <ele>264.40</ele>
        <time>2014-03-02T11:09:00Z</time>
      </trkpt>
      <trkpt lat="41.606473340" lon="2.553346800">
        <ele>264.00</ele>
        <time>2014-03-02T11:09:01Z</time>
      </trkpt>
      <trkpt lat="41.606423380" lon="2.553370110">
        <ele>263.80</ele>
        <time>2014-03-02T11:09:02Z</time>
      </trkpt>
      <trkpt lat="41.606368400" lon="2.553388380">
        <ele>263.40</ele>
        <time>2014-03-02T11:09:03Z</time>
      </trkpt>
      <trkpt lat="41.606310060" lon="2.553410000">
        <ele>263.00</ele>
        <time>2014-03-02T11:09:04Z</time>
      </trkpt>
      <trkpt lat="41.606250050" lon="2.553430120">
        <ele>262.50</ele>
        <time>2014-03-02T11:09:05Z</time>
      </trkpt>
      <trkpt lat="41.606191710" lon="2.553455100">
        <ele>262.10</ele>
        <time>2014-03-02T11:09:06Z</time>
      </trkpt>
      <trkpt lat="41.606141750" lon="2.553493490">
        <ele>261.80</ele>
        <time>2014-03-02T11:09:07Z</time>
      </trkpt>
      <trkpt lat="41.606095150" lon="2.553546800">
        <ele>261.60</ele>
        <time>2014-03-02T11:09:08Z</time>
      </trkpt>
      <trkpt lat="41.606051730" lon="2.553595080">
        <ele>261.50</ele>
        <time>2014-03-02T11:09:09Z</time>
      </trkpt>
      <trkpt lat="41.606008480" lon="2.553636820">
        <ele>260.80</ele>
        <time>2014-03-02T11:09:10Z</time>
      </trkpt>
      <trkpt lat="41.605963390" lon="2.553663470">
        <ele>260.30</ele>
        <time>2014-03-02T11:09:11Z</time>
      </trkpt>
      <trkpt lat="41.605911750" lon="2.553683420">
        <ele>260.00</ele>
        <time>2014-03-02T11:09:12Z</time>
      </trkpt>
      <trkpt lat="41.605855090" lon="2.553701690">
        <ele>259.80</ele>
        <time>2014-03-02T11:09:13Z</time>
      </trkpt>
      <trkpt lat="41.605798430" lon="2.553715100">
        <ele>259.60</ele>
        <time>2014-03-02T11:09:14Z</time>
      </trkpt>
      <trkpt lat="41.605741770" lon="2.553720130">
        <ele>259.30</ele>
        <time>2014-03-02T11:09:15Z</time>
      </trkpt>
      <trkpt lat="41.605695000" lon="2.553735050">
        <ele>259.00</ele>
        <time>2014-03-02T11:09:16Z</time>
      </trkpt>
      <trkpt lat="41.605660130" lon="2.553763380">
        <ele>258.30</ele>
        <time>2014-03-02T11:09:17Z</time>
      </trkpt>
      <trkpt lat="41.605631800" lon="2.553796740">
        <ele>257.70</ele>
        <time>2014-03-02T11:09:18Z</time>
      </trkpt>
      <trkpt lat="41.605600110" lon="2.553826750">
        <ele>257.20</ele>
        <time>2014-03-02T11:09:19Z</time>
      </trkpt>
      <trkpt lat="41.605561720" lon="2.553856760">
        <ele>256.80</ele>
        <time>2014-03-02T11:09:20Z</time>
      </trkpt>
      <trkpt lat="41.605523340" lon="2.553890120">
        <ele>256.50</ele>
        <time>2014-03-02T11:09:21Z</time>
      </trkpt>
      <trkpt lat="41.605486790" lon="2.553925160">
        <ele>256.20</ele>
        <time>2014-03-02T11:09:22Z</time>
      </trkpt>
      <trkpt lat="41.605448400" lon="2.553958350">
        <ele>256.00</ele>
        <time>2014-03-02T11:09:23Z</time>
      </trkpt>
      <trkpt lat="41.605415040" lon="2.553991710">
        <ele>255.30</ele>
        <time>2014-03-02T11:09:24Z</time>
      </trkpt>
      <trkpt lat="41.605385030" lon="2.554026740">
        <ele>254.70</ele>
        <time>2014-03-02T11:09:25Z</time>
      </trkpt>
      <trkpt lat="41.605361730" lon="2.554053400">
        <ele>254.30</ele>
        <time>2014-03-02T11:09:26Z</time>
      </trkpt>
      <trkpt lat="41.605340110" lon="2.554073350">
        <ele>254.20</ele>
        <time>2014-03-02T11:09:27Z</time>
      </trkpt>
      <trkpt lat="41.605320160" lon="2.554090110">
        <ele>254.10</ele>
        <time>2014-03-02T11:09:28Z</time>
      </trkpt>
      <trkpt lat="41.605300040" lon="2.554106710">
        <ele>254.10</ele>
        <time>2014-03-02T11:09:29Z</time>
      </trkpt>
      <trkpt lat="41.605283450" lon="2.554126820">
        <ele>254.10</ele>
        <time>2014-03-02T11:09:30Z</time>
      </trkpt>
      <trkpt lat="41.605268360" lon="2.554151800">
        <ele>253.70</ele>
        <time>2014-03-02T11:09:31Z</time>
      </trkpt>
      <trkpt lat="41.605251760" lon="2.554178460">
        <ele>253.50</ele>
        <time>2014-03-02T11:09:32Z</time>
      </trkpt>
      <trkpt lat="41.605233490" lon="2.554208460">
        <ele>253.30</ele>
        <time>2014-03-02T11:09:33Z</time>
      </trkpt>
      <trkpt lat="41.605215050" lon="2.554243330">
        <ele>253.40</ele>
        <time>2014-03-02T11:09:34Z</time>
      </trkpt>
      <trkpt lat="41.605203480" lon="2.554281720">
        <ele>253.60</ele>
        <time>2014-03-02T11:09:35Z</time>
      </trkpt>
      <trkpt lat="41.605193420" lon="2.554318430">
        <ele>253.70</ele>
        <time>2014-03-02T11:09:36Z</time>
      </trkpt>
      <trkpt lat="41.605180010" lon="2.554353470">
        <ele>253.70</ele>
        <time>2014-03-02T11:09:37Z</time>
      </trkpt>
      <trkpt lat="41.605165090" lon="2.554385150">
        <ele>253.50</ele>
        <time>2014-03-02T11:09:38Z</time>
      </trkpt>
      <trkpt lat="41.605151680" lon="2.554416670">
        <ele>253.30</ele>
        <time>2014-03-02T11:09:39Z</time>
      </trkpt>
      <trkpt lat="41.605135090" lon="2.554450030">
        <ele>253.20</ele>
        <time>2014-03-02T11:09:40Z</time>
      </trkpt>
      <trkpt lat="41.605120000" lon="2.554481710">
        <ele>253.50</ele>
        <time>2014-03-02T11:09:41Z</time>
      </trkpt>
      <trkpt lat="41.605106750" lon="2.554510040">
        <ele>253.80</ele>
        <time>2014-03-02T11:09:42Z</time>
      </trkpt>
      <trkpt lat="41.605090160" lon="2.554536700">
        <ele>254.00</ele>
        <time>2014-03-02T11:09:43Z</time>
      </trkpt>
      <trkpt lat="41.605075070" lon="2.554568380">
        <ele>254.10</ele>
        <time>2014-03-02T11:09:44Z</time>
      </trkpt>
      <trkpt lat="41.605061830" lon="2.554596710">
        <ele>254.20</ele>
        <time>2014-03-02T11:09:45Z</time>
      </trkpt>
      <trkpt lat="41.605051770" lon="2.554623370">
        <ele>254.40</ele>
        <time>2014-03-02T11:09:46Z</time>
      </trkpt>
      <trkpt lat="41.605043390" lon="2.554655050">
        <ele>254.60</ele>
        <time>2014-03-02T11:09:47Z</time>
      </trkpt>
      <trkpt lat="41.605036680" lon="2.554693440">
        <ele>254.40</ele>
        <time>2014-03-02T11:09:48Z</time>
      </trkpt>
      <trkpt lat="41.605025120" lon="2.554740040">
        <ele>254.30</ele>
        <time>2014-03-02T11:09:49Z</time>
      </trkpt>
      <trkpt lat="41.605015060" lon="2.554791680">
        <ele>254.40</ele>
        <time>2014-03-02T11:09:50Z</time>
      </trkpt>
      <trkpt lat="41.605000140" lon="2.554845150">
        <ele>254.40</ele>
        <time>2014-03-02T11:09:51Z</time>
      </trkpt>
      <trkpt lat="41.604975160" lon="2.554883370">
        <ele>254.40</ele>
        <time>2014-03-02T11:09:52Z</time>
      </trkpt>
      <trkpt lat="41.604943480" lon="2.554915060">
        <ele>254.60</ele>
        <time>2014-03-02T11:09:53Z</time>
      </trkpt>
      <trkpt lat="41.604906760" lon="2.554933330">
        <ele>254.80</ele>
        <time>2014-03-02T11:09:54Z</time>
      </trkpt>
      <trkpt lat="41.604858480" lon="2.554943390">
        <ele>254.70</ele>
        <time>2014-03-02T11:09:55Z</time>
      </trkpt>
      <trkpt lat="41.604803330" lon="2.554958480">
        <ele>254.60</ele>
        <time>2014-03-02T11:09:56Z</time>
      </trkpt>
      <trkpt lat="41.604750020" lon="2.554968370">
        <ele>254.20</ele>
        <time>2014-03-02T11:09:57Z</time>
      </trkpt>
      <trkpt lat="41.604700060" lon="2.554975070">
        <ele>254.00</ele>
        <time>2014-03-02T11:09:58Z</time>
      </trkpt>
      <trkpt lat="41.604656810" lon="2.554968370">
        <ele>253.70</ele>
        <time>2014-03-02T11:09:59Z</time>
      </trkpt>
      <trkpt lat="41.604626810" lon="2.554945070">
        <ele>252.90</ele>
        <time>2014-03-02T11:10:00Z</time>
      </trkpt>
      <trkpt lat="41.604605010" lon="2.554906680">
        <ele>252.20</ele>
        <time>2014-03-02T11:10:01Z</time>
      </trkpt>
      <trkpt lat="41.604588420" lon="2.554860070">
        <ele>251.40</ele>
        <time>2014-03-02T11:10:02Z</time>
      </trkpt>
      <trkpt lat="41.604570150" lon="2.554815150">
        <ele>250.90</ele>
        <time>2014-03-02T11:10:03Z</time>
      </trkpt>
      <trkpt lat="41.604538460" lon="2.554788490">
        <ele>250.40</ele>
        <time>2014-03-02T11:10:04Z</time>
      </trkpt>
      <trkpt lat="41.604501750" lon="2.554776760">
        <ele>249.70</ele>
        <time>2014-03-02T11:10:05Z</time>
      </trkpt>
      <trkpt lat="41.604458330" lon="2.554773400">
        <ele>249.20</ele>
        <time>2014-03-02T11:10:06Z</time>
      </trkpt>
      <trkpt lat="41.604411730" lon="2.554770050">
        <ele>248.80</ele>
        <time>2014-03-02T11:10:07Z</time>
      </trkpt>
      <trkpt lat="41.604360090" lon="2.554766700">
        <ele>248.50</ele>
        <time>2014-03-02T11:10:08Z</time>
      </trkpt>
      <trkpt lat="41.604311820" lon="2.554761670">
        <ele>247.90</ele>
        <time>2014-03-02T11:10:09Z</time>
      </trkpt>
      <trkpt lat="41.604263370" lon="2.554766700">
        <ele>247.40</ele>
        <time>2014-03-02T11:10:10Z</time>
      </trkpt>
      <trkpt lat="41.604213410" lon="2.554771730">
        <ele>247.10</ele>
        <time>2014-03-02T11:10:11Z</time>
      </trkpt>
      <trkpt lat="41.604166810" lon="2.554773400">
        <ele>246.30</ele>
        <time>2014-03-02T11:10:12Z</time>
      </trkpt>
      <trkpt lat="41.604125070" lon="2.554775080">
        <ele>245.70</ele>
        <time>2014-03-02T11:10:13Z</time>
      </trkpt>
      <trkpt lat="41.604078460" lon="2.554780110">
        <ele>244.60</ele>
        <time>2014-03-02T11:10:14Z</time>
      </trkpt>
      <trkpt lat="41.604031690" lon="2.554796710">
        <ele>243.80</ele>
        <time>2014-03-02T11:10:15Z</time>
      </trkpt>
      <trkpt lat="41.603988440" lon="2.554830070">
        <ele>243.30</ele>
        <time>2014-03-02T11:10:16Z</time>
      </trkpt>
      <trkpt lat="41.603940160" lon="2.554863430">
        <ele>242.80</ele>
        <time>2014-03-02T11:10:17Z</time>
      </trkpt>
      <trkpt lat="41.603888360" lon="2.554888400">
        <ele>242.50</ele>
        <time>2014-03-02T11:10:18Z</time>
      </trkpt>
      <trkpt lat="41.603838410" lon="2.554916730">
        <ele>242.00</ele>
        <time>2014-03-02T11:10:19Z</time>
      </trkpt>
      <trkpt lat="41.603793480" lon="2.554946740">
        <ele>241.70</ele>
        <time>2014-03-02T11:10:20Z</time>
      </trkpt>
      <trkpt lat="41.603753410" lon="2.554973400">
        <ele>241.20</ele>
        <time>2014-03-02T11:10:21Z</time>
      </trkpt>
      <trkpt lat="41.603716700" lon="2.554991670">
        <ele>240.80</ele>
        <time>2014-03-02T11:10:22Z</time>
      </trkpt>
      <trkpt lat="41.603678480" lon="2.555001730">
        <ele>240.50</ele>
        <time>2014-03-02T11:10:23Z</time>
      </trkpt>
      <trkpt lat="41.603636740" lon="2.555010110">
        <ele>240.20</ele>
        <time>2014-03-02T11:10:24Z</time>
      </trkpt>
      <trkpt lat="41.603593490" lon="2.555015140">
        <ele>240.00</ele>
        <time>2014-03-02T11:10:25Z</time>
      </trkpt>
      <trkpt lat="41.603548390" lon="2.555018490">
        <ele>240.10</ele>
        <time>2014-03-02T11:10:26Z</time>
      </trkpt>
      <trkpt lat="41.603508490" lon="2.555015140">
        <ele>240.20</ele>
        <time>2014-03-02T11:10:27Z</time>
      </trkpt>
      <trkpt lat="41.603473460" lon="2.555018490">
        <ele>239.70</ele>
        <time>2014-03-02T11:10:28Z</time>
      </trkpt>
      <trkpt lat="41.603438420" lon="2.555026710">
        <ele>239.40</ele>
        <time>2014-03-02T11:10:29Z</time>
      </trkpt>
      <trkpt lat="41.603401710" lon="2.555033410">
        <ele>239.10</ele>
        <time>2014-03-02T11:10:30Z</time>
      </trkpt>
      <trkpt lat="41.603368350" lon="2.555051680">
        <ele>238.90</ele>
        <time>2014-03-02T11:10:31Z</time>
      </trkpt>
      <trkpt lat="41.603330130" lon="2.555071800">
        <ele>238.70</ele>
        <time>2014-03-02T11:10:32Z</time>
      </trkpt>
      <trkpt lat="41.603298440" lon="2.555083370">
        <ele>238.40</ele>
        <time>2014-03-02T11:10:33Z</time>
      </trkpt>
      <trkpt lat="41.603266760" lon="2.555093420">
        <ele>238.20</ele>
        <time>2014-03-02T11:10:34Z</time>
      </trkpt>
      <trkpt lat="41.603236750" lon="2.555110020">
        <ele>237.60</ele>
        <time>2014-03-02T11:10:35Z</time>
      </trkpt>
      <trkpt lat="41.603205070" lon="2.555133490">
        <ele>237.20</ele>
        <time>2014-03-02T11:10:36Z</time>
      </trkpt>
      <trkpt lat="41.603171710" lon="2.555160140">
        <ele>236.90</ele>
        <time>2014-03-02T11:10:37Z</time>
      </trkpt>
      <trkpt lat="41.603135000" lon="2.555181770">
        <ele>236.30</ele>
        <time>2014-03-02T11:10:38Z</time>
      </trkpt>
      <trkpt lat="41.603098450" lon="2.555205070">
        <ele>236.00</ele>
        <time>2014-03-02T11:10:39Z</time>
      </trkpt>
      <trkpt lat="41.603060060" lon="2.555228370">
        <ele>235.70</ele>
        <time>2014-03-02T11:10:40Z</time>
      </trkpt>
      <trkpt lat="41.603018490" lon="2.555248490">
        <ele>235.60</ele>
        <time>2014-03-02T11:10:41Z</time>
      </trkpt>
      <trkpt lat="41.602980100" lon="2.555275140">
        <ele>235.40</ele>
        <time>2014-03-02T11:10:42Z</time>
      </trkpt>
      <trkpt lat="41.602945060" lon="2.555311690">
        <ele>235.00</ele>
        <time>2014-03-02T11:10:43Z</time>
      </trkpt>
      <trkpt lat="41.602918410" lon="2.555355110">
        <ele>234.60</ele>
        <time>2014-03-02T11:10:44Z</time>
      </trkpt>
      <trkpt lat="41.602891750" lon="2.555393330">
        <ele>234.30</ele>
        <time>2014-03-02T11:10:45Z</time>
      </trkpt>
      <trkpt lat="41.602860070" lon="2.555423340">
        <ele>234.10</ele>
        <time>2014-03-02T11:10:46Z</time>
      </trkpt>
      <trkpt lat="41.602821680" lon="2.555441780">
        <ele>233.80</ele>
        <time>2014-03-02T11:10:47Z</time>
      </trkpt>
      <trkpt lat="41.602781780" lon="2.555445130">
        <ele>233.50</ele>
        <time>2014-03-02T11:10:48Z</time>
      </trkpt>
      <trkpt lat="41.602741720" lon="2.555438420">
        <ele>233.30</ele>
        <time>2014-03-02T11:10:49Z</time>
      </trkpt>
      <trkpt lat="41.602698470" lon="2.555426690">
        <ele>233.40</ele>
        <time>2014-03-02T11:10:50Z</time>
      </trkpt>
      <trkpt lat="41.602660080" lon="2.555406740">
        <ele>233.50</ele>
        <time>2014-03-02T11:10:51Z</time>
      </trkpt>
      <trkpt lat="41.602628390" lon="2.555383440">
        <ele>233.40</ele>
        <time>2014-03-02T11:10:52Z</time>
      </trkpt>
      <trkpt lat="41.602605090" lon="2.555368350">
        <ele>233.30</ele>
        <time>2014-03-02T11:10:53Z</time>
      </trkpt>
      <trkpt lat="41.602568380" lon="2.555360140">
        <ele>232.90</ele>
        <time>2014-03-02T11:10:54Z</time>
      </trkpt>
      <trkpt lat="41.602533340" lon="2.555341700">
        <ele>232.50</ele>
        <time>2014-03-02T11:10:55Z</time>
      </trkpt>
      <trkpt lat="41.602498470" lon="2.555315040">
        <ele>232.30</ele>
        <time>2014-03-02T11:10:56Z</time>
      </trkpt>
      <trkpt lat="41.602461760" lon="2.555291740">
        <ele>232.20</ele>
        <time>2014-03-02T11:10:57Z</time>
      </trkpt>
      <trkpt lat="41.602421700" lon="2.555281680">
        <ele>232.10</ele>
        <time>2014-03-02T11:10:58Z</time>
      </trkpt>
      <trkpt lat="41.602378450" lon="2.555281680">
        <ele>232.10</ele>
        <time>2014-03-02T11:10:59Z</time>
      </trkpt>
      <trkpt lat="41.602343410" lon="2.555275140">
        <ele>232.10</ele>
        <time>2014-03-02T11:11:00Z</time>
      </trkpt>
      <trkpt lat="41.602321780" lon="2.555261730">
        <ele>232.10</ele>
        <time>2014-03-02T11:11:01Z</time>
      </trkpt>
      <trkpt lat="41.602303340" lon="2.555236760">
        <ele>231.80</ele>
        <time>2014-03-02T11:11:02Z</time>
      </trkpt>
      <trkpt lat="41.602296810" lon="2.555206750">
        <ele>231.60</ele>
        <time>2014-03-02T11:11:03Z</time>
      </trkpt>
      <trkpt lat="41.602291780" lon="2.555176740">
        <ele>231.60</ele>
        <time>2014-03-02T11:11:04Z</time>
      </trkpt>
      <trkpt lat="41.602288420" lon="2.555143380">
        <ele>231.50</ele>
        <time>2014-03-02T11:11:05Z</time>
      </trkpt>
      <trkpt lat="41.602288420" lon="2.555113370">
        <ele>231.30</ele>
        <time>2014-03-02T11:11:06Z</time>
      </trkpt>
      <trkpt lat="41.602285070" lon="2.555078340">
        <ele>231.10</ele>
        <time>2014-03-02T11:11:07Z</time>
      </trkpt>
      <trkpt lat="41.602281720" lon="2.555041790">
        <ele>230.90</ele>
        <time>2014-03-02T11:11:08Z</time>
      </trkpt>
      <trkpt lat="41.602286750" lon="2.555010110">
        <ele>230.70</ele>
        <time>2014-03-02T11:11:09Z</time>
      </trkpt>
      <trkpt lat="41.602295130" lon="2.554983450">
        <ele>230.60</ele>
        <time>2014-03-02T11:11:10Z</time>
      </trkpt>
      <trkpt lat="41.602301670" lon="2.554951770">
        <ele>230.40</ele>
        <time>2014-03-02T11:11:11Z</time>
      </trkpt>
      <trkpt lat="41.602303340" lon="2.554918410">
        <ele>230.30</ele>
        <time>2014-03-02T11:11:12Z</time>
      </trkpt>
      <trkpt lat="41.602301670" lon="2.554885050">
        <ele>230.70</ele>
        <time>2014-03-02T11:11:13Z</time>
      </trkpt>
      <trkpt lat="41.602303340" lon="2.554850010">
        <ele>231.00</ele>
        <time>2014-03-02T11:11:14Z</time>
      </trkpt>
      <trkpt lat="41.602305020" lon="2.554810120">
        <ele>231.20</ele>
        <time>2014-03-02T11:11:15Z</time>
      </trkpt>
      <trkpt lat="41.602308370" lon="2.554766700">
        <ele>231.30</ele>
        <time>2014-03-02T11:11:16Z</time>
      </trkpt>
      <trkpt lat="41.602310050" lon="2.554723450">
        <ele>231.30</ele>
        <time>2014-03-02T11:11:17Z</time>
      </trkpt>
      <trkpt lat="41.602311730" lon="2.554680030">
        <ele>231.30</ele>
        <time>2014-03-02T11:11:18Z</time>
      </trkpt>
      <trkpt lat="41.602310050" lon="2.554638460">
        <ele>231.30</ele>
        <time>2014-03-02T11:11:19Z</time>
      </trkpt>
      <trkpt lat="41.602308370" lon="2.554598390">
        <ele>231.30</ele>
        <time>2014-03-02T11:11:20Z</time>
      </trkpt>
      <trkpt lat="41.602305020" lon="2.554560000">
        <ele>231.30</ele>
        <time>2014-03-02T11:11:21Z</time>
      </trkpt>
      <trkpt lat="41.602300160" lon="2.554523460">
        <ele>231.30</ele>
        <time>2014-03-02T11:11:22Z</time>
      </trkpt>
      <trkpt lat="41.602293450" lon="2.554486740">
        <ele>231.20</ele>
        <time>2014-03-02T11:11:23Z</time>
      </trkpt>
      <trkpt lat="41.602288420" lon="2.554448350">
        <ele>231.20</ele>
        <time>2014-03-02T11:11:24Z</time>
      </trkpt>
      <trkpt lat="41.602283390" lon="2.554408460">
        <ele>231.10</ele>
        <time>2014-03-02T11:11:25Z</time>
      </trkpt>
      <trkpt lat="41.602275010" lon="2.554366710">
        <ele>231.10</ele>
        <time>2014-03-02T11:11:26Z</time>
      </trkpt>
      <trkpt lat="41.602263450" lon="2.554323460">
        <ele>231.20</ele>
        <time>2014-03-02T11:11:27Z</time>
      </trkpt>
      <trkpt lat="41.602253390" lon="2.554278370">
        <ele>231.30</ele>
        <time>2014-03-02T11:11:28Z</time>
      </trkpt>
      <trkpt lat="41.602241820" lon="2.554235120">
        <ele>231.40</ele>
        <time>2014-03-02T11:11:29Z</time>
      </trkpt>
      <trkpt lat="41.602228410" lon="2.554190020">
        <ele>230.90</ele>
        <time>2014-03-02T11:11:30Z</time>
      </trkpt>
      <trkpt lat="41.602218350" lon="2.554148450">
        <ele>230.50</ele>
        <time>2014-03-02T11:11:31Z</time>
      </trkpt>
      <trkpt lat="41.602206780" lon="2.554106710">
        <ele>230.70</ele>
        <time>2014-03-02T11:11:32Z</time>
      </trkpt>
      <trkpt lat="41.602200080" lon="2.554065130">
        <ele>230.70</ele>
        <time>2014-03-02T11:11:33Z</time>
      </trkpt>
      <trkpt lat="41.602201750" lon="2.554023390">
        <ele>230.80</ele>
        <time>2014-03-02T11:11:34Z</time>
      </trkpt>
      <trkpt lat="41.602213490" lon="2.553990030">
        <ele>230.90</ele>
        <time>2014-03-02T11:11:35Z</time>
      </trkpt>
      <trkpt lat="41.602230090" lon="2.553955160">
        <ele>231.00</ele>
        <time>2014-03-02T11:11:36Z</time>
      </trkpt>
      <trkpt lat="41.602241820" lon="2.553921800">
        <ele>231.20</ele>
        <time>2014-03-02T11:11:37Z</time>
      </trkpt>
      <trkpt lat="41.602241820" lon="2.553880060">
        <ele>231.40</ele>
        <time>2014-03-02T11:11:38Z</time>
      </trkpt>
      <trkpt lat="41.602228410" lon="2.553841670">
        <ele>231.50</ele>
        <time>2014-03-02T11:11:39Z</time>
      </trkpt>
      <trkpt lat="41.602205110" lon="2.553820050">
        <ele>231.60</ele>
        <time>2014-03-02T11:11:40Z</time>
      </trkpt>
      <trkpt lat="41.602171750" lon="2.553815020">
        <ele>231.70</ele>
        <time>2014-03-02T11:11:41Z</time>
      </trkpt>
      <trkpt lat="41.602128330" lon="2.553821720">
        <ele>231.30</ele>
        <time>2014-03-02T11:11:42Z</time>
      </trkpt>
      <trkpt lat="41.602083400" lon="2.553830100">
        <ele>231.10</ele>
        <time>2014-03-02T11:11:43Z</time>
      </trkpt>
      <trkpt lat="41.602035120" lon="2.553838490">
        <ele>230.60</ele>
        <time>2014-03-02T11:11:44Z</time>
      </trkpt>
      <trkpt lat="41.601985000" lon="2.553836810">
        <ele>230.30</ele>
        <time>2014-03-02T11:11:45Z</time>
      </trkpt>
      <trkpt lat="41.601936720" lon="2.553838490">
        <ele>230.00</ele>
        <time>2014-03-02T11:11:46Z</time>
      </trkpt>
      <trkpt lat="41.601890120" lon="2.553843350">
        <ele>229.70</ele>
        <time>2014-03-02T11:11:47Z</time>
      </trkpt>
      <trkpt lat="41.601848370" lon="2.553851730">
        <ele>229.50</ele>
        <time>2014-03-02T11:11:48Z</time>
      </trkpt>
      <trkpt lat="41.601806800" lon="2.553860110">
        <ele>228.80</ele>
        <time>2014-03-02T11:11:49Z</time>
      </trkpt>
      <trkpt lat="41.601761700" lon="2.553856760">
        <ele>228.20</ele>
        <time>2014-03-02T11:11:50Z</time>
      </trkpt>
      <trkpt lat="41.601715100" lon="2.553845020">
        <ele>227.80</ele>
        <time>2014-03-02T11:11:51Z</time>
      </trkpt>
      <trkpt lat="41.601666820" lon="2.553836810">
        <ele>227.50</ele>
        <time>2014-03-02T11:11:52Z</time>
      </trkpt>
      <trkpt lat="41.601618370" lon="2.553833460">
        <ele>227.20</ele>
        <time>2014-03-02T11:11:53Z</time>
      </trkpt>
      <trkpt lat="41.601581830" lon="2.553810160">
        <ele>226.30</ele>
        <time>2014-03-02T11:11:54Z</time>
      </trkpt>
      <trkpt lat="41.601563390" lon="2.553766740">
        <ele>225.60</ele>
        <time>2014-03-02T11:11:55Z</time>
      </trkpt>
      <trkpt lat="41.601560040" lon="2.553711750">
        <ele>225.00</ele>
        <time>2014-03-02T11:11:56Z</time>
      </trkpt>
      <trkpt lat="41.601568420" lon="2.553656770">
        <ele>224.50</ele>
        <time>2014-03-02T11:11:57Z</time>
      </trkpt>
      <trkpt lat="41.601575120" lon="2.553593400">
        <ele>223.90</ele>
        <time>2014-03-02T11:11:58Z</time>
      </trkpt>
      <trkpt lat="41.601591720" lon="2.553526680">
        <ele>223.40</ele>
        <time>2014-03-02T11:11:59Z</time>
      </trkpt>
      <trkpt lat="41.601601780" lon="2.553465160">
        <ele>223.00</ele>
        <time>2014-03-02T11:12:00Z</time>
      </trkpt>
      <trkpt lat="41.601613350" lon="2.553408490">
        <ele>222.20</ele>
        <time>2014-03-02T11:12:01Z</time>
      </trkpt>
      <trkpt lat="41.601626760" lon="2.553350160">
        <ele>221.70</ele>
        <time>2014-03-02T11:12:02Z</time>
      </trkpt>
      <trkpt lat="41.601633460" lon="2.553298360">
        <ele>220.60</ele>
        <time>2014-03-02T11:12:03Z</time>
      </trkpt>
      <trkpt lat="41.601638490" lon="2.553255110">
        <ele>219.90</ele>
        <time>2014-03-02T11:12:04Z</time>
      </trkpt>
      <trkpt lat="41.601636810" lon="2.553223420">
        <ele>219.30</ele>
        <time>2014-03-02T11:12:05Z</time>
      </trkpt>
      <trkpt lat="41.601641680" lon="2.553188390">
        <ele>219.00</ele>
        <time>2014-03-02T11:12:06Z</time>
      </trkpt>
      <trkpt lat="41.601653410" lon="2.553155030">
        <ele>218.70</ele>
        <time>2014-03-02T11:12:07Z</time>
      </trkpt>
      <trkpt lat="41.601673360" lon="2.553120160">
        <ele>218.50</ele>
        <time>2014-03-02T11:12:08Z</time>
      </trkpt>
      <trkpt lat="41.601693480" lon="2.553083440">
        <ele>218.40</ele>
        <time>2014-03-02T11:12:09Z</time>
      </trkpt>
      <trkpt lat="41.601716780" lon="2.553048410">
        <ele>217.90</ele>
        <time>2014-03-02T11:12:10Z</time>
      </trkpt>
      <trkpt lat="41.601735050" lon="2.553011700">
        <ele>217.60</ele>
        <time>2014-03-02T11:12:11Z</time>
      </trkpt>
      <trkpt lat="41.601755000" lon="2.552968440">
        <ele>217.30</ele>
        <time>2014-03-02T11:12:12Z</time>
      </trkpt>
      <trkpt lat="41.601776790" lon="2.552926700">
        <ele>216.60</ele>
        <time>2014-03-02T11:12:13Z</time>
      </trkpt>
      <trkpt lat="41.601801770" lon="2.552878420">
        <ele>216.10</ele>
        <time>2014-03-02T11:12:14Z</time>
      </trkpt>
      <trkpt lat="41.601823400" lon="2.552823440">
        <ele>215.70</ele>
        <time>2014-03-02T11:12:15Z</time>
      </trkpt>
      <trkpt lat="41.601846700" lon="2.552770130">
        <ele>215.30</ele>
        <time>2014-03-02T11:12:16Z</time>
      </trkpt>
      <trkpt lat="41.601873350" lon="2.552720010">
        <ele>214.50</ele>
        <time>2014-03-02T11:12:17Z</time>
      </trkpt>
      <trkpt lat="41.601896820" lon="2.552665020">
        <ele>214.00</ele>
        <time>2014-03-02T11:12:18Z</time>
      </trkpt>
      <trkpt lat="41.601921800" lon="2.552610030">
        <ele>213.50</ele>
        <time>2014-03-02T11:12:19Z</time>
      </trkpt>
      <trkpt lat="41.601950130" lon="2.552563430">
        <ele>212.60</ele>
        <time>2014-03-02T11:12:20Z</time>
      </trkpt>
      <trkpt lat="41.601975110" lon="2.552513480">
        <ele>212.00</ele>
        <time>2014-03-02T11:12:21Z</time>
      </trkpt>
      <trkpt lat="41.601995060" lon="2.552466700">
        <ele>211.30</ele>
        <time>2014-03-02T11:12:22Z</time>
      </trkpt>
      <trkpt lat="41.602018360" lon="2.552420100">
        <ele>210.90</ele>
        <time>2014-03-02T11:12:23Z</time>
      </trkpt>
      <trkpt lat="41.602053400" lon="2.552376680">
        <ele>210.50</ele>
        <time>2014-03-02T11:12:24Z</time>
      </trkpt>
      <trkpt lat="41.602095140" lon="2.552333430">
        <ele>209.90</ele>
        <time>2014-03-02T11:12:25Z</time>
      </trkpt>
      <trkpt lat="41.602143420" lon="2.552295040">
        <ele>209.40</ele>
        <time>2014-03-02T11:12:26Z</time>
      </trkpt>
      <trkpt lat="41.602191700" lon="2.552266710">
        <ele>208.90</ele>
        <time>2014-03-02T11:12:27Z</time>
      </trkpt>
      <trkpt lat="41.602243330" lon="2.552246760">
        <ele>208.50</ele>
        <time>2014-03-02T11:12:28Z</time>
      </trkpt>
      <trkpt lat="41.602295130" lon="2.552236700">
        <ele>207.60</ele>
        <time>2014-03-02T11:12:29Z</time>
      </trkpt>
      <trkpt lat="41.602343410" lon="2.552235030">
        <ele>206.90</ele>
        <time>2014-03-02T11:12:30Z</time>
      </trkpt>
      <trkpt lat="41.602386830" lon="2.552233350">
        <ele>206.40</ele>
        <time>2014-03-02T11:12:31Z</time>
      </trkpt>
      <trkpt lat="41.602428400" lon="2.552228490">
        <ele>205.80</ele>
        <time>2014-03-02T11:12:32Z</time>
      </trkpt>
      <trkpt lat="41.602466790" lon="2.552215080">
        <ele>205.30</ele>
        <time>2014-03-02T11:12:33Z</time>
      </trkpt>
      <trkpt lat="41.602498470" lon="2.552191780">
        <ele>204.40</ele>
        <time>2014-03-02T11:12:34Z</time>
      </trkpt>
      <trkpt lat="41.602521780" lon="2.552160090">
        <ele>203.60</ele>
        <time>2014-03-02T11:12:35Z</time>
      </trkpt>
      <trkpt lat="41.602545080" lon="2.552115000">
        <ele>202.90</ele>
        <time>2014-03-02T11:12:36Z</time>
      </trkpt>
      <trkpt lat="41.602568380" lon="2.552068400">
        <ele>202.40</ele>
        <time>2014-03-02T11:12:37Z</time>
      </trkpt>
      <trkpt lat="41.602595030" lon="2.552023470">
        <ele>202.00</ele>
        <time>2014-03-02T11:12:38Z</time>
      </trkpt>
      <trkpt lat="41.602623360" lon="2.551981730">
        <ele>201.00</ele>
        <time>2014-03-02T11:12:39Z</time>
      </trkpt>
      <trkpt lat="41.602650020" lon="2.551941660">
        <ele>200.30</ele>
        <time>2014-03-02T11:12:40Z</time>
      </trkpt>
      <trkpt lat="41.602681700" lon="2.551910150">
        <ele>199.30</ele>
        <time>2014-03-02T11:12:41Z</time>
      </trkpt>
      <trkpt lat="41.602720090" lon="2.551890030">
        <ele>198.50</ele>
        <time>2014-03-02T11:12:42Z</time>
      </trkpt>
      <trkpt lat="41.602773400" lon="2.551893380">
        <ele>197.90</ele>
        <time>2014-03-02T11:12:43Z</time>
      </trkpt>
      <trkpt lat="41.602818500" lon="2.551925070">
        <ele>197.30</ele>
        <time>2014-03-02T11:12:44Z</time>
      </trkpt>
      <trkpt lat="41.602858390" lon="2.551973350">
        <ele>196.90</ele>
        <time>2014-03-02T11:12:45Z</time>
      </trkpt>
      <trkpt lat="41.602893430" lon="2.552016760">
        <ele>196.10</ele>
        <time>2014-03-02T11:12:46Z</time>
      </trkpt>
      <trkpt lat="41.602926790" lon="2.552040070">
        <ele>195.50</ele>
        <time>2014-03-02T11:12:47Z</time>
      </trkpt>
      <trkpt lat="41.602965010" lon="2.552046770">
        <ele>194.70</ele>
        <time>2014-03-02T11:12:48Z</time>
      </trkpt>
      <trkpt lat="41.603003400" lon="2.552038390">
        <ele>194.10</ele>
        <time>2014-03-02T11:12:49Z</time>
      </trkpt>
      <trkpt lat="41.603041790" lon="2.552015090">
        <ele>193.60</ele>
        <time>2014-03-02T11:12:50Z</time>
      </trkpt>
      <trkpt lat="41.603085040" lon="2.551980050">
        <ele>193.20</ele>
        <time>2014-03-02T11:12:51Z</time>
      </trkpt>
      <trkpt lat="41.603130130" lon="2.551943340">
        <ele>192.90</ele>
        <time>2014-03-02T11:12:52Z</time>
      </trkpt>
      <trkpt lat="41.603173390" lon="2.551901760">
        <ele>192.20</ele>
        <time>2014-03-02T11:12:53Z</time>
      </trkpt>
      <trkpt lat="41.603216800" lon="2.551861700">
        <ele>191.80</ele>
        <time>2014-03-02T11:12:54Z</time>
      </trkpt>
      <trkpt lat="41.603263410" lon="2.551826660">
        <ele>191.10</ele>
        <time>2014-03-02T11:12:55Z</time>
      </trkpt>
      <trkpt lat="41.603310010" lon="2.551793470">
        <ele>190.60</ele>
        <time>2014-03-02T11:12:56Z</time>
      </trkpt>
      <trkpt lat="41.603348400" lon="2.551753400">
        <ele>190.20</ele>
        <time>2014-03-02T11:12:57Z</time>
      </trkpt>
      <trkpt lat="41.603383440" lon="2.551705120">
        <ele>189.80</ele>
        <time>2014-03-02T11:12:58Z</time>
      </trkpt>
      <trkpt lat="41.603408410" lon="2.551651820">
        <ele>189.40</ele>
        <time>2014-03-02T11:12:59Z</time>
      </trkpt>
      <trkpt lat="41.603421820" lon="2.551596660">
        <ele>189.50</ele>
        <time>2014-03-02T11:13:00Z</time>
      </trkpt>
      <trkpt lat="41.603435070" lon="2.551540000">
        <ele>189.60</ele>
        <time>2014-03-02T11:13:01Z</time>
      </trkpt>
      <trkpt lat="41.603443450" lon="2.551483340">
        <ele>189.70</ele>
        <time>2014-03-02T11:13:02Z</time>
      </trkpt>
      <trkpt lat="41.603441770" lon="2.551426680">
        <ele>189.20</ele>
        <time>2014-03-02T11:13:03Z</time>
      </trkpt>
      <trkpt lat="41.603428360" lon="2.551371690">
        <ele>188.80</ele>
        <time>2014-03-02T11:13:04Z</time>
      </trkpt>
      <trkpt lat="41.603405060" lon="2.551323410">
        <ele>188.40</ele>
        <time>2014-03-02T11:13:05Z</time>
      </trkpt>
      <trkpt lat="41.603380080" lon="2.551270100">
        <ele>188.00</ele>
        <time>2014-03-02T11:13:06Z</time>
      </trkpt>
      <trkpt lat="41.603360130" lon="2.551206740">
        <ele>187.80</ele>
        <time>2014-03-02T11:13:07Z</time>
      </trkpt>
      <trkpt lat="41.603343370" lon="2.551138340">
        <ele>187.60</ele>
        <time>2014-03-02T11:13:08Z</time>
      </trkpt>
      <trkpt lat="41.603326770" lon="2.551070110">
        <ele>187.40</ele>
        <time>2014-03-02T11:13:09Z</time>
      </trkpt>
      <trkpt lat="41.603310010" lon="2.550998360">
        <ele>187.20</ele>
        <time>2014-03-02T11:13:10Z</time>
      </trkpt>
      <trkpt lat="41.603296770" lon="2.550923430">
        <ele>187.00</ele>
        <time>2014-03-02T11:13:11Z</time>
      </trkpt>
      <trkpt lat="41.603283360" lon="2.550845140">
        <ele>186.60</ele>
        <time>2014-03-02T11:13:12Z</time>
      </trkpt>
      <trkpt lat="41.603270110" lon="2.550766690">
        <ele>186.40</ele>
        <time>2014-03-02T11:13:13Z</time>
      </trkpt>
      <trkpt lat="41.603251670" lon="2.550685050">
        <ele>185.70</ele>
        <time>2014-03-02T11:13:14Z</time>
      </trkpt>
      <trkpt lat="41.603231720" lon="2.550603410">
        <ele>185.20</ele>
        <time>2014-03-02T11:13:15Z</time>
      </trkpt>
      <trkpt lat="41.603213450" lon="2.550526800">
        <ele>184.80</ele>
        <time>2014-03-02T11:13:16Z</time>
      </trkpt>
      <trkpt lat="41.603193330" lon="2.550450020">
        <ele>184.60</ele>
        <time>2014-03-02T11:13:17Z</time>
      </trkpt>
      <trkpt lat="41.603181770" lon="2.550375080">
        <ele>184.50</ele>
        <time>2014-03-02T11:13:18Z</time>
      </trkpt>
      <trkpt lat="41.603173390" lon="2.550303330">
        <ele>183.90</ele>
        <time>2014-03-02T11:13:19Z</time>
      </trkpt>
      <trkpt lat="41.603161820" lon="2.550233430">
        <ele>183.40</ele>
        <time>2014-03-02T11:13:20Z</time>
      </trkpt>
      <trkpt lat="41.603148410" lon="2.550161680">
        <ele>183.10</ele>
        <time>2014-03-02T11:13:21Z</time>
      </trkpt>
      <trkpt lat="41.603130130" lon="2.550088420">
        <ele>182.80</ele>
        <time>2014-03-02T11:13:22Z</time>
      </trkpt>
      <trkpt lat="41.603106670" lon="2.550021700">
        <ele>182.50</ele>
        <time>2014-03-02T11:13:23Z</time>
      </trkpt>
      <trkpt lat="41.603076830" lon="2.549951800">
        <ele>182.00</ele>
        <time>2014-03-02T11:13:24Z</time>
      </trkpt>
      <trkpt lat="41.603055030" lon="2.549876700">
        <ele>181.50</ele>
        <time>2014-03-02T11:13:25Z</time>
      </trkpt>
      <trkpt lat="41.603041790" lon="2.549798410">
        <ele>180.80</ele>
        <time>2014-03-02T11:13:26Z</time>
      </trkpt>
      <trkpt lat="41.603036760" lon="2.549715090">
        <ele>180.30</ele>
        <time>2014-03-02T11:13:27Z</time>
      </trkpt>
      <trkpt lat="41.603036760" lon="2.549631780">
        <ele>179.90</ele>
        <time>2014-03-02T11:13:28Z</time>
      </trkpt>
      <trkpt lat="41.603030050" lon="2.549546780">
        <ele>179.90</ele>
        <time>2014-03-02T11:13:29Z</time>
      </trkpt>
      <trkpt lat="41.603016810" lon="2.549465140">
        <ele>179.90</ele>
        <time>2014-03-02T11:13:30Z</time>
      </trkpt>
      <trkpt lat="41.602995020" lon="2.549383340">
        <ele>179.40</ele>
        <time>2014-03-02T11:13:31Z</time>
      </trkpt>
      <trkpt lat="41.602971720" lon="2.549305050">
        <ele>179.00</ele>
        <time>2014-03-02T11:13:32Z</time>
      </trkpt>
      <trkpt lat="41.602948410" lon="2.549223410">
        <ele>178.40</ele>
        <time>2014-03-02T11:13:33Z</time>
      </trkpt>
      <trkpt lat="41.602928470" lon="2.549141770">
        <ele>177.90</ele>
        <time>2014-03-02T11:13:34Z</time>
      </trkpt>
      <trkpt lat="41.602908350" lon="2.549053430">
        <ele>177.60</ele>
        <time>2014-03-02T11:13:35Z</time>
      </trkpt>
      <trkpt lat="41.602905000" lon="2.548963400">
        <ele>177.00</ele>
        <time>2014-03-02T11:13:36Z</time>
      </trkpt>
      <trkpt lat="41.602900130" lon="2.548878410">
        <ele>176.60</ele>
        <time>2014-03-02T11:13:37Z</time>
      </trkpt>
      <trkpt lat="41.602895110" lon="2.548798450">
        <ele>176.30</ele>
        <time>2014-03-02T11:13:38Z</time>
      </trkpt>
      <trkpt lat="41.602890080" lon="2.548718480">
        <ele>176.00</ele>
        <time>2014-03-02T11:13:39Z</time>
      </trkpt>
      <trkpt lat="41.602880020" lon="2.548638350">
        <ele>175.80</ele>
        <time>2014-03-02T11:13:40Z</time>
      </trkpt>
      <trkpt lat="41.602868450" lon="2.548570130">
        <ele>174.80</ele>
        <time>2014-03-02T11:13:41Z</time>
      </trkpt>
      <trkpt lat="41.602855040" lon="2.548505080">
        <ele>174.00</ele>
        <time>2014-03-02T11:13:42Z</time>
      </trkpt>
      <trkpt lat="41.602841800" lon="2.548440040">
        <ele>174.00</ele>
        <time>2014-03-02T11:13:43Z</time>
      </trkpt>
      <trkpt lat="41.602830060" lon="2.548378350">
        <ele>174.00</ele>
        <time>2014-03-02T11:13:44Z</time>
      </trkpt>
      <trkpt lat="41.602820000" lon="2.548313470">
        <ele>173.70</ele>
        <time>2014-03-02T11:13:45Z</time>
      </trkpt>
      <trkpt lat="41.602821680" lon="2.548251780">
        <ele>173.50</ele>
        <time>2014-03-02T11:13:46Z</time>
      </trkpt>
      <trkpt lat="41.602835090" lon="2.548196800">
        <ele>173.40</ele>
        <time>2014-03-02T11:13:47Z</time>
      </trkpt>
      <trkpt lat="41.602865100" lon="2.548163440">
        <ele>173.00</ele>
        <time>2014-03-02T11:13:48Z</time>
      </trkpt>
      <trkpt lat="41.602901810" lon="2.548155050">
        <ele>172.70</ele>
        <time>2014-03-02T11:13:49Z</time>
      </trkpt>
      <trkpt lat="41.602938360" lon="2.548171820">
        <ele>172.70</ele>
        <time>2014-03-02T11:13:50Z</time>
      </trkpt>
      <trkpt lat="41.602973390" lon="2.548196800">
        <ele>172.60</ele>
        <time>2014-03-02T11:13:51Z</time>
      </trkpt>
      <trkpt lat="41.603011780" lon="2.548216740">
        <ele>172.20</ele>
        <time>2014-03-02T11:13:52Z</time>
      </trkpt>
      <trkpt lat="41.603051680" lon="2.548233340">
        <ele>171.90</ele>
        <time>2014-03-02T11:13:53Z</time>
      </trkpt>
      <trkpt lat="41.603096770" lon="2.548253460">
        <ele>171.70</ele>
        <time>2014-03-02T11:13:54Z</time>
      </trkpt>
      <trkpt lat="41.603140030" lon="2.548276760">
        <ele>171.10</ele>
        <time>2014-03-02T11:13:55Z</time>
      </trkpt>
      <trkpt lat="41.603186800" lon="2.548301740">
        <ele>170.60</ele>
        <time>2014-03-02T11:13:56Z</time>
      </trkpt>
      <trkpt lat="41.603230050" lon="2.548320010">
        <ele>169.90</ele>
        <time>2014-03-02T11:13:57Z</time>
      </trkpt>
      <trkpt lat="41.603266760" lon="2.548326710">
        <ele>169.40</ele>
        <time>2014-03-02T11:13:58Z</time>
      </trkpt>
      <trkpt lat="41.603293410" lon="2.548310120">
        <ele>169.00</ele>
        <time>2014-03-02T11:13:59Z</time>
      </trkpt>
      <trkpt lat="41.603306820" lon="2.548276760">
        <ele>168.30</ele>
        <time>2014-03-02T11:14:00Z</time>
      </trkpt>
      <trkpt lat="41.603308330" lon="2.548238370">
        <ele>167.80</ele>
        <time>2014-03-02T11:14:01Z</time>
      </trkpt>
      <trkpt lat="41.603293410" lon="2.548206690">
        <ele>168.00</ele>
        <time>2014-03-02T11:14:02Z</time>
      </trkpt>
      <trkpt lat="41.603261730" lon="2.548183380">
        <ele>168.20</ele>
        <time>2014-03-02T11:14:03Z</time>
      </trkpt>
      <trkpt lat="41.603225020" lon="2.548153380">
        <ele>167.90</ele>
        <time>2014-03-02T11:14:04Z</time>
      </trkpt>
      <trkpt lat="41.603183440" lon="2.548131750">
        <ele>167.80</ele>
        <time>2014-03-02T11:14:05Z</time>
      </trkpt>
      <trkpt lat="41.603138350" lon="2.548098390">
        <ele>167.60</ele>
        <time>2014-03-02T11:14:06Z</time>
      </trkpt>
      <trkpt lat="41.603091750" lon="2.548066710">
        <ele>167.20</ele>
        <time>2014-03-02T11:14:07Z</time>
      </trkpt>
      <trkpt lat="41.603045140" lon="2.548035020">
        <ele>166.90</ele>
        <time>2014-03-02T11:14:08Z</time>
      </trkpt>
      <trkpt lat="41.602995020" lon="2.547998480">
        <ele>166.60</ele>
        <time>2014-03-02T11:14:09Z</time>
      </trkpt>
      <trkpt lat="41.602945060" lon="2.547956740">
        <ele>166.30</ele>
        <time>2014-03-02T11:14:10Z</time>
      </trkpt>
      <trkpt lat="41.602895110" lon="2.547915000">
        <ele>165.80</ele>
        <time>2014-03-02T11:14:11Z</time>
      </trkpt>
      <trkpt lat="41.602841800" lon="2.547866720">
        <ele>165.30</ele>
        <time>2014-03-02T11:14:12Z</time>
      </trkpt>
      <trkpt lat="41.602786810" lon="2.547821790">
        <ele>165.00</ele>
        <time>2014-03-02T11:14:13Z</time>
      </trkpt>
      <trkpt lat="41.602735010" lon="2.547778370">
        <ele>164.30</ele>
        <time>2014-03-02T11:14:14Z</time>
      </trkpt>
      <trkpt lat="41.602683380" lon="2.547733440">
        <ele>163.80</ele>
        <time>2014-03-02T11:14:15Z</time>
      </trkpt>
      <trkpt lat="41.602635100" lon="2.547690030">
        <ele>163.30</ele>
        <time>2014-03-02T11:14:16Z</time>
      </trkpt>
      <trkpt lat="41.602588500" lon="2.547640070">
        <ele>163.00</ele>
        <time>2014-03-02T11:14:17Z</time>
      </trkpt>
      <trkpt lat="41.602543400" lon="2.547590110">
        <ele>162.80</ele>
        <time>2014-03-02T11:14:18Z</time>
      </trkpt>
      <trkpt lat="41.602498470" lon="2.547540160">
        <ele>162.30</ele>
        <time>2014-03-02T11:14:19Z</time>
      </trkpt>
      <trkpt lat="41.602456730" lon="2.547498410">
        <ele>162.00</ele>
        <time>2014-03-02T11:14:20Z</time>
      </trkpt>
      <trkpt lat="41.602416670" lon="2.547458350">
        <ele>161.60</ele>
        <time>2014-03-02T11:14:21Z</time>
      </trkpt>
      <trkpt lat="41.602381800" lon="2.547411750">
        <ele>161.30</ele>
        <time>2014-03-02T11:14:22Z</time>
      </trkpt>
      <trkpt lat="41.602345090" lon="2.547368500">
        <ele>161.10</ele>
        <time>2014-03-02T11:14:23Z</time>
      </trkpt>
      <trkpt lat="41.602310050" lon="2.547321720">
        <ele>161.00</ele>
        <time>2014-03-02T11:14:24Z</time>
      </trkpt>
      <trkpt lat="41.602273340" lon="2.547271770">
        <ele>160.90</ele>
        <time>2014-03-02T11:14:25Z</time>
      </trkpt>
      <trkpt lat="41.602235110" lon="2.547223490">
        <ele>160.50</ele>
        <time>2014-03-02T11:14:26Z</time>
      </trkpt>
      <trkpt lat="41.602200080" lon="2.547175040">
        <ele>160.20</ele>
        <time>2014-03-02T11:14:27Z</time>
      </trkpt>
      <trkpt lat="41.602170070" lon="2.547120060">
        <ele>159.80</ele>
        <time>2014-03-02T11:14:28Z</time>
      </trkpt>
      <trkpt lat="41.602145090" lon="2.547063390">
        <ele>159.60</ele>
        <time>2014-03-02T11:14:29Z</time>
      </trkpt>
      <trkpt lat="41.602121790" lon="2.547013440">
        <ele>158.60</ele>
        <time>2014-03-02T11:14:30Z</time>
      </trkpt>
      <trkpt lat="41.602096810" lon="2.546980080">
        <ele>157.90</ele>
        <time>2014-03-02T11:14:31Z</time>
      </trkpt>
      <trkpt lat="41.602060100" lon="2.546963480">
        <ele>157.40</ele>
        <time>2014-03-02T11:14:32Z</time>
      </trkpt>
      <trkpt lat="41.602018360" lon="2.546963480">
        <ele>156.90</ele>
        <time>2014-03-02T11:14:33Z</time>
      </trkpt>
      <trkpt lat="41.601976780" lon="2.546976730">
        <ele>156.50</ele>
        <time>2014-03-02T11:14:34Z</time>
      </trkpt>
      <trkpt lat="41.601928340" lon="2.546991810">
        <ele>156.10</ele>
        <time>2014-03-02T11:14:35Z</time>
      </trkpt>
      <trkpt lat="41.601870000" lon="2.547001700">
        <ele>155.70</ele>
        <time>2014-03-02T11:14:36Z</time>
      </trkpt>
      <trkpt lat="41.601808480" lon="2.547013440">
        <ele>155.40</ele>
        <time>2014-03-02T11:14:37Z</time>
      </trkpt>
      <trkpt lat="41.601746790" lon="2.547021820">
        <ele>155.20</ele>
        <time>2014-03-02T11:14:38Z</time>
      </trkpt>
      <trkpt lat="41.601678390" lon="2.547023330">
        <ele>155.10</ele>
        <time>2014-03-02T11:14:39Z</time>
      </trkpt>
      <trkpt lat="41.601610160" lon="2.547023330">
        <ele>154.40</ele>
        <time>2014-03-02T11:14:40Z</time>
      </trkpt>
      <trkpt lat="41.601545120" lon="2.547013440">
        <ele>153.90</ele>
        <time>2014-03-02T11:14:41Z</time>
      </trkpt>
      <trkpt lat="41.601490130" lon="2.547001700">
        <ele>153.50</ele>
        <time>2014-03-02T11:14:42Z</time>
      </trkpt>
      <trkpt lat="41.601440010" lon="2.546993490">
        <ele>153.20</ele>
        <time>2014-03-02T11:14:43Z</time>
      </trkpt>
      <trkpt lat="41.601380160" lon="2.546990140">
        <ele>152.90</ele>
        <time>2014-03-02T11:14:44Z</time>
      </trkpt>
      <trkpt lat="41.601316790" lon="2.546986780">
        <ele>152.40</ele>
        <time>2014-03-02T11:14:45Z</time>
      </trkpt>
      <trkpt lat="41.601251750" lon="2.546968340">
        <ele>152.10</ele>
        <time>2014-03-02T11:14:46Z</time>
      </trkpt>
      <trkpt lat="41.601188380" lon="2.546945040">
        <ele>151.50</ele>
        <time>2014-03-02T11:14:47Z</time>
      </trkpt>
      <trkpt lat="41.601126690" lon="2.546911680">
        <ele>151.10</ele>
        <time>2014-03-02T11:14:48Z</time>
      </trkpt>
      <trkpt lat="41.601065000" lon="2.546875140">
        <ele>149.80</ele>
        <time>2014-03-02T11:14:49Z</time>
      </trkpt>
      <trkpt lat="41.601003480" lon="2.546840100">
        <ele>148.90</ele>
        <time>2014-03-02T11:14:50Z</time>
      </trkpt>
      <trkpt lat="41.600941790" lon="2.546815120">
        <ele>148.20</ele>
        <time>2014-03-02T11:14:51Z</time>
      </trkpt>
      <trkpt lat="41.600873390" lon="2.546798360">
        <ele>147.70</ele>
        <time>2014-03-02T11:14:52Z</time>
      </trkpt>
      <trkpt lat="41.600803490" lon="2.546785110">
        <ele>147.40</ele>
        <time>2014-03-02T11:14:53Z</time>
      </trkpt>
      <trkpt lat="41.600735090" lon="2.546768350">
        <ele>146.90</ele>
        <time>2014-03-02T11:14:54Z</time>
      </trkpt>
      <trkpt lat="41.600668370" lon="2.546753430">
        <ele>146.50</ele>
        <time>2014-03-02T11:14:55Z</time>
      </trkpt>
      <trkpt lat="41.600601820" lon="2.546731810">
        <ele>145.90</ele>
        <time>2014-03-02T11:14:56Z</time>
      </trkpt>
      <trkpt lat="41.600536770" lon="2.546698450">
        <ele>145.50</ele>
        <time>2014-03-02T11:14:57Z</time>
      </trkpt>
      <trkpt lat="41.600478440" lon="2.546656700">
        <ele>145.10</ele>
        <time>2014-03-02T11:14:58Z</time>
      </trkpt>
      <trkpt lat="41.600425130" lon="2.546603400">
        <ele>144.50</ele>
        <time>2014-03-02T11:14:59Z</time>
      </trkpt>
      <trkpt lat="41.600376680" lon="2.546538350">
        <ele>143.90</ele>
        <time>2014-03-02T11:15:00Z</time>
      </trkpt>
      <trkpt lat="41.600331750" lon="2.546475150">
        <ele>143.40</ele>
        <time>2014-03-02T11:15:01Z</time>
      </trkpt>
      <trkpt lat="41.600285150" lon="2.546415140">
        <ele>143.10</ele>
        <time>2014-03-02T11:15:02Z</time>
      </trkpt>
      <trkpt lat="41.600240050" lon="2.546365010">
        <ele>142.80</ele>
        <time>2014-03-02T11:15:03Z</time>
      </trkpt>
      <trkpt lat="41.600196800" lon="2.546325120">
        <ele>142.00</ele>
        <time>2014-03-02T11:15:04Z</time>
      </trkpt>
      <trkpt lat="41.600161770" lon="2.546276670">
        <ele>141.40</ele>
        <time>2014-03-02T11:15:05Z</time>
      </trkpt>
      <trkpt lat="41.600141820" lon="2.546225040">
        <ele>141.00</ele>
        <time>2014-03-02T11:15:06Z</time>
      </trkpt>
      <trkpt lat="41.600146680" lon="2.546186810">
        <ele>140.60</ele>
        <time>2014-03-02T11:15:07Z</time>
      </trkpt>
      <trkpt lat="41.600165120" lon="2.546166700">
        <ele>139.80</ele>
        <time>2014-03-02T11:15:08Z</time>
      </trkpt>
      <trkpt lat="41.600191770" lon="2.546165020">
        <ele>139.10</ele>
        <time>2014-03-02T11:15:09Z</time>
      </trkpt>
      <trkpt lat="41.600223460" lon="2.546180110">
        <ele>138.60</ele>
        <time>2014-03-02T11:15:10Z</time>
      </trkpt>
      <trkpt lat="41.600251790" lon="2.546210120">
        <ele>138.30</ele>
        <time>2014-03-02T11:15:11Z</time>
      </trkpt>
      <trkpt lat="41.600280120" lon="2.546246830">
        <ele>138.00</ele>
        <time>2014-03-02T11:15:12Z</time>
      </trkpt>
      <trkpt lat="41.600311800" lon="2.546288400">
        <ele>137.90</ele>
        <time>2014-03-02T11:15:13Z</time>
      </trkpt>
      <trkpt lat="41.600345000" lon="2.546335010">
        <ele>137.80</ele>
        <time>2014-03-02T11:15:14Z</time>
      </trkpt>
      <trkpt lat="41.600381710" lon="2.546378420">
        <ele>137.80</ele>
        <time>2014-03-02T11:15:15Z</time>
      </trkpt>
      <trkpt lat="41.600416740" lon="2.546420000">
        <ele>136.70</ele>
        <time>2014-03-02T11:15:16Z</time>
      </trkpt>
      <trkpt lat="41.600453460" lon="2.546455040">
        <ele>135.90</ele>
        <time>2014-03-02T11:15:17Z</time>
      </trkpt>
      <trkpt lat="41.600493360" lon="2.546476830">
        <ele>135.30</ele>
        <time>2014-03-02T11:15:18Z</time>
      </trkpt>
      <trkpt lat="41.600526720" lon="2.546490070">
        <ele>134.80</ele>
        <time>2014-03-02T11:15:19Z</time>
      </trkpt>
      <trkpt lat="41.600558400" lon="2.546491750">
        <ele>133.90</ele>
        <time>2014-03-02T11:15:20Z</time>
      </trkpt>
      <trkpt lat="41.600591760" lon="2.546485040">
        <ele>133.20</ele>
        <time>2014-03-02T11:15:21Z</time>
      </trkpt>
      <trkpt lat="41.600621770" lon="2.546468450">
        <ele>132.70</ele>
        <time>2014-03-02T11:15:22Z</time>
      </trkpt>
      <trkpt lat="41.600655130" lon="2.546451680">
        <ele>133.00</ele>
        <time>2014-03-02T11:15:23Z</time>
      </trkpt>
      <trkpt lat="41.600690160" lon="2.546428380">
        <ele>133.20</ele>
        <time>2014-03-02T11:15:24Z</time>
      </trkpt>
      <trkpt lat="41.600735090" lon="2.546396700">
        <ele>132.40</ele>
        <time>2014-03-02T11:15:25Z</time>
      </trkpt>
      <trkpt lat="41.600785050" lon="2.546356800">
        <ele>131.80</ele>
        <time>2014-03-02T11:15:26Z</time>
      </trkpt>
      <trkpt lat="41.600835000" lon="2.546318410">
        <ele>131.20</ele>
        <time>2014-03-02T11:15:27Z</time>
      </trkpt>
      <trkpt lat="41.600886800" lon="2.546280020">
        <ele>130.70</ele>
        <time>2014-03-02T11:15:28Z</time>
      </trkpt>
      <trkpt lat="41.600941790" lon="2.546233420">
        <ele>130.40</ele>
        <time>2014-03-02T11:15:29Z</time>
      </trkpt>
      <trkpt lat="41.600995100" lon="2.546188490">
        <ele>129.90</ele>
        <time>2014-03-02T11:15:30Z</time>
      </trkpt>
      <trkpt lat="41.601045050" lon="2.546148430">
        <ele>129.50</ele>
        <time>2014-03-02T11:15:31Z</time>
      </trkpt>
      <trkpt lat="41.601095010" lon="2.546108360">
        <ele>128.20</ele>
        <time>2014-03-02T11:15:32Z</time>
      </trkpt>
      <trkpt lat="41.601146810" lon="2.546075000">
        <ele>127.20</ele>
        <time>2014-03-02T11:15:33Z</time>
      </trkpt>
      <trkpt lat="41.601203470" lon="2.546040130">
        <ele>126.60</ele>
        <time>2014-03-02T11:15:34Z</time>
      </trkpt>
      <trkpt lat="41.601270020" lon="2.546018340">
        <ele>126.10</ele>
        <time>2014-03-02T11:15:35Z</time>
      </trkpt>
      <trkpt lat="41.601340100" lon="2.546001740">
        <ele>125.80</ele>
        <time>2014-03-02T11:15:36Z</time>
      </trkpt>
      <trkpt lat="41.601411680" lon="2.545985150">
        <ele>125.00</ele>
        <time>2014-03-02T11:15:37Z</time>
      </trkpt>
      <trkpt lat="41.601478400" lon="2.545968380">
        <ele>124.40</ele>
        <time>2014-03-02T11:15:38Z</time>
      </trkpt>
      <trkpt lat="41.601543440" lon="2.545951790">
        <ele>123.70</ele>
        <time>2014-03-02T11:15:39Z</time>
      </trkpt>
      <trkpt lat="41.601610160" lon="2.545935020">
        <ele>123.20</ele>
        <time>2014-03-02T11:15:40Z</time>
      </trkpt>
      <trkpt lat="41.601678390" lon="2.545915070">
        <ele>122.80</ele>
        <time>2014-03-02T11:15:41Z</time>
      </trkpt>
      <trkpt lat="41.601745110" lon="2.545898480">
        <ele>122.10</ele>
        <time>2014-03-02T11:15:42Z</time>
      </trkpt>
      <trkpt lat="41.601808480" lon="2.545888420">
        <ele>121.60</ele>
        <time>2014-03-02T11:15:43Z</time>
      </trkpt>
      <trkpt lat="41.601863460" lon="2.545885070">
        <ele>120.60</ele>
        <time>2014-03-02T11:15:44Z</time>
      </trkpt>
      <trkpt lat="41.601911740" lon="2.545886740">
        <ele>119.90</ele>
        <time>2014-03-02T11:15:45Z</time>
      </trkpt>
      <trkpt lat="41.601956670" lon="2.545888420">
        <ele>119.30</ele>
        <time>2014-03-02T11:15:46Z</time>
      </trkpt>
      <trkpt lat="41.601991700" lon="2.545880040">
        <ele>118.80</ele>
        <time>2014-03-02T11:15:47Z</time>
      </trkpt>
      <trkpt lat="41.602021710" lon="2.545860090">
        <ele>118.50</ele>
        <time>2014-03-02T11:15:48Z</time>
      </trkpt>
      <trkpt lat="41.602043340" lon="2.545835110">
        <ele>117.80</ele>
        <time>2014-03-02T11:15:49Z</time>
      </trkpt>
      <trkpt lat="41.602056750" lon="2.545795040">
        <ele>117.30</ele>
        <time>2014-03-02T11:15:50Z</time>
      </trkpt>
      <trkpt lat="41.602056750" lon="2.545745090">
        <ele>116.50</ele>
        <time>2014-03-02T11:15:51Z</time>
      </trkpt>
      <trkpt lat="41.602046690" lon="2.545693460">
        <ele>115.90</ele>
        <time>2014-03-02T11:15:52Z</time>
      </trkpt>
      <trkpt lat="41.602030090" lon="2.545640150">
        <ele>115.40</ele>
        <time>2014-03-02T11:15:53Z</time>
      </trkpt>
      <trkpt lat="41.602005120" lon="2.545588350">
        <ele>115.00</ele>
        <time>2014-03-02T11:15:54Z</time>
      </trkpt>
      <trkpt lat="41.601971760" lon="2.545533360">
        <ele>114.70</ele>
        <time>2014-03-02T11:15:55Z</time>
      </trkpt>
      <trkpt lat="41.601933370" lon="2.545480050">
        <ele>114.40</ele>
        <time>2014-03-02T11:15:56Z</time>
      </trkpt>
      <trkpt lat="41.601890120" lon="2.545421710">
        <ele>114.20</ele>
        <time>2014-03-02T11:15:57Z</time>
      </trkpt>
      <trkpt lat="41.601845020" lon="2.545360020">
        <ele>113.30</ele>
        <time>2014-03-02T11:15:58Z</time>
      </trkpt>
      <trkpt lat="41.601803450" lon="2.545296820">
        <ele>112.70</ele>
        <time>2014-03-02T11:15:59Z</time>
      </trkpt>
      <trkpt lat="41.601760030" lon="2.545231780">
        <ele>112.30</ele>
        <time>2014-03-02T11:16:00Z</time>
      </trkpt>
      <trkpt lat="41.601718450" lon="2.545166740">
        <ele>111.80</ele>
        <time>2014-03-02T11:16:01Z</time>
      </trkpt>
      <trkpt lat="41.601676710" lon="2.545103370">
        <ele>111.50</ele>
        <time>2014-03-02T11:16:02Z</time>
      </trkpt>
      <trkpt lat="41.601635140" lon="2.545041680">
        <ele>110.20</ele>
        <time>2014-03-02T11:16:03Z</time>
      </trkpt>
      <trkpt lat="41.601593400" lon="2.544983340">
        <ele>109.20</ele>
        <time>2014-03-02T11:16:04Z</time>
      </trkpt>
      <trkpt lat="41.601553330" lon="2.544926680">
        <ele>108.50</ele>
        <time>2014-03-02T11:16:05Z</time>
      </trkpt>
      <trkpt lat="41.601515110" lon="2.544870020">
        <ele>108.00</ele>
        <time>2014-03-02T11:16:06Z</time>
      </trkpt>
      <trkpt lat="41.601475040" lon="2.544815030">
        <ele>107.60</ele>
        <time>2014-03-02T11:16:07Z</time>
      </trkpt>
      <trkpt lat="41.601436820" lon="2.544758370">
        <ele>106.60</ele>
        <time>2014-03-02T11:16:08Z</time>
      </trkpt>
      <trkpt lat="41.601398430" lon="2.544703390">
        <ele>105.90</ele>
        <time>2014-03-02T11:16:09Z</time>
      </trkpt>
      <trkpt lat="41.601363400" lon="2.544646720">
        <ele>105.00</ele>
        <time>2014-03-02T11:16:10Z</time>
      </trkpt>
      <trkpt lat="41.601326680" lon="2.544590060">
        <ele>104.40</ele>
        <time>2014-03-02T11:16:11Z</time>
      </trkpt>
      <trkpt lat="41.601291820" lon="2.544531720">
        <ele>103.60</ele>
        <time>2014-03-02T11:16:12Z</time>
      </trkpt>
      <trkpt lat="41.601258460" lon="2.544476740">
        <ele>103.00</ele>
        <time>2014-03-02T11:16:13Z</time>
      </trkpt>
      <trkpt lat="41.601225100" lon="2.544421750">
        <ele>102.50</ele>
        <time>2014-03-02T11:16:14Z</time>
      </trkpt>
      <trkpt lat="41.601193410" lon="2.544371800">
        <ele>101.90</ele>
        <time>2014-03-02T11:16:15Z</time>
      </trkpt>
      <trkpt lat="41.601166760" lon="2.544326700">
        <ele>101.50</ele>
        <time>2014-03-02T11:16:16Z</time>
      </trkpt>
      <trkpt lat="41.601150160" lon="2.544286800">
        <ele>100.70</ele>
        <time>2014-03-02T11:16:17Z</time>
      </trkpt>
      <trkpt lat="41.601138430" lon="2.544251770">
        <ele>100.10</ele>
        <time>2014-03-02T11:16:18Z</time>
      </trkpt>
      <trkpt lat="41.601135070" lon="2.544225110">
        <ele>99.60</ele>
        <time>2014-03-02T11:16:19Z</time>
      </trkpt>
      <trkpt lat="41.601131720" lon="2.544210030">
        <ele>99.10</ele>
        <time>2014-03-02T11:16:20Z</time>
      </trkpt>
      <trkpt lat="41.601130040" lon="2.544206670">
        <ele>98.70</ele>
        <time>2014-03-02T11:16:21Z</time>
      </trkpt>
      <trkpt lat="41.601128370" lon="2.544203490">
        <ele>98.40</ele>
        <time>2014-03-02T11:16:22Z</time>
      </trkpt>
      <trkpt lat="41.601126690" lon="2.544198460">
        <ele>98.20</ele>
        <time>2014-03-02T11:16:23Z</time>
      </trkpt>
      <trkpt lat="41.601125020" lon="2.544193430">
        <ele>97.80</ele>
        <time>2014-03-02T11:16:24Z</time>
      </trkpt>
      <trkpt lat="41.601123340" lon="2.544191750">
        <ele>97.50</ele>
        <time>2014-03-02T11:16:25Z</time>
      </trkpt>
      <trkpt lat="41.601121660" lon="2.544186720">
        <ele>97.30</ele>
        <time>2014-03-02T11:16:26Z</time>
      </trkpt>
      <trkpt lat="41.601120150" lon="2.544183370">
        <ele>97.20</ele>
        <time>2014-03-02T11:16:27Z</time>
      </trkpt>
      <trkpt lat="41.601120150" lon="2.544180020">
        <ele>97.20</ele>
        <time>2014-03-02T11:16:28Z</time>
      </trkpt>
      <trkpt lat="41.601118480" lon="2.544176670">
        <ele>97.30</ele>
        <time>2014-03-02T11:16:29Z</time>
      </trkpt>
      <trkpt lat="41.601116800" lon="2.544175160">
        <ele>97.50</ele>
        <time>2014-03-02T11:16:30Z</time>
      </trkpt>
      <trkpt lat="41.601116800" lon="2.544173480">
        <ele>97.30</ele>
        <time>2014-03-02T11:16:31Z</time>
      </trkpt>
      <trkpt lat="41.601115120" lon="2.544171810">
        <ele>97.20</ele>
        <time>2014-03-02T11:16:32Z</time>
      </trkpt>
      <trkpt lat="41.601115120" lon="2.544171810">
        <ele>97.20</ele>
        <time>2014-03-02T11:16:33Z</time>
      </trkpt>
      <trkpt lat="41.601115120" lon="2.544170130">
        <ele>97.20</ele>
        <time>2014-03-02T11:16:34Z</time>
      </trkpt>
      <trkpt lat="41.601115120" lon="2.544170130">
        <ele>97.20</ele>
        <time>2014-03-02T11:16:35Z</time>
      </trkpt>
      <trkpt lat="41.601113450" lon="2.544168450">
        <ele>96.90</ele>
        <time>2014-03-02T11:16:36Z</time>
      </trkpt>
      <trkpt lat="41.601113450" lon="2.544168450">
        <ele>96.70</ele>
        <time>2014-03-02T11:16:37Z</time>
      </trkpt>
      <trkpt lat="41.601113450" lon="2.544168450">
        <ele>96.60</ele>
        <time>2014-03-02T11:16:38Z</time>
      </trkpt>
      <trkpt lat="41.601113450" lon="2.544168450">
        <ele>97.20</ele>
        <time>2014-03-02T11:16:39Z</time>
      </trkpt>
      <trkpt lat="41.601113450" lon="2.544168450">
        <ele>97.60</ele>
        <time>2014-03-02T11:16:40Z</time>
      </trkpt>
      <trkpt lat="41.601113450" lon="2.544166780">
        <ele>97.50</ele>
        <time>2014-03-02T11:16:41Z</time>
      </trkpt>
      <trkpt lat="41.601113450" lon="2.544166780">
        <ele>97.50</ele>
        <time>2014-03-02T11:16:42Z</time>
      </trkpt>
      <trkpt lat="41.601113450" lon="2.544166780">
        <ele>97.30</ele>
        <time>2014-03-02T11:16:43Z</time>
      </trkpt>
      <trkpt lat="41.601113450" lon="2.544166780">
        <ele>97.20</ele>
        <time>2014-03-02T11:16:44Z</time>
      </trkpt>
      <trkpt lat="41.601115120" lon="2.544166780">
        <ele>97.10</ele>
        <time>2014-03-02T11:16:45Z</time>
      </trkpt>
      <trkpt lat="41.601115120" lon="2.544166780">
        <ele>97.00</ele>
        <time>2014-03-02T11:16:46Z</time>
      </trkpt>
      <trkpt lat="41.601116800" lon="2.544168450">
        <ele>96.90</ele>
        <time>2014-03-02T11:16:47Z</time>
      </trkpt>
      <trkpt lat="41.601116800" lon="2.544170130">
        <ele>96.50</ele>
        <time>2014-03-02T11:16:48Z</time>
      </trkpt>
      <trkpt lat="41.601118480" lon="2.544170130">
        <ele>96.30</ele>
        <time>2014-03-02T11:16:49Z</time>
      </trkpt>
      <trkpt lat="41.601118480" lon="2.544171810">
        <ele>96.70</ele>
        <time>2014-03-02T11:16:50Z</time>
      </trkpt>
      <trkpt lat="41.601120150" lon="2.544173480">
        <ele>97.00</ele>
        <time>2014-03-02T11:16:51Z</time>
      </trkpt>
      <trkpt lat="41.601121660" lon="2.544175160">
        <ele>97.20</ele>
        <time>2014-03-02T11:16:52Z</time>
      </trkpt>
      <trkpt lat="41.601123340" lon="2.544175160">
        <ele>97.30</ele>
        <time>2014-03-02T11:16:53Z</time>
      </trkpt>
      <trkpt lat="41.601125020" lon="2.544176670">
        <ele>97.30</ele>
        <time>2014-03-02T11:16:54Z</time>
      </trkpt>
      <trkpt lat="41.601125020" lon="2.544176670">
        <ele>97.50</ele>
        <time>2014-03-02T11:16:55Z</time>
      </trkpt>
      <trkpt lat="41.601126690" lon="2.544176670">
        <ele>97.60</ele>
        <time>2014-03-02T11:16:56Z</time>
      </trkpt>
      <trkpt lat="41.601128370" lon="2.544176670">
        <ele>97.70</ele>
        <time>2014-03-02T11:16:57Z</time>
      </trkpt>
      <trkpt lat="41.601130040" lon="2.544175160">
        <ele>97.50</ele>
        <time>2014-03-02T11:16:58Z</time>
      </trkpt>
      <trkpt lat="41.601130040" lon="2.544175160">
        <ele>97.40</ele>
        <time>2014-03-02T11:16:59Z</time>
      </trkpt>
      <trkpt lat="41.601131720" lon="2.544175160">
        <ele>97.50</ele>
        <time>2014-03-02T11:17:00Z</time>
      </trkpt>
      <trkpt lat="41.601133400" lon="2.544175160">
        <ele>97.60</ele>
        <time>2014-03-02T11:17:01Z</time>
      </trkpt>
      <trkpt lat="41.601135070" lon="2.544173480">
        <ele>97.50</ele>
        <time>2014-03-02T11:17:02Z</time>
      </trkpt>
      <trkpt lat="41.601136750" lon="2.544173480">
        <ele>97.40</ele>
        <time>2014-03-02T11:17:03Z</time>
      </trkpt>
      <trkpt lat="41.601136750" lon="2.544173480">
        <ele>97.30</ele>
        <time>2014-03-02T11:17:04Z</time>
      </trkpt>
      <trkpt lat="41.601138430" lon="2.544173480">
        <ele>97.80</ele>
        <time>2014-03-02T11:17:05Z</time>
      </trkpt>
      <trkpt lat="41.601138430" lon="2.544171810">
        <ele>98.10</ele>
        <time>2014-03-02T11:17:06Z</time>
      </trkpt>
      <trkpt lat="41.601138430" lon="2.544171810">
        <ele>98.10</ele>
        <time>2014-03-02T11:17:07Z</time>
      </trkpt>
      <trkpt lat="41.601140100" lon="2.544171810">
        <ele>98.00</ele>
        <time>2014-03-02T11:17:08Z</time>
      </trkpt>
      <trkpt lat="41.601140100" lon="2.544171810">
        <ele>97.80</ele>
        <time>2014-03-02T11:17:09Z</time>
      </trkpt>
      <trkpt lat="41.601141780" lon="2.544170130">
        <ele>97.70</ele>
        <time>2014-03-02T11:17:10Z</time>
      </trkpt>
      <trkpt lat="41.601143460" lon="2.544165100">
        <ele>97.60</ele>
        <time>2014-03-02T11:17:11Z</time>
      </trkpt>
      <trkpt lat="41.601148480" lon="2.544150010">
        <ele>97.40</ele>
        <time>2014-03-02T11:17:12Z</time>
      </trkpt>
      <trkpt lat="41.601153350" lon="2.544131740">
        <ele>97.10</ele>
        <time>2014-03-02T11:17:13Z</time>
      </trkpt>
      <trkpt lat="41.601158380" lon="2.544115140">
        <ele>97.40</ele>
        <time>2014-03-02T11:17:14Z</time>
      </trkpt>
      <trkpt lat="41.601166760" lon="2.544100060">
        <ele>97.50</ele>
        <time>2014-03-02T11:17:15Z</time>
      </trkpt>
      <trkpt lat="41.601176820" lon="2.544090000">
        <ele>97.70</ele>
        <time>2014-03-02T11:17:16Z</time>
      </trkpt>
      <trkpt lat="41.601186710" lon="2.544088490">
        <ele>97.90</ele>
        <time>2014-03-02T11:17:17Z</time>
      </trkpt>
      <trkpt lat="41.601195090" lon="2.544091670">
        <ele>98.10</ele>
        <time>2014-03-02T11:17:18Z</time>
      </trkpt>
      <trkpt lat="41.601201790" lon="2.544091670">
        <ele>98.40</ele>
        <time>2014-03-02T11:17:19Z</time>
      </trkpt>
      <trkpt lat="41.601208330" lon="2.544086810">
        <ele>98.70</ele>
        <time>2014-03-02T11:17:20Z</time>
      </trkpt>
      <trkpt lat="41.601215040" lon="2.544076750">
        <ele>98.50</ele>
        <time>2014-03-02T11:17:21Z</time>
      </trkpt>
      <trkpt lat="41.601220070" lon="2.544066700">
        <ele>98.30</ele>
        <time>2014-03-02T11:17:22Z</time>
      </trkpt>
      <trkpt lat="41.601225100" lon="2.544056810">
        <ele>98.20</ele>
        <time>2014-03-02T11:17:23Z</time>
      </trkpt>
      <trkpt lat="41.601228450" lon="2.544040040">
        <ele>98.00</ele>
        <time>2014-03-02T11:17:24Z</time>
      </trkpt>
      <trkpt lat="41.601235150" lon="2.544021770">
        <ele>97.90</ele>
        <time>2014-03-02T11:17:25Z</time>
      </trkpt>
      <trkpt lat="41.601241690" lon="2.544005010">
        <ele>97.90</ele>
        <time>2014-03-02T11:17:26Z</time>
      </trkpt>
      <trkpt lat="41.601253430" lon="2.543986730">
        <ele>97.80</ele>
        <time>2014-03-02T11:17:27Z</time>
      </trkpt>
      <trkpt lat="41.601263480" lon="2.543968460">
        <ele>98.30</ele>
        <time>2014-03-02T11:17:28Z</time>
      </trkpt>
      <trkpt lat="41.601276730" lon="2.543955050">
        <ele>98.60</ele>
        <time>2014-03-02T11:17:29Z</time>
      </trkpt>
      <trkpt lat="41.601288460" lon="2.543936780">
        <ele>98.90</ele>
        <time>2014-03-02T11:17:30Z</time>
      </trkpt>
      <trkpt lat="41.601296680" lon="2.543913470">
        <ele>99.20</ele>
        <time>2014-03-02T11:17:31Z</time>
      </trkpt>
      <trkpt lat="41.601305060" lon="2.543886820">
        <ele>99.40</ele>
        <time>2014-03-02T11:17:32Z</time>
      </trkpt>
      <trkpt lat="41.601318470" lon="2.543863350">
        <ele>99.50</ele>
        <time>2014-03-02T11:17:33Z</time>
      </trkpt>
      <trkpt lat="41.601335070" lon="2.543840050">
        <ele>99.50</ele>
        <time>2014-03-02T11:17:34Z</time>
      </trkpt>
      <trkpt lat="41.601346800" lon="2.543811720">
        <ele>99.50</ele>
        <time>2014-03-02T11:17:35Z</time>
      </trkpt>
      <trkpt lat="41.601360040" lon="2.543783390">
        <ele>99.40</ele>
        <time>2014-03-02T11:17:36Z</time>
      </trkpt>
      <trkpt lat="41.601376810" lon="2.543755060">
        <ele>99.40</ele>
        <time>2014-03-02T11:17:37Z</time>
      </trkpt>
      <trkpt lat="41.601393400" lon="2.543726730">
        <ele>99.40</ele>
        <time>2014-03-02T11:17:38Z</time>
      </trkpt>
      <trkpt lat="41.601413350" lon="2.543698400">
        <ele>99.30</ele>
        <time>2014-03-02T11:17:39Z</time>
      </trkpt>
      <trkpt lat="41.601436820" lon="2.543668390">
        <ele>99.20</ele>
        <time>2014-03-02T11:17:40Z</time>
      </trkpt>
      <trkpt lat="41.601463480" lon="2.543638380">
        <ele>99.20</ele>
        <time>2014-03-02T11:17:41Z</time>
      </trkpt>
      <trkpt lat="41.601498350" lon="2.543611730">
        <ele>99.10</ele>
        <time>2014-03-02T11:17:42Z</time>
      </trkpt>
      <trkpt lat="41.601540090" lon="2.543583400">
        <ele>99.00</ele>
        <time>2014-03-02T11:17:43Z</time>
      </trkpt>
      <trkpt lat="41.601581830" lon="2.543556740">
        <ele>99.00</ele>
        <time>2014-03-02T11:17:44Z</time>
      </trkpt>
      <trkpt lat="41.601626760" lon="2.543525060">
        <ele>98.50</ele>
        <time>2014-03-02T11:17:45Z</time>
      </trkpt>
      <trkpt lat="41.601673360" lon="2.543490020">
        <ele>98.10</ele>
        <time>2014-03-02T11:17:46Z</time>
      </trkpt>
      <trkpt lat="41.601723480" lon="2.543460010">
        <ele>97.60</ele>
        <time>2014-03-02T11:17:47Z</time>
      </trkpt>
      <trkpt lat="41.601771760" lon="2.543425150">
        <ele>97.30</ele>
        <time>2014-03-02T11:17:48Z</time>
      </trkpt>
      <trkpt lat="41.601815010" lon="2.543386760">
        <ele>97.00</ele>
        <time>2014-03-02T11:17:49Z</time>
      </trkpt>
      <trkpt lat="41.601858430" lon="2.543341830">
        <ele>96.80</ele>
        <time>2014-03-02T11:17:50Z</time>
      </trkpt>
      <trkpt lat="41.601905040" lon="2.543293380">
        <ele>96.70</ele>
        <time>2014-03-02T11:17:51Z</time>
      </trkpt>
      <trkpt lat="41.601951810" lon="2.543243430">
        <ele>96.80</ele>
        <time>2014-03-02T11:17:52Z</time>
      </trkpt>
      <trkpt lat="41.602000090" lon="2.543190120">
        <ele>96.90</ele>
        <time>2014-03-02T11:17:53Z</time>
      </trkpt>
      <trkpt lat="41.602046690" lon="2.543133450">
        <ele>96.80</ele>
        <time>2014-03-02T11:17:54Z</time>
      </trkpt>
      <trkpt lat="41.602093460" lon="2.543076790">
        <ele>96.70</ele>
        <time>2014-03-02T11:17:55Z</time>
      </trkpt>
      <trkpt lat="41.602140060" lon="2.543023480">
        <ele>96.60</ele>
        <time>2014-03-02T11:17:56Z</time>
      </trkpt>
      <trkpt lat="41.602186670" lon="2.542971680">
        <ele>96.50</ele>
        <time>2014-03-02T11:17:57Z</time>
      </trkpt>
      <trkpt lat="41.602230090" lon="2.542918380">
        <ele>96.40</ele>
        <time>2014-03-02T11:17:58Z</time>
      </trkpt>
      <trkpt lat="41.602271830" lon="2.542866740">
        <ele>96.10</ele>
        <time>2014-03-02T11:17:59Z</time>
      </trkpt>
      <trkpt lat="41.602313400" lon="2.542818460">
        <ele>95.90</ele>
        <time>2014-03-02T11:18:00Z</time>
      </trkpt>
      <trkpt lat="41.602350110" lon="2.542771690">
        <ele>95.80</ele>
        <time>2014-03-02T11:18:01Z</time>
      </trkpt>
      <trkpt lat="41.602383470" lon="2.542725090">
        <ele>95.80</ele>
        <time>2014-03-02T11:18:02Z</time>
      </trkpt>
      <trkpt lat="41.602411810" lon="2.542676810">
        <ele>95.80</ele>
        <time>2014-03-02T11:18:03Z</time>
      </trkpt>
      <trkpt lat="41.602436780" lon="2.542625010">
        <ele>95.80</ele>
        <time>2014-03-02T11:18:04Z</time>
      </trkpt>
      <trkpt lat="41.602461760" lon="2.542576730">
        <ele>95.80</ele>
        <time>2014-03-02T11:18:05Z</time>
      </trkpt>
      <trkpt lat="41.602485060" lon="2.542525100">
        <ele>95.80</ele>
        <time>2014-03-02T11:18:06Z</time>
      </trkpt>
      <trkpt lat="41.602505010" lon="2.542473460">
        <ele>95.70</ele>
        <time>2014-03-02T11:18:07Z</time>
      </trkpt>
      <trkpt lat="41.602521780" lon="2.542420160">
        <ele>95.70</ele>
        <time>2014-03-02T11:18:08Z</time>
      </trkpt>
      <trkpt lat="41.602533340" lon="2.542370030">
        <ele>95.40</ele>
        <time>2014-03-02T11:18:09Z</time>
      </trkpt>
      <trkpt lat="41.602543400" lon="2.542325100">
        <ele>95.20</ele>
        <time>2014-03-02T11:18:10Z</time>
      </trkpt>
      <trkpt lat="41.602551780" lon="2.542283360">
        <ele>95.10</ele>
        <time>2014-03-02T11:18:11Z</time>
      </trkpt>
      <trkpt lat="41.602556810" lon="2.542248490">
        <ele>95.00</ele>
        <time>2014-03-02T11:18:12Z</time>
      </trkpt>
      <trkpt lat="41.602560000" lon="2.542221670">
        <ele>95.10</ele>
        <time>2014-03-02T11:18:13Z</time>
      </trkpt>
      <trkpt lat="41.602563350" lon="2.542201720">
        <ele>95.20</ele>
        <time>2014-03-02T11:18:14Z</time>
      </trkpt>
      <trkpt lat="41.602570060" lon="2.542183450">
        <ele>95.30</ele>
        <time>2014-03-02T11:18:15Z</time>
      </trkpt>
      <trkpt lat="41.602578440" lon="2.542160150">
        <ele>95.40</ele>
        <time>2014-03-02T11:18:16Z</time>
      </trkpt>
      <trkpt lat="41.602583470" lon="2.542131820">
        <ele>95.50</ele>
        <time>2014-03-02T11:18:17Z</time>
      </trkpt>
      <trkpt lat="41.602588500" lon="2.542098460">
        <ele>95.40</ele>
        <time>2014-03-02T11:18:18Z</time>
      </trkpt>
      <trkpt lat="41.602596710" lon="2.542061740">
        <ele>95.40</ele>
        <time>2014-03-02T11:18:19Z</time>
      </trkpt>
      <trkpt lat="41.602601740" lon="2.542026710">
        <ele>95.30</ele>
        <time>2014-03-02T11:18:20Z</time>
      </trkpt>
      <trkpt lat="41.602605090" lon="2.541993350">
        <ele>95.30</ele>
        <time>2014-03-02T11:18:21Z</time>
      </trkpt>
      <trkpt lat="41.602605090" lon="2.541960160">
        <ele>95.20</ele>
        <time>2014-03-02T11:18:22Z</time>
      </trkpt>
      <trkpt lat="41.602600060" lon="2.541926800">
        <ele>95.20</ele>
        <time>2014-03-02T11:18:23Z</time>
      </trkpt>
      <trkpt lat="41.602593360" lon="2.541886730">
        <ele>95.20</ele>
        <time>2014-03-02T11:18:24Z</time>
      </trkpt>
      <trkpt lat="41.602585140" lon="2.541845160">
        <ele>95.40</ele>
        <time>2014-03-02T11:18:25Z</time>
      </trkpt>
      <trkpt lat="41.602580110" lon="2.541805090">
        <ele>95.60</ele>
        <time>2014-03-02T11:18:26Z</time>
      </trkpt>
      <trkpt lat="41.602571730" lon="2.541773410">
        <ele>95.70</ele>
        <time>2014-03-02T11:18:27Z</time>
      </trkpt>
      <trkpt lat="41.602566700" lon="2.541746750">
        <ele>95.50</ele>
        <time>2014-03-02T11:18:28Z</time>
      </trkpt>
      <trkpt lat="41.602568380" lon="2.541718420">
        <ele>95.30</ele>
        <time>2014-03-02T11:18:29Z</time>
      </trkpt>
      <trkpt lat="41.602578440" lon="2.541691770">
        <ele>95.30</ele>
        <time>2014-03-02T11:18:30Z</time>
      </trkpt>
      <trkpt lat="41.602596710" lon="2.541675000">
        <ele>95.30</ele>
        <time>2014-03-02T11:18:31Z</time>
      </trkpt>
      <trkpt lat="41.602616830" lon="2.541661760">
        <ele>95.30</ele>
        <time>2014-03-02T11:18:32Z</time>
      </trkpt>
      <trkpt lat="41.602638450" lon="2.541651700">
        <ele>95.20</ele>
        <time>2014-03-02T11:18:33Z</time>
      </trkpt>
      <trkpt lat="41.602661750" lon="2.541636780">
        <ele>95.20</ele>
        <time>2014-03-02T11:18:34Z</time>
      </trkpt>
      <trkpt lat="41.602685060" lon="2.541623370">
        <ele>94.70</ele>
        <time>2014-03-02T11:18:35Z</time>
      </trkpt>
      <trkpt lat="41.602708360" lon="2.541610130">
        <ele>94.40</ele>
        <time>2014-03-02T11:18:36Z</time>
      </trkpt>
      <trkpt lat="41.602731830" lon="2.541595040">
        <ele>94.30</ele>
        <time>2014-03-02T11:18:37Z</time>
      </trkpt>
      <trkpt lat="41.602753450" lon="2.541578440">
        <ele>94.10</ele>
        <time>2014-03-02T11:18:38Z</time>
      </trkpt>
      <trkpt lat="41.602776750" lon="2.541563360">
        <ele>94.00</ele>
        <time>2014-03-02T11:18:39Z</time>
      </trkpt>
      <trkpt lat="41.602800060" lon="2.541551790">
        <ele>94.00</ele>
        <time>2014-03-02T11:18:40Z</time>
      </trkpt>
      <trkpt lat="41.602820000" lon="2.541535030">
        <ele>93.90</ele>
        <time>2014-03-02T11:18:41Z</time>
      </trkpt>
      <trkpt lat="41.602841800" lon="2.541520110">
        <ele>94.10</ele>
        <time>2014-03-02T11:18:42Z</time>
      </trkpt>
      <trkpt lat="41.602861750" lon="2.541503340">
        <ele>94.20</ele>
        <time>2014-03-02T11:18:43Z</time>
      </trkpt>
      <trkpt lat="41.602875160" lon="2.541478360">
        <ele>93.90</ele>
        <time>2014-03-02T11:18:44Z</time>
      </trkpt>
      <trkpt lat="41.602891750" lon="2.541451710">
        <ele>93.60</ele>
        <time>2014-03-02T11:18:45Z</time>
      </trkpt>
      <trkpt lat="41.602913380" lon="2.541428410">
        <ele>93.50</ele>
        <time>2014-03-02T11:18:46Z</time>
      </trkpt>
      <trkpt lat="41.602940030" lon="2.541411810">
        <ele>93.70</ele>
        <time>2014-03-02T11:18:47Z</time>
      </trkpt>
      <trkpt lat="41.602968360" lon="2.541396720">
        <ele>93.80</ele>
        <time>2014-03-02T11:18:48Z</time>
      </trkpt>
      <trkpt lat="41.602998370" lon="2.541383480">
        <ele>94.00</ele>
        <time>2014-03-02T11:18:49Z</time>
      </trkpt>
      <trkpt lat="41.603026700" lon="2.541371750">
        <ele>94.00</ele>
        <time>2014-03-02T11:18:50Z</time>
      </trkpt>
      <trkpt lat="41.603055030" lon="2.541360010">
        <ele>94.10</ele>
        <time>2014-03-02T11:18:51Z</time>
      </trkpt>
      <trkpt lat="41.603081690" lon="2.541345090">
        <ele>94.40</ele>
        <time>2014-03-02T11:18:52Z</time>
      </trkpt>
      <trkpt lat="41.603108340" lon="2.541330000">
        <ele>94.60</ele>
        <time>2014-03-02T11:18:53Z</time>
      </trkpt>
      <trkpt lat="41.603135000" lon="2.541315080">
        <ele>94.90</ele>
        <time>2014-03-02T11:18:54Z</time>
      </trkpt>
      <trkpt lat="41.603165000" lon="2.541301670">
        <ele>95.10</ele>
        <time>2014-03-02T11:18:55Z</time>
      </trkpt>
      <trkpt lat="41.603193330" lon="2.541290110">
        <ele>95.30</ele>
        <time>2014-03-02T11:18:56Z</time>
      </trkpt>
      <trkpt lat="41.603223340" lon="2.541283400">
        <ele>95.40</ele>
        <time>2014-03-02T11:18:57Z</time>
      </trkpt>
      <trkpt lat="41.603255020" lon="2.541278370">
        <ele>95.50</ele>
        <time>2014-03-02T11:18:58Z</time>
      </trkpt>
      <trkpt lat="41.603285030" lon="2.541276700">
        <ele>95.80</ele>
        <time>2014-03-02T11:18:59Z</time>
      </trkpt>
      <trkpt lat="41.603315040" lon="2.541271670">
        <ele>96.00</ele>
        <time>2014-03-02T11:19:00Z</time>
      </trkpt>
      <trkpt lat="41.603345050" lon="2.541261780">
        <ele>95.70</ele>
        <time>2014-03-02T11:19:01Z</time>
      </trkpt>
      <trkpt lat="41.603373380" lon="2.541248360">
        <ele>95.50</ele>
        <time>2014-03-02T11:19:02Z</time>
      </trkpt>
      <trkpt lat="41.603400030" lon="2.541233450">
        <ele>95.80</ele>
        <time>2014-03-02T11:19:03Z</time>
      </trkpt>
      <trkpt lat="41.603426690" lon="2.541216680">
        <ele>96.00</ele>
        <time>2014-03-02T11:19:04Z</time>
      </trkpt>
      <trkpt lat="41.603453340" lon="2.541200090">
        <ele>96.20</ele>
        <time>2014-03-02T11:19:05Z</time>
      </trkpt>
      <trkpt lat="41.603480000" lon="2.541181810">
        <ele>96.20</ele>
        <time>2014-03-02T11:19:06Z</time>
      </trkpt>
      <trkpt lat="41.603508490" lon="2.541163370">
        <ele>96.30</ele>
        <time>2014-03-02T11:19:07Z</time>
      </trkpt>
      <trkpt lat="41.603535150" lon="2.541143420">
        <ele>96.20</ele>
        <time>2014-03-02T11:19:08Z</time>
      </trkpt>
      <trkpt lat="41.603563480" lon="2.541126830">
        <ele>96.20</ele>
        <time>2014-03-02T11:19:09Z</time>
      </trkpt>
      <trkpt lat="41.603591810" lon="2.541113420">
        <ele>96.40</ele>
        <time>2014-03-02T11:19:10Z</time>
      </trkpt>
      <trkpt lat="41.603621820" lon="2.541096820">
        <ele>96.50</ele>
        <time>2014-03-02T11:19:11Z</time>
      </trkpt>
      <trkpt lat="41.603650150" lon="2.541080060">
        <ele>96.70</ele>
        <time>2014-03-02T11:19:12Z</time>
      </trkpt>
      <trkpt lat="41.603676800" lon="2.541063460">
        <ele>96.90</ele>
        <time>2014-03-02T11:19:13Z</time>
      </trkpt>
      <trkpt lat="41.603703460" lon="2.541045020">
        <ele>97.00</ele>
        <time>2014-03-02T11:19:14Z</time>
      </trkpt>
      <trkpt lat="41.603726760" lon="2.541025070">
        <ele>97.50</ele>
        <time>2014-03-02T11:19:15Z</time>
      </trkpt>
      <trkpt lat="41.603751740" lon="2.541006800">
        <ele>97.90</ele>
        <time>2014-03-02T11:19:16Z</time>
      </trkpt>
      <trkpt lat="41.603775040" lon="2.540985010">
        <ele>98.20</ele>
        <time>2014-03-02T11:19:17Z</time>
      </trkpt>
      <trkpt lat="41.603798340" lon="2.540966730">
        <ele>98.20</ele>
        <time>2014-03-02T11:19:18Z</time>
      </trkpt>
      <trkpt lat="41.603821810" lon="2.540948460">
        <ele>98.20</ele>
        <time>2014-03-02T11:19:19Z</time>
      </trkpt>
      <trkpt lat="41.603843430" lon="2.540928340">
        <ele>98.60</ele>
        <time>2014-03-02T11:19:20Z</time>
      </trkpt>
      <trkpt lat="41.603865060" lon="2.540911750">
        <ele>98.90</ele>
        <time>2014-03-02T11:19:21Z</time>
      </trkpt>
      <trkpt lat="41.603886680" lon="2.540891800">
        <ele>98.70</ele>
        <time>2014-03-02T11:19:22Z</time>
      </trkpt>
      <trkpt lat="41.603908480" lon="2.540870010">
        <ele>98.60</ele>
        <time>2014-03-02T11:19:23Z</time>
      </trkpt>
      <trkpt lat="41.603930100" lon="2.540850060">
        <ele>98.50</ele>
        <time>2014-03-02T11:19:24Z</time>
      </trkpt>
      <trkpt lat="41.603953400" lon="2.540828430">
        <ele>98.70</ele>
        <time>2014-03-02T11:19:25Z</time>
      </trkpt>
      <trkpt lat="41.603973350" lon="2.540808480">
        <ele>98.90</ele>
        <time>2014-03-02T11:19:26Z</time>
      </trkpt>
      <trkpt lat="41.603995150" lon="2.540790040">
        <ele>99.20</ele>
        <time>2014-03-02T11:19:27Z</time>
      </trkpt>
      <trkpt lat="41.604015100" lon="2.540770090">
        <ele>99.40</ele>
        <time>2014-03-02T11:19:28Z</time>
      </trkpt>
      <trkpt lat="41.604035040" lon="2.540751820">
        <ele>99.30</ele>
        <time>2014-03-02T11:19:29Z</time>
      </trkpt>
      <trkpt lat="41.604055160" lon="2.540731700">
        <ele>99.30</ele>
        <time>2014-03-02T11:19:30Z</time>
      </trkpt>
      <trkpt lat="41.604075110" lon="2.540711760">
        <ele>99.30</ele>
        <time>2014-03-02T11:19:31Z</time>
      </trkpt>
      <trkpt lat="41.604095060" lon="2.540691810">
        <ele>99.30</ele>
        <time>2014-03-02T11:19:32Z</time>
      </trkpt>
      <trkpt lat="41.604115010" lon="2.540673370">
        <ele>99.30</ele>
        <time>2014-03-02T11:19:33Z</time>
      </trkpt>
      <trkpt lat="41.604135120" lon="2.540658450">
        <ele>99.60</ele>
        <time>2014-03-02T11:19:34Z</time>
      </trkpt>
      <trkpt lat="41.604156750" lon="2.540640010">
        <ele>99.80</ele>
        <time>2014-03-02T11:19:35Z</time>
      </trkpt>
      <trkpt lat="41.604178380" lon="2.540621730">
        <ele>100.00</ele>
        <time>2014-03-02T11:19:36Z</time>
      </trkpt>
      <trkpt lat="41.604203350" lon="2.540603460">
        <ele>100.10</ele>
        <time>2014-03-02T11:19:37Z</time>
      </trkpt>
      <trkpt lat="41.604225150" lon="2.540586700">
        <ele>100.20</ele>
        <time>2014-03-02T11:19:38Z</time>
      </trkpt>
      <trkpt lat="41.604246770" lon="2.540568420">
        <ele>100.10</ele>
        <time>2014-03-02T11:19:39Z</time>
      </trkpt>
      <trkpt lat="41.604268400" lon="2.540550150">
        <ele>100.10</ele>
        <time>2014-03-02T11:19:40Z</time>
      </trkpt>
      <trkpt lat="41.604286670" lon="2.540533390">
        <ele>100.40</ele>
        <time>2014-03-02T11:19:41Z</time>
      </trkpt>
      <trkpt lat="41.604303430" lon="2.540520150">
        <ele>100.70</ele>
        <time>2014-03-02T11:19:42Z</time>
      </trkpt>
      <trkpt lat="41.604321710" lon="2.540506730">
        <ele>100.80</ele>
        <time>2014-03-02T11:19:43Z</time>
      </trkpt>
      <trkpt lat="41.604340150" lon="2.540498350">
        <ele>100.60</ele>
        <time>2014-03-02T11:19:44Z</time>
      </trkpt>
      <trkpt lat="41.604358420" lon="2.540493490">
        <ele>100.40</ele>
        <time>2014-03-02T11:19:45Z</time>
      </trkpt>
      <trkpt lat="41.604375010" lon="2.540493490">
        <ele>100.60</ele>
        <time>2014-03-02T11:19:46Z</time>
      </trkpt>
      <trkpt lat="41.604390100" lon="2.540496680">
        <ele>100.70</ele>
        <time>2014-03-02T11:19:47Z</time>
      </trkpt>
      <trkpt lat="41.604410050" lon="2.540508410">
        <ele>100.90</ele>
        <time>2014-03-02T11:19:48Z</time>
      </trkpt>
      <trkpt lat="41.604425140" lon="2.540525010">
        <ele>101.10</ele>
        <time>2014-03-02T11:19:49Z</time>
      </trkpt>
      <trkpt lat="41.604441730" lon="2.540541770">
        <ele>101.20</ele>
        <time>2014-03-02T11:19:50Z</time>
      </trkpt>
      <trkpt lat="41.604461680" lon="2.540556690">
        <ele>101.40</ele>
        <time>2014-03-02T11:19:51Z</time>
      </trkpt>
      <trkpt lat="41.604483480" lon="2.540568420">
        <ele>101.60</ele>
        <time>2014-03-02T11:19:52Z</time>
      </trkpt>
      <trkpt lat="41.604510130" lon="2.540568420">
        <ele>101.70</ele>
        <time>2014-03-02T11:19:53Z</time>
      </trkpt>
      <trkpt lat="41.604531760" lon="2.540561720">
        <ele>101.80</ele>
        <time>2014-03-02T11:19:54Z</time>
      </trkpt>
      <trkpt lat="41.604546680" lon="2.540555010">
        <ele>101.90</ele>
        <time>2014-03-02T11:19:55Z</time>
      </trkpt>
      <trkpt lat="41.604553380" lon="2.540551830">
        <ele>101.70</ele>
        <time>2014-03-02T11:19:56Z</time>
      </trkpt>
      <trkpt lat="41.604553380" lon="2.540540090">
        <ele>101.50</ele>
        <time>2014-03-02T11:19:57Z</time>
      </trkpt>
      <trkpt lat="41.604550030" lon="2.540520150">
        <ele>102.00</ele>
        <time>2014-03-02T11:19:58Z</time>
      </trkpt>
      <trkpt lat="41.604546680" lon="2.540495000">
        <ele>102.40</ele>
        <time>2014-03-02T11:19:59Z</time>
      </trkpt>
      <trkpt lat="41.604550030" lon="2.540466670">
        <ele>102.10</ele>
        <time>2014-03-02T11:20:00Z</time>
      </trkpt>
      <trkpt lat="41.604558410" lon="2.540440010">
        <ele>101.80</ele>
        <time>2014-03-02T11:20:01Z</time>
      </trkpt>
      <trkpt lat="41.604571820" lon="2.540418390">
        <ele>101.60</ele>
        <time>2014-03-02T11:20:02Z</time>
      </trkpt>
      <trkpt lat="41.604578360" lon="2.540400120">
        <ele>101.50</ele>
        <time>2014-03-02T11:20:03Z</time>
      </trkpt>
      <trkpt lat="41.604588420" lon="2.540385030">
        <ele>101.30</ele>
        <time>2014-03-02T11:20:04Z</time>
      </trkpt>
      <trkpt lat="41.604600150" lon="2.540371790">
        <ele>101.20</ele>
        <time>2014-03-02T11:20:05Z</time>
      </trkpt>
      <trkpt lat="41.604608370" lon="2.540358370">
        <ele>101.10</ele>
        <time>2014-03-02T11:20:06Z</time>
      </trkpt>
      <trkpt lat="41.604616750" lon="2.540346810">
        <ele>101.20</ele>
        <time>2014-03-02T11:20:07Z</time>
      </trkpt>
      <trkpt lat="41.604623450" lon="2.540336750">
        <ele>101.40</ele>
        <time>2014-03-02T11:20:08Z</time>
      </trkpt>
      <trkpt lat="41.604631670" lon="2.540326690">
        <ele>101.50</ele>
        <time>2014-03-02T11:20:09Z</time>
      </trkpt>
      <trkpt lat="41.604640050" lon="2.540313450">
        <ele>101.60</ele>
        <time>2014-03-02T11:20:10Z</time>
      </trkpt>
      <trkpt lat="41.604650110" lon="2.540296680">
        <ele>101.60</ele>
        <time>2014-03-02T11:20:11Z</time>
      </trkpt>
      <trkpt lat="41.604656810" lon="2.540270030">
        <ele>101.90</ele>
        <time>2014-03-02T11:20:12Z</time>
      </trkpt>
      <trkpt lat="41.604650110" lon="2.540241700">
        <ele>102.10</ele>
        <time>2014-03-02T11:20:13Z</time>
      </trkpt>
      <trkpt lat="41.604641730" lon="2.540208340">
        <ele>102.20</ele>
        <time>2014-03-02T11:20:14Z</time>
      </trkpt>
      <trkpt lat="41.604633340" lon="2.540175150">
        <ele>102.60</ele>
        <time>2014-03-02T11:20:15Z</time>
      </trkpt>
      <trkpt lat="41.604628480" lon="2.540143460">
        <ele>102.90</ele>
        <time>2014-03-02T11:20:16Z</time>
      </trkpt>
      <trkpt lat="41.604621780" lon="2.540108430">
        <ele>102.60</ele>
        <time>2014-03-02T11:20:17Z</time>
      </trkpt>
      <trkpt lat="41.604615070" lon="2.540071710">
        <ele>102.50</ele>
        <time>2014-03-02T11:20:18Z</time>
      </trkpt>
      <trkpt lat="41.604610040" lon="2.540035000">
        <ele>102.50</ele>
        <time>2014-03-02T11:20:19Z</time>
      </trkpt>
      <trkpt lat="41.604603340" lon="2.540000130">
        <ele>102.60</ele>
        <time>2014-03-02T11:20:20Z</time>
      </trkpt>
      <trkpt lat="41.604586740" lon="2.539968450">
        <ele>102.60</ele>
        <time>2014-03-02T11:20:21Z</time>
      </trkpt>
      <trkpt lat="41.604561760" lon="2.539938440">
        <ele>102.40</ele>
        <time>2014-03-02T11:20:22Z</time>
      </trkpt>
      <trkpt lat="41.604528400" lon="2.539906760">
        <ele>102.30</ele>
        <time>2014-03-02T11:20:23Z</time>
      </trkpt>
      <trkpt lat="41.604493370" lon="2.539875070">
        <ele>101.80</ele>
        <time>2014-03-02T11:20:24Z</time>
      </trkpt>
      <trkpt lat="41.604460010" lon="2.539843390">
        <ele>101.50</ele>
        <time>2014-03-02T11:20:25Z</time>
      </trkpt>
      <trkpt lat="41.604433350" lon="2.539811710">
        <ele>101.20</ele>
        <time>2014-03-02T11:20:26Z</time>
      </trkpt>
      <trkpt lat="41.604413400" lon="2.539783380">
        <ele>101.00</ele>
        <time>2014-03-02T11:20:27Z</time>
      </trkpt>
      <trkpt lat="41.604401670" lon="2.539751690">
        <ele>100.80</ele>
        <time>2014-03-02T11:20:28Z</time>
      </trkpt>
      <trkpt lat="41.604396810" lon="2.539721690">
        <ele>100.70</ele>
        <time>2014-03-02T11:20:29Z</time>
      </trkpt>
      <trkpt lat="41.604391780" lon="2.539688490">
        <ele>100.60</ele>
        <time>2014-03-02T11:20:30Z</time>
      </trkpt>
      <trkpt lat="41.604393450" lon="2.539656810">
        <ele>100.40</ele>
        <time>2014-03-02T11:20:31Z</time>
      </trkpt>
      <trkpt lat="41.604396810" lon="2.539621770">
        <ele>100.30</ele>
        <time>2014-03-02T11:20:32Z</time>
      </trkpt>
      <trkpt lat="41.604410050" lon="2.539591770">
        <ele>100.20</ele>
        <time>2014-03-02T11:20:33Z</time>
      </trkpt>
      <trkpt lat="41.604421790" lon="2.539561760">
        <ele>100.00</ele>
        <time>2014-03-02T11:20:34Z</time>
      </trkpt>
      <trkpt lat="41.604435030" lon="2.539531750">
        <ele>99.80</ele>
        <time>2014-03-02T11:20:35Z</time>
      </trkpt>
      <trkpt lat="41.604451790" lon="2.539501740">
        <ele>99.90</ele>
        <time>2014-03-02T11:20:36Z</time>
      </trkpt>
      <trkpt lat="41.604465040" lon="2.539475090">
        <ele>99.90</ele>
        <time>2014-03-02T11:20:37Z</time>
      </trkpt>
      <trkpt lat="41.604476770" lon="2.539445080">
        <ele>100.30</ele>
        <time>2014-03-02T11:20:38Z</time>
      </trkpt>
      <trkpt lat="41.604491690" lon="2.539415080">
        <ele>100.60</ele>
        <time>2014-03-02T11:20:39Z</time>
      </trkpt>
      <trkpt lat="41.604505100" lon="2.539385070">
        <ele>100.80</ele>
        <time>2014-03-02T11:20:40Z</time>
      </trkpt>
      <trkpt lat="41.604521700" lon="2.539356740">
        <ele>101.20</ele>
        <time>2014-03-02T11:20:41Z</time>
      </trkpt>
      <trkpt lat="41.604538460" lon="2.539328410">
        <ele>101.50</ele>
        <time>2014-03-02T11:20:42Z</time>
      </trkpt>
      <trkpt lat="41.604553380" lon="2.539298400">
        <ele>101.90</ele>
        <time>2014-03-02T11:20:43Z</time>
      </trkpt>
      <trkpt lat="41.604566790" lon="2.539268390">
        <ele>102.20</ele>
        <time>2014-03-02T11:20:44Z</time>
      </trkpt>
      <trkpt lat="41.604578360" lon="2.539240060">
        <ele>102.10</ele>
        <time>2014-03-02T11:20:45Z</time>
      </trkpt>
      <trkpt lat="41.604591770" lon="2.539216760">
        <ele>102.10</ele>
        <time>2014-03-02T11:20:46Z</time>
      </trkpt>
      <trkpt lat="41.604596800" lon="2.539196810">
        <ele>102.10</ele>
        <time>2014-03-02T11:20:47Z</time>
      </trkpt>
      <trkpt lat="41.604598480" lon="2.539183400">
        <ele>102.20</ele>
        <time>2014-03-02T11:20:48Z</time>
      </trkpt>
      <trkpt lat="41.604600150" lon="2.539178370">
        <ele>102.30</ele>
        <time>2014-03-02T11:20:49Z</time>
      </trkpt>
      <trkpt lat="41.604601830" lon="2.539178370">
        <ele>102.80</ele>
        <time>2014-03-02T11:20:50Z</time>
      </trkpt>
      <trkpt lat="41.604603340" lon="2.539178370">
        <ele>103.20</ele>
        <time>2014-03-02T11:20:51Z</time>
      </trkpt>
      <trkpt lat="41.604605010" lon="2.539173340">
        <ele>103.30</ele>
        <time>2014-03-02T11:20:52Z</time>
      </trkpt>
      <trkpt lat="41.604603340" lon="2.539170160">
        <ele>103.30</ele>
        <time>2014-03-02T11:20:53Z</time>
      </trkpt>
      <trkpt lat="41.604601830" lon="2.539165130">
        <ele>103.40</ele>
        <time>2014-03-02T11:20:54Z</time>
      </trkpt>
      <trkpt lat="41.604603340" lon="2.539163450">
        <ele>103.30</ele>
        <time>2014-03-02T11:20:55Z</time>
      </trkpt>
      <trkpt lat="41.604605010" lon="2.539163450">
        <ele>103.20</ele>
        <time>2014-03-02T11:20:56Z</time>
      </trkpt>
      <trkpt lat="41.604605010" lon="2.539163450">
        <ele>103.60</ele>
        <time>2014-03-02T11:20:57Z</time>
      </trkpt>
      <trkpt lat="41.604606690" lon="2.539163450">
        <ele>103.90</ele>
        <time>2014-03-02T11:20:58Z</time>
      </trkpt>
      <trkpt lat="41.604608370" lon="2.539163450">
        <ele>104.10</ele>
        <time>2014-03-02T11:20:59Z</time>
      </trkpt>
      <trkpt lat="41.604608370" lon="2.539163450">
        <ele>104.50</ele>
        <time>2014-03-02T11:21:00Z</time>
      </trkpt>
      <trkpt lat="41.604610040" lon="2.539163450">
        <ele>104.90</ele>
        <time>2014-03-02T11:21:01Z</time>
      </trkpt>
      <trkpt lat="41.604611720" lon="2.539163450">
        <ele>104.70</ele>
        <time>2014-03-02T11:21:02Z</time>
      </trkpt>
      <trkpt lat="41.604611720" lon="2.539165130">
        <ele>104.60</ele>
        <time>2014-03-02T11:21:03Z</time>
      </trkpt>
      <trkpt lat="41.604613400" lon="2.539165130">
        <ele>104.90</ele>
        <time>2014-03-02T11:21:04Z</time>
      </trkpt>
      <trkpt lat="41.604613400" lon="2.539166800">
        <ele>105.10</ele>
        <time>2014-03-02T11:21:05Z</time>
      </trkpt>
      <trkpt lat="41.604615070" lon="2.539166800">
        <ele>105.30</ele>
        <time>2014-03-02T11:21:06Z</time>
      </trkpt>
      <trkpt lat="41.604616750" lon="2.539166800">
        <ele>104.90</ele>
        <time>2014-03-02T11:21:07Z</time>
      </trkpt>
      <trkpt lat="41.604616750" lon="2.539168480">
        <ele>104.60</ele>
        <time>2014-03-02T11:21:08Z</time>
      </trkpt>
      <trkpt lat="41.604618430" lon="2.539168480">
        <ele>104.10</ele>
        <time>2014-03-02T11:21:09Z</time>
      </trkpt>
      <trkpt lat="41.604618430" lon="2.539170160">
        <ele>103.70</ele>
        <time>2014-03-02T11:21:10Z</time>
      </trkpt>
      <trkpt lat="41.604620100" lon="2.539170160">
        <ele>103.80</ele>
        <time>2014-03-02T11:21:11Z</time>
      </trkpt>
      <trkpt lat="41.604620100" lon="2.539171660">
        <ele>103.90</ele>
        <time>2014-03-02T11:21:12Z</time>
      </trkpt>
      <trkpt lat="41.604621780" lon="2.539171660">
        <ele>104.00</ele>
        <time>2014-03-02T11:21:13Z</time>
      </trkpt>
      <trkpt lat="41.604621780" lon="2.539171660">
        <ele>104.00</ele>
        <time>2014-03-02T11:21:14Z</time>
      </trkpt>
      <trkpt lat="41.604623450" lon="2.539173340">
        <ele>104.00</ele>
        <time>2014-03-02T11:21:15Z</time>
      </trkpt>
      <trkpt lat="41.604625130" lon="2.539173340">
        <ele>104.40</ele>
        <time>2014-03-02T11:21:16Z</time>
      </trkpt>
      <trkpt lat="41.604625130" lon="2.539175020">
        <ele>104.60</ele>
        <time>2014-03-02T11:21:17Z</time>
      </trkpt>
      <trkpt lat="41.604626810" lon="2.539175020">
        <ele>104.80</ele>
        <time>2014-03-02T11:21:18Z</time>
      </trkpt>
      <trkpt lat="41.604626810" lon="2.539175020">
        <ele>104.20</ele>
        <time>2014-03-02T11:21:19Z</time>
      </trkpt>
      <trkpt lat="41.604628480" lon="2.539176690">
        <ele>103.70</ele>
        <time>2014-03-02T11:21:20Z</time>
      </trkpt>
      <trkpt lat="41.604628480" lon="2.539176690">
        <ele>103.80</ele>
        <time>2014-03-02T11:21:21Z</time>
      </trkpt>
      <trkpt lat="41.604630160" lon="2.539176690">
        <ele>103.80</ele>
        <time>2014-03-02T11:21:22Z</time>
      </trkpt>
      <trkpt lat="41.604630160" lon="2.539178370">
        <ele>103.90</ele>
        <time>2014-03-02T11:21:23Z</time>
      </trkpt>
      <trkpt lat="41.604631670" lon="2.539178370">
        <ele>103.90</ele>
        <time>2014-03-02T11:21:24Z</time>
      </trkpt>
      <trkpt lat="41.604631670" lon="2.539180050">
        <ele>104.00</ele>
        <time>2014-03-02T11:21:25Z</time>
      </trkpt>
      <trkpt lat="41.604633340" lon="2.539180050">
        <ele>103.80</ele>
        <time>2014-03-02T11:21:26Z</time>
      </trkpt>
      <trkpt lat="41.604633340" lon="2.539180050">
        <ele>103.60</ele>
        <time>2014-03-02T11:21:27Z</time>
      </trkpt>
      <trkpt lat="41.604635020" lon="2.539181720">
        <ele>103.70</ele>
        <time>2014-03-02T11:21:28Z</time>
      </trkpt>
      <trkpt lat="41.604635020" lon="2.539181720">
        <ele>103.70</ele>
        <time>2014-03-02T11:21:29Z</time>
      </trkpt>
      <trkpt lat="41.604636700" lon="2.539183400">
        <ele>103.70</ele>
        <time>2014-03-02T11:21:30Z</time>
      </trkpt>
      <trkpt lat="41.604636700" lon="2.539183400">
        <ele>103.60</ele>
        <time>2014-03-02T11:21:31Z</time>
      </trkpt>
      <trkpt lat="41.604638370" lon="2.539183400">
        <ele>103.60</ele>
        <time>2014-03-02T11:21:32Z</time>
      </trkpt>
      <trkpt lat="41.604638370" lon="2.539185080">
        <ele>103.90</ele>
        <time>2014-03-02T11:21:33Z</time>
      </trkpt>
      <trkpt lat="41.604640050" lon="2.539185080">
        <ele>104.00</ele>
        <time>2014-03-02T11:21:34Z</time>
      </trkpt>
      <trkpt lat="41.604640050" lon="2.539186750">
        <ele>104.00</ele>
        <time>2014-03-02T11:21:35Z</time>
      </trkpt>
      <trkpt lat="41.604641730" lon="2.539186750">
        <ele>104.00</ele>
        <time>2014-03-02T11:21:36Z</time>
      </trkpt>
      <trkpt lat="41.604641730" lon="2.539188430">
        <ele>104.00</ele>
        <time>2014-03-02T11:21:37Z</time>
      </trkpt>
      <trkpt lat="41.604641730" lon="2.539188430">
        <ele>103.50</ele>
        <time>2014-03-02T11:21:38Z</time>
      </trkpt>
      <trkpt lat="41.604643400" lon="2.539188430">
        <ele>103.00</ele>
        <time>2014-03-02T11:21:39Z</time>
      </trkpt>
      <trkpt lat="41.604643400" lon="2.539190100">
        <ele>103.30</ele>
        <time>2014-03-02T11:21:40Z</time>
      </trkpt>
      <trkpt lat="41.604645080" lon="2.539190100">
        <ele>103.50</ele>
        <time>2014-03-02T11:21:41Z</time>
      </trkpt>
      <trkpt lat="41.604645080" lon="2.539190100">
        <ele>103.60</ele>
        <time>2014-03-02T11:21:42Z</time>
      </trkpt>
      <trkpt lat="41.604646760" lon="2.539190100">
        <ele>103.70</ele>
        <time>2014-03-02T11:21:43Z</time>
      </trkpt>
      <trkpt lat="41.604646760" lon="2.539191780">
        <ele>103.70</ele>
        <time>2014-03-02T11:21:44Z</time>
      </trkpt>
      <trkpt lat="41.604648430" lon="2.539191780">
        <ele>103.70</ele>
        <time>2014-03-02T11:21:45Z</time>
      </trkpt>
      <trkpt lat="41.604648430" lon="2.539191780">
        <ele>103.70</ele>
        <time>2014-03-02T11:21:46Z</time>
      </trkpt>
    </trkseg>
  </trk>
</gpx>
